<?xml version="1.0" encoding="UTF-8" standalone="no" ?><gpx xmlns="http://www.topografix.com/GPX/1/1" xmlns:gpxx="http://www.garmin.com/xmlschemas/GpxExtensions/v3" xmlns:wptx1="http://www.garmin.com/xmlschemas/WaypointExtension/v1" xmlns:gpxtpx="http://www.garmin.com/xmlschemas/TrackPointExtension/v1" creator="GuideVTT.com" version="1.1" xmlns:xsi="http://www.w3.org/2001/XMLSchema-instance" xsi:schemaLocation="http://www.topografix.com/GPX/1/1 http://www.topografix.com/GPX/1/1/gpx.xsd http://www.garmin.com/xmlschemas/GpxExtensions/v3 http://www8.garmin.com/xmlschemas/GpxExtensionsv3.xsd http://www.garmin.com/xmlschemas/WaypointExtension/v1 http://www8.garmin.com/xmlschemas/WaypointExtensionv1.xsd http://www.garmin.com/xmlschemas/TrackPointExtension/v1 http://www.garmin.com/xmlschemas/TrackPointExtensionv1.xsd">
<metadata><link href="http://www.garmin.com"><text>Garmin International</text></link><time>2013-06-22T15:13:50Z</time></metadata>
<trk><name>19_10_09.gpx</name><extensions><gpxx:TrackExtension><gpxx:DisplayColor>Cyan</gpxx:DisplayColor></gpxx:TrackExtension></extensions><trkseg>
<trkpt lat="46.14744524" lon="5.96988539"><ele>381.300049</ele><time>2009-10-19T10:51:46Z</time></trkpt>
<trkpt lat="46.14744944" lon="5.96989537"><ele>380.819458</ele><time>2009-10-19T10:51:47Z</time></trkpt>
<trkpt lat="46.14746553" lon="5.96991012"><ele>379.858032</ele><time>2009-10-19T10:51:48Z</time></trkpt>
<trkpt lat="46.14748439" lon="5.96993510"><ele>378.416138</ele><time>2009-10-19T10:51:49Z</time></trkpt>
<trkpt lat="46.14750216" lon="5.96996577"><ele>377.454834</ele><time>2009-10-19T10:51:50Z</time></trkpt>
<trkpt lat="46.14751976" lon="5.97000039"><ele>376.49353</ele><time>2009-10-19T10:51:51Z</time></trkpt>
<trkpt lat="46.14753292" lon="5.97002998"><ele>375.051514</ele><time>2009-10-19T10:51:52Z</time></trkpt>
<trkpt lat="46.14754792" lon="5.97005764"><ele>374.090088</ele><time>2009-10-19T10:51:53Z</time></trkpt>
<trkpt lat="46.14756318" lon="5.97008798"><ele>374.090088</ele><time>2009-10-19T10:51:54Z</time></trkpt>
<trkpt lat="46.14757936" lon="5.97012595"><ele>374.090088</ele><time>2009-10-19T10:51:55Z</time></trkpt>
<trkpt lat="46.14760048" lon="5.97017650"><ele>373.609497</ele><time>2009-10-19T10:51:56Z</time></trkpt>
<trkpt lat="46.14762512" lon="5.97022528"><ele>372.648193</ele><time>2009-10-19T10:51:57Z</time></trkpt>
<trkpt lat="46.14765345" lon="5.97027322"><ele>371.68689</ele><time>2009-10-19T10:51:58Z</time></trkpt>
<trkpt lat="46.14768606" lon="5.97032544"><ele>370.725586</ele><time>2009-10-19T10:51:59Z</time></trkpt>
<trkpt lat="46.14771875" lon="5.97037674"><ele>370.244873</ele><time>2009-10-19T10:52:00Z</time></trkpt>
<trkpt lat="46.14775705" lon="5.97043675"><ele>369.764282</ele><time>2009-10-19T10:52:01Z</time></trkpt>
<trkpt lat="46.14779326" lon="5.97049065"><ele>369.764282</ele><time>2009-10-19T10:52:02Z</time></trkpt>
<trkpt lat="46.14782394" lon="5.97053248"><ele>370.725586</ele><time>2009-10-19T10:52:03Z</time></trkpt>
<trkpt lat="46.14785680" lon="5.97058402"><ele>370.244873</ele><time>2009-10-19T10:52:04Z</time></trkpt>
<trkpt lat="46.14789183" lon="5.97063272"><ele>370.244873</ele><time>2009-10-19T10:52:05Z</time></trkpt>
<trkpt lat="46.14792117" lon="5.97067765"><ele>369.764282</ele><time>2009-10-19T10:52:06Z</time></trkpt>
<trkpt lat="46.14795160" lon="5.97072283"><ele>369.283691</ele><time>2009-10-19T10:52:07Z</time></trkpt>
<trkpt lat="46.14798940" lon="5.97078678"><ele>369.283691</ele><time>2009-10-19T10:52:08Z</time></trkpt>
<trkpt lat="46.14802284" lon="5.97084629"><ele>368.802979</ele><time>2009-10-19T10:52:09Z</time></trkpt>
<trkpt lat="46.14806215" lon="5.97091352"><ele>367.360962</ele><time>2009-10-19T10:52:10Z</time></trkpt>
<trkpt lat="46.14810138" lon="5.97098468"><ele>368.322266</ele><time>2009-10-19T10:52:11Z</time></trkpt>
<trkpt lat="46.14814807" lon="5.97105894"><ele>369.283691</ele><time>2009-10-19T10:52:12Z</time></trkpt>
<trkpt lat="46.14818319" lon="5.97109205"><ele>370.244873</ele><time>2009-10-19T10:52:13Z</time></trkpt>
<trkpt lat="46.14822979" lon="5.97109976"><ele>372.16748</ele><time>2009-10-19T10:52:14Z</time></trkpt>
<trkpt lat="46.14827556" lon="5.97119565"><ele>372.16748</ele><time>2009-10-19T10:52:15Z</time></trkpt>
<trkpt lat="46.14831596" lon="5.97129045"><ele>371.68689</ele><time>2009-10-19T10:52:16Z</time></trkpt>
<trkpt lat="46.14835443" lon="5.97136689"><ele>370.725586</ele><time>2009-10-19T10:52:17Z</time></trkpt>
<trkpt lat="46.14839198" lon="5.97143546"><ele>370.244873</ele><time>2009-10-19T10:52:18Z</time></trkpt>
<trkpt lat="46.14842509" lon="5.97149245"><ele>369.283691</ele><time>2009-10-19T10:52:19Z</time></trkpt>
<trkpt lat="46.14845878" lon="5.97154677"><ele>368.802979</ele><time>2009-10-19T10:52:20Z</time></trkpt>
<trkpt lat="46.14850296" lon="5.97156269"><ele>369.764282</ele><time>2009-10-19T10:52:21Z</time></trkpt>
<trkpt lat="46.14854344" lon="5.97165339"><ele>370.725586</ele><time>2009-10-19T10:52:22Z</time></trkpt>
<trkpt lat="46.14854420" lon="5.97177777"><ele>371.206299</ele><time>2009-10-19T10:52:23Z</time></trkpt>
<trkpt lat="46.14858309" lon="5.97183066"><ele>372.648193</ele><time>2009-10-19T10:52:24Z</time></trkpt>
<trkpt lat="46.14861863" lon="5.97187844"><ele>373.128906</ele><time>2009-10-19T10:52:25Z</time></trkpt>
<trkpt lat="46.14865408" lon="5.97192270"><ele>372.648193</ele><time>2009-10-19T10:52:26Z</time></trkpt>
<trkpt lat="46.14869474" lon="5.97197684"><ele>373.609497</ele><time>2009-10-19T10:52:27Z</time></trkpt>
<trkpt lat="46.14873748" lon="5.97202118"><ele>374.570801</ele><time>2009-10-19T10:52:28Z</time></trkpt>
<trkpt lat="46.14877780" lon="5.97206896"><ele>374.570801</ele><time>2009-10-19T10:52:29Z</time></trkpt>
<trkpt lat="46.14881895" lon="5.97211355"><ele>374.570801</ele><time>2009-10-19T10:52:30Z</time></trkpt>
<trkpt lat="46.14885760" lon="5.97215898"><ele>374.570801</ele><time>2009-10-19T10:52:31Z</time></trkpt>
<trkpt lat="46.14890093" lon="5.97220844"><ele>376.012817</ele><time>2009-10-19T10:52:32Z</time></trkpt>
<trkpt lat="46.14895642" lon="5.97226384"><ele>377.935425</ele><time>2009-10-19T10:52:33Z</time></trkpt>
<trkpt lat="46.14899883" lon="5.97231153"><ele>378.896851</ele><time>2009-10-19T10:52:34Z</time></trkpt>
<trkpt lat="46.14903705" lon="5.97236359"><ele>379.377441</ele><time>2009-10-19T10:52:35Z</time></trkpt>
<trkpt lat="46.14907335" lon="5.97240834"><ele>379.377441</ele><time>2009-10-19T10:52:36Z</time></trkpt>
<trkpt lat="46.14910595" lon="5.97245243"><ele>378.896851</ele><time>2009-10-19T10:52:37Z</time></trkpt>
<trkpt lat="46.14913856" lon="5.97248965"><ele>377.454834</ele><time>2009-10-19T10:52:38Z</time></trkpt>
<trkpt lat="46.14917502" lon="5.97253022"><ele>377.454834</ele><time>2009-10-19T10:52:39Z</time></trkpt>
<trkpt lat="46.14921148" lon="5.97256542"><ele>376.49353</ele><time>2009-10-19T10:52:40Z</time></trkpt>
<trkpt lat="46.14924568" lon="5.97259518"><ele>375.051514</ele><time>2009-10-19T10:52:41Z</time></trkpt>
<trkpt lat="46.14927485" lon="5.97263114"><ele>373.609497</ele><time>2009-10-19T10:52:42Z</time></trkpt>
<trkpt lat="46.14930712" lon="5.97266768"><ele>371.68689</ele><time>2009-10-19T10:52:43Z</time></trkpt>
<trkpt lat="46.14934618" lon="5.97269752"><ele>371.206299</ele><time>2009-10-19T10:52:44Z</time></trkpt>
<trkpt lat="46.14938037" lon="5.97272686"><ele>369.764282</ele><time>2009-10-19T10:52:45Z</time></trkpt>
<trkpt lat="46.14940988" lon="5.97276122"><ele>369.283691</ele><time>2009-10-19T10:52:46Z</time></trkpt>
<trkpt lat="46.14944139" lon="5.97279794"><ele>369.283691</ele><time>2009-10-19T10:52:47Z</time></trkpt>
<trkpt lat="46.14946838" lon="5.97284194"><ele>368.802979</ele><time>2009-10-19T10:52:48Z</time></trkpt>
<trkpt lat="46.14950057" lon="5.97288209"><ele>369.283691</ele><time>2009-10-19T10:52:49Z</time></trkpt>
<trkpt lat="46.14953888" lon="5.97291704"><ele>369.764282</ele><time>2009-10-19T10:52:50Z</time></trkpt>
<trkpt lat="46.14957643" lon="5.97296918"><ele>370.725586</ele><time>2009-10-19T10:52:51Z</time></trkpt>
<trkpt lat="46.14960903" lon="5.97302483"><ele>370.244873</ele><time>2009-10-19T10:52:52Z</time></trkpt>
<trkpt lat="46.14964189" lon="5.97308158"><ele>370.244873</ele><time>2009-10-19T10:52:53Z</time></trkpt>
<trkpt lat="46.14967433" lon="5.97314285"><ele>370.244873</ele><time>2009-10-19T10:52:54Z</time></trkpt>
<trkpt lat="46.14970576" lon="5.97320236"><ele>370.244873</ele><time>2009-10-19T10:52:55Z</time></trkpt>
<trkpt lat="46.14973803" lon="5.97326573"><ele>370.725586</ele><time>2009-10-19T10:52:56Z</time></trkpt>
<trkpt lat="46.14977357" lon="5.97333195"><ele>372.16748</ele><time>2009-10-19T10:52:57Z</time></trkpt>
<trkpt lat="46.14981347" lon="5.97338609"><ele>372.16748</ele><time>2009-10-19T10:52:58Z</time></trkpt>
<trkpt lat="46.14985504" lon="5.97343689"><ele>372.648193</ele><time>2009-10-19T10:52:59Z</time></trkpt>
<trkpt lat="46.14990190" lon="5.97348014"><ele>372.648193</ele><time>2009-10-19T10:53:00Z</time></trkpt>
<trkpt lat="46.14994339" lon="5.97351727"><ele>373.128906</ele><time>2009-10-19T10:53:01Z</time></trkpt>
<trkpt lat="46.14998764" lon="5.97354912"><ele>373.128906</ele><time>2009-10-19T10:53:02Z</time></trkpt>
<trkpt lat="46.15003358" lon="5.97360017"><ele>373.128906</ele><time>2009-10-19T10:53:03Z</time></trkpt>
<trkpt lat="46.15007272" lon="5.97367602"><ele>374.570801</ele><time>2009-10-19T10:53:04Z</time></trkpt>
<trkpt lat="46.15011094" lon="5.97373637"><ele>375.051514</ele><time>2009-10-19T10:53:05Z</time></trkpt>
<trkpt lat="46.15015034" lon="5.97380234"><ele>376.012817</ele><time>2009-10-19T10:53:06Z</time></trkpt>
<trkpt lat="46.15018697" lon="5.97386319"><ele>376.012817</ele><time>2009-10-19T10:53:07Z</time></trkpt>
<trkpt lat="46.15022393" lon="5.97392228"><ele>376.49353</ele><time>2009-10-19T10:53:08Z</time></trkpt>
<trkpt lat="46.15026299" lon="5.97397945"><ele>376.49353</ele><time>2009-10-19T10:53:09Z</time></trkpt>
<trkpt lat="46.15030414" lon="5.97403653"><ele>376.974243</ele><time>2009-10-19T10:53:10Z</time></trkpt>
<trkpt lat="46.15034597" lon="5.97409512"><ele>377.454834</ele><time>2009-10-19T10:53:11Z</time></trkpt>
<trkpt lat="46.15038478" lon="5.97415220"><ele>377.935425</ele><time>2009-10-19T10:53:12Z</time></trkpt>
<trkpt lat="46.15042015" lon="5.97420869"><ele>377.935425</ele><time>2009-10-19T10:53:13Z</time></trkpt>
<trkpt lat="46.15045653" lon="5.97426527"><ele>377.935425</ele><time>2009-10-19T10:53:14Z</time></trkpt>
<trkpt lat="46.15049324" lon="5.97432068"><ele>377.935425</ele><time>2009-10-19T10:53:15Z</time></trkpt>
<trkpt lat="46.15053096" lon="5.97437566"><ele>377.935425</ele><time>2009-10-19T10:53:16Z</time></trkpt>
<trkpt lat="46.15056935" lon="5.97442486"><ele>377.454834</ele><time>2009-10-19T10:53:17Z</time></trkpt>
<trkpt lat="46.15060849" lon="5.97446937"><ele>376.974243</ele><time>2009-10-19T10:53:18Z</time></trkpt>
<trkpt lat="46.15065250" lon="5.97450759"><ele>376.974243</ele><time>2009-10-19T10:53:19Z</time></trkpt>
<trkpt lat="46.15069558" lon="5.97453307"><ele>376.49353</ele><time>2009-10-19T10:53:20Z</time></trkpt>
<trkpt lat="46.15073715" lon="5.97455705"><ele>376.012817</ele><time>2009-10-19T10:53:21Z</time></trkpt>
<trkpt lat="46.15077722" lon="5.97459099"><ele>376.012817</ele><time>2009-10-19T10:53:22Z</time></trkpt>
<trkpt lat="46.15081586" lon="5.97463852"><ele>376.49353</ele><time>2009-10-19T10:53:23Z</time></trkpt>
<trkpt lat="46.15084796" lon="5.97469074"><ele>376.49353</ele><time>2009-10-19T10:53:24Z</time></trkpt>
<trkpt lat="46.15088392" lon="5.97473600"><ele>376.49353</ele><time>2009-10-19T10:53:25Z</time></trkpt>
<trkpt lat="46.15092617" lon="5.97475972"><ele>376.974243</ele><time>2009-10-19T10:53:26Z</time></trkpt>
<trkpt lat="46.15095718" lon="5.97471362"><ele>377.935425</ele><time>2009-10-19T10:53:27Z</time></trkpt>
<trkpt lat="46.15097344" lon="5.97465419"><ele>379.377441</ele><time>2009-10-19T10:53:28Z</time></trkpt>
<trkpt lat="46.15100185" lon="5.97460005"><ele>380.338745</ele><time>2009-10-19T10:53:29Z</time></trkpt>
<trkpt lat="46.15103664" lon="5.97455420"><ele>381.300049</ele><time>2009-10-19T10:53:30Z</time></trkpt>
<trkpt lat="46.15107419" lon="5.97450667"><ele>381.300049</ele><time>2009-10-19T10:53:31Z</time></trkpt>
<trkpt lat="46.15111509" lon="5.97446074"><ele>381.78064</ele><time>2009-10-19T10:53:32Z</time></trkpt>
<trkpt lat="46.15116362" lon="5.97441539"><ele>381.78064</ele><time>2009-10-19T10:53:33Z</time></trkpt>
<trkpt lat="46.15120989" lon="5.97437164"><ele>381.300049</ele><time>2009-10-19T10:53:34Z</time></trkpt>
<trkpt lat="46.15126044" lon="5.97432646"><ele>381.300049</ele><time>2009-10-19T10:53:35Z</time></trkpt>
<trkpt lat="46.15130863" lon="5.97428095"><ele>380.819458</ele><time>2009-10-19T10:53:36Z</time></trkpt>
<trkpt lat="46.15135909" lon="5.97423837"><ele>380.819458</ele><time>2009-10-19T10:53:37Z</time></trkpt>
<trkpt lat="46.15140854" lon="5.97419646"><ele>380.338745</ele><time>2009-10-19T10:53:38Z</time></trkpt>
<trkpt lat="46.15145917" lon="5.97415622"><ele>380.338745</ele><time>2009-10-19T10:53:39Z</time></trkpt>
<trkpt lat="46.15150846" lon="5.97411867"><ele>379.858032</ele><time>2009-10-19T10:53:40Z</time></trkpt>
<trkpt lat="46.15155992" lon="5.97408674"><ele>379.858032</ele><time>2009-10-19T10:53:41Z</time></trkpt>
<trkpt lat="46.15161172" lon="5.97405748"><ele>379.858032</ele><time>2009-10-19T10:53:42Z</time></trkpt>
<trkpt lat="46.15166184" lon="5.97402530"><ele>379.858032</ele><time>2009-10-19T10:53:43Z</time></trkpt>
<trkpt lat="46.15171004" lon="5.97399026"><ele>379.858032</ele><time>2009-10-19T10:53:44Z</time></trkpt>
<trkpt lat="46.15175857" lon="5.97395539"><ele>379.858032</ele><time>2009-10-19T10:53:45Z</time></trkpt>
<trkpt lat="46.15180786" lon="5.97392086"><ele>379.858032</ele><time>2009-10-19T10:53:46Z</time></trkpt>
<trkpt lat="46.15185739" lon="5.97388515"><ele>379.858032</ele><time>2009-10-19T10:53:47Z</time></trkpt>
<trkpt lat="46.15190802" lon="5.97384919"><ele>379.858032</ele><time>2009-10-19T10:53:48Z</time></trkpt>
<trkpt lat="46.15195672" lon="5.97381106"><ele>379.377441</ele><time>2009-10-19T10:53:49Z</time></trkpt>
<trkpt lat="46.15200534" lon="5.97377133"><ele>379.377441</ele><time>2009-10-19T10:53:50Z</time></trkpt>
<trkpt lat="46.15205697" lon="5.97373285"><ele>379.377441</ele><time>2009-10-19T10:53:51Z</time></trkpt>
<trkpt lat="46.15210868" lon="5.97369463"><ele>379.377441</ele><time>2009-10-19T10:53:52Z</time></trkpt>
<trkpt lat="46.15216065" lon="5.97365750"><ele>379.377441</ele><time>2009-10-19T10:53:53Z</time></trkpt>
<trkpt lat="46.15221153" lon="5.97362464"><ele>378.896851</ele><time>2009-10-19T10:53:54Z</time></trkpt>
<trkpt lat="46.15226090" lon="5.97359732"><ele>378.896851</ele><time>2009-10-19T10:53:55Z</time></trkpt>
<trkpt lat="46.15231069" lon="5.97356907"><ele>378.416138</ele><time>2009-10-19T10:53:56Z</time></trkpt>
<trkpt lat="46.15236073" lon="5.97353672"><ele>378.416138</ele><time>2009-10-19T10:53:57Z</time></trkpt>
<trkpt lat="46.15241404" lon="5.97350344"><ele>378.416138</ele><time>2009-10-19T10:53:58Z</time></trkpt>
<trkpt lat="46.15246927" lon="5.97346924"><ele>378.416138</ele><time>2009-10-19T10:53:59Z</time></trkpt>
<trkpt lat="46.15252325" lon="5.97343664"><ele>378.416138</ele><time>2009-10-19T10:54:00Z</time></trkpt>
<trkpt lat="46.15257715" lon="5.97340185"><ele>378.416138</ele><time>2009-10-19T10:54:01Z</time></trkpt>
<trkpt lat="46.15262954" lon="5.97336615"><ele>378.416138</ele><time>2009-10-19T10:54:02Z</time></trkpt>
<trkpt lat="46.15268167" lon="5.97333170"><ele>378.416138</ele><time>2009-10-19T10:54:03Z</time></trkpt>
<trkpt lat="46.15273347" lon="5.97329792"><ele>378.416138</ele><time>2009-10-19T10:54:04Z</time></trkpt>
<trkpt lat="46.15278527" lon="5.97326456"><ele>378.416138</ele><time>2009-10-19T10:54:05Z</time></trkpt>
<trkpt lat="46.15283716" lon="5.97323153"><ele>377.935425</ele><time>2009-10-19T10:54:06Z</time></trkpt>
<trkpt lat="46.15288887" lon="5.97319758"><ele>377.935425</ele><time>2009-10-19T10:54:07Z</time></trkpt>
<trkpt lat="46.15293908" lon="5.97315894"><ele>377.935425</ele><time>2009-10-19T10:54:08Z</time></trkpt>
<trkpt lat="46.15298845" lon="5.97311536"><ele>377.935425</ele><time>2009-10-19T10:54:09Z</time></trkpt>
<trkpt lat="46.15303824" lon="5.97306892"><ele>377.935425</ele><time>2009-10-19T10:54:10Z</time></trkpt>
<trkpt lat="46.15308719" lon="5.97302106"><ele>377.454834</ele><time>2009-10-19T10:54:11Z</time></trkpt>
<trkpt lat="46.15313413" lon="5.97297119"><ele>377.454834</ele><time>2009-10-19T10:54:12Z</time></trkpt>
<trkpt lat="46.15317947" lon="5.97291662"><ele>377.454834</ele><time>2009-10-19T10:54:13Z</time></trkpt>
<trkpt lat="46.15322306" lon="5.97285653"><ele>377.454834</ele><time>2009-10-19T10:54:14Z</time></trkpt>
<trkpt lat="46.15326304" lon="5.97279224"><ele>377.454834</ele><time>2009-10-19T10:54:15Z</time></trkpt>
<trkpt lat="46.15329925" lon="5.97272686"><ele>377.454834</ele><time>2009-10-19T10:54:16Z</time></trkpt>
<trkpt lat="46.15333957" lon="5.97266089"><ele>376.974243</ele><time>2009-10-19T10:54:17Z</time></trkpt>
<trkpt lat="46.15337427" lon="5.97260314"><ele>377.454834</ele><time>2009-10-19T10:54:18Z</time></trkpt>
<trkpt lat="46.15341073" lon="5.97254556"><ele>377.454834</ele><time>2009-10-19T10:54:19Z</time></trkpt>
<trkpt lat="46.15344426" lon="5.97248688"><ele>377.454834</ele><time>2009-10-19T10:54:20Z</time></trkpt>
<trkpt lat="46.15348105" lon="5.97243852"><ele>377.935425</ele><time>2009-10-19T10:54:21Z</time></trkpt>
<trkpt lat="46.15352590" lon="5.97241287"><ele>377.935425</ele><time>2009-10-19T10:54:22Z</time></trkpt>
<trkpt lat="46.15356370" lon="5.97241648"><ele>377.935425</ele><time>2009-10-19T10:54:23Z</time></trkpt>
<trkpt lat="46.15359672" lon="5.97244078"><ele>378.416138</ele><time>2009-10-19T10:54:24Z</time></trkpt>
<trkpt lat="46.15362589" lon="5.97248252"><ele>378.896851</ele><time>2009-10-19T10:54:25Z</time></trkpt>
<trkpt lat="46.15365749" lon="5.97252318"><ele>378.896851</ele><time>2009-10-19T10:54:26Z</time></trkpt>
<trkpt lat="46.15369144" lon="5.97256576"><ele>378.416138</ele><time>2009-10-19T10:54:27Z</time></trkpt>
<trkpt lat="46.15372907" lon="5.97260364"><ele>377.935425</ele><time>2009-10-19T10:54:28Z</time></trkpt>
<trkpt lat="46.15375556" lon="5.97264128"><ele>377.454834</ele><time>2009-10-19T10:54:29Z</time></trkpt>
<trkpt lat="46.15377995" lon="5.97267807"><ele>377.454834</ele><time>2009-10-19T10:54:30Z</time></trkpt>
<trkpt lat="46.15381155" lon="5.97271806"><ele>377.454834</ele><time>2009-10-19T10:54:31Z</time></trkpt>
<trkpt lat="46.15384810" lon="5.97275846"><ele>377.935425</ele><time>2009-10-19T10:54:32Z</time></trkpt>
<trkpt lat="46.15388565" lon="5.97279752"><ele>378.896851</ele><time>2009-10-19T10:54:33Z</time></trkpt>
<trkpt lat="46.15392890" lon="5.97283968"><ele>379.858032</ele><time>2009-10-19T10:54:34Z</time></trkpt>
<trkpt lat="46.15396427" lon="5.97287865"><ele>380.338745</ele><time>2009-10-19T10:54:35Z</time></trkpt>
<trkpt lat="46.15400635" lon="5.97291989"><ele>381.300049</ele><time>2009-10-19T10:54:36Z</time></trkpt>
<trkpt lat="46.15404046" lon="5.97295367"><ele>380.819458</ele><time>2009-10-19T10:54:37Z</time></trkpt>
<trkpt lat="46.15408455" lon="5.97299357"><ele>380.819458</ele><time>2009-10-19T10:54:38Z</time></trkpt>
<trkpt lat="46.15412059" lon="5.97303187"><ele>380.819458</ele><time>2009-10-19T10:54:39Z</time></trkpt>
<trkpt lat="46.15415529" lon="5.97307010"><ele>380.819458</ele><time>2009-10-19T10:54:40Z</time></trkpt>
<trkpt lat="46.15418999" lon="5.97310639"><ele>380.338745</ele><time>2009-10-19T10:54:41Z</time></trkpt>
<trkpt lat="46.15422226" lon="5.97314302"><ele>379.858032</ele><time>2009-10-19T10:54:42Z</time></trkpt>
<trkpt lat="46.15425873" lon="5.97318174"><ele>379.858032</ele><time>2009-10-19T10:54:43Z</time></trkpt>
<trkpt lat="46.15429326" lon="5.97321703"><ele>379.377441</ele><time>2009-10-19T10:54:44Z</time></trkpt>
<trkpt lat="46.15433148" lon="5.97325249"><ele>379.377441</ele><time>2009-10-19T10:54:45Z</time></trkpt>
<trkpt lat="46.15436652" lon="5.97328434"><ele>378.896851</ele><time>2009-10-19T10:54:46Z</time></trkpt>
<trkpt lat="46.15439678" lon="5.97330999"><ele>377.454834</ele><time>2009-10-19T10:54:47Z</time></trkpt>
<trkpt lat="46.15443248" lon="5.97334050"><ele>377.454834</ele><time>2009-10-19T10:54:48Z</time></trkpt>
<trkpt lat="46.15446987" lon="5.97336774"><ele>376.974243</ele><time>2009-10-19T10:54:49Z</time></trkpt>
<trkpt lat="46.15451136" lon="5.97339506"><ele>376.49353</ele><time>2009-10-19T10:54:50Z</time></trkpt>
<trkpt lat="46.15455084" lon="5.97342314"><ele>375.532104</ele><time>2009-10-19T10:54:51Z</time></trkpt>
<trkpt lat="46.15459258" lon="5.97345005"><ele>375.051514</ele><time>2009-10-19T10:54:52Z</time></trkpt>
<trkpt lat="46.15463868" lon="5.97348039"><ele>375.532104</ele><time>2009-10-19T10:54:53Z</time></trkpt>
<trkpt lat="46.15468545" lon="5.97351207"><ele>375.532104</ele><time>2009-10-19T10:54:54Z</time></trkpt>
<trkpt lat="46.15473029" lon="5.97354166"><ele>375.532104</ele><time>2009-10-19T10:54:55Z</time></trkpt>
<trkpt lat="46.15477614" lon="5.97357259"><ele>375.532104</ele><time>2009-10-19T10:54:56Z</time></trkpt>
<trkpt lat="46.15481914" lon="5.97360436"><ele>375.051514</ele><time>2009-10-19T10:54:57Z</time></trkpt>
<trkpt lat="46.15485778" lon="5.97363370"><ele>374.090088</ele><time>2009-10-19T10:54:58Z</time></trkpt>
<trkpt lat="46.15490086" lon="5.97366840"><ele>374.090088</ele><time>2009-10-19T10:54:59Z</time></trkpt>
<trkpt lat="46.15494478" lon="5.97370285"><ele>374.090088</ele><time>2009-10-19T10:55:00Z</time></trkpt>
<trkpt lat="46.15498326" lon="5.97373352"><ele>373.609497</ele><time>2009-10-19T10:55:01Z</time></trkpt>
<trkpt lat="46.15501989" lon="5.97376286"><ele>373.128906</ele><time>2009-10-19T10:55:02Z</time></trkpt>
<trkpt lat="46.15505568" lon="5.97379178"><ele>372.16748</ele><time>2009-10-19T10:55:03Z</time></trkpt>
<trkpt lat="46.15509214" lon="5.97382355"><ele>372.16748</ele><time>2009-10-19T10:55:04Z</time></trkpt>
<trkpt lat="46.15513137" lon="5.97385716"><ele>372.648193</ele><time>2009-10-19T10:55:05Z</time></trkpt>
<trkpt lat="46.15516942" lon="5.97388406"><ele>372.16748</ele><time>2009-10-19T10:55:06Z</time></trkpt>
<trkpt lat="46.15520747" lon="5.97390753"><ele>371.206299</ele><time>2009-10-19T10:55:07Z</time></trkpt>
<trkpt lat="46.15524838" lon="5.97393259"><ele>370.725586</ele><time>2009-10-19T10:55:08Z</time></trkpt>
<trkpt lat="46.15529054" lon="5.97395908"><ele>370.244873</ele><time>2009-10-19T10:55:09Z</time></trkpt>
<trkpt lat="46.15532893" lon="5.97398364"><ele>370.244873</ele><time>2009-10-19T10:55:10Z</time></trkpt>
<trkpt lat="46.15536815" lon="5.97400694"><ele>370.244873</ele><time>2009-10-19T10:55:11Z</time></trkpt>
<trkpt lat="46.15541375" lon="5.97403125"><ele>370.244873</ele><time>2009-10-19T10:55:12Z</time></trkpt>
<trkpt lat="46.15545759" lon="5.97405313"><ele>370.244873</ele><time>2009-10-19T10:55:13Z</time></trkpt>
<trkpt lat="46.15550143" lon="5.97407333"><ele>369.283691</ele><time>2009-10-19T10:55:14Z</time></trkpt>
<trkpt lat="46.15554317" lon="5.97409286"><ele>368.802979</ele><time>2009-10-19T10:55:15Z</time></trkpt>
<trkpt lat="46.15558374" lon="5.97411633"><ele>367.841553</ele><time>2009-10-19T10:55:16Z</time></trkpt>
<trkpt lat="46.15562296" lon="5.97414583"><ele>367.841553</ele><time>2009-10-19T10:55:17Z</time></trkpt>
<trkpt lat="46.15566378" lon="5.97417659"><ele>367.360962</ele><time>2009-10-19T10:55:18Z</time></trkpt>
<trkpt lat="46.15570536" lon="5.97421112"><ele>366.880249</ele><time>2009-10-19T10:55:19Z</time></trkpt>
<trkpt lat="46.15574207" lon="5.97424926"><ele>366.399536</ele><time>2009-10-19T10:55:20Z</time></trkpt>
<trkpt lat="46.15577979" lon="5.97429402"><ele>366.399536</ele><time>2009-10-19T10:55:21Z</time></trkpt>
<trkpt lat="46.15581659" lon="5.97434272"><ele>367.360962</ele><time>2009-10-19T10:55:22Z</time></trkpt>
<trkpt lat="46.15585238" lon="5.97439360"><ele>368.322266</ele><time>2009-10-19T10:55:23Z</time></trkpt>
<trkpt lat="46.15588943" lon="5.97443752"><ele>368.802979</ele><time>2009-10-19T10:55:24Z</time></trkpt>
<trkpt lat="46.15593553" lon="5.97447113"><ele>369.283691</ele><time>2009-10-19T10:55:25Z</time></trkpt>
<trkpt lat="46.15598280" lon="5.97449443"><ele>369.283691</ele><time>2009-10-19T10:55:26Z</time></trkpt>
<trkpt lat="46.15602815" lon="5.97452126"><ele>369.764282</ele><time>2009-10-19T10:55:27Z</time></trkpt>
<trkpt lat="46.15607123" lon="5.97454255"><ele>370.244873</ele><time>2009-10-19T10:55:28Z</time></trkpt>
<trkpt lat="46.15611104" lon="5.97456744"><ele>371.206299</ele><time>2009-10-19T10:55:29Z</time></trkpt>
<trkpt lat="46.15615278" lon="5.97459342"><ele>371.68689</ele><time>2009-10-19T10:55:30Z</time></trkpt>
<trkpt lat="46.15619855" lon="5.97462368"><ele>373.128906</ele><time>2009-10-19T10:55:31Z</time></trkpt>
<trkpt lat="46.15624096" lon="5.97465914"><ele>374.090088</ele><time>2009-10-19T10:55:32Z</time></trkpt>
<trkpt lat="46.15628765" lon="5.97469593"><ele>374.570801</ele><time>2009-10-19T10:55:33Z</time></trkpt>
<trkpt lat="46.15633484" lon="5.97473298"><ele>376.012817</ele><time>2009-10-19T10:55:34Z</time></trkpt>
<trkpt lat="46.15636937" lon="5.97476492"><ele>376.49353</ele><time>2009-10-19T10:55:35Z</time></trkpt>
<trkpt lat="46.15639946" lon="5.97478654"><ele>376.49353</ele><time>2009-10-19T10:55:36Z</time></trkpt>
<trkpt lat="46.15643282" lon="5.97480716"><ele>376.974243</ele><time>2009-10-19T10:55:37Z</time></trkpt>
<trkpt lat="46.15646996" lon="5.97483080"><ele>377.454834</ele><time>2009-10-19T10:55:38Z</time></trkpt>
<trkpt lat="46.15652259" lon="5.97486114"><ele>377.935425</ele><time>2009-10-19T10:55:39Z</time></trkpt>
<trkpt lat="46.15656953" lon="5.97489769"><ele>377.935425</ele><time>2009-10-19T10:55:40Z</time></trkpt>
<trkpt lat="46.15661538" lon="5.97494077"><ele>378.416138</ele><time>2009-10-19T10:55:41Z</time></trkpt>
<trkpt lat="46.15665863" lon="5.97498167"><ele>378.896851</ele><time>2009-10-19T10:55:42Z</time></trkpt>
<trkpt lat="46.15669928" lon="5.97501637"><ele>378.896851</ele><time>2009-10-19T10:55:43Z</time></trkpt>
<trkpt lat="46.15674346" lon="5.97504638"><ele>379.377441</ele><time>2009-10-19T10:55:44Z</time></trkpt>
<trkpt lat="46.15679258" lon="5.97507572"><ele>379.377441</ele><time>2009-10-19T10:55:45Z</time></trkpt>
<trkpt lat="46.15683549" lon="5.97511117"><ele>379.377441</ele><time>2009-10-19T10:55:46Z</time></trkpt>
<trkpt lat="46.15688260" lon="5.97515526"><ele>380.338745</ele><time>2009-10-19T10:55:47Z</time></trkpt>
<trkpt lat="46.15692392" lon="5.97519147"><ele>379.858032</ele><time>2009-10-19T10:55:48Z</time></trkpt>
<trkpt lat="46.15696608" lon="5.97523087"><ele>379.858032</ele><time>2009-10-19T10:55:49Z</time></trkpt>
<trkpt lat="46.15701143" lon="5.97526867"><ele>379.377441</ele><time>2009-10-19T10:55:50Z</time></trkpt>
<trkpt lat="46.15705694" lon="5.97529314"><ele>379.377441</ele><time>2009-10-19T10:55:51Z</time></trkpt>
<trkpt lat="46.15710447" lon="5.97531293"><ele>379.377441</ele><time>2009-10-19T10:55:52Z</time></trkpt>
<trkpt lat="46.15715224" lon="5.97533665"><ele>378.416138</ele><time>2009-10-19T10:55:53Z</time></trkpt>
<trkpt lat="46.15719834" lon="5.97536297"><ele>378.416138</ele><time>2009-10-19T10:55:54Z</time></trkpt>
<trkpt lat="46.15724243" lon="5.97539046"><ele>378.416138</ele><time>2009-10-19T10:55:55Z</time></trkpt>
<trkpt lat="46.15728929" lon="5.97542952"><ele>378.416138</ele><time>2009-10-19T10:55:56Z</time></trkpt>
<trkpt lat="46.15733069" lon="5.97547243"><ele>378.416138</ele><time>2009-10-19T10:55:57Z</time></trkpt>
<trkpt lat="46.15736607" lon="5.97552884"><ele>378.896851</ele><time>2009-10-19T10:55:58Z</time></trkpt>
<trkpt lat="46.15739523" lon="5.97558693"><ele>379.377441</ele><time>2009-10-19T10:55:59Z</time></trkpt>
<trkpt lat="46.15742734" lon="5.97563806"><ele>379.377441</ele><time>2009-10-19T10:56:00Z</time></trkpt>
<trkpt lat="46.15746916" lon="5.97567536"><ele>378.896851</ele><time>2009-10-19T10:56:01Z</time></trkpt>
<trkpt lat="46.15751015" lon="5.97570403"><ele>378.896851</ele><time>2009-10-19T10:56:02Z</time></trkpt>
<trkpt lat="46.15755072" lon="5.97572305"><ele>378.896851</ele><time>2009-10-19T10:56:03Z</time></trkpt>
<trkpt lat="46.15757804" lon="5.97574158"><ele>377.935425</ele><time>2009-10-19T10:56:04Z</time></trkpt>
<trkpt lat="46.15760663" lon="5.97576412"><ele>377.454834</ele><time>2009-10-19T10:56:05Z</time></trkpt>
<trkpt lat="46.15764057" lon="5.97579665"><ele>377.935425</ele><time>2009-10-19T10:56:06Z</time></trkpt>
<trkpt lat="46.15767594" lon="5.97583864"><ele>378.416138</ele><time>2009-10-19T10:56:07Z</time></trkpt>
<trkpt lat="46.15770863" lon="5.97588893"><ele>378.416138</ele><time>2009-10-19T10:56:08Z</time></trkpt>
<trkpt lat="46.15774786" lon="5.97592715"><ele>378.416138</ele><time>2009-10-19T10:56:09Z</time></trkpt>
<trkpt lat="46.15778952" lon="5.97595724"><ele>378.896851</ele><time>2009-10-19T10:56:10Z</time></trkpt>
<trkpt lat="46.15783017" lon="5.97598976"><ele>377.454834</ele><time>2009-10-19T10:56:11Z</time></trkpt>
<trkpt lat="46.15786839" lon="5.97604106"><ele>377.935425</ele><time>2009-10-19T10:56:12Z</time></trkpt>
<trkpt lat="46.15790309" lon="5.97610015"><ele>378.416138</ele><time>2009-10-19T10:56:13Z</time></trkpt>
<trkpt lat="46.15794123" lon="5.97615556"><ele>379.377441</ele><time>2009-10-19T10:56:14Z</time></trkpt>
<trkpt lat="46.15797526" lon="5.97621088"><ele>379.377441</ele><time>2009-10-19T10:56:15Z</time></trkpt>
<trkpt lat="46.15800527" lon="5.97627098"><ele>379.377441</ele><time>2009-10-19T10:56:16Z</time></trkpt>
<trkpt lat="46.15803259" lon="5.97633418"><ele>379.377441</ele><time>2009-10-19T10:56:17Z</time></trkpt>
<trkpt lat="46.15805564" lon="5.97639536"><ele>379.377441</ele><time>2009-10-19T10:56:18Z</time></trkpt>
<trkpt lat="46.15806838" lon="5.97645949"><ele>378.416138</ele><time>2009-10-19T10:56:19Z</time></trkpt>
<trkpt lat="46.15807534" lon="5.97653082"><ele>377.935425</ele><time>2009-10-19T10:56:20Z</time></trkpt>
<trkpt lat="46.15809026" lon="5.97660583"><ele>378.896851</ele><time>2009-10-19T10:56:21Z</time></trkpt>
<trkpt lat="46.15810795" lon="5.97667842"><ele>378.896851</ele><time>2009-10-19T10:56:22Z</time></trkpt>
<trkpt lat="46.15812354" lon="5.97675118"><ele>378.896851</ele><time>2009-10-19T10:56:23Z</time></trkpt>
<trkpt lat="46.15813594" lon="5.97682192"><ele>378.416138</ele><time>2009-10-19T10:56:24Z</time></trkpt>
<trkpt lat="46.15814810" lon="5.97689258"><ele>378.416138</ele><time>2009-10-19T10:56:25Z</time></trkpt>
<trkpt lat="46.15815966" lon="5.97695653"><ele>377.454834</ele><time>2009-10-19T10:56:26Z</time></trkpt>
<trkpt lat="46.15816939" lon="5.97702174"><ele>376.974243</ele><time>2009-10-19T10:56:27Z</time></trkpt>
<trkpt lat="46.15818523" lon="5.97708813"><ele>376.974243</ele><time>2009-10-19T10:56:28Z</time></trkpt>
<trkpt lat="46.15820258" lon="5.97715376"><ele>377.454834</ele><time>2009-10-19T10:56:29Z</time></trkpt>
<trkpt lat="46.15821666" lon="5.97721553"><ele>377.454834</ele><time>2009-10-19T10:56:30Z</time></trkpt>
<trkpt lat="46.15822638" lon="5.97727563"><ele>376.974243</ele><time>2009-10-19T10:56:31Z</time></trkpt>
<trkpt lat="46.15823292" lon="5.97734252"><ele>376.49353</ele><time>2009-10-19T10:56:32Z</time></trkpt>
<trkpt lat="46.15824172" lon="5.97740966"><ele>376.49353</ele><time>2009-10-19T10:56:33Z</time></trkpt>
<trkpt lat="46.15825094" lon="5.97747663"><ele>376.49353</ele><time>2009-10-19T10:56:34Z</time></trkpt>
<trkpt lat="46.15825723" lon="5.97754226"><ele>375.532104</ele><time>2009-10-19T10:56:35Z</time></trkpt>
<trkpt lat="46.15826268" lon="5.97760588"><ele>374.570801</ele><time>2009-10-19T10:56:36Z</time></trkpt>
<trkpt lat="46.15826947" lon="5.97767042"><ele>374.090088</ele><time>2009-10-19T10:56:37Z</time></trkpt>
<trkpt lat="46.15827542" lon="5.97773379"><ele>373.609497</ele><time>2009-10-19T10:56:38Z</time></trkpt>
<trkpt lat="46.15828254" lon="5.97779858"><ele>373.609497</ele><time>2009-10-19T10:56:39Z</time></trkpt>
<trkpt lat="46.15828992" lon="5.97786362"><ele>373.609497</ele><time>2009-10-19T10:56:40Z</time></trkpt>
<trkpt lat="46.15829662" lon="5.97792489"><ele>373.128906</ele><time>2009-10-19T10:56:41Z</time></trkpt>
<trkpt lat="46.15830165" lon="5.97798784"><ele>372.648193</ele><time>2009-10-19T10:56:42Z</time></trkpt>
<trkpt lat="46.15830467" lon="5.97804945"><ele>372.16748</ele><time>2009-10-19T10:56:43Z</time></trkpt>
<trkpt lat="46.15830953" lon="5.97810695"><ele>372.16748</ele><time>2009-10-19T10:56:44Z</time></trkpt>
<trkpt lat="46.15831473" lon="5.97816319"><ele>372.16748</ele><time>2009-10-19T10:56:45Z</time></trkpt>
<trkpt lat="46.15832018" lon="5.97821734"><ele>372.16748</ele><time>2009-10-19T10:56:46Z</time></trkpt>
<trkpt lat="46.15832688" lon="5.97827207"><ele>372.16748</ele><time>2009-10-19T10:56:47Z</time></trkpt>
<trkpt lat="46.15833669" lon="5.97832329"><ele>372.648193</ele><time>2009-10-19T10:56:48Z</time></trkpt>
<trkpt lat="46.15834365" lon="5.97837660"><ele>373.128906</ele><time>2009-10-19T10:56:49Z</time></trkpt>
<trkpt lat="46.15835454" lon="5.97842303"><ele>373.128906</ele><time>2009-10-19T10:56:50Z</time></trkpt>
<trkpt lat="46.15836318" lon="5.97847282"><ele>373.128906</ele><time>2009-10-19T10:56:51Z</time></trkpt>
<trkpt lat="46.15836720" lon="5.97852856"><ele>373.609497</ele><time>2009-10-19T10:56:52Z</time></trkpt>
<trkpt lat="46.15837206" lon="5.97858405"><ele>373.609497</ele><time>2009-10-19T10:56:53Z</time></trkpt>
<trkpt lat="46.15838254" lon="5.97863149"><ele>374.090088</ele><time>2009-10-19T10:56:54Z</time></trkpt>
<trkpt lat="46.15839285" lon="5.97867843"><ele>374.090088</ele><time>2009-10-19T10:56:55Z</time></trkpt>
<trkpt lat="46.15840358" lon="5.97872520"><ele>374.090088</ele><time>2009-10-19T10:56:56Z</time></trkpt>
<trkpt lat="46.15841439" lon="5.97877096"><ele>374.090088</ele><time>2009-10-19T10:56:57Z</time></trkpt>
<trkpt lat="46.15842319" lon="5.97882117"><ele>373.609497</ele><time>2009-10-19T10:56:58Z</time></trkpt>
<trkpt lat="46.15842948" lon="5.97886870"><ele>373.128906</ele><time>2009-10-19T10:56:59Z</time></trkpt>
<trkpt lat="46.15843073" lon="5.97892586"><ele>373.128906</ele><time>2009-10-19T10:57:00Z</time></trkpt>
<trkpt lat="46.15842336" lon="5.97898537"><ele>373.609497</ele><time>2009-10-19T10:57:01Z</time></trkpt>
<trkpt lat="46.15841313" lon="5.97904354"><ele>373.128906</ele><time>2009-10-19T10:57:02Z</time></trkpt>
<trkpt lat="46.15839939" lon="5.97909568"><ele>372.648193</ele><time>2009-10-19T10:57:03Z</time></trkpt>
<trkpt lat="46.15838380" lon="5.97914404"><ele>372.16748</ele><time>2009-10-19T10:57:04Z</time></trkpt>
<trkpt lat="46.15837290" lon="5.97918889"><ele>371.68689</ele><time>2009-10-19T10:57:05Z</time></trkpt>
<trkpt lat="46.15835840" lon="5.97924613"><ele>371.68689</ele><time>2009-10-19T10:57:06Z</time></trkpt>
<trkpt lat="46.15834239" lon="5.97930514"><ele>371.206299</ele><time>2009-10-19T10:57:07Z</time></trkpt>
<trkpt lat="46.15832496" lon="5.97936063"><ele>371.206299</ele><time>2009-10-19T10:57:08Z</time></trkpt>
<trkpt lat="46.15830945" lon="5.97941444"><ele>371.206299</ele><time>2009-10-19T10:57:09Z</time></trkpt>
<trkpt lat="46.15829352" lon="5.97946675"><ele>371.206299</ele><time>2009-10-19T10:57:10Z</time></trkpt>
<trkpt lat="46.15827827" lon="5.97951637"><ele>371.68689</ele><time>2009-10-19T10:57:11Z</time></trkpt>
<trkpt lat="46.15825924" lon="5.97957202"><ele>372.16748</ele><time>2009-10-19T10:57:12Z</time></trkpt>
<trkpt lat="46.15823686" lon="5.97963145"><ele>372.16748</ele><time>2009-10-19T10:57:13Z</time></trkpt>
<trkpt lat="46.15821767" lon="5.97968392"><ele>372.16748</ele><time>2009-10-19T10:57:14Z</time></trkpt>
<trkpt lat="46.15820258" lon="5.97972633"><ele>372.16748</ele><time>2009-10-19T10:57:15Z</time></trkpt>
<trkpt lat="46.15818649" lon="5.97977654"><ele>371.68689</ele><time>2009-10-19T10:57:16Z</time></trkpt>
<trkpt lat="46.15817224" lon="5.97982834"><ele>371.206299</ele><time>2009-10-19T10:57:17Z</time></trkpt>
<trkpt lat="46.15815899" lon="5.97987888"><ele>371.206299</ele><time>2009-10-19T10:57:18Z</time></trkpt>
<trkpt lat="46.15814709" lon="5.97992708"><ele>370.725586</ele><time>2009-10-19T10:57:19Z</time></trkpt>
<trkpt lat="46.15813502" lon="5.97997494"><ele>371.206299</ele><time>2009-10-19T10:57:20Z</time></trkpt>
<trkpt lat="46.15811935" lon="5.98002515"><ele>370.725586</ele><time>2009-10-19T10:57:21Z</time></trkpt>
<trkpt lat="46.15810317" lon="5.98007477"><ele>370.244873</ele><time>2009-10-19T10:57:22Z</time></trkpt>
<trkpt lat="46.15808926" lon="5.98012498"><ele>370.244873</ele><time>2009-10-19T10:57:23Z</time></trkpt>
<trkpt lat="46.15807408" lon="5.98017678"><ele>370.244873</ele><time>2009-10-19T10:57:24Z</time></trkpt>
<trkpt lat="46.15805975" lon="5.98022833"><ele>370.244873</ele><time>2009-10-19T10:57:25Z</time></trkpt>
<trkpt lat="46.15804886" lon="5.98027526"><ele>369.764282</ele><time>2009-10-19T10:57:26Z</time></trkpt>
<trkpt lat="46.15803209" lon="5.98032832"><ele>369.764282</ele><time>2009-10-19T10:57:27Z</time></trkpt>
<trkpt lat="46.15801206" lon="5.98038247"><ele>369.764282</ele><time>2009-10-19T10:57:28Z</time></trkpt>
<trkpt lat="46.15799898" lon="5.98043402"><ele>369.764282</ele><time>2009-10-19T10:57:29Z</time></trkpt>
<trkpt lat="46.15798675" lon="5.98048666"><ele>369.764282</ele><time>2009-10-19T10:57:30Z</time></trkpt>
<trkpt lat="46.15797199" lon="5.98054047"><ele>370.244873</ele><time>2009-10-19T10:57:31Z</time></trkpt>
<trkpt lat="46.15795364" lon="5.98059646"><ele>370.244873</ele><time>2009-10-19T10:57:32Z</time></trkpt>
<trkpt lat="46.15793729" lon="5.98065178"><ele>370.725586</ele><time>2009-10-19T10:57:33Z</time></trkpt>
<trkpt lat="46.15793034" lon="5.98070433"><ele>370.725586</ele><time>2009-10-19T10:57:34Z</time></trkpt>
<trkpt lat="46.15792329" lon="5.98075815"><ele>371.206299</ele><time>2009-10-19T10:57:35Z</time></trkpt>
<trkpt lat="46.15791726" lon="5.98081129"><ele>371.68689</ele><time>2009-10-19T10:57:36Z</time></trkpt>
<trkpt lat="46.15791407" lon="5.98086124"><ele>372.16748</ele><time>2009-10-19T10:57:37Z</time></trkpt>
<trkpt lat="46.15791667" lon="5.98091028"><ele>372.648193</ele><time>2009-10-19T10:57:38Z</time></trkpt>
<trkpt lat="46.15792925" lon="5.98094682"><ele>373.128906</ele><time>2009-10-19T10:57:39Z</time></trkpt>
<trkpt lat="46.15794484" lon="5.98097708"><ele>374.570801</ele><time>2009-10-19T10:57:40Z</time></trkpt>
<trkpt lat="46.15797283" lon="5.98098245"><ele>375.532104</ele><time>2009-10-19T10:57:41Z</time></trkpt>
<trkpt lat="46.15800058" lon="5.98097784"><ele>376.012817</ele><time>2009-10-19T10:57:42Z</time></trkpt>
<trkpt lat="46.15803989" lon="5.98095185"><ele>376.012817</ele><time>2009-10-19T10:57:43Z</time></trkpt>
<trkpt lat="46.15807115" lon="5.98093048"><ele>376.012817</ele><time>2009-10-19T10:57:44Z</time></trkpt>
<trkpt lat="46.15811164" lon="5.98090005"><ele>376.012817</ele><time>2009-10-19T10:57:45Z</time></trkpt>
<trkpt lat="46.15815564" lon="5.98086267"><ele>376.012817</ele><time>2009-10-19T10:57:46Z</time></trkpt>
<trkpt lat="46.15820308" lon="5.98080450"><ele>376.012817</ele><time>2009-10-19T10:57:47Z</time></trkpt>
<trkpt lat="46.15823569" lon="5.98074348"><ele>376.974243</ele><time>2009-10-19T10:57:48Z</time></trkpt>
<trkpt lat="46.15826779" lon="5.98068933"><ele>376.974243</ele><time>2009-10-19T10:57:49Z</time></trkpt>
<trkpt lat="46.15830123" lon="5.98064709"><ele>376.974243</ele><time>2009-10-19T10:57:50Z</time></trkpt>
<trkpt lat="46.15832462" lon="5.98068656"><ele>376.49353</ele><time>2009-10-19T10:57:51Z</time></trkpt>
<trkpt lat="46.15835270" lon="5.98069419"><ele>376.012817</ele><time>2009-10-19T10:57:52Z</time></trkpt>
<trkpt lat="46.15837776" lon="5.98073124"><ele>376.49353</ele><time>2009-10-19T10:57:53Z</time></trkpt>
<trkpt lat="46.15841347" lon="5.98074557"><ele>376.012817</ele><time>2009-10-19T10:57:54Z</time></trkpt>
<trkpt lat="46.15843325" lon="5.98078480"><ele>374.570801</ele><time>2009-10-19T10:57:55Z</time></trkpt>
<trkpt lat="46.15844079" lon="5.98084004"><ele>374.570801</ele><time>2009-10-19T10:57:56Z</time></trkpt>
<trkpt lat="46.15845295" lon="5.98089569"><ele>374.090088</ele><time>2009-10-19T10:57:57Z</time></trkpt>
<trkpt lat="46.15846183" lon="5.98094112"><ele>373.609497</ele><time>2009-10-19T10:57:58Z</time></trkpt>
<trkpt lat="46.15847432" lon="5.98097658"><ele>373.609497</ele><time>2009-10-19T10:57:59Z</time></trkpt>
<trkpt lat="46.15848589" lon="5.98101413"><ele>374.090088</ele><time>2009-10-19T10:58:00Z</time></trkpt>
<trkpt lat="46.15849586" lon="5.98104296"><ele>374.570801</ele><time>2009-10-19T10:58:01Z</time></trkpt>
<trkpt lat="46.15850592" lon="5.98107993"><ele>375.532104</ele><time>2009-10-19T10:58:02Z</time></trkpt>
<trkpt lat="46.15851573" lon="5.98111748"><ele>376.012817</ele><time>2009-10-19T10:58:03Z</time></trkpt>
<trkpt lat="46.15852847" lon="5.98114715"><ele>376.012817</ele><time>2009-10-19T10:58:04Z</time></trkpt>
<trkpt lat="46.15853735" lon="5.98118219"><ele>376.49353</ele><time>2009-10-19T10:58:05Z</time></trkpt>
<trkpt lat="46.15855009" lon="5.98122586"><ele>377.454834</ele><time>2009-10-19T10:58:06Z</time></trkpt>
<trkpt lat="46.15856334" lon="5.98126190"><ele>376.974243</ele><time>2009-10-19T10:58:07Z</time></trkpt>
<trkpt lat="46.15857096" lon="5.98130372"><ele>376.974243</ele><time>2009-10-19T10:58:08Z</time></trkpt>
<trkpt lat="46.15858815" lon="5.98135075"><ele>378.416138</ele><time>2009-10-19T10:58:09Z</time></trkpt>
<trkpt lat="46.15860349" lon="5.98139458"><ele>379.858032</ele><time>2009-10-19T10:58:10Z</time></trkpt>
<trkpt lat="46.15862008" lon="5.98142878"><ele>380.338745</ele><time>2009-10-19T10:58:11Z</time></trkpt>
<trkpt lat="46.15863618" lon="5.98146566"><ele>381.300049</ele><time>2009-10-19T10:58:12Z</time></trkpt>
<trkpt lat="46.15865160" lon="5.98149885"><ele>381.78064</ele><time>2009-10-19T10:58:13Z</time></trkpt>
<trkpt lat="46.15866543" lon="5.98153783"><ele>381.78064</ele><time>2009-10-19T10:58:14Z</time></trkpt>
<trkpt lat="46.15867725" lon="5.98157790"><ele>382.261353</ele><time>2009-10-19T10:58:15Z</time></trkpt>
<trkpt lat="46.15869124" lon="5.98161553"><ele>383.222656</ele><time>2009-10-19T10:58:16Z</time></trkpt>
<trkpt lat="46.15870818" lon="5.98165568"><ele>384.664795</ele><time>2009-10-19T10:58:17Z</time></trkpt>
<trkpt lat="46.15873056" lon="5.98170019"><ele>386.587402</ele><time>2009-10-19T10:58:18Z</time></trkpt>
<trkpt lat="46.15874682" lon="5.98175098"><ele>387.548584</ele><time>2009-10-19T10:58:19Z</time></trkpt>
<trkpt lat="46.15875537" lon="5.98179650"><ele>388.029297</ele><time>2009-10-19T10:58:20Z</time></trkpt>
<trkpt lat="46.15876216" lon="5.98182919"><ele>387.548584</ele><time>2009-10-19T10:58:21Z</time></trkpt>
<trkpt lat="46.15875713" lon="5.98186053"><ele>387.067993</ele><time>2009-10-19T10:58:22Z</time></trkpt>
<trkpt lat="46.15874589" lon="5.98189054"><ele>385.145386</ele><time>2009-10-19T10:58:23Z</time></trkpt>
<trkpt lat="46.15874380" lon="5.98192667"><ele>384.664795</ele><time>2009-10-19T10:58:24Z</time></trkpt>
<trkpt lat="46.15874640" lon="5.98197319"><ele>385.145386</ele><time>2009-10-19T10:58:25Z</time></trkpt>
<trkpt lat="46.15874556" lon="5.98202247"><ele>385.625977</ele><time>2009-10-19T10:58:26Z</time></trkpt>
<trkpt lat="46.15874363" lon="5.98206279"><ele>386.106689</ele><time>2009-10-19T10:58:27Z</time></trkpt>
<trkpt lat="46.15873877" lon="5.98209539"><ele>386.587402</ele><time>2009-10-19T10:58:28Z</time></trkpt>
<trkpt lat="46.15873634" lon="5.98212339"><ele>386.587402</ele><time>2009-10-19T10:58:29Z</time></trkpt>
<trkpt lat="46.15873374" lon="5.98215189"><ele>386.587402</ele><time>2009-10-19T10:58:30Z</time></trkpt>
<trkpt lat="46.15872854" lon="5.98218198"><ele>387.067993</ele><time>2009-10-19T10:58:31Z</time></trkpt>
<trkpt lat="46.15871882" lon="5.98221299"><ele>387.548584</ele><time>2009-10-19T10:58:32Z</time></trkpt>
<trkpt lat="46.15871279" lon="5.98223948"><ele>387.548584</ele><time>2009-10-19T10:58:33Z</time></trkpt>
<trkpt lat="46.15871572" lon="5.98227334"><ele>388.029297</ele><time>2009-10-19T10:58:34Z</time></trkpt>
<trkpt lat="46.15872125" lon="5.98231508"><ele>388.51001</ele><time>2009-10-19T10:58:35Z</time></trkpt>
<trkpt lat="46.15872595" lon="5.98235926"><ele>388.51001</ele><time>2009-10-19T10:58:36Z</time></trkpt>
<trkpt lat="46.15873190" lon="5.98240863"><ele>388.51001</ele><time>2009-10-19T10:58:37Z</time></trkpt>
<trkpt lat="46.15873500" lon="5.98245976"><ele>388.51001</ele><time>2009-10-19T10:58:38Z</time></trkpt>
<trkpt lat="46.15873852" lon="5.98250619"><ele>387.548584</ele><time>2009-10-19T10:58:39Z</time></trkpt>
<trkpt lat="46.15874405" lon="5.98254710"><ele>387.067993</ele><time>2009-10-19T10:58:40Z</time></trkpt>
<trkpt lat="46.15875226" lon="5.98258775"><ele>387.067993</ele><time>2009-10-19T10:58:41Z</time></trkpt>
<trkpt lat="46.15876123" lon="5.98262396"><ele>386.106689</ele><time>2009-10-19T10:58:42Z</time></trkpt>
<trkpt lat="46.15876735" lon="5.98266352"><ele>385.145386</ele><time>2009-10-19T10:58:43Z</time></trkpt>
<trkpt lat="46.15877498" lon="5.98270484"><ele>384.664795</ele><time>2009-10-19T10:58:44Z</time></trkpt>
<trkpt lat="46.15878345" lon="5.98274399"><ele>384.664795</ele><time>2009-10-19T10:58:45Z</time></trkpt>
<trkpt lat="46.15878755" lon="5.98278020"><ele>384.184082</ele><time>2009-10-19T10:58:46Z</time></trkpt>
<trkpt lat="46.15878864" lon="5.98281372"><ele>382.742065</ele><time>2009-10-19T10:58:47Z</time></trkpt>
<trkpt lat="46.15879166" lon="5.98285614"><ele>381.300049</ele><time>2009-10-19T10:58:48Z</time></trkpt>
<trkpt lat="46.15879912" lon="5.98290400"><ele>380.338745</ele><time>2009-10-19T10:58:49Z</time></trkpt>
<trkpt lat="46.15881178" lon="5.98294616"><ele>379.858032</ele><time>2009-10-19T10:58:50Z</time></trkpt>
<trkpt lat="46.15882904" lon="5.98297575"><ele>380.338745</ele><time>2009-10-19T10:58:51Z</time></trkpt>
<trkpt lat="46.15884648" lon="5.98299494"><ele>381.78064</ele><time>2009-10-19T10:58:52Z</time></trkpt>
<trkpt lat="46.15886316" lon="5.98301967"><ele>383.222656</ele><time>2009-10-19T10:58:53Z</time></trkpt>
<trkpt lat="46.15887833" lon="5.98303752"><ele>384.184082</ele><time>2009-10-19T10:58:54Z</time></trkpt>
<trkpt lat="46.15888797" lon="5.98304775"><ele>384.184082</ele><time>2009-10-19T10:58:55Z</time></trkpt>
<trkpt lat="46.15889459" lon="5.98306099"><ele>385.625977</ele><time>2009-10-19T10:58:56Z</time></trkpt>
<trkpt lat="46.15890138" lon="5.98306728"><ele>386.587402</ele><time>2009-10-19T10:58:57Z</time></trkpt>
<trkpt lat="46.15890213" lon="5.98306946"><ele>387.067993</ele><time>2009-10-19T10:58:58Z</time></trkpt>
<trkpt lat="46.15890062" lon="5.98306459"><ele>386.587402</ele><time>2009-10-19T10:58:59Z</time></trkpt>
<trkpt lat="46.15889995" lon="5.98305529"><ele>387.067993</ele><time>2009-10-19T10:59:00Z</time></trkpt>
<trkpt lat="46.15889618" lon="5.98305034"><ele>387.067993</ele><time>2009-10-19T10:59:01Z</time></trkpt>
<trkpt lat="46.15888990" lon="5.98305529"><ele>387.067993</ele><time>2009-10-19T10:59:02Z</time></trkpt>
<trkpt lat="46.15888889" lon="5.98306602"><ele>388.990601</ele><time>2009-10-19T10:59:03Z</time></trkpt>
<trkpt lat="46.15888596" lon="5.98307038"><ele>388.990601</ele><time>2009-10-19T10:59:04Z</time></trkpt>
<trkpt lat="46.15888604" lon="5.98307515"><ele>388.990601</ele><time>2009-10-19T10:59:05Z</time></trkpt>
<trkpt lat="46.15888705" lon="5.98307985"><ele>388.990601</ele><time>2009-10-19T10:59:06Z</time></trkpt>
<trkpt lat="46.15888696" lon="5.98308136"><ele>389.471191</ele><time>2009-10-19T10:59:07Z</time></trkpt>
<trkpt lat="46.15888746" lon="5.98308220"><ele>388.990601</ele><time>2009-10-19T10:59:08Z</time></trkpt>
<trkpt lat="46.15888755" lon="5.98308329"><ele>388.990601</ele><time>2009-10-19T10:59:09Z</time></trkpt>
<trkpt lat="46.15889350" lon="5.98308563"><ele>388.990601</ele><time>2009-10-19T10:59:10Z</time></trkpt>
<trkpt lat="46.15889819" lon="5.98307976"><ele>388.990601</ele><time>2009-10-19T10:59:11Z</time></trkpt>
<trkpt lat="46.15890297" lon="5.98308044"><ele>388.990601</ele><time>2009-10-19T10:59:12Z</time></trkpt>
<trkpt lat="46.15891269" lon="5.98308404"><ele>389.951904</ele><time>2009-10-19T10:59:13Z</time></trkpt>
<trkpt lat="46.15891957" lon="5.98308614"><ele>390.432617</ele><time>2009-10-19T10:59:14Z</time></trkpt>
<trkpt lat="46.15892275" lon="5.98308639"><ele>390.432617</ele><time>2009-10-19T10:59:15Z</time></trkpt>
<trkpt lat="46.15892443" lon="5.98308505"><ele>390.432617</ele><time>2009-10-19T10:59:16Z</time></trkpt>
<trkpt lat="46.15892426" lon="5.98308303"><ele>390.432617</ele><time>2009-10-19T10:59:17Z</time></trkpt>
<trkpt lat="46.15892359" lon="5.98308245"><ele>390.432617</ele><time>2009-10-19T10:59:18Z</time></trkpt>
<trkpt lat="46.15892577" lon="5.98308270"><ele>390.913208</ele><time>2009-10-19T10:59:19Z</time></trkpt>
<trkpt lat="46.15892770" lon="5.98308329"><ele>390.913208</ele><time>2009-10-19T10:59:20Z</time></trkpt>
<trkpt lat="46.15893189" lon="5.98308387"><ele>391.393799</ele><time>2009-10-19T10:59:21Z</time></trkpt>
<trkpt lat="46.15893407" lon="5.98309058"><ele>390.913208</ele><time>2009-10-19T10:59:22Z</time></trkpt>
<trkpt lat="46.15893734" lon="5.98310357"><ele>390.432617</ele><time>2009-10-19T10:59:23Z</time></trkpt>
<trkpt lat="46.15894128" lon="5.98312528"><ele>390.432617</ele><time>2009-10-19T10:59:24Z</time></trkpt>
<trkpt lat="46.15894924" lon="5.98313693"><ele>390.432617</ele><time>2009-10-19T10:59:25Z</time></trkpt>
<trkpt lat="46.15895905" lon="5.98314883"><ele>389.951904</ele><time>2009-10-19T10:59:26Z</time></trkpt>
<trkpt lat="46.15897137" lon="5.98315906"><ele>389.471191</ele><time>2009-10-19T10:59:27Z</time></trkpt>
<trkpt lat="46.15897899" lon="5.98317062"><ele>388.990601</ele><time>2009-10-19T10:59:28Z</time></trkpt>
<trkpt lat="46.15898344" lon="5.98318119"><ele>388.990601</ele><time>2009-10-19T10:59:29Z</time></trkpt>
<trkpt lat="46.15899056" lon="5.98319384"><ele>389.471191</ele><time>2009-10-19T10:59:30Z</time></trkpt>
<trkpt lat="46.15899886" lon="5.98320113"><ele>390.432617</ele><time>2009-10-19T10:59:31Z</time></trkpt>
<trkpt lat="46.15900624" lon="5.98320792"><ele>390.913208</ele><time>2009-10-19T10:59:32Z</time></trkpt>
<trkpt lat="46.15902199" lon="5.98322486"><ele>391.874512</ele><time>2009-10-19T10:59:33Z</time></trkpt>
<trkpt lat="46.15904354" lon="5.98324263"><ele>392.355347</ele><time>2009-10-19T10:59:34Z</time></trkpt>
<trkpt lat="46.15906466" lon="5.98326098"><ele>392.355347</ele><time>2009-10-19T10:59:35Z</time></trkpt>
<trkpt lat="46.15908754" lon="5.98328043"><ele>391.874512</ele><time>2009-10-19T10:59:36Z</time></trkpt>
<trkpt lat="46.15910967" lon="5.98330222"><ele>391.874512</ele><time>2009-10-19T10:59:37Z</time></trkpt>
<trkpt lat="46.15913356" lon="5.98332217"><ele>392.355347</ele><time>2009-10-19T10:59:38Z</time></trkpt>
<trkpt lat="46.15915208" lon="5.98333902"><ele>392.835938</ele><time>2009-10-19T10:59:39Z</time></trkpt>
<trkpt lat="46.15917002" lon="5.98335729"><ele>392.355347</ele><time>2009-10-19T10:59:40Z</time></trkpt>
<trkpt lat="46.15918829" lon="5.98337942"><ele>392.355347</ele><time>2009-10-19T10:59:41Z</time></trkpt>
<trkpt lat="46.15920656" lon="5.98340423"><ele>393.316528</ele><time>2009-10-19T10:59:42Z</time></trkpt>
<trkpt lat="46.15922526" lon="5.98342854"><ele>393.316528</ele><time>2009-10-19T10:59:43Z</time></trkpt>
<trkpt lat="46.15924068" lon="5.98344832"><ele>393.797241</ele><time>2009-10-19T10:59:44Z</time></trkpt>
<trkpt lat="46.15925459" lon="5.98347254"><ele>393.797241</ele><time>2009-10-19T10:59:45Z</time></trkpt>
<trkpt lat="46.15927077" lon="5.98350364"><ele>393.797241</ele><time>2009-10-19T10:59:46Z</time></trkpt>
<trkpt lat="46.15928535" lon="5.98352987"><ele>394.277954</ele><time>2009-10-19T10:59:47Z</time></trkpt>
<trkpt lat="46.15929927" lon="5.98355594"><ele>393.797241</ele><time>2009-10-19T10:59:48Z</time></trkpt>
<trkpt lat="46.15931318" lon="5.98358058"><ele>393.797241</ele><time>2009-10-19T10:59:49Z</time></trkpt>
<trkpt lat="46.15932777" lon="5.98359835"><ele>393.797241</ele><time>2009-10-19T10:59:50Z</time></trkpt>
<trkpt lat="46.15934378" lon="5.98361746"><ele>393.316528</ele><time>2009-10-19T10:59:51Z</time></trkpt>
<trkpt lat="46.15935895" lon="5.98363842"><ele>393.316528</ele><time>2009-10-19T10:59:52Z</time></trkpt>
<trkpt lat="46.15936892" lon="5.98365929"><ele>393.797241</ele><time>2009-10-19T10:59:53Z</time></trkpt>
<trkpt lat="46.15937772" lon="5.98367572"><ele>394.277954</ele><time>2009-10-19T10:59:54Z</time></trkpt>
<trkpt lat="46.15939055" lon="5.98369324"><ele>394.277954</ele><time>2009-10-19T10:59:55Z</time></trkpt>
<trkpt lat="46.15940295" lon="5.98370338"><ele>393.797241</ele><time>2009-10-19T10:59:56Z</time></trkpt>
<trkpt lat="46.15941846" lon="5.98372098"><ele>393.797241</ele><time>2009-10-19T10:59:57Z</time></trkpt>
<trkpt lat="46.15943522" lon="5.98374353"><ele>395.239136</ele><time>2009-10-19T10:59:58Z</time></trkpt>
<trkpt lat="46.15945207" lon="5.98376004"><ele>396.200562</ele><time>2009-10-19T10:59:59Z</time></trkpt>
<trkpt lat="46.15946749" lon="5.98377404"><ele>396.200562</ele><time>2009-10-19T11:00:00Z</time></trkpt>
<trkpt lat="46.15948409" lon="5.98379105"><ele>395.719849</ele><time>2009-10-19T11:00:01Z</time></trkpt>
<trkpt lat="46.15949792" lon="5.98380455"><ele>396.200562</ele><time>2009-10-19T11:00:02Z</time></trkpt>
<trkpt lat="46.15951125" lon="5.98381888"><ele>396.681152</ele><time>2009-10-19T11:00:03Z</time></trkpt>
<trkpt lat="46.15952214" lon="5.98383212"><ele>396.681152</ele><time>2009-10-19T11:00:04Z</time></trkpt>
<trkpt lat="46.15952910" lon="5.98384168"><ele>397.161743</ele><time>2009-10-19T11:00:05Z</time></trkpt>
<trkpt lat="46.15954494" lon="5.98385635"><ele>396.681152</ele><time>2009-10-19T11:00:06Z</time></trkpt>
<trkpt lat="46.15956078" lon="5.98387638"><ele>396.200562</ele><time>2009-10-19T11:00:07Z</time></trkpt>
<trkpt lat="46.15957218" lon="5.98389046"><ele>396.200562</ele><time>2009-10-19T11:00:08Z</time></trkpt>
<trkpt lat="46.15958735" lon="5.98390547"><ele>397.161743</ele><time>2009-10-19T11:00:09Z</time></trkpt>
<trkpt lat="46.15960504" lon="5.98392298"><ele>398.123169</ele><time>2009-10-19T11:00:10Z</time></trkpt>
<trkpt lat="46.15961627" lon="5.98393556"><ele>398.60376</ele><time>2009-10-19T11:00:11Z</time></trkpt>
<trkpt lat="46.15962734" lon="5.98395140"><ele>398.60376</ele><time>2009-10-19T11:00:12Z</time></trkpt>
<trkpt lat="46.15963605" lon="5.98396699"><ele>399.084351</ele><time>2009-10-19T11:00:13Z</time></trkpt>
<trkpt lat="46.15964603" lon="5.98397939"><ele>399.565063</ele><time>2009-10-19T11:00:14Z</time></trkpt>
<trkpt lat="46.15966145" lon="5.98399004"><ele>399.084351</ele><time>2009-10-19T11:00:15Z</time></trkpt>
<trkpt lat="46.15967427" lon="5.98399616"><ele>398.60376</ele><time>2009-10-19T11:00:16Z</time></trkpt>
<trkpt lat="46.15968718" lon="5.98399817"><ele>397.642456</ele><time>2009-10-19T11:00:17Z</time></trkpt>
<trkpt lat="46.15969372" lon="5.98400647"><ele>398.123169</ele><time>2009-10-19T11:00:18Z</time></trkpt>
<trkpt lat="46.15970185" lon="5.98401058"><ele>399.084351</ele><time>2009-10-19T11:00:19Z</time></trkpt>
<trkpt lat="46.15971124" lon="5.98401686"><ele>399.565063</ele><time>2009-10-19T11:00:20Z</time></trkpt>
<trkpt lat="46.15972088" lon="5.98402466"><ele>399.565063</ele><time>2009-10-19T11:00:21Z</time></trkpt>
<trkpt lat="46.15973068" lon="5.98403522"><ele>400.526489</ele><time>2009-10-19T11:00:22Z</time></trkpt>
<trkpt lat="46.15974225" lon="5.98404452"><ele>401.00708</ele><time>2009-10-19T11:00:23Z</time></trkpt>
<trkpt lat="46.15975114" lon="5.98405986"><ele>401.968506</ele><time>2009-10-19T11:00:24Z</time></trkpt>
<trkpt lat="46.15975675" lon="5.98407377"><ele>403.4104</ele><time>2009-10-19T11:00:25Z</time></trkpt>
<trkpt lat="46.15976673" lon="5.98409146"><ele>403.891113</ele><time>2009-10-19T11:00:26Z</time></trkpt>
<trkpt lat="46.15977838" lon="5.98410864"><ele>403.891113</ele><time>2009-10-19T11:00:27Z</time></trkpt>
<trkpt lat="46.15978877" lon="5.98412415"><ele>403.891113</ele><time>2009-10-19T11:00:28Z</time></trkpt>
<trkpt lat="46.15979866" lon="5.98413865"><ele>403.891113</ele><time>2009-10-19T11:00:29Z</time></trkpt>
<trkpt lat="46.15980838" lon="5.98414955"><ele>403.4104</ele><time>2009-10-19T11:00:30Z</time></trkpt>
<trkpt lat="46.15981802" lon="5.98416380"><ele>403.891113</ele><time>2009-10-19T11:00:31Z</time></trkpt>
<trkpt lat="46.15982624" lon="5.98417704"><ele>404.371704</ele><time>2009-10-19T11:00:32Z</time></trkpt>
<trkpt lat="46.15983454" lon="5.98418735"><ele>403.891113</ele><time>2009-10-19T11:00:33Z</time></trkpt>
<trkpt lat="46.15984384" lon="5.98419506"><ele>403.4104</ele><time>2009-10-19T11:00:34Z</time></trkpt>
<trkpt lat="46.15985323" lon="5.98420286"><ele>402.929688</ele><time>2009-10-19T11:00:35Z</time></trkpt>
<trkpt lat="46.15986119" lon="5.98421384"><ele>402.929688</ele><time>2009-10-19T11:00:36Z</time></trkpt>
<trkpt lat="46.15987217" lon="5.98422255"><ele>403.4104</ele><time>2009-10-19T11:00:37Z</time></trkpt>
<trkpt lat="46.15988323" lon="5.98422976"><ele>403.4104</ele><time>2009-10-19T11:00:38Z</time></trkpt>
<trkpt lat="46.15989254" lon="5.98423772"><ele>403.4104</ele><time>2009-10-19T11:00:39Z</time></trkpt>
<trkpt lat="46.15990008" lon="5.98424770"><ele>403.4104</ele><time>2009-10-19T11:00:40Z</time></trkpt>
<trkpt lat="46.15990687" lon="5.98425684"><ele>403.4104</ele><time>2009-10-19T11:00:41Z</time></trkpt>
<trkpt lat="46.15991224" lon="5.98426572"><ele>403.891113</ele><time>2009-10-19T11:00:42Z</time></trkpt>
<trkpt lat="46.15991752" lon="5.98427494"><ele>404.371704</ele><time>2009-10-19T11:00:43Z</time></trkpt>
<trkpt lat="46.15992489" lon="5.98428299"><ele>404.852295</ele><time>2009-10-19T11:00:44Z</time></trkpt>
<trkpt lat="46.15993369" lon="5.98428609"><ele>405.333008</ele><time>2009-10-19T11:00:45Z</time></trkpt>
<trkpt lat="46.15994157" lon="5.98428902"><ele>404.852295</ele><time>2009-10-19T11:00:46Z</time></trkpt>
<trkpt lat="46.15994895" lon="5.98429497"><ele>404.852295</ele><time>2009-10-19T11:00:47Z</time></trkpt>
<trkpt lat="46.15995674" lon="5.98430243"><ele>404.852295</ele><time>2009-10-19T11:00:48Z</time></trkpt>
<trkpt lat="46.15996395" lon="5.98431040"><ele>404.852295</ele><time>2009-10-19T11:00:49Z</time></trkpt>
<trkpt lat="46.15997124" lon="5.98432364"><ele>405.333008</ele><time>2009-10-19T11:00:50Z</time></trkpt>
<trkpt lat="46.15997812" lon="5.98433923"><ele>405.813721</ele><time>2009-10-19T11:00:51Z</time></trkpt>
<trkpt lat="46.15998155" lon="5.98435784"><ele>406.774902</ele><time>2009-10-19T11:00:52Z</time></trkpt>
<trkpt lat="46.15998667" lon="5.98437293"><ele>406.774902</ele><time>2009-10-19T11:00:53Z</time></trkpt>
<trkpt lat="46.15999287" lon="5.98438525"><ele>407.255615</ele><time>2009-10-19T11:00:54Z</time></trkpt>
<trkpt lat="46.15999966" lon="5.98439690"><ele>407.255615</ele><time>2009-10-19T11:00:55Z</time></trkpt>
<trkpt lat="46.16000645" lon="5.98440687"><ele>407.736328</ele><time>2009-10-19T11:00:56Z</time></trkpt>
<trkpt lat="46.16001299" lon="5.98441626"><ele>408.217041</ele><time>2009-10-19T11:00:57Z</time></trkpt>
<trkpt lat="46.16001885" lon="5.98442707"><ele>408.217041</ele><time>2009-10-19T11:00:58Z</time></trkpt>
<trkpt lat="46.16002615" lon="5.98443646"><ele>409.178345</ele><time>2009-10-19T11:00:59Z</time></trkpt>
<trkpt lat="46.16003126" lon="5.98444719"><ele>409.659058</ele><time>2009-10-19T11:01:00Z</time></trkpt>
<trkpt lat="46.16003704" lon="5.98445515"><ele>409.659058</ele><time>2009-10-19T11:01:01Z</time></trkpt>
<trkpt lat="46.16004207" lon="5.98446437"><ele>410.139648</ele><time>2009-10-19T11:01:02Z</time></trkpt>
<trkpt lat="46.16004844" lon="5.98447460"><ele>410.620239</ele><time>2009-10-19T11:01:03Z</time></trkpt>
<trkpt lat="46.16005464" lon="5.98448415"><ele>410.620239</ele><time>2009-10-19T11:01:04Z</time></trkpt>
<trkpt lat="46.16005867" lon="5.98449606"><ele>411.100952</ele><time>2009-10-19T11:01:05Z</time></trkpt>
<trkpt lat="46.16006294" lon="5.98450846"><ele>411.100952</ele><time>2009-10-19T11:01:06Z</time></trkpt>
<trkpt lat="46.16006764" lon="5.98452112"><ele>411.581665</ele><time>2009-10-19T11:01:07Z</time></trkpt>
<trkpt lat="46.16007200" lon="5.98453335"><ele>411.581665</ele><time>2009-10-19T11:01:08Z</time></trkpt>
<trkpt lat="46.16007602" lon="5.98454517"><ele>412.062256</ele><time>2009-10-19T11:01:09Z</time></trkpt>
<trkpt lat="46.16007979" lon="5.98455607"><ele>412.542847</ele><time>2009-10-19T11:01:10Z</time></trkpt>
<trkpt lat="46.16008373" lon="5.98456688"><ele>413.02356</ele><time>2009-10-19T11:01:11Z</time></trkpt>
<trkpt lat="46.16008784" lon="5.98457719"><ele>413.504272</ele><time>2009-10-19T11:01:12Z</time></trkpt>
<trkpt lat="46.16009085" lon="5.98458926"><ele>413.984863</ele><time>2009-10-19T11:01:13Z</time></trkpt>
<trkpt lat="46.16009479" lon="5.98460007"><ele>414.465454</ele><time>2009-10-19T11:01:14Z</time></trkpt>
<trkpt lat="46.16009739" lon="5.98461298"><ele>414.465454</ele><time>2009-10-19T11:01:15Z</time></trkpt>
<trkpt lat="46.16010125" lon="5.98462396"><ele>414.465454</ele><time>2009-10-19T11:01:16Z</time></trkpt>
<trkpt lat="46.16010670" lon="5.98463679"><ele>414.946167</ele><time>2009-10-19T11:01:17Z</time></trkpt>
<trkpt lat="46.16011114" lon="5.98465246"><ele>414.946167</ele><time>2009-10-19T11:01:18Z</time></trkpt>
<trkpt lat="46.16011432" lon="5.98466897"><ele>415.42688</ele><time>2009-10-19T11:01:19Z</time></trkpt>
<trkpt lat="46.16011885" lon="5.98468456"><ele>415.907471</ele><time>2009-10-19T11:01:20Z</time></trkpt>
<trkpt lat="46.16012522" lon="5.98469948"><ele>416.388184</ele><time>2009-10-19T11:01:21Z</time></trkpt>
<trkpt lat="46.16013218" lon="5.98471172"><ele>416.388184</ele><time>2009-10-19T11:01:22Z</time></trkpt>
<trkpt lat="46.16013746" lon="5.98472480"><ele>416.388184</ele><time>2009-10-19T11:01:23Z</time></trkpt>
<trkpt lat="46.16014282" lon="5.98473812"><ele>416.388184</ele><time>2009-10-19T11:01:24Z</time></trkpt>
<trkpt lat="46.16014844" lon="5.98475019"><ele>416.388184</ele><time>2009-10-19T11:01:25Z</time></trkpt>
<trkpt lat="46.16015389" lon="5.98476419"><ele>416.868896</ele><time>2009-10-19T11:01:26Z</time></trkpt>
<trkpt lat="46.16015959" lon="5.98477995"><ele>417.349609</ele><time>2009-10-19T11:01:27Z</time></trkpt>
<trkpt lat="46.16016579" lon="5.98479680"><ele>417.349609</ele><time>2009-10-19T11:01:28Z</time></trkpt>
<trkpt lat="46.16017224" lon="5.98481306"><ele>417.349609</ele><time>2009-10-19T11:01:29Z</time></trkpt>
<trkpt lat="46.16017878" lon="5.98482823"><ele>417.349609</ele><time>2009-10-19T11:01:30Z</time></trkpt>
<trkpt lat="46.16018532" lon="5.98484416"><ele>417.8302</ele><time>2009-10-19T11:01:31Z</time></trkpt>
<trkpt lat="46.16019269" lon="5.98486017"><ele>418.310791</ele><time>2009-10-19T11:01:32Z</time></trkpt>
<trkpt lat="46.16020057" lon="5.98487492"><ele>418.310791</ele><time>2009-10-19T11:01:33Z</time></trkpt>
<trkpt lat="46.16020954" lon="5.98488925"><ele>418.791504</ele><time>2009-10-19T11:01:34Z</time></trkpt>
<trkpt lat="46.16021977" lon="5.98490434"><ele>418.791504</ele><time>2009-10-19T11:01:35Z</time></trkpt>
<trkpt lat="46.16022983" lon="5.98491859"><ele>419.272217</ele><time>2009-10-19T11:01:36Z</time></trkpt>
<trkpt lat="46.16023947" lon="5.98493225"><ele>419.752808</ele><time>2009-10-19T11:01:37Z</time></trkpt>
<trkpt lat="46.16024609" lon="5.98494172"><ele>420.233398</ele><time>2009-10-19T11:01:38Z</time></trkpt>
<trkpt lat="46.16024676" lon="5.98494675"><ele>420.714111</ele><time>2009-10-19T11:01:39Z</time></trkpt>
<trkpt lat="46.16024684" lon="5.98495077"><ele>421.675415</ele><time>2009-10-19T11:01:40Z</time></trkpt>
<trkpt lat="46.16024634" lon="5.98495379"><ele>421.675415</ele><time>2009-10-19T11:01:41Z</time></trkpt>
<trkpt lat="46.16024768" lon="5.98496016"><ele>421.675415</ele><time>2009-10-19T11:01:42Z</time></trkpt>
<trkpt lat="46.16025304" lon="5.98496678"><ele>422.156006</ele><time>2009-10-19T11:01:43Z</time></trkpt>
<trkpt lat="46.16026402" lon="5.98497282"><ele>422.156006</ele><time>2009-10-19T11:01:44Z</time></trkpt>
<trkpt lat="46.16027920" lon="5.98498195"><ele>421.675415</ele><time>2009-10-19T11:01:45Z</time></trkpt>
<trkpt lat="46.16029378" lon="5.98499176"><ele>421.675415</ele><time>2009-10-19T11:01:46Z</time></trkpt>
<trkpt lat="46.16030836" lon="5.98500073"><ele>421.675415</ele><time>2009-10-19T11:01:47Z</time></trkpt>
<trkpt lat="46.16032622" lon="5.98500744"><ele>421.675415</ele><time>2009-10-19T11:01:48Z</time></trkpt>
<trkpt lat="46.16034575" lon="5.98501557"><ele>421.194824</ele><time>2009-10-19T11:01:49Z</time></trkpt>
<trkpt lat="46.16036712" lon="5.98502554"><ele>420.714111</ele><time>2009-10-19T11:01:50Z</time></trkpt>
<trkpt lat="46.16038925" lon="5.98503786"><ele>420.714111</ele><time>2009-10-19T11:01:51Z</time></trkpt>
<trkpt lat="46.16041347" lon="5.98505052"><ele>420.233398</ele><time>2009-10-19T11:01:52Z</time></trkpt>
<trkpt lat="46.16043787" lon="5.98506125"><ele>420.233398</ele><time>2009-10-19T11:01:53Z</time></trkpt>
<trkpt lat="46.16046385" lon="5.98507265"><ele>419.752808</ele><time>2009-10-19T11:01:54Z</time></trkpt>
<trkpt lat="46.16049126" lon="5.98508354"><ele>419.752808</ele><time>2009-10-19T11:01:55Z</time></trkpt>
<trkpt lat="46.16052009" lon="5.98509444"><ele>419.272217</ele><time>2009-10-19T11:01:56Z</time></trkpt>
<trkpt lat="46.16055010" lon="5.98510534"><ele>419.272217</ele><time>2009-10-19T11:01:57Z</time></trkpt>
<trkpt lat="46.16058145" lon="5.98511598"><ele>418.791504</ele><time>2009-10-19T11:01:58Z</time></trkpt>
<trkpt lat="46.16061280" lon="5.98512704"><ele>419.272217</ele><time>2009-10-19T11:01:59Z</time></trkpt>
<trkpt lat="46.16064289" lon="5.98513744"><ele>418.791504</ele><time>2009-10-19T11:02:00Z</time></trkpt>
<trkpt lat="46.16067189" lon="5.98514733"><ele>418.791504</ele><time>2009-10-19T11:02:01Z</time></trkpt>
<trkpt lat="46.16069938" lon="5.98515697"><ele>419.272217</ele><time>2009-10-19T11:02:02Z</time></trkpt>
<trkpt lat="46.16072813" lon="5.98516669"><ele>419.272217</ele><time>2009-10-19T11:02:03Z</time></trkpt>
<trkpt lat="46.16076023" lon="5.98517616"><ele>418.791504</ele><time>2009-10-19T11:02:04Z</time></trkpt>
<trkpt lat="46.16079192" lon="5.98518446"><ele>418.791504</ele><time>2009-10-19T11:02:05Z</time></trkpt>
<trkpt lat="46.16082226" lon="5.98519083"><ele>418.791504</ele><time>2009-10-19T11:02:06Z</time></trkpt>
<trkpt lat="46.16085595" lon="5.98519804"><ele>418.310791</ele><time>2009-10-19T11:02:07Z</time></trkpt>
<trkpt lat="46.16088999" lon="5.98520567"><ele>417.8302</ele><time>2009-10-19T11:02:08Z</time></trkpt>
<trkpt lat="46.16092276" lon="5.98521296"><ele>417.8302</ele><time>2009-10-19T11:02:09Z</time></trkpt>
<trkpt lat="46.16095729" lon="5.98522008"><ele>417.349609</ele><time>2009-10-19T11:02:10Z</time></trkpt>
<trkpt lat="46.16099283" lon="5.98522687"><ele>416.868896</ele><time>2009-10-19T11:02:11Z</time></trkpt>
<trkpt lat="46.16102627" lon="5.98523509"><ele>416.868896</ele><time>2009-10-19T11:02:12Z</time></trkpt>
<trkpt lat="46.16106047" lon="5.98524573"><ele>416.868896</ele><time>2009-10-19T11:02:13Z</time></trkpt>
<trkpt lat="46.16109635" lon="5.98525730"><ele>416.388184</ele><time>2009-10-19T11:02:14Z</time></trkpt>
<trkpt lat="46.16113189" lon="5.98527029"><ele>416.388184</ele><time>2009-10-19T11:02:15Z</time></trkpt>
<trkpt lat="46.16116684" lon="5.98528689"><ele>416.868896</ele><time>2009-10-19T11:02:16Z</time></trkpt>
<trkpt lat="46.16120146" lon="5.98530558"><ele>416.868896</ele><time>2009-10-19T11:02:17Z</time></trkpt>
<trkpt lat="46.16123733" lon="5.98532645"><ele>416.868896</ele><time>2009-10-19T11:02:18Z</time></trkpt>
<trkpt lat="46.16127295" lon="5.98534925"><ele>417.349609</ele><time>2009-10-19T11:02:19Z</time></trkpt>
<trkpt lat="46.16130749" lon="5.98537272"><ele>417.349609</ele><time>2009-10-19T11:02:20Z</time></trkpt>
<trkpt lat="46.16134227" lon="5.98539577"><ele>417.8302</ele><time>2009-10-19T11:02:21Z</time></trkpt>
<trkpt lat="46.16137689" lon="5.98541857"><ele>417.8302</ele><time>2009-10-19T11:02:22Z</time></trkpt>
<trkpt lat="46.16141084" lon="5.98544153"><ele>418.310791</ele><time>2009-10-19T11:02:23Z</time></trkpt>
<trkpt lat="46.16144487" lon="5.98546375"><ele>418.310791</ele><time>2009-10-19T11:02:24Z</time></trkpt>
<trkpt lat="46.16147932" lon="5.98548487"><ele>418.310791</ele><time>2009-10-19T11:02:25Z</time></trkpt>
<trkpt lat="46.16151393" lon="5.98550633"><ele>418.791504</ele><time>2009-10-19T11:02:26Z</time></trkpt>
<trkpt lat="46.16154838" lon="5.98552795"><ele>418.791504</ele><time>2009-10-19T11:02:27Z</time></trkpt>
<trkpt lat="46.16158342" lon="5.98554907"><ele>419.272217</ele><time>2009-10-19T11:02:28Z</time></trkpt>
<trkpt lat="46.16161913" lon="5.98557087"><ele>419.752808</ele><time>2009-10-19T11:02:29Z</time></trkpt>
<trkpt lat="46.16165525" lon="5.98559224"><ele>419.752808</ele><time>2009-10-19T11:02:30Z</time></trkpt>
<trkpt lat="46.16169163" lon="5.98561387"><ele>420.233398</ele><time>2009-10-19T11:02:31Z</time></trkpt>
<trkpt lat="46.16172843" lon="5.98563524"><ele>420.233398</ele><time>2009-10-19T11:02:32Z</time></trkpt>
<trkpt lat="46.16176556" lon="5.98565636"><ele>420.233398</ele><time>2009-10-19T11:02:33Z</time></trkpt>
<trkpt lat="46.16180110" lon="5.98567690"><ele>420.714111</ele><time>2009-10-19T11:02:34Z</time></trkpt>
<trkpt lat="46.16183748" lon="5.98569836"><ele>420.714111</ele><time>2009-10-19T11:02:35Z</time></trkpt>
<trkpt lat="46.16187427" lon="5.98572082"><ele>421.194824</ele><time>2009-10-19T11:02:36Z</time></trkpt>
<trkpt lat="46.16191040" lon="5.98574345"><ele>421.194824</ele><time>2009-10-19T11:02:37Z</time></trkpt>
<trkpt lat="46.16194585" lon="5.98576658"><ele>421.194824</ele><time>2009-10-19T11:02:38Z</time></trkpt>
<trkpt lat="46.16198190" lon="5.98578905"><ele>421.194824</ele><time>2009-10-19T11:02:39Z</time></trkpt>
<trkpt lat="46.16201626" lon="5.98581319"><ele>421.194824</ele><time>2009-10-19T11:02:40Z</time></trkpt>
<trkpt lat="46.16205054" lon="5.98583322"><ele>421.675415</ele><time>2009-10-19T11:02:41Z</time></trkpt>
<trkpt lat="46.16208508" lon="5.98584940"><ele>421.675415</ele><time>2009-10-19T11:02:42Z</time></trkpt>
<trkpt lat="46.16212036" lon="5.98585954"><ele>421.675415</ele><time>2009-10-19T11:02:43Z</time></trkpt>
<trkpt lat="46.16215657" lon="5.98586415"><ele>421.675415</ele><time>2009-10-19T11:02:44Z</time></trkpt>
<trkpt lat="46.16219337" lon="5.98586096"><ele>422.156006</ele><time>2009-10-19T11:02:45Z</time></trkpt>
<trkpt lat="46.16222966" lon="5.98585015"><ele>422.156006</ele><time>2009-10-19T11:02:46Z</time></trkpt>
<trkpt lat="46.16226537" lon="5.98583565"><ele>422.156006</ele><time>2009-10-19T11:02:47Z</time></trkpt>
<trkpt lat="46.16230058" lon="5.98581897"><ele>422.156006</ele><time>2009-10-19T11:02:48Z</time></trkpt>
<trkpt lat="46.16233503" lon="5.98580145"><ele>422.156006</ele><time>2009-10-19T11:02:49Z</time></trkpt>
<trkpt lat="46.16236922" lon="5.98578452"><ele>422.156006</ele><time>2009-10-19T11:02:50Z</time></trkpt>
<trkpt lat="46.16240384" lon="5.98576826"><ele>422.156006</ele><time>2009-10-19T11:02:51Z</time></trkpt>
<trkpt lat="46.16243938" lon="5.98575200"><ele>422.156006</ele><time>2009-10-19T11:02:52Z</time></trkpt>
<trkpt lat="46.16247626" lon="5.98573700"><ele>422.636719</ele><time>2009-10-19T11:02:53Z</time></trkpt>
<trkpt lat="46.16251415" lon="5.98572317"><ele>422.156006</ele><time>2009-10-19T11:02:54Z</time></trkpt>
<trkpt lat="46.16255304" lon="5.98571043"><ele>422.156006</ele><time>2009-10-19T11:02:55Z</time></trkpt>
<trkpt lat="46.16259252" lon="5.98570037"><ele>422.156006</ele><time>2009-10-19T11:02:56Z</time></trkpt>
<trkpt lat="46.16263309" lon="5.98569123"><ele>422.156006</ele><time>2009-10-19T11:02:57Z</time></trkpt>
<trkpt lat="46.16267407" lon="5.98568335"><ele>422.156006</ele><time>2009-10-19T11:02:58Z</time></trkpt>
<trkpt lat="46.16271565" lon="5.98567707"><ele>422.156006</ele><time>2009-10-19T11:02:59Z</time></trkpt>
<trkpt lat="46.16275814" lon="5.98567229"><ele>422.156006</ele><time>2009-10-19T11:03:00Z</time></trkpt>
<trkpt lat="46.16280089" lon="5.98566935"><ele>422.156006</ele><time>2009-10-19T11:03:01Z</time></trkpt>
<trkpt lat="46.16284339" lon="5.98566835"><ele>421.675415</ele><time>2009-10-19T11:03:02Z</time></trkpt>
<trkpt lat="46.16288605" lon="5.98566944"><ele>421.675415</ele><time>2009-10-19T11:03:03Z</time></trkpt>
<trkpt lat="46.16292997" lon="5.98567237"><ele>421.675415</ele><time>2009-10-19T11:03:04Z</time></trkpt>
<trkpt lat="46.16297582" lon="5.98567857"><ele>421.194824</ele><time>2009-10-19T11:03:05Z</time></trkpt>
<trkpt lat="46.16302343" lon="5.98568888"><ele>421.194824</ele><time>2009-10-19T11:03:06Z</time></trkpt>
<trkpt lat="46.16307255" lon="5.98570137"><ele>421.194824</ele><time>2009-10-19T11:03:07Z</time></trkpt>
<trkpt lat="46.16312167" lon="5.98571369"><ele>420.714111</ele><time>2009-10-19T11:03:08Z</time></trkpt>
<trkpt lat="46.16316936" lon="5.98572643"><ele>420.714111</ele><time>2009-10-19T11:03:09Z</time></trkpt>
<trkpt lat="46.16321663" lon="5.98574119"><ele>420.714111</ele><time>2009-10-19T11:03:10Z</time></trkpt>
<trkpt lat="46.16326584" lon="5.98575594"><ele>420.714111</ele><time>2009-10-19T11:03:11Z</time></trkpt>
<trkpt lat="46.16331479" lon="5.98577103"><ele>420.233398</ele><time>2009-10-19T11:03:12Z</time></trkpt>
<trkpt lat="46.16336449" lon="5.98578687"><ele>420.233398</ele><time>2009-10-19T11:03:13Z</time></trkpt>
<trkpt lat="46.16341243" lon="5.98580145"><ele>420.233398</ele><time>2009-10-19T11:03:14Z</time></trkpt>
<trkpt lat="46.16345937" lon="5.98581646"><ele>420.233398</ele><time>2009-10-19T11:03:15Z</time></trkpt>
<trkpt lat="46.16350858" lon="5.98583238"><ele>420.233398</ele><time>2009-10-19T11:03:16Z</time></trkpt>
<trkpt lat="46.16355669" lon="5.98584663"><ele>420.233398</ele><time>2009-10-19T11:03:17Z</time></trkpt>
<trkpt lat="46.16360430" lon="5.98586055"><ele>420.233398</ele><time>2009-10-19T11:03:18Z</time></trkpt>
<trkpt lat="46.16365233" lon="5.98587387"><ele>420.233398</ele><time>2009-10-19T11:03:19Z</time></trkpt>
<trkpt lat="46.16370153" lon="5.98588720"><ele>420.233398</ele><time>2009-10-19T11:03:20Z</time></trkpt>
<trkpt lat="46.16375006" lon="5.98590086"><ele>420.714111</ele><time>2009-10-19T11:03:21Z</time></trkpt>
<trkpt lat="46.16379834" lon="5.98591419"><ele>420.714111</ele><time>2009-10-19T11:03:22Z</time></trkpt>
<trkpt lat="46.16384704" lon="5.98592634"><ele>420.714111</ele><time>2009-10-19T11:03:23Z</time></trkpt>
<trkpt lat="46.16389599" lon="5.98593716"><ele>420.714111</ele><time>2009-10-19T11:03:24Z</time></trkpt>
<trkpt lat="46.16394334" lon="5.98594545"><ele>420.714111</ele><time>2009-10-19T11:03:25Z</time></trkpt>
<trkpt lat="46.16398978" lon="5.98595208"><ele>420.714111</ele><time>2009-10-19T11:03:26Z</time></trkpt>
<trkpt lat="46.16403622" lon="5.98595912"><ele>420.714111</ele><time>2009-10-19T11:03:27Z</time></trkpt>
<trkpt lat="46.16408349" lon="5.98596809"><ele>420.714111</ele><time>2009-10-19T11:03:28Z</time></trkpt>
<trkpt lat="46.16413118" lon="5.98597672"><ele>420.714111</ele><time>2009-10-19T11:03:29Z</time></trkpt>
<trkpt lat="46.16417837" lon="5.98598384"><ele>420.714111</ele><time>2009-10-19T11:03:30Z</time></trkpt>
<trkpt lat="46.16422523" lon="5.98598954"><ele>420.233398</ele><time>2009-10-19T11:03:31Z</time></trkpt>
<trkpt lat="46.16427217" lon="5.98599516"><ele>420.233398</ele><time>2009-10-19T11:03:32Z</time></trkpt>
<trkpt lat="46.16431936" lon="5.98600186"><ele>420.233398</ele><time>2009-10-19T11:03:33Z</time></trkpt>
<trkpt lat="46.16436705" lon="5.98600899"><ele>420.233398</ele><time>2009-10-19T11:03:34Z</time></trkpt>
<trkpt lat="46.16441516" lon="5.98601687"><ele>420.714111</ele><time>2009-10-19T11:03:35Z</time></trkpt>
<trkpt lat="46.16446286" lon="5.98602475"><ele>420.714111</ele><time>2009-10-19T11:03:36Z</time></trkpt>
<trkpt lat="46.16451055" lon="5.98603229"><ele>420.714111</ele><time>2009-10-19T11:03:37Z</time></trkpt>
<trkpt lat="46.16455883" lon="5.98603933"><ele>420.714111</ele><time>2009-10-19T11:03:38Z</time></trkpt>
<trkpt lat="46.16460778" lon="5.98604553"><ele>420.714111</ele><time>2009-10-19T11:03:39Z</time></trkpt>
<trkpt lat="46.16465656" lon="5.98605224"><ele>420.233398</ele><time>2009-10-19T11:03:40Z</time></trkpt>
<trkpt lat="46.16470492" lon="5.98606003"><ele>420.233398</ele><time>2009-10-19T11:03:41Z</time></trkpt>
<trkpt lat="46.16475287" lon="5.98606934"><ele>420.233398</ele><time>2009-10-19T11:03:42Z</time></trkpt>
<trkpt lat="46.16479939" lon="5.98607956"><ele>420.233398</ele><time>2009-10-19T11:03:43Z</time></trkpt>
<trkpt lat="46.16484557" lon="5.98609155"><ele>420.233398</ele><time>2009-10-19T11:03:44Z</time></trkpt>
<trkpt lat="46.16489025" lon="5.98610245"><ele>420.233398</ele><time>2009-10-19T11:03:45Z</time></trkpt>
<trkpt lat="46.16493434" lon="5.98611410"><ele>419.752808</ele><time>2009-10-19T11:03:46Z</time></trkpt>
<trkpt lat="46.16497708" lon="5.98612793"><ele>419.752808</ele><time>2009-10-19T11:03:47Z</time></trkpt>
<trkpt lat="46.16502075" lon="5.98614343"><ele>419.752808</ele><time>2009-10-19T11:03:48Z</time></trkpt>
<trkpt lat="46.16506333" lon="5.98616003"><ele>419.752808</ele><time>2009-10-19T11:03:49Z</time></trkpt>
<trkpt lat="46.16510382" lon="5.98618115"><ele>419.752808</ele><time>2009-10-19T11:03:50Z</time></trkpt>
<trkpt lat="46.16514456" lon="5.98620445"><ele>420.233398</ele><time>2009-10-19T11:03:51Z</time></trkpt>
<trkpt lat="46.16518563" lon="5.98622826"><ele>419.752808</ele><time>2009-10-19T11:03:52Z</time></trkpt>
<trkpt lat="46.16522075" lon="5.98625382"><ele>419.752808</ele><time>2009-10-19T11:03:53Z</time></trkpt>
<trkpt lat="46.16525679" lon="5.98628324"><ele>420.233398</ele><time>2009-10-19T11:03:54Z</time></trkpt>
<trkpt lat="46.16529409" lon="5.98631409"><ele>420.233398</ele><time>2009-10-19T11:03:55Z</time></trkpt>
<trkpt lat="46.16533298" lon="5.98634577"><ele>420.233398</ele><time>2009-10-19T11:03:56Z</time></trkpt>
<trkpt lat="46.16537003" lon="5.98637947"><ele>420.714111</ele><time>2009-10-19T11:03:57Z</time></trkpt>
<trkpt lat="46.16540607" lon="5.98641207"><ele>420.714111</ele><time>2009-10-19T11:03:58Z</time></trkpt>
<trkpt lat="46.16544287" lon="5.98643865"><ele>419.752808</ele><time>2009-10-19T11:03:59Z</time></trkpt>
<trkpt lat="46.16547883" lon="5.98646874"><ele>419.272217</ele><time>2009-10-19T11:04:00Z</time></trkpt>
<trkpt lat="46.16551478" lon="5.98650344"><ele>419.272217</ele><time>2009-10-19T11:04:01Z</time></trkpt>
<trkpt lat="46.16555125" lon="5.98654266"><ele>419.272217</ele><time>2009-10-19T11:04:02Z</time></trkpt>
<trkpt lat="46.16558419" lon="5.98658206"><ele>419.752808</ele><time>2009-10-19T11:04:03Z</time></trkpt>
<trkpt lat="46.16561704" lon="5.98661894"><ele>420.233398</ele><time>2009-10-19T11:04:04Z</time></trkpt>
<trkpt lat="46.16564655" lon="5.98665599"><ele>420.233398</ele><time>2009-10-19T11:04:05Z</time></trkpt>
<trkpt lat="46.16567597" lon="5.98669672"><ele>420.233398</ele><time>2009-10-19T11:04:06Z</time></trkpt>
<trkpt lat="46.16571134" lon="5.98674039"><ele>420.714111</ele><time>2009-10-19T11:04:07Z</time></trkpt>
<trkpt lat="46.16574788" lon="5.98678356"><ele>420.714111</ele><time>2009-10-19T11:04:08Z</time></trkpt>
<trkpt lat="46.16578099" lon="5.98683285"><ele>421.675415</ele><time>2009-10-19T11:04:09Z</time></trkpt>
<trkpt lat="46.16581184" lon="5.98688322"><ele>421.675415</ele><time>2009-10-19T11:04:10Z</time></trkpt>
<trkpt lat="46.16584352" lon="5.98692882"><ele>421.675415</ele><time>2009-10-19T11:04:11Z</time></trkpt>
<trkpt lat="46.16587755" lon="5.98696369"><ele>421.194824</ele><time>2009-10-19T11:04:12Z</time></trkpt>
<trkpt lat="46.16590764" lon="5.98700183"><ele>420.233398</ele><time>2009-10-19T11:04:13Z</time></trkpt>
<trkpt lat="46.16593706" lon="5.98703552"><ele>419.272217</ele><time>2009-10-19T11:04:14Z</time></trkpt>
<trkpt lat="46.16596372" lon="5.98707307"><ele>418.791504</ele><time>2009-10-19T11:04:15Z</time></trkpt>
<trkpt lat="46.16599029" lon="5.98711180"><ele>418.791504</ele><time>2009-10-19T11:04:16Z</time></trkpt>
<trkpt lat="46.16601753" lon="5.98715119"><ele>418.791504</ele><time>2009-10-19T11:04:17Z</time></trkpt>
<trkpt lat="46.16604628" lon="5.98719008"><ele>419.272217</ele><time>2009-10-19T11:04:18Z</time></trkpt>
<trkpt lat="46.16607637" lon="5.98722789"><ele>419.272217</ele><time>2009-10-19T11:04:19Z</time></trkpt>
<trkpt lat="46.16610680" lon="5.98726602"><ele>419.272217</ele><time>2009-10-19T11:04:20Z</time></trkpt>
<trkpt lat="46.16613815" lon="5.98730508"><ele>419.272217</ele><time>2009-10-19T11:04:21Z</time></trkpt>
<trkpt lat="46.16617016" lon="5.98734356"><ele>419.272217</ele><time>2009-10-19T11:04:22Z</time></trkpt>
<trkpt lat="46.16620093" lon="5.98738085"><ele>419.272217</ele><time>2009-10-19T11:04:23Z</time></trkpt>
<trkpt lat="46.16623244" lon="5.98741623"><ele>419.272217</ele><time>2009-10-19T11:04:24Z</time></trkpt>
<trkpt lat="46.16626480" lon="5.98745017"><ele>419.272217</ele><time>2009-10-19T11:04:25Z</time></trkpt>
<trkpt lat="46.16629874" lon="5.98748412"><ele>419.752808</ele><time>2009-10-19T11:04:26Z</time></trkpt>
<trkpt lat="46.16633495" lon="5.98751966"><ele>419.272217</ele><time>2009-10-19T11:04:27Z</time></trkpt>
<trkpt lat="46.16637284" lon="5.98755813"><ele>419.272217</ele><time>2009-10-19T11:04:28Z</time></trkpt>
<trkpt lat="46.16641173" lon="5.98759619"><ele>419.272217</ele><time>2009-10-19T11:04:29Z</time></trkpt>
<trkpt lat="46.16645062" lon="5.98763307"><ele>419.272217</ele><time>2009-10-19T11:04:30Z</time></trkpt>
<trkpt lat="46.16648776" lon="5.98766886"><ele>419.272217</ele><time>2009-10-19T11:04:31Z</time></trkpt>
<trkpt lat="46.16652539" lon="5.98770574"><ele>419.272217</ele><time>2009-10-19T11:04:32Z</time></trkpt>
<trkpt lat="46.16656294" lon="5.98774362"><ele>419.272217</ele><time>2009-10-19T11:04:33Z</time></trkpt>
<trkpt lat="46.16660628" lon="5.98778402"><ele>419.752808</ele><time>2009-10-19T11:04:34Z</time></trkpt>
<trkpt lat="46.16664768" lon="5.98782032"><ele>419.752808</ele><time>2009-10-19T11:04:35Z</time></trkpt>
<trkpt lat="46.16669320" lon="5.98785267"><ele>419.752808</ele><time>2009-10-19T11:04:36Z</time></trkpt>
<trkpt lat="46.16673653" lon="5.98788042"><ele>419.272217</ele><time>2009-10-19T11:04:37Z</time></trkpt>
<trkpt lat="46.16677785" lon="5.98790422"><ele>419.272217</ele><time>2009-10-19T11:04:38Z</time></trkpt>
<trkpt lat="46.16681507" lon="5.98791897"><ele>419.272217</ele><time>2009-10-19T11:04:39Z</time></trkpt>
<trkpt lat="46.16684633" lon="5.98792735"><ele>419.272217</ele><time>2009-10-19T11:04:40Z</time></trkpt>
<trkpt lat="46.16686729" lon="5.98793465"><ele>419.272217</ele><time>2009-10-19T11:04:41Z</time></trkpt>
<trkpt lat="46.16687818" lon="5.98794772"><ele>419.272217</ele><time>2009-10-19T11:04:42Z</time></trkpt>
<trkpt lat="46.16687944" lon="5.98796499"><ele>418.791504</ele><time>2009-10-19T11:04:43Z</time></trkpt>
<trkpt lat="46.16686989" lon="5.98798125"><ele>419.272217</ele><time>2009-10-19T11:04:44Z</time></trkpt>
<trkpt lat="46.16684658" lon="5.98799064"><ele>420.233398</ele><time>2009-10-19T11:04:45Z</time></trkpt>
<trkpt lat="46.16682664" lon="5.98800288"><ele>419.752808</ele><time>2009-10-19T11:04:46Z</time></trkpt>
<trkpt lat="46.16680015" lon="5.98801897"><ele>419.752808</ele><time>2009-10-19T11:04:47Z</time></trkpt>
<trkpt lat="46.16677157" lon="5.98804135"><ele>419.752808</ele><time>2009-10-19T11:04:48Z</time></trkpt>
<trkpt lat="46.16674357" lon="5.98807043"><ele>419.272217</ele><time>2009-10-19T11:04:49Z</time></trkpt>
<trkpt lat="46.16671398" lon="5.98810539"><ele>419.272217</ele><time>2009-10-19T11:04:50Z</time></trkpt>
<trkpt lat="46.16668255" lon="5.98814369"><ele>419.272217</ele><time>2009-10-19T11:04:51Z</time></trkpt>
<trkpt lat="46.16664995" lon="5.98818284"><ele>419.272217</ele><time>2009-10-19T11:04:52Z</time></trkpt>
<trkpt lat="46.16661893" lon="5.98822257"><ele>419.272217</ele><time>2009-10-19T11:04:53Z</time></trkpt>
<trkpt lat="46.16658817" lon="5.98826347"><ele>419.272217</ele><time>2009-10-19T11:04:54Z</time></trkpt>
<trkpt lat="46.16655707" lon="5.98830538"><ele>418.791504</ele><time>2009-10-19T11:04:55Z</time></trkpt>
<trkpt lat="46.16652522" lon="5.98834804"><ele>418.791504</ele><time>2009-10-19T11:04:56Z</time></trkpt>
<trkpt lat="46.16649312" lon="5.98839004"><ele>418.791504</ele><time>2009-10-19T11:04:57Z</time></trkpt>
<trkpt lat="46.16645968" lon="5.98843127"><ele>418.310791</ele><time>2009-10-19T11:04:58Z</time></trkpt>
<trkpt lat="46.16642548" lon="5.98847394"><ele>418.310791</ele><time>2009-10-19T11:04:59Z</time></trkpt>
<trkpt lat="46.16639069" lon="5.98851744"><ele>418.310791</ele><time>2009-10-19T11:05:00Z</time></trkpt>
<trkpt lat="46.16635507" lon="5.98856186"><ele>418.310791</ele><time>2009-10-19T11:05:01Z</time></trkpt>
<trkpt lat="46.16631894" lon="5.98860738"><ele>418.310791</ele><time>2009-10-19T11:05:02Z</time></trkpt>
<trkpt lat="46.16628265" lon="5.98865323"><ele>417.8302</ele><time>2009-10-19T11:05:03Z</time></trkpt>
<trkpt lat="46.16624644" lon="5.98870008"><ele>417.8302</ele><time>2009-10-19T11:05:04Z</time></trkpt>
<trkpt lat="46.16620956" lon="5.98874652"><ele>417.8302</ele><time>2009-10-19T11:05:05Z</time></trkpt>
<trkpt lat="46.16617167" lon="5.98879228"><ele>417.349609</ele><time>2009-10-19T11:05:06Z</time></trkpt>
<trkpt lat="46.16613379" lon="5.98883838"><ele>417.349609</ele><time>2009-10-19T11:05:07Z</time></trkpt>
<trkpt lat="46.16609540" lon="5.98888465"><ele>417.349609</ele><time>2009-10-19T11:05:08Z</time></trkpt>
<trkpt lat="46.16605584" lon="5.98893000"><ele>416.868896</ele><time>2009-10-19T11:05:09Z</time></trkpt>
<trkpt lat="46.16601577" lon="5.98897384"><ele>416.868896</ele><time>2009-10-19T11:05:10Z</time></trkpt>
<trkpt lat="46.16597554" lon="5.98901776"><ele>416.388184</ele><time>2009-10-19T11:05:11Z</time></trkpt>
<trkpt lat="46.16593438" lon="5.98906386"><ele>416.388184</ele><time>2009-10-19T11:05:12Z</time></trkpt>
<trkpt lat="46.16589432" lon="5.98910853"><ele>416.388184</ele><time>2009-10-19T11:05:13Z</time></trkpt>
<trkpt lat="46.16585693" lon="5.98915078"><ele>415.907471</ele><time>2009-10-19T11:05:14Z</time></trkpt>
<trkpt lat="46.16581628" lon="5.98919587"><ele>415.42688</ele><time>2009-10-19T11:05:15Z</time></trkpt>
<trkpt lat="46.16577513" lon="5.98924206"><ele>415.42688</ele><time>2009-10-19T11:05:16Z</time></trkpt>
<trkpt lat="46.16573372" lon="5.98928916"><ele>415.42688</ele><time>2009-10-19T11:05:17Z</time></trkpt>
<trkpt lat="46.16569164" lon="5.98933459"><ele>414.946167</ele><time>2009-10-19T11:05:18Z</time></trkpt>
<trkpt lat="46.16564529" lon="5.98938866"><ele>414.946167</ele><time>2009-10-19T11:05:19Z</time></trkpt>
<trkpt lat="46.16560212" lon="5.98943920"><ele>414.465454</ele><time>2009-10-19T11:05:20Z</time></trkpt>
<trkpt lat="46.16556063" lon="5.98948790"><ele>413.984863</ele><time>2009-10-19T11:05:21Z</time></trkpt>
<trkpt lat="46.16552015" lon="5.98953425"><ele>413.504272</ele><time>2009-10-19T11:05:22Z</time></trkpt>
<trkpt lat="46.16547924" lon="5.98958496"><ele>413.504272</ele><time>2009-10-19T11:05:23Z</time></trkpt>
<trkpt lat="46.16544144" lon="5.98962695"><ele>413.02356</ele><time>2009-10-19T11:05:24Z</time></trkpt>
<trkpt lat="46.16539920" lon="5.98966903"><ele>413.02356</ele><time>2009-10-19T11:05:25Z</time></trkpt>
<trkpt lat="46.16536005" lon="5.98970859"><ele>413.02356</ele><time>2009-10-19T11:05:26Z</time></trkpt>
<trkpt lat="46.16532770" lon="5.98974036"><ele>413.504272</ele><time>2009-10-19T11:05:27Z</time></trkpt>
<trkpt lat="46.16529602" lon="5.98977288"><ele>413.504272</ele><time>2009-10-19T11:05:28Z</time></trkpt>
<trkpt lat="46.16526182" lon="5.98980909"><ele>413.504272</ele><time>2009-10-19T11:05:29Z</time></trkpt>
<trkpt lat="46.16522930" lon="5.98984027"><ele>413.504272</ele><time>2009-10-19T11:05:30Z</time></trkpt>
<trkpt lat="46.16520306" lon="5.98987673"><ele>413.504272</ele><time>2009-10-19T11:05:31Z</time></trkpt>
<trkpt lat="46.16517582" lon="5.98994614"><ele>413.02356</ele><time>2009-10-19T11:05:32Z</time></trkpt>
<trkpt lat="46.16515067" lon="5.99001545"><ele>412.542847</ele><time>2009-10-19T11:05:33Z</time></trkpt>
<trkpt lat="46.16512268" lon="5.99009207"><ele>412.062256</ele><time>2009-10-19T11:05:34Z</time></trkpt>
<trkpt lat="46.16509887" lon="5.99015929"><ele>411.100952</ele><time>2009-10-19T11:05:35Z</time></trkpt>
<trkpt lat="46.16507079" lon="5.99022609"><ele>410.139648</ele><time>2009-10-19T11:05:36Z</time></trkpt>
<trkpt lat="46.16504154" lon="5.99029742"><ele>408.697632</ele><time>2009-10-19T11:05:37Z</time></trkpt>
<trkpt lat="46.16501438" lon="5.99037847"><ele>407.255615</ele><time>2009-10-19T11:05:38Z</time></trkpt>
<trkpt lat="46.16498983" lon="5.99045517"><ele>405.813721</ele><time>2009-10-19T11:05:39Z</time></trkpt>
<trkpt lat="46.16496183" lon="5.99054276"><ele>404.852295</ele><time>2009-10-19T11:05:40Z</time></trkpt>
<trkpt lat="46.16493886" lon="5.99063085"><ele>404.371704</ele><time>2009-10-19T11:05:41Z</time></trkpt>
<trkpt lat="46.16492084" lon="5.99071492"><ele>403.4104</ele><time>2009-10-19T11:05:42Z</time></trkpt>
<trkpt lat="46.16490316" lon="5.99079866"><ele>401.968506</ele><time>2009-10-19T11:05:43Z</time></trkpt>
<trkpt lat="46.16487550" lon="5.99087795"><ele>401.487793</ele><time>2009-10-19T11:05:44Z</time></trkpt>
<trkpt lat="46.16485010" lon="5.99094568"><ele>400.526489</ele><time>2009-10-19T11:05:45Z</time></trkpt>
<trkpt lat="46.16482722" lon="5.99101366"><ele>399.565063</ele><time>2009-10-19T11:05:46Z</time></trkpt>
<trkpt lat="46.16480618" lon="5.99108255"><ele>399.565063</ele><time>2009-10-19T11:05:47Z</time></trkpt>
<trkpt lat="46.16479176" lon="5.99115137"><ele>399.565063</ele><time>2009-10-19T11:05:48Z</time></trkpt>
<trkpt lat="46.16478195" lon="5.99122220"><ele>399.565063</ele><time>2009-10-19T11:05:49Z</time></trkpt>
<trkpt lat="46.16477374" lon="5.99129177"><ele>400.045898</ele><time>2009-10-19T11:05:50Z</time></trkpt>
<trkpt lat="46.16476435" lon="5.99135689"><ele>399.084351</ele><time>2009-10-19T11:05:51Z</time></trkpt>
<trkpt lat="46.16474549" lon="5.99142076"><ele>399.084351</ele><time>2009-10-19T11:05:52Z</time></trkpt>
<trkpt lat="46.16472219" lon="5.99148463"><ele>398.60376</ele><time>2009-10-19T11:05:53Z</time></trkpt>
<trkpt lat="46.16470065" lon="5.99154859"><ele>398.60376</ele><time>2009-10-19T11:05:54Z</time></trkpt>
<trkpt lat="46.16467869" lon="5.99161296"><ele>397.642456</ele><time>2009-10-19T11:05:55Z</time></trkpt>
<trkpt lat="46.16465866" lon="5.99167683"><ele>397.161743</ele><time>2009-10-19T11:05:56Z</time></trkpt>
<trkpt lat="46.16463929" lon="5.99174003"><ele>396.681152</ele><time>2009-10-19T11:05:57Z</time></trkpt>
<trkpt lat="46.16461792" lon="5.99180273"><ele>396.681152</ele><time>2009-10-19T11:05:58Z</time></trkpt>
<trkpt lat="46.16459495" lon="5.99186366"><ele>396.681152</ele><time>2009-10-19T11:05:59Z</time></trkpt>
<trkpt lat="46.16457148" lon="5.99191798"><ele>396.681152</ele><time>2009-10-19T11:06:00Z</time></trkpt>
<trkpt lat="46.16455003" lon="5.99195813"><ele>396.200562</ele><time>2009-10-19T11:06:01Z</time></trkpt>
<trkpt lat="46.16453226" lon="5.99198914"><ele>396.681152</ele><time>2009-10-19T11:06:02Z</time></trkpt>
<trkpt lat="46.16451767" lon="5.99201085"><ele>396.681152</ele><time>2009-10-19T11:06:03Z</time></trkpt>
<trkpt lat="46.16450309" lon="5.99203357"><ele>396.681152</ele><time>2009-10-19T11:06:04Z</time></trkpt>
<trkpt lat="46.16448699" lon="5.99206533"><ele>396.681152</ele><time>2009-10-19T11:06:05Z</time></trkpt>
<trkpt lat="46.16446537" lon="5.99210615"><ele>396.681152</ele><time>2009-10-19T11:06:06Z</time></trkpt>
<trkpt lat="46.16443729" lon="5.99214664"><ele>396.681152</ele><time>2009-10-19T11:06:07Z</time></trkpt>
<trkpt lat="46.16440376" lon="5.99218125"><ele>396.681152</ele><time>2009-10-19T11:06:08Z</time></trkpt>
<trkpt lat="46.16436839" lon="5.99221420"><ele>396.681152</ele><time>2009-10-19T11:06:09Z</time></trkpt>
<trkpt lat="46.16433277" lon="5.99224705"><ele>397.161743</ele><time>2009-10-19T11:06:10Z</time></trkpt>
<trkpt lat="46.16429748" lon="5.99228050"><ele>397.161743</ele><time>2009-10-19T11:06:11Z</time></trkpt>
<trkpt lat="46.16426270" lon="5.99231327"><ele>397.642456</ele><time>2009-10-19T11:06:12Z</time></trkpt>
<trkpt lat="46.16422774" lon="5.99234453"><ele>397.642456</ele><time>2009-10-19T11:06:13Z</time></trkpt>
<trkpt lat="46.16419304" lon="5.99237496"><ele>398.123169</ele><time>2009-10-19T11:06:14Z</time></trkpt>
<trkpt lat="46.16415960" lon="5.99240555"><ele>398.60376</ele><time>2009-10-19T11:06:15Z</time></trkpt>
<trkpt lat="46.16412666" lon="5.99243799"><ele>399.084351</ele><time>2009-10-19T11:06:16Z</time></trkpt>
<trkpt lat="46.16409355" lon="5.99246867"><ele>399.565063</ele><time>2009-10-19T11:06:17Z</time></trkpt>
<trkpt lat="46.16406430" lon="5.99249893"><ele>400.045898</ele><time>2009-10-19T11:06:18Z</time></trkpt>
<trkpt lat="46.16403295" lon="5.99253003"><ele>400.526489</ele><time>2009-10-19T11:06:19Z</time></trkpt>
<trkpt lat="46.16400554" lon="5.99255693"><ele>401.487793</ele><time>2009-10-19T11:06:20Z</time></trkpt>
<trkpt lat="46.16398542" lon="5.99258459"><ele>401.487793</ele><time>2009-10-19T11:06:21Z</time></trkpt>
<trkpt lat="46.16396698" lon="5.99262097"><ele>401.968506</ele><time>2009-10-19T11:06:22Z</time></trkpt>
<trkpt lat="46.16395114" lon="5.99266573"><ele>402.449097</ele><time>2009-10-19T11:06:23Z</time></trkpt>
<trkpt lat="46.16393932" lon="5.99271208"><ele>402.929688</ele><time>2009-10-19T11:06:24Z</time></trkpt>
<trkpt lat="46.16392993" lon="5.99276497"><ele>403.891113</ele><time>2009-10-19T11:06:25Z</time></trkpt>
<trkpt lat="46.16392574" lon="5.99281803"><ele>404.371704</ele><time>2009-10-19T11:06:26Z</time></trkpt>
<trkpt lat="46.16392147" lon="5.99286748"><ele>405.333008</ele><time>2009-10-19T11:06:27Z</time></trkpt>
<trkpt lat="46.16392063" lon="5.99291408"><ele>406.294312</ele><time>2009-10-19T11:06:28Z</time></trkpt>
<trkpt lat="46.16392029" lon="5.99296639"><ele>407.255615</ele><time>2009-10-19T11:06:29Z</time></trkpt>
<trkpt lat="46.16392038" lon="5.99301517"><ele>407.736328</ele><time>2009-10-19T11:06:30Z</time></trkpt>
<trkpt lat="46.16392147" lon="5.99306487"><ele>407.736328</ele><time>2009-10-19T11:06:31Z</time></trkpt>
<trkpt lat="46.16392365" lon="5.99311064"><ele>408.217041</ele><time>2009-10-19T11:06:32Z</time></trkpt>
<trkpt lat="46.16392449" lon="5.99315247"><ele>408.697632</ele><time>2009-10-19T11:06:33Z</time></trkpt>
<trkpt lat="46.16392608" lon="5.99319069"><ele>409.178345</ele><time>2009-10-19T11:06:34Z</time></trkpt>
<trkpt lat="46.16392775" lon="5.99322958"><ele>409.178345</ele><time>2009-10-19T11:06:35Z</time></trkpt>
<trkpt lat="46.16392474" lon="5.99326856"><ele>410.139648</ele><time>2009-10-19T11:06:36Z</time></trkpt>
<trkpt lat="46.16391862" lon="5.99330326"><ele>411.100952</ele><time>2009-10-19T11:06:37Z</time></trkpt>
<trkpt lat="46.16390722" lon="5.99334248"><ele>411.581665</ele><time>2009-10-19T11:06:38Z</time></trkpt>
<trkpt lat="46.16389406" lon="5.99338934"><ele>411.581665</ele><time>2009-10-19T11:06:39Z</time></trkpt>
<trkpt lat="46.16388115" lon="5.99343938"><ele>412.062256</ele><time>2009-10-19T11:06:40Z</time></trkpt>
<trkpt lat="46.16386162" lon="5.99348967"><ele>412.542847</ele><time>2009-10-19T11:06:41Z</time></trkpt>
<trkpt lat="46.16384234" lon="5.99353476"><ele>413.02356</ele><time>2009-10-19T11:06:42Z</time></trkpt>
<trkpt lat="46.16382348" lon="5.99357617"><ele>413.02356</ele><time>2009-10-19T11:06:43Z</time></trkpt>
<trkpt lat="46.16380907" lon="5.99361925"><ele>413.504272</ele><time>2009-10-19T11:06:44Z</time></trkpt>
<trkpt lat="46.16379524" lon="5.99365622"><ele>413.504272</ele><time>2009-10-19T11:06:45Z</time></trkpt>
<trkpt lat="46.16377797" lon="5.99368673"><ele>413.504272</ele><time>2009-10-19T11:06:46Z</time></trkpt>
<trkpt lat="46.16375173" lon="5.99372093"><ele>413.504272</ele><time>2009-10-19T11:06:47Z</time></trkpt>
<trkpt lat="46.16372793" lon="5.99375563"><ele>413.504272</ele><time>2009-10-19T11:06:48Z</time></trkpt>
<trkpt lat="46.16370496" lon="5.99378832"><ele>413.504272</ele><time>2009-10-19T11:06:49Z</time></trkpt>
<trkpt lat="46.16367588" lon="5.99381832"><ele>413.02356</ele><time>2009-10-19T11:06:50Z</time></trkpt>
<trkpt lat="46.16364688" lon="5.99384163"><ele>413.02356</ele><time>2009-10-19T11:06:51Z</time></trkpt>
<trkpt lat="46.16362064" lon="5.99386149"><ele>412.542847</ele><time>2009-10-19T11:06:52Z</time></trkpt>
<trkpt lat="46.16359290" lon="5.99388253"><ele>413.02356</ele><time>2009-10-19T11:06:53Z</time></trkpt>
<trkpt lat="46.16356817" lon="5.99390550"><ele>412.542847</ele><time>2009-10-19T11:06:54Z</time></trkpt>
<trkpt lat="46.16354244" lon="5.99392679"><ele>412.062256</ele><time>2009-10-19T11:06:55Z</time></trkpt>
<trkpt lat="46.16351503" lon="5.99394992"><ele>412.062256</ele><time>2009-10-19T11:06:56Z</time></trkpt>
<trkpt lat="46.16348905" lon="5.99396920"><ele>411.581665</ele><time>2009-10-19T11:06:57Z</time></trkpt>
<trkpt lat="46.16346197" lon="5.99398923"><ele>411.581665</ele><time>2009-10-19T11:06:58Z</time></trkpt>
<trkpt lat="46.16343264" lon="5.99401094"><ele>412.062256</ele><time>2009-10-19T11:06:59Z</time></trkpt>
<trkpt lat="46.16340053" lon="5.99403852"><ele>412.542847</ele><time>2009-10-19T11:07:00Z</time></trkpt>
<trkpt lat="46.16336927" lon="5.99406752"><ele>413.02356</ele><time>2009-10-19T11:07:01Z</time></trkpt>
<trkpt lat="46.16333792" lon="5.99409845"><ele>413.02356</ele><time>2009-10-19T11:07:02Z</time></trkpt>
<trkpt lat="46.16330615" lon="5.99412837"><ele>413.504272</ele><time>2009-10-19T11:07:03Z</time></trkpt>
<trkpt lat="46.16327497" lon="5.99415578"><ele>413.504272</ele><time>2009-10-19T11:07:04Z</time></trkpt>
<trkpt lat="46.16324446" lon="5.99418109"><ele>413.984863</ele><time>2009-10-19T11:07:05Z</time></trkpt>
<trkpt lat="46.16321228" lon="5.99420565"><ele>413.984863</ele><time>2009-10-19T11:07:06Z</time></trkpt>
<trkpt lat="46.16317992" lon="5.99422493"><ele>413.984863</ele><time>2009-10-19T11:07:07Z</time></trkpt>
<trkpt lat="46.16314757" lon="5.99424136"><ele>414.465454</ele><time>2009-10-19T11:07:08Z</time></trkpt>
<trkpt lat="46.16311530" lon="5.99425360"><ele>414.946167</ele><time>2009-10-19T11:07:09Z</time></trkpt>
<trkpt lat="46.16308135" lon="5.99425544"><ele>415.42688</ele><time>2009-10-19T11:07:10Z</time></trkpt>
<trkpt lat="46.16304656" lon="5.99425267"><ele>415.42688</ele><time>2009-10-19T11:07:11Z</time></trkpt>
<trkpt lat="46.16301178" lon="5.99424446"><ele>415.907471</ele><time>2009-10-19T11:07:12Z</time></trkpt>
<trkpt lat="46.16297683" lon="5.99423465"><ele>416.868896</ele><time>2009-10-19T11:07:13Z</time></trkpt>
<trkpt lat="46.16294296" lon="5.99422149"><ele>417.349609</ele><time>2009-10-19T11:07:14Z</time></trkpt>
<trkpt lat="46.16291153" lon="5.99420825"><ele>417.8302</ele><time>2009-10-19T11:07:15Z</time></trkpt>
<trkpt lat="46.16288153" lon="5.99419459"><ele>417.8302</ele><time>2009-10-19T11:07:16Z</time></trkpt>
<trkpt lat="46.16285512" lon="5.99418168"><ele>418.310791</ele><time>2009-10-19T11:07:17Z</time></trkpt>
<trkpt lat="46.16282595" lon="5.99416877"><ele>418.791504</ele><time>2009-10-19T11:07:18Z</time></trkpt>
<trkpt lat="46.16279745" lon="5.99415192"><ele>418.791504</ele><time>2009-10-19T11:07:19Z</time></trkpt>
<trkpt lat="46.16277105" lon="5.99413407"><ele>418.791504</ele><time>2009-10-19T11:07:20Z</time></trkpt>
<trkpt lat="46.16274959" lon="5.99411655"><ele>418.791504</ele><time>2009-10-19T11:07:21Z</time></trkpt>
<trkpt lat="46.16273040" lon="5.99410054"><ele>419.272217</ele><time>2009-10-19T11:07:22Z</time></trkpt>
<trkpt lat="46.16270525" lon="5.99408252"><ele>419.752808</ele><time>2009-10-19T11:07:23Z</time></trkpt>
<trkpt lat="46.16267717" lon="5.99406844"><ele>419.752808</ele><time>2009-10-19T11:07:24Z</time></trkpt>
<trkpt lat="46.16264666" lon="5.99406257"><ele>420.714111</ele><time>2009-10-19T11:07:25Z</time></trkpt>
<trkpt lat="46.16261129" lon="5.99406794"><ele>420.714111</ele><time>2009-10-19T11:07:26Z</time></trkpt>
<trkpt lat="46.16257575" lon="5.99407934"><ele>421.194824</ele><time>2009-10-19T11:07:27Z</time></trkpt>
<trkpt lat="46.16254432" lon="5.99409895"><ele>421.194824</ele><time>2009-10-19T11:07:28Z</time></trkpt>
<trkpt lat="46.16250945" lon="5.99412317"><ele>421.194824</ele><time>2009-10-19T11:07:29Z</time></trkpt>
<trkpt lat="46.16247852" lon="5.99415117"><ele>421.194824</ele><time>2009-10-19T11:07:30Z</time></trkpt>
<trkpt lat="46.16244977" lon="5.99418042"><ele>421.675415</ele><time>2009-10-19T11:07:31Z</time></trkpt>
<trkpt lat="46.16242530" lon="5.99421454"><ele>421.675415</ele><time>2009-10-19T11:07:32Z</time></trkpt>
<trkpt lat="46.16240342" lon="5.99425242"><ele>421.675415</ele><time>2009-10-19T11:07:33Z</time></trkpt>
<trkpt lat="46.16238129" lon="5.99429106"><ele>422.156006</ele><time>2009-10-19T11:07:34Z</time></trkpt>
<trkpt lat="46.16235682" lon="5.99433138"><ele>422.156006</ele><time>2009-10-19T11:07:35Z</time></trkpt>
<trkpt lat="46.16233243" lon="5.99437086"><ele>421.675415</ele><time>2009-10-19T11:07:36Z</time></trkpt>
<trkpt lat="46.16230686" lon="5.99440900"><ele>421.675415</ele><time>2009-10-19T11:07:37Z</time></trkpt>
<trkpt lat="46.16228188" lon="5.99444546"><ele>421.675415</ele><time>2009-10-19T11:07:38Z</time></trkpt>
<trkpt lat="46.16225766" lon="5.99448318"><ele>421.675415</ele><time>2009-10-19T11:07:39Z</time></trkpt>
<trkpt lat="46.16223419" lon="5.99452224"><ele>421.675415</ele><time>2009-10-19T11:07:40Z</time></trkpt>
<trkpt lat="46.16221089" lon="5.99456138"><ele>421.194824</ele><time>2009-10-19T11:07:41Z</time></trkpt>
<trkpt lat="46.16218667" lon="5.99460094"><ele>421.194824</ele><time>2009-10-19T11:07:42Z</time></trkpt>
<trkpt lat="46.16216186" lon="5.99464034"><ele>421.194824</ele><time>2009-10-19T11:07:43Z</time></trkpt>
<trkpt lat="46.16213730" lon="5.99467948"><ele>421.194824</ele><time>2009-10-19T11:07:44Z</time></trkpt>
<trkpt lat="46.16211324" lon="5.99471980"><ele>421.194824</ele><time>2009-10-19T11:07:45Z</time></trkpt>
<trkpt lat="46.16209036" lon="5.99476053"><ele>421.194824</ele><time>2009-10-19T11:07:46Z</time></trkpt>
<trkpt lat="46.16206773" lon="5.99480043"><ele>421.194824</ele><time>2009-10-19T11:07:47Z</time></trkpt>
<trkpt lat="46.16204510" lon="5.99483999"><ele>421.194824</ele><time>2009-10-19T11:07:48Z</time></trkpt>
<trkpt lat="46.16202355" lon="5.99487998"><ele>421.194824</ele><time>2009-10-19T11:07:49Z</time></trkpt>
<trkpt lat="46.16200218" lon="5.99491954"><ele>421.675415</ele><time>2009-10-19T11:07:50Z</time></trkpt>
<trkpt lat="46.16197997" lon="5.99495810"><ele>421.675415</ele><time>2009-10-19T11:07:51Z</time></trkpt>
<trkpt lat="46.16195935" lon="5.99499657"><ele>421.675415</ele><time>2009-10-19T11:07:52Z</time></trkpt>
<trkpt lat="46.16193948" lon="5.99503529"><ele>421.675415</ele><time>2009-10-19T11:07:53Z</time></trkpt>
<trkpt lat="46.16191937" lon="5.99507393"><ele>422.156006</ele><time>2009-10-19T11:07:54Z</time></trkpt>
<trkpt lat="46.16189808" lon="5.99511224"><ele>422.156006</ele><time>2009-10-19T11:07:55Z</time></trkpt>
<trkpt lat="46.16187377" lon="5.99514836"><ele>422.636719</ele><time>2009-10-19T11:07:56Z</time></trkpt>
<trkpt lat="46.16184242" lon="5.99517594"><ele>422.636719</ele><time>2009-10-19T11:07:57Z</time></trkpt>
<trkpt lat="46.16180629" lon="5.99518952"><ele>422.636719</ele><time>2009-10-19T11:07:58Z</time></trkpt>
<trkpt lat="46.16176774" lon="5.99518617"><ele>422.156006</ele><time>2009-10-19T11:07:59Z</time></trkpt>
<trkpt lat="46.16172994" lon="5.99516278"><ele>422.156006</ele><time>2009-10-19T11:08:00Z</time></trkpt>
<trkpt lat="46.16169297" lon="5.99512758"><ele>422.156006</ele><time>2009-10-19T11:08:01Z</time></trkpt>
<trkpt lat="46.16165643" lon="5.99508793"><ele>422.156006</ele><time>2009-10-19T11:08:02Z</time></trkpt>
<trkpt lat="46.16162206" lon="5.99504485"><ele>422.156006</ele><time>2009-10-19T11:08:03Z</time></trkpt>
<trkpt lat="46.16158828" lon="5.99500076"><ele>422.156006</ele><time>2009-10-19T11:08:04Z</time></trkpt>
<trkpt lat="46.16155325" lon="5.99495877"><ele>422.156006</ele><time>2009-10-19T11:08:05Z</time></trkpt>
<trkpt lat="46.16151854" lon="5.99491635"><ele>422.156006</ele><time>2009-10-19T11:08:06Z</time></trkpt>
<trkpt lat="46.16148435" lon="5.99487478"><ele>422.156006</ele><time>2009-10-19T11:08:07Z</time></trkpt>
<trkpt lat="46.16144956" lon="5.99483446"><ele>422.156006</ele><time>2009-10-19T11:08:08Z</time></trkpt>
<trkpt lat="46.16141444" lon="5.99479213"><ele>422.156006</ele><time>2009-10-19T11:08:09Z</time></trkpt>
<trkpt lat="46.16137815" lon="5.99474880"><ele>422.156006</ele><time>2009-10-19T11:08:10Z</time></trkpt>
<trkpt lat="46.16133993" lon="5.99470538"><ele>422.156006</ele><time>2009-10-19T11:08:11Z</time></trkpt>
<trkpt lat="46.16130078" lon="5.99466087"><ele>422.156006</ele><time>2009-10-19T11:08:12Z</time></trkpt>
<trkpt lat="46.16126105" lon="5.99461569"><ele>422.156006</ele><time>2009-10-19T11:08:13Z</time></trkpt>
<trkpt lat="46.16122040" lon="5.99457094"><ele>422.636719</ele><time>2009-10-19T11:08:14Z</time></trkpt>
<trkpt lat="46.16118017" lon="5.99452567"><ele>422.156006</ele><time>2009-10-19T11:08:15Z</time></trkpt>
<trkpt lat="46.16113977" lon="5.99447924"><ele>422.636719</ele><time>2009-10-19T11:08:16Z</time></trkpt>
<trkpt lat="46.16109878" lon="5.99443272"><ele>422.636719</ele><time>2009-10-19T11:08:17Z</time></trkpt>
<trkpt lat="46.16105779" lon="5.99438544"><ele>422.636719</ele><time>2009-10-19T11:08:18Z</time></trkpt>
<trkpt lat="46.16101664" lon="5.99433783"><ele>422.636719</ele><time>2009-10-19T11:08:19Z</time></trkpt>
<trkpt lat="46.16097414" lon="5.99429358"><ele>423.117432</ele><time>2009-10-19T11:08:20Z</time></trkpt>
<trkpt lat="46.16092896" lon="5.99425619"><ele>423.117432</ele><time>2009-10-19T11:08:21Z</time></trkpt>
<trkpt lat="46.16088043" lon="5.99422703"><ele>423.117432</ele><time>2009-10-19T11:08:22Z</time></trkpt>
<trkpt lat="46.16082972" lon="5.99420934"><ele>423.598022</ele><time>2009-10-19T11:08:23Z</time></trkpt>
<trkpt lat="46.16077825" lon="5.99420188"><ele>423.598022</ele><time>2009-10-19T11:08:24Z</time></trkpt>
<trkpt lat="46.16072838" lon="5.99420113"><ele>423.598022</ele><time>2009-10-19T11:08:25Z</time></trkpt>
<trkpt lat="46.16067792" lon="5.99420498"><ele>423.598022</ele><time>2009-10-19T11:08:26Z</time></trkpt>
<trkpt lat="46.16062763" lon="5.99421328"><ele>424.078735</ele><time>2009-10-19T11:08:27Z</time></trkpt>
<trkpt lat="46.16057717" lon="5.99422216"><ele>424.078735</ele><time>2009-10-19T11:08:28Z</time></trkpt>
<trkpt lat="46.16052588" lon="5.99422979"><ele>424.078735</ele><time>2009-10-19T11:08:29Z</time></trkpt>
<trkpt lat="46.16047382" lon="5.99423717"><ele>424.078735</ele><time>2009-10-19T11:08:30Z</time></trkpt>
<trkpt lat="46.16042102" lon="5.99424588"><ele>424.559448</ele><time>2009-10-19T11:08:31Z</time></trkpt>
<trkpt lat="46.16036746" lon="5.99425586"><ele>424.559448</ele><time>2009-10-19T11:08:32Z</time></trkpt>
<trkpt lat="46.16031289" lon="5.99426726"><ele>424.559448</ele><time>2009-10-19T11:08:33Z</time></trkpt>
<trkpt lat="46.16025749" lon="5.99428235"><ele>424.559448</ele><time>2009-10-19T11:08:34Z</time></trkpt>
<trkpt lat="46.16020166" lon="5.99429936"><ele>424.559448</ele><time>2009-10-19T11:08:35Z</time></trkpt>
<trkpt lat="46.16014559" lon="5.99431579"><ele>424.559448</ele><time>2009-10-19T11:08:36Z</time></trkpt>
<trkpt lat="46.16008993" lon="5.99433213"><ele>424.559448</ele><time>2009-10-19T11:08:37Z</time></trkpt>
<trkpt lat="46.16003537" lon="5.99434898"><ele>425.040161</ele><time>2009-10-19T11:08:38Z</time></trkpt>
<trkpt lat="46.15998206" lon="5.99436684"><ele>425.040161</ele><time>2009-10-19T11:08:39Z</time></trkpt>
<trkpt lat="46.15993084" lon="5.99438779"><ele>425.040161</ele><time>2009-10-19T11:08:40Z</time></trkpt>
<trkpt lat="46.15988164" lon="5.99441268"><ele>425.040161</ele><time>2009-10-19T11:08:41Z</time></trkpt>
<trkpt lat="46.15983487" lon="5.99444219"><ele>425.040161</ele><time>2009-10-19T11:08:42Z</time></trkpt>
<trkpt lat="46.15979053" lon="5.99447505"><ele>425.520752</ele><time>2009-10-19T11:08:43Z</time></trkpt>
<trkpt lat="46.15974879" lon="5.99451059"><ele>425.520752</ele><time>2009-10-19T11:08:44Z</time></trkpt>
<trkpt lat="46.15971082" lon="5.99455082"><ele>425.040161</ele><time>2009-10-19T11:08:45Z</time></trkpt>
<trkpt lat="46.15967528" lon="5.99459600"><ele>425.040161</ele><time>2009-10-19T11:08:46Z</time></trkpt>
<trkpt lat="46.15964066" lon="5.99464428"><ele>425.040161</ele><time>2009-10-19T11:08:47Z</time></trkpt>
<trkpt lat="46.15960579" lon="5.99469272"><ele>424.559448</ele><time>2009-10-19T11:08:48Z</time></trkpt>
<trkpt lat="46.15956967" lon="5.99474000"><ele>424.559448</ele><time>2009-10-19T11:08:49Z</time></trkpt>
<trkpt lat="46.15953463" lon="5.99478995"><ele>424.078735</ele><time>2009-10-19T11:08:50Z</time></trkpt>
<trkpt lat="46.15950278" lon="5.99484527"><ele>423.598022</ele><time>2009-10-19T11:08:51Z</time></trkpt>
<trkpt lat="46.15947403" lon="5.99490487"><ele>423.117432</ele><time>2009-10-19T11:08:52Z</time></trkpt>
<trkpt lat="46.15944712" lon="5.99496656"><ele>422.636719</ele><time>2009-10-19T11:08:53Z</time></trkpt>
<trkpt lat="46.15942114" lon="5.99502934"><ele>422.156006</ele><time>2009-10-19T11:08:54Z</time></trkpt>
<trkpt lat="46.15939616" lon="5.99509304"><ele>421.675415</ele><time>2009-10-19T11:08:55Z</time></trkpt>
<trkpt lat="46.15937294" lon="5.99515758"><ele>421.675415</ele><time>2009-10-19T11:08:56Z</time></trkpt>
<trkpt lat="46.15935165" lon="5.99522556"><ele>421.675415</ele><time>2009-10-19T11:08:57Z</time></trkpt>
<trkpt lat="46.15933280" lon="5.99529547"><ele>421.675415</ele><time>2009-10-19T11:08:58Z</time></trkpt>
<trkpt lat="46.15931712" lon="5.99536764"><ele>422.156006</ele><time>2009-10-19T11:08:59Z</time></trkpt>
<trkpt lat="46.15930522" lon="5.99544173"><ele>422.156006</ele><time>2009-10-19T11:09:00Z</time></trkpt>
<trkpt lat="46.15929524" lon="5.99551633"><ele>422.156006</ele><time>2009-10-19T11:09:01Z</time></trkpt>
<trkpt lat="46.15928653" lon="5.99559043"><ele>422.156006</ele><time>2009-10-19T11:09:02Z</time></trkpt>
<trkpt lat="46.15927999" lon="5.99566603"><ele>422.636719</ele><time>2009-10-19T11:09:03Z</time></trkpt>
<trkpt lat="46.15927362" lon="5.99574340"><ele>422.636719</ele><time>2009-10-19T11:09:04Z</time></trkpt>
<trkpt lat="46.15926834" lon="5.99581959"><ele>422.636719</ele><time>2009-10-19T11:09:05Z</time></trkpt>
<trkpt lat="46.15926448" lon="5.99589159"><ele>422.636719</ele><time>2009-10-19T11:09:06Z</time></trkpt>
<trkpt lat="46.15925912" lon="5.99596535"><ele>422.156006</ele><time>2009-10-19T11:09:07Z</time></trkpt>
<trkpt lat="46.15925325" lon="5.99604347"><ele>422.636719</ele><time>2009-10-19T11:09:08Z</time></trkpt>
<trkpt lat="46.15924604" lon="5.99612284"><ele>422.636719</ele><time>2009-10-19T11:09:09Z</time></trkpt>
<trkpt lat="46.15923833" lon="5.99620197"><ele>422.636719</ele><time>2009-10-19T11:09:10Z</time></trkpt>
<trkpt lat="46.15922953" lon="5.99628042"><ele>422.636719</ele><time>2009-10-19T11:09:11Z</time></trkpt>
<trkpt lat="46.15922140" lon="5.99635896"><ele>422.636719</ele><time>2009-10-19T11:09:12Z</time></trkpt>
<trkpt lat="46.15921293" lon="5.99643809"><ele>422.636719</ele><time>2009-10-19T11:09:13Z</time></trkpt>
<trkpt lat="46.15920338" lon="5.99651705"><ele>422.636719</ele><time>2009-10-19T11:09:14Z</time></trkpt>
<trkpt lat="46.15919265" lon="5.99659584"><ele>422.636719</ele><time>2009-10-19T11:09:15Z</time></trkpt>
<trkpt lat="46.15917974" lon="5.99667287"><ele>422.636719</ele><time>2009-10-19T11:09:16Z</time></trkpt>
<trkpt lat="46.15916717" lon="5.99674914"><ele>422.636719</ele><time>2009-10-19T11:09:17Z</time></trkpt>
<trkpt lat="46.15915619" lon="5.99682625"><ele>422.636719</ele><time>2009-10-19T11:09:18Z</time></trkpt>
<trkpt lat="46.15914336" lon="5.99690404"><ele>423.117432</ele><time>2009-10-19T11:09:19Z</time></trkpt>
<trkpt lat="46.15912937" lon="5.99697989"><ele>423.117432</ele><time>2009-10-19T11:09:20Z</time></trkpt>
<trkpt lat="46.15911294" lon="5.99705575"><ele>423.117432</ele><time>2009-10-19T11:09:21Z</time></trkpt>
<trkpt lat="46.15909408" lon="5.99713043"><ele>423.117432</ele><time>2009-10-19T11:09:22Z</time></trkpt>
<trkpt lat="46.15907229" lon="5.99720595"><ele>423.117432</ele><time>2009-10-19T11:09:23Z</time></trkpt>
<trkpt lat="46.15904689" lon="5.99727988"><ele>423.117432</ele><time>2009-10-19T11:09:24Z</time></trkpt>
<trkpt lat="46.15901822" lon="5.99734954"><ele>423.117432</ele><time>2009-10-19T11:09:25Z</time></trkpt>
<trkpt lat="46.15898813" lon="5.99741299"><ele>423.117432</ele><time>2009-10-19T11:09:26Z</time></trkpt>
<trkpt lat="46.15895578" lon="5.99747065"><ele>423.117432</ele><time>2009-10-19T11:09:27Z</time></trkpt>
<trkpt lat="46.15892225" lon="5.99752078"><ele>422.636719</ele><time>2009-10-19T11:09:28Z</time></trkpt>
<trkpt lat="46.15888587" lon="5.99756654"><ele>422.636719</ele><time>2009-10-19T11:09:29Z</time></trkpt>
<trkpt lat="46.15885193" lon="5.99761315"><ele>422.636719</ele><time>2009-10-19T11:09:30Z</time></trkpt>
<trkpt lat="46.15882276" lon="5.99765975"><ele>423.117432</ele><time>2009-10-19T11:09:31Z</time></trkpt>
<trkpt lat="46.15879669" lon="5.99770778"><ele>423.117432</ele><time>2009-10-19T11:09:32Z</time></trkpt>
<trkpt lat="46.15876945" lon="5.99775396"><ele>422.636719</ele><time>2009-10-19T11:09:33Z</time></trkpt>
<trkpt lat="46.15873919" lon="5.99779604"><ele>422.636719</ele><time>2009-10-19T11:09:34Z</time></trkpt>
<trkpt lat="46.15870683" lon="5.99783963"><ele>422.636719</ele><time>2009-10-19T11:09:35Z</time></trkpt>
<trkpt lat="46.15867708" lon="5.99788363"><ele>421.675415</ele><time>2009-10-19T11:09:36Z</time></trkpt>
<trkpt lat="46.15864422" lon="5.99792604"><ele>421.675415</ele><time>2009-10-19T11:09:37Z</time></trkpt>
<trkpt lat="46.15861447" lon="5.99796695"><ele>421.194824</ele><time>2009-10-19T11:09:38Z</time></trkpt>
<trkpt lat="46.15858538" lon="5.99801045"><ele>420.714111</ele><time>2009-10-19T11:09:39Z</time></trkpt>
<trkpt lat="46.15855663" lon="5.99805353"><ele>420.714111</ele><time>2009-10-19T11:09:40Z</time></trkpt>
<trkpt lat="46.15853316" lon="5.99808790"><ele>420.714111</ele><time>2009-10-19T11:09:41Z</time></trkpt>
<trkpt lat="46.15851254" lon="5.99811866"><ele>420.714111</ele><time>2009-10-19T11:09:42Z</time></trkpt>
<trkpt lat="46.15849502" lon="5.99815663"><ele>420.714111</ele><time>2009-10-19T11:09:43Z</time></trkpt>
<trkpt lat="46.15847968" lon="5.99819996"><ele>420.714111</ele><time>2009-10-19T11:09:44Z</time></trkpt>
<trkpt lat="46.15845974" lon="5.99824799"><ele>420.714111</ele><time>2009-10-19T11:09:45Z</time></trkpt>
<trkpt lat="46.15843518" lon="5.99829845"><ele>420.714111</ele><time>2009-10-19T11:09:46Z</time></trkpt>
<trkpt lat="46.15840785" lon="5.99835042"><ele>420.714111</ele><time>2009-10-19T11:09:47Z</time></trkpt>
<trkpt lat="46.15838078" lon="5.99840398"><ele>421.194824</ele><time>2009-10-19T11:09:48Z</time></trkpt>
<trkpt lat="46.15835303" lon="5.99845779"><ele>421.194824</ele><time>2009-10-19T11:09:49Z</time></trkpt>
<trkpt lat="46.15832613" lon="5.99851152"><ele>421.194824</ele><time>2009-10-19T11:09:50Z</time></trkpt>
<trkpt lat="46.15829755" lon="5.99856458"><ele>421.194824</ele><time>2009-10-19T11:09:51Z</time></trkpt>
<trkpt lat="46.15826863" lon="5.99861772"><ele>421.194824</ele><time>2009-10-19T11:09:52Z</time></trkpt>
<trkpt lat="46.15824105" lon="5.99867052"><ele>421.194824</ele><time>2009-10-19T11:09:53Z</time></trkpt>
<trkpt lat="46.15821524" lon="5.99872492"><ele>421.194824</ele><time>2009-10-19T11:09:54Z</time></trkpt>
<trkpt lat="46.15819017" lon="5.99878008"><ele>421.675415</ele><time>2009-10-19T11:09:55Z</time></trkpt>
<trkpt lat="46.15816402" lon="5.99883523"><ele>421.675415</ele><time>2009-10-19T11:09:56Z</time></trkpt>
<trkpt lat="46.15813754" lon="5.99888963"><ele>421.675415</ele><time>2009-10-19T11:09:57Z</time></trkpt>
<trkpt lat="46.15811138" lon="5.99894344"><ele>421.675415</ele><time>2009-10-19T11:09:58Z</time></trkpt>
<trkpt lat="46.15808632" lon="5.99899817"><ele>422.156006</ele><time>2009-10-19T11:09:59Z</time></trkpt>
<trkpt lat="46.15806034" lon="5.99905157"><ele>422.156006</ele><time>2009-10-19T11:10:00Z</time></trkpt>
<trkpt lat="46.15803419" lon="5.99910437"><ele>422.156006</ele><time>2009-10-19T11:10:01Z</time></trkpt>
<trkpt lat="46.15800879" lon="5.99915676"><ele>422.156006</ele><time>2009-10-19T11:10:02Z</time></trkpt>
<trkpt lat="46.15798373" lon="5.99920797"><ele>422.636719</ele><time>2009-10-19T11:10:03Z</time></trkpt>
<trkpt lat="46.15795942" lon="5.99925784"><ele>422.636719</ele><time>2009-10-19T11:10:04Z</time></trkpt>
<trkpt lat="46.15793645" lon="5.99930545"><ele>423.117432</ele><time>2009-10-19T11:10:05Z</time></trkpt>
<trkpt lat="46.15791273" lon="5.99934954"><ele>423.117432</ele><time>2009-10-19T11:10:06Z</time></trkpt>
<trkpt lat="46.15788843" lon="5.99938994"><ele>423.117432</ele><time>2009-10-19T11:10:07Z</time></trkpt>
<trkpt lat="46.15786370" lon="5.99942699"><ele>423.598022</ele><time>2009-10-19T11:10:08Z</time></trkpt>
<trkpt lat="46.15784048" lon="5.99946035"><ele>423.598022</ele><time>2009-10-19T11:10:09Z</time></trkpt>
<trkpt lat="46.15782196" lon="5.99948642"><ele>424.078735</ele><time>2009-10-19T11:10:10Z</time></trkpt>
<trkpt lat="46.15780712" lon="5.99950318"><ele>423.598022</ele><time>2009-10-19T11:10:11Z</time></trkpt>
<trkpt lat="46.15779597" lon="5.99951408"><ele>423.598022</ele><time>2009-10-19T11:10:12Z</time></trkpt>
<trkpt lat="46.15779136" lon="5.99951852"><ele>423.598022</ele><time>2009-10-19T11:10:13Z</time></trkpt>
<trkpt lat="46.15778952" lon="5.99951894"><ele>423.598022</ele><time>2009-10-19T11:10:14Z</time></trkpt>
<trkpt lat="46.15778826" lon="5.99951944"><ele>424.078735</ele><time>2009-10-19T11:10:15Z</time></trkpt>
<trkpt lat="46.15778826" lon="5.99952254"><ele>424.559448</ele><time>2009-10-19T11:10:16Z</time></trkpt>
<trkpt lat="46.15778868" lon="5.99952363"><ele>425.040161</ele><time>2009-10-19T11:10:17Z</time></trkpt>
<trkpt lat="46.15779145" lon="5.99952514"><ele>425.520752</ele><time>2009-10-19T11:10:18Z</time></trkpt>
<trkpt lat="46.15779430" lon="5.99952632"><ele>426.001343</ele><time>2009-10-19T11:10:19Z</time></trkpt>
<trkpt lat="46.15779748" lon="5.99952824"><ele>426.001343</ele><time>2009-10-19T11:10:20Z</time></trkpt>
<trkpt lat="46.15779949" lon="5.99952975"><ele>426.482056</ele><time>2009-10-19T11:10:21Z</time></trkpt>
<trkpt lat="46.15780125" lon="5.99953093"><ele>426.962769</ele><time>2009-10-19T11:10:22Z</time></trkpt>
<trkpt lat="46.15780310" lon="5.99953193"><ele>426.962769</ele><time>2009-10-19T11:10:23Z</time></trkpt>
<trkpt lat="46.15780444" lon="5.99953244"><ele>427.443359</ele><time>2009-10-19T11:10:24Z</time></trkpt>
<trkpt lat="46.15780536" lon="5.99953319"><ele>427.443359</ele><time>2009-10-19T11:10:25Z</time></trkpt>
<trkpt lat="46.15780637" lon="5.99953294"><ele>427.92395</ele><time>2009-10-19T11:10:26Z</time></trkpt>
<trkpt lat="46.15780687" lon="5.99953336"><ele>427.92395</ele><time>2009-10-19T11:10:27Z</time></trkpt>
<trkpt lat="46.15780704" lon="5.99953436"><ele>427.92395</ele><time>2009-10-19T11:10:28Z</time></trkpt>
<trkpt lat="46.15780704" lon="5.99953512"><ele>427.92395</ele><time>2009-10-19T11:10:29Z</time></trkpt>
<trkpt lat="46.15780712" lon="5.99953612"><ele>428.404663</ele><time>2009-10-19T11:10:30Z</time></trkpt>
<trkpt lat="46.15780762" lon="5.99953663"><ele>428.404663</ele><time>2009-10-19T11:10:31Z</time></trkpt>
<trkpt lat="46.15780796" lon="5.99953696"><ele>428.404663</ele><time>2009-10-19T11:10:32Z</time></trkpt>
<trkpt lat="46.15780804" lon="5.99953788"><ele>428.885376</ele><time>2009-10-19T11:10:33Z</time></trkpt>
<trkpt lat="46.15780846" lon="5.99953872"><ele>428.885376</ele><time>2009-10-19T11:10:34Z</time></trkpt>
<trkpt lat="46.15780897" lon="5.99953948"><ele>428.885376</ele><time>2009-10-19T11:10:35Z</time></trkpt>
<trkpt lat="46.15780947" lon="5.99953989"><ele>428.885376</ele><time>2009-10-19T11:10:36Z</time></trkpt>
<trkpt lat="46.15781073" lon="5.99954098"><ele>428.885376</ele><time>2009-10-19T11:10:37Z</time></trkpt>
<trkpt lat="46.15781014" lon="5.99954249"><ele>429.365967</ele><time>2009-10-19T11:10:38Z</time></trkpt>
<trkpt lat="46.15780846" lon="5.99954442"><ele>429.365967</ele><time>2009-10-19T11:10:39Z</time></trkpt>
<trkpt lat="46.15780746" lon="5.99954643"><ele>429.365967</ele><time>2009-10-19T11:10:40Z</time></trkpt>
<trkpt lat="46.15780662" lon="5.99954886"><ele>429.365967</ele><time>2009-10-19T11:10:41Z</time></trkpt>
<trkpt lat="46.15780578" lon="5.99955272"><ele>428.885376</ele><time>2009-10-19T11:10:42Z</time></trkpt>
<trkpt lat="46.15780486" lon="5.99955549"><ele>428.885376</ele><time>2009-10-19T11:10:43Z</time></trkpt>
<trkpt lat="46.15780477" lon="5.99955808"><ele>428.885376</ele><time>2009-10-19T11:10:44Z</time></trkpt>
<trkpt lat="46.15780662" lon="5.99956060"><ele>428.885376</ele><time>2009-10-19T11:10:45Z</time></trkpt>
<trkpt lat="46.15780570" lon="5.99956202"><ele>428.885376</ele><time>2009-10-19T11:10:46Z</time></trkpt>
<trkpt lat="46.15780503" lon="5.99956269"><ele>428.404663</ele><time>2009-10-19T11:10:47Z</time></trkpt>
<trkpt lat="46.15780444" lon="5.99956320"><ele>428.404663</ele><time>2009-10-19T11:10:48Z</time></trkpt>
<trkpt lat="46.15780268" lon="5.99956479"><ele>428.404663</ele><time>2009-10-19T11:10:49Z</time></trkpt>
<trkpt lat="46.15779656" lon="5.99957208"><ele>427.92395</ele><time>2009-10-19T11:10:50Z</time></trkpt>
<trkpt lat="46.15778558" lon="5.99958650"><ele>427.92395</ele><time>2009-10-19T11:10:51Z</time></trkpt>
<trkpt lat="46.15777217" lon="5.99960318"><ele>427.92395</ele><time>2009-10-19T11:10:52Z</time></trkpt>
<trkpt lat="46.15775339" lon="5.99961986"><ele>427.92395</ele><time>2009-10-19T11:10:53Z</time></trkpt>
<trkpt lat="46.15772992" lon="5.99964375"><ele>427.92395</ele><time>2009-10-19T11:10:54Z</time></trkpt>
<trkpt lat="46.15770235" lon="5.99967442"><ele>427.92395</ele><time>2009-10-19T11:10:55Z</time></trkpt>
<trkpt lat="46.15767033" lon="5.99970669"><ele>427.443359</ele><time>2009-10-19T11:10:56Z</time></trkpt>
<trkpt lat="46.15763655" lon="5.99973964"><ele>427.443359</ele><time>2009-10-19T11:10:57Z</time></trkpt>
<trkpt lat="46.15759883" lon="5.99977576"><ele>427.443359</ele><time>2009-10-19T11:10:58Z</time></trkpt>
<trkpt lat="46.15756145" lon="5.99981323"><ele>427.443359</ele><time>2009-10-19T11:10:59Z</time></trkpt>
<trkpt lat="46.15752306" lon="5.99985296"><ele>426.962769</ele><time>2009-10-19T11:11:00Z</time></trkpt>
<trkpt lat="46.15748333" lon="5.99989420"><ele>426.962769</ele><time>2009-10-19T11:11:01Z</time></trkpt>
<trkpt lat="46.15744226" lon="5.99993485"><ele>426.962769</ele><time>2009-10-19T11:11:02Z</time></trkpt>
<trkpt lat="46.15740018" lon="5.99997684"><ele>426.962769</ele><time>2009-10-19T11:11:03Z</time></trkpt>
<trkpt lat="46.15735777" lon="6.00001993"><ele>426.962769</ele><time>2009-10-19T11:11:04Z</time></trkpt>
<trkpt lat="46.15731477" lon="6.00006293"><ele>426.962769</ele><time>2009-10-19T11:11:05Z</time></trkpt>
<trkpt lat="46.15727076" lon="6.00010710"><ele>426.962769</ele><time>2009-10-19T11:11:06Z</time></trkpt>
<trkpt lat="46.15722592" lon="6.00015203"><ele>426.482056</ele><time>2009-10-19T11:11:07Z</time></trkpt>
<trkpt lat="46.15717982" lon="6.00019712"><ele>426.482056</ele><time>2009-10-19T11:11:08Z</time></trkpt>
<trkpt lat="46.15713330" lon="6.00024188"><ele>426.482056</ele><time>2009-10-19T11:11:09Z</time></trkpt>
<trkpt lat="46.15708636" lon="6.00028614"><ele>426.001343</ele><time>2009-10-19T11:11:10Z</time></trkpt>
<trkpt lat="46.15704085" lon="6.00033148"><ele>426.001343</ele><time>2009-10-19T11:11:11Z</time></trkpt>
<trkpt lat="46.15699626" lon="6.00037758"><ele>426.001343</ele><time>2009-10-19T11:11:12Z</time></trkpt>
<trkpt lat="46.15695275" lon="6.00042595"><ele>425.520752</ele><time>2009-10-19T11:11:13Z</time></trkpt>
<trkpt lat="46.15690925" lon="6.00047749"><ele>425.520752</ele><time>2009-10-19T11:11:14Z</time></trkpt>
<trkpt lat="46.15686759" lon="6.00053424"><ele>425.040161</ele><time>2009-10-19T11:11:15Z</time></trkpt>
<trkpt lat="46.15683130" lon="6.00059669"><ele>425.040161</ele><time>2009-10-19T11:11:16Z</time></trkpt>
<trkpt lat="46.15679836" lon="6.00066684"><ele>425.040161</ele><time>2009-10-19T11:11:17Z</time></trkpt>
<trkpt lat="46.15676877" lon="6.00074228"><ele>424.559448</ele><time>2009-10-19T11:11:18Z</time></trkpt>
<trkpt lat="46.15674212" lon="6.00082476"><ele>424.559448</ele><time>2009-10-19T11:11:19Z</time></trkpt>
<trkpt lat="46.15672602" lon="6.00090908"><ele>424.078735</ele><time>2009-10-19T11:11:20Z</time></trkpt>
<trkpt lat="46.15671529" lon="6.00099566"><ele>424.078735</ele><time>2009-10-19T11:11:21Z</time></trkpt>
<trkpt lat="46.15670532" lon="6.00108426"><ele>424.078735</ele><time>2009-10-19T11:11:22Z</time></trkpt>
<trkpt lat="46.15669769" lon="6.00117085"><ele>423.598022</ele><time>2009-10-19T11:11:23Z</time></trkpt>
<trkpt lat="46.15668898" lon="6.00125659"><ele>423.117432</ele><time>2009-10-19T11:11:24Z</time></trkpt>
<trkpt lat="46.15668302" lon="6.00134125"><ele>423.117432</ele><time>2009-10-19T11:11:25Z</time></trkpt>
<trkpt lat="46.15667724" lon="6.00142398"><ele>422.636719</ele><time>2009-10-19T11:11:26Z</time></trkpt>
<trkpt lat="46.15667615" lon="6.00150403"><ele>422.636719</ele><time>2009-10-19T11:11:27Z</time></trkpt>
<trkpt lat="46.15667732" lon="6.00158717"><ele>423.117432</ele><time>2009-10-19T11:11:28Z</time></trkpt>
<trkpt lat="46.15667942" lon="6.00167116"><ele>423.117432</ele><time>2009-10-19T11:11:29Z</time></trkpt>
<trkpt lat="46.15668336" lon="6.00175439"><ele>422.636719</ele><time>2009-10-19T11:11:30Z</time></trkpt>
<trkpt lat="46.15668537" lon="6.00183779"><ele>423.117432</ele><time>2009-10-19T11:11:31Z</time></trkpt>
<trkpt lat="46.15668009" lon="6.00191994"><ele>423.117432</ele><time>2009-10-19T11:11:32Z</time></trkpt>
<trkpt lat="46.15666928" lon="6.00200032"><ele>423.598022</ele><time>2009-10-19T11:11:33Z</time></trkpt>
<trkpt lat="46.15665486" lon="6.00207785"><ele>423.598022</ele><time>2009-10-19T11:11:34Z</time></trkpt>
<trkpt lat="46.15663726" lon="6.00215337"><ele>423.598022</ele><time>2009-10-19T11:11:35Z</time></trkpt>
<trkpt lat="46.15661622" lon="6.00222613"><ele>423.598022</ele><time>2009-10-19T11:11:36Z</time></trkpt>
<trkpt lat="46.15659309" lon="6.00229494"><ele>424.078735</ele><time>2009-10-19T11:11:37Z</time></trkpt>
<trkpt lat="46.15656593" lon="6.00235663"><ele>424.078735</ele><time>2009-10-19T11:11:38Z</time></trkpt>
<trkpt lat="46.15653626" lon="6.00241103"><ele>424.559448</ele><time>2009-10-19T11:11:39Z</time></trkpt>
<trkpt lat="46.15650139" lon="6.00246199"><ele>425.040161</ele><time>2009-10-19T11:11:40Z</time></trkpt>
<trkpt lat="46.15646945" lon="6.00250524"><ele>425.520752</ele><time>2009-10-19T11:11:41Z</time></trkpt>
<trkpt lat="46.15643794" lon="6.00254489"><ele>426.001343</ele><time>2009-10-19T11:11:42Z</time></trkpt>
<trkpt lat="46.15640927" lon="6.00257926"><ele>426.482056</ele><time>2009-10-19T11:11:43Z</time></trkpt>
<trkpt lat="46.15638513" lon="6.00260834"><ele>426.962769</ele><time>2009-10-19T11:11:44Z</time></trkpt>
<trkpt lat="46.15636879" lon="6.00264103"><ele>426.962769</ele><time>2009-10-19T11:11:45Z</time></trkpt>
<trkpt lat="46.15636594" lon="6.00268629"><ele>427.92395</ele><time>2009-10-19T11:11:46Z</time></trkpt>
<trkpt lat="46.15637884" lon="6.00274069"><ele>427.92395</ele><time>2009-10-19T11:11:47Z</time></trkpt>
<trkpt lat="46.15639754" lon="6.00280087"><ele>427.92395</ele><time>2009-10-19T11:11:48Z</time></trkpt>
<trkpt lat="46.15641606" lon="6.00286986"><ele>428.404663</ele><time>2009-10-19T11:11:49Z</time></trkpt>
<trkpt lat="46.15643593" lon="6.00294320"><ele>428.885376</ele><time>2009-10-19T11:11:50Z</time></trkpt>
<trkpt lat="46.15645805" lon="6.00301822"><ele>428.885376</ele><time>2009-10-19T11:11:51Z</time></trkpt>
<trkpt lat="46.15648278" lon="6.00309307"><ele>429.365967</ele><time>2009-10-19T11:11:52Z</time></trkpt>
<trkpt lat="46.15650969" lon="6.00316515"><ele>429.365967</ele><time>2009-10-19T11:11:53Z</time></trkpt>
<trkpt lat="46.15653659" lon="6.00323615"><ele>429.846558</ele><time>2009-10-19T11:11:54Z</time></trkpt>
<trkpt lat="46.15656333" lon="6.00330647"><ele>429.846558</ele><time>2009-10-19T11:11:55Z</time></trkpt>
<trkpt lat="46.15659082" lon="6.00337554"><ele>429.846558</ele><time>2009-10-19T11:11:56Z</time></trkpt>
<trkpt lat="46.15661865" lon="6.00344385"><ele>430.327271</ele><time>2009-10-19T11:11:57Z</time></trkpt>
<trkpt lat="46.15664598" lon="6.00351174"><ele>430.327271</ele><time>2009-10-19T11:11:58Z</time></trkpt>
<trkpt lat="46.15667288" lon="6.00357964"><ele>430.807983</ele><time>2009-10-19T11:11:59Z</time></trkpt>
<trkpt lat="46.15669987" lon="6.00364778"><ele>430.807983</ele><time>2009-10-19T11:12:00Z</time></trkpt>
<trkpt lat="46.15672728" lon="6.00371593"><ele>430.807983</ele><time>2009-10-19T11:12:01Z</time></trkpt>
<trkpt lat="46.15675486" lon="6.00378483"><ele>430.807983</ele><time>2009-10-19T11:12:02Z</time></trkpt>
<trkpt lat="46.15678277" lon="6.00385398"><ele>431.288574</ele><time>2009-10-19T11:12:03Z</time></trkpt>
<trkpt lat="46.15681076" lon="6.00392237"><ele>431.288574</ele><time>2009-10-19T11:12:04Z</time></trkpt>
<trkpt lat="46.15683859" lon="6.00399010"><ele>431.288574</ele><time>2009-10-19T11:12:05Z</time></trkpt>
<trkpt lat="46.15686608" lon="6.00405749"><ele>431.288574</ele><time>2009-10-19T11:12:06Z</time></trkpt>
<trkpt lat="46.15689375" lon="6.00412404"><ele>431.769165</ele><time>2009-10-19T11:12:07Z</time></trkpt>
<trkpt lat="46.15692124" lon="6.00418992"><ele>431.769165</ele><time>2009-10-19T11:12:08Z</time></trkpt>
<trkpt lat="46.15694814" lon="6.00425564"><ele>431.769165</ele><time>2009-10-19T11:12:09Z</time></trkpt>
<trkpt lat="46.15697538" lon="6.00432135"><ele>431.769165</ele><time>2009-10-19T11:12:10Z</time></trkpt>
<trkpt lat="46.15700288" lon="6.00438707"><ele>432.25</ele><time>2009-10-19T11:12:11Z</time></trkpt>
<trkpt lat="46.15703045" lon="6.00445244"><ele>432.25</ele><time>2009-10-19T11:12:12Z</time></trkpt>
<trkpt lat="46.15705862" lon="6.00451372"><ele>431.769165</ele><time>2009-10-19T11:12:13Z</time></trkpt>
<trkpt lat="46.15708628" lon="6.00457549"><ele>431.288574</ele><time>2009-10-19T11:12:14Z</time></trkpt>
<trkpt lat="46.15711310" lon="6.00464062"><ele>431.288574</ele><time>2009-10-19T11:12:15Z</time></trkpt>
<trkpt lat="46.15714017" lon="6.00470474"><ele>431.769165</ele><time>2009-10-19T11:12:16Z</time></trkpt>
<trkpt lat="46.15716708" lon="6.00476836"><ele>431.769165</ele><time>2009-10-19T11:12:17Z</time></trkpt>
<trkpt lat="46.15719373" lon="6.00483265"><ele>431.769165</ele><time>2009-10-19T11:12:18Z</time></trkpt>
<trkpt lat="46.15722114" lon="6.00489744"><ele>431.769165</ele><time>2009-10-19T11:12:19Z</time></trkpt>
<trkpt lat="46.15724939" lon="6.00496332"><ele>432.25</ele><time>2009-10-19T11:12:20Z</time></trkpt>
<trkpt lat="46.15727722" lon="6.00503054"><ele>432.25</ele><time>2009-10-19T11:12:21Z</time></trkpt>
<trkpt lat="46.15730563" lon="6.00509685"><ele>432.25</ele><time>2009-10-19T11:12:22Z</time></trkpt>
<trkpt lat="46.15733413" lon="6.00516273"><ele>432.730713</ele><time>2009-10-19T11:12:23Z</time></trkpt>
<trkpt lat="46.15736196" lon="6.00522844"><ele>432.730713</ele><time>2009-10-19T11:12:24Z</time></trkpt>
<trkpt lat="46.15738962" lon="6.00529332"><ele>432.730713</ele><time>2009-10-19T11:12:25Z</time></trkpt>
<trkpt lat="46.15741719" lon="6.00535886"><ele>432.730713</ele><time>2009-10-19T11:12:26Z</time></trkpt>
<trkpt lat="46.15744402" lon="6.00542424"><ele>433.211304</ele><time>2009-10-19T11:12:27Z</time></trkpt>
<trkpt lat="46.15747117" lon="6.00548895"><ele>433.211304</ele><time>2009-10-19T11:12:28Z</time></trkpt>
<trkpt lat="46.15749867" lon="6.00555307"><ele>433.211304</ele><time>2009-10-19T11:12:29Z</time></trkpt>
<trkpt lat="46.15752582" lon="6.00561694"><ele>433.211304</ele><time>2009-10-19T11:12:30Z</time></trkpt>
<trkpt lat="46.15755206" lon="6.00568023"><ele>433.211304</ele><time>2009-10-19T11:12:31Z</time></trkpt>
<trkpt lat="46.15757813" lon="6.00574133"><ele>433.691895</ele><time>2009-10-19T11:12:32Z</time></trkpt>
<trkpt lat="46.15760352" lon="6.00579933"><ele>433.691895</ele><time>2009-10-19T11:12:33Z</time></trkpt>
<trkpt lat="46.15762817" lon="6.00585323"><ele>433.691895</ele><time>2009-10-19T11:12:34Z</time></trkpt>
<trkpt lat="46.15765943" lon="6.00589153"><ele>433.691895</ele><time>2009-10-19T11:12:35Z</time></trkpt>
<trkpt lat="46.15769799" lon="6.00589832"><ele>434.172607</ele><time>2009-10-19T11:12:36Z</time></trkpt>
<trkpt lat="46.15773344" lon="6.00587779"><ele>434.172607</ele><time>2009-10-19T11:12:37Z</time></trkpt>
<trkpt lat="46.15776697" lon="6.00584770"><ele>434.172607</ele><time>2009-10-19T11:12:38Z</time></trkpt>
<trkpt lat="46.15780125" lon="6.00581484"><ele>434.172607</ele><time>2009-10-19T11:12:39Z</time></trkpt>
<trkpt lat="46.15783679" lon="6.00577989"><ele>434.65332</ele><time>2009-10-19T11:12:40Z</time></trkpt>
<trkpt lat="46.15787334" lon="6.00574309"><ele>434.65332</ele><time>2009-10-19T11:12:41Z</time></trkpt>
<trkpt lat="46.15790946" lon="6.00570202"><ele>434.65332</ele><time>2009-10-19T11:12:42Z</time></trkpt>
<trkpt lat="46.15794492" lon="6.00565885"><ele>434.65332</ele><time>2009-10-19T11:12:43Z</time></trkpt>
<trkpt lat="46.15797987" lon="6.00561569"><ele>434.65332</ele><time>2009-10-19T11:12:44Z</time></trkpt>
<trkpt lat="46.15801524" lon="6.00557252"><ele>434.65332</ele><time>2009-10-19T11:12:45Z</time></trkpt>
<trkpt lat="46.15805103" lon="6.00552868"><ele>434.65332</ele><time>2009-10-19T11:12:46Z</time></trkpt>
<trkpt lat="46.15808423" lon="6.00547965"><ele>434.65332</ele><time>2009-10-19T11:12:47Z</time></trkpt>
<trkpt lat="46.15811549" lon="6.00542827"><ele>434.65332</ele><time>2009-10-19T11:12:48Z</time></trkpt>
<trkpt lat="46.15814919" lon="6.00537982"><ele>434.65332</ele><time>2009-10-19T11:12:49Z</time></trkpt>
<trkpt lat="46.15818473" lon="6.00533506"><ele>434.65332</ele><time>2009-10-19T11:12:50Z</time></trkpt>
<trkpt lat="46.15822077" lon="6.00529240"><ele>435.133911</ele><time>2009-10-19T11:12:51Z</time></trkpt>
<trkpt lat="46.15825589" lon="6.00524923"><ele>435.133911</ele><time>2009-10-19T11:12:52Z</time></trkpt>
<trkpt lat="46.15828992" lon="6.00520472"><ele>435.133911</ele><time>2009-10-19T11:12:53Z</time></trkpt>
<trkpt lat="46.15832378" lon="6.00515963"><ele>435.133911</ele><time>2009-10-19T11:12:54Z</time></trkpt>
<trkpt lat="46.15835748" lon="6.00511386"><ele>435.614502</ele><time>2009-10-19T11:12:55Z</time></trkpt>
<trkpt lat="46.15839092" lon="6.00506843"><ele>435.614502</ele><time>2009-10-19T11:12:56Z</time></trkpt>
<trkpt lat="46.15842487" lon="6.00502468"><ele>435.614502</ele><time>2009-10-19T11:12:57Z</time></trkpt>
<trkpt lat="46.15845915" lon="6.00498159"><ele>435.614502</ele><time>2009-10-19T11:12:58Z</time></trkpt>
<trkpt lat="46.15849360" lon="6.00493868"><ele>436.095215</ele><time>2009-10-19T11:12:59Z</time></trkpt>
<trkpt lat="46.15852838" lon="6.00489635"><ele>436.095215</ele><time>2009-10-19T11:13:00Z</time></trkpt>
<trkpt lat="46.15856359" lon="6.00485452"><ele>436.095215</ele><time>2009-10-19T11:13:01Z</time></trkpt>
<trkpt lat="46.15860055" lon="6.00481689"><ele>436.095215</ele><time>2009-10-19T11:13:02Z</time></trkpt>
<trkpt lat="46.15863752" lon="6.00477833"><ele>436.095215</ele><time>2009-10-19T11:13:03Z</time></trkpt>
<trkpt lat="46.15867155" lon="6.00473165"><ele>436.095215</ele><time>2009-10-19T11:13:04Z</time></trkpt>
<trkpt lat="46.15870466" lon="6.00468278"><ele>436.095215</ele><time>2009-10-19T11:13:05Z</time></trkpt>
<trkpt lat="46.15874078" lon="6.00464020"><ele>436.095215</ele><time>2009-10-19T11:13:06Z</time></trkpt>
<trkpt lat="46.15877892" lon="6.00460240"><ele>436.095215</ele><time>2009-10-19T11:13:07Z</time></trkpt>
<trkpt lat="46.15881504" lon="6.00456392"><ele>436.095215</ele><time>2009-10-19T11:13:08Z</time></trkpt>
<trkpt lat="46.15884908" lon="6.00452352"><ele>436.095215</ele><time>2009-10-19T11:13:09Z</time></trkpt>
<trkpt lat="46.15888235" lon="6.00448086"><ele>436.095215</ele><time>2009-10-19T11:13:10Z</time></trkpt>
<trkpt lat="46.15891580" lon="6.00443644"><ele>436.575928</ele><time>2009-10-19T11:13:11Z</time></trkpt>
<trkpt lat="46.15894916" lon="6.00439067"><ele>436.575928</ele><time>2009-10-19T11:13:12Z</time></trkpt>
<trkpt lat="46.15898226" lon="6.00434256"><ele>436.575928</ele><time>2009-10-19T11:13:13Z</time></trkpt>
<trkpt lat="46.15901613" lon="6.00429436"><ele>436.575928</ele><time>2009-10-19T11:13:14Z</time></trkpt>
<trkpt lat="46.15905158" lon="6.00424726"><ele>436.575928</ele><time>2009-10-19T11:13:15Z</time></trkpt>
<trkpt lat="46.15908838" lon="6.00420174"><ele>436.575928</ele><time>2009-10-19T11:13:16Z</time></trkpt>
<trkpt lat="46.15912635" lon="6.00415698"><ele>436.575928</ele><time>2009-10-19T11:13:17Z</time></trkpt>
<trkpt lat="46.15916423" lon="6.00411055"><ele>436.575928</ele><time>2009-10-19T11:13:18Z</time></trkpt>
<trkpt lat="46.15920153" lon="6.00406243"><ele>436.575928</ele><time>2009-10-19T11:13:19Z</time></trkpt>
<trkpt lat="46.15923875" lon="6.00401365"><ele>436.575928</ele><time>2009-10-19T11:13:20Z</time></trkpt>
<trkpt lat="46.15927597" lon="6.00396437"><ele>436.575928</ele><time>2009-10-19T11:13:21Z</time></trkpt>
<trkpt lat="46.15931327" lon="6.00391382"><ele>436.095215</ele><time>2009-10-19T11:13:22Z</time></trkpt>
<trkpt lat="46.15935107" lon="6.00386345"><ele>436.095215</ele><time>2009-10-19T11:13:23Z</time></trkpt>
<trkpt lat="46.15939004" lon="6.00381458"><ele>436.095215</ele><time>2009-10-19T11:13:24Z</time></trkpt>
<trkpt lat="46.15943070" lon="6.00376857"><ele>436.095215</ele><time>2009-10-19T11:13:25Z</time></trkpt>
<trkpt lat="46.15947369" lon="6.00372674"><ele>436.095215</ele><time>2009-10-19T11:13:26Z</time></trkpt>
<trkpt lat="46.15952038" lon="6.00369338"><ele>436.095215</ele><time>2009-10-19T11:13:27Z</time></trkpt>
<trkpt lat="46.15956866" lon="6.00367318"><ele>436.095215</ele><time>2009-10-19T11:13:28Z</time></trkpt>
<trkpt lat="46.15961719" lon="6.00366924"><ele>436.095215</ele><time>2009-10-19T11:13:29Z</time></trkpt>
<trkpt lat="46.15966380" lon="6.00368349"><ele>435.614502</ele><time>2009-10-19T11:13:30Z</time></trkpt>
<trkpt lat="46.15970923" lon="6.00371215"><ele>435.614502</ele><time>2009-10-19T11:13:31Z</time></trkpt>
<trkpt lat="46.15975189" lon="6.00374895"><ele>435.614502</ele><time>2009-10-19T11:13:32Z</time></trkpt>
<trkpt lat="46.15979229" lon="6.00378885"><ele>435.614502</ele><time>2009-10-19T11:13:33Z</time></trkpt>
<trkpt lat="46.15983118" lon="6.00383185"><ele>435.133911</ele><time>2009-10-19T11:13:34Z</time></trkpt>
<trkpt lat="46.15986982" lon="6.00387594"><ele>435.133911</ele><time>2009-10-19T11:13:35Z</time></trkpt>
<trkpt lat="46.15990997" lon="6.00391793"><ele>435.133911</ele><time>2009-10-19T11:13:36Z</time></trkpt>
<trkpt lat="46.15994937" lon="6.00396118"><ele>435.614502</ele><time>2009-10-19T11:13:37Z</time></trkpt>
<trkpt lat="46.15998759" lon="6.00400468"><ele>435.614502</ele><time>2009-10-19T11:13:38Z</time></trkpt>
<trkpt lat="46.16002615" lon="6.00404575"><ele>435.614502</ele><time>2009-10-19T11:13:39Z</time></trkpt>
<trkpt lat="46.16006454" lon="6.00408607"><ele>435.614502</ele><time>2009-10-19T11:13:40Z</time></trkpt>
<trkpt lat="46.16010284" lon="6.00412547"><ele>435.614502</ele><time>2009-10-19T11:13:41Z</time></trkpt>
<trkpt lat="46.16014148" lon="6.00416495"><ele>435.614502</ele><time>2009-10-19T11:13:42Z</time></trkpt>
<trkpt lat="46.16017937" lon="6.00420618"><ele>435.614502</ele><time>2009-10-19T11:13:43Z</time></trkpt>
<trkpt lat="46.16021876" lon="6.00424709"><ele>435.614502</ele><time>2009-10-19T11:13:44Z</time></trkpt>
<trkpt lat="46.16025958" lon="6.00428464"><ele>435.614502</ele><time>2009-10-19T11:13:45Z</time></trkpt>
<trkpt lat="46.16030124" lon="6.00431859"><ele>435.614502</ele><time>2009-10-19T11:13:46Z</time></trkpt>
<trkpt lat="46.16034365" lon="6.00434817"><ele>435.614502</ele><time>2009-10-19T11:13:47Z</time></trkpt>
<trkpt lat="46.16038724" lon="6.00437550"><ele>436.095215</ele><time>2009-10-19T11:13:48Z</time></trkpt>
<trkpt lat="46.16043074" lon="6.00440333"><ele>436.095215</ele><time>2009-10-19T11:13:49Z</time></trkpt>
<trkpt lat="46.16047374" lon="6.00443342"><ele>436.095215</ele><time>2009-10-19T11:13:50Z</time></trkpt>
<trkpt lat="46.16051766" lon="6.00446234"><ele>436.095215</ele><time>2009-10-19T11:13:51Z</time></trkpt>
<trkpt lat="46.16056267" lon="6.00448756"><ele>436.095215</ele><time>2009-10-19T11:13:52Z</time></trkpt>
<trkpt lat="46.16060827" lon="6.00450994"><ele>436.095215</ele><time>2009-10-19T11:13:53Z</time></trkpt>
<trkpt lat="46.16065395" lon="6.00452897"><ele>436.095215</ele><time>2009-10-19T11:13:54Z</time></trkpt>
<trkpt lat="46.16070013" lon="6.00454406"><ele>436.095215</ele><time>2009-10-19T11:13:55Z</time></trkpt>
<trkpt lat="46.16074624" lon="6.00455412"><ele>436.095215</ele><time>2009-10-19T11:13:56Z</time></trkpt>
<trkpt lat="46.16079208" lon="6.00456183"><ele>436.095215</ele><time>2009-10-19T11:13:57Z</time></trkpt>
<trkpt lat="46.16083710" lon="6.00457004"><ele>436.095215</ele><time>2009-10-19T11:13:58Z</time></trkpt>
<trkpt lat="46.16088194" lon="6.00457717"><ele>436.095215</ele><time>2009-10-19T11:13:59Z</time></trkpt>
<trkpt lat="46.16092687" lon="6.00458086"><ele>436.095215</ele><time>2009-10-19T11:14:00Z</time></trkpt>
<trkpt lat="46.16097179" lon="6.00458186"><ele>436.095215</ele><time>2009-10-19T11:14:01Z</time></trkpt>
<trkpt lat="46.16101664" lon="6.00458077"><ele>436.095215</ele><time>2009-10-19T11:14:02Z</time></trkpt>
<trkpt lat="46.16106123" lon="6.00457859"><ele>436.095215</ele><time>2009-10-19T11:14:03Z</time></trkpt>
<trkpt lat="46.16110506" lon="6.00457306"><ele>436.095215</ele><time>2009-10-19T11:14:04Z</time></trkpt>
<trkpt lat="46.16114815" lon="6.00456267"><ele>436.095215</ele><time>2009-10-19T11:14:05Z</time></trkpt>
<trkpt lat="46.16119123" lon="6.00454842"><ele>436.095215</ele><time>2009-10-19T11:14:06Z</time></trkpt>
<trkpt lat="46.16123373" lon="6.00452822"><ele>436.095215</ele><time>2009-10-19T11:14:07Z</time></trkpt>
<trkpt lat="46.16127488" lon="6.00450056"><ele>436.095215</ele><time>2009-10-19T11:14:08Z</time></trkpt>
<trkpt lat="46.16131344" lon="6.00446477"><ele>436.095215</ele><time>2009-10-19T11:14:09Z</time></trkpt>
<trkpt lat="46.16134889" lon="6.00442135"><ele>436.095215</ele><time>2009-10-19T11:14:10Z</time></trkpt>
<trkpt lat="46.16138066" lon="6.00437215"><ele>435.614502</ele><time>2009-10-19T11:14:11Z</time></trkpt>
<trkpt lat="46.16140966" lon="6.00431959"><ele>435.614502</ele><time>2009-10-19T11:14:12Z</time></trkpt>
<trkpt lat="46.16143682" lon="6.00426419"><ele>435.614502</ele><time>2009-10-19T11:14:13Z</time></trkpt>
<trkpt lat="46.16146264" lon="6.00420702"><ele>435.614502</ele><time>2009-10-19T11:14:14Z</time></trkpt>
<trkpt lat="46.16148728" lon="6.00414902"><ele>435.614502</ele><time>2009-10-19T11:14:15Z</time></trkpt>
<trkpt lat="46.16151016" lon="6.00408959"><ele>435.614502</ele><time>2009-10-19T11:14:16Z</time></trkpt>
<trkpt lat="46.16153263" lon="6.00403016"><ele>435.614502</ele><time>2009-10-19T11:14:17Z</time></trkpt>
<trkpt lat="46.16155517" lon="6.00397065"><ele>435.614502</ele><time>2009-10-19T11:14:18Z</time></trkpt>
<trkpt lat="46.16157856" lon="6.00391005"><ele>435.614502</ele><time>2009-10-19T11:14:19Z</time></trkpt>
<trkpt lat="46.16160228" lon="6.00384962"><ele>435.614502</ele><time>2009-10-19T11:14:20Z</time></trkpt>
<trkpt lat="46.16162675" lon="6.00379053"><ele>435.614502</ele><time>2009-10-19T11:14:21Z</time></trkpt>
<trkpt lat="46.16165198" lon="6.00373244"><ele>435.614502</ele><time>2009-10-19T11:14:22Z</time></trkpt>
<trkpt lat="46.16167688" lon="6.00367360"><ele>435.614502</ele><time>2009-10-19T11:14:23Z</time></trkpt>
<trkpt lat="46.16170395" lon="6.00361526"><ele>435.614502</ele><time>2009-10-19T11:14:24Z</time></trkpt>
<trkpt lat="46.16173312" lon="6.00355927"><ele>435.614502</ele><time>2009-10-19T11:14:25Z</time></trkpt>
<trkpt lat="46.16176598" lon="6.00350604"><ele>435.614502</ele><time>2009-10-19T11:14:26Z</time></trkpt>
<trkpt lat="46.16180328" lon="6.00345793"><ele>435.614502</ele><time>2009-10-19T11:14:27Z</time></trkpt>
<trkpt lat="46.16184326" lon="6.00341552"><ele>435.614502</ele><time>2009-10-19T11:14:28Z</time></trkpt>
<trkpt lat="46.16188517" lon="6.00337353"><ele>435.614502</ele><time>2009-10-19T11:14:29Z</time></trkpt>
<trkpt lat="46.16192658" lon="6.00333363"><ele>435.133911</ele><time>2009-10-19T11:14:30Z</time></trkpt>
<trkpt lat="46.16196899" lon="6.00329549"><ele>434.65332</ele><time>2009-10-19T11:14:31Z</time></trkpt>
<trkpt lat="46.16201224" lon="6.00326163"><ele>434.65332</ele><time>2009-10-19T11:14:32Z</time></trkpt>
<trkpt lat="46.16205515" lon="6.00322718"><ele>434.65332</ele><time>2009-10-19T11:14:33Z</time></trkpt>
<trkpt lat="46.16209639" lon="6.00319097"><ele>434.65332</ele><time>2009-10-19T11:14:34Z</time></trkpt>
<trkpt lat="46.16213512" lon="6.00315216"><ele>434.65332</ele><time>2009-10-19T11:14:35Z</time></trkpt>
<trkpt lat="46.16217133" lon="6.00311344"><ele>434.65332</ele><time>2009-10-19T11:14:36Z</time></trkpt>
<trkpt lat="46.16220569" lon="6.00307873"><ele>434.65332</ele><time>2009-10-19T11:14:37Z</time></trkpt>
<trkpt lat="46.16224257" lon="6.00304906"><ele>434.65332</ele><time>2009-10-19T11:14:38Z</time></trkpt>
<trkpt lat="46.16227887" lon="6.00302216"><ele>434.65332</ele><time>2009-10-19T11:14:39Z</time></trkpt>
<trkpt lat="46.16231298" lon="6.00299902"><ele>434.65332</ele><time>2009-10-19T11:14:40Z</time></trkpt>
<trkpt lat="46.16234425" lon="6.00298067"><ele>434.172607</ele><time>2009-10-19T11:14:41Z</time></trkpt>
<trkpt lat="46.16237325" lon="6.00296365"><ele>434.172607</ele><time>2009-10-19T11:14:42Z</time></trkpt>
<trkpt lat="46.16240099" lon="6.00295192"><ele>434.172607</ele><time>2009-10-19T11:14:43Z</time></trkpt>
<trkpt lat="46.16242765" lon="6.00294563"><ele>434.172607</ele><time>2009-10-19T11:14:44Z</time></trkpt>
<trkpt lat="46.16244986" lon="6.00294504"><ele>433.691895</ele><time>2009-10-19T11:14:45Z</time></trkpt>
<trkpt lat="46.16246394" lon="6.00294613"><ele>433.691895</ele><time>2009-10-19T11:14:46Z</time></trkpt>
<trkpt lat="46.16246972" lon="6.00294462"><ele>433.691895</ele><time>2009-10-19T11:14:47Z</time></trkpt>
<trkpt lat="46.16247056" lon="6.00294638"><ele>433.691895</ele><time>2009-10-19T11:14:48Z</time></trkpt>
<trkpt lat="46.16247056" lon="6.00294957"><ele>434.172607</ele><time>2009-10-19T11:14:49Z</time></trkpt>
<trkpt lat="46.16247157" lon="6.00295108"><ele>434.172607</ele><time>2009-10-19T11:14:50Z</time></trkpt>
<trkpt lat="46.16247165" lon="6.00295150"><ele>434.172607</ele><time>2009-10-19T11:14:51Z</time></trkpt>
<trkpt lat="46.16247140" lon="6.00295074"><ele>434.172607</ele><time>2009-10-19T11:14:52Z</time></trkpt>
<trkpt lat="46.16247106" lon="6.00295083"><ele>434.172607</ele><time>2009-10-19T11:14:53Z</time></trkpt>
<trkpt lat="46.16247056" lon="6.00294965"><ele>434.172607</ele><time>2009-10-19T11:14:54Z</time></trkpt>
<trkpt lat="46.16247098" lon="6.00294873"><ele>434.172607</ele><time>2009-10-19T11:14:55Z</time></trkpt>
<trkpt lat="46.16247123" lon="6.00294907"><ele>433.691895</ele><time>2009-10-19T11:14:56Z</time></trkpt>
<trkpt lat="46.16247106" lon="6.00294898"><ele>433.691895</ele><time>2009-10-19T11:14:57Z</time></trkpt>
<trkpt lat="46.16247064" lon="6.00294814"><ele>433.691895</ele><time>2009-10-19T11:14:58Z</time></trkpt>
<trkpt lat="46.16247006" lon="6.00294798"><ele>433.691895</ele><time>2009-10-19T11:14:59Z</time></trkpt>
<trkpt lat="46.16246955" lon="6.00294856"><ele>433.691895</ele><time>2009-10-19T11:15:00Z</time></trkpt>
<trkpt lat="46.16246897" lon="6.00294932"><ele>433.211304</ele><time>2009-10-19T11:15:01Z</time></trkpt>
<trkpt lat="46.16246847" lon="6.00294957"><ele>433.211304</ele><time>2009-10-19T11:15:02Z</time></trkpt>
<trkpt lat="46.16246838" lon="6.00295024"><ele>433.211304</ele><time>2009-10-19T11:15:03Z</time></trkpt>
<trkpt lat="46.16246838" lon="6.00295049"><ele>433.211304</ele><time>2009-10-19T11:15:04Z</time></trkpt>
<trkpt lat="46.16246796" lon="6.00295049"><ele>432.730713</ele><time>2009-10-19T11:15:05Z</time></trkpt>
<trkpt lat="46.16246738" lon="6.00295066"><ele>432.730713</ele><time>2009-10-19T11:15:06Z</time></trkpt>
<trkpt lat="46.16246662" lon="6.00294999"><ele>432.730713</ele><time>2009-10-19T11:15:07Z</time></trkpt>
<trkpt lat="46.16246570" lon="6.00294957"><ele>432.730713</ele><time>2009-10-19T11:15:08Z</time></trkpt>
<trkpt lat="46.16246469" lon="6.00295007"><ele>432.730713</ele><time>2009-10-19T11:15:09Z</time></trkpt>
<trkpt lat="46.16246335" lon="6.00295032"><ele>432.730713</ele><time>2009-10-19T11:15:10Z</time></trkpt>
<trkpt lat="46.16246285" lon="6.00295074"><ele>432.730713</ele><time>2009-10-19T11:15:11Z</time></trkpt>
<trkpt lat="46.16246235" lon="6.00295125"><ele>432.25</ele><time>2009-10-19T11:15:12Z</time></trkpt>
<trkpt lat="46.16246226" lon="6.00295125"><ele>432.25</ele><time>2009-10-19T11:15:13Z</time></trkpt>
<trkpt lat="46.16246226" lon="6.00295166"><ele>431.769165</ele><time>2009-10-19T11:15:14Z</time></trkpt>
<trkpt lat="46.16246243" lon="6.00295225"><ele>431.769165</ele><time>2009-10-19T11:15:15Z</time></trkpt>
<trkpt lat="46.16246260" lon="6.00295284"><ele>431.288574</ele><time>2009-10-19T11:15:16Z</time></trkpt>
<trkpt lat="46.16246293" lon="6.00295309"><ele>431.288574</ele><time>2009-10-19T11:15:17Z</time></trkpt>
<trkpt lat="46.16246327" lon="6.00295376"><ele>430.807983</ele><time>2009-10-19T11:15:18Z</time></trkpt>
<trkpt lat="46.16246344" lon="6.00295426"><ele>430.807983</ele><time>2009-10-19T11:15:19Z</time></trkpt>
<trkpt lat="46.16246352" lon="6.00295443"><ele>430.807983</ele><time>2009-10-19T11:15:20Z</time></trkpt>
<trkpt lat="46.16246327" lon="6.00295519"><ele>430.327271</ele><time>2009-10-19T11:15:21Z</time></trkpt>
<trkpt lat="46.16246268" lon="6.00295544"><ele>430.327271</ele><time>2009-10-19T11:15:22Z</time></trkpt>
<trkpt lat="46.16246209" lon="6.00295594"><ele>430.327271</ele><time>2009-10-19T11:15:23Z</time></trkpt>
<trkpt lat="46.16246142" lon="6.00295669"><ele>430.327271</ele><time>2009-10-19T11:15:24Z</time></trkpt>
<trkpt lat="46.16246067" lon="6.00295720"><ele>430.327271</ele><time>2009-10-19T11:15:25Z</time></trkpt>
<trkpt lat="46.16245975" lon="6.00295795"><ele>430.327271</ele><time>2009-10-19T11:15:26Z</time></trkpt>
<trkpt lat="46.16245899" lon="6.00295904"><ele>430.807983</ele><time>2009-10-19T11:15:27Z</time></trkpt>
<trkpt lat="46.16245824" lon="6.00296047"><ele>430.807983</ele><time>2009-10-19T11:15:28Z</time></trkpt>
<trkpt lat="46.16245799" lon="6.00296449"><ele>430.807983</ele><time>2009-10-19T11:15:29Z</time></trkpt>
<trkpt lat="46.16245748" lon="6.00296457"><ele>430.807983</ele><time>2009-10-19T11:15:30Z</time></trkpt>
<trkpt lat="46.16245648" lon="6.00296047"><ele>430.807983</ele><time>2009-10-19T11:15:31Z</time></trkpt>
<trkpt lat="46.16245556" lon="6.00295829"><ele>431.288574</ele><time>2009-10-19T11:15:32Z</time></trkpt>
<trkpt lat="46.16245522" lon="6.00295678"><ele>431.288574</ele><time>2009-10-19T11:15:33Z</time></trkpt>
<trkpt lat="46.16245606" lon="6.00295393"><ele>431.769165</ele><time>2009-10-19T11:15:34Z</time></trkpt>
<trkpt lat="46.16245866" lon="6.00295024"><ele>431.769165</ele><time>2009-10-19T11:15:35Z</time></trkpt>
<trkpt lat="46.16246486" lon="6.00294647"><ele>431.769165</ele><time>2009-10-19T11:15:36Z</time></trkpt>
<trkpt lat="46.16246939" lon="6.00294353"><ele>431.769165</ele><time>2009-10-19T11:15:37Z</time></trkpt>
<trkpt lat="46.16247257" lon="6.00294043"><ele>431.769165</ele><time>2009-10-19T11:15:38Z</time></trkpt>
<trkpt lat="46.16247676" lon="6.00294068"><ele>431.769165</ele><time>2009-10-19T11:15:39Z</time></trkpt>
<trkpt lat="46.16248875" lon="6.00294228"><ele>431.769165</ele><time>2009-10-19T11:15:40Z</time></trkpt>
<trkpt lat="46.16250493" lon="6.00294655"><ele>432.25</ele><time>2009-10-19T11:15:41Z</time></trkpt>
<trkpt lat="46.16252454" lon="6.00295627"><ele>432.25</ele><time>2009-10-19T11:15:42Z</time></trkpt>
<trkpt lat="46.16255002" lon="6.00297178"><ele>432.25</ele><time>2009-10-19T11:15:43Z</time></trkpt>
<trkpt lat="46.16257927" lon="6.00299173"><ele>432.25</ele><time>2009-10-19T11:15:44Z</time></trkpt>
<trkpt lat="46.16261154" lon="6.00301579"><ele>432.25</ele><time>2009-10-19T11:15:45Z</time></trkpt>
<trkpt lat="46.16264725" lon="6.00304320"><ele>432.25</ele><time>2009-10-19T11:15:46Z</time></trkpt>
<trkpt lat="46.16268514" lon="6.00307270"><ele>432.730713</ele><time>2009-10-19T11:15:47Z</time></trkpt>
<trkpt lat="46.16272428" lon="6.00310396"><ele>432.730713</ele><time>2009-10-19T11:15:48Z</time></trkpt>
<trkpt lat="46.16275907" lon="6.00313598"><ele>433.211304</ele><time>2009-10-19T11:15:49Z</time></trkpt>
<trkpt lat="46.16279528" lon="6.00316876"><ele>433.211304</ele><time>2009-10-19T11:15:50Z</time></trkpt>
<trkpt lat="46.16283107" lon="6.00320145"><ele>433.691895</ele><time>2009-10-19T11:15:51Z</time></trkpt>
<trkpt lat="46.16286862" lon="6.00323590"><ele>433.691895</ele><time>2009-10-19T11:15:52Z</time></trkpt>
<trkpt lat="46.16290843" lon="6.00327135"><ele>433.691895</ele><time>2009-10-19T11:15:53Z</time></trkpt>
<trkpt lat="46.16294967" lon="6.00330823"><ele>434.172607</ele><time>2009-10-19T11:15:54Z</time></trkpt>
<trkpt lat="46.16299083" lon="6.00334696"><ele>434.172607</ele><time>2009-10-19T11:15:55Z</time></trkpt>
<trkpt lat="46.16303248" lon="6.00338493"><ele>434.172607</ele><time>2009-10-19T11:15:56Z</time></trkpt>
<trkpt lat="46.16307490" lon="6.00342290"><ele>434.172607</ele><time>2009-10-19T11:15:57Z</time></trkpt>
<trkpt lat="46.16311739" lon="6.00346237"><ele>434.172607</ele><time>2009-10-19T11:15:58Z</time></trkpt>
<trkpt lat="46.16316123" lon="6.00350152"><ele>434.65332</ele><time>2009-10-19T11:15:59Z</time></trkpt>
<trkpt lat="46.16320624" lon="6.00353966"><ele>434.172607</ele><time>2009-10-19T11:16:00Z</time></trkpt>
<trkpt lat="46.16325276" lon="6.00357704"><ele>434.65332</ele><time>2009-10-19T11:16:01Z</time></trkpt>
<trkpt lat="46.16330230" lon="6.00360923"><ele>434.65332</ele><time>2009-10-19T11:16:02Z</time></trkpt>
<trkpt lat="46.16335552" lon="6.00363219"><ele>434.65332</ele><time>2009-10-19T11:16:03Z</time></trkpt>
<trkpt lat="46.16341176" lon="6.00364367"><ele>434.172607</ele><time>2009-10-19T11:16:04Z</time></trkpt>
<trkpt lat="46.16347019" lon="6.00364359"><ele>434.172607</ele><time>2009-10-19T11:16:05Z</time></trkpt>
<trkpt lat="46.16352995" lon="6.00363387"><ele>434.172607</ele><time>2009-10-19T11:16:06Z</time></trkpt>
<trkpt lat="46.16359005" lon="6.00361870"><ele>434.172607</ele><time>2009-10-19T11:16:07Z</time></trkpt>
<trkpt lat="46.16365015" lon="6.00360009"><ele>434.172607</ele><time>2009-10-19T11:16:08Z</time></trkpt>
<trkpt lat="46.16371050" lon="6.00357737"><ele>433.691895</ele><time>2009-10-19T11:16:09Z</time></trkpt>
<trkpt lat="46.16377093" lon="6.00355365"><ele>433.691895</ele><time>2009-10-19T11:16:10Z</time></trkpt>
<trkpt lat="46.16383203" lon="6.00353044"><ele>433.691895</ele><time>2009-10-19T11:16:11Z</time></trkpt>
<trkpt lat="46.16389347" lon="6.00350747"><ele>433.691895</ele><time>2009-10-19T11:16:12Z</time></trkpt>
<trkpt lat="46.16395533" lon="6.00348475"><ele>433.691895</ele><time>2009-10-19T11:16:13Z</time></trkpt>
<trkpt lat="46.16401778" lon="6.00346154"><ele>433.211304</ele><time>2009-10-19T11:16:14Z</time></trkpt>
<trkpt lat="46.16408064" lon="6.00343815"><ele>433.211304</ele><time>2009-10-19T11:16:15Z</time></trkpt>
<trkpt lat="46.16414476" lon="6.00341485"><ele>433.211304</ele><time>2009-10-19T11:16:16Z</time></trkpt>
<trkpt lat="46.16420939" lon="6.00339155"><ele>432.730713</ele><time>2009-10-19T11:16:17Z</time></trkpt>
<trkpt lat="46.16427359" lon="6.00336816"><ele>432.730713</ele><time>2009-10-19T11:16:18Z</time></trkpt>
<trkpt lat="46.16433729" lon="6.00334478"><ele>432.730713</ele><time>2009-10-19T11:16:19Z</time></trkpt>
<trkpt lat="46.16440049" lon="6.00332139"><ele>432.730713</ele><time>2009-10-19T11:16:20Z</time></trkpt>
<trkpt lat="46.16446336" lon="6.00329842"><ele>432.730713</ele><time>2009-10-19T11:16:21Z</time></trkpt>
<trkpt lat="46.16452564" lon="6.00327680"><ele>432.25</ele><time>2009-10-19T11:16:22Z</time></trkpt>
<trkpt lat="46.16458716" lon="6.00325559"><ele>432.25</ele><time>2009-10-19T11:16:23Z</time></trkpt>
<trkpt lat="46.16464709" lon="6.00323539"><ele>432.25</ele><time>2009-10-19T11:16:24Z</time></trkpt>
<trkpt lat="46.16470685" lon="6.00321435"><ele>432.25</ele><time>2009-10-19T11:16:25Z</time></trkpt>
<trkpt lat="46.16476653" lon="6.00319407"><ele>432.25</ele><time>2009-10-19T11:16:26Z</time></trkpt>
<trkpt lat="46.16482504" lon="6.00317580"><ele>432.25</ele><time>2009-10-19T11:16:27Z</time></trkpt>
<trkpt lat="46.16488229" lon="6.00315727"><ele>432.25</ele><time>2009-10-19T11:16:28Z</time></trkpt>
<trkpt lat="46.16493844" lon="6.00313867"><ele>432.25</ele><time>2009-10-19T11:16:29Z</time></trkpt>
<trkpt lat="46.16499427" lon="6.00312048"><ele>432.25</ele><time>2009-10-19T11:16:30Z</time></trkpt>
<trkpt lat="46.16504976" lon="6.00310287"><ele>432.25</ele><time>2009-10-19T11:16:31Z</time></trkpt>
<trkpt lat="46.16510516" lon="6.00308695"><ele>432.25</ele><time>2009-10-19T11:16:32Z</time></trkpt>
<trkpt lat="46.16516056" lon="6.00307253"><ele>432.25</ele><time>2009-10-19T11:16:33Z</time></trkpt>
<trkpt lat="46.16521589" lon="6.00305853"><ele>432.25</ele><time>2009-10-19T11:16:34Z</time></trkpt>
<trkpt lat="46.16527154" lon="6.00304512"><ele>432.25</ele><time>2009-10-19T11:16:35Z</time></trkpt>
<trkpt lat="46.16532703" lon="6.00303163"><ele>432.25</ele><time>2009-10-19T11:16:36Z</time></trkpt>
<trkpt lat="46.16538235" lon="6.00301872"><ele>432.25</ele><time>2009-10-19T11:16:37Z</time></trkpt>
<trkpt lat="46.16543775" lon="6.00300908"><ele>432.25</ele><time>2009-10-19T11:16:38Z</time></trkpt>
<trkpt lat="46.16549358" lon="6.00300154"><ele>432.25</ele><time>2009-10-19T11:16:39Z</time></trkpt>
<trkpt lat="46.16554982" lon="6.00299542"><ele>432.25</ele><time>2009-10-19T11:16:40Z</time></trkpt>
<trkpt lat="46.16560598" lon="6.00298913"><ele>432.730713</ele><time>2009-10-19T11:16:41Z</time></trkpt>
<trkpt lat="46.16566172" lon="6.00298025"><ele>432.730713</ele><time>2009-10-19T11:16:42Z</time></trkpt>
<trkpt lat="46.16571578" lon="6.00297195"><ele>432.730713</ele><time>2009-10-19T11:16:43Z</time></trkpt>
<trkpt lat="46.16576758" lon="6.00296097"><ele>432.730713</ele><time>2009-10-19T11:16:44Z</time></trkpt>
<trkpt lat="46.16582148" lon="6.00295602"><ele>432.730713</ele><time>2009-10-19T11:16:45Z</time></trkpt>
<trkpt lat="46.16589557" lon="6.00296918"><ele>432.25</ele><time>2009-10-19T11:16:46Z</time></trkpt>
<trkpt lat="46.16596799" lon="6.00297287"><ele>431.769165</ele><time>2009-10-19T11:16:47Z</time></trkpt>
<trkpt lat="46.16602340" lon="6.00296558"><ele>431.769165</ele><time>2009-10-19T11:16:48Z</time></trkpt>
<trkpt lat="46.16607470" lon="6.00295519"><ele>432.25</ele><time>2009-10-19T11:16:49Z</time></trkpt>
<trkpt lat="46.16612960" lon="6.00294840"><ele>432.25</ele><time>2009-10-19T11:16:50Z</time></trkpt>
<trkpt lat="46.16619447" lon="6.00294144"><ele>433.211304</ele><time>2009-10-19T11:16:51Z</time></trkpt>
<trkpt lat="46.16626698" lon="6.00294094"><ele>433.211304</ele><time>2009-10-19T11:16:52Z</time></trkpt>
<trkpt lat="46.16632557" lon="6.00293607"><ele>433.691895</ele><time>2009-10-19T11:16:53Z</time></trkpt>
<trkpt lat="46.16638415" lon="6.00292912"><ele>434.172607</ele><time>2009-10-19T11:16:54Z</time></trkpt>
<trkpt lat="46.16644677" lon="6.00292367"><ele>435.133911</ele><time>2009-10-19T11:16:55Z</time></trkpt>
<trkpt lat="46.16649957" lon="6.00291604"><ele>435.133911</ele><time>2009-10-19T11:16:56Z</time></trkpt>
<trkpt lat="46.16656009" lon="6.00290665"><ele>435.133911</ele><time>2009-10-19T11:16:57Z</time></trkpt>
<trkpt lat="46.16662145" lon="6.00289869"><ele>434.65332</ele><time>2009-10-19T11:16:58Z</time></trkpt>
<trkpt lat="46.16668808" lon="6.00288662"><ele>434.65332</ele><time>2009-10-19T11:16:59Z</time></trkpt>
<trkpt lat="46.16674902" lon="6.00286734"><ele>434.65332</ele><time>2009-10-19T11:17:00Z</time></trkpt>
<trkpt lat="46.16681423" lon="6.00286449"><ele>434.65332</ele><time>2009-10-19T11:17:01Z</time></trkpt>
<trkpt lat="46.16687374" lon="6.00285578"><ele>435.614502</ele><time>2009-10-19T11:17:02Z</time></trkpt>
<trkpt lat="46.16692353" lon="6.00284102"><ele>436.095215</ele><time>2009-10-19T11:17:03Z</time></trkpt>
<trkpt lat="46.16698732" lon="6.00282460"><ele>437.056519</ele><time>2009-10-19T11:17:04Z</time></trkpt>
<trkpt lat="46.16705328" lon="6.00280716"><ele>437.056519</ele><time>2009-10-19T11:17:05Z</time></trkpt>
<trkpt lat="46.16711665" lon="6.00279056"><ele>437.537109</ele><time>2009-10-19T11:17:06Z</time></trkpt>
<trkpt lat="46.16716887" lon="6.00276927"><ele>437.056519</ele><time>2009-10-19T11:17:07Z</time></trkpt>
<trkpt lat="46.16721983" lon="6.00274907"><ele>437.056519</ele><time>2009-10-19T11:17:08Z</time></trkpt>
<trkpt lat="46.16727859" lon="6.00272485"><ele>436.575928</ele><time>2009-10-19T11:17:09Z</time></trkpt>
<trkpt lat="46.16733969" lon="6.00270909"><ele>436.095215</ele><time>2009-10-19T11:17:10Z</time></trkpt>
<trkpt lat="46.16740096" lon="6.00269107"><ele>435.133911</ele><time>2009-10-19T11:17:11Z</time></trkpt>
<trkpt lat="46.16745846" lon="6.00267087"><ele>434.65332</ele><time>2009-10-19T11:17:12Z</time></trkpt>
<trkpt lat="46.16751563" lon="6.00265025"><ele>434.65332</ele><time>2009-10-19T11:17:13Z</time></trkpt>
<trkpt lat="46.16757296" lon="6.00262980"><ele>434.172607</ele><time>2009-10-19T11:17:14Z</time></trkpt>
<trkpt lat="46.16763406" lon="6.00260993"><ele>434.172607</ele><time>2009-10-19T11:17:15Z</time></trkpt>
<trkpt lat="46.16769450" lon="6.00259082"><ele>433.691895</ele><time>2009-10-19T11:17:16Z</time></trkpt>
<trkpt lat="46.16775309" lon="6.00257163"><ele>433.691895</ele><time>2009-10-19T11:17:17Z</time></trkpt>
<trkpt lat="46.16780874" lon="6.00255176"><ele>433.691895</ele><time>2009-10-19T11:17:18Z</time></trkpt>
<trkpt lat="46.16786792" lon="6.00253399"><ele>433.691895</ele><time>2009-10-19T11:17:19Z</time></trkpt>
<trkpt lat="46.16792559" lon="6.00251690"><ele>433.691895</ele><time>2009-10-19T11:17:20Z</time></trkpt>
<trkpt lat="46.16798493" lon="6.00249862"><ele>434.172607</ele><time>2009-10-19T11:17:21Z</time></trkpt>
<trkpt lat="46.16804394" lon="6.00247758"><ele>434.172607</ele><time>2009-10-19T11:17:22Z</time></trkpt>
<trkpt lat="46.16810664" lon="6.00245663"><ele>434.65332</ele><time>2009-10-19T11:17:23Z</time></trkpt>
<trkpt lat="46.16816514" lon="6.00243308"><ele>434.65332</ele><time>2009-10-19T11:17:24Z</time></trkpt>
<trkpt lat="46.16822172" lon="6.00241036"><ele>434.65332</ele><time>2009-10-19T11:17:25Z</time></trkpt>
<trkpt lat="46.16827704" lon="6.00238748"><ele>434.65332</ele><time>2009-10-19T11:17:26Z</time></trkpt>
<trkpt lat="46.16833010" lon="6.00236493"><ele>435.133911</ele><time>2009-10-19T11:17:27Z</time></trkpt>
<trkpt lat="46.16838760" lon="6.00235353"><ele>434.65332</ele><time>2009-10-19T11:17:28Z</time></trkpt>
<trkpt lat="46.16844325" lon="6.00234674"><ele>435.133911</ele><time>2009-10-19T11:17:29Z</time></trkpt>
<trkpt lat="46.16849539" lon="6.00233518"><ele>435.614502</ele><time>2009-10-19T11:17:30Z</time></trkpt>
<trkpt lat="46.16855012" lon="6.00232420"><ele>435.614502</ele><time>2009-10-19T11:17:31Z</time></trkpt>
<trkpt lat="46.16860326" lon="6.00231137"><ele>436.095215</ele><time>2009-10-19T11:17:32Z</time></trkpt>
<trkpt lat="46.16865456" lon="6.00229796"><ele>436.095215</ele><time>2009-10-19T11:17:33Z</time></trkpt>
<trkpt lat="46.16870619" lon="6.00229352"><ele>435.614502</ele><time>2009-10-19T11:17:34Z</time></trkpt>
<trkpt lat="46.16875833" lon="6.00230609"><ele>435.614502</ele><time>2009-10-19T11:17:35Z</time></trkpt>
<trkpt lat="46.16879395" lon="6.00233082"><ele>435.614502</ele><time>2009-10-19T11:17:36Z</time></trkpt>
<trkpt lat="46.16881524" lon="6.00236032"><ele>435.614502</ele><time>2009-10-19T11:17:37Z</time></trkpt>
<trkpt lat="46.16883075" lon="6.00238337"><ele>436.095215</ele><time>2009-10-19T11:17:38Z</time></trkpt>
<trkpt lat="46.16884190" lon="6.00240005"><ele>436.095215</ele><time>2009-10-19T11:17:39Z</time></trkpt>
<trkpt lat="46.16885514" lon="6.00241514"><ele>436.575928</ele><time>2009-10-19T11:17:40Z</time></trkpt>
<trkpt lat="46.16887417" lon="6.00242687"><ele>436.575928</ele><time>2009-10-19T11:17:41Z</time></trkpt>
<trkpt lat="46.16890015" lon="6.00242587"><ele>437.056519</ele><time>2009-10-19T11:17:42Z</time></trkpt>
<trkpt lat="46.16893242" lon="6.00240760"><ele>437.056519</ele><time>2009-10-19T11:17:43Z</time></trkpt>
<trkpt lat="46.16896645" lon="6.00237189"><ele>437.537109</ele><time>2009-10-19T11:17:44Z</time></trkpt>
<trkpt lat="46.16900300" lon="6.00232470"><ele>437.537109</ele><time>2009-10-19T11:17:45Z</time></trkpt>
<trkpt lat="46.16904105" lon="6.00227927"><ele>438.017822</ele><time>2009-10-19T11:17:46Z</time></trkpt>
<trkpt lat="46.16909143" lon="6.00217709"><ele>437.537109</ele><time>2009-10-19T11:17:47Z</time></trkpt>
<trkpt lat="46.16913149" lon="6.00213493"><ele>437.056519</ele><time>2009-10-19T11:17:48Z</time></trkpt>
<trkpt lat="46.16916980" lon="6.00208213"><ele>437.056519</ele><time>2009-10-19T11:17:49Z</time></trkpt>
<trkpt lat="46.16920056" lon="6.00203326"><ele>437.056519</ele><time>2009-10-19T11:17:50Z</time></trkpt>
<trkpt lat="46.16923015" lon="6.00198314"><ele>437.056519</ele><time>2009-10-19T11:17:51Z</time></trkpt>
<trkpt lat="46.16926636" lon="6.00192932"><ele>438.017822</ele><time>2009-10-19T11:17:52Z</time></trkpt>
<trkpt lat="46.16930843" lon="6.00186772"><ele>438.979126</ele><time>2009-10-19T11:17:53Z</time></trkpt>
<trkpt lat="46.16934766" lon="6.00181265"><ele>439.459717</ele><time>2009-10-19T11:17:54Z</time></trkpt>
<trkpt lat="46.16938856" lon="6.00176009"><ele>438.979126</ele><time>2009-10-19T11:17:55Z</time></trkpt>
<trkpt lat="46.16943156" lon="6.00170176"><ele>438.017822</ele><time>2009-10-19T11:17:56Z</time></trkpt>
<trkpt lat="46.16947213" lon="6.00164157"><ele>438.017822</ele><time>2009-10-19T11:17:57Z</time></trkpt>
<trkpt lat="46.16951136" lon="6.00158206"><ele>438.017822</ele><time>2009-10-19T11:17:58Z</time></trkpt>
<trkpt lat="46.16954640" lon="6.00153286"><ele>438.017822</ele><time>2009-10-19T11:17:59Z</time></trkpt>
<trkpt lat="46.16958227" lon="6.00150956"><ele>437.056519</ele><time>2009-10-19T11:18:00Z</time></trkpt>
<trkpt lat="46.16960926" lon="6.00151375"><ele>436.575928</ele><time>2009-10-19T11:18:01Z</time></trkpt>
<trkpt lat="46.16963306" lon="6.00153973"><ele>437.056519</ele><time>2009-10-19T11:18:02Z</time></trkpt>
<trkpt lat="46.16965142" lon="6.00158416"><ele>436.575928</ele><time>2009-10-19T11:18:03Z</time></trkpt>
<trkpt lat="46.16967372" lon="6.00163688"><ele>436.575928</ele><time>2009-10-19T11:18:04Z</time></trkpt>
<trkpt lat="46.16969274" lon="6.00168482"><ele>436.575928</ele><time>2009-10-19T11:18:05Z</time></trkpt>
<trkpt lat="46.16971663" lon="6.00173629"><ele>437.056519</ele><time>2009-10-19T11:18:06Z</time></trkpt>
<trkpt lat="46.16974949" lon="6.00178189"><ele>437.056519</ele><time>2009-10-19T11:18:07Z</time></trkpt>
<trkpt lat="46.16977053" lon="6.00183226"><ele>436.095215</ele><time>2009-10-19T11:18:08Z</time></trkpt>
<trkpt lat="46.16979048" lon="6.00188138"><ele>436.575928</ele><time>2009-10-19T11:18:09Z</time></trkpt>
<trkpt lat="46.16979567" lon="6.00193083"><ele>436.575928</ele><time>2009-10-19T11:18:10Z</time></trkpt>
<trkpt lat="46.16978662" lon="6.00197417"><ele>436.095215</ele><time>2009-10-19T11:18:11Z</time></trkpt>
<trkpt lat="46.16976826" lon="6.00202270"><ele>435.614502</ele><time>2009-10-19T11:18:12Z</time></trkpt>
<trkpt lat="46.16973549" lon="6.00207274"><ele>434.65332</ele><time>2009-10-19T11:18:13Z</time></trkpt>
<trkpt lat="46.16970708" lon="6.00212655"><ele>433.691895</ele><time>2009-10-19T11:18:14Z</time></trkpt>
<trkpt lat="46.16968713" lon="6.00218313"><ele>432.730713</ele><time>2009-10-19T11:18:15Z</time></trkpt>
<trkpt lat="46.16967724" lon="6.00224633"><ele>432.730713</ele><time>2009-10-19T11:18:16Z</time></trkpt>
<trkpt lat="46.16966902" lon="6.00230324"><ele>432.25</ele><time>2009-10-19T11:18:17Z</time></trkpt>
<trkpt lat="46.16965787" lon="6.00236124"><ele>432.25</ele><time>2009-10-19T11:18:18Z</time></trkpt>
<trkpt lat="46.16964497" lon="6.00242243"><ele>431.769165</ele><time>2009-10-19T11:18:19Z</time></trkpt>
<trkpt lat="46.16962653" lon="6.00248412"><ele>431.288574</ele><time>2009-10-19T11:18:20Z</time></trkpt>
<trkpt lat="46.16960842" lon="6.00254640"><ele>430.807983</ele><time>2009-10-19T11:18:21Z</time></trkpt>
<trkpt lat="46.16960272" lon="6.00261438"><ele>430.327271</ele><time>2009-10-19T11:18:22Z</time></trkpt>
<trkpt lat="46.16959174" lon="6.00268143"><ele>429.846558</ele><time>2009-10-19T11:18:23Z</time></trkpt>
<trkpt lat="46.16958244" lon="6.00275058"><ele>429.846558</ele><time>2009-10-19T11:18:24Z</time></trkpt>
<trkpt lat="46.16957146" lon="6.00281848"><ele>429.365967</ele><time>2009-10-19T11:18:25Z</time></trkpt>
<trkpt lat="46.16955989" lon="6.00288645"><ele>428.885376</ele><time>2009-10-19T11:18:26Z</time></trkpt>
<trkpt lat="46.16954933" lon="6.00295393"><ele>428.404663</ele><time>2009-10-19T11:18:27Z</time></trkpt>
<trkpt lat="46.16953835" lon="6.00302149"><ele>427.92395</ele><time>2009-10-19T11:18:28Z</time></trkpt>
<trkpt lat="46.16952226" lon="6.00309248"><ele>426.962769</ele><time>2009-10-19T11:18:29Z</time></trkpt>
<trkpt lat="46.16951044" lon="6.00316557"><ele>426.482056</ele><time>2009-10-19T11:18:30Z</time></trkpt>
<trkpt lat="46.16949996" lon="6.00324009"><ele>426.001343</ele><time>2009-10-19T11:18:31Z</time></trkpt>
<trkpt lat="46.16949007" lon="6.00331527"><ele>425.040161</ele><time>2009-10-19T11:18:32Z</time></trkpt>
<trkpt lat="46.16948118" lon="6.00339088"><ele>424.559448</ele><time>2009-10-19T11:18:33Z</time></trkpt>
<trkpt lat="46.16947305" lon="6.00346874"><ele>424.078735</ele><time>2009-10-19T11:18:34Z</time></trkpt>
<trkpt lat="46.16946685" lon="6.00354846"><ele>424.078735</ele><time>2009-10-19T11:18:35Z</time></trkpt>
<trkpt lat="46.16946040" lon="6.00363395"><ele>423.598022</ele><time>2009-10-19T11:18:36Z</time></trkpt>
<trkpt lat="46.16945252" lon="6.00372012"><ele>423.598022</ele><time>2009-10-19T11:18:37Z</time></trkpt>
<trkpt lat="46.16944808" lon="6.00380528"><ele>423.598022</ele><time>2009-10-19T11:18:38Z</time></trkpt>
<trkpt lat="46.16944296" lon="6.00389077"><ele>424.078735</ele><time>2009-10-19T11:18:39Z</time></trkpt>
<trkpt lat="46.16943768" lon="6.00397652"><ele>424.078735</ele><time>2009-10-19T11:18:40Z</time></trkpt>
<trkpt lat="46.16943156" lon="6.00406185"><ele>424.078735</ele><time>2009-10-19T11:18:41Z</time></trkpt>
<trkpt lat="46.16942444" lon="6.00414759"><ele>424.078735</ele><time>2009-10-19T11:18:42Z</time></trkpt>
<trkpt lat="46.16941706" lon="6.00423359"><ele>424.078735</ele><time>2009-10-19T11:18:43Z</time></trkpt>
<trkpt lat="46.16941027" lon="6.00431783"><ele>423.598022</ele><time>2009-10-19T11:18:44Z</time></trkpt>
<trkpt lat="46.16940315" lon="6.00440383"><ele>423.598022</ele><time>2009-10-19T11:18:45Z</time></trkpt>
<trkpt lat="46.16939619" lon="6.00448807"><ele>423.598022</ele><time>2009-10-19T11:18:46Z</time></trkpt>
<trkpt lat="46.16938982" lon="6.00457306"><ele>423.598022</ele><time>2009-10-19T11:18:47Z</time></trkpt>
<trkpt lat="46.16938454" lon="6.00465847"><ele>423.598022</ele><time>2009-10-19T11:18:48Z</time></trkpt>
<trkpt lat="46.16938010" lon="6.00474455"><ele>423.117432</ele><time>2009-10-19T11:18:49Z</time></trkpt>
<trkpt lat="46.16937390" lon="6.00483114"><ele>423.598022</ele><time>2009-10-19T11:18:50Z</time></trkpt>
<trkpt lat="46.16936652" lon="6.00491814"><ele>423.117432</ele><time>2009-10-19T11:18:51Z</time></trkpt>
<trkpt lat="46.16936007" lon="6.00500548"><ele>423.598022</ele><time>2009-10-19T11:18:52Z</time></trkpt>
<trkpt lat="46.16935529" lon="6.00509224"><ele>423.598022</ele><time>2009-10-19T11:18:53Z</time></trkpt>
<trkpt lat="46.16935009" lon="6.00517698"><ele>423.598022</ele><time>2009-10-19T11:18:54Z</time></trkpt>
<trkpt lat="46.16934456" lon="6.00526080"><ele>423.598022</ele><time>2009-10-19T11:18:55Z</time></trkpt>
<trkpt lat="46.16933852" lon="6.00534587"><ele>424.078735</ele><time>2009-10-19T11:18:56Z</time></trkpt>
<trkpt lat="46.16933484" lon="6.00543120"><ele>424.078735</ele><time>2009-10-19T11:18:57Z</time></trkpt>
<trkpt lat="46.16933165" lon="6.00551703"><ele>424.078735</ele><time>2009-10-19T11:18:58Z</time></trkpt>
<trkpt lat="46.16932872" lon="6.00560194"><ele>424.559448</ele><time>2009-10-19T11:18:59Z</time></trkpt>
<trkpt lat="46.16932763" lon="6.00568676"><ele>425.040161</ele><time>2009-10-19T11:19:00Z</time></trkpt>
<trkpt lat="46.16932939" lon="6.00577259"><ele>425.040161</ele><time>2009-10-19T11:19:01Z</time></trkpt>
<trkpt lat="46.16933358" lon="6.00585599"><ele>425.520752</ele><time>2009-10-19T11:19:02Z</time></trkpt>
<trkpt lat="46.16933886" lon="6.00593956"><ele>426.001343</ele><time>2009-10-19T11:19:03Z</time></trkpt>
<trkpt lat="46.16934448" lon="6.00602439"><ele>426.482056</ele><time>2009-10-19T11:19:04Z</time></trkpt>
<trkpt lat="46.16935194" lon="6.00610653"><ele>426.482056</ele><time>2009-10-19T11:19:05Z</time></trkpt>
<trkpt lat="46.16936082" lon="6.00618624"><ele>426.962769</ele><time>2009-10-19T11:19:06Z</time></trkpt>
<trkpt lat="46.16936744" lon="6.00626763"><ele>426.962769</ele><time>2009-10-19T11:19:07Z</time></trkpt>
<trkpt lat="46.16937356" lon="6.00634952"><ele>426.962769</ele><time>2009-10-19T11:19:08Z</time></trkpt>
<trkpt lat="46.16937893" lon="6.00643150"><ele>427.443359</ele><time>2009-10-19T11:19:09Z</time></trkpt>
<trkpt lat="46.16938303" lon="6.00651339"><ele>427.443359</ele><time>2009-10-19T11:19:10Z</time></trkpt>
<trkpt lat="46.16938437" lon="6.00659503"><ele>427.443359</ele><time>2009-10-19T11:19:11Z</time></trkpt>
<trkpt lat="46.16938245" lon="6.00667834"><ele>427.443359</ele><time>2009-10-19T11:19:12Z</time></trkpt>
<trkpt lat="46.16937809" lon="6.00676292"><ele>427.443359</ele><time>2009-10-19T11:19:13Z</time></trkpt>
<trkpt lat="46.16936979" lon="6.00684372"><ele>427.443359</ele><time>2009-10-19T11:19:14Z</time></trkpt>
<trkpt lat="46.16935537" lon="6.00692494"><ele>426.962769</ele><time>2009-10-19T11:19:15Z</time></trkpt>
<trkpt lat="46.16933643" lon="6.00700566"><ele>426.962769</ele><time>2009-10-19T11:19:16Z</time></trkpt>
<trkpt lat="46.16931598" lon="6.00708663"><ele>426.962769</ele><time>2009-10-19T11:19:17Z</time></trkpt>
<trkpt lat="46.16929335" lon="6.00716684"><ele>426.962769</ele><time>2009-10-19T11:19:18Z</time></trkpt>
<trkpt lat="46.16926770" lon="6.00724538"><ele>426.962769</ele><time>2009-10-19T11:19:19Z</time></trkpt>
<trkpt lat="46.16923979" lon="6.00732526"><ele>426.962769</ele><time>2009-10-19T11:19:20Z</time></trkpt>
<trkpt lat="46.16921305" lon="6.00739986"><ele>426.482056</ele><time>2009-10-19T11:19:21Z</time></trkpt>
<trkpt lat="46.16918279" lon="6.00747772"><ele>426.482056</ele><time>2009-10-19T11:19:22Z</time></trkpt>
<trkpt lat="46.16915043" lon="6.00755517"><ele>426.482056</ele><time>2009-10-19T11:19:23Z</time></trkpt>
<trkpt lat="46.16911598" lon="6.00763036"><ele>426.482056</ele><time>2009-10-19T11:19:24Z</time></trkpt>
<trkpt lat="46.16908019" lon="6.00770228"><ele>426.001343</ele><time>2009-10-19T11:19:25Z</time></trkpt>
<trkpt lat="46.16904465" lon="6.00777503"><ele>426.001343</ele><time>2009-10-19T11:19:26Z</time></trkpt>
<trkpt lat="46.16900995" lon="6.00784720"><ele>426.001343</ele><time>2009-10-19T11:19:27Z</time></trkpt>
<trkpt lat="46.16897400" lon="6.00791727"><ele>426.001343</ele><time>2009-10-19T11:19:28Z</time></trkpt>
<trkpt lat="46.16893678" lon="6.00798693"><ele>425.520752</ele><time>2009-10-19T11:19:29Z</time></trkpt>
<trkpt lat="46.16889898" lon="6.00805708"><ele>425.520752</ele><time>2009-10-19T11:19:30Z</time></trkpt>
<trkpt lat="46.16885992" lon="6.00812598"><ele>425.520752</ele><time>2009-10-19T11:19:31Z</time></trkpt>
<trkpt lat="46.16882195" lon="6.00819538"><ele>425.520752</ele><time>2009-10-19T11:19:32Z</time></trkpt>
<trkpt lat="46.16878515" lon="6.00826462"><ele>425.040161</ele><time>2009-10-19T11:19:33Z</time></trkpt>
<trkpt lat="46.16874944" lon="6.00833368"><ele>425.040161</ele><time>2009-10-19T11:19:34Z</time></trkpt>
<trkpt lat="46.16871533" lon="6.00840200"><ele>425.040161</ele><time>2009-10-19T11:19:35Z</time></trkpt>
<trkpt lat="46.16868407" lon="6.00847039"><ele>425.040161</ele><time>2009-10-19T11:19:36Z</time></trkpt>
<trkpt lat="46.16865406" lon="6.00854005"><ele>425.040161</ele><time>2009-10-19T11:19:37Z</time></trkpt>
<trkpt lat="46.16862464" lon="6.00860802"><ele>425.040161</ele><time>2009-10-19T11:19:38Z</time></trkpt>
<trkpt lat="46.16860134" lon="6.00867734"><ele>425.520752</ele><time>2009-10-19T11:19:39Z</time></trkpt>
<trkpt lat="46.16858885" lon="6.00875429"><ele>425.520752</ele><time>2009-10-19T11:19:40Z</time></trkpt>
<trkpt lat="46.16858340" lon="6.00883274"><ele>426.001343</ele><time>2009-10-19T11:19:41Z</time></trkpt>
<trkpt lat="46.16858214" lon="6.00891044"><ele>426.001343</ele><time>2009-10-19T11:19:42Z</time></trkpt>
<trkpt lat="46.16858248" lon="6.00898714"><ele>426.482056</ele><time>2009-10-19T11:19:43Z</time></trkpt>
<trkpt lat="46.16858482" lon="6.00906224"><ele>426.482056</ele><time>2009-10-19T11:19:44Z</time></trkpt>
<trkpt lat="46.16858616" lon="6.00914380"><ele>426.482056</ele><time>2009-10-19T11:19:45Z</time></trkpt>
<trkpt lat="46.16858893" lon="6.00922384"><ele>426.482056</ele><time>2009-10-19T11:19:46Z</time></trkpt>
<trkpt lat="46.16859304" lon="6.00930163"><ele>426.482056</ele><time>2009-10-19T11:19:47Z</time></trkpt>
<trkpt lat="46.16859832" lon="6.00937924"><ele>426.482056</ele><time>2009-10-19T11:19:48Z</time></trkpt>
<trkpt lat="46.16860494" lon="6.00945602"><ele>426.962769</ele><time>2009-10-19T11:19:49Z</time></trkpt>
<trkpt lat="46.16861098" lon="6.00953314"><ele>426.962769</ele><time>2009-10-19T11:19:50Z</time></trkpt>
<trkpt lat="46.16861634" lon="6.00961000"><ele>427.443359</ele><time>2009-10-19T11:19:51Z</time></trkpt>
<trkpt lat="46.16862212" lon="6.00968594"><ele>427.443359</ele><time>2009-10-19T11:19:52Z</time></trkpt>
<trkpt lat="46.16862799" lon="6.00976238"><ele>427.443359</ele><time>2009-10-19T11:19:53Z</time></trkpt>
<trkpt lat="46.16863352" lon="6.00983857"><ele>427.92395</ele><time>2009-10-19T11:19:54Z</time></trkpt>
<trkpt lat="46.16863847" lon="6.00991510"><ele>427.92395</ele><time>2009-10-19T11:19:55Z</time></trkpt>
<trkpt lat="46.16864257" lon="6.00999339"><ele>427.92395</ele><time>2009-10-19T11:19:56Z</time></trkpt>
<trkpt lat="46.16864769" lon="6.01007159"><ele>427.92395</ele><time>2009-10-19T11:19:57Z</time></trkpt>
<trkpt lat="46.16865297" lon="6.01014946"><ele>427.92395</ele><time>2009-10-19T11:19:58Z</time></trkpt>
<trkpt lat="46.16865708" lon="6.01022816"><ele>427.92395</ele><time>2009-10-19T11:19:59Z</time></trkpt>
<trkpt lat="46.16866143" lon="6.01030704"><ele>427.92395</ele><time>2009-10-19T11:20:00Z</time></trkpt>
<trkpt lat="46.16866638" lon="6.01038658"><ele>427.92395</ele><time>2009-10-19T11:20:01Z</time></trkpt>
<trkpt lat="46.16866998" lon="6.01046763"><ele>427.92395</ele><time>2009-10-19T11:20:02Z</time></trkpt>
<trkpt lat="46.16867250" lon="6.01054885"><ele>427.92395</ele><time>2009-10-19T11:20:03Z</time></trkpt>
<trkpt lat="46.16867535" lon="6.01062899"><ele>428.404663</ele><time>2009-10-19T11:20:04Z</time></trkpt>
<trkpt lat="46.16867878" lon="6.01070828"><ele>428.404663</ele><time>2009-10-19T11:20:05Z</time></trkpt>
<trkpt lat="46.16868172" lon="6.01078774"><ele>428.404663</ele><time>2009-10-19T11:20:06Z</time></trkpt>
<trkpt lat="46.16868314" lon="6.01086795"><ele>428.885376</ele><time>2009-10-19T11:20:07Z</time></trkpt>
<trkpt lat="46.16868423" lon="6.01094750"><ele>428.885376</ele><time>2009-10-19T11:20:08Z</time></trkpt>
<trkpt lat="46.16868583" lon="6.01102528"><ele>428.885376</ele><time>2009-10-19T11:20:09Z</time></trkpt>
<trkpt lat="46.16868742" lon="6.01110005"><ele>429.365967</ele><time>2009-10-19T11:20:10Z</time></trkpt>
<trkpt lat="46.16868624" lon="6.01117515"><ele>429.365967</ele><time>2009-10-19T11:20:11Z</time></trkpt>
<trkpt lat="46.16868515" lon="6.01125017"><ele>429.846558</ele><time>2009-10-19T11:20:12Z</time></trkpt>
<trkpt lat="46.16868365" lon="6.01132728"><ele>429.846558</ele><time>2009-10-19T11:20:13Z</time></trkpt>
<trkpt lat="46.16867962" lon="6.01140322"><ele>429.846558</ele><time>2009-10-19T11:20:14Z</time></trkpt>
<trkpt lat="46.16867275" lon="6.01147874"><ele>429.846558</ele><time>2009-10-19T11:20:15Z</time></trkpt>
<trkpt lat="46.16866428" lon="6.01155116"><ele>430.327271</ele><time>2009-10-19T11:20:16Z</time></trkpt>
<trkpt lat="46.16865364" lon="6.01162300"><ele>430.327271</ele><time>2009-10-19T11:20:17Z</time></trkpt>
<trkpt lat="46.16864065" lon="6.01169374"><ele>430.327271</ele><time>2009-10-19T11:20:18Z</time></trkpt>
<trkpt lat="46.16862506" lon="6.01176306"><ele>430.807983</ele><time>2009-10-19T11:20:19Z</time></trkpt>
<trkpt lat="46.16860838" lon="6.01183145"><ele>430.807983</ele><time>2009-10-19T11:20:20Z</time></trkpt>
<trkpt lat="46.16859103" lon="6.01189968"><ele>430.807983</ele><time>2009-10-19T11:20:21Z</time></trkpt>
<trkpt lat="46.16857334" lon="6.01196783"><ele>430.807983</ele><time>2009-10-19T11:20:22Z</time></trkpt>
<trkpt lat="46.16855532" lon="6.01203639"><ele>431.288574</ele><time>2009-10-19T11:20:23Z</time></trkpt>
<trkpt lat="46.16853663" lon="6.01210495"><ele>431.288574</ele><time>2009-10-19T11:20:24Z</time></trkpt>
<trkpt lat="46.16851752" lon="6.01217318"><ele>431.288574</ele><time>2009-10-19T11:20:25Z</time></trkpt>
<trkpt lat="46.16849857" lon="6.01224074"><ele>431.288574</ele><time>2009-10-19T11:20:26Z</time></trkpt>
<trkpt lat="46.16848122" lon="6.01230863"><ele>431.288574</ele><time>2009-10-19T11:20:27Z</time></trkpt>
<trkpt lat="46.16846505" lon="6.01237745"><ele>431.769165</ele><time>2009-10-19T11:20:28Z</time></trkpt>
<trkpt lat="46.16844853" lon="6.01244643"><ele>431.769165</ele><time>2009-10-19T11:20:29Z</time></trkpt>
<trkpt lat="46.16843177" lon="6.01251525"><ele>431.769165</ele><time>2009-10-19T11:20:30Z</time></trkpt>
<trkpt lat="46.16841475" lon="6.01258373"><ele>431.769165</ele><time>2009-10-19T11:20:31Z</time></trkpt>
<trkpt lat="46.16839766" lon="6.01265187"><ele>431.769165</ele><time>2009-10-19T11:20:32Z</time></trkpt>
<trkpt lat="46.16838056" lon="6.01271935"><ele>431.769165</ele><time>2009-10-19T11:20:33Z</time></trkpt>
<trkpt lat="46.16836279" lon="6.01278582"><ele>432.25</ele><time>2009-10-19T11:20:34Z</time></trkpt>
<trkpt lat="46.16834342" lon="6.01285103"><ele>432.25</ele><time>2009-10-19T11:20:35Z</time></trkpt>
<trkpt lat="46.16832314" lon="6.01291574"><ele>432.25</ele><time>2009-10-19T11:20:36Z</time></trkpt>
<trkpt lat="46.16830252" lon="6.01298128"><ele>431.769165</ele><time>2009-10-19T11:20:37Z</time></trkpt>
<trkpt lat="46.16828056" lon="6.01304649"><ele>431.769165</ele><time>2009-10-19T11:20:38Z</time></trkpt>
<trkpt lat="46.16825609" lon="6.01311162"><ele>431.769165</ele><time>2009-10-19T11:20:39Z</time></trkpt>
<trkpt lat="46.16823027" lon="6.01317717"><ele>432.25</ele><time>2009-10-19T11:20:40Z</time></trkpt>
<trkpt lat="46.16820336" lon="6.01324213"><ele>431.769165</ele><time>2009-10-19T11:20:41Z</time></trkpt>
<trkpt lat="46.16817503" lon="6.01330667"><ele>431.769165</ele><time>2009-10-19T11:20:42Z</time></trkpt>
<trkpt lat="46.16814553" lon="6.01337154"><ele>431.769165</ele><time>2009-10-19T11:20:43Z</time></trkpt>
<trkpt lat="46.16811435" lon="6.01343734"><ele>431.769165</ele><time>2009-10-19T11:20:44Z</time></trkpt>
<trkpt lat="46.16808216" lon="6.01350389"><ele>431.769165</ele><time>2009-10-19T11:20:45Z</time></trkpt>
<trkpt lat="46.16804905" lon="6.01357078"><ele>431.288574</ele><time>2009-10-19T11:20:46Z</time></trkpt>
<trkpt lat="46.16801527" lon="6.01363784"><ele>431.288574</ele><time>2009-10-19T11:20:47Z</time></trkpt>
<trkpt lat="46.16798032" lon="6.01370414"><ele>431.288574</ele><time>2009-10-19T11:20:48Z</time></trkpt>
<trkpt lat="46.16794495" lon="6.01376910"><ele>431.288574</ele><time>2009-10-19T11:20:49Z</time></trkpt>
<trkpt lat="46.16790539" lon="6.01383054"><ele>431.288574</ele><time>2009-10-19T11:20:50Z</time></trkpt>
<trkpt lat="46.16786356" lon="6.01388904"><ele>430.807983</ele><time>2009-10-19T11:20:51Z</time></trkpt>
<trkpt lat="46.16782442" lon="6.01394998"><ele>430.807983</ele><time>2009-10-19T11:20:52Z</time></trkpt>
<trkpt lat="46.16778762" lon="6.01401293"><ele>430.807983</ele><time>2009-10-19T11:20:53Z</time></trkpt>
<trkpt lat="46.16775074" lon="6.01407529"><ele>430.807983</ele><time>2009-10-19T11:20:54Z</time></trkpt>
<trkpt lat="46.16771436" lon="6.01413698"><ele>430.327271</ele><time>2009-10-19T11:20:55Z</time></trkpt>
<trkpt lat="46.16767882" lon="6.01419867"><ele>430.327271</ele><time>2009-10-19T11:20:56Z</time></trkpt>
<trkpt lat="46.16764328" lon="6.01425936"><ele>430.327271</ele><time>2009-10-19T11:20:57Z</time></trkpt>
<trkpt lat="46.16760724" lon="6.01431836"><ele>430.327271</ele><time>2009-10-19T11:20:58Z</time></trkpt>
<trkpt lat="46.16757204" lon="6.01437762"><ele>429.846558</ele><time>2009-10-19T11:20:59Z</time></trkpt>
<trkpt lat="46.16753818" lon="6.01443822"><ele>429.846558</ele><time>2009-10-19T11:21:00Z</time></trkpt>
<trkpt lat="46.16750364" lon="6.01449816"><ele>429.846558</ele><time>2009-10-19T11:21:01Z</time></trkpt>
<trkpt lat="46.16746852" lon="6.01455783"><ele>429.365967</ele><time>2009-10-19T11:21:02Z</time></trkpt>
<trkpt lat="46.16743399" lon="6.01461760"><ele>429.365967</ele><time>2009-10-19T11:21:03Z</time></trkpt>
<trkpt lat="46.16739929" lon="6.01467635"><ele>429.365967</ele><time>2009-10-19T11:21:04Z</time></trkpt>
<trkpt lat="46.16736459" lon="6.01473427"><ele>429.365967</ele><time>2009-10-19T11:21:05Z</time></trkpt>
<trkpt lat="46.16733056" lon="6.01479228"><ele>428.885376</ele><time>2009-10-19T11:21:06Z</time></trkpt>
<trkpt lat="46.16729627" lon="6.01484944"><ele>428.885376</ele><time>2009-10-19T11:21:07Z</time></trkpt>
<trkpt lat="46.16726157" lon="6.01490594"><ele>428.885376</ele><time>2009-10-19T11:21:08Z</time></trkpt>
<trkpt lat="46.16722737" lon="6.01496285"><ele>428.885376</ele><time>2009-10-19T11:21:09Z</time></trkpt>
<trkpt lat="46.16719343" lon="6.01501943"><ele>428.885376</ele><time>2009-10-19T11:21:10Z</time></trkpt>
<trkpt lat="46.16715956" lon="6.01507542"><ele>428.885376</ele><time>2009-10-19T11:21:11Z</time></trkpt>
<trkpt lat="46.16712444" lon="6.01512948"><ele>428.404663</ele><time>2009-10-19T11:21:12Z</time></trkpt>
<trkpt lat="46.16708958" lon="6.01518069"><ele>428.404663</ele><time>2009-10-19T11:21:13Z</time></trkpt>
<trkpt lat="46.16705437" lon="6.01523157"><ele>428.404663</ele><time>2009-10-19T11:21:14Z</time></trkpt>
<trkpt lat="46.16701799" lon="6.01528103"><ele>428.404663</ele><time>2009-10-19T11:21:15Z</time></trkpt>
<trkpt lat="46.16697977" lon="6.01533274"><ele>428.404663</ele><time>2009-10-19T11:21:16Z</time></trkpt>
<trkpt lat="46.16694189" lon="6.01538597"><ele>428.404663</ele><time>2009-10-19T11:21:17Z</time></trkpt>
<trkpt lat="46.16690618" lon="6.01543416"><ele>427.92395</ele><time>2009-10-19T11:21:18Z</time></trkpt>
<trkpt lat="46.16687005" lon="6.01548236"><ele>427.92395</ele><time>2009-10-19T11:21:19Z</time></trkpt>
<trkpt lat="46.16683183" lon="6.01553273"><ele>427.92395</ele><time>2009-10-19T11:21:20Z</time></trkpt>
<trkpt lat="46.16679219" lon="6.01558344"><ele>427.92395</ele><time>2009-10-19T11:21:21Z</time></trkpt>
<trkpt lat="46.16675229" lon="6.01563466"><ele>427.92395</ele><time>2009-10-19T11:21:22Z</time></trkpt>
<trkpt lat="46.16671264" lon="6.01568587"><ele>427.92395</ele><time>2009-10-19T11:21:23Z</time></trkpt>
<trkpt lat="46.16667283" lon="6.01573759"><ele>427.92395</ele><time>2009-10-19T11:21:24Z</time></trkpt>
<trkpt lat="46.16663310" lon="6.01578989"><ele>427.443359</ele><time>2009-10-19T11:21:25Z</time></trkpt>
<trkpt lat="46.16659353" lon="6.01584303"><ele>427.443359</ele><time>2009-10-19T11:21:26Z</time></trkpt>
<trkpt lat="46.16655322" lon="6.01589542"><ele>427.443359</ele><time>2009-10-19T11:21:27Z</time></trkpt>
<trkpt lat="46.16651206" lon="6.01594596"><ele>427.443359</ele><time>2009-10-19T11:21:28Z</time></trkpt>
<trkpt lat="46.16647057" lon="6.01599810"><ele>427.443359</ele><time>2009-10-19T11:21:29Z</time></trkpt>
<trkpt lat="46.16643059" lon="6.01605224"><ele>426.962769</ele><time>2009-10-19T11:21:30Z</time></trkpt>
<trkpt lat="46.16639170" lon="6.01610782"><ele>427.443359</ele><time>2009-10-19T11:21:31Z</time></trkpt>
<trkpt lat="46.16635239" lon="6.01616230"><ele>427.443359</ele><time>2009-10-19T11:21:32Z</time></trkpt>
<trkpt lat="46.16631232" lon="6.01621452"><ele>427.443359</ele><time>2009-10-19T11:21:33Z</time></trkpt>
<trkpt lat="46.16627318" lon="6.01626556"><ele>426.962769</ele><time>2009-10-19T11:21:34Z</time></trkpt>
<trkpt lat="46.16623445" lon="6.01631728"><ele>426.962769</ele><time>2009-10-19T11:21:35Z</time></trkpt>
<trkpt lat="46.16619665" lon="6.01636925"><ele>426.962769</ele><time>2009-10-19T11:21:36Z</time></trkpt>
<trkpt lat="46.16615952" lon="6.01642130"><ele>426.962769</ele><time>2009-10-19T11:21:37Z</time></trkpt>
<trkpt lat="46.16612289" lon="6.01647276"><ele>426.962769</ele><time>2009-10-19T11:21:38Z</time></trkpt>
<trkpt lat="46.16608718" lon="6.01652490"><ele>426.962769</ele><time>2009-10-19T11:21:39Z</time></trkpt>
<trkpt lat="46.16605206" lon="6.01657729"><ele>426.962769</ele><time>2009-10-19T11:21:40Z</time></trkpt>
<trkpt lat="46.16601652" lon="6.01662892"><ele>426.962769</ele><time>2009-10-19T11:21:41Z</time></trkpt>
<trkpt lat="46.16598082" lon="6.01668055"><ele>426.962769</ele><time>2009-10-19T11:21:42Z</time></trkpt>
<trkpt lat="46.16594553" lon="6.01673428"><ele>426.962769</ele><time>2009-10-19T11:21:43Z</time></trkpt>
<trkpt lat="46.16591058" lon="6.01678792"><ele>426.962769</ele><time>2009-10-19T11:21:44Z</time></trkpt>
<trkpt lat="46.16587437" lon="6.01684048"><ele>426.962769</ele><time>2009-10-19T11:21:45Z</time></trkpt>
<trkpt lat="46.16583799" lon="6.01689312"><ele>426.962769</ele><time>2009-10-19T11:21:46Z</time></trkpt>
<trkpt lat="46.16580203" lon="6.01694626"><ele>426.962769</ele><time>2009-10-19T11:21:47Z</time></trkpt>
<trkpt lat="46.16576733" lon="6.01700108"><ele>426.962769</ele><time>2009-10-19T11:21:48Z</time></trkpt>
<trkpt lat="46.16573364" lon="6.01705623"><ele>426.962769</ele><time>2009-10-19T11:21:49Z</time></trkpt>
<trkpt lat="46.16570120" lon="6.01711306"><ele>426.962769</ele><time>2009-10-19T11:21:50Z</time></trkpt>
<trkpt lat="46.16567044" lon="6.01717190"><ele>426.962769</ele><time>2009-10-19T11:21:51Z</time></trkpt>
<trkpt lat="46.16564143" lon="6.01723166"><ele>426.962769</ele><time>2009-10-19T11:21:52Z</time></trkpt>
<trkpt lat="46.16561453" lon="6.01729243"><ele>426.962769</ele><time>2009-10-19T11:21:53Z</time></trkpt>
<trkpt lat="46.16558997" lon="6.01735479"><ele>426.962769</ele><time>2009-10-19T11:21:54Z</time></trkpt>
<trkpt lat="46.16556575" lon="6.01741724"><ele>426.482056</ele><time>2009-10-19T11:21:55Z</time></trkpt>
<trkpt lat="46.16554286" lon="6.01748102"><ele>426.482056</ele><time>2009-10-19T11:21:56Z</time></trkpt>
<trkpt lat="46.16552174" lon="6.01754632"><ele>426.482056</ele><time>2009-10-19T11:21:57Z</time></trkpt>
<trkpt lat="46.16550062" lon="6.01761145"><ele>426.482056</ele><time>2009-10-19T11:21:58Z</time></trkpt>
<trkpt lat="46.16547874" lon="6.01767506"><ele>426.482056</ele><time>2009-10-19T11:21:59Z</time></trkpt>
<trkpt lat="46.16545787" lon="6.01773927"><ele>426.482056</ele><time>2009-10-19T11:22:00Z</time></trkpt>
<trkpt lat="46.16543918" lon="6.01780423"><ele>426.482056</ele><time>2009-10-19T11:22:01Z</time></trkpt>
<trkpt lat="46.16542057" lon="6.01786877"><ele>426.482056</ele><time>2009-10-19T11:22:02Z</time></trkpt>
<trkpt lat="46.16540079" lon="6.01793189"><ele>426.482056</ele><time>2009-10-19T11:22:03Z</time></trkpt>
<trkpt lat="46.16537875" lon="6.01799333"><ele>426.482056</ele><time>2009-10-19T11:22:04Z</time></trkpt>
<trkpt lat="46.16535578" lon="6.01805225"><ele>426.001343</ele><time>2009-10-19T11:22:05Z</time></trkpt>
<trkpt lat="46.16533248" lon="6.01810715"><ele>426.001343</ele><time>2009-10-19T11:22:06Z</time></trkpt>
<trkpt lat="46.16530700" lon="6.01815912"><ele>426.001343</ele><time>2009-10-19T11:22:07Z</time></trkpt>
<trkpt lat="46.16528068" lon="6.01820975"><ele>425.520752</ele><time>2009-10-19T11:22:08Z</time></trkpt>
<trkpt lat="46.16525478" lon="6.01825828"><ele>425.520752</ele><time>2009-10-19T11:22:09Z</time></trkpt>
<trkpt lat="46.16522376" lon="6.01830865"><ele>425.520752</ele><time>2009-10-19T11:22:10Z</time></trkpt>
<trkpt lat="46.16519317" lon="6.01835735"><ele>425.520752</ele><time>2009-10-19T11:22:11Z</time></trkpt>
<trkpt lat="46.16516056" lon="6.01840496"><ele>425.520752</ele><time>2009-10-19T11:22:12Z</time></trkpt>
<trkpt lat="46.16512754" lon="6.01845114"><ele>425.520752</ele><time>2009-10-19T11:22:13Z</time></trkpt>
<trkpt lat="46.16509418" lon="6.01849750"><ele>425.040161</ele><time>2009-10-19T11:22:14Z</time></trkpt>
<trkpt lat="46.16506325" lon="6.01854175"><ele>425.040161</ele><time>2009-10-19T11:22:15Z</time></trkpt>
<trkpt lat="46.16503266" lon="6.01858609"><ele>425.520752</ele><time>2009-10-19T11:22:16Z</time></trkpt>
<trkpt lat="46.16500382" lon="6.01862884"><ele>425.520752</ele><time>2009-10-19T11:22:17Z</time></trkpt>
<trkpt lat="46.16497423" lon="6.01866983"><ele>425.520752</ele><time>2009-10-19T11:22:18Z</time></trkpt>
<trkpt lat="46.16494884" lon="6.01871794"><ele>425.520752</ele><time>2009-10-19T11:22:19Z</time></trkpt>
<trkpt lat="46.16492704" lon="6.01877167"><ele>425.520752</ele><time>2009-10-19T11:22:20Z</time></trkpt>
<trkpt lat="46.16490936" lon="6.01883059"><ele>426.001343</ele><time>2009-10-19T11:22:21Z</time></trkpt>
<trkpt lat="46.16489276" lon="6.01890855"><ele>426.001343</ele><time>2009-10-19T11:22:22Z</time></trkpt>
<trkpt lat="46.16488430" lon="6.01898775"><ele>426.482056</ele><time>2009-10-19T11:22:23Z</time></trkpt>
<trkpt lat="46.16488346" lon="6.01907149"><ele>426.482056</ele><time>2009-10-19T11:22:24Z</time></trkpt>
<trkpt lat="46.16488438" lon="6.01916579"><ele>426.962769</ele><time>2009-10-19T11:22:25Z</time></trkpt>
<trkpt lat="46.16488446" lon="6.01926737"><ele>426.962769</ele><time>2009-10-19T11:22:26Z</time></trkpt>
<trkpt lat="46.16489134" lon="6.01936854"><ele>427.92395</ele><time>2009-10-19T11:22:27Z</time></trkpt>
<trkpt lat="46.16489695" lon="6.01946745"><ele>428.885376</ele><time>2009-10-19T11:22:28Z</time></trkpt>
<trkpt lat="46.16489846" lon="6.01956284"><ele>428.885376</ele><time>2009-10-19T11:22:29Z</time></trkpt>
<trkpt lat="46.16490969" lon="6.01965453"><ele>429.365967</ele><time>2009-10-19T11:22:30Z</time></trkpt>
<trkpt lat="46.16492964" lon="6.01974238"><ele>429.846558</ele><time>2009-10-19T11:22:31Z</time></trkpt>
<trkpt lat="46.16495890" lon="6.01982502"><ele>430.327271</ele><time>2009-10-19T11:22:32Z</time></trkpt>
<trkpt lat="46.16499745" lon="6.01990306"><ele>430.327271</ele><time>2009-10-19T11:22:33Z</time></trkpt>
<trkpt lat="46.16503534" lon="6.01997556"><ele>430.327271</ele><time>2009-10-19T11:22:34Z</time></trkpt>
<trkpt lat="46.16507239" lon="6.02004748"><ele>431.288574</ele><time>2009-10-19T11:22:35Z</time></trkpt>
<trkpt lat="46.16510709" lon="6.02012032"><ele>431.769165</ele><time>2009-10-19T11:22:36Z</time></trkpt>
<trkpt lat="46.16513995" lon="6.02018536"><ele>432.730713</ele><time>2009-10-19T11:22:37Z</time></trkpt>
<trkpt lat="46.16517289" lon="6.02024412"><ele>433.211304</ele><time>2009-10-19T11:22:38Z</time></trkpt>
<trkpt lat="46.16520298" lon="6.02029935"><ele>434.172607</ele><time>2009-10-19T11:22:39Z</time></trkpt>
<trkpt lat="46.16522997" lon="6.02034889"><ele>435.133911</ele><time>2009-10-19T11:22:40Z</time></trkpt>
<trkpt lat="46.16525427" lon="6.02039013"><ele>436.095215</ele><time>2009-10-19T11:22:41Z</time></trkpt>
<trkpt lat="46.16527883" lon="6.02042659"><ele>437.537109</ele><time>2009-10-19T11:22:42Z</time></trkpt>
<trkpt lat="46.16530616" lon="6.02045073"><ele>438.017822</ele><time>2009-10-19T11:22:43Z</time></trkpt>
<trkpt lat="46.16533893" lon="6.02046993"><ele>438.979126</ele><time>2009-10-19T11:22:44Z</time></trkpt>
<trkpt lat="46.16537212" lon="6.02048652"><ele>438.979126</ele><time>2009-10-19T11:22:45Z</time></trkpt>
<trkpt lat="46.16540498" lon="6.02050278"><ele>439.459717</ele><time>2009-10-19T11:22:46Z</time></trkpt>
<trkpt lat="46.16544354" lon="6.02051854"><ele>439.459717</ele><time>2009-10-19T11:22:47Z</time></trkpt>
<trkpt lat="46.16548897" lon="6.02052977"><ele>439.94043</ele><time>2009-10-19T11:22:48Z</time></trkpt>
<trkpt lat="46.16553465" lon="6.02053145"><ele>439.94043</ele><time>2009-10-19T11:22:49Z</time></trkpt>
<trkpt lat="46.16558142" lon="6.02052944"><ele>439.94043</ele><time>2009-10-19T11:22:50Z</time></trkpt>
<trkpt lat="46.16562878" lon="6.02052793"><ele>440.421265</ele><time>2009-10-19T11:22:51Z</time></trkpt>
<trkpt lat="46.16567697" lon="6.02053044"><ele>440.421265</ele><time>2009-10-19T11:22:52Z</time></trkpt>
<trkpt lat="46.16572609" lon="6.02053589"><ele>440.421265</ele><time>2009-10-19T11:22:53Z</time></trkpt>
<trkpt lat="46.16577605" lon="6.02054369"><ele>440.421265</ele><time>2009-10-19T11:22:54Z</time></trkpt>
<trkpt lat="46.16582642" lon="6.02055333"><ele>440.421265</ele><time>2009-10-19T11:22:55Z</time></trkpt>
<trkpt lat="46.16587697" lon="6.02056548"><ele>440.421265</ele><time>2009-10-19T11:22:56Z</time></trkpt>
<trkpt lat="46.16592709" lon="6.02058048"><ele>440.421265</ele><time>2009-10-19T11:22:57Z</time></trkpt>
<trkpt lat="46.16597713" lon="6.02059658"><ele>440.421265</ele><time>2009-10-19T11:22:58Z</time></trkpt>
<trkpt lat="46.16602574" lon="6.02060915"><ele>440.421265</ele><time>2009-10-19T11:22:59Z</time></trkpt>
<trkpt lat="46.16607562" lon="6.02062189"><ele>440.421265</ele><time>2009-10-19T11:23:00Z</time></trkpt>
<trkpt lat="46.16612029" lon="6.02063287"><ele>440.901855</ele><time>2009-10-19T11:23:01Z</time></trkpt>
<trkpt lat="46.16616430" lon="6.02063949"><ele>440.421265</ele><time>2009-10-19T11:23:02Z</time></trkpt>
<trkpt lat="46.16621459" lon="6.02064620"><ele>440.901855</ele><time>2009-10-19T11:23:03Z</time></trkpt>
<trkpt lat="46.16626337" lon="6.02064854"><ele>440.901855</ele><time>2009-10-19T11:23:04Z</time></trkpt>
<trkpt lat="46.16631358" lon="6.02064796"><ele>441.382446</ele><time>2009-10-19T11:23:05Z</time></trkpt>
<trkpt lat="46.16636043" lon="6.02064209"><ele>441.382446</ele><time>2009-10-19T11:23:06Z</time></trkpt>
<trkpt lat="46.16640184" lon="6.02063237"><ele>441.382446</ele><time>2009-10-19T11:23:07Z</time></trkpt>
<trkpt lat="46.16644375" lon="6.02062223"><ele>441.863159</ele><time>2009-10-19T11:23:08Z</time></trkpt>
<trkpt lat="46.16649228" lon="6.02061418"><ele>441.863159</ele><time>2009-10-19T11:23:09Z</time></trkpt>
<trkpt lat="46.16653964" lon="6.02060588"><ele>442.343872</ele><time>2009-10-19T11:23:10Z</time></trkpt>
<trkpt lat="46.16658750" lon="6.02059783"><ele>442.343872</ele><time>2009-10-19T11:23:11Z</time></trkpt>
<trkpt lat="46.16663536" lon="6.02059012"><ele>442.343872</ele><time>2009-10-19T11:23:12Z</time></trkpt>
<trkpt lat="46.16668263" lon="6.02058333"><ele>442.824463</ele><time>2009-10-19T11:23:13Z</time></trkpt>
<trkpt lat="46.16672857" lon="6.02057755"><ele>443.305054</ele><time>2009-10-19T11:23:14Z</time></trkpt>
<trkpt lat="46.16677559" lon="6.02057185"><ele>443.785767</ele><time>2009-10-19T11:23:15Z</time></trkpt>
<trkpt lat="46.16682043" lon="6.02056799"><ele>444.266479</ele><time>2009-10-19T11:23:16Z</time></trkpt>
<trkpt lat="46.16686486" lon="6.02056498"><ele>444.74707</ele><time>2009-10-19T11:23:17Z</time></trkpt>
<trkpt lat="46.16690995" lon="6.02056447"><ele>445.227661</ele><time>2009-10-19T11:23:18Z</time></trkpt>
<trkpt lat="46.16695169" lon="6.02056297"><ele>446.189087</ele><time>2009-10-19T11:23:19Z</time></trkpt>
<trkpt lat="46.16698137" lon="6.02055995"><ele>446.669678</ele><time>2009-10-19T11:23:20Z</time></trkpt>
<trkpt lat="46.16701263" lon="6.02055777"><ele>446.669678</ele><time>2009-10-19T11:23:21Z</time></trkpt>
<trkpt lat="46.16705353" lon="6.02056037"><ele>447.150269</ele><time>2009-10-19T11:23:22Z</time></trkpt>
<trkpt lat="46.16709813" lon="6.02056632"><ele>447.630981</ele><time>2009-10-19T11:23:23Z</time></trkpt>
<trkpt lat="46.16714238" lon="6.02057026"><ele>447.630981</ele><time>2009-10-19T11:23:24Z</time></trkpt>
<trkpt lat="46.16719779" lon="6.02058057"><ele>447.630981</ele><time>2009-10-19T11:23:25Z</time></trkpt>
<trkpt lat="46.16725160" lon="6.02059222"><ele>448.111816</ele><time>2009-10-19T11:23:26Z</time></trkpt>
<trkpt lat="46.16729686" lon="6.02060119"><ele>448.592407</ele><time>2009-10-19T11:23:27Z</time></trkpt>
<trkpt lat="46.16733944" lon="6.02061099"><ele>449.553711</ele><time>2009-10-19T11:23:28Z</time></trkpt>
<trkpt lat="46.16737699" lon="6.02061845"><ele>450.515015</ele><time>2009-10-19T11:23:29Z</time></trkpt>
<trkpt lat="46.16741136" lon="6.02062684"><ele>451.476318</ele><time>2009-10-19T11:23:30Z</time></trkpt>
<trkpt lat="46.16745193" lon="6.02063857"><ele>451.957031</ele><time>2009-10-19T11:23:31Z</time></trkpt>
<trkpt lat="46.16750180" lon="6.02065466"><ele>452.437622</ele><time>2009-10-19T11:23:32Z</time></trkpt>
<trkpt lat="46.16754019" lon="6.02066698"><ele>453.398926</ele><time>2009-10-19T11:23:33Z</time></trkpt>
<trkpt lat="46.16758277" lon="6.02068132"><ele>453.879639</ele><time>2009-10-19T11:23:34Z</time></trkpt>
<trkpt lat="46.16762334" lon="6.02069423"><ele>454.360229</ele><time>2009-10-19T11:23:35Z</time></trkpt>
<trkpt lat="46.16766374" lon="6.02070697"><ele>455.802246</ele><time>2009-10-19T11:23:36Z</time></trkpt>
<trkpt lat="46.16770682" lon="6.02072189"><ele>455.802246</ele><time>2009-10-19T11:23:37Z</time></trkpt>
<trkpt lat="46.16774303" lon="6.02073840"><ele>455.321533</ele><time>2009-10-19T11:23:38Z</time></trkpt>
<trkpt lat="46.16779014" lon="6.02075977"><ele>454.360229</ele><time>2009-10-19T11:23:39Z</time></trkpt>
<trkpt lat="46.16785015" lon="6.02078232"><ele>452.918213</ele><time>2009-10-19T11:23:40Z</time></trkpt>
<trkpt lat="46.16791109" lon="6.02080629"><ele>453.398926</ele><time>2009-10-19T11:23:41Z</time></trkpt>
<trkpt lat="46.16797320" lon="6.02083026"><ele>453.398926</ele><time>2009-10-19T11:23:42Z</time></trkpt>
<trkpt lat="46.16803137" lon="6.02085466"><ele>452.918213</ele><time>2009-10-19T11:23:43Z</time></trkpt>
<trkpt lat="46.16809364" lon="6.02088223"><ele>452.437622</ele><time>2009-10-19T11:23:44Z</time></trkpt>
<trkpt lat="46.16815374" lon="6.02090872"><ele>451.957031</ele><time>2009-10-19T11:23:45Z</time></trkpt>
<trkpt lat="46.16821158" lon="6.02093043"><ele>450.995605</ele><time>2009-10-19T11:23:46Z</time></trkpt>
<trkpt lat="46.16826924" lon="6.02094736"><ele>450.515015</ele><time>2009-10-19T11:23:47Z</time></trkpt>
<trkpt lat="46.16832842" lon="6.02096362"><ele>450.034424</ele><time>2009-10-19T11:23:48Z</time></trkpt>
<trkpt lat="46.16838869" lon="6.02097376"><ele>449.553711</ele><time>2009-10-19T11:23:49Z</time></trkpt>
<trkpt lat="46.16844954" lon="6.02097619"><ele>449.072998</ele><time>2009-10-19T11:23:50Z</time></trkpt>
<trkpt lat="46.16850897" lon="6.02097175"><ele>449.072998</ele><time>2009-10-19T11:23:51Z</time></trkpt>
<trkpt lat="46.16856513" lon="6.02096127"><ele>448.592407</ele><time>2009-10-19T11:23:52Z</time></trkpt>
<trkpt lat="46.16861810" lon="6.02094174"><ele>448.111816</ele><time>2009-10-19T11:23:53Z</time></trkpt>
<trkpt lat="46.16867359" lon="6.02091643"><ele>447.630981</ele><time>2009-10-19T11:23:54Z</time></trkpt>
<trkpt lat="46.16872832" lon="6.02088609"><ele>447.630981</ele><time>2009-10-19T11:23:55Z</time></trkpt>
<trkpt lat="46.16878247" lon="6.02085222"><ele>447.630981</ele><time>2009-10-19T11:23:56Z</time></trkpt>
<trkpt lat="46.16883620" lon="6.02081719"><ele>447.630981</ele><time>2009-10-19T11:23:57Z</time></trkpt>
<trkpt lat="46.16889227" lon="6.02078835"><ele>447.630981</ele><time>2009-10-19T11:23:58Z</time></trkpt>
<trkpt lat="46.16894877" lon="6.02075877"><ele>447.630981</ele><time>2009-10-19T11:23:59Z</time></trkpt>
<trkpt lat="46.16900149" lon="6.02072457"><ele>447.630981</ele><time>2009-10-19T11:24:00Z</time></trkpt>
<trkpt lat="46.16905547" lon="6.02068702"><ele>448.111816</ele><time>2009-10-19T11:24:01Z</time></trkpt>
<trkpt lat="46.16911104" lon="6.02064804"><ele>447.630981</ele><time>2009-10-19T11:24:02Z</time></trkpt>
<trkpt lat="46.16916443" lon="6.02061057"><ele>448.111816</ele><time>2009-10-19T11:24:03Z</time></trkpt>
<trkpt lat="46.16921707" lon="6.02057034"><ele>447.630981</ele><time>2009-10-19T11:24:04Z</time></trkpt>
<trkpt lat="46.16926594" lon="6.02053606"><ele>448.111816</ele><time>2009-10-19T11:24:05Z</time></trkpt>
<trkpt lat="46.16931556" lon="6.02050253"><ele>448.592407</ele><time>2009-10-19T11:24:06Z</time></trkpt>
<trkpt lat="46.16936577" lon="6.02047219"><ele>448.111816</ele><time>2009-10-19T11:24:07Z</time></trkpt>
<trkpt lat="46.16941405" lon="6.02043849"><ele>447.150269</ele><time>2009-10-19T11:24:08Z</time></trkpt>
<trkpt lat="46.16946233" lon="6.02040187"><ele>447.150269</ele><time>2009-10-19T11:24:09Z</time></trkpt>
<trkpt lat="46.16951052" lon="6.02036063"><ele>447.630981</ele><time>2009-10-19T11:24:10Z</time></trkpt>
<trkpt lat="46.16955972" lon="6.02031788"><ele>447.630981</ele><time>2009-10-19T11:24:11Z</time></trkpt>
<trkpt lat="46.16961437" lon="6.02028125"><ele>447.630981</ele><time>2009-10-19T11:24:12Z</time></trkpt>
<trkpt lat="46.16966852" lon="6.02024722"><ele>447.150269</ele><time>2009-10-19T11:24:13Z</time></trkpt>
<trkpt lat="46.16971890" lon="6.02021017"><ele>447.150269</ele><time>2009-10-19T11:24:14Z</time></trkpt>
<trkpt lat="46.16977162" lon="6.02016767"><ele>446.669678</ele><time>2009-10-19T11:24:15Z</time></trkpt>
<trkpt lat="46.16982526" lon="6.02012585"><ele>446.189087</ele><time>2009-10-19T11:24:16Z</time></trkpt>
<trkpt lat="46.16987882" lon="6.02008503"><ele>446.189087</ele><time>2009-10-19T11:24:17Z</time></trkpt>
<trkpt lat="46.16993196" lon="6.02004480"><ele>445.708374</ele><time>2009-10-19T11:24:18Z</time></trkpt>
<trkpt lat="46.16998485" lon="6.02000062"><ele>445.227661</ele><time>2009-10-19T11:24:19Z</time></trkpt>
<trkpt lat="46.17003506" lon="6.01995419"><ele>445.227661</ele><time>2009-10-19T11:24:20Z</time></trkpt>
<trkpt lat="46.17008124" lon="6.01990968"><ele>445.227661</ele><time>2009-10-19T11:24:21Z</time></trkpt>
<trkpt lat="46.17012927" lon="6.01986635"><ele>445.227661</ele><time>2009-10-19T11:24:22Z</time></trkpt>
<trkpt lat="46.17017940" lon="6.01982142"><ele>444.74707</ele><time>2009-10-19T11:24:23Z</time></trkpt>
<trkpt lat="46.17022734" lon="6.01977658"><ele>444.74707</ele><time>2009-10-19T11:24:24Z</time></trkpt>
<trkpt lat="46.17027663" lon="6.01973458"><ele>444.266479</ele><time>2009-10-19T11:24:25Z</time></trkpt>
<trkpt lat="46.17032574" lon="6.01968924"><ele>443.785767</ele><time>2009-10-19T11:24:26Z</time></trkpt>
<trkpt lat="46.17037612" lon="6.01964557"><ele>443.785767</ele><time>2009-10-19T11:24:27Z</time></trkpt>
<trkpt lat="46.17042943" lon="6.01960458"><ele>443.785767</ele><time>2009-10-19T11:24:28Z</time></trkpt>
<trkpt lat="46.17048006" lon="6.01956259"><ele>443.785767</ele><time>2009-10-19T11:24:29Z</time></trkpt>
<trkpt lat="46.17052825" lon="6.01952319"><ele>443.785767</ele><time>2009-10-19T11:24:30Z</time></trkpt>
<trkpt lat="46.17058106" lon="6.01948396"><ele>443.785767</ele><time>2009-10-19T11:24:31Z</time></trkpt>
<trkpt lat="46.17063596" lon="6.01944557"><ele>443.785767</ele><time>2009-10-19T11:24:32Z</time></trkpt>
<trkpt lat="46.17069136" lon="6.01940836"><ele>443.785767</ele><time>2009-10-19T11:24:33Z</time></trkpt>
<trkpt lat="46.17074803" lon="6.01937592"><ele>443.305054</ele><time>2009-10-19T11:24:34Z</time></trkpt>
<trkpt lat="46.17080745" lon="6.01934306"><ele>442.824463</ele><time>2009-10-19T11:24:35Z</time></trkpt>
<trkpt lat="46.17086696" lon="6.01931113"><ele>442.824463</ele><time>2009-10-19T11:24:36Z</time></trkpt>
<trkpt lat="46.17092648" lon="6.01927877"><ele>442.343872</ele><time>2009-10-19T11:24:37Z</time></trkpt>
<trkpt lat="46.17098423" lon="6.01924860"><ele>442.343872</ele><time>2009-10-19T11:24:38Z</time></trkpt>
<trkpt lat="46.17103896" lon="6.01921868"><ele>442.824463</ele><time>2009-10-19T11:24:39Z</time></trkpt>
<trkpt lat="46.17109277" lon="6.01919236"><ele>442.824463</ele><time>2009-10-19T11:24:40Z</time></trkpt>
<trkpt lat="46.17114097" lon="6.01916419"><ele>442.824463</ele><time>2009-10-19T11:24:41Z</time></trkpt>
<trkpt lat="46.17119269" lon="6.01913452"><ele>442.824463</ele><time>2009-10-19T11:24:42Z</time></trkpt>
<trkpt lat="46.17124675" lon="6.01910183"><ele>442.824463</ele><time>2009-10-19T11:24:43Z</time></trkpt>
<trkpt lat="46.17130383" lon="6.01906948"><ele>442.824463</ele><time>2009-10-19T11:24:44Z</time></trkpt>
<trkpt lat="46.17136083" lon="6.01903696"><ele>442.824463</ele><time>2009-10-19T11:24:45Z</time></trkpt>
<trkpt lat="46.17141824" lon="6.01900376"><ele>443.305054</ele><time>2009-10-19T11:24:46Z</time></trkpt>
<trkpt lat="46.17147314" lon="6.01896764"><ele>443.305054</ele><time>2009-10-19T11:24:47Z</time></trkpt>
<trkpt lat="46.17152662" lon="6.01893269"><ele>443.785767</ele><time>2009-10-19T11:24:48Z</time></trkpt>
<trkpt lat="46.17157976" lon="6.01889539"><ele>443.785767</ele><time>2009-10-19T11:24:49Z</time></trkpt>
<trkpt lat="46.17163198" lon="6.01885624"><ele>444.266479</ele><time>2009-10-19T11:24:50Z</time></trkpt>
<trkpt lat="46.17168395" lon="6.01881844"><ele>445.227661</ele><time>2009-10-19T11:24:51Z</time></trkpt>
<trkpt lat="46.17173885" lon="6.01877586"><ele>444.266479</ele><time>2009-10-19T11:24:52Z</time></trkpt>
<trkpt lat="46.17179509" lon="6.01873563"><ele>443.785767</ele><time>2009-10-19T11:24:53Z</time></trkpt>
<trkpt lat="46.17185100" lon="6.01869296"><ele>443.785767</ele><time>2009-10-19T11:24:54Z</time></trkpt>
<trkpt lat="46.17190733" lon="6.01865298"><ele>443.305054</ele><time>2009-10-19T11:24:55Z</time></trkpt>
<trkpt lat="46.17196290" lon="6.01861149"><ele>443.305054</ele><time>2009-10-19T11:24:56Z</time></trkpt>
<trkpt lat="46.17201746" lon="6.01856623"><ele>442.343872</ele><time>2009-10-19T11:24:57Z</time></trkpt>
<trkpt lat="46.17207178" lon="6.01852013"><ele>442.343872</ele><time>2009-10-19T11:24:58Z</time></trkpt>
<trkpt lat="46.17212643" lon="6.01847663"><ele>441.863159</ele><time>2009-10-19T11:24:59Z</time></trkpt>
<trkpt lat="46.17217697" lon="6.01842684"><ele>441.382446</ele><time>2009-10-19T11:25:00Z</time></trkpt>
<trkpt lat="46.17222567" lon="6.01837772"><ele>440.421265</ele><time>2009-10-19T11:25:01Z</time></trkpt>
<trkpt lat="46.17227328" lon="6.01833019"><ele>440.421265</ele><time>2009-10-19T11:25:02Z</time></trkpt>
<trkpt lat="46.17232399" lon="6.01828787"><ele>439.94043</ele><time>2009-10-19T11:25:03Z</time></trkpt>
<trkpt lat="46.17236925" lon="6.01823984"><ele>440.421265</ele><time>2009-10-19T11:25:04Z</time></trkpt>
<trkpt lat="46.17241116" lon="6.01819122"><ele>440.421265</ele><time>2009-10-19T11:25:05Z</time></trkpt>
<trkpt lat="46.17245232" lon="6.01814403"><ele>440.421265</ele><time>2009-10-19T11:25:06Z</time></trkpt>
<trkpt lat="46.17249448" lon="6.01809466"><ele>440.421265</ele><time>2009-10-19T11:25:07Z</time></trkpt>
<trkpt lat="46.17253396" lon="6.01804102"><ele>440.421265</ele><time>2009-10-19T11:25:08Z</time></trkpt>
<trkpt lat="46.17257335" lon="6.01798905"><ele>440.421265</ele><time>2009-10-19T11:25:09Z</time></trkpt>
<trkpt lat="46.17261233" lon="6.01793767"><ele>440.421265</ele><time>2009-10-19T11:25:10Z</time></trkpt>
<trkpt lat="46.17265265" lon="6.01789232"><ele>439.94043</ele><time>2009-10-19T11:25:11Z</time></trkpt>
<trkpt lat="46.17269087" lon="6.01785050"><ele>439.94043</ele><time>2009-10-19T11:25:12Z</time></trkpt>
<trkpt lat="46.17272574" lon="6.01781362"><ele>439.459717</ele><time>2009-10-19T11:25:13Z</time></trkpt>
<trkpt lat="46.17275147" lon="6.01779937"><ele>439.94043</ele><time>2009-10-19T11:25:14Z</time></trkpt>
<trkpt lat="46.17277712" lon="6.01779895"><ele>440.421265</ele><time>2009-10-19T11:25:15Z</time></trkpt>
<trkpt lat="46.17280184" lon="6.01780674"><ele>440.421265</ele><time>2009-10-19T11:25:16Z</time></trkpt>
<trkpt lat="46.17282447" lon="6.01781974"><ele>439.94043</ele><time>2009-10-19T11:25:17Z</time></trkpt>
<trkpt lat="46.17284736" lon="6.01784019"><ele>439.94043</ele><time>2009-10-19T11:25:18Z</time></trkpt>
<trkpt lat="46.17287183" lon="6.01787724"><ele>440.901855</ele><time>2009-10-19T11:25:19Z</time></trkpt>
<trkpt lat="46.17289865" lon="6.01792728"><ele>441.382446</ele><time>2009-10-19T11:25:20Z</time></trkpt>
<trkpt lat="46.17293159" lon="6.01798436"><ele>442.343872</ele><time>2009-10-19T11:25:21Z</time></trkpt>
<trkpt lat="46.17296303" lon="6.01803339"><ele>442.824463</ele><time>2009-10-19T11:25:22Z</time></trkpt>
<trkpt lat="46.17299974" lon="6.01808452"><ele>443.305054</ele><time>2009-10-19T11:25:23Z</time></trkpt>
<trkpt lat="46.17303285" lon="6.01813615"><ele>443.305054</ele><time>2009-10-19T11:25:24Z</time></trkpt>
<trkpt lat="46.17306663" lon="6.01818686"><ele>443.305054</ele><time>2009-10-19T11:25:25Z</time></trkpt>
<trkpt lat="46.17310074" lon="6.01823816"><ele>443.305054</ele><time>2009-10-19T11:25:26Z</time></trkpt>
<trkpt lat="46.17313419" lon="6.01828552"><ele>443.305054</ele><time>2009-10-19T11:25:27Z</time></trkpt>
<trkpt lat="46.17316369" lon="6.01833506"><ele>443.785767</ele><time>2009-10-19T11:25:28Z</time></trkpt>
<trkpt lat="46.17319546" lon="6.01838602"><ele>444.266479</ele><time>2009-10-19T11:25:29Z</time></trkpt>
<trkpt lat="46.17322907" lon="6.01844025"><ele>444.266479</ele><time>2009-10-19T11:25:30Z</time></trkpt>
<trkpt lat="46.17326218" lon="6.01849649"><ele>444.266479</ele><time>2009-10-19T11:25:31Z</time></trkpt>
<trkpt lat="46.17329797" lon="6.01855625"><ele>444.74707</ele><time>2009-10-19T11:25:32Z</time></trkpt>
<trkpt lat="46.17333803" lon="6.01861266"><ele>444.74707</ele><time>2009-10-19T11:25:33Z</time></trkpt>
<trkpt lat="46.17338053" lon="6.01866899"><ele>444.74707</ele><time>2009-10-19T11:25:34Z</time></trkpt>
<trkpt lat="46.17341816" lon="6.01872498"><ele>444.266479</ele><time>2009-10-19T11:25:35Z</time></trkpt>
<trkpt lat="46.17346544" lon="6.01879019"><ele>443.785767</ele><time>2009-10-19T11:25:36Z</time></trkpt>
<trkpt lat="46.17352143" lon="6.01885004"><ele>444.74707</ele><time>2009-10-19T11:25:37Z</time></trkpt>
<trkpt lat="46.17357776" lon="6.01889354"><ele>445.227661</ele><time>2009-10-19T11:25:38Z</time></trkpt>
<trkpt lat="46.17362377" lon="6.01894610"><ele>445.708374</ele><time>2009-10-19T11:25:39Z</time></trkpt>
<trkpt lat="46.17366468" lon="6.01898583"><ele>445.708374</ele><time>2009-10-19T11:25:40Z</time></trkpt>
<trkpt lat="46.17370323" lon="6.01904165"><ele>445.708374</ele><time>2009-10-19T11:25:41Z</time></trkpt>
<trkpt lat="46.17374598" lon="6.01910426"><ele>446.669678</ele><time>2009-10-19T11:25:42Z</time></trkpt>
<trkpt lat="46.17378026" lon="6.01916168"><ele>446.669678</ele><time>2009-10-19T11:25:43Z</time></trkpt>
<trkpt lat="46.17381597" lon="6.01921013"><ele>446.669678</ele><time>2009-10-19T11:25:44Z</time></trkpt>
<trkpt lat="46.17385386" lon="6.01925069"><ele>446.669678</ele><time>2009-10-19T11:25:45Z</time></trkpt>
<trkpt lat="46.17389417" lon="6.01928422"><ele>446.669678</ele><time>2009-10-19T11:25:46Z</time></trkpt>
<trkpt lat="46.17393399" lon="6.01933158"><ele>446.669678</ele><time>2009-10-19T11:25:47Z</time></trkpt>
<trkpt lat="46.17398486" lon="6.01938958"><ele>447.150269</ele><time>2009-10-19T11:25:48Z</time></trkpt>
<trkpt lat="46.17404999" lon="6.01944583"><ele>447.150269</ele><time>2009-10-19T11:25:49Z</time></trkpt>
<trkpt lat="46.17408687" lon="6.01950827"><ele>447.630981</ele><time>2009-10-19T11:25:50Z</time></trkpt>
<trkpt lat="46.17411856" lon="6.01956644"><ele>447.150269</ele><time>2009-10-19T11:25:51Z</time></trkpt>
<trkpt lat="46.17414328" lon="6.01964540"><ele>445.227661</ele><time>2009-10-19T11:25:52Z</time></trkpt>
<trkpt lat="46.17417639" lon="6.01972762"><ele>444.74707</ele><time>2009-10-19T11:25:53Z</time></trkpt>
<trkpt lat="46.17420992" lon="6.01981203"><ele>444.74707</ele><time>2009-10-19T11:25:54Z</time></trkpt>
<trkpt lat="46.17424789" lon="6.01990306"><ele>444.74707</ele><time>2009-10-19T11:25:55Z</time></trkpt>
<trkpt lat="46.17428829" lon="6.01999325"><ele>445.227661</ele><time>2009-10-19T11:25:56Z</time></trkpt>
<trkpt lat="46.17433397" lon="6.02007514"><ele>444.74707</ele><time>2009-10-19T11:25:57Z</time></trkpt>
<trkpt lat="46.17438116" lon="6.02015569"><ele>444.74707</ele><time>2009-10-19T11:25:58Z</time></trkpt>
<trkpt lat="46.17442969" lon="6.02023154"><ele>444.266479</ele><time>2009-10-19T11:25:59Z</time></trkpt>
<trkpt lat="46.17448325" lon="6.02030455"><ele>444.266479</ele><time>2009-10-19T11:26:00Z</time></trkpt>
<trkpt lat="46.17453447" lon="6.02037722"><ele>444.74707</ele><time>2009-10-19T11:26:01Z</time></trkpt>
<trkpt lat="46.17458434" lon="6.02044646"><ele>444.266479</ele><time>2009-10-19T11:26:02Z</time></trkpt>
<trkpt lat="46.17463740" lon="6.02051695"><ele>445.227661</ele><time>2009-10-19T11:26:03Z</time></trkpt>
<trkpt lat="46.17468727" lon="6.02058023"><ele>444.74707</ele><time>2009-10-19T11:26:04Z</time></trkpt>
<trkpt lat="46.17473689" lon="6.02063966"><ele>444.74707</ele><time>2009-10-19T11:26:05Z</time></trkpt>
<trkpt lat="46.17479162" lon="6.02070185"><ele>445.708374</ele><time>2009-10-19T11:26:06Z</time></trkpt>
<trkpt lat="46.17484233" lon="6.02077075"><ele>445.708374</ele><time>2009-10-19T11:26:07Z</time></trkpt>
<trkpt lat="46.17487469" lon="6.02083772"><ele>444.74707</ele><time>2009-10-19T11:26:08Z</time></trkpt>
<trkpt lat="46.17490528" lon="6.02091165"><ele>444.266479</ele><time>2009-10-19T11:26:09Z</time></trkpt>
<trkpt lat="46.17492783" lon="6.02099396"><ele>444.266479</ele><time>2009-10-19T11:26:10Z</time></trkpt>
<trkpt lat="46.17494032" lon="6.02108088"><ele>444.266479</ele><time>2009-10-19T11:26:11Z</time></trkpt>
<trkpt lat="46.17495012" lon="6.02114827"><ele>442.343872</ele><time>2009-10-19T11:26:12Z</time></trkpt>
<trkpt lat="46.17497753" lon="6.02122497"><ele>441.863159</ele><time>2009-10-19T11:26:13Z</time></trkpt>
<trkpt lat="46.17501643" lon="6.02130577"><ele>441.863159</ele><time>2009-10-19T11:26:14Z</time></trkpt>
<trkpt lat="46.17503512" lon="6.02139546"><ele>439.94043</ele><time>2009-10-19T11:26:15Z</time></trkpt>
<trkpt lat="46.17504559" lon="6.02146125"><ele>437.537109</ele><time>2009-10-19T11:26:16Z</time></trkpt>
<trkpt lat="46.17506077" lon="6.02153703"><ele>436.575928</ele><time>2009-10-19T11:26:17Z</time></trkpt>
<trkpt lat="46.17507527" lon="6.02161188"><ele>435.133911</ele><time>2009-10-19T11:26:18Z</time></trkpt>
<trkpt lat="46.17508298" lon="6.02170072"><ele>434.65332</ele><time>2009-10-19T11:26:19Z</time></trkpt>
<trkpt lat="46.17505808" lon="6.02176988"><ele>433.211304</ele><time>2009-10-19T11:26:20Z</time></trkpt>
<trkpt lat="46.17504283" lon="6.02184347"><ele>432.730713</ele><time>2009-10-19T11:26:21Z</time></trkpt>
<trkpt lat="46.17502389" lon="6.02192838"><ele>432.25</ele><time>2009-10-19T11:26:22Z</time></trkpt>
<trkpt lat="46.17499949" lon="6.02201220"><ele>431.769165</ele><time>2009-10-19T11:26:23Z</time></trkpt>
<trkpt lat="46.17497359" lon="6.02209694"><ele>431.769165</ele><time>2009-10-19T11:26:24Z</time></trkpt>
<trkpt lat="46.17494468" lon="6.02218495"><ele>431.769165</ele><time>2009-10-19T11:26:25Z</time></trkpt>
<trkpt lat="46.17488533" lon="6.02225267"><ele>430.327271</ele><time>2009-10-19T11:26:26Z</time></trkpt>
<trkpt lat="46.17485206" lon="6.02233197"><ele>430.327271</ele><time>2009-10-19T11:26:27Z</time></trkpt>
<trkpt lat="46.17481233" lon="6.02240673"><ele>429.846558</ele><time>2009-10-19T11:26:28Z</time></trkpt>
<trkpt lat="46.17477109" lon="6.02248175"><ele>429.846558</ele><time>2009-10-19T11:26:29Z</time></trkpt>
<trkpt lat="46.17472960" lon="6.02255534"><ele>429.846558</ele><time>2009-10-19T11:26:30Z</time></trkpt>
<trkpt lat="46.17468333" lon="6.02262366"><ele>429.846558</ele><time>2009-10-19T11:26:31Z</time></trkpt>
<trkpt lat="46.17463497" lon="6.02268183"><ele>429.365967</ele><time>2009-10-19T11:26:32Z</time></trkpt>
<trkpt lat="46.17457503" lon="6.02274402"><ele>428.885376</ele><time>2009-10-19T11:26:33Z</time></trkpt>
<trkpt lat="46.17453086" lon="6.02281627"><ele>428.885376</ele><time>2009-10-19T11:26:34Z</time></trkpt>
<trkpt lat="46.17449138" lon="6.02289464"><ele>428.404663</ele><time>2009-10-19T11:26:35Z</time></trkpt>
<trkpt lat="46.17445232" lon="6.02297142"><ele>428.404663</ele><time>2009-10-19T11:26:36Z</time></trkpt>
<trkpt lat="46.17441427" lon="6.02304569"><ele>428.404663</ele><time>2009-10-19T11:26:37Z</time></trkpt>
<trkpt lat="46.17438862" lon="6.02312565"><ele>428.404663</ele><time>2009-10-19T11:26:38Z</time></trkpt>
<trkpt lat="46.17439114" lon="6.02320586"><ele>428.885376</ele><time>2009-10-19T11:26:39Z</time></trkpt>
<trkpt lat="46.17443908" lon="6.02328029"><ele>428.885376</ele><time>2009-10-19T11:26:40Z</time></trkpt>
<trkpt lat="46.17449197" lon="6.02334182"><ele>429.846558</ele><time>2009-10-19T11:26:41Z</time></trkpt>
<trkpt lat="46.17454587" lon="6.02340024"><ele>430.327271</ele><time>2009-10-19T11:26:42Z</time></trkpt>
<trkpt lat="46.17459817" lon="6.02346319"><ele>430.327271</ele><time>2009-10-19T11:26:43Z</time></trkpt>
<trkpt lat="46.17464243" lon="6.02354122"><ele>430.327271</ele><time>2009-10-19T11:26:44Z</time></trkpt>
<trkpt lat="46.17467805" lon="6.02363150"><ele>430.807983</ele><time>2009-10-19T11:26:45Z</time></trkpt>
<trkpt lat="46.17470596" lon="6.02372437"><ele>431.288574</ele><time>2009-10-19T11:26:46Z</time></trkpt>
<trkpt lat="46.17472909" lon="6.02381908"><ele>431.288574</ele><time>2009-10-19T11:26:47Z</time></trkpt>
<trkpt lat="46.17475097" lon="6.02391413"><ele>431.288574</ele><time>2009-10-19T11:26:48Z</time></trkpt>
<trkpt lat="46.17477335" lon="6.02400692"><ele>431.288574</ele><time>2009-10-19T11:26:49Z</time></trkpt>
<trkpt lat="46.17479456" lon="6.02410080"><ele>431.288574</ele><time>2009-10-19T11:26:50Z</time></trkpt>
<trkpt lat="46.17481694" lon="6.02419375"><ele>431.769165</ele><time>2009-10-19T11:26:51Z</time></trkpt>
<trkpt lat="46.17484024" lon="6.02428579"><ele>432.25</ele><time>2009-10-19T11:26:52Z</time></trkpt>
<trkpt lat="46.17486446" lon="6.02437656"><ele>432.730713</ele><time>2009-10-19T11:26:53Z</time></trkpt>
<trkpt lat="46.17488709" lon="6.02446793"><ele>432.730713</ele><time>2009-10-19T11:26:54Z</time></trkpt>
<trkpt lat="46.17490319" lon="6.02456356"><ele>433.211304</ele><time>2009-10-19T11:26:55Z</time></trkpt>
<trkpt lat="46.17491433" lon="6.02465702"><ele>433.211304</ele><time>2009-10-19T11:26:56Z</time></trkpt>
<trkpt lat="46.17492657" lon="6.02475048"><ele>433.211304</ele><time>2009-10-19T11:26:57Z</time></trkpt>
<trkpt lat="46.17494250" lon="6.02484587"><ele>433.211304</ele><time>2009-10-19T11:26:58Z</time></trkpt>
<trkpt lat="46.17496236" lon="6.02493756"><ele>433.211304</ele><time>2009-10-19T11:26:59Z</time></trkpt>
<trkpt lat="46.17498357" lon="6.02502960"><ele>433.691895</ele><time>2009-10-19T11:27:00Z</time></trkpt>
<trkpt lat="46.17500545" lon="6.02511937"><ele>433.691895</ele><time>2009-10-19T11:27:01Z</time></trkpt>
<trkpt lat="46.17502732" lon="6.02521048"><ele>433.691895</ele><time>2009-10-19T11:27:02Z</time></trkpt>
<trkpt lat="46.17504979" lon="6.02530352"><ele>433.691895</ele><time>2009-10-19T11:27:03Z</time></trkpt>
<trkpt lat="46.17507258" lon="6.02539496"><ele>433.691895</ele><time>2009-10-19T11:27:04Z</time></trkpt>
<trkpt lat="46.17509513" lon="6.02548733"><ele>433.691895</ele><time>2009-10-19T11:27:05Z</time></trkpt>
<trkpt lat="46.17511919" lon="6.02557828"><ele>434.172607</ele><time>2009-10-19T11:27:06Z</time></trkpt>
<trkpt lat="46.17514433" lon="6.02566687"><ele>434.172607</ele><time>2009-10-19T11:27:07Z</time></trkpt>
<trkpt lat="46.17516428" lon="6.02575748"><ele>434.172607</ele><time>2009-10-19T11:27:08Z</time></trkpt>
<trkpt lat="46.17517535" lon="6.02584977"><ele>434.65332</ele><time>2009-10-19T11:27:09Z</time></trkpt>
<trkpt lat="46.17518599" lon="6.02594105"><ele>434.65332</ele><time>2009-10-19T11:27:10Z</time></trkpt>
<trkpt lat="46.17520317" lon="6.02602579"><ele>434.65332</ele><time>2009-10-19T11:27:11Z</time></trkpt>
<trkpt lat="46.17522379" lon="6.02611346"><ele>434.65332</ele><time>2009-10-19T11:27:12Z</time></trkpt>
<trkpt lat="46.17524366" lon="6.02620122"><ele>434.65332</ele><time>2009-10-19T11:27:13Z</time></trkpt>
<trkpt lat="46.17526243" lon="6.02628923"><ele>434.65332</ele><time>2009-10-19T11:27:14Z</time></trkpt>
<trkpt lat="46.17528196" lon="6.02637397"><ele>434.65332</ele><time>2009-10-19T11:27:15Z</time></trkpt>
<trkpt lat="46.17530149" lon="6.02645880"><ele>434.65332</ele><time>2009-10-19T11:27:16Z</time></trkpt>
<trkpt lat="46.17531985" lon="6.02654429"><ele>434.65332</ele><time>2009-10-19T11:27:17Z</time></trkpt>
<trkpt lat="46.17533804" lon="6.02662979"><ele>434.65332</ele><time>2009-10-19T11:27:18Z</time></trkpt>
<trkpt lat="46.17535698" lon="6.02671084"><ele>434.65332</ele><time>2009-10-19T11:27:19Z</time></trkpt>
<trkpt lat="46.17537593" lon="6.02679047"><ele>435.133911</ele><time>2009-10-19T11:27:20Z</time></trkpt>
<trkpt lat="46.17539889" lon="6.02686733"><ele>435.133911</ele><time>2009-10-19T11:27:21Z</time></trkpt>
<trkpt lat="46.17542404" lon="6.02694117"><ele>435.614502</ele><time>2009-10-19T11:27:22Z</time></trkpt>
<trkpt lat="46.17544499" lon="6.02701234"><ele>435.614502</ele><time>2009-10-19T11:27:23Z</time></trkpt>
<trkpt lat="46.17546033" lon="6.02708124"><ele>435.614502</ele><time>2009-10-19T11:27:24Z</time></trkpt>
<trkpt lat="46.17547425" lon="6.02714905"><ele>436.095215</ele><time>2009-10-19T11:27:25Z</time></trkpt>
<trkpt lat="46.17549134" lon="6.02721216"><ele>436.095215</ele><time>2009-10-19T11:27:26Z</time></trkpt>
<trkpt lat="46.17551314" lon="6.02726622"><ele>436.095215</ele><time>2009-10-19T11:27:27Z</time></trkpt>
<trkpt lat="46.17553862" lon="6.02729925"><ele>436.575928</ele><time>2009-10-19T11:27:28Z</time></trkpt>
<trkpt lat="46.17557533" lon="6.02729799"><ele>436.095215</ele><time>2009-10-19T11:27:29Z</time></trkpt>
<trkpt lat="46.17562654" lon="6.02726815"><ele>436.095215</ele><time>2009-10-19T11:27:30Z</time></trkpt>
<trkpt lat="46.17568522" lon="6.02723278"><ele>436.095215</ele><time>2009-10-19T11:27:31Z</time></trkpt>
<trkpt lat="46.17573132" lon="6.02719699"><ele>436.095215</ele><time>2009-10-19T11:27:32Z</time></trkpt>
<trkpt lat="46.17577507" lon="6.02715584"><ele>436.095215</ele><time>2009-10-19T11:27:33Z</time></trkpt>
<trkpt lat="46.17582092" lon="6.02711426"><ele>436.575928</ele><time>2009-10-19T11:27:34Z</time></trkpt>
<trkpt lat="46.17587155" lon="6.02707302"><ele>437.056519</ele><time>2009-10-19T11:27:35Z</time></trkpt>
<trkpt lat="46.17591849" lon="6.02703237"><ele>437.056519</ele><time>2009-10-19T11:27:36Z</time></trkpt>
<trkpt lat="46.17596375" lon="6.02699323"><ele>437.056519</ele><time>2009-10-19T11:27:37Z</time></trkpt>
<trkpt lat="46.17601027" lon="6.02695827"><ele>437.537109</ele><time>2009-10-19T11:27:38Z</time></trkpt>
<trkpt lat="46.17605737" lon="6.02692064"><ele>437.537109</ele><time>2009-10-19T11:27:39Z</time></trkpt>
<trkpt lat="46.17610104" lon="6.02687295"><ele>437.537109</ele><time>2009-10-19T11:27:40Z</time></trkpt>
<trkpt lat="46.17614916" lon="6.02683372"><ele>438.017822</ele><time>2009-10-19T11:27:41Z</time></trkpt>
<trkpt lat="46.17620012" lon="6.02679717"><ele>437.537109</ele><time>2009-10-19T11:27:42Z</time></trkpt>
<trkpt lat="46.17625150" lon="6.02675677"><ele>437.056519</ele><time>2009-10-19T11:27:43Z</time></trkpt>
<trkpt lat="46.17630456" lon="6.02672065"><ele>436.575928</ele><time>2009-10-19T11:27:44Z</time></trkpt>
<trkpt lat="46.17635719" lon="6.02668553"><ele>435.614502</ele><time>2009-10-19T11:27:45Z</time></trkpt>
<trkpt lat="46.17640472" lon="6.02665368"><ele>435.614502</ele><time>2009-10-19T11:27:46Z</time></trkpt>
<trkpt lat="46.17643967" lon="6.02661772"><ele>436.095215</ele><time>2009-10-19T11:27:47Z</time></trkpt>
<trkpt lat="46.17647764" lon="6.02657849"><ele>435.614502</ele><time>2009-10-19T11:27:48Z</time></trkpt>
<trkpt lat="46.17651075" lon="6.02654127"><ele>434.65332</ele><time>2009-10-19T11:27:49Z</time></trkpt>
<trkpt lat="46.17654386" lon="6.02650858"><ele>435.133911</ele><time>2009-10-19T11:27:50Z</time></trkpt>
<trkpt lat="46.17658309" lon="6.02647388"><ele>434.65332</ele><time>2009-10-19T11:27:51Z</time></trkpt>
<trkpt lat="46.17661779" lon="6.02643382"><ele>434.65332</ele><time>2009-10-19T11:27:52Z</time></trkpt>
<trkpt lat="46.17667026" lon="6.02639979"><ele>435.133911</ele><time>2009-10-19T11:27:53Z</time></trkpt>
<trkpt lat="46.17672063" lon="6.02636894"><ele>435.133911</ele><time>2009-10-19T11:27:54Z</time></trkpt>
<trkpt lat="46.17676020" lon="6.02633692"><ele>435.133911</ele><time>2009-10-19T11:27:55Z</time></trkpt>
<trkpt lat="46.17679917" lon="6.02629753"><ele>435.133911</ele><time>2009-10-19T11:27:56Z</time></trkpt>
<trkpt lat="46.17683773" lon="6.02625704"><ele>434.65332</ele><time>2009-10-19T11:27:57Z</time></trkpt>
<trkpt lat="46.17687000" lon="6.02622662"><ele>434.172607</ele><time>2009-10-19T11:27:58Z</time></trkpt>
<trkpt lat="46.17689347" lon="6.02620516"><ele>434.172607</ele><time>2009-10-19T11:27:59Z</time></trkpt>
<trkpt lat="46.17691786" lon="6.02619887"><ele>433.691895</ele><time>2009-10-19T11:28:00Z</time></trkpt>
<trkpt lat="46.17694493" lon="6.02619393"><ele>433.211304</ele><time>2009-10-19T11:28:01Z</time></trkpt>
<trkpt lat="46.17696128" lon="6.02618119"><ele>432.25</ele><time>2009-10-19T11:28:02Z</time></trkpt>
<trkpt lat="46.17697318" lon="6.02617255"><ele>432.730713</ele><time>2009-10-19T11:28:03Z</time></trkpt>
<trkpt lat="46.17698508" lon="6.02615713"><ele>431.769165</ele><time>2009-10-19T11:28:04Z</time></trkpt>
<trkpt lat="46.17699573" lon="6.02612997"><ele>430.807983</ele><time>2009-10-19T11:28:05Z</time></trkpt>
<trkpt lat="46.17700780" lon="6.02609888"><ele>429.365967</ele><time>2009-10-19T11:28:06Z</time></trkpt>
<trkpt lat="46.17702096" lon="6.02605856"><ele>427.443359</ele><time>2009-10-19T11:28:07Z</time></trkpt>
<trkpt lat="46.17703873" lon="6.02602579"><ele>426.482056</ele><time>2009-10-19T11:28:08Z</time></trkpt>
<trkpt lat="46.17706563" lon="6.02600659"><ele>425.520752</ele><time>2009-10-19T11:28:09Z</time></trkpt>
<trkpt lat="46.17712573" lon="6.02599570"><ele>426.001343</ele><time>2009-10-19T11:28:10Z</time></trkpt>
<trkpt lat="46.17719647" lon="6.02599469"><ele>426.482056</ele><time>2009-10-19T11:28:11Z</time></trkpt>
<trkpt lat="46.17724844" lon="6.02600466"><ele>426.482056</ele><time>2009-10-19T11:28:12Z</time></trkpt>
<trkpt lat="46.17730938" lon="6.02602989"><ele>425.520752</ele><time>2009-10-19T11:28:13Z</time></trkpt>
<trkpt lat="46.17736638" lon="6.02607172"><ele>425.040161</ele><time>2009-10-19T11:28:14Z</time></trkpt>
<trkpt lat="46.17741038" lon="6.02611899"><ele>424.559448</ele><time>2009-10-19T11:28:15Z</time></trkpt>
<trkpt lat="46.17745296" lon="6.02617356"><ele>423.598022</ele><time>2009-10-19T11:28:16Z</time></trkpt>
<trkpt lat="46.17748800" lon="6.02623533"><ele>423.117432</ele><time>2009-10-19T11:28:17Z</time></trkpt>
<trkpt lat="46.17751574" lon="6.02629459"><ele>422.156006</ele><time>2009-10-19T11:28:18Z</time></trkpt>
<trkpt lat="46.17755564" lon="6.02635863"><ele>422.156006</ele><time>2009-10-19T11:28:19Z</time></trkpt>
<trkpt lat="46.17759990" lon="6.02643658"><ele>422.636719</ele><time>2009-10-19T11:28:20Z</time></trkpt>
<trkpt lat="46.17762923" lon="6.02651143"><ele>422.636719</ele><time>2009-10-19T11:28:21Z</time></trkpt>
<trkpt lat="46.17765446" lon="6.02658293"><ele>422.156006</ele><time>2009-10-19T11:28:22Z</time></trkpt>
<trkpt lat="46.17767642" lon="6.02664747"><ele>421.194824</ele><time>2009-10-19T11:28:23Z</time></trkpt>
<trkpt lat="46.17770023" lon="6.02671059"><ele>421.194824</ele><time>2009-10-19T11:28:24Z</time></trkpt>
<trkpt lat="46.17773367" lon="6.02675912"><ele>421.675415</ele><time>2009-10-19T11:28:25Z</time></trkpt>
<trkpt lat="46.17776217" lon="6.02679298"><ele>422.636719</ele><time>2009-10-19T11:28:26Z</time></trkpt>
<trkpt lat="46.17777860" lon="6.02681352"><ele>421.675415</ele><time>2009-10-19T11:28:27Z</time></trkpt>
<trkpt lat="46.17780995" lon="6.02682995"><ele>421.194824</ele><time>2009-10-19T11:28:28Z</time></trkpt>
<trkpt lat="46.17783694" lon="6.02683062"><ele>420.714111</ele><time>2009-10-19T11:28:29Z</time></trkpt>
<trkpt lat="46.17786116" lon="6.02680723"><ele>420.714111</ele><time>2009-10-19T11:28:30Z</time></trkpt>
<trkpt lat="46.17788664" lon="6.02676767"><ele>419.752808</ele><time>2009-10-19T11:28:31Z</time></trkpt>
<trkpt lat="46.17791313" lon="6.02672794"><ele>418.791504</ele><time>2009-10-19T11:28:32Z</time></trkpt>
<trkpt lat="46.17794699" lon="6.02669056"><ele>417.8302</ele><time>2009-10-19T11:28:33Z</time></trkpt>
<trkpt lat="46.17799108" lon="6.02667086"><ele>417.349609</ele><time>2009-10-19T11:28:34Z</time></trkpt>
<trkpt lat="46.17803877" lon="6.02665912"><ele>415.42688</ele><time>2009-10-19T11:28:35Z</time></trkpt>
<trkpt lat="46.17808026" lon="6.02666499"><ele>413.504272</ele><time>2009-10-19T11:28:36Z</time></trkpt>
<trkpt lat="46.17812628" lon="6.02668787"><ele>412.062256</ele><time>2009-10-19T11:28:37Z</time></trkpt>
<trkpt lat="46.17817498" lon="6.02672718"><ele>410.620239</ele><time>2009-10-19T11:28:38Z</time></trkpt>
<trkpt lat="46.17822267" lon="6.02679717"><ele>409.178345</ele><time>2009-10-19T11:28:39Z</time></trkpt>
<trkpt lat="46.17827288" lon="6.02686264"><ele>408.217041</ele><time>2009-10-19T11:28:40Z</time></trkpt>
<trkpt lat="46.17832527" lon="6.02691879"><ele>407.255615</ele><time>2009-10-19T11:28:41Z</time></trkpt>
<trkpt lat="46.17837816" lon="6.02697370"><ele>406.774902</ele><time>2009-10-19T11:28:42Z</time></trkpt>
<trkpt lat="46.17842954" lon="6.02702156"><ele>405.813721</ele><time>2009-10-19T11:28:43Z</time></trkpt>
<trkpt lat="46.17848167" lon="6.02707277"><ele>405.333008</ele><time>2009-10-19T11:28:44Z</time></trkpt>
<trkpt lat="46.17856608" lon="6.02713605"><ele>406.774902</ele><time>2009-10-19T11:28:45Z</time></trkpt>
<trkpt lat="46.17863246" lon="6.02718878"><ele>407.736328</ele><time>2009-10-19T11:28:46Z</time></trkpt>
<trkpt lat="46.17867127" lon="6.02722457"><ele>407.255615</ele><time>2009-10-19T11:28:47Z</time></trkpt>
<trkpt lat="46.17871452" lon="6.02725935"><ele>406.774902</ele><time>2009-10-19T11:28:48Z</time></trkpt>
<trkpt lat="46.17875216" lon="6.02728969"><ele>404.852295</ele><time>2009-10-19T11:28:49Z</time></trkpt>
<trkpt lat="46.17878954" lon="6.02731870"><ele>404.852295</ele><time>2009-10-19T11:28:50Z</time></trkpt>
<trkpt lat="46.17883472" lon="6.02734937"><ele>404.852295</ele><time>2009-10-19T11:28:51Z</time></trkpt>
<trkpt lat="46.17886556" lon="6.02736756"><ele>404.852295</ele><time>2009-10-19T11:28:52Z</time></trkpt>
<trkpt lat="46.17892114" lon="6.02739254"><ele>405.333008</ele><time>2009-10-19T11:28:53Z</time></trkpt>
<trkpt lat="46.17897537" lon="6.02742565"><ele>405.813721</ele><time>2009-10-19T11:28:54Z</time></trkpt>
<trkpt lat="46.17900336" lon="6.02745985"><ele>406.294312</ele><time>2009-10-19T11:28:55Z</time></trkpt>
<trkpt lat="46.17904535" lon="6.02750050"><ele>406.774902</ele><time>2009-10-19T11:28:56Z</time></trkpt>
<trkpt lat="46.17906455" lon="6.02754744"><ele>406.774902</ele><time>2009-10-19T11:28:57Z</time></trkpt>
<trkpt lat="46.17908827" lon="6.02759178"><ele>406.774902</ele><time>2009-10-19T11:28:58Z</time></trkpt>
<trkpt lat="46.17912515" lon="6.02763293"><ele>407.736328</ele><time>2009-10-19T11:28:59Z</time></trkpt>
<trkpt lat="46.17916178" lon="6.02767543"><ele>408.697632</ele><time>2009-10-19T11:29:00Z</time></trkpt>
<trkpt lat="46.17918952" lon="6.02771994"><ele>408.217041</ele><time>2009-10-19T11:29:01Z</time></trkpt>
<trkpt lat="46.17920486" lon="6.02775833"><ele>407.736328</ele><time>2009-10-19T11:29:02Z</time></trkpt>
<trkpt lat="46.17922012" lon="6.02779227"><ele>407.736328</ele><time>2009-10-19T11:29:03Z</time></trkpt>
<trkpt lat="46.17924644" lon="6.02783536"><ele>408.217041</ele><time>2009-10-19T11:29:04Z</time></trkpt>
<trkpt lat="46.17927066" lon="6.02788615"><ele>408.217041</ele><time>2009-10-19T11:29:05Z</time></trkpt>
<trkpt lat="46.17929329" lon="6.02793636"><ele>407.736328</ele><time>2009-10-19T11:29:06Z</time></trkpt>
<trkpt lat="46.17931995" lon="6.02798623"><ele>407.736328</ele><time>2009-10-19T11:29:07Z</time></trkpt>
<trkpt lat="46.17933906" lon="6.02802705"><ele>406.774902</ele><time>2009-10-19T11:29:08Z</time></trkpt>
<trkpt lat="46.17937208" lon="6.02806284"><ele>407.736328</ele><time>2009-10-19T11:29:09Z</time></trkpt>
<trkpt lat="46.17939555" lon="6.02810224"><ele>407.255615</ele><time>2009-10-19T11:29:10Z</time></trkpt>
<trkpt lat="46.17942832" lon="6.02814272"><ele>406.774902</ele><time>2009-10-19T11:29:11Z</time></trkpt>
<trkpt lat="46.17946177" lon="6.02819167"><ele>406.294312</ele><time>2009-10-19T11:29:12Z</time></trkpt>
<trkpt lat="46.17948985" lon="6.02823232"><ele>405.333008</ele><time>2009-10-19T11:29:13Z</time></trkpt>
<trkpt lat="46.17950644" lon="6.02827289"><ele>404.371704</ele><time>2009-10-19T11:29:14Z</time></trkpt>
<trkpt lat="46.17953897" lon="6.02832058"><ele>404.371704</ele><time>2009-10-19T11:29:15Z</time></trkpt>
<trkpt lat="46.17957040" lon="6.02837238"><ele>404.371704</ele><time>2009-10-19T11:29:16Z</time></trkpt>
<trkpt lat="46.17960703" lon="6.02842335"><ele>403.891113</ele><time>2009-10-19T11:29:17Z</time></trkpt>
<trkpt lat="46.17962756" lon="6.02848018"><ele>402.449097</ele><time>2009-10-19T11:29:18Z</time></trkpt>
<trkpt lat="46.17965589" lon="6.02854229"><ele>401.487793</ele><time>2009-10-19T11:29:19Z</time></trkpt>
<trkpt lat="46.17968163" lon="6.02859543"><ele>400.045898</ele><time>2009-10-19T11:29:20Z</time></trkpt>
<trkpt lat="46.17970878" lon="6.02864178"><ele>398.60376</ele><time>2009-10-19T11:29:21Z</time></trkpt>
<trkpt lat="46.17972806" lon="6.02869517"><ele>397.642456</ele><time>2009-10-19T11:29:22Z</time></trkpt>
<trkpt lat="46.17973686" lon="6.02874697"><ele>395.719849</ele><time>2009-10-19T11:29:23Z</time></trkpt>
<trkpt lat="46.17974759" lon="6.02880145"><ele>393.797241</ele><time>2009-10-19T11:29:24Z</time></trkpt>
<trkpt lat="46.17976025" lon="6.02886013"><ele>392.355347</ele><time>2009-10-19T11:29:25Z</time></trkpt>
<trkpt lat="46.17977274" lon="6.02892098"><ele>390.913208</ele><time>2009-10-19T11:29:26Z</time></trkpt>
<trkpt lat="46.17979059" lon="6.02898326"><ele>390.432617</ele><time>2009-10-19T11:29:27Z</time></trkpt>
<trkpt lat="46.17979788" lon="6.02904436"><ele>388.990601</ele><time>2009-10-19T11:29:28Z</time></trkpt>
<trkpt lat="46.17981046" lon="6.02908686"><ele>388.029297</ele><time>2009-10-19T11:29:29Z</time></trkpt>
<trkpt lat="46.17983703" lon="6.02911326"><ele>387.067993</ele><time>2009-10-19T11:29:30Z</time></trkpt>
<trkpt lat="46.17988187" lon="6.02912625"><ele>386.106689</ele><time>2009-10-19T11:29:31Z</time></trkpt>
<trkpt lat="46.17993317" lon="6.02912240"><ele>385.625977</ele><time>2009-10-19T11:29:32Z</time></trkpt>
<trkpt lat="46.17996753" lon="6.02912215"><ele>384.664795</ele><time>2009-10-19T11:29:33Z</time></trkpt>
<trkpt lat="46.18001179" lon="6.02910706"><ele>383.222656</ele><time>2009-10-19T11:29:34Z</time></trkpt>
<trkpt lat="46.18006434" lon="6.02907630"><ele>382.742065</ele><time>2009-10-19T11:29:35Z</time></trkpt>
<trkpt lat="46.18012687" lon="6.02905886"><ele>381.78064</ele><time>2009-10-19T11:29:36Z</time></trkpt>
<trkpt lat="46.18018764" lon="6.02904889"><ele>381.300049</ele><time>2009-10-19T11:29:37Z</time></trkpt>
<trkpt lat="46.18029728" lon="6.02905375"><ele>384.664795</ele><time>2009-10-19T11:29:38Z</time></trkpt>
<trkpt lat="46.18035369" lon="6.02905375"><ele>383.703247</ele><time>2009-10-19T11:29:39Z</time></trkpt>
<trkpt lat="46.18040054" lon="6.02905576"><ele>381.78064</ele><time>2009-10-19T11:29:40Z</time></trkpt>
<trkpt lat="46.18045117" lon="6.02906632"><ele>380.819458</ele><time>2009-10-19T11:29:41Z</time></trkpt>
<trkpt lat="46.18049492" lon="6.02907998"><ele>380.338745</ele><time>2009-10-19T11:29:42Z</time></trkpt>
<trkpt lat="46.18052853" lon="6.02909273"><ele>378.896851</ele><time>2009-10-19T11:29:43Z</time></trkpt>
<trkpt lat="46.18055209" lon="6.02908895"><ele>376.49353</ele><time>2009-10-19T11:29:44Z</time></trkpt>
<trkpt lat="46.18058109" lon="6.02907144"><ele>374.570801</ele><time>2009-10-19T11:29:45Z</time></trkpt>
<trkpt lat="46.18061579" lon="6.02904520"><ele>374.090088</ele><time>2009-10-19T11:29:46Z</time></trkpt>
<trkpt lat="46.18065418" lon="6.02901544"><ele>372.648193</ele><time>2009-10-19T11:29:47Z</time></trkpt>
<trkpt lat="46.18068025" lon="6.02898284"><ele>371.206299</ele><time>2009-10-19T11:29:48Z</time></trkpt>
<trkpt lat="46.18070799" lon="6.02896297"><ele>368.802979</ele><time>2009-10-19T11:29:49Z</time></trkpt>
<trkpt lat="46.18073397" lon="6.02896356"><ele>366.399536</ele><time>2009-10-19T11:29:50Z</time></trkpt>
<trkpt lat="46.18075317" lon="6.02898108"><ele>364.476929</ele><time>2009-10-19T11:29:51Z</time></trkpt>
<trkpt lat="46.18076943" lon="6.02902089"><ele>362.554321</ele><time>2009-10-19T11:29:52Z</time></trkpt>
<trkpt lat="46.18078368" lon="6.02907554"><ele>361.112427</ele><time>2009-10-19T11:29:53Z</time></trkpt>
<trkpt lat="46.18079759" lon="6.02913505"><ele>360.151123</ele><time>2009-10-19T11:29:54Z</time></trkpt>
<trkpt lat="46.18083104" lon="6.02919943"><ele>359.67041</ele><time>2009-10-19T11:29:55Z</time></trkpt>
<trkpt lat="46.18086875" lon="6.02925994"><ele>360.151123</ele><time>2009-10-19T11:29:56Z</time></trkpt>
<trkpt lat="46.18090773" lon="6.02931837"><ele>360.631714</ele><time>2009-10-19T11:29:57Z</time></trkpt>
<trkpt lat="46.18094469" lon="6.02937243"><ele>361.112427</ele><time>2009-10-19T11:29:58Z</time></trkpt>
<trkpt lat="46.18098434" lon="6.02942817"><ele>362.07373</ele><time>2009-10-19T11:29:59Z</time></trkpt>
<trkpt lat="46.18101963" lon="6.02947628"><ele>362.07373</ele><time>2009-10-19T11:30:00Z</time></trkpt>
<trkpt lat="46.18105575" lon="6.02952548"><ele>362.07373</ele><time>2009-10-19T11:30:01Z</time></trkpt>
<trkpt lat="46.18109314" lon="6.02957536"><ele>362.554321</ele><time>2009-10-19T11:30:02Z</time></trkpt>
<trkpt lat="46.18113086" lon="6.02962162"><ele>363.035034</ele><time>2009-10-19T11:30:03Z</time></trkpt>
<trkpt lat="46.18116816" lon="6.02966513"><ele>363.035034</ele><time>2009-10-19T11:30:04Z</time></trkpt>
<trkpt lat="46.18120579" lon="6.02971123"><ele>363.515747</ele><time>2009-10-19T11:30:05Z</time></trkpt>
<trkpt lat="46.18123965" lon="6.02975749"><ele>363.515747</ele><time>2009-10-19T11:30:06Z</time></trkpt>
<trkpt lat="46.18127628" lon="6.02980234"><ele>363.996338</ele><time>2009-10-19T11:30:07Z</time></trkpt>
<trkpt lat="46.18131568" lon="6.02984508"><ele>364.476929</ele><time>2009-10-19T11:30:08Z</time></trkpt>
<trkpt lat="46.18135532" lon="6.02988842"><ele>364.957642</ele><time>2009-10-19T11:30:09Z</time></trkpt>
<trkpt lat="46.18139447" lon="6.02992966"><ele>364.957642</ele><time>2009-10-19T11:30:10Z</time></trkpt>
<trkpt lat="46.18143604" lon="6.02996939"><ele>365.438354</ele><time>2009-10-19T11:30:11Z</time></trkpt>
<trkpt lat="46.18148005" lon="6.03000375"><ele>365.438354</ele><time>2009-10-19T11:30:12Z</time></trkpt>
<trkpt lat="46.18152615" lon="6.03003125"><ele>365.438354</ele><time>2009-10-19T11:30:13Z</time></trkpt>
<trkpt lat="46.18157074" lon="6.03005044"><ele>365.438354</ele><time>2009-10-19T11:30:14Z</time></trkpt>
<trkpt lat="46.18162178" lon="6.03006494"><ele>365.438354</ele><time>2009-10-19T11:30:15Z</time></trkpt>
<trkpt lat="46.18167249" lon="6.03007450"><ele>365.438354</ele><time>2009-10-19T11:30:16Z</time></trkpt>
<trkpt lat="46.18171616" lon="6.03007986"><ele>365.438354</ele><time>2009-10-19T11:30:17Z</time></trkpt>
<trkpt lat="46.18175900" lon="6.03008372"><ele>364.957642</ele><time>2009-10-19T11:30:18Z</time></trkpt>
<trkpt lat="46.18180786" lon="6.03008908"><ele>364.957642</ele><time>2009-10-19T11:30:19Z</time></trkpt>
<trkpt lat="46.18185824" lon="6.03009562"><ele>365.438354</ele><time>2009-10-19T11:30:20Z</time></trkpt>
<trkpt lat="46.18190459" lon="6.03010300"><ele>365.438354</ele><time>2009-10-19T11:30:21Z</time></trkpt>
<trkpt lat="46.18195748" lon="6.03011414"><ele>365.918945</ele><time>2009-10-19T11:30:22Z</time></trkpt>
<trkpt lat="46.18200576" lon="6.03012739"><ele>366.399536</ele><time>2009-10-19T11:30:23Z</time></trkpt>
<trkpt lat="46.18205882" lon="6.03014373"><ele>367.360962</ele><time>2009-10-19T11:30:24Z</time></trkpt>
<trkpt lat="46.18209762" lon="6.03015815"><ele>367.360962</ele><time>2009-10-19T11:30:25Z</time></trkpt>
<trkpt lat="46.18213652" lon="6.03017282"><ele>367.360962</ele><time>2009-10-19T11:30:26Z</time></trkpt>
<trkpt lat="46.18217859" lon="6.03018648"><ele>367.841553</ele><time>2009-10-19T11:30:27Z</time></trkpt>
<trkpt lat="46.18222260" lon="6.03019855"><ele>367.841553</ele><time>2009-10-19T11:30:28Z</time></trkpt>
<trkpt lat="46.18226769" lon="6.03020919"><ele>367.841553</ele><time>2009-10-19T11:30:29Z</time></trkpt>
<trkpt lat="46.18231287" lon="6.03021850"><ele>367.841553</ele><time>2009-10-19T11:30:30Z</time></trkpt>
<trkpt lat="46.18236216" lon="6.03022613"><ele>367.841553</ele><time>2009-10-19T11:30:31Z</time></trkpt>
<trkpt lat="46.18241295" lon="6.03023509"><ele>367.841553</ele><time>2009-10-19T11:30:32Z</time></trkpt>
<trkpt lat="46.18246257" lon="6.03024507"><ele>367.841553</ele><time>2009-10-19T11:30:33Z</time></trkpt>
<trkpt lat="46.18251270" lon="6.03025362"><ele>367.841553</ele><time>2009-10-19T11:30:34Z</time></trkpt>
<trkpt lat="46.18256383" lon="6.03026158"><ele>367.841553</ele><time>2009-10-19T11:30:35Z</time></trkpt>
<trkpt lat="46.18261538" lon="6.03027139"><ele>367.841553</ele><time>2009-10-19T11:30:36Z</time></trkpt>
<trkpt lat="46.18266676" lon="6.03028178"><ele>367.841553</ele><time>2009-10-19T11:30:37Z</time></trkpt>
<trkpt lat="46.18271805" lon="6.03028824"><ele>367.841553</ele><time>2009-10-19T11:30:38Z</time></trkpt>
<trkpt lat="46.18276918" lon="6.03029310"><ele>367.841553</ele><time>2009-10-19T11:30:39Z</time></trkpt>
<trkpt lat="46.18282065" lon="6.03029897"><ele>367.841553</ele><time>2009-10-19T11:30:40Z</time></trkpt>
<trkpt lat="46.18287203" lon="6.03030466"><ele>367.841553</ele><time>2009-10-19T11:30:41Z</time></trkpt>
<trkpt lat="46.18292383" lon="6.03031070"><ele>367.841553</ele><time>2009-10-19T11:30:42Z</time></trkpt>
<trkpt lat="46.18297588" lon="6.03031707"><ele>367.841553</ele><time>2009-10-19T11:30:43Z</time></trkpt>
<trkpt lat="46.18302743" lon="6.03032344"><ele>367.841553</ele><time>2009-10-19T11:30:44Z</time></trkpt>
<trkpt lat="46.18307906" lon="6.03032964"><ele>367.841553</ele><time>2009-10-19T11:30:45Z</time></trkpt>
<trkpt lat="46.18313053" lon="6.03033585"><ele>367.841553</ele><time>2009-10-19T11:30:46Z</time></trkpt>
<trkpt lat="46.18318174" lon="6.03034188"><ele>367.841553</ele><time>2009-10-19T11:30:47Z</time></trkpt>
<trkpt lat="46.18323279" lon="6.03034766"><ele>367.841553</ele><time>2009-10-19T11:30:48Z</time></trkpt>
<trkpt lat="46.18328366" lon="6.03035412"><ele>367.841553</ele><time>2009-10-19T11:30:49Z</time></trkpt>
<trkpt lat="46.18333479" lon="6.03035999"><ele>367.841553</ele><time>2009-10-19T11:30:50Z</time></trkpt>
<trkpt lat="46.18338659" lon="6.03036476"><ele>367.841553</ele><time>2009-10-19T11:30:51Z</time></trkpt>
<trkpt lat="46.18343915" lon="6.03037038"><ele>368.322266</ele><time>2009-10-19T11:30:52Z</time></trkpt>
<trkpt lat="46.18349179" lon="6.03037633"><ele>368.322266</ele><time>2009-10-19T11:30:53Z</time></trkpt>
<trkpt lat="46.18354367" lon="6.03038262"><ele>368.322266</ele><time>2009-10-19T11:30:54Z</time></trkpt>
<trkpt lat="46.18359505" lon="6.03038957"><ele>368.322266</ele><time>2009-10-19T11:30:55Z</time></trkpt>
<trkpt lat="46.18364618" lon="6.03039712"><ele>368.322266</ele><time>2009-10-19T11:30:56Z</time></trkpt>
<trkpt lat="46.18369740" lon="6.03040407"><ele>368.322266</ele><time>2009-10-19T11:30:57Z</time></trkpt>
<trkpt lat="46.18374869" lon="6.03041003"><ele>368.322266</ele><time>2009-10-19T11:30:58Z</time></trkpt>
<trkpt lat="46.18380007" lon="6.03041732"><ele>368.322266</ele><time>2009-10-19T11:30:59Z</time></trkpt>
<trkpt lat="46.18385162" lon="6.03042595"><ele>368.322266</ele><time>2009-10-19T11:31:00Z</time></trkpt>
<trkpt lat="46.18390334" lon="6.03043534"><ele>368.322266</ele><time>2009-10-19T11:31:01Z</time></trkpt>
<trkpt lat="46.18395539" lon="6.03044238"><ele>368.322266</ele><time>2009-10-19T11:31:02Z</time></trkpt>
<trkpt lat="46.18400744" lon="6.03044833"><ele>368.802979</ele><time>2009-10-19T11:31:03Z</time></trkpt>
<trkpt lat="46.18405916" lon="6.03045696"><ele>368.802979</ele><time>2009-10-19T11:31:04Z</time></trkpt>
<trkpt lat="46.18411079" lon="6.03046585"><ele>368.802979</ele><time>2009-10-19T11:31:05Z</time></trkpt>
<trkpt lat="46.18416192" lon="6.03047297"><ele>368.802979</ele><time>2009-10-19T11:31:06Z</time></trkpt>
<trkpt lat="46.18421389" lon="6.03047943"><ele>368.802979</ele><time>2009-10-19T11:31:07Z</time></trkpt>
<trkpt lat="46.18426619" lon="6.03048873"><ele>368.802979</ele><time>2009-10-19T11:31:08Z</time></trkpt>
<trkpt lat="46.18431833" lon="6.03049720"><ele>368.802979</ele><time>2009-10-19T11:31:09Z</time></trkpt>
<trkpt lat="46.18437055" lon="6.03050499"><ele>368.802979</ele><time>2009-10-19T11:31:10Z</time></trkpt>
<trkpt lat="46.18441815" lon="6.03051329"><ele>368.802979</ele><time>2009-10-19T11:31:11Z</time></trkpt>
<trkpt lat="46.18446895" lon="6.03052402"><ele>368.322266</ele><time>2009-10-19T11:31:12Z</time></trkpt>
<trkpt lat="46.18451949" lon="6.03053198"><ele>368.322266</ele><time>2009-10-19T11:31:13Z</time></trkpt>
<trkpt lat="46.18456995" lon="6.03053642"><ele>368.322266</ele><time>2009-10-19T11:31:14Z</time></trkpt>
<trkpt lat="46.18462066" lon="6.03054196"><ele>368.322266</ele><time>2009-10-19T11:31:15Z</time></trkpt>
<trkpt lat="46.18467129" lon="6.03054849"><ele>368.322266</ele><time>2009-10-19T11:31:16Z</time></trkpt>
<trkpt lat="46.18472116" lon="6.03055579"><ele>368.322266</ele><time>2009-10-19T11:31:17Z</time></trkpt>
<trkpt lat="46.18477070" lon="6.03056492"><ele>368.322266</ele><time>2009-10-19T11:31:18Z</time></trkpt>
<trkpt lat="46.18481990" lon="6.03057456"><ele>368.322266</ele><time>2009-10-19T11:31:19Z</time></trkpt>
<trkpt lat="46.18486919" lon="6.03058345"><ele>368.322266</ele><time>2009-10-19T11:31:20Z</time></trkpt>
<trkpt lat="46.18491864" lon="6.03058973"><ele>368.802979</ele><time>2009-10-19T11:31:21Z</time></trkpt>
<trkpt lat="46.18496826" lon="6.03059468"><ele>368.802979</ele><time>2009-10-19T11:31:22Z</time></trkpt>
<trkpt lat="46.18501813" lon="6.03060063"><ele>368.802979</ele><time>2009-10-19T11:31:23Z</time></trkpt>
<trkpt lat="46.18506809" lon="6.03060549"><ele>368.802979</ele><time>2009-10-19T11:31:24Z</time></trkpt>
<trkpt lat="46.18511779" lon="6.03060968"><ele>368.802979</ele><time>2009-10-19T11:31:25Z</time></trkpt>
<trkpt lat="46.18516272" lon="6.03061362"><ele>368.802979</ele><time>2009-10-19T11:31:26Z</time></trkpt>
<trkpt lat="46.18520756" lon="6.03061907"><ele>368.322266</ele><time>2009-10-19T11:31:27Z</time></trkpt>
<trkpt lat="46.18524964" lon="6.03062670"><ele>368.322266</ele><time>2009-10-19T11:31:28Z</time></trkpt>
<trkpt lat="46.18528878" lon="6.03063692"><ele>367.841553</ele><time>2009-10-19T11:31:29Z</time></trkpt>
<trkpt lat="46.18532809" lon="6.03065377"><ele>367.841553</ele><time>2009-10-19T11:31:30Z</time></trkpt>
<trkpt lat="46.18536456" lon="6.03067523"><ele>367.841553</ele><time>2009-10-19T11:31:31Z</time></trkpt>
<trkpt lat="46.18540177" lon="6.03070406"><ele>367.841553</ele><time>2009-10-19T11:31:32Z</time></trkpt>
<trkpt lat="46.18543513" lon="6.03073684"><ele>367.841553</ele><time>2009-10-19T11:31:33Z</time></trkpt>
<trkpt lat="46.18546179" lon="6.03077145"><ele>367.841553</ele><time>2009-10-19T11:31:34Z</time></trkpt>
<trkpt lat="46.18548710" lon="6.03080976"><ele>367.841553</ele><time>2009-10-19T11:31:35Z</time></trkpt>
<trkpt lat="46.18551535" lon="6.03084915"><ele>367.841553</ele><time>2009-10-19T11:31:36Z</time></trkpt>
<trkpt lat="46.18554736" lon="6.03089207"><ele>368.322266</ele><time>2009-10-19T11:31:37Z</time></trkpt>
<trkpt lat="46.18557536" lon="6.03093867"><ele>368.322266</ele><time>2009-10-19T11:31:38Z</time></trkpt>
<trkpt lat="46.18559958" lon="6.03098704"><ele>368.802979</ele><time>2009-10-19T11:31:39Z</time></trkpt>
<trkpt lat="46.18561685" lon="6.03103045"><ele>368.322266</ele><time>2009-10-19T11:31:40Z</time></trkpt>
<trkpt lat="46.18563537" lon="6.03107027"><ele>368.322266</ele><time>2009-10-19T11:31:41Z</time></trkpt>
<trkpt lat="46.18566086" lon="6.03111092"><ele>368.802979</ele><time>2009-10-19T11:31:42Z</time></trkpt>
<trkpt lat="46.18569103" lon="6.03115995"><ele>369.283691</ele><time>2009-10-19T11:31:43Z</time></trkpt>
<trkpt lat="46.18572179" lon="6.03121083"><ele>370.244873</ele><time>2009-10-19T11:31:44Z</time></trkpt>
<trkpt lat="46.18574610" lon="6.03125685"><ele>370.244873</ele><time>2009-10-19T11:31:45Z</time></trkpt>
<trkpt lat="46.18577057" lon="6.03130018"><ele>370.244873</ele><time>2009-10-19T11:31:46Z</time></trkpt>
<trkpt lat="46.18579656" lon="6.03134243"><ele>370.725586</ele><time>2009-10-19T11:31:47Z</time></trkpt>
<trkpt lat="46.18582388" lon="6.03138166"><ele>371.206299</ele><time>2009-10-19T11:31:48Z</time></trkpt>
<trkpt lat="46.18584828" lon="6.03142122"><ele>371.206299</ele><time>2009-10-19T11:31:49Z</time></trkpt>
<trkpt lat="46.18587065" lon="6.03145869"><ele>372.16748</ele><time>2009-10-19T11:31:50Z</time></trkpt>
<trkpt lat="46.18588960" lon="6.03149624"><ele>373.128906</ele><time>2009-10-19T11:31:51Z</time></trkpt>
<trkpt lat="46.18590678" lon="6.03153069"><ele>373.609497</ele><time>2009-10-19T11:31:52Z</time></trkpt>
<trkpt lat="46.18593520" lon="6.03157444"><ele>373.609497</ele><time>2009-10-19T11:31:53Z</time></trkpt>
<trkpt lat="46.18595942" lon="6.03162465"><ele>372.648193</ele><time>2009-10-19T11:31:54Z</time></trkpt>
<trkpt lat="46.18597962" lon="6.03167485"><ele>373.128906</ele><time>2009-10-19T11:31:55Z</time></trkpt>
<trkpt lat="46.18600292" lon="6.03172188"><ele>372.648193</ele><time>2009-10-19T11:31:56Z</time></trkpt>
<trkpt lat="46.18603075" lon="6.03176764"><ele>372.648193</ele><time>2009-10-19T11:31:57Z</time></trkpt>
<trkpt lat="46.18606822" lon="6.03181425"><ele>373.128906</ele><time>2009-10-19T11:31:58Z</time></trkpt>
<trkpt lat="46.18610283" lon="6.03185054"><ele>373.128906</ele><time>2009-10-19T11:31:59Z</time></trkpt>
<trkpt lat="46.18614315" lon="6.03188113"><ele>373.609497</ele><time>2009-10-19T11:32:00Z</time></trkpt>
<trkpt lat="46.18618288" lon="6.03191106"><ele>374.570801</ele><time>2009-10-19T11:32:01Z</time></trkpt>
<trkpt lat="46.18621959" lon="6.03194006"><ele>374.570801</ele><time>2009-10-19T11:32:02Z</time></trkpt>
<trkpt lat="46.18625505" lon="6.03196789"><ele>375.051514</ele><time>2009-10-19T11:32:03Z</time></trkpt>
<trkpt lat="46.18629143" lon="6.03199328"><ele>375.051514</ele><time>2009-10-19T11:32:04Z</time></trkpt>
<trkpt lat="46.18632814" lon="6.03201625"><ele>375.532104</ele><time>2009-10-19T11:32:05Z</time></trkpt>
<trkpt lat="46.18636477" lon="6.03203804"><ele>375.532104</ele><time>2009-10-19T11:32:06Z</time></trkpt>
<trkpt lat="46.18640173" lon="6.03205875"><ele>376.012817</ele><time>2009-10-19T11:32:07Z</time></trkpt>
<trkpt lat="46.18643886" lon="6.03207878"><ele>376.012817</ele><time>2009-10-19T11:32:08Z</time></trkpt>
<trkpt lat="46.18647717" lon="6.03209764"><ele>376.012817</ele><time>2009-10-19T11:32:09Z</time></trkpt>
<trkpt lat="46.18651455" lon="6.03211583"><ele>376.49353</ele><time>2009-10-19T11:32:10Z</time></trkpt>
<trkpt lat="46.18655303" lon="6.03213276"><ele>376.974243</ele><time>2009-10-19T11:32:11Z</time></trkpt>
<trkpt lat="46.18659376" lon="6.03215044"><ele>377.454834</ele><time>2009-10-19T11:32:12Z</time></trkpt>
<trkpt lat="46.18663425" lon="6.03216645"><ele>377.935425</ele><time>2009-10-19T11:32:13Z</time></trkpt>
<trkpt lat="46.18667557" lon="6.03218179"><ele>378.896851</ele><time>2009-10-19T11:32:14Z</time></trkpt>
<trkpt lat="46.18671295" lon="6.03219663"><ele>379.377441</ele><time>2009-10-19T11:32:15Z</time></trkpt>
<trkpt lat="46.18675025" lon="6.03221104"><ele>379.377441</ele><time>2009-10-19T11:32:16Z</time></trkpt>
<trkpt lat="46.18679392" lon="6.03222672"><ele>379.858032</ele><time>2009-10-19T11:32:17Z</time></trkpt>
<trkpt lat="46.18683776" lon="6.03224248"><ele>380.819458</ele><time>2009-10-19T11:32:18Z</time></trkpt>
<trkpt lat="46.18688042" lon="6.03225865"><ele>380.819458</ele><time>2009-10-19T11:32:19Z</time></trkpt>
<trkpt lat="46.18692409" lon="6.03227533"><ele>380.819458</ele><time>2009-10-19T11:32:20Z</time></trkpt>
<trkpt lat="46.18696114" lon="6.03229168"><ele>381.300049</ele><time>2009-10-19T11:32:21Z</time></trkpt>
<trkpt lat="46.18700087" lon="6.03231004"><ele>381.300049</ele><time>2009-10-19T11:32:22Z</time></trkpt>
<trkpt lat="46.18704186" lon="6.03233133"><ele>381.300049</ele><time>2009-10-19T11:32:23Z</time></trkpt>
<trkpt lat="46.18708343" lon="6.03235396"><ele>381.300049</ele><time>2009-10-19T11:32:24Z</time></trkpt>
<trkpt lat="46.18712526" lon="6.03237709"><ele>381.300049</ele><time>2009-10-19T11:32:25Z</time></trkpt>
<trkpt lat="46.18716717" lon="6.03240048"><ele>381.300049</ele><time>2009-10-19T11:32:26Z</time></trkpt>
<trkpt lat="46.18720950" lon="6.03242369"><ele>381.300049</ele><time>2009-10-19T11:32:27Z</time></trkpt>
<trkpt lat="46.18725275" lon="6.03244708"><ele>380.819458</ele><time>2009-10-19T11:32:28Z</time></trkpt>
<trkpt lat="46.18729692" lon="6.03247164"><ele>380.819458</ele><time>2009-10-19T11:32:29Z</time></trkpt>
<trkpt lat="46.18734134" lon="6.03249704"><ele>380.819458</ele><time>2009-10-19T11:32:30Z</time></trkpt>
<trkpt lat="46.18738627" lon="6.03252059"><ele>380.819458</ele><time>2009-10-19T11:32:31Z</time></trkpt>
<trkpt lat="46.18743162" lon="6.03254213"><ele>380.819458</ele><time>2009-10-19T11:32:32Z</time></trkpt>
<trkpt lat="46.18747797" lon="6.03256007"><ele>380.338745</ele><time>2009-10-19T11:32:33Z</time></trkpt>
<trkpt lat="46.18752566" lon="6.03257398"><ele>380.819458</ele><time>2009-10-19T11:32:34Z</time></trkpt>
<trkpt lat="46.18757403" lon="6.03258354"><ele>380.338745</ele><time>2009-10-19T11:32:35Z</time></trkpt>
<trkpt lat="46.18762272" lon="6.03258697"><ele>380.338745</ele><time>2009-10-19T11:32:36Z</time></trkpt>
<trkpt lat="46.18766882" lon="6.03258412"><ele>379.858032</ele><time>2009-10-19T11:32:37Z</time></trkpt>
<trkpt lat="46.18772213" lon="6.03257935"><ele>379.858032</ele><time>2009-10-19T11:32:38Z</time></trkpt>
<trkpt lat="46.18777402" lon="6.03257096"><ele>379.858032</ele><time>2009-10-19T11:32:39Z</time></trkpt>
<trkpt lat="46.18782540" lon="6.03256065"><ele>379.858032</ele><time>2009-10-19T11:32:40Z</time></trkpt>
<trkpt lat="46.18787502" lon="6.03254959"><ele>379.858032</ele><time>2009-10-19T11:32:41Z</time></trkpt>
<trkpt lat="46.18792204" lon="6.03253718"><ele>379.377441</ele><time>2009-10-19T11:32:42Z</time></trkpt>
<trkpt lat="46.18796948" lon="6.03252428"><ele>378.896851</ele><time>2009-10-19T11:32:43Z</time></trkpt>
<trkpt lat="46.18801718" lon="6.03251388"><ele>378.896851</ele><time>2009-10-19T11:32:44Z</time></trkpt>
<trkpt lat="46.18806529" lon="6.03250676"><ele>378.416138</ele><time>2009-10-19T11:32:45Z</time></trkpt>
<trkpt lat="46.18811776" lon="6.03250399"><ele>378.416138</ele><time>2009-10-19T11:32:46Z</time></trkpt>
<trkpt lat="46.18817149" lon="6.03250626"><ele>378.416138</ele><time>2009-10-19T11:32:47Z</time></trkpt>
<trkpt lat="46.18822463" lon="6.03251388"><ele>377.935425</ele><time>2009-10-19T11:32:48Z</time></trkpt>
<trkpt lat="46.18827752" lon="6.03252595"><ele>377.935425</ele><time>2009-10-19T11:32:49Z</time></trkpt>
<trkpt lat="46.18833167" lon="6.03254037"><ele>377.935425</ele><time>2009-10-19T11:32:50Z</time></trkpt>
<trkpt lat="46.18838590" lon="6.03255537"><ele>377.935425</ele><time>2009-10-19T11:32:51Z</time></trkpt>
<trkpt lat="46.18843845" lon="6.03256862"><ele>377.935425</ele><time>2009-10-19T11:32:52Z</time></trkpt>
<trkpt lat="46.18848958" lon="6.03258203"><ele>377.935425</ele><time>2009-10-19T11:32:53Z</time></trkpt>
<trkpt lat="46.18854079" lon="6.03259678"><ele>377.935425</ele><time>2009-10-19T11:32:54Z</time></trkpt>
<trkpt lat="46.18859008" lon="6.03261245"><ele>377.935425</ele><time>2009-10-19T11:32:55Z</time></trkpt>
<trkpt lat="46.18864255" lon="6.03263048"><ele>378.416138</ele><time>2009-10-19T11:32:56Z</time></trkpt>
<trkpt lat="46.18869318" lon="6.03264858"><ele>377.935425</ele><time>2009-10-19T11:32:57Z</time></trkpt>
<trkpt lat="46.18874313" lon="6.03267247"><ele>378.416138</ele><time>2009-10-19T11:32:58Z</time></trkpt>
<trkpt lat="46.18879284" lon="6.03270013"><ele>377.935425</ele><time>2009-10-19T11:32:59Z</time></trkpt>
<trkpt lat="46.18884237" lon="6.03273173"><ele>378.416138</ele><time>2009-10-19T11:33:00Z</time></trkpt>
<trkpt lat="46.18888982" lon="6.03276643"><ele>378.416138</ele><time>2009-10-19T11:33:01Z</time></trkpt>
<trkpt lat="46.18893659" lon="6.03280130"><ele>378.416138</ele><time>2009-10-19T11:33:02Z</time></trkpt>
<trkpt lat="46.18898453" lon="6.03283550"><ele>378.896851</ele><time>2009-10-19T11:33:03Z</time></trkpt>
<trkpt lat="46.18903214" lon="6.03286852"><ele>378.896851</ele><time>2009-10-19T11:33:04Z</time></trkpt>
<trkpt lat="46.18907883" lon="6.03289979"><ele>378.896851</ele><time>2009-10-19T11:33:05Z</time></trkpt>
<trkpt lat="46.18912719" lon="6.03292770"><ele>378.896851</ele><time>2009-10-19T11:33:06Z</time></trkpt>
<trkpt lat="46.18917715" lon="6.03295276"><ele>378.896851</ele><time>2009-10-19T11:33:07Z</time></trkpt>
<trkpt lat="46.18922794" lon="6.03297522"><ele>378.896851</ele><time>2009-10-19T11:33:08Z</time></trkpt>
<trkpt lat="46.18927907" lon="6.03299400"><ele>378.896851</ele><time>2009-10-19T11:33:09Z</time></trkpt>
<trkpt lat="46.18932626" lon="6.03300733"><ele>378.896851</ele><time>2009-10-19T11:33:10Z</time></trkpt>
<trkpt lat="46.18937228" lon="6.03301940"><ele>378.896851</ele><time>2009-10-19T11:33:11Z</time></trkpt>
<trkpt lat="46.18942190" lon="6.03302895"><ele>378.896851</ele><time>2009-10-19T11:33:12Z</time></trkpt>
<trkpt lat="46.18947462" lon="6.03303557"><ele>378.896851</ele><time>2009-10-19T11:33:13Z</time></trkpt>
<trkpt lat="46.18952760" lon="6.03303834"><ele>378.416138</ele><time>2009-10-19T11:33:14Z</time></trkpt>
<trkpt lat="46.18957814" lon="6.03303733"><ele>378.416138</ele><time>2009-10-19T11:33:15Z</time></trkpt>
<trkpt lat="46.18963078" lon="6.03303675"><ele>377.935425</ele><time>2009-10-19T11:33:16Z</time></trkpt>
<trkpt lat="46.18968459" lon="6.03303968"><ele>377.935425</ele><time>2009-10-19T11:33:17Z</time></trkpt>
<trkpt lat="46.18973530" lon="6.03304597"><ele>378.416138</ele><time>2009-10-19T11:33:18Z</time></trkpt>
<trkpt lat="46.18978576" lon="6.03305695"><ele>378.416138</ele><time>2009-10-19T11:33:19Z</time></trkpt>
<trkpt lat="46.18983194" lon="6.03307237"><ele>378.896851</ele><time>2009-10-19T11:33:20Z</time></trkpt>
<trkpt lat="46.18987905" lon="6.03309299"><ele>378.896851</ele><time>2009-10-19T11:33:21Z</time></trkpt>
<trkpt lat="46.18992892" lon="6.03311897"><ele>378.896851</ele><time>2009-10-19T11:33:22Z</time></trkpt>
<trkpt lat="46.18997636" lon="6.03315024"><ele>379.377441</ele><time>2009-10-19T11:33:23Z</time></trkpt>
<trkpt lat="46.19002489" lon="6.03318293"><ele>379.377441</ele><time>2009-10-19T11:33:24Z</time></trkpt>
<trkpt lat="46.19007552" lon="6.03321645"><ele>379.377441</ele><time>2009-10-19T11:33:25Z</time></trkpt>
<trkpt lat="46.19012254" lon="6.03325283"><ele>379.377441</ele><time>2009-10-19T11:33:26Z</time></trkpt>
<trkpt lat="46.19016940" lon="6.03329005"><ele>379.858032</ele><time>2009-10-19T11:33:27Z</time></trkpt>
<trkpt lat="46.19021676" lon="6.03332818"><ele>379.858032</ele><time>2009-10-19T11:33:28Z</time></trkpt>
<trkpt lat="46.19026353" lon="6.03336674"><ele>379.858032</ele><time>2009-10-19T11:33:29Z</time></trkpt>
<trkpt lat="46.19030879" lon="6.03340639"><ele>380.338745</ele><time>2009-10-19T11:33:30Z</time></trkpt>
<trkpt lat="46.19035145" lon="6.03344989"><ele>380.819458</ele><time>2009-10-19T11:33:31Z</time></trkpt>
<trkpt lat="46.19039118" lon="6.03349683"><ele>380.819458</ele><time>2009-10-19T11:33:32Z</time></trkpt>
<trkpt lat="46.19043058" lon="6.03354804"><ele>381.300049</ele><time>2009-10-19T11:33:33Z</time></trkpt>
<trkpt lat="46.19046528" lon="6.03359917"><ele>380.819458</ele><time>2009-10-19T11:33:34Z</time></trkpt>
<trkpt lat="46.19049503" lon="6.03365365"><ele>380.338745</ele><time>2009-10-19T11:33:35Z</time></trkpt>
<trkpt lat="46.19051943" lon="6.03371778"><ele>380.819458</ele><time>2009-10-19T11:33:36Z</time></trkpt>
<trkpt lat="46.19053116" lon="6.03378206"><ele>379.377441</ele><time>2009-10-19T11:33:37Z</time></trkpt>
<trkpt lat="46.19052538" lon="6.03384216"><ele>377.935425</ele><time>2009-10-19T11:33:38Z</time></trkpt>
<trkpt lat="46.19050945" lon="6.03389866"><ele>376.974243</ele><time>2009-10-19T11:33:39Z</time></trkpt>
<trkpt lat="46.19049143" lon="6.03395465"><ele>376.49353</ele><time>2009-10-19T11:33:40Z</time></trkpt>
<trkpt lat="46.19046947" lon="6.03400494"><ele>375.532104</ele><time>2009-10-19T11:33:41Z</time></trkpt>
<trkpt lat="46.19044449" lon="6.03405565"><ele>375.532104</ele><time>2009-10-19T11:33:42Z</time></trkpt>
<trkpt lat="46.19041842" lon="6.03409454"><ele>375.051514</ele><time>2009-10-19T11:33:43Z</time></trkpt>
<trkpt lat="46.19038540" lon="6.03412949"><ele>373.609497</ele><time>2009-10-19T11:33:44Z</time></trkpt>
<trkpt lat="46.19035573" lon="6.03416805"><ele>372.648193</ele><time>2009-10-19T11:33:45Z</time></trkpt>
<trkpt lat="46.19032857" lon="6.03421013"><ele>371.68689</ele><time>2009-10-19T11:33:46Z</time></trkpt>
<trkpt lat="46.19030368" lon="6.03425539"><ele>370.725586</ele><time>2009-10-19T11:33:47Z</time></trkpt>
<trkpt lat="46.19028180" lon="6.03430283"><ele>370.244873</ele><time>2009-10-19T11:33:48Z</time></trkpt>
<trkpt lat="46.19026336" lon="6.03435203"><ele>369.764282</ele><time>2009-10-19T11:33:49Z</time></trkpt>
<trkpt lat="46.19024274" lon="6.03440182"><ele>368.802979</ele><time>2009-10-19T11:33:50Z</time></trkpt>
<trkpt lat="46.19022069" lon="6.03445245"><ele>368.322266</ele><time>2009-10-19T11:33:51Z</time></trkpt>
<trkpt lat="46.19020024" lon="6.03450408"><ele>367.841553</ele><time>2009-10-19T11:33:52Z</time></trkpt>
<trkpt lat="46.19018197" lon="6.03455697"><ele>367.841553</ele><time>2009-10-19T11:33:53Z</time></trkpt>
<trkpt lat="46.19016320" lon="6.03460986"><ele>367.360962</ele><time>2009-10-19T11:33:54Z</time></trkpt>
<trkpt lat="46.19014299" lon="6.03466149"><ele>366.880249</ele><time>2009-10-19T11:33:55Z</time></trkpt>
<trkpt lat="46.19012975" lon="6.03472059"><ele>367.360962</ele><time>2009-10-19T11:33:56Z</time></trkpt>
<trkpt lat="46.19010829" lon="6.03478144"><ele>368.322266</ele><time>2009-10-19T11:33:57Z</time></trkpt>
<trkpt lat="46.19008533" lon="6.03483542"><ele>368.322266</ele><time>2009-10-19T11:33:58Z</time></trkpt>
<trkpt lat="46.19006454" lon="6.03489200"><ele>368.802979</ele><time>2009-10-19T11:33:59Z</time></trkpt>
<trkpt lat="46.19004535" lon="6.03495159"><ele>369.764282</ele><time>2009-10-19T11:34:00Z</time></trkpt>
<trkpt lat="46.19003135" lon="6.03500775"><ele>370.725586</ele><time>2009-10-19T11:34:01Z</time></trkpt>
<trkpt lat="46.19002129" lon="6.03506207"><ele>371.68689</ele><time>2009-10-19T11:34:02Z</time></trkpt>
<trkpt lat="46.19001567" lon="6.03512166"><ele>372.16748</ele><time>2009-10-19T11:34:03Z</time></trkpt>
<trkpt lat="46.19001199" lon="6.03518520"><ele>373.609497</ele><time>2009-10-19T11:34:04Z</time></trkpt>
<trkpt lat="46.19001894" lon="6.03524068"><ele>375.051514</ele><time>2009-10-19T11:34:05Z</time></trkpt>
<trkpt lat="46.19000277" lon="6.03529659"><ele>375.051514</ele><time>2009-10-19T11:34:06Z</time></trkpt>
<trkpt lat="46.18998734" lon="6.03536968"><ele>374.570801</ele><time>2009-10-19T11:34:07Z</time></trkpt>
<trkpt lat="46.18996865" lon="6.03544579"><ele>373.128906</ele><time>2009-10-19T11:34:08Z</time></trkpt>
<trkpt lat="46.18996438" lon="6.03553103"><ele>373.609497</ele><time>2009-10-19T11:34:09Z</time></trkpt>
<trkpt lat="46.18995289" lon="6.03562038"><ele>374.090088</ele><time>2009-10-19T11:34:10Z</time></trkpt>
<trkpt lat="46.18994736" lon="6.03570135"><ele>374.570801</ele><time>2009-10-19T11:34:11Z</time></trkpt>
<trkpt lat="46.18994082" lon="6.03579179"><ele>375.532104</ele><time>2009-10-19T11:34:12Z</time></trkpt>
<trkpt lat="46.18993588" lon="6.03587570"><ele>376.012817</ele><time>2009-10-19T11:34:13Z</time></trkpt>
<trkpt lat="46.18993169" lon="6.03596463"><ele>376.974243</ele><time>2009-10-19T11:34:14Z</time></trkpt>
<trkpt lat="46.18992138" lon="6.03605289"><ele>376.49353</ele><time>2009-10-19T11:34:15Z</time></trkpt>
<trkpt lat="46.18991300" lon="6.03614350"><ele>376.974243</ele><time>2009-10-19T11:34:16Z</time></trkpt>
<trkpt lat="46.18990713" lon="6.03623453"><ele>377.935425</ele><time>2009-10-19T11:34:17Z</time></trkpt>
<trkpt lat="46.18989204" lon="6.03631658"><ele>377.935425</ele><time>2009-10-19T11:34:18Z</time></trkpt>
<trkpt lat="46.18987469" lon="6.03639252"><ele>377.454834</ele><time>2009-10-19T11:34:19Z</time></trkpt>
<trkpt lat="46.18985600" lon="6.03646033"><ele>377.454834</ele><time>2009-10-19T11:34:20Z</time></trkpt>
<trkpt lat="46.18983689" lon="6.03652412"><ele>376.012817</ele><time>2009-10-19T11:34:21Z</time></trkpt>
<trkpt lat="46.18982004" lon="6.03659336"><ele>375.532104</ele><time>2009-10-19T11:34:22Z</time></trkpt>
<trkpt lat="46.18980319" lon="6.03666267"><ele>375.051514</ele><time>2009-10-19T11:34:23Z</time></trkpt>
<trkpt lat="46.18978165" lon="6.03672319"><ele>373.609497</ele><time>2009-10-19T11:34:24Z</time></trkpt>
<trkpt lat="46.18976673" lon="6.03678572"><ele>372.648193</ele><time>2009-10-19T11:34:25Z</time></trkpt>
<trkpt lat="46.18974946" lon="6.03686049"><ele>372.648193</ele><time>2009-10-19T11:34:26Z</time></trkpt>
<trkpt lat="46.18973002" lon="6.03692469"><ele>371.68689</ele><time>2009-10-19T11:34:27Z</time></trkpt>
<trkpt lat="46.18970714" lon="6.03698588"><ele>370.725586</ele><time>2009-10-19T11:34:28Z</time></trkpt>
<trkpt lat="46.18967989" lon="6.03704137"><ele>369.764282</ele><time>2009-10-19T11:34:29Z</time></trkpt>
<trkpt lat="46.18965282" lon="6.03709602"><ele>368.802979</ele><time>2009-10-19T11:34:30Z</time></trkpt>
<trkpt lat="46.18962768" lon="6.03715092"><ele>367.841553</ele><time>2009-10-19T11:34:31Z</time></trkpt>
<trkpt lat="46.18960186" lon="6.03720532"><ele>367.360962</ele><time>2009-10-19T11:34:32Z</time></trkpt>
<trkpt lat="46.18957353" lon="6.03725854"><ele>366.399536</ele><time>2009-10-19T11:34:33Z</time></trkpt>
<trkpt lat="46.18954704" lon="6.03732149"><ele>365.918945</ele><time>2009-10-19T11:34:34Z</time></trkpt>
<trkpt lat="46.18952123" lon="6.03738268"><ele>365.918945</ele><time>2009-10-19T11:34:35Z</time></trkpt>
<trkpt lat="46.18949465" lon="6.03744236"><ele>365.918945</ele><time>2009-10-19T11:34:36Z</time></trkpt>
<trkpt lat="46.18946733" lon="6.03749885"><ele>365.438354</ele><time>2009-10-19T11:34:37Z</time></trkpt>
<trkpt lat="46.18943866" lon="6.03755719"><ele>364.957642</ele><time>2009-10-19T11:34:38Z</time></trkpt>
<trkpt lat="46.18941125" lon="6.03761662"><ele>364.476929</ele><time>2009-10-19T11:34:39Z</time></trkpt>
<trkpt lat="46.18938670" lon="6.03768074"><ele>363.996338</ele><time>2009-10-19T11:34:40Z</time></trkpt>
<trkpt lat="46.18936893" lon="6.03775023"><ele>363.996338</ele><time>2009-10-19T11:34:41Z</time></trkpt>
<trkpt lat="46.18935686" lon="6.03782608"><ele>363.996338</ele><time>2009-10-19T11:34:42Z</time></trkpt>
<trkpt lat="46.18935459" lon="6.03790630"><ele>364.476929</ele><time>2009-10-19T11:34:43Z</time></trkpt>
<trkpt lat="46.18936566" lon="6.03800277"><ele>367.360962</ele><time>2009-10-19T11:34:44Z</time></trkpt>
<trkpt lat="46.18938309" lon="6.03808475"><ele>368.802979</ele><time>2009-10-19T11:34:45Z</time></trkpt>
<trkpt lat="46.18940086" lon="6.03815935"><ele>370.244873</ele><time>2009-10-19T11:34:46Z</time></trkpt>
<trkpt lat="46.18941394" lon="6.03822975"><ele>370.244873</ele><time>2009-10-19T11:34:47Z</time></trkpt>
<trkpt lat="46.18942886" lon="6.03830058"><ele>370.725586</ele><time>2009-10-19T11:34:48Z</time></trkpt>
<trkpt lat="46.18944420" lon="6.03837132"><ele>370.725586</ele><time>2009-10-19T11:34:49Z</time></trkpt>
<trkpt lat="46.18945098" lon="6.03843763"><ele>370.244873</ele><time>2009-10-19T11:34:50Z</time></trkpt>
<trkpt lat="46.18945618" lon="6.03850376"><ele>369.283691</ele><time>2009-10-19T11:34:51Z</time></trkpt>
<trkpt lat="46.18946146" lon="6.03857232"><ele>369.283691</ele><time>2009-10-19T11:34:52Z</time></trkpt>
<trkpt lat="46.18946733" lon="6.03864164"><ele>368.802979</ele><time>2009-10-19T11:34:53Z</time></trkpt>
<trkpt lat="46.18947278" lon="6.03871088"><ele>368.322266</ele><time>2009-10-19T11:34:54Z</time></trkpt>
<trkpt lat="46.18947814" lon="6.03878204"><ele>368.322266</ele><time>2009-10-19T11:34:55Z</time></trkpt>
<trkpt lat="46.18948460" lon="6.03885194"><ele>368.322266</ele><time>2009-10-19T11:34:56Z</time></trkpt>
<trkpt lat="46.18949088" lon="6.03891062"><ele>367.841553</ele><time>2009-10-19T11:34:57Z</time></trkpt>
<trkpt lat="46.18949742" lon="6.03896996"><ele>366.880249</ele><time>2009-10-19T11:34:58Z</time></trkpt>
<trkpt lat="46.18950455" lon="6.03903106"><ele>366.399536</ele><time>2009-10-19T11:34:59Z</time></trkpt>
<trkpt lat="46.18951167" lon="6.03909167"><ele>365.918945</ele><time>2009-10-19T11:35:00Z</time></trkpt>
<trkpt lat="46.18951905" lon="6.03915939"><ele>365.918945</ele><time>2009-10-19T11:35:01Z</time></trkpt>
<trkpt lat="46.18952609" lon="6.03922854"><ele>365.918945</ele><time>2009-10-19T11:35:02Z</time></trkpt>
<trkpt lat="46.18953355" lon="6.03929694"><ele>366.399536</ele><time>2009-10-19T11:35:03Z</time></trkpt>
<trkpt lat="46.18953874" lon="6.03935846"><ele>365.438354</ele><time>2009-10-19T11:35:04Z</time></trkpt>
<trkpt lat="46.18954335" lon="6.03942895"><ele>366.399536</ele><time>2009-10-19T11:35:05Z</time></trkpt>
<trkpt lat="46.18954847" lon="6.03949794"><ele>366.880249</ele><time>2009-10-19T11:35:06Z</time></trkpt>
<trkpt lat="46.18955484" lon="6.03956206"><ele>366.880249</ele><time>2009-10-19T11:35:07Z</time></trkpt>
<trkpt lat="46.18956154" lon="6.03962668"><ele>366.880249</ele><time>2009-10-19T11:35:08Z</time></trkpt>
<trkpt lat="46.18956967" lon="6.03969147"><ele>367.360962</ele><time>2009-10-19T11:35:09Z</time></trkpt>
<trkpt lat="46.18957797" lon="6.03975568"><ele>367.360962</ele><time>2009-10-19T11:35:10Z</time></trkpt>
<trkpt lat="46.18958442" lon="6.03982399"><ele>367.841553</ele><time>2009-10-19T11:35:11Z</time></trkpt>
<trkpt lat="46.18959105" lon="6.03989155"><ele>368.802979</ele><time>2009-10-19T11:35:12Z</time></trkpt>
<trkpt lat="46.18959708" lon="6.03995743"><ele>368.802979</ele><time>2009-10-19T11:35:13Z</time></trkpt>
<trkpt lat="46.18960295" lon="6.04002340"><ele>369.764282</ele><time>2009-10-19T11:35:14Z</time></trkpt>
<trkpt lat="46.18960840" lon="6.04008324"><ele>368.802979</ele><time>2009-10-19T11:35:15Z</time></trkpt>
<trkpt lat="46.18961083" lon="6.04014980"><ele>368.802979</ele><time>2009-10-19T11:35:16Z</time></trkpt>
<trkpt lat="46.18961175" lon="6.04021442"><ele>368.802979</ele><time>2009-10-19T11:35:17Z</time></trkpt>
<trkpt lat="46.18961359" lon="6.04027444"><ele>368.322266</ele><time>2009-10-19T11:35:18Z</time></trkpt>
<trkpt lat="46.18961577" lon="6.04033546"><ele>367.841553</ele><time>2009-10-19T11:35:19Z</time></trkpt>
<trkpt lat="46.18961954" lon="6.04040679"><ele>368.322266</ele><time>2009-10-19T11:35:20Z</time></trkpt>
<trkpt lat="46.18962449" lon="6.04047418"><ele>368.322266</ele><time>2009-10-19T11:35:21Z</time></trkpt>
<trkpt lat="46.18962759" lon="6.04054442"><ele>369.283691</ele><time>2009-10-19T11:35:22Z</time></trkpt>
<trkpt lat="46.18963094" lon="6.04061256"><ele>368.802979</ele><time>2009-10-19T11:35:23Z</time></trkpt>
<trkpt lat="46.18963304" lon="6.04068163"><ele>368.802979</ele><time>2009-10-19T11:35:24Z</time></trkpt>
<trkpt lat="46.18963405" lon="6.04075212"><ele>368.802979</ele><time>2009-10-19T11:35:25Z</time></trkpt>
<trkpt lat="46.18963522" lon="6.04082102"><ele>369.283691</ele><time>2009-10-19T11:35:26Z</time></trkpt>
<trkpt lat="46.18963849" lon="6.04088983"><ele>369.283691</ele><time>2009-10-19T11:35:27Z</time></trkpt>
<trkpt lat="46.18964779" lon="6.04095354"><ele>368.802979</ele><time>2009-10-19T11:35:28Z</time></trkpt>
<trkpt lat="46.18965332" lon="6.04101850"><ele>368.802979</ele><time>2009-10-19T11:35:29Z</time></trkpt>
<trkpt lat="46.18966196" lon="6.04108589"><ele>368.322266</ele><time>2009-10-19T11:35:30Z</time></trkpt>
<trkpt lat="46.18966623" lon="6.04115437"><ele>368.322266</ele><time>2009-10-19T11:35:31Z</time></trkpt>
<trkpt lat="46.18967076" lon="6.04121556"><ele>367.841553</ele><time>2009-10-19T11:35:32Z</time></trkpt>
<trkpt lat="46.18967528" lon="6.04127607"><ele>367.360962</ele><time>2009-10-19T11:35:33Z</time></trkpt>
<trkpt lat="46.18967730" lon="6.04133642"><ele>366.880249</ele><time>2009-10-19T11:35:34Z</time></trkpt>
<trkpt lat="46.18967897" lon="6.04139728"><ele>366.880249</ele><time>2009-10-19T11:35:35Z</time></trkpt>
<trkpt lat="46.18968434" lon="6.04145729"><ele>366.880249</ele><time>2009-10-19T11:35:36Z</time></trkpt>
<trkpt lat="46.18969657" lon="6.04152225"><ele>367.360962</ele><time>2009-10-19T11:35:37Z</time></trkpt>
<trkpt lat="46.18971803" lon="6.04158469"><ele>368.322266</ele><time>2009-10-19T11:35:38Z</time></trkpt>
<trkpt lat="46.18974360" lon="6.04164748"><ele>368.802979</ele><time>2009-10-19T11:35:39Z</time></trkpt>
<trkpt lat="46.18976858" lon="6.04170556"><ele>368.802979</ele><time>2009-10-19T11:35:40Z</time></trkpt>
<trkpt lat="46.18979280" lon="6.04177170"><ele>370.244873</ele><time>2009-10-19T11:35:41Z</time></trkpt>
<trkpt lat="46.18982323" lon="6.04183724"><ele>371.68689</ele><time>2009-10-19T11:35:42Z</time></trkpt>
<trkpt lat="46.18985164" lon="6.04190413"><ele>373.128906</ele><time>2009-10-19T11:35:43Z</time></trkpt>
<trkpt lat="46.18988114" lon="6.04197035"><ele>374.570801</ele><time>2009-10-19T11:35:44Z</time></trkpt>
<trkpt lat="46.18991559" lon="6.04203187"><ele>375.532104</ele><time>2009-10-19T11:35:45Z</time></trkpt>
<trkpt lat="46.18995608" lon="6.04208778"><ele>376.49353</ele><time>2009-10-19T11:35:46Z</time></trkpt>
<trkpt lat="46.18999866" lon="6.04213622"><ele>377.935425</ele><time>2009-10-19T11:35:47Z</time></trkpt>
<trkpt lat="46.19003965" lon="6.04218023"><ele>378.416138</ele><time>2009-10-19T11:35:48Z</time></trkpt>
<trkpt lat="46.19007988" lon="6.04222398"><ele>379.377441</ele><time>2009-10-19T11:35:49Z</time></trkpt>
<trkpt lat="46.19011969" lon="6.04226656"><ele>380.338745</ele><time>2009-10-19T11:35:50Z</time></trkpt>
<trkpt lat="46.19015766" lon="6.04231023"><ele>381.300049</ele><time>2009-10-19T11:35:51Z</time></trkpt>
<trkpt lat="46.19019203" lon="6.04235600"><ele>382.261353</ele><time>2009-10-19T11:35:52Z</time></trkpt>
<trkpt lat="46.19022396" lon="6.04240042"><ele>382.742065</ele><time>2009-10-19T11:35:53Z</time></trkpt>
<trkpt lat="46.19025799" lon="6.04244376"><ele>383.222656</ele><time>2009-10-19T11:35:54Z</time></trkpt>
<trkpt lat="46.19029177" lon="6.04248642"><ele>383.703247</ele><time>2009-10-19T11:35:55Z</time></trkpt>
<trkpt lat="46.19032329" lon="6.04252833"><ele>384.184082</ele><time>2009-10-19T11:35:56Z</time></trkpt>
<trkpt lat="46.19035145" lon="6.04257376"><ele>384.184082</ele><time>2009-10-19T11:35:57Z</time></trkpt>
<trkpt lat="46.19038548" lon="6.04261584"><ele>384.664795</ele><time>2009-10-19T11:35:58Z</time></trkpt>
<trkpt lat="46.19042035" lon="6.04265498"><ele>385.145386</ele><time>2009-10-19T11:35:59Z</time></trkpt>
<trkpt lat="46.19045212" lon="6.04269362"><ele>385.625977</ele><time>2009-10-19T11:36:00Z</time></trkpt>
<trkpt lat="46.19047877" lon="6.04273478"><ele>385.625977</ele><time>2009-10-19T11:36:01Z</time></trkpt>
<trkpt lat="46.19049378" lon="6.04278046"><ele>385.145386</ele><time>2009-10-19T11:36:02Z</time></trkpt>
<trkpt lat="46.19050845" lon="6.04281398"><ele>384.664795</ele><time>2009-10-19T11:36:03Z</time></trkpt>
<trkpt lat="46.19050459" lon="6.04282689"><ele>384.664795</ele><time>2009-10-19T11:36:04Z</time></trkpt>
<trkpt lat="46.19049093" lon="6.04282689"><ele>384.664795</ele><time>2009-10-19T11:36:05Z</time></trkpt>
<trkpt lat="46.19045237" lon="6.04284936"><ele>384.184082</ele><time>2009-10-19T11:36:06Z</time></trkpt>
<trkpt lat="46.19041759" lon="6.04289856"><ele>384.664795</ele><time>2009-10-19T11:36:07Z</time></trkpt>
<trkpt lat="46.19039060" lon="6.04294717"><ele>385.625977</ele><time>2009-10-19T11:36:08Z</time></trkpt>
<trkpt lat="46.19035254" lon="6.04298774"><ele>386.106689</ele><time>2009-10-19T11:36:09Z</time></trkpt>
<trkpt lat="46.19030753" lon="6.04302588"><ele>386.106689</ele><time>2009-10-19T11:36:10Z</time></trkpt>
<trkpt lat="46.19027325" lon="6.04306779"><ele>385.625977</ele><time>2009-10-19T11:36:11Z</time></trkpt>
<trkpt lat="46.19021986" lon="6.04310584"><ele>385.625977</ele><time>2009-10-19T11:36:12Z</time></trkpt>
<trkpt lat="46.19016940" lon="6.04314314"><ele>386.106689</ele><time>2009-10-19T11:36:13Z</time></trkpt>
<trkpt lat="46.19012799" lon="6.04318296"><ele>385.145386</ele><time>2009-10-19T11:36:14Z</time></trkpt>
<trkpt lat="46.19009119" lon="6.04322579"><ele>384.664795</ele><time>2009-10-19T11:36:15Z</time></trkpt>
<trkpt lat="46.19005725" lon="6.04327046"><ele>384.664795</ele><time>2009-10-19T11:36:16Z</time></trkpt>
<trkpt lat="46.19002095" lon="6.04331698"><ele>383.222656</ele><time>2009-10-19T11:36:17Z</time></trkpt>
<trkpt lat="46.18998307" lon="6.04335663"><ele>382.261353</ele><time>2009-10-19T11:36:18Z</time></trkpt>
<trkpt lat="46.18994736" lon="6.04340063"><ele>380.819458</ele><time>2009-10-19T11:36:19Z</time></trkpt>
<trkpt lat="46.18991258" lon="6.04344355"><ele>380.338745</ele><time>2009-10-19T11:36:20Z</time></trkpt>
<trkpt lat="46.18988743" lon="6.04349493"><ele>379.858032</ele><time>2009-10-19T11:36:21Z</time></trkpt>
<trkpt lat="46.18983546" lon="6.04352896"><ele>378.416138</ele><time>2009-10-19T11:36:22Z</time></trkpt>
<trkpt lat="46.18978542" lon="6.04356567"><ele>377.454834</ele><time>2009-10-19T11:36:23Z</time></trkpt>
<trkpt lat="46.18974024" lon="6.04360557"><ele>376.974243</ele><time>2009-10-19T11:36:24Z</time></trkpt>
<trkpt lat="46.18970755" lon="6.04365075"><ele>376.012817</ele><time>2009-10-19T11:36:25Z</time></trkpt>
<trkpt lat="46.18967679" lon="6.04369660"><ele>375.532104</ele><time>2009-10-19T11:36:26Z</time></trkpt>
<trkpt lat="46.18964578" lon="6.04374094"><ele>375.051514</ele><time>2009-10-19T11:36:27Z</time></trkpt>
<trkpt lat="46.18961167" lon="6.04378134"><ele>374.570801</ele><time>2009-10-19T11:36:28Z</time></trkpt>
<trkpt lat="46.18957504" lon="6.04382182"><ele>374.090088</ele><time>2009-10-19T11:36:29Z</time></trkpt>
<trkpt lat="46.18954679" lon="6.04385770"><ele>373.128906</ele><time>2009-10-19T11:36:30Z</time></trkpt>
<trkpt lat="46.18952374" lon="6.04390330"><ele>373.128906</ele><time>2009-10-19T11:36:31Z</time></trkpt>
<trkpt lat="46.18950924" lon="6.04395443"><ele>372.648193</ele><time>2009-10-19T11:36:32Z</time></trkpt>
<trkpt lat="46.18950396" lon="6.04402039"><ele>374.090088</ele><time>2009-10-19T11:36:33Z</time></trkpt>
<trkpt lat="46.18951586" lon="6.04409080"><ele>375.532104</ele><time>2009-10-19T11:36:34Z</time></trkpt>
<trkpt lat="46.18953967" lon="6.04415542"><ele>376.974243</ele><time>2009-10-19T11:36:35Z</time></trkpt>
<trkpt lat="46.18956774" lon="6.04421787"><ele>377.935425</ele><time>2009-10-19T11:36:36Z</time></trkpt>
<trkpt lat="46.18959876" lon="6.04427746"><ele>378.416138</ele><time>2009-10-19T11:36:37Z</time></trkpt>
<trkpt lat="46.18962474" lon="6.04434050"><ele>379.858032</ele><time>2009-10-19T11:36:38Z</time></trkpt>
<trkpt lat="46.18965307" lon="6.04440462"><ele>381.300049</ele><time>2009-10-19T11:36:39Z</time></trkpt>
<trkpt lat="46.18968727" lon="6.04446388"><ele>383.222656</ele><time>2009-10-19T11:36:40Z</time></trkpt>
<trkpt lat="46.18972097" lon="6.04451953"><ele>384.664795</ele><time>2009-10-19T11:36:41Z</time></trkpt>
<trkpt lat="46.18975089" lon="6.04458718"><ele>385.625977</ele><time>2009-10-19T11:36:42Z</time></trkpt>
<trkpt lat="46.18978970" lon="6.04465155"><ele>387.067993</ele><time>2009-10-19T11:36:43Z</time></trkpt>
<trkpt lat="46.18982834" lon="6.04470913"><ele>387.548584</ele><time>2009-10-19T11:36:44Z</time></trkpt>
<trkpt lat="46.18986815" lon="6.04476688"><ele>388.990601</ele><time>2009-10-19T11:36:45Z</time></trkpt>
<trkpt lat="46.18990243" lon="6.04482665"><ele>389.951904</ele><time>2009-10-19T11:36:46Z</time></trkpt>
<trkpt lat="46.18993789" lon="6.04488323"><ele>390.913208</ele><time>2009-10-19T11:36:47Z</time></trkpt>
<trkpt lat="46.18997368" lon="6.04493427"><ele>390.913208</ele><time>2009-10-19T11:36:48Z</time></trkpt>
<trkpt lat="46.19000972" lon="6.04499026"><ele>390.913208</ele><time>2009-10-19T11:36:49Z</time></trkpt>
<trkpt lat="46.19004610" lon="6.04504793"><ele>391.393799</ele><time>2009-10-19T11:36:50Z</time></trkpt>
<trkpt lat="46.19008466" lon="6.04510174"><ele>391.393799</ele><time>2009-10-19T11:36:51Z</time></trkpt>
<trkpt lat="46.19012447" lon="6.04515363"><ele>391.874512</ele><time>2009-10-19T11:36:52Z</time></trkpt>
<trkpt lat="46.19016378" lon="6.04520559"><ele>391.874512</ele><time>2009-10-19T11:36:53Z</time></trkpt>
<trkpt lat="46.19020368" lon="6.04525815"><ele>392.355347</ele><time>2009-10-19T11:36:54Z</time></trkpt>
<trkpt lat="46.19024416" lon="6.04531003"><ele>392.355347</ele><time>2009-10-19T11:36:55Z</time></trkpt>
<trkpt lat="46.19028457" lon="6.04536275"><ele>392.835938</ele><time>2009-10-19T11:36:56Z</time></trkpt>
<trkpt lat="46.19032513" lon="6.04541472"><ele>392.835938</ele><time>2009-10-19T11:36:57Z</time></trkpt>
<trkpt lat="46.19036637" lon="6.04546585"><ele>393.316528</ele><time>2009-10-19T11:36:58Z</time></trkpt>
<trkpt lat="46.19040702" lon="6.04551656"><ele>393.316528</ele><time>2009-10-19T11:36:59Z</time></trkpt>
<trkpt lat="46.19044734" lon="6.04556677"><ele>393.797241</ele><time>2009-10-19T11:37:00Z</time></trkpt>
<trkpt lat="46.19048757" lon="6.04561547"><ele>393.797241</ele><time>2009-10-19T11:37:01Z</time></trkpt>
<trkpt lat="46.19052772" lon="6.04566257"><ele>394.277954</ele><time>2009-10-19T11:37:02Z</time></trkpt>
<trkpt lat="46.19056963" lon="6.04570583"><ele>394.277954</ele><time>2009-10-19T11:37:03Z</time></trkpt>
<trkpt lat="46.19061364" lon="6.04574346"><ele>394.277954</ele><time>2009-10-19T11:37:04Z</time></trkpt>
<trkpt lat="46.19065882" lon="6.04577732"><ele>394.277954</ele><time>2009-10-19T11:37:05Z</time></trkpt>
<trkpt lat="46.19070416" lon="6.04580976"><ele>394.758545</ele><time>2009-10-19T11:37:06Z</time></trkpt>
<trkpt lat="46.19074934" lon="6.04584002"><ele>394.758545</ele><time>2009-10-19T11:37:07Z</time></trkpt>
<trkpt lat="46.19079653" lon="6.04586835"><ele>394.758545</ele><time>2009-10-19T11:37:08Z</time></trkpt>
<trkpt lat="46.19083987" lon="6.04589660"><ele>394.758545</ele><time>2009-10-19T11:37:09Z</time></trkpt>
<trkpt lat="46.19088328" lon="6.04592912"><ele>394.758545</ele><time>2009-10-19T11:37:10Z</time></trkpt>
<trkpt lat="46.19092746" lon="6.04596172"><ele>394.758545</ele><time>2009-10-19T11:37:11Z</time></trkpt>
<trkpt lat="46.19097196" lon="6.04599232"><ele>394.758545</ele><time>2009-10-19T11:37:12Z</time></trkpt>
<trkpt lat="46.19101639" lon="6.04602409"><ele>395.239136</ele><time>2009-10-19T11:37:13Z</time></trkpt>
<trkpt lat="46.19106056" lon="6.04605753"><ele>395.239136</ele><time>2009-10-19T11:37:14Z</time></trkpt>
<trkpt lat="46.19110457" lon="6.04609005"><ele>395.239136</ele><time>2009-10-19T11:37:15Z</time></trkpt>
<trkpt lat="46.19114924" lon="6.04612065"><ele>394.758545</ele><time>2009-10-19T11:37:16Z</time></trkpt>
<trkpt lat="46.19119358" lon="6.04615082"><ele>394.758545</ele><time>2009-10-19T11:37:17Z</time></trkpt>
<trkpt lat="46.19123650" lon="6.04618083"><ele>394.758545</ele><time>2009-10-19T11:37:18Z</time></trkpt>
<trkpt lat="46.19127749" lon="6.04621025"><ele>394.758545</ele><time>2009-10-19T11:37:19Z</time></trkpt>
<trkpt lat="46.19131847" lon="6.04623958"><ele>394.758545</ele><time>2009-10-19T11:37:20Z</time></trkpt>
<trkpt lat="46.19136164" lon="6.04626724"><ele>394.758545</ele><time>2009-10-19T11:37:21Z</time></trkpt>
<trkpt lat="46.19140573" lon="6.04629583"><ele>394.277954</ele><time>2009-10-19T11:37:22Z</time></trkpt>
<trkpt lat="46.19145015" lon="6.04632583"><ele>394.277954</ele><time>2009-10-19T11:37:23Z</time></trkpt>
<trkpt lat="46.19149508" lon="6.04635492"><ele>394.277954</ele><time>2009-10-19T11:37:24Z</time></trkpt>
<trkpt lat="46.19153992" lon="6.04638602"><ele>394.277954</ele><time>2009-10-19T11:37:25Z</time></trkpt>
<trkpt lat="46.19158435" lon="6.04641862"><ele>394.277954</ele><time>2009-10-19T11:37:26Z</time></trkpt>
<trkpt lat="46.19162969" lon="6.04644997"><ele>394.277954</ele><time>2009-10-19T11:37:27Z</time></trkpt>
<trkpt lat="46.19167512" lon="6.04647973"><ele>394.277954</ele><time>2009-10-19T11:37:28Z</time></trkpt>
<trkpt lat="46.19172039" lon="6.04650822"><ele>394.277954</ele><time>2009-10-19T11:37:29Z</time></trkpt>
<trkpt lat="46.19176523" lon="6.04653773"><ele>394.277954</ele><time>2009-10-19T11:37:30Z</time></trkpt>
<trkpt lat="46.19180923" lon="6.04656908"><ele>394.277954</ele><time>2009-10-19T11:37:31Z</time></trkpt>
<trkpt lat="46.19185357" lon="6.04659992"><ele>394.758545</ele><time>2009-10-19T11:37:32Z</time></trkpt>
<trkpt lat="46.19189833" lon="6.04663119"><ele>394.758545</ele><time>2009-10-19T11:37:33Z</time></trkpt>
<trkpt lat="46.19194292" lon="6.04666212"><ele>394.758545</ele><time>2009-10-19T11:37:34Z</time></trkpt>
<trkpt lat="46.19198718" lon="6.04669212"><ele>394.277954</ele><time>2009-10-19T11:37:35Z</time></trkpt>
<trkpt lat="46.19203018" lon="6.04672079"><ele>394.277954</ele><time>2009-10-19T11:37:36Z</time></trkpt>
<trkpt lat="46.19207192" lon="6.04674703"><ele>394.277954</ele><time>2009-10-19T11:37:37Z</time></trkpt>
<trkpt lat="46.19211274" lon="6.04677167"><ele>394.277954</ele><time>2009-10-19T11:37:38Z</time></trkpt>
<trkpt lat="46.19215214" lon="6.04679748"><ele>394.277954</ele><time>2009-10-19T11:37:39Z</time></trkpt>
<trkpt lat="46.19219002" lon="6.04682422"><ele>394.277954</ele><time>2009-10-19T11:37:40Z</time></trkpt>
<trkpt lat="46.19222774" lon="6.04684979"><ele>394.277954</ele><time>2009-10-19T11:37:41Z</time></trkpt>
<trkpt lat="46.19226412" lon="6.04687275"><ele>394.277954</ele><time>2009-10-19T11:37:42Z</time></trkpt>
<trkpt lat="46.19230008" lon="6.04689480"><ele>394.277954</ele><time>2009-10-19T11:37:43Z</time></trkpt>
<trkpt lat="46.19233704" lon="6.04691785"><ele>394.277954</ele><time>2009-10-19T11:37:44Z</time></trkpt>
<trkpt lat="46.19237535" lon="6.04694257"><ele>394.277954</ele><time>2009-10-19T11:37:45Z</time></trkpt>
<trkpt lat="46.19241416" lon="6.04696940"><ele>394.277954</ele><time>2009-10-19T11:37:46Z</time></trkpt>
<trkpt lat="46.19245213" lon="6.04699454"><ele>394.277954</ele><time>2009-10-19T11:37:47Z</time></trkpt>
<trkpt lat="46.19249253" lon="6.04701675"><ele>394.277954</ele><time>2009-10-19T11:37:48Z</time></trkpt>
<trkpt lat="46.19253276" lon="6.04703603"><ele>394.277954</ele><time>2009-10-19T11:37:49Z</time></trkpt>
<trkpt lat="46.19256830" lon="6.04705933"><ele>393.797241</ele><time>2009-10-19T11:37:50Z</time></trkpt>
<trkpt lat="46.19260149" lon="6.04709823"><ele>393.797241</ele><time>2009-10-19T11:37:51Z</time></trkpt>
<trkpt lat="46.19262639" lon="6.04715087"><ele>393.797241</ele><time>2009-10-19T11:37:52Z</time></trkpt>
<trkpt lat="46.19263493" lon="6.04720719"><ele>392.355347</ele><time>2009-10-19T11:37:53Z</time></trkpt>
<trkpt lat="46.19263317" lon="6.04726947"><ele>390.913208</ele><time>2009-10-19T11:37:54Z</time></trkpt>
<trkpt lat="46.19262714" lon="6.04733552"><ele>389.951904</ele><time>2009-10-19T11:37:55Z</time></trkpt>
<trkpt lat="46.19261306" lon="6.04739972"><ele>388.990601</ele><time>2009-10-19T11:37:56Z</time></trkpt>
<trkpt lat="46.19259889" lon="6.04746963"><ele>388.029297</ele><time>2009-10-19T11:37:57Z</time></trkpt>
<trkpt lat="46.19258364" lon="6.04753794"><ele>386.587402</ele><time>2009-10-19T11:37:58Z</time></trkpt>
<trkpt lat="46.19256788" lon="6.04760475"><ele>385.625977</ele><time>2009-10-19T11:37:59Z</time></trkpt>
<trkpt lat="46.19255137" lon="6.04767147"><ele>384.664795</ele><time>2009-10-19T11:38:00Z</time></trkpt>
<trkpt lat="46.19253779" lon="6.04773793"><ele>383.222656</ele><time>2009-10-19T11:38:01Z</time></trkpt>
<trkpt lat="46.19252245" lon="6.04780222"><ele>381.78064</ele><time>2009-10-19T11:38:02Z</time></trkpt>
<trkpt lat="46.19250770" lon="6.04786567"><ele>380.819458</ele><time>2009-10-19T11:38:03Z</time></trkpt>
<trkpt lat="46.19249202" lon="6.04792535"><ele>379.377441</ele><time>2009-10-19T11:38:04Z</time></trkpt>
<trkpt lat="46.19247794" lon="6.04798755"><ele>377.935425</ele><time>2009-10-19T11:38:05Z</time></trkpt>
<trkpt lat="46.19246126" lon="6.04805360"><ele>376.49353</ele><time>2009-10-19T11:38:06Z</time></trkpt>
<trkpt lat="46.19244785" lon="6.04812375"><ele>376.012817</ele><time>2009-10-19T11:38:07Z</time></trkpt>
<trkpt lat="46.19243704" lon="6.04818930"><ele>375.532104</ele><time>2009-10-19T11:38:08Z</time></trkpt>
<trkpt lat="46.19242363" lon="6.04825283"><ele>374.090088</ele><time>2009-10-19T11:38:09Z</time></trkpt>
<trkpt lat="46.19240980" lon="6.04831184"><ele>373.128906</ele><time>2009-10-19T11:38:10Z</time></trkpt>
<trkpt lat="46.19239639" lon="6.04837253"><ele>371.68689</ele><time>2009-10-19T11:38:11Z</time></trkpt>
<trkpt lat="46.19238038" lon="6.04843556"><ele>370.725586</ele><time>2009-10-19T11:38:12Z</time></trkpt>
<trkpt lat="46.19236428" lon="6.04849792"><ele>369.764282</ele><time>2009-10-19T11:38:13Z</time></trkpt>
<trkpt lat="46.19234878" lon="6.04856187"><ele>368.802979</ele><time>2009-10-19T11:38:14Z</time></trkpt>
<trkpt lat="46.19233092" lon="6.04862507"><ele>368.322266</ele><time>2009-10-19T11:38:15Z</time></trkpt>
<trkpt lat="46.19230938" lon="6.04868693"><ele>367.841553</ele><time>2009-10-19T11:38:16Z</time></trkpt>
<trkpt lat="46.19229035" lon="6.04874586"><ele>367.841553</ele><time>2009-10-19T11:38:17Z</time></trkpt>
<trkpt lat="46.19226672" lon="6.04880143"><ele>367.360962</ele><time>2009-10-19T11:38:18Z</time></trkpt>
<trkpt lat="46.19224467" lon="6.04885256"><ele>367.841553</ele><time>2009-10-19T11:38:19Z</time></trkpt>
<trkpt lat="46.19222037" lon="6.04889757"><ele>367.360962</ele><time>2009-10-19T11:38:20Z</time></trkpt>
<trkpt lat="46.19219547" lon="6.04894107"><ele>367.360962</ele><time>2009-10-19T11:38:21Z</time></trkpt>
<trkpt lat="46.19216404" lon="6.04897737"><ele>366.880249</ele><time>2009-10-19T11:38:22Z</time></trkpt>
<trkpt lat="46.19212372" lon="6.04900972"><ele>366.880249</ele><time>2009-10-19T11:38:23Z</time></trkpt>
<trkpt lat="46.19207804" lon="6.04904132"><ele>366.880249</ele><time>2009-10-19T11:38:24Z</time></trkpt>
<trkpt lat="46.19203714" lon="6.04907082"><ele>367.360962</ele><time>2009-10-19T11:38:25Z</time></trkpt>
<trkpt lat="46.19200034" lon="6.04910553"><ele>368.322266</ele><time>2009-10-19T11:38:26Z</time></trkpt>
<trkpt lat="46.19196706" lon="6.04914249"><ele>367.841553</ele><time>2009-10-19T11:38:27Z</time></trkpt>
<trkpt lat="46.19193639" lon="6.04917895"><ele>367.841553</ele><time>2009-10-19T11:38:28Z</time></trkpt>
<trkpt lat="46.19190873" lon="6.04921994"><ele>367.841553</ele><time>2009-10-19T11:38:29Z</time></trkpt>
<trkpt lat="46.19188903" lon="6.04926319"><ele>367.360962</ele><time>2009-10-19T11:38:30Z</time></trkpt>
<trkpt lat="46.19187503" lon="6.04931423"><ele>367.360962</ele><time>2009-10-19T11:38:31Z</time></trkpt>
<trkpt lat="46.19186967" lon="6.04937308"><ele>367.360962</ele><time>2009-10-19T11:38:32Z</time></trkpt>
<trkpt lat="46.19186497" lon="6.04943150"><ele>366.880249</ele><time>2009-10-19T11:38:33Z</time></trkpt>
<trkpt lat="46.19186305" lon="6.04949713"><ele>366.399536</ele><time>2009-10-19T11:38:34Z</time></trkpt>
<trkpt lat="46.19186346" lon="6.04957785"><ele>367.360962</ele><time>2009-10-19T11:38:35Z</time></trkpt>
<trkpt lat="46.19186514" lon="6.04965789"><ele>368.322266</ele><time>2009-10-19T11:38:36Z</time></trkpt>
<trkpt lat="46.19186724" lon="6.04973677"><ele>369.283691</ele><time>2009-10-19T11:38:37Z</time></trkpt>
<trkpt lat="46.19186958" lon="6.04981279"><ele>370.244873</ele><time>2009-10-19T11:38:38Z</time></trkpt>
<trkpt lat="46.19187294" lon="6.04988613"><ele>370.725586</ele><time>2009-10-19T11:38:39Z</time></trkpt>
<trkpt lat="46.19187662" lon="6.04995729"><ele>370.725586</ele><time>2009-10-19T11:38:40Z</time></trkpt>
<trkpt lat="46.19188014" lon="6.05002678"><ele>371.206299</ele><time>2009-10-19T11:38:41Z</time></trkpt>
<trkpt lat="46.19188232" lon="6.05009534"><ele>371.68689</ele><time>2009-10-19T11:38:42Z</time></trkpt>
<trkpt lat="46.19187914" lon="6.05017279"><ele>374.090088</ele><time>2009-10-19T11:38:43Z</time></trkpt>
<trkpt lat="46.19187654" lon="6.05024622"><ele>376.012817</ele><time>2009-10-19T11:38:44Z</time></trkpt>
<trkpt lat="46.19187294" lon="6.05031730"><ele>377.454834</ele><time>2009-10-19T11:38:45Z</time></trkpt>
<trkpt lat="46.19186950" lon="6.05038729"><ele>378.896851</ele><time>2009-10-19T11:38:46Z</time></trkpt>
<trkpt lat="46.19186589" lon="6.05045686"><ele>379.858032</ele><time>2009-10-19T11:38:47Z</time></trkpt>
<trkpt lat="46.19186087" lon="6.05052575"><ele>380.819458</ele><time>2009-10-19T11:38:48Z</time></trkpt>
<trkpt lat="46.19185349" lon="6.05059239"><ele>381.78064</ele><time>2009-10-19T11:38:49Z</time></trkpt>
<trkpt lat="46.19184645" lon="6.05065484"><ele>381.300049</ele><time>2009-10-19T11:38:50Z</time></trkpt>
<trkpt lat="46.19183790" lon="6.05071535"><ele>381.300049</ele><time>2009-10-19T11:38:51Z</time></trkpt>
<trkpt lat="46.19182784" lon="6.05077595"><ele>381.300049</ele><time>2009-10-19T11:38:52Z</time></trkpt>
<trkpt lat="46.19181644" lon="6.05083605"><ele>380.819458</ele><time>2009-10-19T11:38:53Z</time></trkpt>
<trkpt lat="46.19180462" lon="6.05089590"><ele>380.819458</ele><time>2009-10-19T11:38:54Z</time></trkpt>
<trkpt lat="46.19179322" lon="6.05095583"><ele>380.338745</ele><time>2009-10-19T11:38:55Z</time></trkpt>
<trkpt lat="46.19178107" lon="6.05101517"><ele>380.338745</ele><time>2009-10-19T11:38:56Z</time></trkpt>
<trkpt lat="46.19176783" lon="6.05107376"><ele>379.858032</ele><time>2009-10-19T11:38:57Z</time></trkpt>
<trkpt lat="46.19175450" lon="6.05113294"><ele>379.858032</ele><time>2009-10-19T11:38:58Z</time></trkpt>
<trkpt lat="46.19174025" lon="6.05119145"><ele>379.377441</ele><time>2009-10-19T11:38:59Z</time></trkpt>
<trkpt lat="46.19172533" lon="6.05124928"><ele>378.896851</ele><time>2009-10-19T11:39:00Z</time></trkpt>
<trkpt lat="46.19171033" lon="6.05130703"><ele>378.896851</ele><time>2009-10-19T11:39:01Z</time></trkpt>
<trkpt lat="46.19169465" lon="6.05136487"><ele>378.416138</ele><time>2009-10-19T11:39:02Z</time></trkpt>
<trkpt lat="46.19167848" lon="6.05142245"><ele>378.416138</ele><time>2009-10-19T11:39:03Z</time></trkpt>
<trkpt lat="46.19166213" lon="6.05147995"><ele>377.935425</ele><time>2009-10-19T11:39:04Z</time></trkpt>
<trkpt lat="46.19164595" lon="6.05153829"><ele>377.935425</ele><time>2009-10-19T11:39:05Z</time></trkpt>
<trkpt lat="46.19162944" lon="6.05159755"><ele>377.454834</ele><time>2009-10-19T11:39:06Z</time></trkpt>
<trkpt lat="46.19161293" lon="6.05165807"><ele>377.454834</ele><time>2009-10-19T11:39:07Z</time></trkpt>
<trkpt lat="46.19159860" lon="6.05171280"><ele>376.49353</ele><time>2009-10-19T11:39:08Z</time></trkpt>
<trkpt lat="46.19158150" lon="6.05177256"><ele>376.49353</ele><time>2009-10-19T11:39:09Z</time></trkpt>
<trkpt lat="46.19156364" lon="6.05183266"><ele>376.012817</ele><time>2009-10-19T11:39:10Z</time></trkpt>
<trkpt lat="46.19154663" lon="6.05189343"><ele>376.012817</ele><time>2009-10-19T11:39:11Z</time></trkpt>
<trkpt lat="46.19153020" lon="6.05195529"><ele>375.532104</ele><time>2009-10-19T11:39:12Z</time></trkpt>
<trkpt lat="46.19151352" lon="6.05201656"><ele>375.532104</ele><time>2009-10-19T11:39:13Z</time></trkpt>
<trkpt lat="46.19149726" lon="6.05207155"><ele>375.051514</ele><time>2009-10-19T11:39:14Z</time></trkpt>
<trkpt lat="46.19148175" lon="6.05212703"><ele>374.570801</ele><time>2009-10-19T11:39:15Z</time></trkpt>
<trkpt lat="46.19146666" lon="6.05218319"><ele>374.090088</ele><time>2009-10-19T11:39:16Z</time></trkpt>
<trkpt lat="46.19145200" lon="6.05224078"><ele>373.609497</ele><time>2009-10-19T11:39:17Z</time></trkpt>
<trkpt lat="46.19143750" lon="6.05229895"><ele>373.128906</ele><time>2009-10-19T11:39:18Z</time></trkpt>
<trkpt lat="46.19142249" lon="6.05235728"><ele>373.128906</ele><time>2009-10-19T11:39:19Z</time></trkpt>
<trkpt lat="46.19140774" lon="6.05241562"><ele>373.128906</ele><time>2009-10-19T11:39:20Z</time></trkpt>
<trkpt lat="46.19139433" lon="6.05247404"><ele>373.128906</ele><time>2009-10-19T11:39:21Z</time></trkpt>
<trkpt lat="46.19138142" lon="6.05253230"><ele>373.128906</ele><time>2009-10-19T11:39:22Z</time></trkpt>
<trkpt lat="46.19136885" lon="6.05259047"><ele>373.128906</ele><time>2009-10-19T11:39:23Z</time></trkpt>
<trkpt lat="46.19135678" lon="6.05264755"><ele>373.128906</ele><time>2009-10-19T11:39:24Z</time></trkpt>
<trkpt lat="46.19134563" lon="6.05270346"><ele>373.128906</ele><time>2009-10-19T11:39:25Z</time></trkpt>
<trkpt lat="46.19133582" lon="6.05275886"><ele>373.609497</ele><time>2009-10-19T11:39:26Z</time></trkpt>
<trkpt lat="46.19132602" lon="6.05281368"><ele>373.609497</ele><time>2009-10-19T11:39:27Z</time></trkpt>
<trkpt lat="46.19131546" lon="6.05286699"><ele>373.609497</ele><time>2009-10-19T11:39:28Z</time></trkpt>
<trkpt lat="46.19130540" lon="6.05292759"><ele>375.051514</ele><time>2009-10-19T11:39:29Z</time></trkpt>
<trkpt lat="46.19129743" lon="6.05298718"><ele>376.49353</ele><time>2009-10-19T11:39:30Z</time></trkpt>
<trkpt lat="46.19128905" lon="6.05304577"><ele>377.454834</ele><time>2009-10-19T11:39:31Z</time></trkpt>
<trkpt lat="46.19128394" lon="6.05310394"><ele>378.416138</ele><time>2009-10-19T11:39:32Z</time></trkpt>
<trkpt lat="46.19127715" lon="6.05316044"><ele>379.377441</ele><time>2009-10-19T11:39:33Z</time></trkpt>
<trkpt lat="46.19128017" lon="6.05321970"><ele>381.300049</ele><time>2009-10-19T11:39:34Z</time></trkpt>
<trkpt lat="46.19128319" lon="6.05327854"><ele>382.742065</ele><time>2009-10-19T11:39:35Z</time></trkpt>
<trkpt lat="46.19128796" lon="6.05333084"><ele>385.145386</ele><time>2009-10-19T11:39:36Z</time></trkpt>
<trkpt lat="46.19129400" lon="6.05338315"><ele>387.067993</ele><time>2009-10-19T11:39:37Z</time></trkpt>
<trkpt lat="46.19129953" lon="6.05343637"><ele>388.51001</ele><time>2009-10-19T11:39:38Z</time></trkpt>
<trkpt lat="46.19131043" lon="6.05348557"><ele>388.990601</ele><time>2009-10-19T11:39:39Z</time></trkpt>
<trkpt lat="46.19131847" lon="6.05352773"><ele>389.951904</ele><time>2009-10-19T11:39:40Z</time></trkpt>
<trkpt lat="46.19132250" lon="6.05358146"><ele>391.393799</ele><time>2009-10-19T11:39:41Z</time></trkpt>
<trkpt lat="46.19132845" lon="6.05363837"><ele>392.355347</ele><time>2009-10-19T11:39:42Z</time></trkpt>
<trkpt lat="46.19133708" lon="6.05369286"><ele>392.355347</ele><time>2009-10-19T11:39:43Z</time></trkpt>
<trkpt lat="46.19134856" lon="6.05374608"><ele>392.835938</ele><time>2009-10-19T11:39:44Z</time></trkpt>
<trkpt lat="46.19135829" lon="6.05379604"><ele>393.316528</ele><time>2009-10-19T11:39:45Z</time></trkpt>
<trkpt lat="46.19136809" lon="6.05384926"><ele>393.316528</ele><time>2009-10-19T11:39:46Z</time></trkpt>
<trkpt lat="46.19136784" lon="6.05390199"><ele>392.835938</ele><time>2009-10-19T11:39:47Z</time></trkpt>
<trkpt lat="46.19136566" lon="6.05395462"><ele>392.355347</ele><time>2009-10-19T11:39:48Z</time></trkpt>
<trkpt lat="46.19136239" lon="6.05400802"><ele>391.874512</ele><time>2009-10-19T11:39:49Z</time></trkpt>
<trkpt lat="46.19135728" lon="6.05406099"><ele>391.393799</ele><time>2009-10-19T11:39:50Z</time></trkpt>
<trkpt lat="46.19134873" lon="6.05411279"><ele>390.913208</ele><time>2009-10-19T11:39:51Z</time></trkpt>
<trkpt lat="46.19133733" lon="6.05416467"><ele>390.913208</ele><time>2009-10-19T11:39:52Z</time></trkpt>
<trkpt lat="46.19132803" lon="6.05421790"><ele>390.913208</ele><time>2009-10-19T11:39:53Z</time></trkpt>
<trkpt lat="46.19131663" lon="6.05426987"><ele>390.913208</ele><time>2009-10-19T11:39:54Z</time></trkpt>
<trkpt lat="46.19130825" lon="6.05432175"><ele>390.913208</ele><time>2009-10-19T11:39:55Z</time></trkpt>
<trkpt lat="46.19130003" lon="6.05437280"><ele>390.913208</ele><time>2009-10-19T11:39:56Z</time></trkpt>
<trkpt lat="46.19128872" lon="6.05442284"><ele>391.393799</ele><time>2009-10-19T11:39:57Z</time></trkpt>
<trkpt lat="46.19127422" lon="6.05447087"><ele>391.393799</ele><time>2009-10-19T11:39:58Z</time></trkpt>
<trkpt lat="46.19125879" lon="6.05451814"><ele>391.393799</ele><time>2009-10-19T11:39:59Z</time></trkpt>
<trkpt lat="46.19124253" lon="6.05456558"><ele>391.874512</ele><time>2009-10-19T11:40:00Z</time></trkpt>
<trkpt lat="46.19122518" lon="6.05461227"><ele>391.874512</ele><time>2009-10-19T11:40:01Z</time></trkpt>
<trkpt lat="46.19120532" lon="6.05465745"><ele>392.355347</ele><time>2009-10-19T11:40:02Z</time></trkpt>
<trkpt lat="46.19118503" lon="6.05470229"><ele>392.835938</ele><time>2009-10-19T11:40:03Z</time></trkpt>
<trkpt lat="46.19116542" lon="6.05474738"><ele>392.835938</ele><time>2009-10-19T11:40:04Z</time></trkpt>
<trkpt lat="46.19114455" lon="6.05479139"><ele>393.316528</ele><time>2009-10-19T11:40:05Z</time></trkpt>
<trkpt lat="46.19112167" lon="6.05483875"><ele>394.758545</ele><time>2009-10-19T11:40:06Z</time></trkpt>
<trkpt lat="46.19109727" lon="6.05488367"><ele>395.719849</ele><time>2009-10-19T11:40:07Z</time></trkpt>
<trkpt lat="46.19107515" lon="6.05492818"><ele>396.681152</ele><time>2009-10-19T11:40:08Z</time></trkpt>
<trkpt lat="46.19105243" lon="6.05497504"><ele>398.123169</ele><time>2009-10-19T11:40:09Z</time></trkpt>
<trkpt lat="46.19103366" lon="6.05501695"><ele>398.123169</ele><time>2009-10-19T11:40:10Z</time></trkpt>
<trkpt lat="46.19101404" lon="6.05505785"><ele>398.123169</ele><time>2009-10-19T11:40:11Z</time></trkpt>
<trkpt lat="46.19099652" lon="6.05509875"><ele>398.60376</ele><time>2009-10-19T11:40:12Z</time></trkpt>
<trkpt lat="46.19097666" lon="6.05513765"><ele>398.60376</ele><time>2009-10-19T11:40:13Z</time></trkpt>
<trkpt lat="46.19095512" lon="6.05517427"><ele>398.60376</ele><time>2009-10-19T11:40:14Z</time></trkpt>
<trkpt lat="46.19093366" lon="6.05520772"><ele>399.084351</ele><time>2009-10-19T11:40:15Z</time></trkpt>
<trkpt lat="46.19090734" lon="6.05522557"><ele>399.565063</ele><time>2009-10-19T11:40:16Z</time></trkpt>
<trkpt lat="46.19087775" lon="6.05522239"><ele>399.565063</ele><time>2009-10-19T11:40:17Z</time></trkpt>
<trkpt lat="46.19084909" lon="6.05520437"><ele>400.045898</ele><time>2009-10-19T11:40:18Z</time></trkpt>
<trkpt lat="46.19082293" lon="6.05517712"><ele>400.045898</ele><time>2009-10-19T11:40:19Z</time></trkpt>
<trkpt lat="46.19079846" lon="6.05514578"><ele>400.526489</ele><time>2009-10-19T11:40:20Z</time></trkpt>
<trkpt lat="46.19077482" lon="6.05511409"><ele>400.526489</ele><time>2009-10-19T11:40:21Z</time></trkpt>
<trkpt lat="46.19075127" lon="6.05508316"><ele>401.00708</ele><time>2009-10-19T11:40:22Z</time></trkpt>
<trkpt lat="46.19072705" lon="6.05505257"><ele>401.00708</ele><time>2009-10-19T11:40:23Z</time></trkpt>
<trkpt lat="46.19070249" lon="6.05502382"><ele>401.00708</ele><time>2009-10-19T11:40:24Z</time></trkpt>
<trkpt lat="46.19067768" lon="6.05499247"><ele>401.487793</ele><time>2009-10-19T11:40:25Z</time></trkpt>
<trkpt lat="46.19065228" lon="6.05496062"><ele>401.487793</ele><time>2009-10-19T11:40:26Z</time></trkpt>
<trkpt lat="46.19062663" lon="6.05492659"><ele>401.487793</ele><time>2009-10-19T11:40:27Z</time></trkpt>
<trkpt lat="46.19059956" lon="6.05489222"><ele>401.487793</ele><time>2009-10-19T11:40:28Z</time></trkpt>
<trkpt lat="46.19057114" lon="6.05485828"><ele>401.487793</ele><time>2009-10-19T11:40:29Z</time></trkpt>
<trkpt lat="46.19054038" lon="6.05482793"><ele>401.487793</ele><time>2009-10-19T11:40:30Z</time></trkpt>
<trkpt lat="46.19050484" lon="6.05480807"><ele>401.487793</ele><time>2009-10-19T11:40:31Z</time></trkpt>
<trkpt lat="46.19046536" lon="6.05480312"><ele>401.968506</ele><time>2009-10-19T11:40:32Z</time></trkpt>
<trkpt lat="46.19042345" lon="6.05481385"><ele>401.968506</ele><time>2009-10-19T11:40:33Z</time></trkpt>
<trkpt lat="46.19038096" lon="6.05483992"><ele>401.487793</ele><time>2009-10-19T11:40:34Z</time></trkpt>
<trkpt lat="46.19034424" lon="6.05487814"><ele>401.487793</ele><time>2009-10-19T11:40:35Z</time></trkpt>
<trkpt lat="46.19031013" lon="6.05492315"><ele>401.00708</ele><time>2009-10-19T11:40:36Z</time></trkpt>
<trkpt lat="46.19027543" lon="6.05496808"><ele>401.00708</ele><time>2009-10-19T11:40:37Z</time></trkpt>
<trkpt lat="46.19023679" lon="6.05500890"><ele>400.526489</ele><time>2009-10-19T11:40:38Z</time></trkpt>
<trkpt lat="46.19020276" lon="6.05505198"><ele>400.526489</ele><time>2009-10-19T11:40:39Z</time></trkpt>
<trkpt lat="46.19016948" lon="6.05509674"><ele>400.526489</ele><time>2009-10-19T11:40:40Z</time></trkpt>
<trkpt lat="46.19013562" lon="6.05514142"><ele>400.045898</ele><time>2009-10-19T11:40:41Z</time></trkpt>
<trkpt lat="46.19010092" lon="6.05518660"><ele>400.045898</ele><time>2009-10-19T11:40:42Z</time></trkpt>
<trkpt lat="46.19006613" lon="6.05523320"><ele>400.045898</ele><time>2009-10-19T11:40:43Z</time></trkpt>
<trkpt lat="46.19003143" lon="6.05528089"><ele>400.045898</ele><time>2009-10-19T11:40:44Z</time></trkpt>
<trkpt lat="46.18999614" lon="6.05532674"><ele>400.045898</ele><time>2009-10-19T11:40:45Z</time></trkpt>
<trkpt lat="46.18996195" lon="6.05537209"><ele>400.045898</ele><time>2009-10-19T11:40:46Z</time></trkpt>
<trkpt lat="46.18992875" lon="6.05541768"><ele>400.045898</ele><time>2009-10-19T11:40:47Z</time></trkpt>
<trkpt lat="46.18989506" lon="6.05546077"><ele>400.045898</ele><time>2009-10-19T11:40:48Z</time></trkpt>
<trkpt lat="46.18986136" lon="6.05550326"><ele>400.045898</ele><time>2009-10-19T11:40:49Z</time></trkpt>
<trkpt lat="46.18982834" lon="6.05554752"><ele>400.045898</ele><time>2009-10-19T11:40:50Z</time></trkpt>
<trkpt lat="46.18979540" lon="6.05559203"><ele>400.045898</ele><time>2009-10-19T11:40:51Z</time></trkpt>
<trkpt lat="46.18976212" lon="6.05563628"><ele>400.045898</ele><time>2009-10-19T11:40:52Z</time></trkpt>
<trkpt lat="46.18972910" lon="6.05568096"><ele>399.565063</ele><time>2009-10-19T11:40:53Z</time></trkpt>
<trkpt lat="46.18969515" lon="6.05572547"><ele>399.565063</ele><time>2009-10-19T11:40:54Z</time></trkpt>
<trkpt lat="46.18966179" lon="6.05577014"><ele>399.565063</ele><time>2009-10-19T11:40:55Z</time></trkpt>
<trkpt lat="46.18962918" lon="6.05581515"><ele>399.565063</ele><time>2009-10-19T11:40:56Z</time></trkpt>
<trkpt lat="46.18959725" lon="6.05586084"><ele>400.045898</ele><time>2009-10-19T11:40:57Z</time></trkpt>
<trkpt lat="46.18956498" lon="6.05590560"><ele>399.565063</ele><time>2009-10-19T11:40:58Z</time></trkpt>
<trkpt lat="46.18953162" lon="6.05594977"><ele>399.565063</ele><time>2009-10-19T11:40:59Z</time></trkpt>
<trkpt lat="46.18949759" lon="6.05599319"><ele>399.565063</ele><time>2009-10-19T11:41:00Z</time></trkpt>
<trkpt lat="46.18946314" lon="6.05603694"><ele>399.565063</ele><time>2009-10-19T11:41:01Z</time></trkpt>
<trkpt lat="46.18942902" lon="6.05608237"><ele>400.045898</ele><time>2009-10-19T11:41:02Z</time></trkpt>
<trkpt lat="46.18939625" lon="6.05612788"><ele>400.045898</ele><time>2009-10-19T11:41:03Z</time></trkpt>
<trkpt lat="46.18936457" lon="6.05617432"><ele>400.045898</ele><time>2009-10-19T11:41:04Z</time></trkpt>
<trkpt lat="46.18933205" lon="6.05621749"><ele>400.045898</ele><time>2009-10-19T11:41:05Z</time></trkpt>
<trkpt lat="46.18929776" lon="6.05625537"><ele>400.045898</ele><time>2009-10-19T11:41:06Z</time></trkpt>
<trkpt lat="46.18926633" lon="6.05629058"><ele>400.045898</ele><time>2009-10-19T11:41:07Z</time></trkpt>
<trkpt lat="46.18923733" lon="6.05632444"><ele>399.565063</ele><time>2009-10-19T11:41:08Z</time></trkpt>
<trkpt lat="46.18920674" lon="6.05635545"><ele>399.565063</ele><time>2009-10-19T11:41:09Z</time></trkpt>
<trkpt lat="46.18917522" lon="6.05639024"><ele>399.565063</ele><time>2009-10-19T11:41:10Z</time></trkpt>
<trkpt lat="46.18914412" lon="6.05642745"><ele>399.084351</ele><time>2009-10-19T11:41:11Z</time></trkpt>
<trkpt lat="46.18911269" lon="6.05646584"><ele>399.084351</ele><time>2009-10-19T11:41:12Z</time></trkpt>
<trkpt lat="46.18908168" lon="6.05650566"><ele>399.084351</ele><time>2009-10-19T11:41:13Z</time></trkpt>
<trkpt lat="46.18905050" lon="6.05654564"><ele>398.60376</ele><time>2009-10-19T11:41:14Z</time></trkpt>
<trkpt lat="46.18901756" lon="6.05658939"><ele>399.084351</ele><time>2009-10-19T11:41:15Z</time></trkpt>
<trkpt lat="46.18898487" lon="6.05663432"><ele>399.084351</ele><time>2009-10-19T11:41:16Z</time></trkpt>
<trkpt lat="46.18895293" lon="6.05667916"><ele>399.084351</ele><time>2009-10-19T11:41:17Z</time></trkpt>
<trkpt lat="46.18892125" lon="6.05672467"><ele>399.084351</ele><time>2009-10-19T11:41:18Z</time></trkpt>
<trkpt lat="46.18888973" lon="6.05677119"><ele>399.565063</ele><time>2009-10-19T11:41:19Z</time></trkpt>
<trkpt lat="46.18885704" lon="6.05681612"><ele>399.565063</ele><time>2009-10-19T11:41:20Z</time></trkpt>
<trkpt lat="46.18882368" lon="6.05686013"><ele>399.565063</ele><time>2009-10-19T11:41:21Z</time></trkpt>
<trkpt lat="46.18878957" lon="6.05690246"><ele>399.565063</ele><time>2009-10-19T11:41:22Z</time></trkpt>
<trkpt lat="46.18875587" lon="6.05694478"><ele>400.045898</ele><time>2009-10-19T11:41:23Z</time></trkpt>
<trkpt lat="46.18872629" lon="6.05700044"><ele>400.526489</ele><time>2009-10-19T11:41:24Z</time></trkpt>
<trkpt lat="46.18871313" lon="6.05705719"><ele>400.526489</ele><time>2009-10-19T11:41:25Z</time></trkpt>
<trkpt lat="46.18871707" lon="6.05712483"><ele>401.00708</ele><time>2009-10-19T11:41:26Z</time></trkpt>
<trkpt lat="46.18874280" lon="6.05718635"><ele>401.487793</ele><time>2009-10-19T11:41:27Z</time></trkpt>
<trkpt lat="46.18877758" lon="6.05724528"><ele>401.487793</ele><time>2009-10-19T11:41:28Z</time></trkpt>
<trkpt lat="46.18881572" lon="6.05730814"><ele>401.968506</ele><time>2009-10-19T11:41:29Z</time></trkpt>
<trkpt lat="46.18885646" lon="6.05737486"><ele>401.968506</ele><time>2009-10-19T11:41:30Z</time></trkpt>
<trkpt lat="46.18889912" lon="6.05744367"><ele>401.968506</ele><time>2009-10-19T11:41:31Z</time></trkpt>
<trkpt lat="46.18894287" lon="6.05751215"><ele>401.968506</ele><time>2009-10-19T11:41:32Z</time></trkpt>
<trkpt lat="46.18898604" lon="6.05758097"><ele>402.449097</ele><time>2009-10-19T11:41:33Z</time></trkpt>
<trkpt lat="46.18902887" lon="6.05764928"><ele>402.449097</ele><time>2009-10-19T11:41:34Z</time></trkpt>
<trkpt lat="46.18907254" lon="6.05771550"><ele>402.449097</ele><time>2009-10-19T11:41:35Z</time></trkpt>
<trkpt lat="46.18911638" lon="6.05778012"><ele>402.929688</ele><time>2009-10-19T11:41:36Z</time></trkpt>
<trkpt lat="46.18915888" lon="6.05784517"><ele>402.929688</ele><time>2009-10-19T11:41:37Z</time></trkpt>
<trkpt lat="46.18920020" lon="6.05791097"><ele>402.929688</ele><time>2009-10-19T11:41:38Z</time></trkpt>
<trkpt lat="46.18924127" lon="6.05797668"><ele>402.929688</ele><time>2009-10-19T11:41:39Z</time></trkpt>
<trkpt lat="46.18928335" lon="6.05804122"><ele>403.4104</ele><time>2009-10-19T11:41:40Z</time></trkpt>
<trkpt lat="46.18932609" lon="6.05810492"><ele>403.4104</ele><time>2009-10-19T11:41:41Z</time></trkpt>
<trkpt lat="46.18936859" lon="6.05816913"><ele>403.4104</ele><time>2009-10-19T11:41:42Z</time></trkpt>
<trkpt lat="46.18941134" lon="6.05823384"><ele>403.4104</ele><time>2009-10-19T11:41:43Z</time></trkpt>
<trkpt lat="46.18945442" lon="6.05829896"><ele>403.4104</ele><time>2009-10-19T11:41:44Z</time></trkpt>
<trkpt lat="46.18949625" lon="6.05836627"><ele>403.4104</ele><time>2009-10-19T11:41:45Z</time></trkpt>
<trkpt lat="46.18953447" lon="6.05843752"><ele>403.4104</ele><time>2009-10-19T11:41:46Z</time></trkpt>
<trkpt lat="46.18956766" lon="6.05851404"><ele>403.891113</ele><time>2009-10-19T11:41:47Z</time></trkpt>
<trkpt lat="46.18959557" lon="6.05858814"><ele>403.891113</ele><time>2009-10-19T11:41:48Z</time></trkpt>
<trkpt lat="46.18962298" lon="6.05865796"><ele>403.891113</ele><time>2009-10-19T11:41:49Z</time></trkpt>
<trkpt lat="46.18965257" lon="6.05872024"><ele>404.371704</ele><time>2009-10-19T11:41:50Z</time></trkpt>
<trkpt lat="46.18968165" lon="6.05877070"><ele>404.371704</ele><time>2009-10-19T11:41:51Z</time></trkpt>
<trkpt lat="46.18971342" lon="6.05881227"><ele>404.371704</ele><time>2009-10-19T11:41:52Z</time></trkpt>
<trkpt lat="46.18975458" lon="6.05885686"><ele>404.371704</ele><time>2009-10-19T11:41:53Z</time></trkpt>
<trkpt lat="46.18980235" lon="6.05891587"><ele>404.852295</ele><time>2009-10-19T11:41:54Z</time></trkpt>
<trkpt lat="46.18984862" lon="6.05897957"><ele>405.813721</ele><time>2009-10-19T11:41:55Z</time></trkpt>
<trkpt lat="46.18988986" lon="6.05903707"><ele>406.774902</ele><time>2009-10-19T11:41:56Z</time></trkpt>
<trkpt lat="46.18993613" lon="6.05909994"><ele>407.736328</ele><time>2009-10-19T11:41:57Z</time></trkpt>
<trkpt lat="46.18996530" lon="6.05915803"><ele>409.178345</ele><time>2009-10-19T11:41:58Z</time></trkpt>
<trkpt lat="46.18999363" lon="6.05921527"><ele>410.620239</ele><time>2009-10-19T11:41:59Z</time></trkpt>
<trkpt lat="46.19002238" lon="6.05927655"><ele>412.062256</ele><time>2009-10-19T11:42:00Z</time></trkpt>
<trkpt lat="46.19004878" lon="6.05933773"><ele>413.504272</ele><time>2009-10-19T11:42:01Z</time></trkpt>
<trkpt lat="46.19007586" lon="6.05939875"><ele>415.42688</ele><time>2009-10-19T11:42:02Z</time></trkpt>
<trkpt lat="46.19010813" lon="6.05945919"><ele>417.8302</ele><time>2009-10-19T11:42:03Z</time></trkpt>
<trkpt lat="46.19013109" lon="6.05952155"><ele>419.752808</ele><time>2009-10-19T11:42:04Z</time></trkpt>
<trkpt lat="46.19015389" lon="6.05958357"><ele>422.156006</ele><time>2009-10-19T11:42:05Z</time></trkpt>
<trkpt lat="46.19017174" lon="6.05964527"><ele>425.040161</ele><time>2009-10-19T11:42:06Z</time></trkpt>
<trkpt lat="46.19019614" lon="6.05970712"><ele>426.001343</ele><time>2009-10-19T11:42:07Z</time></trkpt>
<trkpt lat="46.19022120" lon="6.05976303"><ele>426.962769</ele><time>2009-10-19T11:42:08Z</time></trkpt>
<trkpt lat="46.19025028" lon="6.05982439"><ele>427.92395</ele><time>2009-10-19T11:42:09Z</time></trkpt>
<trkpt lat="46.19027853" lon="6.05988574"><ele>429.365967</ele><time>2009-10-19T11:42:10Z</time></trkpt>
<trkpt lat="46.19030518" lon="6.05994492"><ele>430.327271</ele><time>2009-10-19T11:42:11Z</time></trkpt>
<trkpt lat="46.19032547" lon="6.06000242"><ele>431.769165</ele><time>2009-10-19T11:42:12Z</time></trkpt>
<trkpt lat="46.19034877" lon="6.06005497"><ele>432.730713</ele><time>2009-10-19T11:42:13Z</time></trkpt>
<trkpt lat="46.19037693" lon="6.06010820"><ele>434.172607</ele><time>2009-10-19T11:42:14Z</time></trkpt>
<trkpt lat="46.19040652" lon="6.06016209"><ele>435.614502</ele><time>2009-10-19T11:42:15Z</time></trkpt>
<trkpt lat="46.19043494" lon="6.06021415"><ele>436.575928</ele><time>2009-10-19T11:42:16Z</time></trkpt>
<trkpt lat="46.19046654" lon="6.06027022"><ele>437.537109</ele><time>2009-10-19T11:42:17Z</time></trkpt>
<trkpt lat="46.19050015" lon="6.06032336"><ele>438.498535</ele><time>2009-10-19T11:42:18Z</time></trkpt>
<trkpt lat="46.19053426" lon="6.06037742"><ele>439.459717</ele><time>2009-10-19T11:42:19Z</time></trkpt>
<trkpt lat="46.19057760" lon="6.06042956"><ele>439.459717</ele><time>2009-10-19T11:42:20Z</time></trkpt>
<trkpt lat="46.19061322" lon="6.06047977"><ele>439.94043</ele><time>2009-10-19T11:42:21Z</time></trkpt>
<trkpt lat="46.19064717" lon="6.06052805"><ele>440.421265</ele><time>2009-10-19T11:42:22Z</time></trkpt>
<trkpt lat="46.19068187" lon="6.06057624"><ele>439.94043</ele><time>2009-10-19T11:42:23Z</time></trkpt>
<trkpt lat="46.19072118" lon="6.06062310"><ele>439.94043</ele><time>2009-10-19T11:42:24Z</time></trkpt>
<trkpt lat="46.19076150" lon="6.06066610"><ele>438.979126</ele><time>2009-10-19T11:42:25Z</time></trkpt>
<trkpt lat="46.19079972" lon="6.06070817"><ele>438.979126</ele><time>2009-10-19T11:42:26Z</time></trkpt>
<trkpt lat="46.19083324" lon="6.06074832"><ele>438.498535</ele><time>2009-10-19T11:42:27Z</time></trkpt>
<trkpt lat="46.19087256" lon="6.06078755"><ele>438.017822</ele><time>2009-10-19T11:42:28Z</time></trkpt>
<trkpt lat="46.19091379" lon="6.06082695"><ele>437.537109</ele><time>2009-10-19T11:42:29Z</time></trkpt>
<trkpt lat="46.19095034" lon="6.06086617"><ele>437.056519</ele><time>2009-10-19T11:42:30Z</time></trkpt>
<trkpt lat="46.19098504" lon="6.06090523"><ele>437.056519</ele><time>2009-10-19T11:42:31Z</time></trkpt>
<trkpt lat="46.19102167" lon="6.06094815"><ele>436.575928</ele><time>2009-10-19T11:42:32Z</time></trkpt>
<trkpt lat="46.19105528" lon="6.06099023"><ele>437.056519</ele><time>2009-10-19T11:42:33Z</time></trkpt>
<trkpt lat="46.19108822" lon="6.06103037"><ele>437.056519</ele><time>2009-10-19T11:42:34Z</time></trkpt>
<trkpt lat="46.19112980" lon="6.06107019"><ele>436.575928</ele><time>2009-10-19T11:42:35Z</time></trkpt>
<trkpt lat="46.19117548" lon="6.06111042"><ele>436.575928</ele><time>2009-10-19T11:42:36Z</time></trkpt>
<trkpt lat="46.19121378" lon="6.06115007"><ele>436.095215</ele><time>2009-10-19T11:42:37Z</time></trkpt>
<trkpt lat="46.19125226" lon="6.06119248"><ele>436.095215</ele><time>2009-10-19T11:42:38Z</time></trkpt>
<trkpt lat="46.19129148" lon="6.06122886"><ele>435.614502</ele><time>2009-10-19T11:42:39Z</time></trkpt>
<trkpt lat="46.19132987" lon="6.06126708"><ele>435.614502</ele><time>2009-10-19T11:42:40Z</time></trkpt>
<trkpt lat="46.19136424" lon="6.06130614"><ele>435.614502</ele><time>2009-10-19T11:42:41Z</time></trkpt>
<trkpt lat="46.19140497" lon="6.06134905"><ele>435.133911</ele><time>2009-10-19T11:42:42Z</time></trkpt>
<trkpt lat="46.19144512" lon="6.06138828"><ele>434.65332</ele><time>2009-10-19T11:42:43Z</time></trkpt>
<trkpt lat="46.19148376" lon="6.06142667"><ele>434.65332</ele><time>2009-10-19T11:42:44Z</time></trkpt>
<trkpt lat="46.19151595" lon="6.06146556"><ele>434.172607</ele><time>2009-10-19T11:42:45Z</time></trkpt>
<trkpt lat="46.19154177" lon="6.06150244"><ele>433.691895</ele><time>2009-10-19T11:42:46Z</time></trkpt>
<trkpt lat="46.19157672" lon="6.06154427"><ele>433.691895</ele><time>2009-10-19T11:42:47Z</time></trkpt>
<trkpt lat="46.19160773" lon="6.06158685"><ele>433.691895</ele><time>2009-10-19T11:42:48Z</time></trkpt>
<trkpt lat="46.19164939" lon="6.06163069"><ele>433.691895</ele><time>2009-10-19T11:42:49Z</time></trkpt>
<trkpt lat="46.19168409" lon="6.06167494"><ele>433.691895</ele><time>2009-10-19T11:42:50Z</time></trkpt>
<trkpt lat="46.19170815" lon="6.06171853"><ele>434.65332</ele><time>2009-10-19T11:42:51Z</time></trkpt>
<trkpt lat="46.19173648" lon="6.06176589"><ele>435.133911</ele><time>2009-10-19T11:42:52Z</time></trkpt>
<trkpt lat="46.19175953" lon="6.06181316"><ele>435.133911</ele><time>2009-10-19T11:42:53Z</time></trkpt>
<trkpt lat="46.19178224" lon="6.06186387"><ele>436.095215</ele><time>2009-10-19T11:42:54Z</time></trkpt>
<trkpt lat="46.19180546" lon="6.06191609"><ele>437.056519</ele><time>2009-10-19T11:42:55Z</time></trkpt>
<trkpt lat="46.19182172" lon="6.06196202"><ele>437.537109</ele><time>2009-10-19T11:42:56Z</time></trkpt>
<trkpt lat="46.19183673" lon="6.06201349"><ele>437.537109</ele><time>2009-10-19T11:42:57Z</time></trkpt>
<trkpt lat="46.19185156" lon="6.06206613"><ele>438.498535</ele><time>2009-10-19T11:42:58Z</time></trkpt>
<trkpt lat="46.19187017" lon="6.06212589"><ele>439.94043</ele><time>2009-10-19T11:42:59Z</time></trkpt>
<trkpt lat="46.19188442" lon="6.06219018"><ele>441.382446</ele><time>2009-10-19T11:43:00Z</time></trkpt>
<trkpt lat="46.19189708" lon="6.06226042"><ele>442.343872</ele><time>2009-10-19T11:43:01Z</time></trkpt>
<trkpt lat="46.19191543" lon="6.06233275"><ele>443.785767</ele><time>2009-10-19T11:43:02Z</time></trkpt>
<trkpt lat="46.19192339" lon="6.06239663"><ele>444.74707</ele><time>2009-10-19T11:43:03Z</time></trkpt>
<trkpt lat="46.19194016" lon="6.06247483"><ele>445.227661</ele><time>2009-10-19T11:43:04Z</time></trkpt>
<trkpt lat="46.19196346" lon="6.06255856"><ele>445.708374</ele><time>2009-10-19T11:43:05Z</time></trkpt>
<trkpt lat="46.19198333" lon="6.06264398"><ele>446.669678</ele><time>2009-10-19T11:43:06Z</time></trkpt>
<trkpt lat="46.19199774" lon="6.06271707"><ele>447.150269</ele><time>2009-10-19T11:43:07Z</time></trkpt>
<trkpt lat="46.19200948" lon="6.06278546"><ele>448.592407</ele><time>2009-10-19T11:43:08Z</time></trkpt>
<trkpt lat="46.19201509" lon="6.06285218"><ele>449.553711</ele><time>2009-10-19T11:43:09Z</time></trkpt>
<trkpt lat="46.19201669" lon="6.06291530"><ele>449.553711</ele><time>2009-10-19T11:43:10Z</time></trkpt>
<trkpt lat="46.19202130" lon="6.06297799"><ele>450.034424</ele><time>2009-10-19T11:43:11Z</time></trkpt>
<trkpt lat="46.19203119" lon="6.06304396"><ele>450.515015</ele><time>2009-10-19T11:43:12Z</time></trkpt>
<trkpt lat="46.19204108" lon="6.06311965"><ele>451.476318</ele><time>2009-10-19T11:43:13Z</time></trkpt>
<trkpt lat="46.19204644" lon="6.06318955"><ele>452.918213</ele><time>2009-10-19T11:43:14Z</time></trkpt>
<trkpt lat="46.19205583" lon="6.06326465"><ele>453.879639</ele><time>2009-10-19T11:43:15Z</time></trkpt>
<trkpt lat="46.19207653" lon="6.06334018"><ele>453.879639</ele><time>2009-10-19T11:43:16Z</time></trkpt>
<trkpt lat="46.19209975" lon="6.06341218"><ele>453.879639</ele><time>2009-10-19T11:43:17Z</time></trkpt>
<trkpt lat="46.19211894" lon="6.06347588"><ele>454.360229</ele><time>2009-10-19T11:43:18Z</time></trkpt>
<trkpt lat="46.19214174" lon="6.06354302"><ele>455.321533</ele><time>2009-10-19T11:43:19Z</time></trkpt>
<trkpt lat="46.19216714" lon="6.06361602"><ele>455.802246</ele><time>2009-10-19T11:43:20Z</time></trkpt>
<trkpt lat="46.19218759" lon="6.06368157"><ele>455.321533</ele><time>2009-10-19T11:43:21Z</time></trkpt>
<trkpt lat="46.19221416" lon="6.06374737"><ele>454.84082</ele><time>2009-10-19T11:43:22Z</time></trkpt>
<trkpt lat="46.19224065" lon="6.06381669"><ele>452.437622</ele><time>2009-10-19T11:43:23Z</time></trkpt>
<trkpt lat="46.19226395" lon="6.06388886"><ele>449.553711</ele><time>2009-10-19T11:43:24Z</time></trkpt>
<trkpt lat="46.19228876" lon="6.06394820"><ele>450.034424</ele><time>2009-10-19T11:43:25Z</time></trkpt>
<trkpt lat="46.19231223" lon="6.06401064"><ele>450.034424</ele><time>2009-10-19T11:43:26Z</time></trkpt>
<trkpt lat="46.19233260" lon="6.06407736"><ele>450.515015</ele><time>2009-10-19T11:43:27Z</time></trkpt>
<trkpt lat="46.19235724" lon="6.06414417"><ele>450.034424</ele><time>2009-10-19T11:43:28Z</time></trkpt>
<trkpt lat="46.19238012" lon="6.06420988"><ele>450.034424</ele><time>2009-10-19T11:43:29Z</time></trkpt>
<trkpt lat="46.19240209" lon="6.06426579"><ele>450.034424</ele><time>2009-10-19T11:43:30Z</time></trkpt>
<trkpt lat="46.19242539" lon="6.06432773"><ele>450.995605</ele><time>2009-10-19T11:43:31Z</time></trkpt>
<trkpt lat="46.19245489" lon="6.06439797"><ele>451.476318</ele><time>2009-10-19T11:43:32Z</time></trkpt>
<trkpt lat="46.19248297" lon="6.06446813"><ele>451.476318</ele><time>2009-10-19T11:43:33Z</time></trkpt>
<trkpt lat="46.19250208" lon="6.06453678"><ele>451.476318</ele><time>2009-10-19T11:43:34Z</time></trkpt>
<trkpt lat="46.19252035" lon="6.06460735"><ele>450.034424</ele><time>2009-10-19T11:43:35Z</time></trkpt>
<trkpt lat="46.19252622" lon="6.06467332"><ele>448.592407</ele><time>2009-10-19T11:43:36Z</time></trkpt>
<trkpt lat="46.19252924" lon="6.06474574"><ele>447.630981</ele><time>2009-10-19T11:43:37Z</time></trkpt>
<trkpt lat="46.19253385" lon="6.06483559"><ele>445.708374</ele><time>2009-10-19T11:43:38Z</time></trkpt>
<trkpt lat="46.19253309" lon="6.06490994"><ele>443.785767</ele><time>2009-10-19T11:43:39Z</time></trkpt>
<trkpt lat="46.19252597" lon="6.06499057"><ele>441.382446</ele><time>2009-10-19T11:43:40Z</time></trkpt>
<trkpt lat="46.19252488" lon="6.06507464"><ele>439.459717</ele><time>2009-10-19T11:43:41Z</time></trkpt>
<trkpt lat="46.19251759" lon="6.06515067"><ele>437.537109</ele><time>2009-10-19T11:43:42Z</time></trkpt>
<trkpt lat="46.19250795" lon="6.06522669"><ele>436.095215</ele><time>2009-10-19T11:43:43Z</time></trkpt>
<trkpt lat="46.19248976" lon="6.06529274"><ele>434.172607</ele><time>2009-10-19T11:43:44Z</time></trkpt>
<trkpt lat="46.19246294" lon="6.06536524"><ele>432.25</ele><time>2009-10-19T11:43:45Z</time></trkpt>
<trkpt lat="46.19244148" lon="6.06543423"><ele>430.327271</ele><time>2009-10-19T11:43:46Z</time></trkpt>
<trkpt lat="46.19240887" lon="6.06550589"><ele>429.365967</ele><time>2009-10-19T11:43:47Z</time></trkpt>
<trkpt lat="46.19237937" lon="6.06557286"><ele>427.443359</ele><time>2009-10-19T11:43:48Z</time></trkpt>
<trkpt lat="46.19235112" lon="6.06562718"><ele>426.001343</ele><time>2009-10-19T11:43:49Z</time></trkpt>
<trkpt lat="46.19232045" lon="6.06567219"><ele>424.559448</ele><time>2009-10-19T11:43:50Z</time></trkpt>
<trkpt lat="46.19228583" lon="6.06572248"><ele>423.598022</ele><time>2009-10-19T11:43:51Z</time></trkpt>
<trkpt lat="46.19224216" lon="6.06575794"><ele>422.156006</ele><time>2009-10-19T11:43:52Z</time></trkpt>
<trkpt lat="46.19220117" lon="6.06578233"><ele>419.752808</ele><time>2009-10-19T11:43:53Z</time></trkpt>
<trkpt lat="46.19215650" lon="6.06581493"><ele>418.310791</ele><time>2009-10-19T11:43:54Z</time></trkpt>
<trkpt lat="46.19210780" lon="6.06584276"><ele>416.868896</ele><time>2009-10-19T11:43:55Z</time></trkpt>
<trkpt lat="46.19205818" lon="6.06585994"><ele>415.907471</ele><time>2009-10-19T11:43:56Z</time></trkpt>
<trkpt lat="46.19201342" lon="6.06587268"><ele>414.946167</ele><time>2009-10-19T11:43:57Z</time></trkpt>
<trkpt lat="46.19197084" lon="6.06588249"><ele>413.504272</ele><time>2009-10-19T11:43:58Z</time></trkpt>
<trkpt lat="46.19192348" lon="6.06590143"><ele>413.02356</ele><time>2009-10-19T11:43:59Z</time></trkpt>
<trkpt lat="46.19188132" lon="6.06593329"><ele>414.465454</ele><time>2009-10-19T11:44:00Z</time></trkpt>
<trkpt lat="46.19182843" lon="6.06597293"><ele>415.42688</ele><time>2009-10-19T11:44:01Z</time></trkpt>
<trkpt lat="46.19179473" lon="6.06600923"><ele>414.946167</ele><time>2009-10-19T11:44:02Z</time></trkpt>
<trkpt lat="46.19176724" lon="6.06605256"><ele>413.984863</ele><time>2009-10-19T11:44:03Z</time></trkpt>
<trkpt lat="46.19174000" lon="6.06609103"><ele>413.02356</ele><time>2009-10-19T11:44:04Z</time></trkpt>
<trkpt lat="46.19171058" lon="6.06612515"><ele>412.062256</ele><time>2009-10-19T11:44:05Z</time></trkpt>
<trkpt lat="46.19168015" lon="6.06614308"><ele>411.100952</ele><time>2009-10-19T11:44:06Z</time></trkpt>
<trkpt lat="46.19164419" lon="6.06614476"><ele>410.620239</ele><time>2009-10-19T11:44:07Z</time></trkpt>
<trkpt lat="46.19161519" lon="6.06613604"><ele>409.659058</ele><time>2009-10-19T11:44:08Z</time></trkpt>
<trkpt lat="46.19159348" lon="6.06612699"><ele>409.659058</ele><time>2009-10-19T11:44:09Z</time></trkpt>
<trkpt lat="46.19157814" lon="6.06612255"><ele>409.659058</ele><time>2009-10-19T11:44:10Z</time></trkpt>
<trkpt lat="46.19156775" lon="6.06611894"><ele>409.178345</ele><time>2009-10-19T11:44:11Z</time></trkpt>
<trkpt lat="46.19156029" lon="6.06611559"><ele>409.178345</ele><time>2009-10-19T11:44:12Z</time></trkpt>
<trkpt lat="46.19155526" lon="6.06611283"><ele>408.697632</ele><time>2009-10-19T11:44:13Z</time></trkpt>
<trkpt lat="46.19155618" lon="6.06611165"><ele>408.217041</ele><time>2009-10-19T11:44:14Z</time></trkpt>
<trkpt lat="46.19155459" lon="6.06610939"><ele>407.736328</ele><time>2009-10-19T11:44:15Z</time></trkpt>
<trkpt lat="46.19154797" lon="6.06610453"><ele>406.774902</ele><time>2009-10-19T11:44:16Z</time></trkpt>
<trkpt lat="46.19154328" lon="6.06610377"><ele>406.774902</ele><time>2009-10-19T11:44:17Z</time></trkpt>
<trkpt lat="46.19153623" lon="6.06609866"><ele>406.294312</ele><time>2009-10-19T11:44:18Z</time></trkpt>
<trkpt lat="46.19152148" lon="6.06608718"><ele>405.813721</ele><time>2009-10-19T11:44:19Z</time></trkpt>
<trkpt lat="46.19150086" lon="6.06606966"><ele>405.813721</ele><time>2009-10-19T11:44:20Z</time></trkpt>
<trkpt lat="46.19147153" lon="6.06604736"><ele>406.294312</ele><time>2009-10-19T11:44:21Z</time></trkpt>
<trkpt lat="46.19144043" lon="6.06602515"><ele>405.813721</ele><time>2009-10-19T11:44:22Z</time></trkpt>
<trkpt lat="46.19140715" lon="6.06600772"><ele>405.813721</ele><time>2009-10-19T11:44:23Z</time></trkpt>
<trkpt lat="46.19137036" lon="6.06599472"><ele>405.813721</ele><time>2009-10-19T11:44:24Z</time></trkpt>
<trkpt lat="46.19133784" lon="6.06598609"><ele>405.333008</ele><time>2009-10-19T11:44:25Z</time></trkpt>
<trkpt lat="46.19129475" lon="6.06598232"><ele>404.852295</ele><time>2009-10-19T11:44:26Z</time></trkpt>
<trkpt lat="46.19125192" lon="6.06598802"><ele>404.371704</ele><time>2009-10-19T11:44:27Z</time></trkpt>
<trkpt lat="46.19120657" lon="6.06600042"><ele>404.852295</ele><time>2009-10-19T11:44:28Z</time></trkpt>
<trkpt lat="46.19115343" lon="6.06601417"><ele>405.333008</ele><time>2009-10-19T11:44:29Z</time></trkpt>
<trkpt lat="46.19108696" lon="6.06603974"><ele>408.697632</ele><time>2009-10-19T11:44:30Z</time></trkpt>
<trkpt lat="46.19103508" lon="6.06605859"><ele>409.178345</ele><time>2009-10-19T11:44:31Z</time></trkpt>
<trkpt lat="46.19098948" lon="6.06607804"><ele>410.139648</ele><time>2009-10-19T11:44:32Z</time></trkpt>
<trkpt lat="46.19095126" lon="6.06610646"><ele>412.062256</ele><time>2009-10-19T11:44:33Z</time></trkpt>
<trkpt lat="46.19092167" lon="6.06614099"><ele>413.02356</ele><time>2009-10-19T11:44:34Z</time></trkpt>
<trkpt lat="46.19091086" lon="6.06618550"><ele>413.504272</ele><time>2009-10-19T11:44:35Z</time></trkpt>
<trkpt lat="46.19091363" lon="6.06624769"><ele>413.984863</ele><time>2009-10-19T11:44:36Z</time></trkpt>
<trkpt lat="46.19091765" lon="6.06631399"><ele>414.465454</ele><time>2009-10-19T11:44:37Z</time></trkpt>
<trkpt lat="46.19092327" lon="6.06638532"><ele>414.465454</ele><time>2009-10-19T11:44:38Z</time></trkpt>
<trkpt lat="46.19093098" lon="6.06646193"><ele>414.465454</ele><time>2009-10-19T11:44:39Z</time></trkpt>
<trkpt lat="46.19093944" lon="6.06654768"><ele>413.504272</ele><time>2009-10-19T11:44:40Z</time></trkpt>
<trkpt lat="46.19094347" lon="6.06663569"><ele>413.02356</ele><time>2009-10-19T11:44:41Z</time></trkpt>
<trkpt lat="46.19094187" lon="6.06672688"><ele>412.542847</ele><time>2009-10-19T11:44:42Z</time></trkpt>
<trkpt lat="46.19093793" lon="6.06681540"><ele>412.062256</ele><time>2009-10-19T11:44:43Z</time></trkpt>
<trkpt lat="46.19092913" lon="6.06689402"><ele>411.581665</ele><time>2009-10-19T11:44:44Z</time></trkpt>
<trkpt lat="46.19091589" lon="6.06697314"><ele>411.100952</ele><time>2009-10-19T11:44:45Z</time></trkpt>
<trkpt lat="46.19089753" lon="6.06705864"><ele>410.139648</ele><time>2009-10-19T11:44:46Z</time></trkpt>
<trkpt lat="46.19088722" lon="6.06715218"><ele>410.620239</ele><time>2009-10-19T11:44:47Z</time></trkpt>
<trkpt lat="46.19088245" lon="6.06724103"><ele>410.139648</ele><time>2009-10-19T11:44:48Z</time></trkpt>
<trkpt lat="46.19088245" lon="6.06732275"><ele>410.139648</ele><time>2009-10-19T11:44:49Z</time></trkpt>
<trkpt lat="46.19088169" lon="6.06738998"><ele>410.139648</ele><time>2009-10-19T11:44:50Z</time></trkpt>
<trkpt lat="46.19089410" lon="6.06744840"><ele>409.659058</ele><time>2009-10-19T11:44:51Z</time></trkpt>
<trkpt lat="46.19091874" lon="6.06750129"><ele>409.659058</ele><time>2009-10-19T11:44:52Z</time></trkpt>
<trkpt lat="46.19095487" lon="6.06754839"><ele>409.659058</ele><time>2009-10-19T11:44:53Z</time></trkpt>
<trkpt lat="46.19099787" lon="6.06759508"><ele>409.178345</ele><time>2009-10-19T11:44:54Z</time></trkpt>
<trkpt lat="46.19104204" lon="6.06764462"><ele>408.697632</ele><time>2009-10-19T11:44:55Z</time></trkpt>
<trkpt lat="46.19108772" lon="6.06769265"><ele>407.736328</ele><time>2009-10-19T11:44:56Z</time></trkpt>
<trkpt lat="46.19113256" lon="6.06773942"><ele>407.255615</ele><time>2009-10-19T11:44:57Z</time></trkpt>
<trkpt lat="46.19118017" lon="6.06778342"><ele>406.294312</ele><time>2009-10-19T11:44:58Z</time></trkpt>
<trkpt lat="46.19122937" lon="6.06782215"><ele>406.294312</ele><time>2009-10-19T11:44:59Z</time></trkpt>
<trkpt lat="46.19127489" lon="6.06785559"><ele>406.774902</ele><time>2009-10-19T11:45:00Z</time></trkpt>
<trkpt lat="46.19132459" lon="6.06788426"><ele>406.774902</ele><time>2009-10-19T11:45:01Z</time></trkpt>
<trkpt lat="46.19137245" lon="6.06791259"><ele>406.774902</ele><time>2009-10-19T11:45:02Z</time></trkpt>
<trkpt lat="46.19141017" lon="6.06794083"><ele>406.774902</ele><time>2009-10-19T11:45:03Z</time></trkpt>
<trkpt lat="46.19145677" lon="6.06797403"><ele>407.255615</ele><time>2009-10-19T11:45:04Z</time></trkpt>
<trkpt lat="46.19150237" lon="6.06801024"><ele>407.255615</ele><time>2009-10-19T11:45:05Z</time></trkpt>
<trkpt lat="46.19155618" lon="6.06804536"><ele>407.736328</ele><time>2009-10-19T11:45:06Z</time></trkpt>
<trkpt lat="46.19159885" lon="6.06807763"><ele>408.217041</ele><time>2009-10-19T11:45:07Z</time></trkpt>
<trkpt lat="46.19164453" lon="6.06811434"><ele>408.697632</ele><time>2009-10-19T11:45:08Z</time></trkpt>
<trkpt lat="46.19169055" lon="6.06815399"><ele>409.178345</ele><time>2009-10-19T11:45:09Z</time></trkpt>
<trkpt lat="46.19173145" lon="6.06818978"><ele>409.659058</ele><time>2009-10-19T11:45:10Z</time></trkpt>
<trkpt lat="46.19177143" lon="6.06822716"><ele>409.659058</ele><time>2009-10-19T11:45:11Z</time></trkpt>
<trkpt lat="46.19181326" lon="6.06826815"><ele>410.139648</ele><time>2009-10-19T11:45:12Z</time></trkpt>
<trkpt lat="46.19184787" lon="6.06830654"><ele>410.139648</ele><time>2009-10-19T11:45:13Z</time></trkpt>
<trkpt lat="46.19188065" lon="6.06834409"><ele>410.620239</ele><time>2009-10-19T11:45:14Z</time></trkpt>
<trkpt lat="46.19191485" lon="6.06837963"><ele>411.581665</ele><time>2009-10-19T11:45:15Z</time></trkpt>
<trkpt lat="46.19194888" lon="6.06841693"><ele>411.581665</ele><time>2009-10-19T11:45:16Z</time></trkpt>
<trkpt lat="46.19198207" lon="6.06845398"><ele>412.062256</ele><time>2009-10-19T11:45:17Z</time></trkpt>
<trkpt lat="46.19201493" lon="6.06849035"><ele>412.542847</ele><time>2009-10-19T11:45:18Z</time></trkpt>
<trkpt lat="46.19205114" lon="6.06852883"><ele>413.02356</ele><time>2009-10-19T11:45:19Z</time></trkpt>
<trkpt lat="46.19208508" lon="6.06856906"><ele>413.504272</ele><time>2009-10-19T11:45:20Z</time></trkpt>
<trkpt lat="46.19211643" lon="6.06860368"><ele>413.984863</ele><time>2009-10-19T11:45:21Z</time></trkpt>
<trkpt lat="46.19214367" lon="6.06863704"><ele>414.465454</ele><time>2009-10-19T11:45:22Z</time></trkpt>
<trkpt lat="46.19216345" lon="6.06867308"><ele>415.42688</ele><time>2009-10-19T11:45:23Z</time></trkpt>
<trkpt lat="46.19218105" lon="6.06870702"><ele>415.42688</ele><time>2009-10-19T11:45:24Z</time></trkpt>
<trkpt lat="46.19220528" lon="6.06874525"><ele>416.868896</ele><time>2009-10-19T11:45:25Z</time></trkpt>
<trkpt lat="46.19223386" lon="6.06878414"><ele>417.349609</ele><time>2009-10-19T11:45:26Z</time></trkpt>
<trkpt lat="46.19227208" lon="6.06882269"><ele>418.310791</ele><time>2009-10-19T11:45:27Z</time></trkpt>
<trkpt lat="46.19231466" lon="6.06885899"><ele>418.791504</ele><time>2009-10-19T11:45:28Z</time></trkpt>
<trkpt lat="46.19234626" lon="6.06889193"><ele>418.791504</ele><time>2009-10-19T11:45:29Z</time></trkpt>
<trkpt lat="46.19237677" lon="6.06892646"><ele>418.791504</ele><time>2009-10-19T11:45:30Z</time></trkpt>
<trkpt lat="46.19241315" lon="6.06895882"><ele>418.310791</ele><time>2009-10-19T11:45:31Z</time></trkpt>
<trkpt lat="46.19244710" lon="6.06899243"><ele>419.272217</ele><time>2009-10-19T11:45:32Z</time></trkpt>
<trkpt lat="46.19248238" lon="6.06902738"><ele>418.791504</ele><time>2009-10-19T11:45:33Z</time></trkpt>
<trkpt lat="46.19252044" lon="6.06905923"><ele>418.791504</ele><time>2009-10-19T11:45:34Z</time></trkpt>
<trkpt lat="46.19256478" lon="6.06909066"><ele>418.791504</ele><time>2009-10-19T11:45:35Z</time></trkpt>
<trkpt lat="46.19261314" lon="6.06912143"><ele>418.791504</ele><time>2009-10-19T11:45:36Z</time></trkpt>
<trkpt lat="46.19265765" lon="6.06914632"><ele>418.310791</ele><time>2009-10-19T11:45:37Z</time></trkpt>
<trkpt lat="46.19270233" lon="6.06916292"><ele>417.8302</ele><time>2009-10-19T11:45:38Z</time></trkpt>
<trkpt lat="46.19275153" lon="6.06917423"><ele>417.8302</ele><time>2009-10-19T11:45:39Z</time></trkpt>
<trkpt lat="46.19279402" lon="6.06918136"><ele>417.8302</ele><time>2009-10-19T11:45:40Z</time></trkpt>
<trkpt lat="46.19283208" lon="6.06918664"><ele>417.8302</ele><time>2009-10-19T11:45:41Z</time></trkpt>
<trkpt lat="46.19287734" lon="6.06919326"><ele>417.8302</ele><time>2009-10-19T11:45:42Z</time></trkpt>
<trkpt lat="46.19291833" lon="6.06919594"><ele>417.349609</ele><time>2009-10-19T11:45:43Z</time></trkpt>
<trkpt lat="46.19296803" lon="6.06919426"><ele>418.310791</ele><time>2009-10-19T11:45:44Z</time></trkpt>
<trkpt lat="46.19300516" lon="6.06918328"><ele>417.8302</ele><time>2009-10-19T11:45:45Z</time></trkpt>
<trkpt lat="46.19304146" lon="6.06916266"><ele>417.8302</ele><time>2009-10-19T11:45:46Z</time></trkpt>
<trkpt lat="46.19307507" lon="6.06913324"><ele>417.349609</ele><time>2009-10-19T11:45:47Z</time></trkpt>
<trkpt lat="46.19310533" lon="6.06909578"><ele>416.388184</ele><time>2009-10-19T11:45:48Z</time></trkpt>
<trkpt lat="46.19313676" lon="6.06905236"><ele>416.388184</ele><time>2009-10-19T11:45:49Z</time></trkpt>
<trkpt lat="46.19316777" lon="6.06901246"><ele>415.907471</ele><time>2009-10-19T11:45:50Z</time></trkpt>
<trkpt lat="46.19319577" lon="6.06895982"><ele>414.946167</ele><time>2009-10-19T11:45:51Z</time></trkpt>
<trkpt lat="46.19322452" lon="6.06890568"><ele>413.504272</ele><time>2009-10-19T11:45:52Z</time></trkpt>
<trkpt lat="46.19325402" lon="6.06885614"><ele>413.02356</ele><time>2009-10-19T11:45:53Z</time></trkpt>
<trkpt lat="46.19328294" lon="6.06880937"><ele>413.504272</ele><time>2009-10-19T11:45:54Z</time></trkpt>
<trkpt lat="46.19331144" lon="6.06877014"><ele>413.02356</ele><time>2009-10-19T11:45:55Z</time></trkpt>
<trkpt lat="46.19334119" lon="6.06873879"><ele>413.504272</ele><time>2009-10-19T11:45:56Z</time></trkpt>
<trkpt lat="46.19337162" lon="6.06872882"><ele>413.02356</ele><time>2009-10-19T11:45:57Z</time></trkpt>
<trkpt lat="46.19340339" lon="6.06874290"><ele>413.984863</ele><time>2009-10-19T11:45:58Z</time></trkpt>
<trkpt lat="46.19342585" lon="6.06876612"><ele>413.504272</ele><time>2009-10-19T11:45:59Z</time></trkpt>
<trkpt lat="46.19344672" lon="6.06880258"><ele>413.02356</ele><time>2009-10-19T11:46:00Z</time></trkpt>
<trkpt lat="46.19346784" lon="6.06883435"><ele>413.984863</ele><time>2009-10-19T11:46:01Z</time></trkpt>
<trkpt lat="46.19348939" lon="6.06886494"><ele>413.504272</ele><time>2009-10-19T11:46:02Z</time></trkpt>
<trkpt lat="46.19351042" lon="6.06890224"><ele>413.02356</ele><time>2009-10-19T11:46:03Z</time></trkpt>
<trkpt lat="46.19352568" lon="6.06893308"><ele>414.465454</ele><time>2009-10-19T11:46:04Z</time></trkpt>
<trkpt lat="46.19354278" lon="6.06896326"><ele>415.42688</ele><time>2009-10-19T11:46:05Z</time></trkpt>
<trkpt lat="46.19356273" lon="6.06899402"><ele>415.907471</ele><time>2009-10-19T11:46:06Z</time></trkpt>
<trkpt lat="46.19357773" lon="6.06902445"><ele>416.868896</ele><time>2009-10-19T11:46:07Z</time></trkpt>
<trkpt lat="46.19359659" lon="6.06906183"><ele>418.310791</ele><time>2009-10-19T11:46:08Z</time></trkpt>
<trkpt lat="46.19361562" lon="6.06909737"><ele>418.791504</ele><time>2009-10-19T11:46:09Z</time></trkpt>
<trkpt lat="46.19363917" lon="6.06913559"><ele>419.752808</ele><time>2009-10-19T11:46:10Z</time></trkpt>
<trkpt lat="46.19365602" lon="6.06917038"><ele>419.752808</ele><time>2009-10-19T11:46:11Z</time></trkpt>
<trkpt lat="46.19367027" lon="6.06920818"><ele>420.233398</ele><time>2009-10-19T11:46:12Z</time></trkpt>
<trkpt lat="46.19368996" lon="6.06924590"><ele>420.714111</ele><time>2009-10-19T11:46:13Z</time></trkpt>
<trkpt lat="46.19370824" lon="6.06928823"><ele>421.675415</ele><time>2009-10-19T11:46:14Z</time></trkpt>
<trkpt lat="46.19372282" lon="6.06933407"><ele>422.636719</ele><time>2009-10-19T11:46:15Z</time></trkpt>
<trkpt lat="46.19374344" lon="6.06937867"><ele>424.078735</ele><time>2009-10-19T11:46:16Z</time></trkpt>
<trkpt lat="46.19376289" lon="6.06942493"><ele>425.520752</ele><time>2009-10-19T11:46:17Z</time></trkpt>
<trkpt lat="46.19377948" lon="6.06947514"><ele>427.92395</ele><time>2009-10-19T11:46:18Z</time></trkpt>
<trkpt lat="46.19379868" lon="6.06952753"><ele>429.365967</ele><time>2009-10-19T11:46:19Z</time></trkpt>
<trkpt lat="46.19381645" lon="6.06957380"><ele>430.807983</ele><time>2009-10-19T11:46:20Z</time></trkpt>
<trkpt lat="46.19383573" lon="6.06961847"><ele>431.769165</ele><time>2009-10-19T11:46:21Z</time></trkpt>
<trkpt lat="46.19384939" lon="6.06966055"><ele>433.211304</ele><time>2009-10-19T11:46:22Z</time></trkpt>
<trkpt lat="46.19386649" lon="6.06970137"><ele>434.172607</ele><time>2009-10-19T11:46:23Z</time></trkpt>
<trkpt lat="46.19388149" lon="6.06974579"><ele>436.095215</ele><time>2009-10-19T11:46:24Z</time></trkpt>
<trkpt lat="46.19390052" lon="6.06979399"><ele>437.537109</ele><time>2009-10-19T11:46:25Z</time></trkpt>
<trkpt lat="46.19392416" lon="6.06983934"><ele>438.498535</ele><time>2009-10-19T11:46:26Z</time></trkpt>
<trkpt lat="46.19394293" lon="6.06988284"><ele>439.94043</ele><time>2009-10-19T11:46:27Z</time></trkpt>
<trkpt lat="46.19396213" lon="6.06992190"><ele>440.421265</ele><time>2009-10-19T11:46:28Z</time></trkpt>
<trkpt lat="46.19398174" lon="6.06997336"><ele>440.901855</ele><time>2009-10-19T11:46:29Z</time></trkpt>
<trkpt lat="46.19399984" lon="6.07000915"><ele>441.382446</ele><time>2009-10-19T11:46:30Z</time></trkpt>
<trkpt lat="46.19402122" lon="6.07005224"><ele>441.863159</ele><time>2009-10-19T11:46:31Z</time></trkpt>
<trkpt lat="46.19404159" lon="6.07009758"><ele>443.305054</ele><time>2009-10-19T11:46:32Z</time></trkpt>
<trkpt lat="46.19407025" lon="6.07014444"><ele>444.266479</ele><time>2009-10-19T11:46:33Z</time></trkpt>
<trkpt lat="46.19411258" lon="6.07019473"><ele>445.227661</ele><time>2009-10-19T11:46:34Z</time></trkpt>
<trkpt lat="46.19413764" lon="6.07023479"><ele>445.708374</ele><time>2009-10-19T11:46:35Z</time></trkpt>
<trkpt lat="46.19416958" lon="6.07027964"><ele>445.227661</ele><time>2009-10-19T11:46:36Z</time></trkpt>
<trkpt lat="46.19419984" lon="6.07030872"><ele>445.227661</ele><time>2009-10-19T11:46:37Z</time></trkpt>
<trkpt lat="46.19423068" lon="6.07034057"><ele>446.189087</ele><time>2009-10-19T11:46:38Z</time></trkpt>
<trkpt lat="46.19424476" lon="6.07035164"><ele>445.708374</ele><time>2009-10-19T11:46:39Z</time></trkpt>
<trkpt lat="46.19426253" lon="6.07034376"><ele>445.227661</ele><time>2009-10-19T11:46:40Z</time></trkpt>
<trkpt lat="46.19428684" lon="6.07032205"><ele>444.266479</ele><time>2009-10-19T11:46:41Z</time></trkpt>
<trkpt lat="46.19431593" lon="6.07028458"><ele>442.343872</ele><time>2009-10-19T11:46:42Z</time></trkpt>
<trkpt lat="46.19433998" lon="6.07026287"><ele>441.382446</ele><time>2009-10-19T11:46:43Z</time></trkpt>
<trkpt lat="46.19436228" lon="6.07025240"><ele>439.94043</ele><time>2009-10-19T11:46:44Z</time></trkpt>
<trkpt lat="46.19437804" lon="6.07024787"><ele>438.979126</ele><time>2009-10-19T11:46:45Z</time></trkpt>
<trkpt lat="46.19438684" lon="6.07024477"><ele>438.498535</ele><time>2009-10-19T11:46:46Z</time></trkpt>
<trkpt lat="46.19440109" lon="6.07024653"><ele>437.537109</ele><time>2009-10-19T11:46:47Z</time></trkpt>
<trkpt lat="46.19440938" lon="6.07025164"><ele>437.537109</ele><time>2009-10-19T11:46:48Z</time></trkpt>
<trkpt lat="46.19441198" lon="6.07025868"><ele>437.056519</ele><time>2009-10-19T11:46:49Z</time></trkpt>
<trkpt lat="46.19442590" lon="6.07026815"><ele>437.056519</ele><time>2009-10-19T11:46:50Z</time></trkpt>
<trkpt lat="46.19442665" lon="6.07027117"><ele>437.056519</ele><time>2009-10-19T11:46:51Z</time></trkpt>
<trkpt lat="46.19442673" lon="6.07027293"><ele>436.095215</ele><time>2009-10-19T11:46:52Z</time></trkpt>
<trkpt lat="46.19442556" lon="6.07027167"><ele>435.614502</ele><time>2009-10-19T11:46:53Z</time></trkpt>
<trkpt lat="46.19442355" lon="6.07026899"><ele>434.65332</ele><time>2009-10-19T11:46:54Z</time></trkpt>
<trkpt lat="46.19442246" lon="6.07026648"><ele>434.172607</ele><time>2009-10-19T11:46:55Z</time></trkpt>
<trkpt lat="46.19442112" lon="6.07026438"><ele>434.172607</ele><time>2009-10-19T11:46:56Z</time></trkpt>
<trkpt lat="46.19441986" lon="6.07026204"><ele>433.691895</ele><time>2009-10-19T11:46:57Z</time></trkpt>
<trkpt lat="46.19441827" lon="6.07025994"><ele>433.211304</ele><time>2009-10-19T11:46:58Z</time></trkpt>
<trkpt lat="46.19441709" lon="6.07025826"><ele>433.211304</ele><time>2009-10-19T11:46:59Z</time></trkpt>
<trkpt lat="46.19441634" lon="6.07025667"><ele>432.730713</ele><time>2009-10-19T11:47:00Z</time></trkpt>
<trkpt lat="46.19441567" lon="6.07025508"><ele>432.730713</ele><time>2009-10-19T11:47:01Z</time></trkpt>
<trkpt lat="46.19441517" lon="6.07025173"><ele>432.25</ele><time>2009-10-19T11:47:02Z</time></trkpt>
<trkpt lat="46.19441500" lon="6.07024812"><ele>432.25</ele><time>2009-10-19T11:47:03Z</time></trkpt>
<trkpt lat="46.19441349" lon="6.07024762"><ele>432.730713</ele><time>2009-10-19T11:47:04Z</time></trkpt>
<trkpt lat="46.19441232" lon="6.07025047"><ele>433.211304</ele><time>2009-10-19T11:47:05Z</time></trkpt>
<trkpt lat="46.19441156" lon="6.07025365"><ele>433.211304</ele><time>2009-10-19T11:47:06Z</time></trkpt>
<trkpt lat="46.19441475" lon="6.07026363"><ele>433.691895</ele><time>2009-10-19T11:47:07Z</time></trkpt>
<trkpt lat="46.19441835" lon="6.07027243"><ele>433.211304</ele><time>2009-10-19T11:47:08Z</time></trkpt>
<trkpt lat="46.19442137" lon="6.07028148"><ele>432.730713</ele><time>2009-10-19T11:47:09Z</time></trkpt>
<trkpt lat="46.19442372" lon="6.07028953"><ele>432.730713</ele><time>2009-10-19T11:47:10Z</time></trkpt>
<trkpt lat="46.19442640" lon="6.07029657"><ele>432.730713</ele><time>2009-10-19T11:47:11Z</time></trkpt>
<trkpt lat="46.19442875" lon="6.07030378"><ele>432.730713</ele><time>2009-10-19T11:47:12Z</time></trkpt>
<trkpt lat="46.19443143" lon="6.07030554"><ele>432.25</ele><time>2009-10-19T11:47:13Z</time></trkpt>
<trkpt lat="46.19443344" lon="6.07030696"><ele>431.769165</ele><time>2009-10-19T11:47:14Z</time></trkpt>
<trkpt lat="46.19443470" lon="6.07030788"><ele>431.769165</ele><time>2009-10-19T11:47:15Z</time></trkpt>
<trkpt lat="46.19444073" lon="6.07031048"><ele>431.769165</ele><time>2009-10-19T11:47:16Z</time></trkpt>
<trkpt lat="46.19445129" lon="6.07031392"><ele>431.288574</ele><time>2009-10-19T11:47:17Z</time></trkpt>
<trkpt lat="46.19446428" lon="6.07031610"><ele>431.288574</ele><time>2009-10-19T11:47:18Z</time></trkpt>
<trkpt lat="46.19447719" lon="6.07031593"><ele>430.807983</ele><time>2009-10-19T11:47:19Z</time></trkpt>
<trkpt lat="46.19448775" lon="6.07031459"><ele>430.807983</ele><time>2009-10-19T11:47:20Z</time></trkpt>
<trkpt lat="46.19449656" lon="6.07031233"><ele>430.327271</ele><time>2009-10-19T11:47:21Z</time></trkpt>
<trkpt lat="46.19450477" lon="6.07030948"><ele>430.327271</ele><time>2009-10-19T11:47:22Z</time></trkpt>
<trkpt lat="46.19451223" lon="6.07030638"><ele>430.327271</ele><time>2009-10-19T11:47:23Z</time></trkpt>
<trkpt lat="46.19451902" lon="6.07030294"><ele>429.846558</ele><time>2009-10-19T11:47:24Z</time></trkpt>
<trkpt lat="46.19452522" lon="6.07029967"><ele>429.846558</ele><time>2009-10-19T11:47:25Z</time></trkpt>
<trkpt lat="46.19453084" lon="6.07029657"><ele>429.846558</ele><time>2009-10-19T11:47:26Z</time></trkpt>
<trkpt lat="46.19453595" lon="6.07029355"><ele>429.846558</ele><time>2009-10-19T11:47:27Z</time></trkpt>
<trkpt lat="46.19454048" lon="6.07029037"><ele>429.846558</ele><time>2009-10-19T11:47:28Z</time></trkpt>
<trkpt lat="46.19454433" lon="6.07028718"><ele>429.365967</ele><time>2009-10-19T11:47:29Z</time></trkpt>
<trkpt lat="46.19455020" lon="6.07028584"><ele>429.846558</ele><time>2009-10-19T11:47:30Z</time></trkpt>
<trkpt lat="46.19455514" lon="6.07028425"><ele>430.327271</ele><time>2009-10-19T11:47:31Z</time></trkpt>
<trkpt lat="46.19456009" lon="6.07028282"><ele>430.807983</ele><time>2009-10-19T11:47:32Z</time></trkpt>
<trkpt lat="46.19456445" lon="6.07028115"><ele>430.807983</ele><time>2009-10-19T11:47:33Z</time></trkpt>
<trkpt lat="46.19456839" lon="6.07027922"><ele>431.288574</ele><time>2009-10-19T11:47:34Z</time></trkpt>
<trkpt lat="46.19457208" lon="6.07027763"><ele>431.288574</ele><time>2009-10-19T11:47:35Z</time></trkpt>
<trkpt lat="46.19457560" lon="6.07027637"><ele>431.769165</ele><time>2009-10-19T11:47:36Z</time></trkpt>
<trkpt lat="46.19457870" lon="6.07027494"><ele>431.769165</ele><time>2009-10-19T11:47:37Z</time></trkpt>
<trkpt lat="46.19458146" lon="6.07027377"><ele>432.25</ele><time>2009-10-19T11:47:38Z</time></trkpt>
<trkpt lat="46.19458306" lon="6.07027176"><ele>432.25</ele><time>2009-10-19T11:47:39Z</time></trkpt>
<trkpt lat="46.19458415" lon="6.07026983"><ele>432.25</ele><time>2009-10-19T11:47:40Z</time></trkpt>
<trkpt lat="46.19458498" lon="6.07026815"><ele>432.25</ele><time>2009-10-19T11:47:41Z</time></trkpt>
<trkpt lat="46.19458565" lon="6.07026690"><ele>432.25</ele><time>2009-10-19T11:47:42Z</time></trkpt>
<trkpt lat="46.19458716" lon="6.07026623"><ele>432.730713</ele><time>2009-10-19T11:47:43Z</time></trkpt>
<trkpt lat="46.19458859" lon="6.07026564"><ele>432.730713</ele><time>2009-10-19T11:47:44Z</time></trkpt>
<trkpt lat="46.19458959" lon="6.07026505"><ele>433.211304</ele><time>2009-10-19T11:47:45Z</time></trkpt>
<trkpt lat="46.19459043" lon="6.07026463"><ele>433.211304</ele><time>2009-10-19T11:47:46Z</time></trkpt>
<trkpt lat="46.19459102" lon="6.07026430"><ele>433.211304</ele><time>2009-10-19T11:47:47Z</time></trkpt>
<trkpt lat="46.19459152" lon="6.07026380"><ele>433.211304</ele><time>2009-10-19T11:47:48Z</time></trkpt>
<trkpt lat="46.19459228" lon="6.07026346"><ele>433.691895</ele><time>2009-10-19T11:47:49Z</time></trkpt>
<trkpt lat="46.19459270" lon="6.07026304"><ele>433.691895</ele><time>2009-10-19T11:47:50Z</time></trkpt>
<trkpt lat="46.19459379" lon="6.07026287"><ele>433.691895</ele><time>2009-10-19T11:47:51Z</time></trkpt>
<trkpt lat="46.19459487" lon="6.07026245"><ele>433.691895</ele><time>2009-10-19T11:47:52Z</time></trkpt>
<trkpt lat="46.19459555" lon="6.07026204"><ele>434.172607</ele><time>2009-10-19T11:47:53Z</time></trkpt>
<trkpt lat="46.19459580" lon="6.07026153"><ele>434.172607</ele><time>2009-10-19T11:47:54Z</time></trkpt>
<trkpt lat="46.19459588" lon="6.07026120"><ele>434.65332</ele><time>2009-10-19T11:47:55Z</time></trkpt>
<trkpt lat="46.19459647" lon="6.07026120"><ele>434.65332</ele><time>2009-10-19T11:47:56Z</time></trkpt>
<trkpt lat="46.19459764" lon="6.07026145"><ele>434.65332</ele><time>2009-10-19T11:47:57Z</time></trkpt>
<trkpt lat="46.19459798" lon="6.07026128"><ele>434.65332</ele><time>2009-10-19T11:47:58Z</time></trkpt>
<trkpt lat="46.19459798" lon="6.07026103"><ele>434.65332</ele><time>2009-10-19T11:47:59Z</time></trkpt>
<trkpt lat="46.19459806" lon="6.07026095"><ele>434.65332</ele><time>2009-10-19T11:48:00Z</time></trkpt>
<trkpt lat="46.19459705" lon="6.07025952"><ele>434.172607</ele><time>2009-10-19T11:48:01Z</time></trkpt>
<trkpt lat="46.19459504" lon="6.07025776"><ele>433.691895</ele><time>2009-10-19T11:48:02Z</time></trkpt>
<trkpt lat="46.19459102" lon="6.07025533"><ele>433.211304</ele><time>2009-10-19T11:48:03Z</time></trkpt>
<trkpt lat="46.19458658" lon="6.07025298"><ele>433.211304</ele><time>2009-10-19T11:48:04Z</time></trkpt>
<trkpt lat="46.19458205" lon="6.07025038"><ele>432.730713</ele><time>2009-10-19T11:48:05Z</time></trkpt>
<trkpt lat="46.19457853" lon="6.07024795"><ele>432.730713</ele><time>2009-10-19T11:48:06Z</time></trkpt>
<trkpt lat="46.19456990" lon="6.07024502"><ele>432.25</ele><time>2009-10-19T11:48:07Z</time></trkpt>
<trkpt lat="46.19455657" lon="6.07024033"><ele>431.769165</ele><time>2009-10-19T11:48:08Z</time></trkpt>
<trkpt lat="46.19454299" lon="6.07023546"><ele>431.288574</ele><time>2009-10-19T11:48:09Z</time></trkpt>
<trkpt lat="46.19453017" lon="6.07023094"><ele>430.807983</ele><time>2009-10-19T11:48:10Z</time></trkpt>
<trkpt lat="46.19451868" lon="6.07022700"><ele>430.327271</ele><time>2009-10-19T11:48:11Z</time></trkpt>
<trkpt lat="46.19450804" lon="6.07022323"><ele>429.846558</ele><time>2009-10-19T11:48:12Z</time></trkpt>
<trkpt lat="46.19449882" lon="6.07022004"><ele>429.365967</ele><time>2009-10-19T11:48:13Z</time></trkpt>
<trkpt lat="46.19449094" lon="6.07021736"><ele>429.365967</ele><time>2009-10-19T11:48:14Z</time></trkpt>
<trkpt lat="46.19448373" lon="6.07021485"><ele>428.885376</ele><time>2009-10-19T11:48:15Z</time></trkpt>
<trkpt lat="46.19447853" lon="6.07021267"><ele>428.404663</ele><time>2009-10-19T11:48:16Z</time></trkpt>
<trkpt lat="46.19447334" lon="6.07021065"><ele>428.404663</ele><time>2009-10-19T11:48:17Z</time></trkpt>
<trkpt lat="46.19446722" lon="6.07020789"><ele>427.92395</ele><time>2009-10-19T11:48:18Z</time></trkpt>
<trkpt lat="46.19446110" lon="6.07020504"><ele>427.92395</ele><time>2009-10-19T11:48:19Z</time></trkpt>
<trkpt lat="46.19445523" lon="6.07020294"><ele>427.92395</ele><time>2009-10-19T11:48:20Z</time></trkpt>
<trkpt lat="46.19444928" lon="6.07020093"><ele>427.443359</ele><time>2009-10-19T11:48:21Z</time></trkpt>
<trkpt lat="46.19444383" lon="6.07019909"><ele>427.443359</ele><time>2009-10-19T11:48:22Z</time></trkpt>
<trkpt lat="46.19443922" lon="6.07019749"><ele>427.443359</ele><time>2009-10-19T11:48:23Z</time></trkpt>
<trkpt lat="46.19443478" lon="6.07019523"><ele>427.443359</ele><time>2009-10-19T11:48:24Z</time></trkpt>
<trkpt lat="46.19443017" lon="6.07019146"><ele>427.443359</ele><time>2009-10-19T11:48:25Z</time></trkpt>
<trkpt lat="46.19442590" lon="6.07018844"><ele>427.443359</ele><time>2009-10-19T11:48:26Z</time></trkpt>
<trkpt lat="46.19442179" lon="6.07018568"><ele>427.443359</ele><time>2009-10-19T11:48:27Z</time></trkpt>
<trkpt lat="46.19441793" lon="6.07018316"><ele>427.443359</ele><time>2009-10-19T11:48:28Z</time></trkpt>
<trkpt lat="46.19441433" lon="6.07018065"><ele>427.92395</ele><time>2009-10-19T11:48:29Z</time></trkpt>
<trkpt lat="46.19441106" lon="6.07017838"><ele>427.92395</ele><time>2009-10-19T11:48:30Z</time></trkpt>
<trkpt lat="46.19440804" lon="6.07017612"><ele>427.92395</ele><time>2009-10-19T11:48:31Z</time></trkpt>
<trkpt lat="46.19440528" lon="6.07017394"><ele>427.92395</ele><time>2009-10-19T11:48:32Z</time></trkpt>
<trkpt lat="46.19440259" lon="6.07017176"><ele>427.92395</ele><time>2009-10-19T11:48:33Z</time></trkpt>
<trkpt lat="46.19439958" lon="6.07016958"><ele>428.404663</ele><time>2009-10-19T11:48:34Z</time></trkpt>
<trkpt lat="46.19439689" lon="6.07016749"><ele>428.404663</ele><time>2009-10-19T11:48:35Z</time></trkpt>
<trkpt lat="46.19439505" lon="6.07016589"><ele>428.404663</ele><time>2009-10-19T11:48:36Z</time></trkpt>
<trkpt lat="46.19439337" lon="6.07016447"><ele>428.404663</ele><time>2009-10-19T11:48:37Z</time></trkpt>
<trkpt lat="46.19439145" lon="6.07016305"><ele>428.885376</ele><time>2009-10-19T11:48:38Z</time></trkpt>
<trkpt lat="46.19438969" lon="6.07016162"><ele>428.885376</ele><time>2009-10-19T11:48:39Z</time></trkpt>
<trkpt lat="46.19438826" lon="6.07016045"><ele>428.885376</ele><time>2009-10-19T11:48:40Z</time></trkpt>
<trkpt lat="46.19438809" lon="6.07015978"><ele>428.885376</ele><time>2009-10-19T11:48:41Z</time></trkpt>
<trkpt lat="46.19438868" lon="6.07015952"><ele>428.885376</ele><time>2009-10-19T11:48:42Z</time></trkpt>
<trkpt lat="46.19438885" lon="6.07015936"><ele>428.885376</ele><time>2009-10-19T11:48:43Z</time></trkpt>
<trkpt lat="46.19438860" lon="6.07015885"><ele>428.885376</ele><time>2009-10-19T11:48:44Z</time></trkpt>
<trkpt lat="46.19438885" lon="6.07015877"><ele>428.885376</ele><time>2009-10-19T11:48:45Z</time></trkpt>
<trkpt lat="46.19438910" lon="6.07015869"><ele>428.885376</ele><time>2009-10-19T11:48:46Z</time></trkpt>
<trkpt lat="46.19438893" lon="6.07015835"><ele>428.885376</ele><time>2009-10-19T11:48:47Z</time></trkpt>
<trkpt lat="46.19438985" lon="6.07015844"><ele>428.885376</ele><time>2009-10-19T11:48:48Z</time></trkpt>
<trkpt lat="46.19439128" lon="6.07015877"><ele>428.885376</ele><time>2009-10-19T11:48:49Z</time></trkpt>
<trkpt lat="46.19439237" lon="6.07015877"><ele>428.885376</ele><time>2009-10-19T11:48:50Z</time></trkpt>
<trkpt lat="46.19439396" lon="6.07015894"><ele>428.885376</ele><time>2009-10-19T11:48:51Z</time></trkpt>
<trkpt lat="46.19439564" lon="6.07015927"><ele>428.885376</ele><time>2009-10-19T11:48:52Z</time></trkpt>
<trkpt lat="46.19439756" lon="6.07015936"><ele>428.885376</ele><time>2009-10-19T11:48:53Z</time></trkpt>
<trkpt lat="46.19439907" lon="6.07015944"><ele>428.885376</ele><time>2009-10-19T11:48:54Z</time></trkpt>
<trkpt lat="46.19440050" lon="6.07015944"><ele>428.885376</ele><time>2009-10-19T11:48:55Z</time></trkpt>
<trkpt lat="46.19440226" lon="6.07015936"><ele>428.885376</ele><time>2009-10-19T11:48:56Z</time></trkpt>
<trkpt lat="46.19440427" lon="6.07015927"><ele>428.885376</ele><time>2009-10-19T11:48:57Z</time></trkpt>
<trkpt lat="46.19440595" lon="6.07015902"><ele>428.885376</ele><time>2009-10-19T11:48:58Z</time></trkpt>
<trkpt lat="46.19440754" lon="6.07015919"><ele>428.885376</ele><time>2009-10-19T11:48:59Z</time></trkpt>
<trkpt lat="46.19440938" lon="6.07015944"><ele>428.885376</ele><time>2009-10-19T11:49:00Z</time></trkpt>
<trkpt lat="46.19441114" lon="6.07016036"><ele>428.404663</ele><time>2009-10-19T11:49:01Z</time></trkpt>
<trkpt lat="46.19441274" lon="6.07016128"><ele>428.404663</ele><time>2009-10-19T11:49:02Z</time></trkpt>
<trkpt lat="46.19441475" lon="6.07016162"><ele>428.404663</ele><time>2009-10-19T11:49:03Z</time></trkpt>
<trkpt lat="46.19441676" lon="6.07016279"><ele>428.404663</ele><time>2009-10-19T11:49:04Z</time></trkpt>
<trkpt lat="46.19441827" lon="6.07016397"><ele>428.404663</ele><time>2009-10-19T11:49:05Z</time></trkpt>
<trkpt lat="46.19441978" lon="6.07016539"><ele>428.404663</ele><time>2009-10-19T11:49:06Z</time></trkpt>
<trkpt lat="46.19442145" lon="6.07016673"><ele>428.404663</ele><time>2009-10-19T11:49:07Z</time></trkpt>
<trkpt lat="46.19442313" lon="6.07016816"><ele>427.92395</ele><time>2009-10-19T11:49:08Z</time></trkpt>
<trkpt lat="46.19442489" lon="6.07016958"><ele>427.92395</ele><time>2009-10-19T11:49:09Z</time></trkpt>
<trkpt lat="46.19442648" lon="6.07016975"><ele>427.92395</ele><time>2009-10-19T11:49:10Z</time></trkpt>
<trkpt lat="46.19442598" lon="6.07016950"><ele>427.92395</ele><time>2009-10-19T11:49:11Z</time></trkpt>
<trkpt lat="46.19442514" lon="6.07016925"><ele>427.92395</ele><time>2009-10-19T11:49:12Z</time></trkpt>
<trkpt lat="46.19442707" lon="6.07016958"><ele>427.92395</ele><time>2009-10-19T11:49:13Z</time></trkpt>
<trkpt lat="46.19442908" lon="6.07016992"><ele>427.92395</ele><time>2009-10-19T11:49:14Z</time></trkpt>
<trkpt lat="46.19443092" lon="6.07017042"><ele>427.92395</ele><time>2009-10-19T11:49:15Z</time></trkpt>
<trkpt lat="46.19443294" lon="6.07017109"><ele>427.92395</ele><time>2009-10-19T11:49:16Z</time></trkpt>
<trkpt lat="46.19443478" lon="6.07017168"><ele>427.92395</ele><time>2009-10-19T11:49:17Z</time></trkpt>
<trkpt lat="46.19443637" lon="6.07017218"><ele>427.92395</ele><time>2009-10-19T11:49:18Z</time></trkpt>
<trkpt lat="46.19442849" lon="6.07017042"><ele>427.92395</ele><time>2009-10-19T11:49:19Z</time></trkpt>
<trkpt lat="46.19442900" lon="6.07017176"><ele>427.92395</ele><time>2009-10-19T11:49:20Z</time></trkpt>
<trkpt lat="46.19442984" lon="6.07017335"><ele>427.92395</ele><time>2009-10-19T11:49:21Z</time></trkpt>
<trkpt lat="46.19442816" lon="6.07017277"><ele>427.92395</ele><time>2009-10-19T11:49:22Z</time></trkpt>
<trkpt lat="46.19442623" lon="6.07017235"><ele>427.92395</ele><time>2009-10-19T11:49:23Z</time></trkpt>
<trkpt lat="46.19442363" lon="6.07017159"><ele>427.92395</ele><time>2009-10-19T11:49:24Z</time></trkpt>
<trkpt lat="46.19442070" lon="6.07017042"><ele>427.92395</ele><time>2009-10-19T11:49:25Z</time></trkpt>
<trkpt lat="46.19441785" lon="6.07016958"><ele>428.404663</ele><time>2009-10-19T11:49:26Z</time></trkpt>
<trkpt lat="46.19441525" lon="6.07016883"><ele>427.92395</ele><time>2009-10-19T11:49:27Z</time></trkpt>
<trkpt lat="46.19441190" lon="6.07016799"><ele>427.92395</ele><time>2009-10-19T11:49:28Z</time></trkpt>
<trkpt lat="46.19441475" lon="6.07016883"><ele>428.404663</ele><time>2009-10-19T11:49:29Z</time></trkpt>
<trkpt lat="46.19442388" lon="6.07017143"><ele>428.885376</ele><time>2009-10-19T11:49:30Z</time></trkpt>
<trkpt lat="46.19442539" lon="6.07017235"><ele>428.885376</ele><time>2009-10-19T11:49:31Z</time></trkpt>
<trkpt lat="46.19442313" lon="6.07017143"><ele>428.885376</ele><time>2009-10-19T11:49:32Z</time></trkpt>
<trkpt lat="46.19442246" lon="6.07017134"><ele>428.885376</ele><time>2009-10-19T11:49:33Z</time></trkpt>
<trkpt lat="46.19442254" lon="6.07017168"><ele>428.885376</ele><time>2009-10-19T11:49:34Z</time></trkpt>
<trkpt lat="46.19442472" lon="6.07017243"><ele>429.365967</ele><time>2009-10-19T11:49:35Z</time></trkpt>
<trkpt lat="46.19442623" lon="6.07017553"><ele>428.404663</ele><time>2009-10-19T11:49:36Z</time></trkpt>
<trkpt lat="46.19442757" lon="6.07017704"><ele>428.885376</ele><time>2009-10-19T11:49:37Z</time></trkpt>
<trkpt lat="46.19442715" lon="6.07017662"><ele>428.404663</ele><time>2009-10-19T11:49:38Z</time></trkpt>
<trkpt lat="46.19442833" lon="6.07017662"><ele>428.885376</ele><time>2009-10-19T11:49:39Z</time></trkpt>
<trkpt lat="46.19442774" lon="6.07017654"><ele>428.885376</ele><time>2009-10-19T11:49:40Z</time></trkpt>
<trkpt lat="46.19442849" lon="6.07017780"><ele>428.885376</ele><time>2009-10-19T11:49:41Z</time></trkpt>
<trkpt lat="46.19442975" lon="6.07018132"><ele>427.92395</ele><time>2009-10-19T11:49:42Z</time></trkpt>
<trkpt lat="46.19443017" lon="6.07018199"><ele>428.404663</ele><time>2009-10-19T11:49:43Z</time></trkpt>
<trkpt lat="46.19443084" lon="6.07018417"><ele>427.92395</ele><time>2009-10-19T11:49:44Z</time></trkpt>
<trkpt lat="46.19444777" lon="6.07018970"><ele>428.404663</ele><time>2009-10-19T11:49:45Z</time></trkpt>
<trkpt lat="46.19446236" lon="6.07019439"><ele>428.885376</ele><time>2009-10-19T11:49:46Z</time></trkpt>
<trkpt lat="46.19447409" lon="6.07019808"><ele>429.846558</ele><time>2009-10-19T11:49:47Z</time></trkpt>
<trkpt lat="46.19448298" lon="6.07020244"><ele>429.846558</ele><time>2009-10-19T11:49:48Z</time></trkpt>
<trkpt lat="46.19448993" lon="6.07020638"><ele>430.327271</ele><time>2009-10-19T11:49:49Z</time></trkpt>
<trkpt lat="46.19449706" lon="6.07021007"><ele>430.327271</ele><time>2009-10-19T11:49:50Z</time></trkpt>
<trkpt lat="46.19450083" lon="6.07021518"><ele>430.807983</ele><time>2009-10-19T11:49:51Z</time></trkpt>
<trkpt lat="46.19450393" lon="6.07021937"><ele>431.288574</ele><time>2009-10-19T11:49:52Z</time></trkpt>
<trkpt lat="46.19450578" lon="6.07022323"><ele>431.769165</ele><time>2009-10-19T11:49:53Z</time></trkpt>
<trkpt lat="46.19450712" lon="6.07022759"><ele>432.730713</ele><time>2009-10-19T11:49:54Z</time></trkpt>
<trkpt lat="46.19450863" lon="6.07023153"><ele>432.730713</ele><time>2009-10-19T11:49:55Z</time></trkpt>
<trkpt lat="46.19450946" lon="6.07023412"><ele>433.211304</ele><time>2009-10-19T11:49:56Z</time></trkpt>
<trkpt lat="46.19450930" lon="6.07023513"><ele>433.691895</ele><time>2009-10-19T11:49:57Z</time></trkpt>
<trkpt lat="46.19450896" lon="6.07023563"><ele>433.691895</ele><time>2009-10-19T11:49:58Z</time></trkpt>
<trkpt lat="46.19450930" lon="6.07023614"><ele>433.691895</ele><time>2009-10-19T11:49:59Z</time></trkpt>
<trkpt lat="46.19450955" lon="6.07023614"><ele>433.211304</ele><time>2009-10-19T11:50:00Z</time></trkpt>
<trkpt lat="46.19451022" lon="6.07023597"><ele>432.730713</ele><time>2009-10-19T11:50:01Z</time></trkpt>
<trkpt lat="46.19451064" lon="6.07023505"><ele>432.730713</ele><time>2009-10-19T11:50:02Z</time></trkpt>
<trkpt lat="46.19451047" lon="6.07023312"><ele>432.25</ele><time>2009-10-19T11:50:03Z</time></trkpt>
<trkpt lat="46.19450963" lon="6.07023245"><ele>431.769165</ele><time>2009-10-19T11:50:04Z</time></trkpt>
<trkpt lat="46.19451776" lon="6.07023345"><ele>431.769165</ele><time>2009-10-19T11:50:05Z</time></trkpt>
<trkpt lat="46.19452505" lon="6.07023102"><ele>431.769165</ele><time>2009-10-19T11:50:06Z</time></trkpt>
<trkpt lat="46.19452522" lon="6.07023077"><ele>431.769165</ele><time>2009-10-19T11:50:07Z</time></trkpt>
<trkpt lat="46.19452262" lon="6.07022884"><ele>431.288574</ele><time>2009-10-19T11:50:08Z</time></trkpt>
<trkpt lat="46.19451977" lon="6.07022683"><ele>430.807983</ele><time>2009-10-19T11:50:09Z</time></trkpt>
<trkpt lat="46.19451508" lon="6.07022524"><ele>430.327271</ele><time>2009-10-19T11:50:10Z</time></trkpt>
<trkpt lat="46.19450955" lon="6.07022197"><ele>429.846558</ele><time>2009-10-19T11:50:11Z</time></trkpt>
<trkpt lat="46.19450594" lon="6.07022046"><ele>430.327271</ele><time>2009-10-19T11:50:12Z</time></trkpt>
<trkpt lat="46.19450234" lon="6.07021904"><ele>430.327271</ele><time>2009-10-19T11:50:13Z</time></trkpt>
<trkpt lat="46.19449873" lon="6.07021744"><ele>430.327271</ele><time>2009-10-19T11:50:14Z</time></trkpt>
<trkpt lat="46.19449614" lon="6.07021736"><ele>430.327271</ele><time>2009-10-19T11:50:15Z</time></trkpt>
<trkpt lat="46.19449362" lon="6.07021795"><ele>430.327271</ele><time>2009-10-19T11:50:16Z</time></trkpt>
<trkpt lat="46.19449245" lon="6.07021820"><ele>429.846558</ele><time>2009-10-19T11:50:17Z</time></trkpt>
<trkpt lat="46.19449094" lon="6.07021828"><ele>429.846558</ele><time>2009-10-19T11:50:18Z</time></trkpt>
<trkpt lat="46.19448926" lon="6.07021803"><ele>429.365967</ele><time>2009-10-19T11:50:19Z</time></trkpt>
<trkpt lat="46.19448289" lon="6.07021585"><ele>428.885376</ele><time>2009-10-19T11:50:20Z</time></trkpt>
<trkpt lat="46.19447887" lon="6.07021275"><ele>428.404663</ele><time>2009-10-19T11:50:21Z</time></trkpt>
<trkpt lat="46.19447543" lon="6.07021049"><ele>427.92395</ele><time>2009-10-19T11:50:22Z</time></trkpt>
<trkpt lat="46.19447267" lon="6.07020839"><ele>427.443359</ele><time>2009-10-19T11:50:23Z</time></trkpt>
<trkpt lat="46.19447015" lon="6.07020646"><ele>426.962769</ele><time>2009-10-19T11:50:24Z</time></trkpt>
<trkpt lat="46.19446797" lon="6.07020437"><ele>426.482056</ele><time>2009-10-19T11:50:25Z</time></trkpt>
<trkpt lat="46.19446579" lon="6.07020227"><ele>426.001343</ele><time>2009-10-19T11:50:26Z</time></trkpt>
<trkpt lat="46.19446428" lon="6.07020076"><ele>425.520752</ele><time>2009-10-19T11:50:27Z</time></trkpt>
<trkpt lat="46.19446370" lon="6.07020018"><ele>425.520752</ele><time>2009-10-19T11:50:28Z</time></trkpt>
<trkpt lat="46.19446345" lon="6.07019993"><ele>425.040161</ele><time>2009-10-19T11:50:29Z</time></trkpt>
<trkpt lat="46.19446278" lon="6.07019925"><ele>424.559448</ele><time>2009-10-19T11:50:30Z</time></trkpt>
<trkpt lat="46.19446177" lon="6.07019817"><ele>424.559448</ele><time>2009-10-19T11:50:31Z</time></trkpt>
<trkpt lat="46.19446110" lon="6.07019716"><ele>424.078735</ele><time>2009-10-19T11:50:32Z</time></trkpt>
<trkpt lat="46.19446076" lon="6.07019657"><ele>424.078735</ele><time>2009-10-19T11:50:33Z</time></trkpt>
<trkpt lat="46.19446009" lon="6.07019582"><ele>424.078735</ele><time>2009-10-19T11:50:34Z</time></trkpt>
<trkpt lat="46.19445926" lon="6.07019498"><ele>423.598022</ele><time>2009-10-19T11:50:35Z</time></trkpt>
<trkpt lat="46.19445867" lon="6.07019423"><ele>423.598022</ele><time>2009-10-19T11:50:36Z</time></trkpt>
<trkpt lat="46.19445817" lon="6.07019389"><ele>423.598022</ele><time>2009-10-19T11:50:37Z</time></trkpt>
<trkpt lat="46.19445766" lon="6.07019339"><ele>423.598022</ele><time>2009-10-19T11:50:38Z</time></trkpt>
<trkpt lat="46.19445708" lon="6.07019297"><ele>423.117432</ele><time>2009-10-19T11:50:39Z</time></trkpt>
<trkpt lat="46.19445657" lon="6.07019263"><ele>423.117432</ele><time>2009-10-19T11:50:40Z</time></trkpt>
<trkpt lat="46.19445615" lon="6.07019238"><ele>423.117432</ele><time>2009-10-19T11:50:41Z</time></trkpt>
<trkpt lat="46.19445574" lon="6.07019205"><ele>422.636719</ele><time>2009-10-19T11:50:42Z</time></trkpt>
<trkpt lat="46.19445523" lon="6.07019188"><ele>422.636719</ele><time>2009-10-19T11:50:43Z</time></trkpt>
<trkpt lat="46.19445473" lon="6.07019163"><ele>422.636719</ele><time>2009-10-19T11:50:44Z</time></trkpt>
<trkpt lat="46.19445423" lon="6.07019163"><ele>422.636719</ele><time>2009-10-19T11:50:45Z</time></trkpt>
<trkpt lat="46.19445364" lon="6.07019154"><ele>422.156006</ele><time>2009-10-19T11:50:46Z</time></trkpt>
<trkpt lat="46.19445255" lon="6.07019146"><ele>422.156006</ele><time>2009-10-19T11:50:47Z</time></trkpt>
<trkpt lat="46.19445096" lon="6.07019003"><ele>422.636719</ele><time>2009-10-19T11:50:48Z</time></trkpt>
<trkpt lat="46.19444844" lon="6.07018635"><ele>423.598022</ele><time>2009-10-19T11:50:49Z</time></trkpt>
<trkpt lat="46.19444593" lon="6.07018316"><ele>424.559448</ele><time>2009-10-19T11:50:50Z</time></trkpt>
<trkpt lat="46.19444358" lon="6.07018023"><ele>425.040161</ele><time>2009-10-19T11:50:51Z</time></trkpt>
<trkpt lat="46.19444115" lon="6.07017788"><ele>426.001343</ele><time>2009-10-19T11:50:52Z</time></trkpt>
<trkpt lat="46.19443838" lon="6.07017545"><ele>426.482056</ele><time>2009-10-19T11:50:53Z</time></trkpt>
<trkpt lat="46.19443553" lon="6.07017327"><ele>427.443359</ele><time>2009-10-19T11:50:54Z</time></trkpt>
<trkpt lat="46.19443277" lon="6.07017134"><ele>427.92395</ele><time>2009-10-19T11:50:55Z</time></trkpt>
<trkpt lat="46.19442975" lon="6.07016958"><ele>428.404663</ele><time>2009-10-19T11:50:56Z</time></trkpt>
<trkpt lat="46.19442942" lon="6.07016992"><ele>427.92395</ele><time>2009-10-19T11:50:57Z</time></trkpt>
<trkpt lat="46.19442925" lon="6.07017042"><ele>428.404663</ele><time>2009-10-19T11:50:58Z</time></trkpt>
<trkpt lat="46.19442933" lon="6.07017076"><ele>428.404663</ele><time>2009-10-19T11:50:59Z</time></trkpt>
<trkpt lat="46.19442933" lon="6.07017109"><ele>428.404663</ele><time>2009-10-19T11:51:00Z</time></trkpt>
<trkpt lat="46.19442682" lon="6.07016673"><ele>428.885376</ele><time>2009-10-19T11:51:01Z</time></trkpt>
<trkpt lat="46.19442472" lon="6.07016237"><ele>429.365967</ele><time>2009-10-19T11:51:02Z</time></trkpt>
<trkpt lat="46.19442330" lon="6.07015877"><ele>429.846558</ele><time>2009-10-19T11:51:03Z</time></trkpt>
<trkpt lat="46.19442179" lon="6.07015475"><ele>430.327271</ele><time>2009-10-19T11:51:04Z</time></trkpt>
<trkpt lat="46.19442045" lon="6.07015106"><ele>430.807983</ele><time>2009-10-19T11:51:05Z</time></trkpt>
<trkpt lat="46.19442028" lon="6.07014804"><ele>431.288574</ele><time>2009-10-19T11:51:06Z</time></trkpt>
<trkpt lat="46.19442070" lon="6.07014536"><ele>431.288574</ele><time>2009-10-19T11:51:07Z</time></trkpt>
<trkpt lat="46.19442129" lon="6.07014293"><ele>431.769165</ele><time>2009-10-19T11:51:08Z</time></trkpt>
<trkpt lat="46.19441777" lon="6.07014343"><ele>431.769165</ele><time>2009-10-19T11:51:09Z</time></trkpt>
<trkpt lat="46.19441424" lon="6.07014377"><ele>432.25</ele><time>2009-10-19T11:51:10Z</time></trkpt>
<trkpt lat="46.19441089" lon="6.07014377"><ele>432.730713</ele><time>2009-10-19T11:51:11Z</time></trkpt>
<trkpt lat="46.19440746" lon="6.07014377"><ele>432.730713</ele><time>2009-10-19T11:51:12Z</time></trkpt>
<trkpt lat="46.19440469" lon="6.07014368"><ele>433.211304</ele><time>2009-10-19T11:51:13Z</time></trkpt>
<trkpt lat="46.19440192" lon="6.07014335"><ele>433.211304</ele><time>2009-10-19T11:51:14Z</time></trkpt>
<trkpt lat="46.19440125" lon="6.07014519"><ele>433.211304</ele><time>2009-10-19T11:51:15Z</time></trkpt>
<trkpt lat="46.19440033" lon="6.07014704"><ele>433.211304</ele><time>2009-10-19T11:51:16Z</time></trkpt>
<trkpt lat="46.19439958" lon="6.07014896"><ele>433.211304</ele><time>2009-10-19T11:51:17Z</time></trkpt>
<trkpt lat="46.19439832" lon="6.07015064"><ele>432.730713</ele><time>2009-10-19T11:51:18Z</time></trkpt>
<trkpt lat="46.19439723" lon="6.07015232"><ele>432.730713</ele><time>2009-10-19T11:51:19Z</time></trkpt>
<trkpt lat="46.19439639" lon="6.07015366"><ele>432.730713</ele><time>2009-10-19T11:51:20Z</time></trkpt>
<trkpt lat="46.19439589" lon="6.07015483"><ele>432.25</ele><time>2009-10-19T11:51:21Z</time></trkpt>
<trkpt lat="46.19439539" lon="6.07015584"><ele>432.25</ele><time>2009-10-19T11:51:22Z</time></trkpt>
<trkpt lat="46.19439522" lon="6.07015718"><ele>432.25</ele><time>2009-10-19T11:51:23Z</time></trkpt>
<trkpt lat="46.19439480" lon="6.07015827"><ele>432.25</ele><time>2009-10-19T11:51:24Z</time></trkpt>
<trkpt lat="46.19440578" lon="6.07016229"><ele>432.730713</ele><time>2009-10-19T11:51:25Z</time></trkpt>
<trkpt lat="46.19441693" lon="6.07016707"><ele>432.730713</ele><time>2009-10-19T11:51:26Z</time></trkpt>
<trkpt lat="46.19442648" lon="6.07017134"><ele>432.730713</ele><time>2009-10-19T11:51:27Z</time></trkpt>
<trkpt lat="46.19443419" lon="6.07017503"><ele>433.211304</ele><time>2009-10-19T11:51:28Z</time></trkpt>
<trkpt lat="46.19444098" lon="6.07017864"><ele>433.211304</ele><time>2009-10-19T11:51:29Z</time></trkpt>
<trkpt lat="46.19445138" lon="6.07018333"><ele>433.691895</ele><time>2009-10-19T11:51:30Z</time></trkpt>
<trkpt lat="46.19445356" lon="6.07018442"><ele>433.691895</ele><time>2009-10-19T11:51:31Z</time></trkpt>
<trkpt lat="46.19445364" lon="6.07018484"><ele>434.172607</ele><time>2009-10-19T11:51:32Z</time></trkpt>
<trkpt lat="46.19445372" lon="6.07018509"><ele>434.172607</ele><time>2009-10-19T11:51:33Z</time></trkpt>
<trkpt lat="46.19445473" lon="6.07018559"><ele>434.65332</ele><time>2009-10-19T11:51:34Z</time></trkpt>
<trkpt lat="46.19445465" lon="6.07018584"><ele>434.65332</ele><time>2009-10-19T11:51:35Z</time></trkpt>
<trkpt lat="46.19445490" lon="6.07018660"><ele>435.133911</ele><time>2009-10-19T11:51:36Z</time></trkpt>
<trkpt lat="46.19445465" lon="6.07018685"><ele>435.133911</ele><time>2009-10-19T11:51:37Z</time></trkpt>
<trkpt lat="46.19445414" lon="6.07018677"><ele>435.614502</ele><time>2009-10-19T11:51:38Z</time></trkpt>
<trkpt lat="46.19445398" lon="6.07018635"><ele>435.614502</ele><time>2009-10-19T11:51:39Z</time></trkpt>
<trkpt lat="46.19445339" lon="6.07018576"><ele>436.095215</ele><time>2009-10-19T11:51:40Z</time></trkpt>
<trkpt lat="46.19445414" lon="6.07018635"><ele>436.095215</ele><time>2009-10-19T11:51:41Z</time></trkpt>
<trkpt lat="46.19445372" lon="6.07018685"><ele>436.575928</ele><time>2009-10-19T11:51:42Z</time></trkpt>
<trkpt lat="46.19445465" lon="6.07018769"><ele>436.575928</ele><time>2009-10-19T11:51:43Z</time></trkpt>
<trkpt lat="46.19445372" lon="6.07018769"><ele>436.575928</ele><time>2009-10-19T11:51:44Z</time></trkpt>
<trkpt lat="46.19445473" lon="6.07018836"><ele>437.056519</ele><time>2009-10-19T11:51:45Z</time></trkpt>
<trkpt lat="46.19445406" lon="6.07018853"><ele>437.056519</ele><time>2009-10-19T11:51:46Z</time></trkpt>
<trkpt lat="46.19445515" lon="6.07018945"><ele>437.056519</ele><time>2009-10-19T11:51:47Z</time></trkpt>
<trkpt lat="46.19445506" lon="6.07018936"><ele>437.537109</ele><time>2009-10-19T11:51:48Z</time></trkpt>
<trkpt lat="46.19445322" lon="6.07018869"><ele>437.537109</ele><time>2009-10-19T11:51:49Z</time></trkpt>
<trkpt lat="46.19445775" lon="6.07019054"><ele>438.017822</ele><time>2009-10-19T11:51:50Z</time></trkpt>
<trkpt lat="46.19445657" lon="6.07019003"><ele>438.017822</ele><time>2009-10-19T11:51:51Z</time></trkpt>
<trkpt lat="46.19445699" lon="6.07019079"><ele>438.017822</ele><time>2009-10-19T11:51:52Z</time></trkpt>
<trkpt lat="46.19445423" lon="6.07018953"><ele>438.017822</ele><time>2009-10-19T11:51:53Z</time></trkpt>
<trkpt lat="46.19445423" lon="6.07019003"><ele>438.017822</ele><time>2009-10-19T11:51:54Z</time></trkpt>
<trkpt lat="46.19445255" lon="6.07018936"><ele>438.498535</ele><time>2009-10-19T11:51:55Z</time></trkpt>
<trkpt lat="46.19445297" lon="6.07018995"><ele>438.498535</ele><time>2009-10-19T11:51:56Z</time></trkpt>
<trkpt lat="46.19445138" lon="6.07018928"><ele>438.498535</ele><time>2009-10-19T11:51:57Z</time></trkpt>
<trkpt lat="46.19444945" lon="6.07018844"><ele>438.498535</ele><time>2009-10-19T11:51:58Z</time></trkpt>
<trkpt lat="46.19444769" lon="6.07018777"><ele>438.979126</ele><time>2009-10-19T11:51:59Z</time></trkpt>
<trkpt lat="46.19445054" lon="6.07018928"><ele>438.979126</ele><time>2009-10-19T11:52:00Z</time></trkpt>
<trkpt lat="46.19444928" lon="6.07018928"><ele>438.979126</ele><time>2009-10-19T11:52:01Z</time></trkpt>
<trkpt lat="46.19445129" lon="6.07019054"><ele>438.979126</ele><time>2009-10-19T11:52:02Z</time></trkpt>
<trkpt lat="46.19444995" lon="6.07019087"><ele>438.979126</ele><time>2009-10-19T11:52:03Z</time></trkpt>
<trkpt lat="46.19444844" lon="6.07019146"><ele>438.498535</ele><time>2009-10-19T11:52:04Z</time></trkpt>
<trkpt lat="46.19444350" lon="6.07019079"><ele>438.498535</ele><time>2009-10-19T11:52:05Z</time></trkpt>
<trkpt lat="46.19446118" lon="6.07019800"><ele>438.979126</ele><time>2009-10-19T11:52:06Z</time></trkpt>
<trkpt lat="46.19447418" lon="6.07020345"><ele>439.459717</ele><time>2009-10-19T11:52:07Z</time></trkpt>
<trkpt lat="46.19448365" lon="6.07020764"><ele>439.459717</ele><time>2009-10-19T11:52:08Z</time></trkpt>
<trkpt lat="46.19449035" lon="6.07021099"><ele>439.459717</ele><time>2009-10-19T11:52:09Z</time></trkpt>
<trkpt lat="46.19449538" lon="6.07021376"><ele>439.459717</ele><time>2009-10-19T11:52:10Z</time></trkpt>
<trkpt lat="46.19449907" lon="6.07021627"><ele>438.979126</ele><time>2009-10-19T11:52:11Z</time></trkpt>
<trkpt lat="46.19450167" lon="6.07021577"><ele>438.979126</ele><time>2009-10-19T11:52:12Z</time></trkpt>
<trkpt lat="46.19450410" lon="6.07021485"><ele>438.498535</ele><time>2009-10-19T11:52:13Z</time></trkpt>
<trkpt lat="46.19450619" lon="6.07021384"><ele>438.498535</ele><time>2009-10-19T11:52:14Z</time></trkpt>
<trkpt lat="46.19450795" lon="6.07021593"><ele>438.017822</ele><time>2009-10-19T11:52:15Z</time></trkpt>
<trkpt lat="46.19450896" lon="6.07021786"><ele>438.017822</ele><time>2009-10-19T11:52:16Z</time></trkpt>
<trkpt lat="46.19450904" lon="6.07021929"><ele>437.537109</ele><time>2009-10-19T11:52:17Z</time></trkpt>
<trkpt lat="46.19450930" lon="6.07022088"><ele>437.056519</ele><time>2009-10-19T11:52:18Z</time></trkpt>
<trkpt lat="46.19451022" lon="6.07022314"><ele>436.575928</ele><time>2009-10-19T11:52:19Z</time></trkpt>
<trkpt lat="46.19451148" lon="6.07022247"><ele>436.575928</ele><time>2009-10-19T11:52:20Z</time></trkpt>
<trkpt lat="46.19451298" lon="6.07022163"><ele>436.095215</ele><time>2009-10-19T11:52:21Z</time></trkpt>
<trkpt lat="46.19451365" lon="6.07021996"><ele>436.095215</ele><time>2009-10-19T11:52:22Z</time></trkpt>
<trkpt lat="46.19451324" lon="6.07021753"><ele>436.095215</ele><time>2009-10-19T11:52:23Z</time></trkpt>
<trkpt lat="46.19451332" lon="6.07021602"><ele>435.614502</ele><time>2009-10-19T11:52:24Z</time></trkpt>
<trkpt lat="46.19451315" lon="6.07021526"><ele>435.614502</ele><time>2009-10-19T11:52:25Z</time></trkpt>
<trkpt lat="46.19451324" lon="6.07021996"><ele>434.65332</ele><time>2009-10-19T11:52:26Z</time></trkpt>
<trkpt lat="46.19451307" lon="6.07022348"><ele>434.172607</ele><time>2009-10-19T11:52:27Z</time></trkpt>
<trkpt lat="46.19451298" lon="6.07022247"><ele>434.172607</ele><time>2009-10-19T11:52:28Z</time></trkpt>
<trkpt lat="46.19451324" lon="6.07022239"><ele>434.172607</ele><time>2009-10-19T11:52:29Z</time></trkpt>
<trkpt lat="46.19451416" lon="6.07022298"><ele>434.172607</ele><time>2009-10-19T11:52:30Z</time></trkpt>
<trkpt lat="46.19451324" lon="6.07022205"><ele>433.691895</ele><time>2009-10-19T11:52:31Z</time></trkpt>
<trkpt lat="46.19451223" lon="6.07022557"><ele>433.211304</ele><time>2009-10-19T11:52:32Z</time></trkpt>
<trkpt lat="46.19450225" lon="6.07022532"><ele>432.25</ele><time>2009-10-19T11:52:33Z</time></trkpt>
<trkpt lat="46.19449949" lon="6.07022633"><ele>431.769165</ele><time>2009-10-19T11:52:34Z</time></trkpt>
<trkpt lat="46.19448834" lon="6.07022398"><ele>430.327271</ele><time>2009-10-19T11:52:35Z</time></trkpt>
<trkpt lat="46.19447895" lon="6.07022298"><ele>429.365967</ele><time>2009-10-19T11:52:36Z</time></trkpt>
<trkpt lat="46.19447770" lon="6.07022574"><ele>427.92395</ele><time>2009-10-19T11:52:37Z</time></trkpt>
<trkpt lat="46.19447627" lon="6.07022549"><ele>427.92395</ele><time>2009-10-19T11:52:38Z</time></trkpt>
<trkpt lat="46.19447359" lon="6.07022272"><ele>427.92395</ele><time>2009-10-19T11:52:39Z</time></trkpt>
<trkpt lat="46.19447124" lon="6.07022096"><ele>428.404663</ele><time>2009-10-19T11:52:40Z</time></trkpt>
<trkpt lat="46.19447283" lon="6.07022147"><ele>428.404663</ele><time>2009-10-19T11:52:41Z</time></trkpt>
<trkpt lat="46.19446848" lon="6.07021887"><ele>427.92395</ele><time>2009-10-19T11:52:42Z</time></trkpt>
<trkpt lat="46.19447166" lon="6.07021996"><ele>427.92395</ele><time>2009-10-19T11:52:43Z</time></trkpt>
<trkpt lat="46.19446437" lon="6.07021786"><ele>427.443359</ele><time>2009-10-19T11:52:44Z</time></trkpt>
<trkpt lat="46.19446345" lon="6.07021803"><ele>426.962769</ele><time>2009-10-19T11:52:45Z</time></trkpt>
<trkpt lat="46.19446445" lon="6.07021853"><ele>426.962769</ele><time>2009-10-19T11:52:46Z</time></trkpt>
<trkpt lat="46.19446680" lon="6.07021946"><ele>426.962769</ele><time>2009-10-19T11:52:47Z</time></trkpt>
<trkpt lat="46.19446982" lon="6.07022004"><ele>426.962769</ele><time>2009-10-19T11:52:48Z</time></trkpt>
<trkpt lat="46.19447225" lon="6.07022046"><ele>426.962769</ele><time>2009-10-19T11:52:49Z</time></trkpt>
<trkpt lat="46.19447510" lon="6.07022113"><ele>426.962769</ele><time>2009-10-19T11:52:50Z</time></trkpt>
<trkpt lat="46.19447753" lon="6.07022130"><ele>426.962769</ele><time>2009-10-19T11:52:51Z</time></trkpt>
<trkpt lat="46.19448055" lon="6.07022189"><ele>426.962769</ele><time>2009-10-19T11:52:52Z</time></trkpt>
<trkpt lat="46.19448356" lon="6.07022264"><ele>426.962769</ele><time>2009-10-19T11:52:53Z</time></trkpt>
<trkpt lat="46.19448532" lon="6.07022314"><ele>427.443359</ele><time>2009-10-19T11:52:54Z</time></trkpt>
<trkpt lat="46.19448608" lon="6.07022339"><ele>427.443359</ele><time>2009-10-19T11:52:55Z</time></trkpt>
<trkpt lat="46.19448666" lon="6.07022365"><ele>427.443359</ele><time>2009-10-19T11:52:56Z</time></trkpt>
<trkpt lat="46.19448775" lon="6.07022432"><ele>427.443359</ele><time>2009-10-19T11:52:57Z</time></trkpt>
<trkpt lat="46.19448859" lon="6.07022448"><ele>427.443359</ele><time>2009-10-19T11:52:58Z</time></trkpt>
<trkpt lat="46.19448884" lon="6.07022365"><ele>427.92395</ele><time>2009-10-19T11:52:59Z</time></trkpt>
<trkpt lat="46.19448968" lon="6.07022373"><ele>427.92395</ele><time>2009-10-19T11:53:00Z</time></trkpt>
<trkpt lat="46.19449044" lon="6.07022415"><ele>427.92395</ele><time>2009-10-19T11:53:01Z</time></trkpt>
<trkpt lat="46.19449119" lon="6.07022423"><ele>427.92395</ele><time>2009-10-19T11:53:02Z</time></trkpt>
<trkpt lat="46.19449136" lon="6.07022457"><ele>427.92395</ele><time>2009-10-19T11:53:03Z</time></trkpt>
<trkpt lat="46.19449127" lon="6.07022448"><ele>427.92395</ele><time>2009-10-19T11:53:04Z</time></trkpt>
<trkpt lat="46.19449069" lon="6.07022373"><ele>427.92395</ele><time>2009-10-19T11:53:05Z</time></trkpt>
<trkpt lat="46.19448960" lon="6.07022298"><ele>427.92395</ele><time>2009-10-19T11:53:06Z</time></trkpt>
<trkpt lat="46.19448792" lon="6.07022239"><ele>427.92395</ele><time>2009-10-19T11:53:07Z</time></trkpt>
<trkpt lat="46.19448666" lon="6.07022197"><ele>427.92395</ele><time>2009-10-19T11:53:08Z</time></trkpt>
<trkpt lat="46.19448574" lon="6.07022239"><ele>427.92395</ele><time>2009-10-19T11:53:09Z</time></trkpt>
<trkpt lat="46.19448516" lon="6.07022306"><ele>427.443359</ele><time>2009-10-19T11:53:10Z</time></trkpt>
<trkpt lat="46.19448457" lon="6.07022356"><ele>427.443359</ele><time>2009-10-19T11:53:11Z</time></trkpt>
<trkpt lat="46.19448407" lon="6.07022423"><ele>427.443359</ele><time>2009-10-19T11:53:12Z</time></trkpt>
<trkpt lat="46.19448398" lon="6.07022507"><ele>426.962769</ele><time>2009-10-19T11:53:13Z</time></trkpt>
<trkpt lat="46.19448348" lon="6.07022524"><ele>426.962769</ele><time>2009-10-19T11:53:14Z</time></trkpt>
<trkpt lat="46.19448289" lon="6.07022507"><ele>426.962769</ele><time>2009-10-19T11:53:15Z</time></trkpt>
<trkpt lat="46.19448239" lon="6.07022457"><ele>426.962769</ele><time>2009-10-19T11:53:16Z</time></trkpt>
<trkpt lat="46.19448205" lon="6.07022423"><ele>426.962769</ele><time>2009-10-19T11:53:17Z</time></trkpt>
<trkpt lat="46.19448205" lon="6.07022407"><ele>426.482056</ele><time>2009-10-19T11:53:18Z</time></trkpt>
<trkpt lat="46.19448214" lon="6.07022407"><ele>426.482056</ele><time>2009-10-19T11:53:19Z</time></trkpt>
<trkpt lat="46.19448247" lon="6.07022415"><ele>426.482056</ele><time>2009-10-19T11:53:20Z</time></trkpt>
<trkpt lat="46.19448273" lon="6.07022465"><ele>426.482056</ele><time>2009-10-19T11:53:21Z</time></trkpt>
<trkpt lat="46.19448340" lon="6.07022557"><ele>426.482056</ele><time>2009-10-19T11:53:22Z</time></trkpt>
<trkpt lat="46.19448415" lon="6.07022650"><ele>426.001343</ele><time>2009-10-19T11:53:23Z</time></trkpt>
<trkpt lat="46.19448507" lon="6.07022742"><ele>426.001343</ele><time>2009-10-19T11:53:24Z</time></trkpt>
<trkpt lat="46.19448616" lon="6.07022859"><ele>426.001343</ele><time>2009-10-19T11:53:25Z</time></trkpt>
<trkpt lat="46.19448734" lon="6.07022968"><ele>425.520752</ele><time>2009-10-19T11:53:26Z</time></trkpt>
<trkpt lat="46.19448876" lon="6.07023069"><ele>425.520752</ele><time>2009-10-19T11:53:27Z</time></trkpt>
<trkpt lat="46.19449035" lon="6.07023178"><ele>425.520752</ele><time>2009-10-19T11:53:28Z</time></trkpt>
<trkpt lat="46.19449220" lon="6.07023287"><ele>425.040161</ele><time>2009-10-19T11:53:29Z</time></trkpt>
<trkpt lat="46.19449404" lon="6.07023396"><ele>425.040161</ele><time>2009-10-19T11:53:30Z</time></trkpt>
<trkpt lat="46.19449563" lon="6.07023488"><ele>425.040161</ele><time>2009-10-19T11:53:31Z</time></trkpt>
<trkpt lat="46.19449773" lon="6.07023597"><ele>425.040161</ele><time>2009-10-19T11:53:32Z</time></trkpt>
<trkpt lat="46.19450016" lon="6.07023714"><ele>424.559448</ele><time>2009-10-19T11:53:33Z</time></trkpt>
<trkpt lat="46.19450192" lon="6.07023463"><ele>425.040161</ele><time>2009-10-19T11:53:34Z</time></trkpt>
<trkpt lat="46.19450293" lon="6.07023069"><ele>425.040161</ele><time>2009-10-19T11:53:35Z</time></trkpt>
<trkpt lat="46.19450083" lon="6.07022608"><ele>426.001343</ele><time>2009-10-19T11:53:36Z</time></trkpt>
<trkpt lat="46.19449974" lon="6.07022289"><ele>426.962769</ele><time>2009-10-19T11:53:37Z</time></trkpt>
<trkpt lat="46.19449823" lon="6.07022054"><ele>427.92395</ele><time>2009-10-19T11:53:38Z</time></trkpt>
<trkpt lat="46.19449597" lon="6.07021837"><ele>428.885376</ele><time>2009-10-19T11:53:39Z</time></trkpt>
<trkpt lat="46.19449379" lon="6.07021719"><ele>429.365967</ele><time>2009-10-19T11:53:40Z</time></trkpt>
<trkpt lat="46.19449236" lon="6.07021686"><ele>429.846558</ele><time>2009-10-19T11:53:41Z</time></trkpt>
<trkpt lat="46.19449186" lon="6.07021694"><ele>430.327271</ele><time>2009-10-19T11:53:42Z</time></trkpt>
<trkpt lat="46.19449119" lon="6.07021736"><ele>430.807983</ele><time>2009-10-19T11:53:43Z</time></trkpt>
<trkpt lat="46.19449052" lon="6.07021837"><ele>431.288574</ele><time>2009-10-19T11:53:44Z</time></trkpt>
<trkpt lat="46.19449035" lon="6.07022013"><ele>431.769165</ele><time>2009-10-19T11:53:45Z</time></trkpt>
<trkpt lat="46.19448700" lon="6.07022926"><ele>433.211304</ele><time>2009-10-19T11:53:46Z</time></trkpt>
<trkpt lat="46.19448943" lon="6.07023270"><ele>432.25</ele><time>2009-10-19T11:53:47Z</time></trkpt>
<trkpt lat="46.19448306" lon="6.07024477"><ele>434.65332</ele><time>2009-10-19T11:53:48Z</time></trkpt>
<trkpt lat="46.19447753" lon="6.07025323"><ele>436.095215</ele><time>2009-10-19T11:53:49Z</time></trkpt>
<trkpt lat="46.19447627" lon="6.07025365"><ele>436.575928</ele><time>2009-10-19T11:53:50Z</time></trkpt>
<trkpt lat="46.19447325" lon="6.07025726"><ele>437.056519</ele><time>2009-10-19T11:53:51Z</time></trkpt>
<trkpt lat="46.19447342" lon="6.07025726"><ele>437.056519</ele><time>2009-10-19T11:53:52Z</time></trkpt>
<trkpt lat="46.19447007" lon="6.07026438"><ele>438.017822</ele><time>2009-10-19T11:53:53Z</time></trkpt>
<trkpt lat="46.19447049" lon="6.07026455"><ele>438.017822</ele><time>2009-10-19T11:53:54Z</time></trkpt>
<trkpt lat="46.19446320" lon="6.07027712"><ele>440.421265</ele><time>2009-10-19T11:53:55Z</time></trkpt>
<trkpt lat="46.19446428" lon="6.07027687"><ele>439.94043</ele><time>2009-10-19T11:53:56Z</time></trkpt>
<trkpt lat="46.19446747" lon="6.07027687"><ele>438.979126</ele><time>2009-10-19T11:53:57Z</time></trkpt>
<trkpt lat="46.19446739" lon="6.07028299"><ele>438.979126</ele><time>2009-10-19T11:53:58Z</time></trkpt>
<trkpt lat="46.19446906" lon="6.07028726"><ele>438.017822</ele><time>2009-10-19T11:53:59Z</time></trkpt>
<trkpt lat="46.19446923" lon="6.07029674"><ele>437.537109</ele><time>2009-10-19T11:54:00Z</time></trkpt>
<trkpt lat="46.19446873" lon="6.07030939"><ele>437.056519</ele><time>2009-10-19T11:54:01Z</time></trkpt>
<trkpt lat="46.19446856" lon="6.07031828"><ele>436.095215</ele><time>2009-10-19T11:54:02Z</time></trkpt>
<trkpt lat="46.19446873" lon="6.07032364"><ele>436.095215</ele><time>2009-10-19T11:54:03Z</time></trkpt>
<trkpt lat="46.19447066" lon="6.07031937"><ele>435.614502</ele><time>2009-10-19T11:54:04Z</time></trkpt>
<trkpt lat="46.19447325" lon="6.07031325"><ele>435.133911</ele><time>2009-10-19T11:54:05Z</time></trkpt>
<trkpt lat="46.19447577" lon="6.07030822"><ele>434.65332</ele><time>2009-10-19T11:54:06Z</time></trkpt>
<trkpt lat="46.19447845" lon="6.07030277"><ele>434.172607</ele><time>2009-10-19T11:54:07Z</time></trkpt>
<trkpt lat="46.19448105" lon="6.07029682"><ele>434.172607</ele><time>2009-10-19T11:54:08Z</time></trkpt>
<trkpt lat="46.19448273" lon="6.07029229"><ele>434.172607</ele><time>2009-10-19T11:54:09Z</time></trkpt>
<trkpt lat="46.19448314" lon="6.07029053"><ele>435.133911</ele><time>2009-10-19T11:54:10Z</time></trkpt>
<trkpt lat="46.19448256" lon="6.07029229"><ele>435.614502</ele><time>2009-10-19T11:54:11Z</time></trkpt>
<trkpt lat="46.19448742" lon="6.07028785"><ele>434.172607</ele><time>2009-10-19T11:54:12Z</time></trkpt>
<trkpt lat="46.19448298" lon="6.07028944"><ele>435.614502</ele><time>2009-10-19T11:54:13Z</time></trkpt>
<trkpt lat="46.19447845" lon="6.07029179"><ele>437.537109</ele><time>2009-10-19T11:54:14Z</time></trkpt>
<trkpt lat="46.19448608" lon="6.07028383"><ele>435.614502</ele><time>2009-10-19T11:54:15Z</time></trkpt>
<trkpt lat="46.19449245" lon="6.07027335"><ele>434.172607</ele><time>2009-10-19T11:54:16Z</time></trkpt>
<trkpt lat="46.19449714" lon="6.07026489"><ele>433.211304</ele><time>2009-10-19T11:54:17Z</time></trkpt>
<trkpt lat="46.19450117" lon="6.07025726"><ele>432.25</ele><time>2009-10-19T11:54:18Z</time></trkpt>
<trkpt lat="46.19450393" lon="6.07025776"><ele>432.25</ele><time>2009-10-19T11:54:19Z</time></trkpt>
<trkpt lat="46.19450712" lon="6.07025776"><ele>431.769165</ele><time>2009-10-19T11:54:20Z</time></trkpt>
<trkpt lat="46.19451039" lon="6.07026002"><ele>430.327271</ele><time>2009-10-19T11:54:21Z</time></trkpt>
<trkpt lat="46.19451315" lon="6.07025642"><ele>429.365967</ele><time>2009-10-19T11:54:22Z</time></trkpt>
<trkpt lat="46.19451525" lon="6.07025332"><ele>428.404663</ele><time>2009-10-19T11:54:23Z</time></trkpt>
<trkpt lat="46.19451734" lon="6.07025860"><ele>427.92395</ele><time>2009-10-19T11:54:24Z</time></trkpt>
<trkpt lat="46.19451902" lon="6.07026279"><ele>426.962769</ele><time>2009-10-19T11:54:25Z</time></trkpt>
<trkpt lat="46.19452028" lon="6.07026522"><ele>426.482056</ele><time>2009-10-19T11:54:26Z</time></trkpt>
<trkpt lat="46.19452120" lon="6.07026774"><ele>425.520752</ele><time>2009-10-19T11:54:27Z</time></trkpt>
<trkpt lat="46.19452229" lon="6.07027092"><ele>425.040161</ele><time>2009-10-19T11:54:28Z</time></trkpt>
<trkpt lat="46.19452329" lon="6.07027419"><ele>424.078735</ele><time>2009-10-19T11:54:29Z</time></trkpt>
<trkpt lat="46.19452438" lon="6.07027679"><ele>423.598022</ele><time>2009-10-19T11:54:30Z</time></trkpt>
<trkpt lat="46.19452522" lon="6.07027913"><ele>423.117432</ele><time>2009-10-19T11:54:31Z</time></trkpt>
<trkpt lat="46.19452606" lon="6.07028157"><ele>422.636719</ele><time>2009-10-19T11:54:32Z</time></trkpt>
<trkpt lat="46.19452665" lon="6.07028400"><ele>422.156006</ele><time>2009-10-19T11:54:33Z</time></trkpt>
<trkpt lat="46.19452715" lon="6.07028643"><ele>421.194824</ele><time>2009-10-19T11:54:34Z</time></trkpt>
<trkpt lat="46.19452765" lon="6.07028894"><ele>420.714111</ele><time>2009-10-19T11:54:35Z</time></trkpt>
<trkpt lat="46.19452816" lon="6.07029162"><ele>420.233398</ele><time>2009-10-19T11:54:36Z</time></trkpt>
<trkpt lat="46.19452807" lon="6.07029045"><ele>419.752808</ele><time>2009-10-19T11:54:37Z</time></trkpt>
<trkpt lat="46.19452774" lon="6.07028869"><ele>419.752808</ele><time>2009-10-19T11:54:38Z</time></trkpt>
<trkpt lat="46.19452732" lon="6.07028618"><ele>419.752808</ele><time>2009-10-19T11:54:39Z</time></trkpt>
<trkpt lat="46.19452698" lon="6.07028366"><ele>419.752808</ele><time>2009-10-19T11:54:40Z</time></trkpt>
<trkpt lat="46.19452648" lon="6.07028123"><ele>419.752808</ele><time>2009-10-19T11:54:41Z</time></trkpt>
<trkpt lat="46.19452589" lon="6.07027939"><ele>419.752808</ele><time>2009-10-19T11:54:42Z</time></trkpt>
<trkpt lat="46.19452539" lon="6.07027788"><ele>419.752808</ele><time>2009-10-19T11:54:43Z</time></trkpt>
<trkpt lat="46.19452489" lon="6.07027654"><ele>419.752808</ele><time>2009-10-19T11:54:44Z</time></trkpt>
<trkpt lat="46.19452447" lon="6.07027519"><ele>419.752808</ele><time>2009-10-19T11:54:45Z</time></trkpt>
<trkpt lat="46.19452430" lon="6.07027369"><ele>419.752808</ele><time>2009-10-19T11:54:46Z</time></trkpt>
<trkpt lat="46.19452380" lon="6.07027260"><ele>419.752808</ele><time>2009-10-19T11:54:47Z</time></trkpt>
<trkpt lat="46.19452329" lon="6.07027142"><ele>419.752808</ele><time>2009-10-19T11:54:48Z</time></trkpt>
<trkpt lat="46.19452287" lon="6.07027033"><ele>419.752808</ele><time>2009-10-19T11:54:49Z</time></trkpt>
<trkpt lat="46.19452254" lon="6.07026933"><ele>419.752808</ele><time>2009-10-19T11:54:50Z</time></trkpt>
<trkpt lat="46.19452229" lon="6.07026824"><ele>419.752808</ele><time>2009-10-19T11:54:51Z</time></trkpt>
<trkpt lat="46.19452178" lon="6.07026706"><ele>419.752808</ele><time>2009-10-19T11:54:52Z</time></trkpt>
<trkpt lat="46.19452128" lon="6.07026614"><ele>419.752808</ele><time>2009-10-19T11:54:53Z</time></trkpt>
<trkpt lat="46.19452070" lon="6.07026539"><ele>419.752808</ele><time>2009-10-19T11:54:54Z</time></trkpt>
<trkpt lat="46.19452002" lon="6.07026447"><ele>419.272217</ele><time>2009-10-19T11:54:55Z</time></trkpt>
<trkpt lat="46.19451969" lon="6.07026354"><ele>419.272217</ele><time>2009-10-19T11:54:56Z</time></trkpt>
<trkpt lat="46.19451935" lon="6.07026287"><ele>419.272217</ele><time>2009-10-19T11:54:57Z</time></trkpt>
<trkpt lat="46.19451902" lon="6.07026212"><ele>419.272217</ele><time>2009-10-19T11:54:58Z</time></trkpt>
<trkpt lat="46.19451877" lon="6.07026145"><ele>419.272217</ele><time>2009-10-19T11:54:59Z</time></trkpt>
<trkpt lat="46.19451885" lon="6.07026103"><ele>419.272217</ele><time>2009-10-19T11:55:00Z</time></trkpt>
<trkpt lat="46.19451877" lon="6.07026002"><ele>419.272217</ele><time>2009-10-19T11:55:01Z</time></trkpt>
<trkpt lat="46.19451743" lon="6.07025634"><ele>419.272217</ele><time>2009-10-19T11:55:02Z</time></trkpt>
<trkpt lat="46.19451634" lon="6.07025416"><ele>418.791504</ele><time>2009-10-19T11:55:03Z</time></trkpt>
<trkpt lat="46.19451324" lon="6.07024762"><ele>417.8302</ele><time>2009-10-19T11:55:04Z</time></trkpt>
<trkpt lat="46.19451307" lon="6.07024904"><ele>417.349609</ele><time>2009-10-19T11:55:05Z</time></trkpt>
<trkpt lat="46.19451315" lon="6.07025139"><ele>417.349609</ele><time>2009-10-19T11:55:06Z</time></trkpt>
<trkpt lat="46.19451407" lon="6.07025256"><ele>417.8302</ele><time>2009-10-19T11:55:07Z</time></trkpt>
<trkpt lat="46.19451516" lon="6.07024695"><ele>418.791504</ele><time>2009-10-19T11:55:08Z</time></trkpt>
<trkpt lat="46.19451609" lon="6.07024343"><ele>419.272217</ele><time>2009-10-19T11:55:09Z</time></trkpt>
<trkpt lat="46.19451776" lon="6.07024234"><ele>419.752808</ele><time>2009-10-19T11:55:10Z</time></trkpt>
<trkpt lat="46.19451885" lon="6.07024150"><ele>420.233398</ele><time>2009-10-19T11:55:11Z</time></trkpt>
<trkpt lat="46.19451969" lon="6.07023966"><ele>420.233398</ele><time>2009-10-19T11:55:12Z</time></trkpt>
<trkpt lat="46.19452246" lon="6.07023664"><ele>420.233398</ele><time>2009-10-19T11:55:13Z</time></trkpt>
<trkpt lat="46.19452296" lon="6.07024150"><ele>420.233398</ele><time>2009-10-19T11:55:14Z</time></trkpt>
<trkpt lat="46.19452053" lon="6.07024209"><ele>421.194824</ele><time>2009-10-19T11:55:15Z</time></trkpt>
<trkpt lat="46.19452053" lon="6.07024804"><ele>422.156006</ele><time>2009-10-19T11:55:16Z</time></trkpt>
<trkpt lat="46.19451877" lon="6.07025625"><ele>424.078735</ele><time>2009-10-19T11:55:17Z</time></trkpt>
<trkpt lat="46.19451583" lon="6.07025567"><ele>424.078735</ele><time>2009-10-19T11:55:18Z</time></trkpt>
<trkpt lat="46.19451173" lon="6.07024502"><ele>424.559448</ele><time>2009-10-19T11:55:19Z</time></trkpt>
<trkpt lat="46.19450578" lon="6.07022465"><ele>425.040161</ele><time>2009-10-19T11:55:20Z</time></trkpt>
<trkpt lat="46.19451164" lon="6.07020495"><ele>425.040161</ele><time>2009-10-19T11:55:21Z</time></trkpt>
<trkpt lat="46.19452430" lon="6.07017914"><ele>425.040161</ele><time>2009-10-19T11:55:22Z</time></trkpt>
<trkpt lat="46.19454802" lon="6.07014595"><ele>424.559448</ele><time>2009-10-19T11:55:23Z</time></trkpt>
<trkpt lat="46.19457476" lon="6.07011703"><ele>424.078735</ele><time>2009-10-19T11:55:24Z</time></trkpt>
<trkpt lat="46.19459563" lon="6.07009364"><ele>424.078735</ele><time>2009-10-19T11:55:25Z</time></trkpt>
<trkpt lat="46.19462203" lon="6.07007327"><ele>423.117432</ele><time>2009-10-19T11:55:26Z</time></trkpt>
<trkpt lat="46.19465254" lon="6.07005643"><ele>422.156006</ele><time>2009-10-19T11:55:27Z</time></trkpt>
<trkpt lat="46.19467685" lon="6.07004017"><ele>421.675415</ele><time>2009-10-19T11:55:28Z</time></trkpt>
<trkpt lat="46.19469454" lon="6.07003187"><ele>420.714111</ele><time>2009-10-19T11:55:29Z</time></trkpt>
<trkpt lat="46.19470216" lon="6.07003246"><ele>421.194824</ele><time>2009-10-19T11:55:30Z</time></trkpt>
<trkpt lat="46.19470560" lon="6.07002768"><ele>421.675415</ele><time>2009-10-19T11:55:31Z</time></trkpt>
<trkpt lat="46.19470133" lon="6.07001502"><ele>421.194824</ele><time>2009-10-19T11:55:32Z</time></trkpt>
<trkpt lat="46.19470753" lon="6.07000295"><ele>421.194824</ele><time>2009-10-19T11:55:33Z</time></trkpt>
<trkpt lat="46.19471004" lon="6.06999599"><ele>420.714111</ele><time>2009-10-19T11:55:34Z</time></trkpt>
<trkpt lat="46.19471306" lon="6.06998895"><ele>419.752808</ele><time>2009-10-19T11:55:35Z</time></trkpt>
<trkpt lat="46.19471608" lon="6.06998292"><ele>419.272217</ele><time>2009-10-19T11:55:36Z</time></trkpt>
<trkpt lat="46.19472018" lon="6.06997697"><ele>419.272217</ele><time>2009-10-19T11:55:37Z</time></trkpt>
<trkpt lat="46.19472438" lon="6.06996783"><ele>418.310791</ele><time>2009-10-19T11:55:38Z</time></trkpt>
<trkpt lat="46.19472748" lon="6.06995836"><ele>417.8302</ele><time>2009-10-19T11:55:39Z</time></trkpt>
<trkpt lat="46.19473368" lon="6.06994419"><ele>416.868896</ele><time>2009-10-19T11:55:40Z</time></trkpt>
<trkpt lat="46.19474617" lon="6.06992743"><ele>415.42688</ele><time>2009-10-19T11:55:41Z</time></trkpt>
<trkpt lat="46.19476209" lon="6.06991025"><ele>415.42688</ele><time>2009-10-19T11:55:42Z</time></trkpt>
<trkpt lat="46.19478204" lon="6.06988753"><ele>414.946167</ele><time>2009-10-19T11:55:43Z</time></trkpt>
<trkpt lat="46.19481524" lon="6.06986155"><ele>414.465454</ele><time>2009-10-19T11:55:44Z</time></trkpt>
<trkpt lat="46.19485564" lon="6.06982995"><ele>414.946167</ele><time>2009-10-19T11:55:45Z</time></trkpt>
<trkpt lat="46.19489830" lon="6.06979692"><ele>414.946167</ele><time>2009-10-19T11:55:46Z</time></trkpt>
<trkpt lat="46.19494046" lon="6.06976046"><ele>413.984863</ele><time>2009-10-19T11:55:47Z</time></trkpt>
<trkpt lat="46.19499193" lon="6.06971118"><ele>413.984863</ele><time>2009-10-19T11:55:48Z</time></trkpt>
<trkpt lat="46.19505353" lon="6.06964957"><ele>413.504272</ele><time>2009-10-19T11:55:49Z</time></trkpt>
<trkpt lat="46.19511573" lon="6.06958352"><ele>412.542847</ele><time>2009-10-19T11:55:50Z</time></trkpt>
<trkpt lat="46.19517775" lon="6.06952443"><ele>411.581665</ele><time>2009-10-19T11:55:51Z</time></trkpt>
<trkpt lat="46.19523617" lon="6.06947070"><ele>410.620239</ele><time>2009-10-19T11:55:52Z</time></trkpt>
<trkpt lat="46.19528999" lon="6.06941722"><ele>409.659058</ele><time>2009-10-19T11:55:53Z</time></trkpt>
<trkpt lat="46.19533952" lon="6.06936827"><ele>409.659058</ele><time>2009-10-19T11:55:54Z</time></trkpt>
<trkpt lat="46.19538805" lon="6.06932024"><ele>409.659058</ele><time>2009-10-19T11:55:55Z</time></trkpt>
<trkpt lat="46.19543784" lon="6.06929728"><ele>409.659058</ele><time>2009-10-19T11:55:56Z</time></trkpt>
<trkpt lat="46.19549903" lon="6.06928512"><ele>409.178345</ele><time>2009-10-19T11:55:57Z</time></trkpt>
<trkpt lat="46.19555276" lon="6.06928303"><ele>408.697632</ele><time>2009-10-19T11:55:58Z</time></trkpt>
<trkpt lat="46.19560523" lon="6.06929636"><ele>408.697632</ele><time>2009-10-19T11:55:59Z</time></trkpt>
<trkpt lat="46.19565854" lon="6.06932930"><ele>408.697632</ele><time>2009-10-19T11:56:00Z</time></trkpt>
<trkpt lat="46.19571579" lon="6.06936584"><ele>408.697632</ele><time>2009-10-19T11:56:01Z</time></trkpt>
<trkpt lat="46.19577547" lon="6.06940364"><ele>408.697632</ele><time>2009-10-19T11:56:02Z</time></trkpt>
<trkpt lat="46.19584805" lon="6.06943784"><ele>407.736328</ele><time>2009-10-19T11:56:03Z</time></trkpt>
<trkpt lat="46.19591586" lon="6.06947497"><ele>408.217041</ele><time>2009-10-19T11:56:04Z</time></trkpt>
<trkpt lat="46.19597537" lon="6.06951186"><ele>408.697632</ele><time>2009-10-19T11:56:05Z</time></trkpt>
<trkpt lat="46.19602684" lon="6.06954823"><ele>409.659058</ele><time>2009-10-19T11:56:06Z</time></trkpt>
<trkpt lat="46.19608459" lon="6.06958369"><ele>409.659058</ele><time>2009-10-19T11:56:07Z</time></trkpt>
<trkpt lat="46.19613765" lon="6.06961923"><ele>409.659058</ele><time>2009-10-19T11:56:08Z</time></trkpt>
<trkpt lat="46.19618886" lon="6.06965468"><ele>410.139648</ele><time>2009-10-19T11:56:09Z</time></trkpt>
<trkpt lat="46.19623270" lon="6.06968989"><ele>410.620239</ele><time>2009-10-19T11:56:10Z</time></trkpt>
<trkpt lat="46.19626958" lon="6.06972517"><ele>411.100952</ele><time>2009-10-19T11:56:11Z</time></trkpt>
<trkpt lat="46.19630353" lon="6.06976306"><ele>411.100952</ele><time>2009-10-19T11:56:12Z</time></trkpt>
<trkpt lat="46.19634007" lon="6.06980556"><ele>411.100952</ele><time>2009-10-19T11:56:13Z</time></trkpt>
<trkpt lat="46.19636597" lon="6.06984990"><ele>410.620239</ele><time>2009-10-19T11:56:14Z</time></trkpt>
<trkpt lat="46.19638148" lon="6.06989407"><ele>411.100952</ele><time>2009-10-19T11:56:15Z</time></trkpt>
<trkpt lat="46.19639397" lon="6.06993506"><ele>411.581665</ele><time>2009-10-19T11:56:16Z</time></trkpt>
<trkpt lat="46.19640662" lon="6.06997579"><ele>412.062256</ele><time>2009-10-19T11:56:17Z</time></trkpt>
<trkpt lat="46.19641635" lon="6.07001762"><ele>412.062256</ele><time>2009-10-19T11:56:18Z</time></trkpt>
<trkpt lat="46.19643135" lon="6.07005894"><ele>412.542847</ele><time>2009-10-19T11:56:19Z</time></trkpt>
<trkpt lat="46.19645708" lon="6.07009163"><ele>413.984863</ele><time>2009-10-19T11:56:20Z</time></trkpt>
<trkpt lat="46.19648768" lon="6.07011938"><ele>414.946167</ele><time>2009-10-19T11:56:21Z</time></trkpt>
<trkpt lat="46.19652556" lon="6.07012717"><ele>414.465454</ele><time>2009-10-19T11:56:22Z</time></trkpt>
<trkpt lat="46.19656529" lon="6.07013094"><ele>414.465454</ele><time>2009-10-19T11:56:23Z</time></trkpt>
<trkpt lat="46.19660863" lon="6.07014217"><ele>414.946167</ele><time>2009-10-19T11:56:24Z</time></trkpt>
<trkpt lat="46.19664408" lon="6.07015693"><ele>413.02356</ele><time>2009-10-19T11:56:25Z</time></trkpt>
<trkpt lat="46.19667375" lon="6.07017838"><ele>412.542847</ele><time>2009-10-19T11:56:26Z</time></trkpt>
<trkpt lat="46.19670209" lon="6.07020847"><ele>411.581665</ele><time>2009-10-19T11:56:27Z</time></trkpt>
<trkpt lat="46.19671617" lon="6.07024133"><ele>410.620239</ele><time>2009-10-19T11:56:28Z</time></trkpt>
<trkpt lat="46.19672170" lon="6.07027519"><ele>410.620239</ele><time>2009-10-19T11:56:29Z</time></trkpt>
<trkpt lat="46.19672606" lon="6.07031082"><ele>410.139648</ele><time>2009-10-19T11:56:30Z</time></trkpt>
<trkpt lat="46.19674047" lon="6.07034979"><ele>409.659058</ele><time>2009-10-19T11:56:31Z</time></trkpt>
<trkpt lat="46.19675238" lon="6.07038793"><ele>408.697632</ele><time>2009-10-19T11:56:32Z</time></trkpt>
<trkpt lat="46.19676118" lon="6.07042389"><ele>410.139648</ele><time>2009-10-19T11:56:33Z</time></trkpt>
<trkpt lat="46.19678515" lon="6.07045708"><ele>411.100952</ele><time>2009-10-19T11:56:34Z</time></trkpt>
<trkpt lat="46.19680594" lon="6.07047837"><ele>411.581665</ele><time>2009-10-19T11:56:35Z</time></trkpt>
<trkpt lat="46.19682983" lon="6.07048097"><ele>411.100952</ele><time>2009-10-19T11:56:36Z</time></trkpt>
<trkpt lat="46.19685422" lon="6.07047326"><ele>411.100952</ele><time>2009-10-19T11:56:37Z</time></trkpt>
<trkpt lat="46.19687987" lon="6.07045809"><ele>410.620239</ele><time>2009-10-19T11:56:38Z</time></trkpt>
<trkpt lat="46.19690786" lon="6.07041618"><ele>408.697632</ele><time>2009-10-19T11:56:39Z</time></trkpt>
<trkpt lat="46.19693493" lon="6.07036765"><ele>408.217041</ele><time>2009-10-19T11:56:40Z</time></trkpt>
<trkpt lat="46.19695706" lon="6.07032817"><ele>406.774902</ele><time>2009-10-19T11:56:41Z</time></trkpt>
<trkpt lat="46.19698539" lon="6.07029305"><ele>405.333008</ele><time>2009-10-19T11:56:42Z</time></trkpt>
<trkpt lat="46.19699964" lon="6.07027092"><ele>403.891113</ele><time>2009-10-19T11:56:43Z</time></trkpt>
<trkpt lat="46.19701976" lon="6.07025684"><ele>402.449097</ele><time>2009-10-19T11:56:44Z</time></trkpt>
<trkpt lat="46.19703937" lon="6.07024418"><ele>401.00708</ele><time>2009-10-19T11:56:45Z</time></trkpt>
<trkpt lat="46.19706829" lon="6.07022549"><ele>399.084351</ele><time>2009-10-19T11:56:46Z</time></trkpt>
<trkpt lat="46.19710282" lon="6.07019012"><ele>398.123169</ele><time>2009-10-19T11:56:47Z</time></trkpt>
<trkpt lat="46.19713375" lon="6.07015617"><ele>396.681152</ele><time>2009-10-19T11:56:48Z</time></trkpt>
<trkpt lat="46.19714943" lon="6.07013798"><ele>394.758545</ele><time>2009-10-19T11:56:49Z</time></trkpt>
<trkpt lat="46.19716485" lon="6.07012943"><ele>392.355347</ele><time>2009-10-19T11:56:50Z</time></trkpt>
<trkpt lat="46.19719142" lon="6.07014905"><ele>390.913208</ele><time>2009-10-19T11:56:51Z</time></trkpt>
<trkpt lat="46.19722813" lon="6.07018744"><ele>389.951904</ele><time>2009-10-19T11:56:52Z</time></trkpt>
<trkpt lat="46.19725873" lon="6.07022985"><ele>388.51001</ele><time>2009-10-19T11:56:53Z</time></trkpt>
<trkpt lat="46.19729108" lon="6.07028450"><ele>387.548584</ele><time>2009-10-19T11:56:54Z</time></trkpt>
<trkpt lat="46.19733073" lon="6.07033890"><ele>387.067993</ele><time>2009-10-19T11:56:55Z</time></trkpt>
<trkpt lat="46.19737289" lon="6.07040143"><ele>386.587402</ele><time>2009-10-19T11:56:56Z</time></trkpt>
<trkpt lat="46.19740767" lon="6.07045943"><ele>385.625977</ele><time>2009-10-19T11:56:57Z</time></trkpt>
<trkpt lat="46.19743584" lon="6.07052372"><ele>384.184082</ele><time>2009-10-19T11:56:58Z</time></trkpt>
<trkpt lat="46.19747414" lon="6.07059002"><ele>384.184082</ele><time>2009-10-19T11:56:59Z</time></trkpt>
<trkpt lat="46.19749820" lon="6.07066236"><ele>385.625977</ele><time>2009-10-19T11:57:00Z</time></trkpt>
<trkpt lat="46.19752326" lon="6.07072547"><ele>385.625977</ele><time>2009-10-19T11:57:01Z</time></trkpt>
<trkpt lat="46.19754698" lon="6.07077786"><ele>384.664795</ele><time>2009-10-19T11:57:02Z</time></trkpt>
<trkpt lat="46.19758143" lon="6.07083846"><ele>386.106689</ele><time>2009-10-19T11:57:03Z</time></trkpt>
<trkpt lat="46.19760859" lon="6.07089445"><ele>386.587402</ele><time>2009-10-19T11:57:04Z</time></trkpt>
<trkpt lat="46.19763072" lon="6.07094055"><ele>387.067993</ele><time>2009-10-19T11:57:05Z</time></trkpt>
<trkpt lat="46.19765519" lon="6.07099939"><ele>386.587402</ele><time>2009-10-19T11:57:06Z</time></trkpt>
<trkpt lat="46.19768235" lon="6.07104893"><ele>386.587402</ele><time>2009-10-19T11:57:07Z</time></trkpt>
<trkpt lat="46.19770557" lon="6.07108807"><ele>385.625977</ele><time>2009-10-19T11:57:08Z</time></trkpt>
<trkpt lat="46.19773096" lon="6.07112562"><ele>385.145386</ele><time>2009-10-19T11:57:09Z</time></trkpt>
<trkpt lat="46.19777053" lon="6.07116477"><ele>385.625977</ele><time>2009-10-19T11:57:10Z</time></trkpt>
<trkpt lat="46.19780313" lon="6.07118807"><ele>386.106689</ele><time>2009-10-19T11:57:11Z</time></trkpt>
<trkpt lat="46.19784823" lon="6.07121330"><ele>387.548584</ele><time>2009-10-19T11:57:12Z</time></trkpt>
<trkpt lat="46.19789265" lon="6.07122285"><ele>388.51001</ele><time>2009-10-19T11:57:13Z</time></trkpt>
<trkpt lat="46.19797312" lon="6.07121338"><ele>388.990601</ele><time>2009-10-19T11:57:14Z</time></trkpt>
<trkpt lat="46.19803355" lon="6.07118706"><ele>388.990601</ele><time>2009-10-19T11:57:15Z</time></trkpt>
<trkpt lat="46.19806976" lon="6.07112654"><ele>388.51001</ele><time>2009-10-19T11:57:16Z</time></trkpt>
<trkpt lat="46.19810245" lon="6.07105840"><ele>388.990601</ele><time>2009-10-19T11:57:17Z</time></trkpt>
<trkpt lat="46.19811159" lon="6.07099998"><ele>388.51001</ele><time>2009-10-19T11:57:18Z</time></trkpt>
<trkpt lat="46.19810035" lon="6.07093376"><ele>387.548584</ele><time>2009-10-19T11:57:19Z</time></trkpt>
<trkpt lat="46.19808158" lon="6.07087366"><ele>386.587402</ele><time>2009-10-19T11:57:20Z</time></trkpt>
<trkpt lat="46.19806909" lon="6.07082287"><ele>385.625977</ele><time>2009-10-19T11:57:21Z</time></trkpt>
<trkpt lat="46.19806264" lon="6.07079940"><ele>385.145386</ele><time>2009-10-19T11:57:22Z</time></trkpt>
<trkpt lat="46.19806498" lon="6.07078264"><ele>385.625977</ele><time>2009-10-19T11:57:23Z</time></trkpt>
<trkpt lat="46.19808217" lon="6.07078180"><ele>386.106689</ele><time>2009-10-19T11:57:24Z</time></trkpt>
<trkpt lat="46.19811016" lon="6.07078339"><ele>386.106689</ele><time>2009-10-19T11:57:25Z</time></trkpt>
<trkpt lat="46.19814042" lon="6.07080242"><ele>385.625977</ele><time>2009-10-19T11:57:26Z</time></trkpt>
<trkpt lat="46.19817805" lon="6.07081675"><ele>385.145386</ele><time>2009-10-19T11:57:27Z</time></trkpt>
<trkpt lat="46.19822164" lon="6.07083309"><ele>384.664795</ele><time>2009-10-19T11:57:28Z</time></trkpt>
<trkpt lat="46.19826095" lon="6.07084533"><ele>384.664795</ele><time>2009-10-19T11:57:29Z</time></trkpt>
<trkpt lat="46.19829766" lon="6.07085883"><ele>383.703247</ele><time>2009-10-19T11:57:30Z</time></trkpt>
<trkpt lat="46.19834058" lon="6.07086922"><ele>383.222656</ele><time>2009-10-19T11:57:31Z</time></trkpt>
<trkpt lat="46.19839573" lon="6.07088054"><ele>382.742065</ele><time>2009-10-19T11:57:32Z</time></trkpt>
<trkpt lat="46.19845139" lon="6.07089286"><ele>381.78064</ele><time>2009-10-19T11:57:33Z</time></trkpt>
<trkpt lat="46.19851115" lon="6.07090736"><ele>381.78064</ele><time>2009-10-19T11:57:34Z</time></trkpt>
<trkpt lat="46.19856547" lon="6.07092245"><ele>381.300049</ele><time>2009-10-19T11:57:35Z</time></trkpt>
<trkpt lat="46.19862590" lon="6.07094273"><ele>380.819458</ele><time>2009-10-19T11:57:36Z</time></trkpt>
<trkpt lat="46.19868617" lon="6.07096863"><ele>380.338745</ele><time>2009-10-19T11:57:37Z</time></trkpt>
<trkpt lat="46.19874526" lon="6.07099780"><ele>380.338745</ele><time>2009-10-19T11:57:38Z</time></trkpt>
<trkpt lat="46.19880703" lon="6.07102370"><ele>379.858032</ele><time>2009-10-19T11:57:39Z</time></trkpt>
<trkpt lat="46.19887317" lon="6.07104985"><ele>379.377441</ele><time>2009-10-19T11:57:40Z</time></trkpt>
<trkpt lat="46.19893955" lon="6.07106435"><ele>379.377441</ele><time>2009-10-19T11:57:41Z</time></trkpt>
<trkpt lat="46.19900627" lon="6.07107500"><ele>378.896851</ele><time>2009-10-19T11:57:42Z</time></trkpt>
<trkpt lat="46.19906109" lon="6.07108103"><ele>377.935425</ele><time>2009-10-19T11:57:43Z</time></trkpt>
<trkpt lat="46.19911884" lon="6.07108614"><ele>377.935425</ele><time>2009-10-19T11:57:44Z</time></trkpt>
<trkpt lat="46.19916704" lon="6.07109872"><ele>377.935425</ele><time>2009-10-19T11:57:45Z</time></trkpt>
<trkpt lat="46.19920744" lon="6.07111163"><ele>377.935425</ele><time>2009-10-19T11:57:46Z</time></trkpt>
<trkpt lat="46.19924876" lon="6.07113308"><ele>378.896851</ele><time>2009-10-19T11:57:47Z</time></trkpt>
<trkpt lat="46.19925178" lon="6.07117306"><ele>378.896851</ele><time>2009-10-19T11:57:48Z</time></trkpt>
<trkpt lat="46.19926468" lon="6.07122118"><ele>377.935425</ele><time>2009-10-19T11:57:49Z</time></trkpt>
<trkpt lat="46.19928053" lon="6.07125613"><ele>376.974243</ele><time>2009-10-19T11:57:50Z</time></trkpt>
<trkpt lat="46.19932076" lon="6.07129804"><ele>376.974243</ele><time>2009-10-19T11:57:51Z</time></trkpt>
<trkpt lat="46.19936585" lon="6.07133836"><ele>377.454834</ele><time>2009-10-19T11:57:52Z</time></trkpt>
<trkpt lat="46.19941296" lon="6.07136702"><ele>377.454834</ele><time>2009-10-19T11:57:53Z</time></trkpt>
<trkpt lat="46.19946912" lon="6.07137649"><ele>377.454834</ele><time>2009-10-19T11:57:54Z</time></trkpt>
<trkpt lat="46.19953802" lon="6.07135420"><ele>377.454834</ele><time>2009-10-19T11:57:55Z</time></trkpt>
<trkpt lat="46.19959074" lon="6.07131732"><ele>376.49353</ele><time>2009-10-19T11:57:56Z</time></trkpt>
<trkpt lat="46.19963684" lon="6.07129343"><ele>376.012817</ele><time>2009-10-19T11:57:57Z</time></trkpt>
<trkpt lat="46.19968135" lon="6.07126283"><ele>376.012817</ele><time>2009-10-19T11:57:58Z</time></trkpt>
<trkpt lat="46.19972804" lon="6.07125043"><ele>376.012817</ele><time>2009-10-19T11:57:59Z</time></trkpt>
<trkpt lat="46.19977414" lon="6.07124356"><ele>377.454834</ele><time>2009-10-19T11:58:00Z</time></trkpt>
<trkpt lat="46.19981093" lon="6.07122696"><ele>376.49353</ele><time>2009-10-19T11:58:01Z</time></trkpt>
<trkpt lat="46.19984354" lon="6.07121749"><ele>377.454834</ele><time>2009-10-19T11:58:02Z</time></trkpt>
<trkpt lat="46.19987162" lon="6.07121363"><ele>377.454834</ele><time>2009-10-19T11:58:03Z</time></trkpt>
<trkpt lat="46.19990129" lon="6.07122503"><ele>377.935425</ele><time>2009-10-19T11:58:04Z</time></trkpt>
<trkpt lat="46.19992895" lon="6.07123635"><ele>377.454834</ele><time>2009-10-19T11:58:05Z</time></trkpt>
<trkpt lat="46.19996516" lon="6.07125378"><ele>377.935425</ele><time>2009-10-19T11:58:06Z</time></trkpt>
<trkpt lat="46.19999617" lon="6.07126753"><ele>377.454834</ele><time>2009-10-19T11:58:07Z</time></trkpt>
<trkpt lat="46.20002895" lon="6.07127792"><ele>377.454834</ele><time>2009-10-19T11:58:08Z</time></trkpt>
<trkpt lat="46.20006507" lon="6.07128815"><ele>376.974243</ele><time>2009-10-19T11:58:09Z</time></trkpt>
<trkpt lat="46.20010204" lon="6.07130122"><ele>376.974243</ele><time>2009-10-19T11:58:10Z</time></trkpt>
<trkpt lat="46.20014110" lon="6.07131665"><ele>376.974243</ele><time>2009-10-19T11:58:11Z</time></trkpt>
<trkpt lat="46.20018108" lon="6.07132939"><ele>376.974243</ele><time>2009-10-19T11:58:12Z</time></trkpt>
<trkpt lat="46.20022299" lon="6.07134632"><ele>376.974243</ele><time>2009-10-19T11:58:13Z</time></trkpt>
<trkpt lat="46.20026632" lon="6.07136652"><ele>376.974243</ele><time>2009-10-19T11:58:14Z</time></trkpt>
<trkpt lat="46.20031678" lon="6.07139359"><ele>378.416138</ele><time>2009-10-19T11:58:15Z</time></trkpt>
<trkpt lat="46.20036556" lon="6.07142083"><ele>378.416138</ele><time>2009-10-19T11:58:16Z</time></trkpt>
<trkpt lat="46.20041326" lon="6.07144782"><ele>378.896851</ele><time>2009-10-19T11:58:17Z</time></trkpt>
<trkpt lat="46.20045818" lon="6.07146668"><ele>378.416138</ele><time>2009-10-19T11:58:18Z</time></trkpt>
<trkpt lat="46.20050655" lon="6.07148177"><ele>378.416138</ele><time>2009-10-19T11:58:19Z</time></trkpt>
<trkpt lat="46.20055659" lon="6.07149493"><ele>377.935425</ele><time>2009-10-19T11:58:20Z</time></trkpt>
<trkpt lat="46.20060646" lon="6.07150759"><ele>377.454834</ele><time>2009-10-19T11:58:21Z</time></trkpt>
<trkpt lat="46.20065415" lon="6.07152309"><ele>376.974243</ele><time>2009-10-19T11:58:22Z</time></trkpt>
<trkpt lat="46.20070268" lon="6.07154338"><ele>376.974243</ele><time>2009-10-19T11:58:23Z</time></trkpt>
<trkpt lat="46.20074946" lon="6.07156919"><ele>377.454834</ele><time>2009-10-19T11:58:24Z</time></trkpt>
<trkpt lat="46.20079874" lon="6.07160222"><ele>377.935425</ele><time>2009-10-19T11:58:25Z</time></trkpt>
<trkpt lat="46.20085138" lon="6.07164253"><ele>378.416138</ele><time>2009-10-19T11:58:26Z</time></trkpt>
<trkpt lat="46.20089714" lon="6.07167983"><ele>378.416138</ele><time>2009-10-19T11:58:27Z</time></trkpt>
<trkpt lat="46.20094945" lon="6.07171479"><ele>377.935425</ele><time>2009-10-19T11:58:28Z</time></trkpt>
<trkpt lat="46.20100024" lon="6.07174857"><ele>377.454834</ele><time>2009-10-19T11:58:29Z</time></trkpt>
<trkpt lat="46.20104986" lon="6.07178058"><ele>376.974243</ele><time>2009-10-19T11:58:30Z</time></trkpt>
<trkpt lat="46.20110116" lon="6.07181864"><ele>376.49353</ele><time>2009-10-19T11:58:31Z</time></trkpt>
<trkpt lat="46.20114533" lon="6.07185828"><ele>376.49353</ele><time>2009-10-19T11:58:32Z</time></trkpt>
<trkpt lat="46.20118037" lon="6.07190179"><ele>375.532104</ele><time>2009-10-19T11:58:33Z</time></trkpt>
<trkpt lat="46.20121473" lon="6.07195132"><ele>375.532104</ele><time>2009-10-19T11:58:34Z</time></trkpt>
<trkpt lat="46.20124742" lon="6.07200832"><ele>374.570801</ele><time>2009-10-19T11:58:35Z</time></trkpt>
<trkpt lat="46.20127969" lon="6.07206406"><ele>373.609497</ele><time>2009-10-19T11:58:36Z</time></trkpt>
<trkpt lat="46.20130945" lon="6.07211578"><ele>373.609497</ele><time>2009-10-19T11:58:37Z</time></trkpt>
<trkpt lat="46.20134340" lon="6.07217009"><ele>373.609497</ele><time>2009-10-19T11:58:38Z</time></trkpt>
<trkpt lat="46.20137785" lon="6.07222977"><ele>372.648193</ele><time>2009-10-19T11:58:39Z</time></trkpt>
<trkpt lat="46.20141515" lon="6.07228685"><ele>372.16748</ele><time>2009-10-19T11:58:40Z</time></trkpt>
<trkpt lat="46.20144750" lon="6.07234670"><ele>371.68689</ele><time>2009-10-19T11:58:41Z</time></trkpt>
<trkpt lat="46.20147809" lon="6.07240562"><ele>370.244873</ele><time>2009-10-19T11:58:42Z</time></trkpt>
<trkpt lat="46.20150718" lon="6.07246228"><ele>369.764282</ele><time>2009-10-19T11:58:43Z</time></trkpt>
<trkpt lat="46.20153408" lon="6.07251744"><ele>369.283691</ele><time>2009-10-19T11:58:44Z</time></trkpt>
<trkpt lat="46.20156166" lon="6.07257360"><ele>368.322266</ele><time>2009-10-19T11:58:45Z</time></trkpt>
<trkpt lat="46.20159192" lon="6.07263629"><ele>367.841553</ele><time>2009-10-19T11:58:46Z</time></trkpt>
<trkpt lat="46.20162042" lon="6.07270176"><ele>366.880249</ele><time>2009-10-19T11:58:47Z</time></trkpt>
<trkpt lat="46.20164489" lon="6.07276705"><ele>366.880249</ele><time>2009-10-19T11:58:48Z</time></trkpt>
<trkpt lat="46.20166526" lon="6.07283067"><ele>367.360962</ele><time>2009-10-19T11:58:49Z</time></trkpt>
<trkpt lat="46.20168387" lon="6.07289353"><ele>367.841553</ele><time>2009-10-19T11:58:50Z</time></trkpt>
<trkpt lat="46.20170072" lon="6.07295916"><ele>367.841553</ele><time>2009-10-19T11:58:51Z</time></trkpt>
<trkpt lat="46.20171019" lon="6.07300577"><ele>366.880249</ele><time>2009-10-19T11:58:52Z</time></trkpt>
<trkpt lat="46.20172494" lon="6.07305095"><ele>367.841553</ele><time>2009-10-19T11:58:53Z</time></trkpt>
<trkpt lat="46.20174036" lon="6.07309923"><ele>368.322266</ele><time>2009-10-19T11:58:54Z</time></trkpt>
<trkpt lat="46.20175344" lon="6.07313912"><ele>367.841553</ele><time>2009-10-19T11:58:55Z</time></trkpt>
<trkpt lat="46.20176936" lon="6.07318212"><ele>367.841553</ele><time>2009-10-19T11:58:56Z</time></trkpt>
<trkpt lat="46.20177666" lon="6.07323057"><ele>367.841553</ele><time>2009-10-19T11:58:57Z</time></trkpt>
<trkpt lat="46.20177104" lon="6.07328027"><ele>366.399536</ele><time>2009-10-19T11:58:58Z</time></trkpt>
<trkpt lat="46.20177154" lon="6.07332914"><ele>363.996338</ele><time>2009-10-19T11:58:59Z</time></trkpt>
<trkpt lat="46.20177138" lon="6.07337516"><ele>362.07373</ele><time>2009-10-19T11:59:00Z</time></trkpt>
<trkpt lat="46.20177029" lon="6.07341883"><ele>361.112427</ele><time>2009-10-19T11:59:01Z</time></trkpt>
<trkpt lat="46.20176123" lon="6.07346124"><ele>360.151123</ele><time>2009-10-19T11:59:02Z</time></trkpt>
<trkpt lat="46.20174992" lon="6.07350466"><ele>359.189697</ele><time>2009-10-19T11:59:03Z</time></trkpt>
<trkpt lat="46.20174238" lon="6.07354866"><ele>358.228394</ele><time>2009-10-19T11:59:04Z</time></trkpt>
<trkpt lat="46.20173919" lon="6.07359116"><ele>358.228394</ele><time>2009-10-19T11:59:05Z</time></trkpt>
<trkpt lat="46.20173424" lon="6.07363768"><ele>358.228394</ele><time>2009-10-19T11:59:06Z</time></trkpt>
<trkpt lat="46.20172519" lon="6.07367489"><ele>357.747803</ele><time>2009-10-19T11:59:07Z</time></trkpt>
<trkpt lat="46.20170935" lon="6.07371479"><ele>358.708984</ele><time>2009-10-19T11:59:08Z</time></trkpt>
<trkpt lat="46.20168655" lon="6.07377497"><ele>360.151123</ele><time>2009-10-19T11:59:09Z</time></trkpt>
<trkpt lat="46.20166032" lon="6.07383239"><ele>362.07373</ele><time>2009-10-19T11:59:10Z</time></trkpt>
<trkpt lat="46.20163492" lon="6.07388645"><ele>362.07373</ele><time>2009-10-19T11:59:11Z</time></trkpt>
<trkpt lat="46.20161556" lon="6.07395066"><ele>363.035034</ele><time>2009-10-19T11:59:12Z</time></trkpt>
<trkpt lat="46.20160516" lon="6.07402367"><ele>364.476929</ele><time>2009-10-19T11:59:13Z</time></trkpt>
<trkpt lat="46.20157340" lon="6.07411042"><ele>368.802979</ele><time>2009-10-19T11:59:14Z</time></trkpt>
<trkpt lat="46.20155060" lon="6.07416976"><ele>371.206299</ele><time>2009-10-19T11:59:15Z</time></trkpt>
<trkpt lat="46.20153408" lon="6.07425576"><ele>373.609497</ele><time>2009-10-19T11:59:16Z</time></trkpt>
<trkpt lat="46.20151372" lon="6.07433254"><ele>376.012817</ele><time>2009-10-19T11:59:17Z</time></trkpt>
<trkpt lat="46.20150995" lon="6.07440135"><ele>376.49353</ele><time>2009-10-19T11:59:18Z</time></trkpt>
<trkpt lat="46.20150927" lon="6.07446078"><ele>375.532104</ele><time>2009-10-19T11:59:19Z</time></trkpt>
<trkpt lat="46.20151849" lon="6.07451962"><ele>376.012817</ele><time>2009-10-19T11:59:20Z</time></trkpt>
<trkpt lat="46.20151179" lon="6.07458877"><ele>376.012817</ele><time>2009-10-19T11:59:21Z</time></trkpt>
<trkpt lat="46.20150684" lon="6.07465507"><ele>375.051514</ele><time>2009-10-19T11:59:22Z</time></trkpt>
<trkpt lat="46.20150349" lon="6.07471593"><ele>375.051514</ele><time>2009-10-19T11:59:23Z</time></trkpt>
<trkpt lat="46.20149595" lon="6.07479648"><ele>379.377441</ele><time>2009-10-19T11:59:24Z</time></trkpt>
<trkpt lat="46.20149343" lon="6.07485557"><ele>382.261353</ele><time>2009-10-19T11:59:25Z</time></trkpt>
<trkpt lat="46.20150282" lon="6.07491240"><ele>385.625977</ele><time>2009-10-19T11:59:26Z</time></trkpt>
<trkpt lat="46.20150936" lon="6.07497443"><ele>388.029297</ele><time>2009-10-19T11:59:27Z</time></trkpt>
<trkpt lat="46.20151724" lon="6.07503084"><ele>389.951904</ele><time>2009-10-19T11:59:28Z</time></trkpt>
<trkpt lat="46.20152269" lon="6.07507979"><ele>391.393799</ele><time>2009-10-19T11:59:29Z</time></trkpt>
<trkpt lat="46.20152612" lon="6.07512689"><ele>393.316528</ele><time>2009-10-19T11:59:30Z</time></trkpt>
<trkpt lat="46.20151489" lon="6.07518456"><ele>395.719849</ele><time>2009-10-19T11:59:31Z</time></trkpt>
<trkpt lat="46.20150986" lon="6.07523468"><ele>395.239136</ele><time>2009-10-19T11:59:32Z</time></trkpt>
<trkpt lat="46.20149955" lon="6.07527609"><ele>395.719849</ele><time>2009-10-19T11:59:33Z</time></trkpt>
<trkpt lat="46.20148715" lon="6.07530048"><ele>395.719849</ele><time>2009-10-19T11:59:34Z</time></trkpt>
<trkpt lat="46.20148522" lon="6.07532085"><ele>395.719849</ele><time>2009-10-19T11:59:35Z</time></trkpt>
<trkpt lat="46.20148396" lon="6.07533988"><ele>395.719849</ele><time>2009-10-19T11:59:36Z</time></trkpt>
<trkpt lat="46.20147843" lon="6.07535505"><ele>395.239136</ele><time>2009-10-19T11:59:37Z</time></trkpt>
<trkpt lat="46.20146619" lon="6.07536712"><ele>395.239136</ele><time>2009-10-19T11:59:38Z</time></trkpt>
<trkpt lat="46.20145454" lon="6.07537919"><ele>395.239136</ele><time>2009-10-19T11:59:39Z</time></trkpt>
<trkpt lat="46.20144264" lon="6.07539746"><ele>395.239136</ele><time>2009-10-19T11:59:40Z</time></trkpt>
<trkpt lat="46.20143375" lon="6.07542110"><ele>394.277954</ele><time>2009-10-19T11:59:41Z</time></trkpt>
<trkpt lat="46.20142562" lon="6.07544297"><ele>393.316528</ele><time>2009-10-19T11:59:42Z</time></trkpt>
<trkpt lat="46.20140509" lon="6.07546225"><ele>392.355347</ele><time>2009-10-19T11:59:43Z</time></trkpt>
<trkpt lat="46.20138070" lon="6.07547784"><ele>391.874512</ele><time>2009-10-19T11:59:44Z</time></trkpt>
<trkpt lat="46.20136234" lon="6.07549058"><ele>391.393799</ele><time>2009-10-19T11:59:45Z</time></trkpt>
<trkpt lat="46.20134600" lon="6.07551514"><ele>392.835938</ele><time>2009-10-19T11:59:46Z</time></trkpt>
<trkpt lat="46.20134868" lon="6.07554314"><ele>395.239136</ele><time>2009-10-19T11:59:47Z</time></trkpt>
<trkpt lat="46.20135513" lon="6.07557423"><ele>397.161743</ele><time>2009-10-19T11:59:48Z</time></trkpt>
<trkpt lat="46.20137785" lon="6.07559762"><ele>397.161743</ele><time>2009-10-19T11:59:49Z</time></trkpt>
<trkpt lat="46.20139939" lon="6.07562863"><ele>397.642456</ele><time>2009-10-19T11:59:50Z</time></trkpt>
<trkpt lat="46.20142906" lon="6.07566903"><ele>399.084351</ele><time>2009-10-19T11:59:51Z</time></trkpt>
<trkpt lat="46.20145588" lon="6.07571279"><ele>401.00708</ele><time>2009-10-19T11:59:52Z</time></trkpt>
<trkpt lat="46.20147583" lon="6.07575662"><ele>401.00708</ele><time>2009-10-19T11:59:53Z</time></trkpt>
<trkpt lat="46.20148924" lon="6.07580910"><ele>401.00708</ele><time>2009-10-19T11:59:54Z</time></trkpt>
<trkpt lat="46.20150349" lon="6.07586643"><ele>401.00708</ele><time>2009-10-19T11:59:55Z</time></trkpt>
<trkpt lat="46.20151313" lon="6.07592368"><ele>400.045898</ele><time>2009-10-19T11:59:56Z</time></trkpt>
<trkpt lat="46.20151866" lon="6.07598562"><ele>399.084351</ele><time>2009-10-19T11:59:57Z</time></trkpt>
<trkpt lat="46.20153459" lon="6.07605594"><ele>398.60376</ele><time>2009-10-19T11:59:58Z</time></trkpt>
<trkpt lat="46.20154842" lon="6.07612006"><ele>397.161743</ele><time>2009-10-19T11:59:59Z</time></trkpt>
<trkpt lat="46.20153937" lon="6.07616298"><ele>394.758545</ele><time>2009-10-19T12:00:00Z</time></trkpt>
<trkpt lat="46.20153224" lon="6.07622165"><ele>393.316528</ele><time>2009-10-19T12:00:01Z</time></trkpt>
<trkpt lat="46.20153199" lon="6.07628996"><ele>390.913208</ele><time>2009-10-19T12:00:02Z</time></trkpt>
<trkpt lat="46.20153945" lon="6.07635744"><ele>388.990601</ele><time>2009-10-19T12:00:03Z</time></trkpt>
<trkpt lat="46.20154582" lon="6.07643204"><ele>387.067993</ele><time>2009-10-19T12:00:04Z</time></trkpt>
<trkpt lat="46.20154942" lon="6.07651007"><ele>386.587402</ele><time>2009-10-19T12:00:05Z</time></trkpt>
<trkpt lat="46.20154632" lon="6.07658057"><ele>385.625977</ele><time>2009-10-19T12:00:06Z</time></trkpt>
<trkpt lat="46.20153928" lon="6.07663505"><ele>382.742065</ele><time>2009-10-19T12:00:07Z</time></trkpt>
<trkpt lat="46.20155009" lon="6.07670940"><ele>383.703247</ele><time>2009-10-19T12:00:08Z</time></trkpt>
<trkpt lat="46.20154087" lon="6.07676572"><ele>383.703247</ele><time>2009-10-19T12:00:09Z</time></trkpt>
<trkpt lat="46.20153794" lon="6.07681124"><ele>381.300049</ele><time>2009-10-19T12:00:10Z</time></trkpt>
<trkpt lat="46.20152922" lon="6.07685507"><ele>379.377441</ele><time>2009-10-19T12:00:11Z</time></trkpt>
<trkpt lat="46.20153149" lon="6.07690738"><ele>378.896851</ele><time>2009-10-19T12:00:12Z</time></trkpt>
<trkpt lat="46.20152587" lon="6.07695750"><ele>378.416138</ele><time>2009-10-19T12:00:13Z</time></trkpt>
<trkpt lat="46.20151422" lon="6.07700326"><ele>377.935425</ele><time>2009-10-19T12:00:14Z</time></trkpt>
<trkpt lat="46.20151883" lon="6.07704886"><ele>379.858032</ele><time>2009-10-19T12:00:15Z</time></trkpt>
<trkpt lat="46.20151975" lon="6.07708608"><ele>380.338745</ele><time>2009-10-19T12:00:16Z</time></trkpt>
<trkpt lat="46.20152755" lon="6.07711634"><ele>381.300049</ele><time>2009-10-19T12:00:17Z</time></trkpt>
<trkpt lat="46.20154448" lon="6.07715364"><ele>382.742065</ele><time>2009-10-19T12:00:18Z</time></trkpt>
<trkpt lat="46.20155378" lon="6.07718239"><ele>383.222656</ele><time>2009-10-19T12:00:19Z</time></trkpt>
<trkpt lat="46.20155429" lon="6.07721005"><ele>383.703247</ele><time>2009-10-19T12:00:20Z</time></trkpt>
<trkpt lat="46.20155856" lon="6.07723813"><ele>384.184082</ele><time>2009-10-19T12:00:21Z</time></trkpt>
<trkpt lat="46.20157055" lon="6.07728012"><ele>385.145386</ele><time>2009-10-19T12:00:22Z</time></trkpt>
<trkpt lat="46.20158957" lon="6.07733569"><ele>385.625977</ele><time>2009-10-19T12:00:23Z</time></trkpt>
<trkpt lat="46.20159963" lon="6.07739177"><ele>387.067993</ele><time>2009-10-19T12:00:24Z</time></trkpt>
<trkpt lat="46.20161212" lon="6.07744122"><ele>387.548584</ele><time>2009-10-19T12:00:25Z</time></trkpt>
<trkpt lat="46.20161807" lon="6.07749503"><ele>388.029297</ele><time>2009-10-19T12:00:26Z</time></trkpt>
<trkpt lat="46.20162386" lon="6.07754063"><ele>388.990601</ele><time>2009-10-19T12:00:27Z</time></trkpt>
<trkpt lat="46.20163836" lon="6.07759427"><ele>389.951904</ele><time>2009-10-19T12:00:28Z</time></trkpt>
<trkpt lat="46.20165705" lon="6.07764909"><ele>390.432617</ele><time>2009-10-19T12:00:29Z</time></trkpt>
<trkpt lat="46.20167004" lon="6.07769603"><ele>391.393799</ele><time>2009-10-19T12:00:30Z</time></trkpt>
<trkpt lat="46.20167725" lon="6.07774565"><ele>391.393799</ele><time>2009-10-19T12:00:31Z</time></trkpt>
<trkpt lat="46.20168965" lon="6.07779108"><ele>391.393799</ele><time>2009-10-19T12:00:32Z</time></trkpt>
<trkpt lat="46.20170055" lon="6.07784263"><ele>389.951904</ele><time>2009-10-19T12:00:33Z</time></trkpt>
<trkpt lat="46.20171119" lon="6.07790080"><ele>387.067993</ele><time>2009-10-19T12:00:34Z</time></trkpt>
<trkpt lat="46.20172326" lon="6.07795117"><ele>384.664795</ele><time>2009-10-19T12:00:35Z</time></trkpt>
<trkpt lat="46.20173735" lon="6.07799468"><ele>385.625977</ele><time>2009-10-19T12:00:36Z</time></trkpt>
<trkpt lat="46.20174548" lon="6.07804354"><ele>387.548584</ele><time>2009-10-19T12:00:37Z</time></trkpt>
<trkpt lat="46.20174564" lon="6.07810993"><ele>388.029297</ele><time>2009-10-19T12:00:38Z</time></trkpt>
<trkpt lat="46.20174464" lon="6.07817422"><ele>388.51001</ele><time>2009-10-19T12:00:39Z</time></trkpt>
<trkpt lat="46.20173743" lon="6.07822342"><ele>388.029297</ele><time>2009-10-19T12:00:40Z</time></trkpt>
<trkpt lat="46.20172477" lon="6.07826466"><ele>387.548584</ele><time>2009-10-19T12:00:41Z</time></trkpt>
<trkpt lat="46.20170055" lon="6.07831277"><ele>389.951904</ele><time>2009-10-19T12:00:42Z</time></trkpt>
<trkpt lat="46.20168102" lon="6.07835979"><ele>392.835938</ele><time>2009-10-19T12:00:43Z</time></trkpt>
<trkpt lat="46.20167607" lon="6.07840539"><ele>392.835938</ele><time>2009-10-19T12:00:44Z</time></trkpt>
<trkpt lat="46.20167322" lon="6.07844353"><ele>393.797241</ele><time>2009-10-19T12:00:45Z</time></trkpt>
<trkpt lat="46.20168035" lon="6.07848292"><ele>393.316528</ele><time>2009-10-19T12:00:46Z</time></trkpt>
<trkpt lat="46.20169359" lon="6.07851125"><ele>394.277954</ele><time>2009-10-19T12:00:47Z</time></trkpt>
<trkpt lat="46.20172285" lon="6.07853388"><ele>395.239136</ele><time>2009-10-19T12:00:48Z</time></trkpt>
<trkpt lat="46.20175604" lon="6.07853514"><ele>395.239136</ele><time>2009-10-19T12:00:49Z</time></trkpt>
<trkpt lat="46.20179057" lon="6.07853288"><ele>395.719849</ele><time>2009-10-19T12:00:50Z</time></trkpt>
<trkpt lat="46.20181915" lon="6.07854210"><ele>394.758545</ele><time>2009-10-19T12:00:51Z</time></trkpt>
<trkpt lat="46.20185067" lon="6.07855417"><ele>395.239136</ele><time>2009-10-19T12:00:52Z</time></trkpt>
<trkpt lat="46.20187774" lon="6.07857345"><ele>394.277954</ele><time>2009-10-19T12:00:53Z</time></trkpt>
<trkpt lat="46.20189727" lon="6.07858988"><ele>392.355347</ele><time>2009-10-19T12:00:54Z</time></trkpt>
<trkpt lat="46.20190633" lon="6.07861326"><ele>391.393799</ele><time>2009-10-19T12:00:55Z</time></trkpt>
<trkpt lat="46.20191253" lon="6.07864788"><ele>390.913208</ele><time>2009-10-19T12:00:56Z</time></trkpt>
<trkpt lat="46.20191756" lon="6.07868945"><ele>391.393799</ele><time>2009-10-19T12:00:57Z</time></trkpt>
<trkpt lat="46.20193063" lon="6.07872692"><ele>390.913208</ele><time>2009-10-19T12:00:58Z</time></trkpt>
<trkpt lat="46.20193910" lon="6.07876657"><ele>389.951904</ele><time>2009-10-19T12:00:59Z</time></trkpt>
<trkpt lat="46.20195569" lon="6.07880848"><ele>389.951904</ele><time>2009-10-19T12:01:00Z</time></trkpt>
<trkpt lat="46.20197766" lon="6.07885919"><ele>390.913208</ele><time>2009-10-19T12:01:01Z</time></trkpt>
<trkpt lat="46.20199626" lon="6.07890327"><ele>390.432617</ele><time>2009-10-19T12:01:02Z</time></trkpt>
<trkpt lat="46.20201177" lon="6.07894904"><ele>389.471191</ele><time>2009-10-19T12:01:03Z</time></trkpt>
<trkpt lat="46.20202895" lon="6.07901685"><ele>387.067993</ele><time>2009-10-19T12:01:04Z</time></trkpt>
<trkpt lat="46.20204404" lon="6.07908097"><ele>386.106689</ele><time>2009-10-19T12:01:05Z</time></trkpt>
<trkpt lat="46.20206055" lon="6.07914576"><ele>384.664795</ele><time>2009-10-19T12:01:06Z</time></trkpt>
<trkpt lat="46.20208444" lon="6.07919647"><ele>385.625977</ele><time>2009-10-19T12:01:07Z</time></trkpt>
<trkpt lat="46.20210338" lon="6.07925029"><ele>385.145386</ele><time>2009-10-19T12:01:08Z</time></trkpt>
<trkpt lat="46.20212283" lon="6.07929689"><ele>385.145386</ele><time>2009-10-19T12:01:09Z</time></trkpt>
<trkpt lat="46.20214915" lon="6.07934710"><ele>387.067993</ele><time>2009-10-19T12:01:10Z</time></trkpt>
<trkpt lat="46.20218075" lon="6.07939454"><ele>387.067993</ele><time>2009-10-19T12:01:11Z</time></trkpt>
<trkpt lat="46.20221830" lon="6.07943444"><ele>387.067993</ele><time>2009-10-19T12:01:12Z</time></trkpt>
<trkpt lat="46.20226289" lon="6.07947920"><ele>387.548584</ele><time>2009-10-19T12:01:13Z</time></trkpt>
<trkpt lat="46.20229877" lon="6.07953083"><ele>387.067993</ele><time>2009-10-19T12:01:14Z</time></trkpt>
<trkpt lat="46.20233087" lon="6.07957223"><ele>387.067993</ele><time>2009-10-19T12:01:15Z</time></trkpt>
<trkpt lat="46.20235627" lon="6.07961247"><ele>386.106689</ele><time>2009-10-19T12:01:16Z</time></trkpt>
<trkpt lat="46.20237487" lon="6.07964918"><ele>386.106689</ele><time>2009-10-19T12:01:17Z</time></trkpt>
<trkpt lat="46.20238912" lon="6.07968983"><ele>386.106689</ele><time>2009-10-19T12:01:18Z</time></trkpt>
<trkpt lat="46.20239348" lon="6.07972864"><ele>385.145386</ele><time>2009-10-19T12:01:19Z</time></trkpt>
<trkpt lat="46.20239692" lon="6.07977097"><ele>384.664795</ele><time>2009-10-19T12:01:20Z</time></trkpt>
<trkpt lat="46.20239977" lon="6.07981187"><ele>385.145386</ele><time>2009-10-19T12:01:21Z</time></trkpt>
<trkpt lat="46.20239574" lon="6.07986133"><ele>385.145386</ele><time>2009-10-19T12:01:22Z</time></trkpt>
<trkpt lat="46.20238803" lon="6.07992503"><ele>384.184082</ele><time>2009-10-19T12:01:23Z</time></trkpt>
<trkpt lat="46.20237513" lon="6.07998437"><ele>383.703247</ele><time>2009-10-19T12:01:24Z</time></trkpt>
<trkpt lat="46.20237772" lon="6.08003433"><ele>384.664795</ele><time>2009-10-19T12:01:25Z</time></trkpt>
<trkpt lat="46.20238845" lon="6.08007708"><ele>384.664795</ele><time>2009-10-19T12:01:26Z</time></trkpt>
<trkpt lat="46.20238828" lon="6.08010616"><ele>385.145386</ele><time>2009-10-19T12:01:27Z</time></trkpt>
<trkpt lat="46.20239516" lon="6.08013500"><ele>385.625977</ele><time>2009-10-19T12:01:28Z</time></trkpt>
<trkpt lat="46.20241452" lon="6.08016852"><ele>386.106689</ele><time>2009-10-19T12:01:29Z</time></trkpt>
<trkpt lat="46.20243623" lon="6.08019870"><ele>387.067993</ele><time>2009-10-19T12:01:30Z</time></trkpt>
<trkpt lat="46.20245676" lon="6.08021504"><ele>386.587402</ele><time>2009-10-19T12:01:31Z</time></trkpt>
<trkpt lat="46.20247579" lon="6.08020054"><ele>386.106689</ele><time>2009-10-19T12:01:32Z</time></trkpt>
<trkpt lat="46.20249214" lon="6.08017514"><ele>385.625977</ele><time>2009-10-19T12:01:33Z</time></trkpt>
<trkpt lat="46.20251343" lon="6.08015427"><ele>385.625977</ele><time>2009-10-19T12:01:34Z</time></trkpt>
<trkpt lat="46.20254033" lon="6.08013198"><ele>385.625977</ele><time>2009-10-19T12:01:35Z</time></trkpt>
<trkpt lat="46.20257009" lon="6.08011924"><ele>385.625977</ele><time>2009-10-19T12:01:36Z</time></trkpt>
<trkpt lat="46.20260236" lon="6.08011706"><ele>387.067993</ele><time>2009-10-19T12:01:37Z</time></trkpt>
<trkpt lat="46.20262323" lon="6.08011857"><ele>386.587402</ele><time>2009-10-19T12:01:38Z</time></trkpt>
<trkpt lat="46.20263848" lon="6.08013432"><ele>386.106689</ele><time>2009-10-19T12:01:39Z</time></trkpt>
<trkpt lat="46.20264737" lon="6.08015503"><ele>386.587402</ele><time>2009-10-19T12:01:40Z</time></trkpt>
<trkpt lat="46.20266179" lon="6.08018864"><ele>387.548584</ele><time>2009-10-19T12:01:41Z</time></trkpt>
<trkpt lat="46.20267872" lon="6.08021898"><ele>388.51001</ele><time>2009-10-19T12:01:42Z</time></trkpt>
<trkpt lat="46.20269833" lon="6.08025108"><ele>388.990601</ele><time>2009-10-19T12:01:43Z</time></trkpt>
<trkpt lat="46.20272256" lon="6.08028369"><ele>389.471191</ele><time>2009-10-19T12:01:44Z</time></trkpt>
<trkpt lat="46.20275063" lon="6.08030322"><ele>389.951904</ele><time>2009-10-19T12:01:45Z</time></trkpt>
<trkpt lat="46.20278265" lon="6.08031630"><ele>389.471191</ele><time>2009-10-19T12:01:46Z</time></trkpt>
<trkpt lat="46.20281543" lon="6.08034798"><ele>388.029297</ele><time>2009-10-19T12:01:47Z</time></trkpt>
<trkpt lat="46.20283873" lon="6.08037606"><ele>388.029297</ele><time>2009-10-19T12:01:48Z</time></trkpt>
<trkpt lat="46.20286589" lon="6.08041403"><ele>388.51001</ele><time>2009-10-19T12:01:49Z</time></trkpt>
<trkpt lat="46.20289338" lon="6.08045904"><ele>388.029297</ele><time>2009-10-19T12:01:50Z</time></trkpt>
<trkpt lat="46.20292137" lon="6.08050087"><ele>388.029297</ele><time>2009-10-19T12:01:51Z</time></trkpt>
<trkpt lat="46.20293822" lon="6.08053724"><ele>387.548584</ele><time>2009-10-19T12:01:52Z</time></trkpt>
<trkpt lat="46.20295289" lon="6.08057555"><ele>388.51001</ele><time>2009-10-19T12:01:53Z</time></trkpt>
<trkpt lat="46.20297032" lon="6.08061402"><ele>388.51001</ele><time>2009-10-19T12:01:54Z</time></trkpt>
<trkpt lat="46.20299245" lon="6.08065568"><ele>388.990601</ele><time>2009-10-19T12:01:55Z</time></trkpt>
<trkpt lat="46.20301450" lon="6.08071125"><ele>388.51001</ele><time>2009-10-19T12:01:56Z</time></trkpt>
<trkpt lat="46.20303763" lon="6.08075484"><ele>388.990601</ele><time>2009-10-19T12:01:57Z</time></trkpt>
<trkpt lat="46.20306303" lon="6.08080052"><ele>388.990601</ele><time>2009-10-19T12:01:58Z</time></trkpt>
<trkpt lat="46.20308365" lon="6.08084335"><ele>388.51001</ele><time>2009-10-19T12:01:59Z</time></trkpt>
<trkpt lat="46.20310469" lon="6.08088903"><ele>388.51001</ele><time>2009-10-19T12:02:00Z</time></trkpt>
<trkpt lat="46.20313008" lon="6.08093739"><ele>389.471191</ele><time>2009-10-19T12:02:01Z</time></trkpt>
<trkpt lat="46.20314785" lon="6.08097838"><ele>388.990601</ele><time>2009-10-19T12:02:02Z</time></trkpt>
<trkpt lat="46.20316646" lon="6.08102314"><ele>389.471191</ele><time>2009-10-19T12:02:03Z</time></trkpt>
<trkpt lat="46.20317803" lon="6.08106907"><ele>388.990601</ele><time>2009-10-19T12:02:04Z</time></trkpt>
<trkpt lat="46.20318918" lon="6.08111526"><ele>388.51001</ele><time>2009-10-19T12:02:05Z</time></trkpt>
<trkpt lat="46.20320929" lon="6.08116195"><ele>389.471191</ele><time>2009-10-19T12:02:06Z</time></trkpt>
<trkpt lat="46.20323008" lon="6.08120637"><ele>390.432617</ele><time>2009-10-19T12:02:07Z</time></trkpt>
<trkpt lat="46.20327107" lon="6.08124929"><ele>391.874512</ele><time>2009-10-19T12:02:08Z</time></trkpt>
<trkpt lat="46.20329278" lon="6.08129312"><ele>390.913208</ele><time>2009-10-19T12:02:09Z</time></trkpt>
<trkpt lat="46.20332538" lon="6.08134107"><ele>392.835938</ele><time>2009-10-19T12:02:10Z</time></trkpt>
<trkpt lat="46.20334843" lon="6.08138239"><ele>394.758545</ele><time>2009-10-19T12:02:11Z</time></trkpt>
<trkpt lat="46.20337048" lon="6.08142103"><ele>398.123169</ele><time>2009-10-19T12:02:12Z</time></trkpt>
<trkpt lat="46.20339856" lon="6.08146118"><ele>399.084351</ele><time>2009-10-19T12:02:13Z</time></trkpt>
<trkpt lat="46.20343426" lon="6.08149337"><ele>400.045898</ele><time>2009-10-19T12:02:14Z</time></trkpt>
<trkpt lat="46.20347089" lon="6.08152304"><ele>401.00708</ele><time>2009-10-19T12:02:15Z</time></trkpt>
<trkpt lat="46.20351456" lon="6.08154634"><ele>401.968506</ele><time>2009-10-19T12:02:16Z</time></trkpt>
<trkpt lat="46.20354566" lon="6.08157333"><ele>401.487793</ele><time>2009-10-19T12:02:17Z</time></trkpt>
<trkpt lat="46.20357223" lon="6.08159563"><ele>401.00708</ele><time>2009-10-19T12:02:18Z</time></trkpt>
<trkpt lat="46.20358656" lon="6.08161172"><ele>399.084351</ele><time>2009-10-19T12:02:19Z</time></trkpt>
<trkpt lat="46.20360626" lon="6.08162756"><ele>398.123169</ele><time>2009-10-19T12:02:20Z</time></trkpt>
<trkpt lat="46.20361229" lon="6.08163410"><ele>395.719849</ele><time>2009-10-19T12:02:21Z</time></trkpt>
<trkpt lat="46.20360768" lon="6.08164022"><ele>394.758545</ele><time>2009-10-19T12:02:22Z</time></trkpt>
<trkpt lat="46.20360140" lon="6.08164432"><ele>393.316528</ele><time>2009-10-19T12:02:23Z</time></trkpt>
<trkpt lat="46.20359880" lon="6.08165019"><ele>392.355347</ele><time>2009-10-19T12:02:24Z</time></trkpt>
<trkpt lat="46.20359628" lon="6.08165564"><ele>390.913208</ele><time>2009-10-19T12:02:25Z</time></trkpt>
<trkpt lat="46.20359654" lon="6.08166168"><ele>389.951904</ele><time>2009-10-19T12:02:26Z</time></trkpt>
<trkpt lat="46.20359637" lon="6.08166763"><ele>389.471191</ele><time>2009-10-19T12:02:27Z</time></trkpt>
<trkpt lat="46.20359193" lon="6.08166955"><ele>388.029297</ele><time>2009-10-19T12:02:28Z</time></trkpt>
<trkpt lat="46.20358572" lon="6.08166553"><ele>386.587402</ele><time>2009-10-19T12:02:29Z</time></trkpt>
<trkpt lat="46.20360274" lon="6.08166754"><ele>384.664795</ele><time>2009-10-19T12:02:30Z</time></trkpt>
<trkpt lat="46.20361296" lon="6.08167986"><ele>385.145386</ele><time>2009-10-19T12:02:31Z</time></trkpt>
<trkpt lat="46.20361548" lon="6.08168154"><ele>384.664795</ele><time>2009-10-19T12:02:32Z</time></trkpt>
<trkpt lat="46.20362185" lon="6.08169286"><ele>385.145386</ele><time>2009-10-19T12:02:33Z</time></trkpt>
<trkpt lat="46.20363643" lon="6.08171289"><ele>385.625977</ele><time>2009-10-19T12:02:34Z</time></trkpt>
<trkpt lat="46.20364096" lon="6.08173225"><ele>384.664795</ele><time>2009-10-19T12:02:35Z</time></trkpt>
<trkpt lat="46.20364817" lon="6.08175505"><ele>384.184082</ele><time>2009-10-19T12:02:36Z</time></trkpt>
<trkpt lat="46.20365756" lon="6.08177986"><ele>384.184082</ele><time>2009-10-19T12:02:37Z</time></trkpt>
<trkpt lat="46.20366166" lon="6.08180299"><ele>383.222656</ele><time>2009-10-19T12:02:38Z</time></trkpt>
<trkpt lat="46.20367055" lon="6.08183518"><ele>383.703247</ele><time>2009-10-19T12:02:39Z</time></trkpt>
<trkpt lat="46.20367985" lon="6.08185655"><ele>382.742065</ele><time>2009-10-19T12:02:40Z</time></trkpt>
<trkpt lat="46.20369243" lon="6.08188405"><ele>382.261353</ele><time>2009-10-19T12:02:41Z</time></trkpt>
<trkpt lat="46.20370533" lon="6.08191313"><ele>382.261353</ele><time>2009-10-19T12:02:42Z</time></trkpt>
<trkpt lat="46.20371522" lon="6.08193568"><ele>382.742065</ele><time>2009-10-19T12:02:43Z</time></trkpt>
<trkpt lat="46.20372017" lon="6.08193954"><ele>382.261353</ele><time>2009-10-19T12:02:44Z</time></trkpt>
<trkpt lat="46.20371799" lon="6.08194767"><ele>384.664795</ele><time>2009-10-19T12:02:45Z</time></trkpt>
<trkpt lat="46.20372243" lon="6.08195689"><ele>386.106689</ele><time>2009-10-19T12:02:46Z</time></trkpt>
<trkpt lat="46.20372738" lon="6.08196652"><ele>387.067993</ele><time>2009-10-19T12:02:47Z</time></trkpt>
<trkpt lat="46.20373266" lon="6.08197633"><ele>388.51001</ele><time>2009-10-19T12:02:48Z</time></trkpt>
<trkpt lat="46.20373987" lon="6.08198706"><ele>389.471191</ele><time>2009-10-19T12:02:49Z</time></trkpt>
<trkpt lat="46.20374439" lon="6.08199678"><ele>390.432617</ele><time>2009-10-19T12:02:50Z</time></trkpt>
<trkpt lat="46.20375169" lon="6.08200626"><ele>390.913208</ele><time>2009-10-19T12:02:51Z</time></trkpt>
<trkpt lat="46.20375940" lon="6.08201304"><ele>391.393799</ele><time>2009-10-19T12:02:52Z</time></trkpt>
<trkpt lat="46.20376669" lon="6.08201874"><ele>392.355347</ele><time>2009-10-19T12:02:53Z</time></trkpt>
<trkpt lat="46.20377373" lon="6.08202537"><ele>393.316528</ele><time>2009-10-19T12:02:54Z</time></trkpt>
<trkpt lat="46.20378144" lon="6.08203123"><ele>393.797241</ele><time>2009-10-19T12:02:55Z</time></trkpt>
<trkpt lat="46.20378563" lon="6.08203685"><ele>394.758545</ele><time>2009-10-19T12:02:56Z</time></trkpt>
<trkpt lat="46.20378915" lon="6.08204188"><ele>394.758545</ele><time>2009-10-19T12:02:57Z</time></trkpt>
<trkpt lat="46.20379259" lon="6.08204548"><ele>395.239136</ele><time>2009-10-19T12:02:58Z</time></trkpt>
<trkpt lat="46.20380214" lon="6.08204808"><ele>396.200562</ele><time>2009-10-19T12:02:59Z</time></trkpt>
<trkpt lat="46.20381212" lon="6.08205085"><ele>396.681152</ele><time>2009-10-19T12:03:00Z</time></trkpt>
<trkpt lat="46.20382226" lon="6.08205420"><ele>397.161743</ele><time>2009-10-19T12:03:01Z</time></trkpt>
<trkpt lat="46.20382863" lon="6.08205663"><ele>398.123169</ele><time>2009-10-19T12:03:02Z</time></trkpt>
<trkpt lat="46.20383668" lon="6.08206225"><ele>398.123169</ele><time>2009-10-19T12:03:03Z</time></trkpt>
<trkpt lat="46.20384389" lon="6.08206728"><ele>397.642456</ele><time>2009-10-19T12:03:04Z</time></trkpt>
<trkpt lat="46.20385143" lon="6.08207298"><ele>397.642456</ele><time>2009-10-19T12:03:05Z</time></trkpt>
<trkpt lat="46.20385738" lon="6.08208337"><ele>397.161743</ele><time>2009-10-19T12:03:06Z</time></trkpt>
<trkpt lat="46.20386484" lon="6.08208463"><ele>397.161743</ele><time>2009-10-19T12:03:07Z</time></trkpt>
<trkpt lat="46.20387389" lon="6.08207658"><ele>397.161743</ele><time>2009-10-19T12:03:08Z</time></trkpt>
<trkpt lat="46.20388512" lon="6.08206627"><ele>396.681152</ele><time>2009-10-19T12:03:09Z</time></trkpt>
<trkpt lat="46.20389627" lon="6.08205822"><ele>396.681152</ele><time>2009-10-19T12:03:10Z</time></trkpt>
<trkpt lat="46.20391279" lon="6.08205512"><ele>396.681152</ele><time>2009-10-19T12:03:11Z</time></trkpt>
<trkpt lat="46.20393408" lon="6.08206132"><ele>396.681152</ele><time>2009-10-19T12:03:12Z</time></trkpt>
<trkpt lat="46.20396299" lon="6.08205856"><ele>396.200562</ele><time>2009-10-19T12:03:13Z</time></trkpt>
<trkpt lat="46.20400348" lon="6.08204607"><ele>395.719849</ele><time>2009-10-19T12:03:14Z</time></trkpt>
<trkpt lat="46.20404514" lon="6.08203576"><ele>395.239136</ele><time>2009-10-19T12:03:15Z</time></trkpt>
<trkpt lat="46.20408327" lon="6.08204632"><ele>395.239136</ele><time>2009-10-19T12:03:16Z</time></trkpt>
<trkpt lat="46.20411085" lon="6.08207013"><ele>394.277954</ele><time>2009-10-19T12:03:17Z</time></trkpt>
<trkpt lat="46.20413080" lon="6.08210734"><ele>393.316528</ele><time>2009-10-19T12:03:18Z</time></trkpt>
<trkpt lat="46.20416022" lon="6.08215185"><ele>393.316528</ele><time>2009-10-19T12:03:19Z</time></trkpt>
<trkpt lat="46.20418838" lon="6.08218865"><ele>391.874512</ele><time>2009-10-19T12:03:20Z</time></trkpt>
<trkpt lat="46.20421386" lon="6.08222377"><ele>391.874512</ele><time>2009-10-19T12:03:21Z</time></trkpt>
<trkpt lat="46.20425175" lon="6.08226333"><ele>391.874512</ele><time>2009-10-19T12:03:22Z</time></trkpt>
<trkpt lat="46.20427958" lon="6.08229434"><ele>390.913208</ele><time>2009-10-19T12:03:23Z</time></trkpt>
<trkpt lat="46.20430615" lon="6.08232435"><ele>390.913208</ele><time>2009-10-19T12:03:24Z</time></trkpt>
<trkpt lat="46.20433230" lon="6.08234899"><ele>390.432617</ele><time>2009-10-19T12:03:25Z</time></trkpt>
<trkpt lat="46.20434982" lon="6.08237053"><ele>389.951904</ele><time>2009-10-19T12:03:26Z</time></trkpt>
<trkpt lat="46.20438242" lon="6.08239903"><ele>389.951904</ele><time>2009-10-19T12:03:27Z</time></trkpt>
<trkpt lat="46.20441654" lon="6.08242342"><ele>390.913208</ele><time>2009-10-19T12:03:28Z</time></trkpt>
<trkpt lat="46.20444638" lon="6.08245360"><ele>391.393799</ele><time>2009-10-19T12:03:29Z</time></trkpt>
<trkpt lat="46.20447462" lon="6.08248754"><ele>391.874512</ele><time>2009-10-19T12:03:30Z</time></trkpt>
<trkpt lat="46.20449868" lon="6.08251286"><ele>392.355347</ele><time>2009-10-19T12:03:31Z</time></trkpt>
<trkpt lat="46.20453003" lon="6.08253364"><ele>392.355347</ele><time>2009-10-19T12:03:32Z</time></trkpt>
<trkpt lat="46.20457185" lon="6.08254815"><ele>392.355347</ele><time>2009-10-19T12:03:33Z</time></trkpt>
<trkpt lat="46.20460588" lon="6.08256290"><ele>392.835938</ele><time>2009-10-19T12:03:34Z</time></trkpt>
<trkpt lat="46.20465802" lon="6.08258620"><ele>393.316528</ele><time>2009-10-19T12:03:35Z</time></trkpt>
<trkpt lat="46.20470135" lon="6.08260648"><ele>391.874512</ele><time>2009-10-19T12:03:36Z</time></trkpt>
<trkpt lat="46.20474662" lon="6.08263574"><ele>392.355347</ele><time>2009-10-19T12:03:37Z</time></trkpt>
<trkpt lat="46.20478626" lon="6.08267278"><ele>392.835938</ele><time>2009-10-19T12:03:38Z</time></trkpt>
<trkpt lat="46.20482507" lon="6.08270120"><ele>392.355347</ele><time>2009-10-19T12:03:39Z</time></trkpt>
<trkpt lat="46.20486329" lon="6.08273079"><ele>392.835938</ele><time>2009-10-19T12:03:40Z</time></trkpt>
<trkpt lat="46.20489942" lon="6.08276063"><ele>393.316528</ele><time>2009-10-19T12:03:41Z</time></trkpt>
<trkpt lat="46.20492674" lon="6.08278804"><ele>393.316528</ele><time>2009-10-19T12:03:42Z</time></trkpt>
<trkpt lat="46.20496036" lon="6.08282064"><ele>393.316528</ele><time>2009-10-19T12:03:43Z</time></trkpt>
<trkpt lat="46.20499874" lon="6.08285325"><ele>393.797241</ele><time>2009-10-19T12:03:44Z</time></trkpt>
<trkpt lat="46.20503596" lon="6.08289356"><ele>393.797241</ele><time>2009-10-19T12:03:45Z</time></trkpt>
<trkpt lat="46.20506823" lon="6.08292256"><ele>393.797241</ele><time>2009-10-19T12:03:46Z</time></trkpt>
<trkpt lat="46.20510637" lon="6.08295643"><ele>394.277954</ele><time>2009-10-19T12:03:47Z</time></trkpt>
<trkpt lat="46.20514618" lon="6.08299348"><ele>393.797241</ele><time>2009-10-19T12:03:48Z</time></trkpt>
<trkpt lat="46.20518784" lon="6.08303262"><ele>393.797241</ele><time>2009-10-19T12:03:49Z</time></trkpt>
<trkpt lat="46.20522673" lon="6.08307797"><ele>393.316528</ele><time>2009-10-19T12:03:50Z</time></trkpt>
<trkpt lat="46.20527158" lon="6.08312759"><ele>393.316528</ele><time>2009-10-19T12:03:51Z</time></trkpt>
<trkpt lat="46.20531449" lon="6.08316706"><ele>393.316528</ele><time>2009-10-19T12:03:52Z</time></trkpt>
<trkpt lat="46.20535523" lon="6.08319908"><ele>393.797241</ele><time>2009-10-19T12:03:53Z</time></trkpt>
<trkpt lat="46.20538649" lon="6.08323563"><ele>392.835938</ele><time>2009-10-19T12:03:54Z</time></trkpt>
<trkpt lat="46.20542228" lon="6.08327452"><ele>392.355347</ele><time>2009-10-19T12:03:55Z</time></trkpt>
<trkpt lat="46.20545388" lon="6.08331350"><ele>392.355347</ele><time>2009-10-19T12:03:56Z</time></trkpt>
<trkpt lat="46.20549026" lon="6.08335390"><ele>391.393799</ele><time>2009-10-19T12:03:57Z</time></trkpt>
<trkpt lat="46.20553150" lon="6.08338617"><ele>391.874512</ele><time>2009-10-19T12:03:58Z</time></trkpt>
<trkpt lat="46.20557123" lon="6.08341693"><ele>391.393799</ele><time>2009-10-19T12:03:59Z</time></trkpt>
<trkpt lat="46.20561833" lon="6.08345322"><ele>390.913208</ele><time>2009-10-19T12:04:00Z</time></trkpt>
<trkpt lat="46.20566175" lon="6.08348834"><ele>389.951904</ele><time>2009-10-19T12:04:01Z</time></trkpt>
<trkpt lat="46.20570685" lon="6.08352548"><ele>389.471191</ele><time>2009-10-19T12:04:02Z</time></trkpt>
<trkpt lat="46.20575018" lon="6.08355833"><ele>388.51001</ele><time>2009-10-19T12:04:03Z</time></trkpt>
<trkpt lat="46.20579285" lon="6.08358842"><ele>388.51001</ele><time>2009-10-19T12:04:04Z</time></trkpt>
<trkpt lat="46.20582822" lon="6.08361734"><ele>388.029297</ele><time>2009-10-19T12:04:05Z</time></trkpt>
<trkpt lat="46.20586158" lon="6.08364969"><ele>387.067993</ele><time>2009-10-19T12:04:06Z</time></trkpt>
<trkpt lat="46.20589695" lon="6.08368297"><ele>387.067993</ele><time>2009-10-19T12:04:07Z</time></trkpt>
<trkpt lat="46.20593442" lon="6.08371574"><ele>387.067993</ele><time>2009-10-19T12:04:08Z</time></trkpt>
<trkpt lat="46.20597146" lon="6.08375397"><ele>387.548584</ele><time>2009-10-19T12:04:09Z</time></trkpt>
<trkpt lat="46.20600298" lon="6.08379722"><ele>387.067993</ele><time>2009-10-19T12:04:10Z</time></trkpt>
<trkpt lat="46.20603257" lon="6.08383670"><ele>386.587402</ele><time>2009-10-19T12:04:11Z</time></trkpt>
<trkpt lat="46.20605956" lon="6.08386972"><ele>385.625977</ele><time>2009-10-19T12:04:12Z</time></trkpt>
<trkpt lat="46.20607967" lon="6.08389679"><ele>385.625977</ele><time>2009-10-19T12:04:13Z</time></trkpt>
<trkpt lat="46.20610482" lon="6.08392856"><ele>385.145386</ele><time>2009-10-19T12:04:14Z</time></trkpt>
<trkpt lat="46.20613315" lon="6.08396058"><ele>385.625977</ele><time>2009-10-19T12:04:15Z</time></trkpt>
<trkpt lat="46.20617162" lon="6.08399914"><ele>386.587402</ele><time>2009-10-19T12:04:16Z</time></trkpt>
<trkpt lat="46.20619912" lon="6.08403392"><ele>387.067993</ele><time>2009-10-19T12:04:17Z</time></trkpt>
<trkpt lat="46.20622602" lon="6.08406938"><ele>387.548584</ele><time>2009-10-19T12:04:18Z</time></trkpt>
<trkpt lat="46.20625385" lon="6.08410802"><ele>387.548584</ele><time>2009-10-19T12:04:19Z</time></trkpt>
<trkpt lat="46.20627682" lon="6.08413844"><ele>387.067993</ele><time>2009-10-19T12:04:20Z</time></trkpt>
<trkpt lat="46.20630112" lon="6.08417080"><ele>387.548584</ele><time>2009-10-19T12:04:21Z</time></trkpt>
<trkpt lat="46.20632895" lon="6.08420055"><ele>388.029297</ele><time>2009-10-19T12:04:22Z</time></trkpt>
<trkpt lat="46.20635292" lon="6.08423215"><ele>388.51001</ele><time>2009-10-19T12:04:23Z</time></trkpt>
<trkpt lat="46.20637178" lon="6.08425914"><ele>388.51001</ele><time>2009-10-19T12:04:24Z</time></trkpt>
<trkpt lat="46.20639014" lon="6.08428705"><ele>388.51001</ele><time>2009-10-19T12:04:25Z</time></trkpt>
<trkpt lat="46.20641235" lon="6.08431505"><ele>388.990601</ele><time>2009-10-19T12:04:26Z</time></trkpt>
<trkpt lat="46.20644345" lon="6.08434816"><ele>389.951904</ele><time>2009-10-19T12:04:27Z</time></trkpt>
<trkpt lat="46.20647639" lon="6.08437515"><ele>389.951904</ele><time>2009-10-19T12:04:28Z</time></trkpt>
<trkpt lat="46.20651369" lon="6.08439904"><ele>390.913208</ele><time>2009-10-19T12:04:29Z</time></trkpt>
<trkpt lat="46.20655459" lon="6.08442125"><ele>392.355347</ele><time>2009-10-19T12:04:30Z</time></trkpt>
<trkpt lat="46.20659332" lon="6.08444178"><ele>393.797241</ele><time>2009-10-19T12:04:31Z</time></trkpt>
<trkpt lat="46.20663179" lon="6.08445939"><ele>394.758545</ele><time>2009-10-19T12:04:32Z</time></trkpt>
<trkpt lat="46.20666582" lon="6.08447959"><ele>395.239136</ele><time>2009-10-19T12:04:33Z</time></trkpt>
<trkpt lat="46.20669415" lon="6.08449778"><ele>394.758545</ele><time>2009-10-19T12:04:34Z</time></trkpt>
<trkpt lat="46.20672223" lon="6.08451957"><ele>394.277954</ele><time>2009-10-19T12:04:35Z</time></trkpt>
<trkpt lat="46.20674956" lon="6.08453834"><ele>394.758545</ele><time>2009-10-19T12:04:36Z</time></trkpt>
<trkpt lat="46.20677437" lon="6.08455360"><ele>394.758545</ele><time>2009-10-19T12:04:37Z</time></trkpt>
<trkpt lat="46.20680496" lon="6.08456835"><ele>395.239136</ele><time>2009-10-19T12:04:38Z</time></trkpt>
<trkpt lat="46.20684234" lon="6.08458813"><ele>396.681152</ele><time>2009-10-19T12:04:39Z</time></trkpt>
<trkpt lat="46.20687059" lon="6.08461722"><ele>395.719849</ele><time>2009-10-19T12:04:40Z</time></trkpt>
<trkpt lat="46.20690714" lon="6.08465267"><ele>395.239136</ele><time>2009-10-19T12:04:41Z</time></trkpt>
<trkpt lat="46.20694737" lon="6.08469039"><ele>395.239136</ele><time>2009-10-19T12:04:42Z</time></trkpt>
<trkpt lat="46.20698936" lon="6.08472803"><ele>394.277954</ele><time>2009-10-19T12:04:43Z</time></trkpt>
<trkpt lat="46.20703655" lon="6.08477756"><ele>392.835938</ele><time>2009-10-19T12:04:44Z</time></trkpt>
<trkpt lat="46.20708425" lon="6.08482408"><ele>391.393799</ele><time>2009-10-19T12:04:45Z</time></trkpt>
<trkpt lat="46.20713219" lon="6.08486339"><ele>392.355347</ele><time>2009-10-19T12:04:46Z</time></trkpt>
<trkpt lat="46.20718793" lon="6.08491343"><ele>391.874512</ele><time>2009-10-19T12:04:47Z</time></trkpt>
<trkpt lat="46.20725524" lon="6.08496440"><ele>392.355347</ele><time>2009-10-19T12:04:48Z</time></trkpt>
<trkpt lat="46.20732489" lon="6.08501628"><ele>392.355347</ele><time>2009-10-19T12:04:49Z</time></trkpt>
<trkpt lat="46.20739044" lon="6.08507236"><ele>392.355347</ele><time>2009-10-19T12:04:50Z</time></trkpt>
<trkpt lat="46.20744349" lon="6.08513245"><ele>392.835938</ele><time>2009-10-19T12:04:51Z</time></trkpt>
<trkpt lat="46.20750150" lon="6.08518786"><ele>393.797241</ele><time>2009-10-19T12:04:52Z</time></trkpt>
<trkpt lat="46.20756545" lon="6.08524075"><ele>394.277954</ele><time>2009-10-19T12:04:53Z</time></trkpt>
<trkpt lat="46.20762446" lon="6.08528710"><ele>394.277954</ele><time>2009-10-19T12:04:54Z</time></trkpt>
<trkpt lat="46.20766377" lon="6.08533773"><ele>391.874512</ele><time>2009-10-19T12:04:55Z</time></trkpt>
<trkpt lat="46.20769914" lon="6.08538768"><ele>390.432617</ele><time>2009-10-19T12:04:56Z</time></trkpt>
<trkpt lat="46.20771658" lon="6.08543026"><ele>388.029297</ele><time>2009-10-19T12:04:57Z</time></trkpt>
<trkpt lat="46.20773602" lon="6.08547276"><ele>387.548584</ele><time>2009-10-19T12:04:58Z</time></trkpt>
<trkpt lat="46.20774633" lon="6.08552003"><ele>387.548584</ele><time>2009-10-19T12:04:59Z</time></trkpt>
<trkpt lat="46.20777433" lon="6.08557929"><ele>388.51001</ele><time>2009-10-19T12:05:00Z</time></trkpt>
<trkpt lat="46.20779528" lon="6.08562984"><ele>389.471191</ele><time>2009-10-19T12:05:01Z</time></trkpt>
<trkpt lat="46.20782454" lon="6.08567158"><ele>389.471191</ele><time>2009-10-19T12:05:02Z</time></trkpt>
<trkpt lat="46.20787550" lon="6.08571206"><ele>389.951904</ele><time>2009-10-19T12:05:03Z</time></trkpt>
<trkpt lat="46.20792143" lon="6.08573947"><ele>390.913208</ele><time>2009-10-19T12:05:04Z</time></trkpt>
<trkpt lat="46.20796686" lon="6.08577476"><ele>389.951904</ele><time>2009-10-19T12:05:05Z</time></trkpt>
<trkpt lat="46.20801715" lon="6.08581256"><ele>389.951904</ele><time>2009-10-19T12:05:06Z</time></trkpt>
<trkpt lat="46.20806702" lon="6.08584123"><ele>389.951904</ele><time>2009-10-19T12:05:07Z</time></trkpt>
<trkpt lat="46.20809955" lon="6.08586646"><ele>390.432617</ele><time>2009-10-19T12:05:08Z</time></trkpt>
<trkpt lat="46.20813198" lon="6.08588632"><ele>391.393799</ele><time>2009-10-19T12:05:09Z</time></trkpt>
<trkpt lat="46.20814355" lon="6.08590837"><ele>390.913208</ele><time>2009-10-19T12:05:10Z</time></trkpt>
<trkpt lat="46.20814003" lon="6.08591356"><ele>391.393799</ele><time>2009-10-19T12:05:11Z</time></trkpt>
<trkpt lat="46.20814187" lon="6.08590895"><ele>390.913208</ele><time>2009-10-19T12:05:12Z</time></trkpt>
<trkpt lat="46.20814204" lon="6.08590183"><ele>390.913208</ele><time>2009-10-19T12:05:13Z</time></trkpt>
<trkpt lat="46.20814498" lon="6.08590133"><ele>390.913208</ele><time>2009-10-19T12:05:14Z</time></trkpt>
<trkpt lat="46.20815009" lon="6.08590283"><ele>391.393799</ele><time>2009-10-19T12:05:15Z</time></trkpt>
<trkpt lat="46.20815638" lon="6.08590552"><ele>391.874512</ele><time>2009-10-19T12:05:16Z</time></trkpt>
<trkpt lat="46.20816224" lon="6.08590845"><ele>392.355347</ele><time>2009-10-19T12:05:17Z</time></trkpt>
<trkpt lat="46.20816694" lon="6.08591172"><ele>392.835938</ele><time>2009-10-19T12:05:18Z</time></trkpt>
<trkpt lat="46.20817012" lon="6.08591348"><ele>392.835938</ele><time>2009-10-19T12:05:19Z</time></trkpt>
<trkpt lat="46.20817289" lon="6.08591574"><ele>393.316528</ele><time>2009-10-19T12:05:20Z</time></trkpt>
<trkpt lat="46.20817406" lon="6.08591868"><ele>393.316528</ele><time>2009-10-19T12:05:21Z</time></trkpt>
<trkpt lat="46.20817616" lon="6.08592169"><ele>393.797241</ele><time>2009-10-19T12:05:22Z</time></trkpt>
<trkpt lat="46.20817909" lon="6.08593267"><ele>392.835938</ele><time>2009-10-19T12:05:23Z</time></trkpt>
<trkpt lat="46.20818412" lon="6.08593628"><ele>392.835938</ele><time>2009-10-19T12:05:24Z</time></trkpt>
<trkpt lat="46.20819326" lon="6.08594407"><ele>392.835938</ele><time>2009-10-19T12:05:25Z</time></trkpt>
<trkpt lat="46.20819728" lon="6.08594977"><ele>392.835938</ele><time>2009-10-19T12:05:26Z</time></trkpt>
<trkpt lat="46.20820172" lon="6.08595799"><ele>393.316528</ele><time>2009-10-19T12:05:27Z</time></trkpt>
<trkpt lat="46.20820164" lon="6.08597123"><ele>392.835938</ele><time>2009-10-19T12:05:28Z</time></trkpt>
<trkpt lat="46.20820197" lon="6.08598917"><ele>392.835938</ele><time>2009-10-19T12:05:29Z</time></trkpt>
<trkpt lat="46.20820784" lon="6.08601423"><ele>393.316528</ele><time>2009-10-19T12:05:30Z</time></trkpt>
<trkpt lat="46.20821496" lon="6.08603912"><ele>392.835938</ele><time>2009-10-19T12:05:31Z</time></trkpt>
<trkpt lat="46.20823223" lon="6.08607156"><ele>392.835938</ele><time>2009-10-19T12:05:32Z</time></trkpt>
<trkpt lat="46.20824690" lon="6.08611858"><ele>391.874512</ele><time>2009-10-19T12:05:33Z</time></trkpt>
<trkpt lat="46.20826609" lon="6.08615069"><ele>391.874512</ele><time>2009-10-19T12:05:34Z</time></trkpt>
<trkpt lat="46.20828638" lon="6.08618723"><ele>391.874512</ele><time>2009-10-19T12:05:35Z</time></trkpt>
<trkpt lat="46.20830155" lon="6.08622160"><ele>390.913208</ele><time>2009-10-19T12:05:36Z</time></trkpt>
<trkpt lat="46.20831152" lon="6.08625320"><ele>389.471191</ele><time>2009-10-19T12:05:37Z</time></trkpt>
<trkpt lat="46.20832980" lon="6.08630097"><ele>389.951904</ele><time>2009-10-19T12:05:38Z</time></trkpt>
<trkpt lat="46.20835327" lon="6.08634816"><ele>389.471191</ele><time>2009-10-19T12:05:39Z</time></trkpt>
<trkpt lat="46.20838327" lon="6.08638496"><ele>389.951904</ele><time>2009-10-19T12:05:40Z</time></trkpt>
<trkpt lat="46.20841923" lon="6.08641170"><ele>389.951904</ele><time>2009-10-19T12:05:41Z</time></trkpt>
<trkpt lat="46.20846164" lon="6.08643098"><ele>389.951904</ele><time>2009-10-19T12:05:42Z</time></trkpt>
<trkpt lat="46.20850079" lon="6.08644984"><ele>389.471191</ele><time>2009-10-19T12:05:43Z</time></trkpt>
<trkpt lat="46.20853817" lon="6.08647934"><ele>388.51001</ele><time>2009-10-19T12:05:44Z</time></trkpt>
<trkpt lat="46.20857337" lon="6.08651916"><ele>388.029297</ele><time>2009-10-19T12:05:45Z</time></trkpt>
<trkpt lat="46.20860774" lon="6.08656408"><ele>388.51001</ele><time>2009-10-19T12:05:46Z</time></trkpt>
<trkpt lat="46.20863322" lon="6.08660448"><ele>388.51001</ele><time>2009-10-19T12:05:47Z</time></trkpt>
<trkpt lat="46.20865644" lon="6.08664262"><ele>386.587402</ele><time>2009-10-19T12:05:48Z</time></trkpt>
<trkpt lat="46.20868636" lon="6.08668135"><ele>387.067993</ele><time>2009-10-19T12:05:49Z</time></trkpt>
<trkpt lat="46.20871830" lon="6.08672585"><ele>387.067993</ele><time>2009-10-19T12:05:50Z</time></trkpt>
<trkpt lat="46.20875669" lon="6.08677279"><ele>387.067993</ele><time>2009-10-19T12:05:51Z</time></trkpt>
<trkpt lat="46.20879139" lon="6.08681487"><ele>388.029297</ele><time>2009-10-19T12:05:52Z</time></trkpt>
<trkpt lat="46.20882223" lon="6.08685829"><ele>388.51001</ele><time>2009-10-19T12:05:53Z</time></trkpt>
<trkpt lat="46.20885408" lon="6.08690942"><ele>388.51001</ele><time>2009-10-19T12:05:54Z</time></trkpt>
<trkpt lat="46.20888049" lon="6.08695820"><ele>388.029297</ele><time>2009-10-19T12:05:55Z</time></trkpt>
<trkpt lat="46.20890924" lon="6.08700623"><ele>388.990601</ele><time>2009-10-19T12:05:56Z</time></trkpt>
<trkpt lat="46.20893698" lon="6.08704696"><ele>389.471191</ele><time>2009-10-19T12:05:57Z</time></trkpt>
<trkpt lat="46.20896976" lon="6.08708686"><ele>389.471191</ele><time>2009-10-19T12:05:58Z</time></trkpt>
<trkpt lat="46.20900437" lon="6.08712383"><ele>389.471191</ele><time>2009-10-19T12:05:59Z</time></trkpt>
<trkpt lat="46.20903798" lon="6.08716892"><ele>389.951904</ele><time>2009-10-19T12:06:00Z</time></trkpt>
<trkpt lat="46.20907109" lon="6.08721360"><ele>389.951904</ele><time>2009-10-19T12:06:01Z</time></trkpt>
<trkpt lat="46.20909909" lon="6.08726020"><ele>389.471191</ele><time>2009-10-19T12:06:02Z</time></trkpt>
<trkpt lat="46.20912449" lon="6.08731032"><ele>389.471191</ele><time>2009-10-19T12:06:03Z</time></trkpt>
<trkpt lat="46.20915147" lon="6.08737277"><ele>388.990601</ele><time>2009-10-19T12:06:04Z</time></trkpt>
<trkpt lat="46.20918090" lon="6.08743479"><ele>388.990601</ele><time>2009-10-19T12:06:05Z</time></trkpt>
<trkpt lat="46.20921015" lon="6.08749053"><ele>389.471191</ele><time>2009-10-19T12:06:06Z</time></trkpt>
<trkpt lat="46.20923756" lon="6.08755114"><ele>389.951904</ele><time>2009-10-19T12:06:07Z</time></trkpt>
<trkpt lat="46.20926488" lon="6.08761333"><ele>390.432617</ele><time>2009-10-19T12:06:08Z</time></trkpt>
<trkpt lat="46.20929665" lon="6.08767628"><ele>390.913208</ele><time>2009-10-19T12:06:09Z</time></trkpt>
<trkpt lat="46.20933143" lon="6.08773872"><ele>391.393799</ele><time>2009-10-19T12:06:10Z</time></trkpt>
<trkpt lat="46.20936664" lon="6.08779698"><ele>391.874512</ele><time>2009-10-19T12:06:11Z</time></trkpt>
<trkpt lat="46.20940109" lon="6.08785154"><ele>391.874512</ele><time>2009-10-19T12:06:12Z</time></trkpt>
<trkpt lat="46.20943604" lon="6.08790468"><ele>392.835938</ele><time>2009-10-19T12:06:13Z</time></trkpt>
<trkpt lat="46.20946907" lon="6.08795590"><ele>393.316528</ele><time>2009-10-19T12:06:14Z</time></trkpt>
<trkpt lat="46.20950125" lon="6.08800979"><ele>393.797241</ele><time>2009-10-19T12:06:15Z</time></trkpt>
<trkpt lat="46.20953159" lon="6.08806520"><ele>393.797241</ele><time>2009-10-19T12:06:16Z</time></trkpt>
<trkpt lat="46.20956185" lon="6.08811758"><ele>394.277954</ele><time>2009-10-19T12:06:17Z</time></trkpt>
<trkpt lat="46.20959052" lon="6.08816762"><ele>394.758545</ele><time>2009-10-19T12:06:18Z</time></trkpt>
<trkpt lat="46.20961424" lon="6.08821557"><ele>394.277954</ele><time>2009-10-19T12:06:19Z</time></trkpt>
<trkpt lat="46.20963125" lon="6.08826418"><ele>392.835938</ele><time>2009-10-19T12:06:20Z</time></trkpt>
<trkpt lat="46.20964358" lon="6.08831699"><ele>391.393799</ele><time>2009-10-19T12:06:21Z</time></trkpt>
<trkpt lat="46.20965824" lon="6.08837315"><ele>390.432617</ele><time>2009-10-19T12:06:22Z</time></trkpt>
<trkpt lat="46.20967132" lon="6.08843006"><ele>389.951904</ele><time>2009-10-19T12:06:23Z</time></trkpt>
<trkpt lat="46.20967383" lon="6.08848563"><ele>387.067993</ele><time>2009-10-19T12:06:24Z</time></trkpt>
<trkpt lat="46.20968473" lon="6.08854598"><ele>386.587402</ele><time>2009-10-19T12:06:25Z</time></trkpt>
<trkpt lat="46.20969915" lon="6.08860617"><ele>386.106689</ele><time>2009-10-19T12:06:26Z</time></trkpt>
<trkpt lat="46.20971574" lon="6.08866300"><ele>386.106689</ele><time>2009-10-19T12:06:27Z</time></trkpt>
<trkpt lat="46.20972044" lon="6.08871438"><ele>382.742065</ele><time>2009-10-19T12:06:28Z</time></trkpt>
<trkpt lat="46.20972379" lon="6.08877313"><ele>380.338745</ele><time>2009-10-19T12:06:29Z</time></trkpt>
<trkpt lat="46.20972589" lon="6.08882988"><ele>377.935425</ele><time>2009-10-19T12:06:30Z</time></trkpt>
<trkpt lat="46.20974022" lon="6.08889308"><ele>377.935425</ele><time>2009-10-19T12:06:31Z</time></trkpt>
<trkpt lat="46.20976453" lon="6.08895695"><ele>378.416138</ele><time>2009-10-19T12:06:32Z</time></trkpt>
<trkpt lat="46.20978967" lon="6.08901126"><ele>378.896851</ele><time>2009-10-19T12:06:33Z</time></trkpt>
<trkpt lat="46.20982856" lon="6.08906499"><ele>380.819458</ele><time>2009-10-19T12:06:34Z</time></trkpt>
<trkpt lat="46.20986260" lon="6.08911713"><ele>381.300049</ele><time>2009-10-19T12:06:35Z</time></trkpt>
<trkpt lat="46.20987986" lon="6.08915359"><ele>379.858032</ele><time>2009-10-19T12:06:36Z</time></trkpt>
<trkpt lat="46.20988875" lon="6.08919675"><ele>378.416138</ele><time>2009-10-19T12:06:37Z</time></trkpt>
<trkpt lat="46.20990073" lon="6.08925518"><ele>377.935425</ele><time>2009-10-19T12:06:38Z</time></trkpt>
<trkpt lat="46.20990182" lon="6.08931016"><ele>376.49353</ele><time>2009-10-19T12:06:39Z</time></trkpt>
<trkpt lat="46.20990417" lon="6.08936775"><ele>375.532104</ele><time>2009-10-19T12:06:40Z</time></trkpt>
<trkpt lat="46.20990325" lon="6.08942675"><ele>374.570801</ele><time>2009-10-19T12:06:41Z</time></trkpt>
<trkpt lat="46.20990459" lon="6.08948752"><ele>372.648193</ele><time>2009-10-19T12:06:42Z</time></trkpt>
<trkpt lat="46.20991565" lon="6.08955475"><ele>373.609497</ele><time>2009-10-19T12:06:43Z</time></trkpt>
<trkpt lat="46.20992806" lon="6.08961753"><ele>373.609497</ele><time>2009-10-19T12:06:44Z</time></trkpt>
<trkpt lat="46.20995798" lon="6.08967997"><ele>374.570801</ele><time>2009-10-19T12:06:45Z</time></trkpt>
<trkpt lat="46.20999780" lon="6.08973077"><ele>376.49353</ele><time>2009-10-19T12:06:46Z</time></trkpt>
<trkpt lat="46.21004038" lon="6.08976974"><ele>377.935425</ele><time>2009-10-19T12:06:47Z</time></trkpt>
<trkpt lat="46.21008312" lon="6.08981660"><ele>379.858032</ele><time>2009-10-19T12:06:48Z</time></trkpt>
<trkpt lat="46.21012813" lon="6.08986697"><ele>381.300049</ele><time>2009-10-19T12:06:49Z</time></trkpt>
<trkpt lat="46.21016267" lon="6.08991433"><ele>381.78064</ele><time>2009-10-19T12:06:50Z</time></trkpt>
<trkpt lat="46.21019276" lon="6.08996848"><ele>381.78064</ele><time>2009-10-19T12:06:51Z</time></trkpt>
<trkpt lat="46.21021497" lon="6.09002279"><ele>381.300049</ele><time>2009-10-19T12:06:52Z</time></trkpt>
<trkpt lat="46.21024447" lon="6.09008088"><ele>382.261353</ele><time>2009-10-19T12:06:53Z</time></trkpt>
<trkpt lat="46.21027247" lon="6.09013913"><ele>383.222656</ele><time>2009-10-19T12:06:54Z</time></trkpt>
<trkpt lat="46.21030265" lon="6.09019998"><ele>384.664795</ele><time>2009-10-19T12:06:55Z</time></trkpt>
<trkpt lat="46.21033039" lon="6.09025774"><ele>385.625977</ele><time>2009-10-19T12:06:56Z</time></trkpt>
<trkpt lat="46.21035805" lon="6.09031213"><ele>386.587402</ele><time>2009-10-19T12:06:57Z</time></trkpt>
<trkpt lat="46.21037498" lon="6.09035798"><ele>386.106689</ele><time>2009-10-19T12:06:58Z</time></trkpt>
<trkpt lat="46.21039728" lon="6.09041364"><ele>387.548584</ele><time>2009-10-19T12:06:59Z</time></trkpt>
<trkpt lat="46.21041588" lon="6.09046753"><ele>387.548584</ele><time>2009-10-19T12:07:00Z</time></trkpt>
<trkpt lat="46.21042888" lon="6.09051523"><ele>386.587402</ele><time>2009-10-19T12:07:01Z</time></trkpt>
<trkpt lat="46.21044296" lon="6.09056376"><ele>385.625977</ele><time>2009-10-19T12:07:02Z</time></trkpt>
<trkpt lat="46.21045176" lon="6.09060986"><ele>383.222656</ele><time>2009-10-19T12:07:03Z</time></trkpt>
<trkpt lat="46.21045679" lon="6.09065906"><ele>381.78064</ele><time>2009-10-19T12:07:04Z</time></trkpt>
<trkpt lat="46.21045729" lon="6.09071287"><ele>380.338745</ele><time>2009-10-19T12:07:05Z</time></trkpt>
<trkpt lat="46.21045209" lon="6.09076618"><ele>378.416138</ele><time>2009-10-19T12:07:06Z</time></trkpt>
<trkpt lat="46.21044899" lon="6.09082108"><ele>376.49353</ele><time>2009-10-19T12:07:07Z</time></trkpt>
<trkpt lat="46.21044665" lon="6.09088093"><ele>375.532104</ele><time>2009-10-19T12:07:08Z</time></trkpt>
<trkpt lat="46.21044296" lon="6.09094069"><ele>374.570801</ele><time>2009-10-19T12:07:09Z</time></trkpt>
<trkpt lat="46.21044044" lon="6.09100054"><ele>375.051514</ele><time>2009-10-19T12:07:10Z</time></trkpt>
<trkpt lat="46.21043449" lon="6.09105343"><ele>374.090088</ele><time>2009-10-19T12:07:11Z</time></trkpt>
<trkpt lat="46.21043114" lon="6.09110112"><ele>374.570801</ele><time>2009-10-19T12:07:12Z</time></trkpt>
<trkpt lat="46.21042988" lon="6.09114622"><ele>375.051514</ele><time>2009-10-19T12:07:13Z</time></trkpt>
<trkpt lat="46.21042645" lon="6.09118997"><ele>375.051514</ele><time>2009-10-19T12:07:14Z</time></trkpt>
<trkpt lat="46.21042477" lon="6.09122459"><ele>375.051514</ele><time>2009-10-19T12:07:15Z</time></trkpt>
<trkpt lat="46.21042133" lon="6.09125468"><ele>375.532104</ele><time>2009-10-19T12:07:16Z</time></trkpt>
<trkpt lat="46.21041815" lon="6.09128444"><ele>375.532104</ele><time>2009-10-19T12:07:17Z</time></trkpt>
<trkpt lat="46.21041329" lon="6.09131075"><ele>375.532104</ele><time>2009-10-19T12:07:18Z</time></trkpt>
<trkpt lat="46.21040826" lon="6.09133858"><ele>374.570801</ele><time>2009-10-19T12:07:19Z</time></trkpt>
<trkpt lat="46.21040574" lon="6.09136323"><ele>374.090088</ele><time>2009-10-19T12:07:20Z</time></trkpt>
<trkpt lat="46.21039837" lon="6.09138552"><ele>373.609497</ele><time>2009-10-19T12:07:21Z</time></trkpt>
<trkpt lat="46.21039820" lon="6.09141343"><ele>375.532104</ele><time>2009-10-19T12:07:22Z</time></trkpt>
<trkpt lat="46.21039577" lon="6.09143414"><ele>376.974243</ele><time>2009-10-19T12:07:23Z</time></trkpt>
<trkpt lat="46.21038864" lon="6.09145258"><ele>376.49353</ele><time>2009-10-19T12:07:24Z</time></trkpt>
<trkpt lat="46.21038227" lon="6.09147429"><ele>376.49353</ele><time>2009-10-19T12:07:25Z</time></trkpt>
<trkpt lat="46.21037666" lon="6.09150027"><ele>376.49353</ele><time>2009-10-19T12:07:26Z</time></trkpt>
<trkpt lat="46.21036526" lon="6.09153355"><ele>376.49353</ele><time>2009-10-19T12:07:27Z</time></trkpt>
<trkpt lat="46.21034665" lon="6.09157009"><ele>376.49353</ele><time>2009-10-19T12:07:28Z</time></trkpt>
<trkpt lat="46.21032285" lon="6.09160664"><ele>376.012817</ele><time>2009-10-19T12:07:29Z</time></trkpt>
<trkpt lat="46.21030038" lon="6.09164184"><ele>375.532104</ele><time>2009-10-19T12:07:30Z</time></trkpt>
<trkpt lat="46.21027507" lon="6.09167629"><ele>375.532104</ele><time>2009-10-19T12:07:31Z</time></trkpt>
<trkpt lat="46.21024758" lon="6.09170814"><ele>375.532104</ele><time>2009-10-19T12:07:32Z</time></trkpt>
<trkpt lat="46.21022453" lon="6.09174058"><ele>375.532104</ele><time>2009-10-19T12:07:33Z</time></trkpt>
<trkpt lat="46.21019645" lon="6.09177427"><ele>375.532104</ele><time>2009-10-19T12:07:34Z</time></trkpt>
<trkpt lat="46.21016929" lon="6.09180797"><ele>375.532104</ele><time>2009-10-19T12:07:35Z</time></trkpt>
<trkpt lat="46.21014532" lon="6.09184032"><ele>375.532104</ele><time>2009-10-19T12:07:36Z</time></trkpt>
<trkpt lat="46.21012252" lon="6.09187435"><ele>375.051514</ele><time>2009-10-19T12:07:37Z</time></trkpt>
<trkpt lat="46.21009796" lon="6.09190813"><ele>375.051514</ele><time>2009-10-19T12:07:38Z</time></trkpt>
<trkpt lat="46.21007206" lon="6.09194443"><ele>374.570801</ele><time>2009-10-19T12:07:39Z</time></trkpt>
<trkpt lat="46.21004339" lon="6.09198349"><ele>374.570801</ele><time>2009-10-19T12:07:40Z</time></trkpt>
<trkpt lat="46.21001096" lon="6.09202154"><ele>374.570801</ele><time>2009-10-19T12:07:41Z</time></trkpt>
<trkpt lat="46.20997760" lon="6.09205750"><ele>374.570801</ele><time>2009-10-19T12:07:42Z</time></trkpt>
<trkpt lat="46.20994323" lon="6.09209245"><ele>374.570801</ele><time>2009-10-19T12:07:43Z</time></trkpt>
<trkpt lat="46.20991037" lon="6.09212254"><ele>374.570801</ele><time>2009-10-19T12:07:44Z</time></trkpt>
<trkpt lat="46.20987559" lon="6.09215347"><ele>374.090088</ele><time>2009-10-19T12:07:45Z</time></trkpt>
<trkpt lat="46.20984089" lon="6.09218759"><ele>374.090088</ele><time>2009-10-19T12:07:46Z</time></trkpt>
<trkpt lat="46.20981390" lon="6.09222078"><ele>374.090088</ele><time>2009-10-19T12:07:47Z</time></trkpt>
<trkpt lat="46.20978372" lon="6.09225816"><ele>374.090088</ele><time>2009-10-19T12:07:48Z</time></trkpt>
<trkpt lat="46.20975078" lon="6.09229328"><ele>373.609497</ele><time>2009-10-19T12:07:49Z</time></trkpt>
<trkpt lat="46.20971876" lon="6.09232287"><ele>373.609497</ele><time>2009-10-19T12:07:50Z</time></trkpt>
<trkpt lat="46.20968532" lon="6.09235573"><ele>373.609497</ele><time>2009-10-19T12:07:51Z</time></trkpt>
<trkpt lat="46.20965623" lon="6.09238959"><ele>373.128906</ele><time>2009-10-19T12:07:52Z</time></trkpt>
<trkpt lat="46.20962262" lon="6.09242722"><ele>373.128906</ele><time>2009-10-19T12:07:53Z</time></trkpt>
<trkpt lat="46.20958884" lon="6.09246855"><ele>372.648193</ele><time>2009-10-19T12:07:54Z</time></trkpt>
<trkpt lat="46.20955255" lon="6.09251004"><ele>372.648193</ele><time>2009-10-19T12:07:55Z</time></trkpt>
<trkpt lat="46.20950804" lon="6.09255153"><ele>373.128906</ele><time>2009-10-19T12:07:56Z</time></trkpt>
<trkpt lat="46.20946789" lon="6.09258715"><ele>373.128906</ele><time>2009-10-19T12:07:57Z</time></trkpt>
<trkpt lat="46.20943294" lon="6.09262043"><ele>372.648193</ele><time>2009-10-19T12:07:58Z</time></trkpt>
<trkpt lat="46.20939849" lon="6.09265513"><ele>372.648193</ele><time>2009-10-19T12:07:59Z</time></trkpt>
<trkpt lat="46.20936999" lon="6.09269234"><ele>372.648193</ele><time>2009-10-19T12:08:00Z</time></trkpt>
<trkpt lat="46.20933680" lon="6.09272897"><ele>372.648193</ele><time>2009-10-19T12:08:01Z</time></trkpt>
<trkpt lat="46.20929807" lon="6.09275982"><ele>372.16748</ele><time>2009-10-19T12:08:02Z</time></trkpt>
<trkpt lat="46.20925843" lon="6.09278974"><ele>372.16748</ele><time>2009-10-19T12:08:03Z</time></trkpt>
<trkpt lat="46.20921778" lon="6.09281522"><ele>372.16748</ele><time>2009-10-19T12:08:04Z</time></trkpt>
<trkpt lat="46.20917578" lon="6.09283324"><ele>371.206299</ele><time>2009-10-19T12:08:05Z</time></trkpt>
<trkpt lat="46.20913605" lon="6.09284422"><ele>371.206299</ele><time>2009-10-19T12:08:06Z</time></trkpt>
<trkpt lat="46.20909867" lon="6.09285420"><ele>370.725586</ele><time>2009-10-19T12:08:07Z</time></trkpt>
<trkpt lat="46.20905902" lon="6.09286602"><ele>370.244873</ele><time>2009-10-19T12:08:08Z</time></trkpt>
<trkpt lat="46.20901326" lon="6.09288479"><ele>370.244873</ele><time>2009-10-19T12:08:09Z</time></trkpt>
<trkpt lat="46.20897286" lon="6.09290206"><ele>369.764282</ele><time>2009-10-19T12:08:10Z</time></trkpt>
<trkpt lat="46.20893547" lon="6.09291933"><ele>369.283691</ele><time>2009-10-19T12:08:11Z</time></trkpt>
<trkpt lat="46.20889465" lon="6.09292997"><ele>368.322266</ele><time>2009-10-19T12:08:12Z</time></trkpt>
<trkpt lat="46.20885610" lon="6.09293383"><ele>368.322266</ele><time>2009-10-19T12:08:13Z</time></trkpt>
<trkpt lat="46.20881653" lon="6.09292368"><ele>368.322266</ele><time>2009-10-19T12:08:14Z</time></trkpt>
<trkpt lat="46.20878007" lon="6.09290030"><ele>368.322266</ele><time>2009-10-19T12:08:15Z</time></trkpt>
<trkpt lat="46.20874437" lon="6.09287515"><ele>368.322266</ele><time>2009-10-19T12:08:16Z</time></trkpt>
<trkpt lat="46.20870925" lon="6.09284774"><ele>367.841553</ele><time>2009-10-19T12:08:17Z</time></trkpt>
<trkpt lat="46.20867454" lon="6.09282712"><ele>367.841553</ele><time>2009-10-19T12:08:18Z</time></trkpt>
<trkpt lat="46.20864655" lon="6.09281237"><ele>368.322266</ele><time>2009-10-19T12:08:19Z</time></trkpt>
<trkpt lat="46.20862585" lon="6.09280189"><ele>368.322266</ele><time>2009-10-19T12:08:20Z</time></trkpt>
<trkpt lat="46.20860866" lon="6.09279586"><ele>368.322266</ele><time>2009-10-19T12:08:21Z</time></trkpt>
<trkpt lat="46.20859324" lon="6.09278806"><ele>368.802979</ele><time>2009-10-19T12:08:22Z</time></trkpt>
<trkpt lat="46.20857798" lon="6.09277004"><ele>369.283691</ele><time>2009-10-19T12:08:23Z</time></trkpt>
<trkpt lat="46.20856214" lon="6.09275445"><ele>369.764282</ele><time>2009-10-19T12:08:24Z</time></trkpt>
<trkpt lat="46.20854622" lon="6.09273668"><ele>371.206299</ele><time>2009-10-19T12:08:25Z</time></trkpt>
<trkpt lat="46.20853054" lon="6.09271464"><ele>372.16748</ele><time>2009-10-19T12:08:26Z</time></trkpt>
<trkpt lat="46.20851537" lon="6.09270148"><ele>373.609497</ele><time>2009-10-19T12:08:27Z</time></trkpt>
<trkpt lat="46.20850347" lon="6.09269125"><ele>375.051514</ele><time>2009-10-19T12:08:28Z</time></trkpt>
<trkpt lat="46.20849073" lon="6.09268363"><ele>376.012817</ele><time>2009-10-19T12:08:29Z</time></trkpt>
<trkpt lat="46.20847807" lon="6.09267784"><ele>377.935425</ele><time>2009-10-19T12:08:30Z</time></trkpt>
<trkpt lat="46.20846273" lon="6.09265974"><ele>379.858032</ele><time>2009-10-19T12:08:31Z</time></trkpt>
<trkpt lat="46.20844748" lon="6.09264222"><ele>380.338745</ele><time>2009-10-19T12:08:32Z</time></trkpt>
<trkpt lat="46.20843189" lon="6.09261967"><ele>380.338745</ele><time>2009-10-19T12:08:33Z</time></trkpt>
<trkpt lat="46.20841655" lon="6.09259629"><ele>380.819458</ele><time>2009-10-19T12:08:34Z</time></trkpt>
<trkpt lat="46.20839610" lon="6.09256946"><ele>381.300049</ele><time>2009-10-19T12:08:35Z</time></trkpt>
<trkpt lat="46.20837783" lon="6.09254004"><ele>382.261353</ele><time>2009-10-19T12:08:36Z</time></trkpt>
<trkpt lat="46.20836274" lon="6.09251205"><ele>382.261353</ele><time>2009-10-19T12:08:37Z</time></trkpt>
<trkpt lat="46.20834899" lon="6.09248632"><ele>381.78064</ele><time>2009-10-19T12:08:38Z</time></trkpt>
<trkpt lat="46.20833323" lon="6.09246779"><ele>381.78064</ele><time>2009-10-19T12:08:39Z</time></trkpt>
<trkpt lat="46.20831957" lon="6.09244877"><ele>381.78064</ele><time>2009-10-19T12:08:40Z</time></trkpt>
<trkpt lat="46.20830658" lon="6.09242949"><ele>381.78064</ele><time>2009-10-19T12:08:41Z</time></trkpt>
<trkpt lat="46.20829786" lon="6.09241155"><ele>382.261353</ele><time>2009-10-19T12:08:42Z</time></trkpt>
<trkpt lat="46.20829317" lon="6.09241054"><ele>384.184082</ele><time>2009-10-19T12:08:43Z</time></trkpt>
<trkpt lat="46.20828403" lon="6.09239562"><ele>386.106689</ele><time>2009-10-19T12:08:44Z</time></trkpt>
<trkpt lat="46.20828328" lon="6.09238724"><ele>388.51001</ele><time>2009-10-19T12:08:45Z</time></trkpt>
<trkpt lat="46.20828403" lon="6.09238163"><ele>388.990601</ele><time>2009-10-19T12:08:46Z</time></trkpt>
<trkpt lat="46.20827909" lon="6.09237148"><ele>389.951904</ele><time>2009-10-19T12:08:47Z</time></trkpt>
<trkpt lat="46.20826676" lon="6.09235782"><ele>390.913208</ele><time>2009-10-19T12:08:48Z</time></trkpt>
<trkpt lat="46.20825369" lon="6.09234743"><ele>390.913208</ele><time>2009-10-19T12:08:49Z</time></trkpt>
<trkpt lat="46.20824137" lon="6.09233745"><ele>390.432617</ele><time>2009-10-19T12:08:50Z</time></trkpt>
<trkpt lat="46.20822066" lon="6.09232480"><ele>390.913208</ele><time>2009-10-19T12:08:51Z</time></trkpt>
<trkpt lat="46.20819694" lon="6.09231298"><ele>391.393799</ele><time>2009-10-19T12:08:52Z</time></trkpt>
<trkpt lat="46.20816275" lon="6.09229722"><ele>391.874512</ele><time>2009-10-19T12:08:53Z</time></trkpt>
<trkpt lat="46.20813022" lon="6.09227953"><ele>391.874512</ele><time>2009-10-19T12:08:54Z</time></trkpt>
<trkpt lat="46.20809720" lon="6.09225992"><ele>392.355347</ele><time>2009-10-19T12:08:55Z</time></trkpt>
<trkpt lat="46.20806803" lon="6.09224073"><ele>393.316528</ele><time>2009-10-19T12:08:56Z</time></trkpt>
<trkpt lat="46.20804037" lon="6.09222086"><ele>393.797241</ele><time>2009-10-19T12:08:57Z</time></trkpt>
<trkpt lat="46.20801405" lon="6.09220066"><ele>394.758545</ele><time>2009-10-19T12:08:58Z</time></trkpt>
<trkpt lat="46.20798832" lon="6.09218105"><ele>395.239136</ele><time>2009-10-19T12:08:59Z</time></trkpt>
<trkpt lat="46.20795848" lon="6.09216194"><ele>395.239136</ele><time>2009-10-19T12:09:00Z</time></trkpt>
<trkpt lat="46.20793115" lon="6.09215037"><ele>395.239136</ele><time>2009-10-19T12:09:01Z</time></trkpt>
<trkpt lat="46.20789830" lon="6.09213394"><ele>397.161743</ele><time>2009-10-19T12:09:02Z</time></trkpt>
<trkpt lat="46.20786385" lon="6.09211273"><ele>397.642456</ele><time>2009-10-19T12:09:03Z</time></trkpt>
<trkpt lat="46.20783283" lon="6.09209094"><ele>398.123169</ele><time>2009-10-19T12:09:04Z</time></trkpt>
<trkpt lat="46.20780006" lon="6.09206747"><ele>397.642456</ele><time>2009-10-19T12:09:05Z</time></trkpt>
<trkpt lat="46.20777098" lon="6.09205632"><ele>398.123169</ele><time>2009-10-19T12:09:06Z</time></trkpt>
<trkpt lat="46.20774466" lon="6.09204409"><ele>396.681152</ele><time>2009-10-19T12:09:07Z</time></trkpt>
<trkpt lat="46.20771574" lon="6.09202774"><ele>396.200562</ele><time>2009-10-19T12:09:08Z</time></trkpt>
<trkpt lat="46.20768758" lon="6.09201358"><ele>395.719849</ele><time>2009-10-19T12:09:09Z</time></trkpt>
<trkpt lat="46.20765748" lon="6.09199572"><ele>395.719849</ele><time>2009-10-19T12:09:10Z</time></trkpt>
<trkpt lat="46.20762672" lon="6.09197527"><ele>394.758545</ele><time>2009-10-19T12:09:11Z</time></trkpt>
<trkpt lat="46.20759663" lon="6.09194627"><ele>394.277954</ele><time>2009-10-19T12:09:12Z</time></trkpt>
<trkpt lat="46.20756495" lon="6.09191157"><ele>394.277954</ele><time>2009-10-19T12:09:13Z</time></trkpt>
<trkpt lat="46.20753268" lon="6.09186849"><ele>394.277954</ele><time>2009-10-19T12:09:14Z</time></trkpt>
<trkpt lat="46.20749856" lon="6.09182649"><ele>394.277954</ele><time>2009-10-19T12:09:15Z</time></trkpt>
<trkpt lat="46.20747107" lon="6.09178106"><ele>393.316528</ele><time>2009-10-19T12:09:16Z</time></trkpt>
<trkpt lat="46.20744249" lon="6.09173748"><ele>392.355347</ele><time>2009-10-19T12:09:17Z</time></trkpt>
<trkpt lat="46.20741365" lon="6.09169699"><ele>391.874512</ele><time>2009-10-19T12:09:18Z</time></trkpt>
<trkpt lat="46.20738222" lon="6.09165626"><ele>390.913208</ele><time>2009-10-19T12:09:19Z</time></trkpt>
<trkpt lat="46.20734962" lon="6.09161309"><ele>389.951904</ele><time>2009-10-19T12:09:20Z</time></trkpt>
<trkpt lat="46.20730695" lon="6.09157277"><ele>388.990601</ele><time>2009-10-19T12:09:21Z</time></trkpt>
<trkpt lat="46.20726462" lon="6.09153329"><ele>387.548584</ele><time>2009-10-19T12:09:22Z</time></trkpt>
<trkpt lat="46.20722230" lon="6.09149038"><ele>387.067993</ele><time>2009-10-19T12:09:23Z</time></trkpt>
<trkpt lat="46.20717737" lon="6.09145073"><ele>386.587402</ele><time>2009-10-19T12:09:24Z</time></trkpt>
<trkpt lat="46.20713345" lon="6.09141704"><ele>386.106689</ele><time>2009-10-19T12:09:25Z</time></trkpt>
<trkpt lat="46.20709087" lon="6.09138167"><ele>384.664795</ele><time>2009-10-19T12:09:26Z</time></trkpt>
<trkpt lat="46.20704946" lon="6.09134110"><ele>384.664795</ele><time>2009-10-19T12:09:27Z</time></trkpt>
<trkpt lat="46.20700378" lon="6.09130648"><ele>383.703247</ele><time>2009-10-19T12:09:28Z</time></trkpt>
<trkpt lat="46.20696237" lon="6.09127538"><ele>384.184082</ele><time>2009-10-19T12:09:29Z</time></trkpt>
<trkpt lat="46.20691879" lon="6.09124236"><ele>383.222656</ele><time>2009-10-19T12:09:30Z</time></trkpt>
<trkpt lat="46.20687294" lon="6.09120782"><ele>382.742065</ele><time>2009-10-19T12:09:31Z</time></trkpt>
<trkpt lat="46.20682868" lon="6.09117078"><ele>382.261353</ele><time>2009-10-19T12:09:32Z</time></trkpt>
<trkpt lat="46.20678627" lon="6.09113499"><ele>382.261353</ele><time>2009-10-19T12:09:33Z</time></trkpt>
<trkpt lat="46.20674226" lon="6.09109878"><ele>382.261353</ele><time>2009-10-19T12:09:34Z</time></trkpt>
<trkpt lat="46.20670077" lon="6.09106642"><ele>381.300049</ele><time>2009-10-19T12:09:35Z</time></trkpt>
<trkpt lat="46.20665610" lon="6.09103348"><ele>380.819458</ele><time>2009-10-19T12:09:36Z</time></trkpt>
<trkpt lat="46.20660958" lon="6.09100062"><ele>380.819458</ele><time>2009-10-19T12:09:37Z</time></trkpt>
<trkpt lat="46.20656624" lon="6.09096425"><ele>380.338745</ele><time>2009-10-19T12:09:38Z</time></trkpt>
<trkpt lat="46.20652174" lon="6.09092745"><ele>380.338745</ele><time>2009-10-19T12:09:39Z</time></trkpt>
<trkpt lat="46.20647220" lon="6.09089652"><ele>380.338745</ele><time>2009-10-19T12:09:40Z</time></trkpt>
<trkpt lat="46.20642082" lon="6.09086459"><ele>380.819458</ele><time>2009-10-19T12:09:41Z</time></trkpt>
<trkpt lat="46.20636826" lon="6.09083374"><ele>381.300049</ele><time>2009-10-19T12:09:42Z</time></trkpt>
<trkpt lat="46.20631303" lon="6.09080457"><ele>382.742065</ele><time>2009-10-19T12:09:43Z</time></trkpt>
<trkpt lat="46.20625905" lon="6.09078060"><ele>383.222656</ele><time>2009-10-19T12:09:44Z</time></trkpt>
<trkpt lat="46.20620767" lon="6.09076316"><ele>383.222656</ele><time>2009-10-19T12:09:45Z</time></trkpt>
<trkpt lat="46.20615696" lon="6.09074162"><ele>382.261353</ele><time>2009-10-19T12:09:46Z</time></trkpt>
<trkpt lat="46.20610633" lon="6.09072142"><ele>382.261353</ele><time>2009-10-19T12:09:47Z</time></trkpt>
<trkpt lat="46.20605562" lon="6.09070055"><ele>381.78064</ele><time>2009-10-19T12:09:48Z</time></trkpt>
<trkpt lat="46.20600373" lon="6.09067909"><ele>381.300049</ele><time>2009-10-19T12:09:49Z</time></trkpt>
<trkpt lat="46.20595738" lon="6.09066250"><ele>380.338745</ele><time>2009-10-19T12:09:50Z</time></trkpt>
<trkpt lat="46.20591145" lon="6.09064355"><ele>380.338745</ele><time>2009-10-19T12:09:51Z</time></trkpt>
<trkpt lat="46.20586233" lon="6.09062319"><ele>380.819458</ele><time>2009-10-19T12:09:52Z</time></trkpt>
<trkpt lat="46.20581212" lon="6.09059695"><ele>380.819458</ele><time>2009-10-19T12:09:53Z</time></trkpt>
<trkpt lat="46.20576359" lon="6.09057055"><ele>381.78064</ele><time>2009-10-19T12:09:54Z</time></trkpt>
<trkpt lat="46.20571582" lon="6.09055244"><ele>382.742065</ele><time>2009-10-19T12:09:55Z</time></trkpt>
<trkpt lat="46.20566477" lon="6.09052730"><ele>383.703247</ele><time>2009-10-19T12:09:56Z</time></trkpt>
<trkpt lat="46.20561054" lon="6.09050634"><ele>384.664795</ele><time>2009-10-19T12:09:57Z</time></trkpt>
<trkpt lat="46.20556385" lon="6.09049260"><ele>385.625977</ele><time>2009-10-19T12:09:58Z</time></trkpt>
<trkpt lat="46.20551633" lon="6.09047919"><ele>386.587402</ele><time>2009-10-19T12:09:59Z</time></trkpt>
<trkpt lat="46.20547174" lon="6.09045957"><ele>387.067993</ele><time>2009-10-19T12:10:00Z</time></trkpt>
<trkpt lat="46.20542932" lon="6.09043015"><ele>387.548584</ele><time>2009-10-19T12:10:01Z</time></trkpt>
<trkpt lat="46.20539169" lon="6.09039268"><ele>387.548584</ele><time>2009-10-19T12:10:02Z</time></trkpt>
<trkpt lat="46.20536218" lon="6.09033912"><ele>388.029297</ele><time>2009-10-19T12:10:03Z</time></trkpt>
<trkpt lat="46.20534659" lon="6.09027928"><ele>387.548584</ele><time>2009-10-19T12:10:04Z</time></trkpt>
<trkpt lat="46.20533997" lon="6.09022119"><ele>388.51001</ele><time>2009-10-19T12:10:05Z</time></trkpt>
<trkpt lat="46.20534039" lon="6.09016160"><ele>389.471191</ele><time>2009-10-19T12:10:06Z</time></trkpt>
<trkpt lat="46.20534198" lon="6.09010066"><ele>389.951904</ele><time>2009-10-19T12:10:07Z</time></trkpt>
<trkpt lat="46.20534358" lon="6.09004282"><ele>390.432617</ele><time>2009-10-19T12:10:08Z</time></trkpt>
<trkpt lat="46.20534634" lon="6.08998583"><ele>390.913208</ele><time>2009-10-19T12:10:09Z</time></trkpt>
<trkpt lat="46.20534936" lon="6.08993034"><ele>390.913208</ele><time>2009-10-19T12:10:10Z</time></trkpt>
<trkpt lat="46.20535129" lon="6.08987619"><ele>390.432617</ele><time>2009-10-19T12:10:11Z</time></trkpt>
<trkpt lat="46.20535162" lon="6.08982087"><ele>390.913208</ele><time>2009-10-19T12:10:12Z</time></trkpt>
<trkpt lat="46.20535556" lon="6.08975935"><ele>389.471191</ele><time>2009-10-19T12:10:13Z</time></trkpt>
<trkpt lat="46.20536135" lon="6.08968995"><ele>388.029297</ele><time>2009-10-19T12:10:14Z</time></trkpt>
<trkpt lat="46.20537107" lon="6.08961568"><ele>386.587402</ele><time>2009-10-19T12:10:15Z</time></trkpt>
<trkpt lat="46.20538339" lon="6.08953983"><ele>385.145386</ele><time>2009-10-19T12:10:16Z</time></trkpt>
<trkpt lat="46.20539529" lon="6.08945928"><ele>383.703247</ele><time>2009-10-19T12:10:17Z</time></trkpt>
<trkpt lat="46.20540636" lon="6.08938904"><ele>380.819458</ele><time>2009-10-19T12:10:18Z</time></trkpt>
<trkpt lat="46.20541499" lon="6.08931578"><ele>378.416138</ele><time>2009-10-19T12:10:19Z</time></trkpt>
<trkpt lat="46.20542237" lon="6.08923648"><ele>376.974243</ele><time>2009-10-19T12:10:20Z</time></trkpt>
<trkpt lat="46.20543125" lon="6.08916809"><ele>374.090088</ele><time>2009-10-19T12:10:21Z</time></trkpt>
<trkpt lat="46.20543678" lon="6.08909198"><ele>373.128906</ele><time>2009-10-19T12:10:22Z</time></trkpt>
<trkpt lat="46.20544089" lon="6.08901219"><ele>372.648193</ele><time>2009-10-19T12:10:23Z</time></trkpt>
<trkpt lat="46.20544584" lon="6.08893524"><ele>372.16748</ele><time>2009-10-19T12:10:24Z</time></trkpt>
<trkpt lat="46.20544869" lon="6.08885888"><ele>372.648193</ele><time>2009-10-19T12:10:25Z</time></trkpt>
<trkpt lat="46.20544810" lon="6.08878185"><ele>373.128906</ele><time>2009-10-19T12:10:26Z</time></trkpt>
<trkpt lat="46.20544248" lon="6.08870876"><ele>374.090088</ele><time>2009-10-19T12:10:27Z</time></trkpt>
<trkpt lat="46.20543033" lon="6.08864933"><ele>374.570801</ele><time>2009-10-19T12:10:28Z</time></trkpt>
<trkpt lat="46.20540803" lon="6.08858890"><ele>376.012817</ele><time>2009-10-19T12:10:29Z</time></trkpt>
<trkpt lat="46.20537920" lon="6.08853718"><ele>377.454834</ele><time>2009-10-19T12:10:30Z</time></trkpt>
<trkpt lat="46.20534299" lon="6.08849645"><ele>378.416138</ele><time>2009-10-19T12:10:31Z</time></trkpt>
<trkpt lat="46.20530468" lon="6.08846954"><ele>379.858032</ele><time>2009-10-19T12:10:32Z</time></trkpt>
<trkpt lat="46.20526143" lon="6.08845906"><ele>380.819458</ele><time>2009-10-19T12:10:33Z</time></trkpt>
<trkpt lat="46.20521575" lon="6.08846619"><ele>381.78064</ele><time>2009-10-19T12:10:34Z</time></trkpt>
<trkpt lat="46.20516588" lon="6.08848614"><ele>383.703247</ele><time>2009-10-19T12:10:35Z</time></trkpt>
<trkpt lat="46.20511944" lon="6.08850642"><ele>384.664795</ele><time>2009-10-19T12:10:36Z</time></trkpt>
<trkpt lat="46.20507125" lon="6.08851757"><ele>385.625977</ele><time>2009-10-19T12:10:37Z</time></trkpt>
<trkpt lat="46.20502238" lon="6.08851908"><ele>386.587402</ele><time>2009-10-19T12:10:38Z</time></trkpt>
<trkpt lat="46.20497234" lon="6.08851698"><ele>387.067993</ele><time>2009-10-19T12:10:39Z</time></trkpt>
<trkpt lat="46.20492255" lon="6.08850977"><ele>387.548584</ele><time>2009-10-19T12:10:40Z</time></trkpt>
<trkpt lat="46.20487603" lon="6.08850173"><ele>388.029297</ele><time>2009-10-19T12:10:41Z</time></trkpt>
<trkpt lat="46.20483018" lon="6.08849636"><ele>388.51001</ele><time>2009-10-19T12:10:42Z</time></trkpt>
<trkpt lat="46.20478224" lon="6.08849175"><ele>388.990601</ele><time>2009-10-19T12:10:43Z</time></trkpt>
<trkpt lat="46.20473404" lon="6.08848966"><ele>389.951904</ele><time>2009-10-19T12:10:44Z</time></trkpt>
<trkpt lat="46.20468585" lon="6.08849159"><ele>390.913208</ele><time>2009-10-19T12:10:45Z</time></trkpt>
<trkpt lat="46.20463816" lon="6.08849469"><ele>391.393799</ele><time>2009-10-19T12:10:46Z</time></trkpt>
<trkpt lat="46.20459088" lon="6.08849703"><ele>391.874512</ele><time>2009-10-19T12:10:47Z</time></trkpt>
<trkpt lat="46.20454369" lon="6.08849754"><ele>392.355347</ele><time>2009-10-19T12:10:48Z</time></trkpt>
<trkpt lat="46.20449767" lon="6.08849796"><ele>392.355347</ele><time>2009-10-19T12:10:49Z</time></trkpt>
<trkpt lat="46.20445275" lon="6.08850089"><ele>392.835938</ele><time>2009-10-19T12:10:50Z</time></trkpt>
<trkpt lat="46.20441042" lon="6.08850575"><ele>392.835938</ele><time>2009-10-19T12:10:51Z</time></trkpt>
<trkpt lat="46.20436843" lon="6.08851195"><ele>392.835938</ele><time>2009-10-19T12:10:52Z</time></trkpt>
<trkpt lat="46.20432660" lon="6.08851799"><ele>393.316528</ele><time>2009-10-19T12:10:53Z</time></trkpt>
<trkpt lat="46.20428469" lon="6.08852369"><ele>393.316528</ele><time>2009-10-19T12:10:54Z</time></trkpt>
<trkpt lat="46.20424270" lon="6.08853048"><ele>393.316528</ele><time>2009-10-19T12:10:55Z</time></trkpt>
<trkpt lat="46.20420045" lon="6.08853903"><ele>393.797241</ele><time>2009-10-19T12:10:56Z</time></trkpt>
<trkpt lat="46.20415888" lon="6.08855026"><ele>393.797241</ele><time>2009-10-19T12:10:57Z</time></trkpt>
<trkpt lat="46.20411789" lon="6.08856157"><ele>393.797241</ele><time>2009-10-19T12:10:58Z</time></trkpt>
<trkpt lat="46.20407749" lon="6.08856996"><ele>394.277954</ele><time>2009-10-19T12:10:59Z</time></trkpt>
<trkpt lat="46.20403809" lon="6.08857566"><ele>394.277954</ele><time>2009-10-19T12:11:00Z</time></trkpt>
<trkpt lat="46.20400029" lon="6.08858085"><ele>394.758545</ele><time>2009-10-19T12:11:01Z</time></trkpt>
<trkpt lat="46.20396283" lon="6.08858915"><ele>394.758545</ele><time>2009-10-19T12:11:02Z</time></trkpt>
<trkpt lat="46.20392502" lon="6.08860055"><ele>395.239136</ele><time>2009-10-19T12:11:03Z</time></trkpt>
<trkpt lat="46.20388647" lon="6.08861245"><ele>395.239136</ele><time>2009-10-19T12:11:04Z</time></trkpt>
<trkpt lat="46.20384665" lon="6.08862394"><ele>395.719849</ele><time>2009-10-19T12:11:05Z</time></trkpt>
<trkpt lat="46.20380675" lon="6.08863433"><ele>395.719849</ele><time>2009-10-19T12:11:06Z</time></trkpt>
<trkpt lat="46.20376803" lon="6.08864397"><ele>395.719849</ele><time>2009-10-19T12:11:07Z</time></trkpt>
<trkpt lat="46.20372897" lon="6.08865554"><ele>396.200562</ele><time>2009-10-19T12:11:08Z</time></trkpt>
<trkpt lat="46.20368966" lon="6.08866693"><ele>396.681152</ele><time>2009-10-19T12:11:09Z</time></trkpt>
<trkpt lat="46.20365144" lon="6.08867557"><ele>396.200562</ele><time>2009-10-19T12:11:10Z</time></trkpt>
<trkpt lat="46.20361565" lon="6.08868437"><ele>396.681152</ele><time>2009-10-19T12:11:11Z</time></trkpt>
<trkpt lat="46.20357675" lon="6.08869325"><ele>396.681152</ele><time>2009-10-19T12:11:12Z</time></trkpt>
<trkpt lat="46.20353577" lon="6.08870340"><ele>397.161743</ele><time>2009-10-19T12:11:13Z</time></trkpt>
<trkpt lat="46.20349595" lon="6.08871412"><ele>397.642456</ele><time>2009-10-19T12:11:14Z</time></trkpt>
<trkpt lat="46.20346050" lon="6.08872393"><ele>398.123169</ele><time>2009-10-19T12:11:15Z</time></trkpt>
<trkpt lat="46.20342496" lon="6.08873273"><ele>398.123169</ele><time>2009-10-19T12:11:16Z</time></trkpt>
<trkpt lat="46.20338783" lon="6.08873919"><ele>398.60376</ele><time>2009-10-19T12:11:17Z</time></trkpt>
<trkpt lat="46.20334893" lon="6.08874363"><ele>399.084351</ele><time>2009-10-19T12:11:18Z</time></trkpt>
<trkpt lat="46.20331247" lon="6.08874463"><ele>399.084351</ele><time>2009-10-19T12:11:19Z</time></trkpt>
<trkpt lat="46.20327752" lon="6.08874413"><ele>399.565063</ele><time>2009-10-19T12:11:20Z</time></trkpt>
<trkpt lat="46.20324357" lon="6.08874329"><ele>400.045898</ele><time>2009-10-19T12:11:21Z</time></trkpt>
<trkpt lat="46.20321365" lon="6.08873877"><ele>400.045898</ele><time>2009-10-19T12:11:22Z</time></trkpt>
<trkpt lat="46.20318306" lon="6.08873483"><ele>400.526489</ele><time>2009-10-19T12:11:23Z</time></trkpt>
<trkpt lat="46.20315054" lon="6.08872988"><ele>400.526489</ele><time>2009-10-19T12:11:24Z</time></trkpt>
<trkpt lat="46.20311516" lon="6.08871924"><ele>400.526489</ele><time>2009-10-19T12:11:25Z</time></trkpt>
<trkpt lat="46.20308004" lon="6.08870599"><ele>401.487793</ele><time>2009-10-19T12:11:26Z</time></trkpt>
<trkpt lat="46.20304232" lon="6.08869552"><ele>401.487793</ele><time>2009-10-19T12:11:27Z</time></trkpt>
<trkpt lat="46.20300578" lon="6.08868286"><ele>401.487793</ele><time>2009-10-19T12:11:28Z</time></trkpt>
<trkpt lat="46.20297234" lon="6.08866853"><ele>402.449097</ele><time>2009-10-19T12:11:29Z</time></trkpt>
<trkpt lat="46.20293546" lon="6.08865377"><ele>402.929688</ele><time>2009-10-19T12:11:30Z</time></trkpt>
<trkpt lat="46.20289933" lon="6.08863927"><ele>402.929688</ele><time>2009-10-19T12:11:31Z</time></trkpt>
<trkpt lat="46.20286295" lon="6.08862402"><ele>403.4104</ele><time>2009-10-19T12:11:32Z</time></trkpt>
<trkpt lat="46.20282699" lon="6.08861052"><ele>403.4104</ele><time>2009-10-19T12:11:33Z</time></trkpt>
<trkpt lat="46.20279162" lon="6.08859519"><ele>403.4104</ele><time>2009-10-19T12:11:34Z</time></trkpt>
<trkpt lat="46.20275516" lon="6.08857767"><ele>402.929688</ele><time>2009-10-19T12:11:35Z</time></trkpt>
<trkpt lat="46.20271870" lon="6.08856023"><ele>402.929688</ele><time>2009-10-19T12:11:36Z</time></trkpt>
<trkpt lat="46.20268073" lon="6.08854372"><ele>402.929688</ele><time>2009-10-19T12:11:37Z</time></trkpt>
<trkpt lat="46.20264360" lon="6.08852872"><ele>402.929688</ele><time>2009-10-19T12:11:38Z</time></trkpt>
<trkpt lat="46.20260437" lon="6.08851279"><ele>402.929688</ele><time>2009-10-19T12:11:39Z</time></trkpt>
<trkpt lat="46.20256908" lon="6.08850022"><ele>402.929688</ele><time>2009-10-19T12:11:40Z</time></trkpt>
<trkpt lat="46.20254008" lon="6.08848723"><ele>403.891113</ele><time>2009-10-19T12:11:41Z</time></trkpt>
<trkpt lat="46.20251033" lon="6.08847373"><ele>403.891113</ele><time>2009-10-19T12:11:42Z</time></trkpt>
<trkpt lat="46.20247755" lon="6.08845646"><ele>403.891113</ele><time>2009-10-19T12:11:43Z</time></trkpt>
<trkpt lat="46.20244604" lon="6.08844247"><ele>403.891113</ele><time>2009-10-19T12:11:44Z</time></trkpt>
<trkpt lat="46.20241418" lon="6.08843015"><ele>404.371704</ele><time>2009-10-19T12:11:45Z</time></trkpt>
<trkpt lat="46.20238259" lon="6.08841397"><ele>404.371704</ele><time>2009-10-19T12:11:46Z</time></trkpt>
<trkpt lat="46.20234973" lon="6.08839754"><ele>404.371704</ele><time>2009-10-19T12:11:47Z</time></trkpt>
<trkpt lat="46.20231763" lon="6.08838254"><ele>404.371704</ele><time>2009-10-19T12:11:48Z</time></trkpt>
<trkpt lat="46.20228158" lon="6.08836577"><ele>404.371704</ele><time>2009-10-19T12:11:49Z</time></trkpt>
<trkpt lat="46.20224705" lon="6.08834725"><ele>404.852295</ele><time>2009-10-19T12:11:50Z</time></trkpt>
<trkpt lat="46.20221235" lon="6.08833074"><ele>405.333008</ele><time>2009-10-19T12:11:51Z</time></trkpt>
<trkpt lat="46.20217538" lon="6.08831883"><ele>405.813721</ele><time>2009-10-19T12:11:52Z</time></trkpt>
<trkpt lat="46.20214135" lon="6.08830534"><ele>405.813721</ele><time>2009-10-19T12:11:53Z</time></trkpt>
<trkpt lat="46.20210975" lon="6.08829042"><ele>405.333008</ele><time>2009-10-19T12:11:54Z</time></trkpt>
<trkpt lat="46.20207807" lon="6.08827919"><ele>405.813721</ele><time>2009-10-19T12:11:55Z</time></trkpt>
<trkpt lat="46.20204655" lon="6.08826645"><ele>405.333008</ele><time>2009-10-19T12:11:56Z</time></trkpt>
<trkpt lat="46.20201579" lon="6.08825052"><ele>405.813721</ele><time>2009-10-19T12:11:57Z</time></trkpt>
<trkpt lat="46.20198377" lon="6.08823862"><ele>405.333008</ele><time>2009-10-19T12:11:58Z</time></trkpt>
<trkpt lat="46.20195016" lon="6.08822873"><ele>405.813721</ele><time>2009-10-19T12:11:59Z</time></trkpt>
<trkpt lat="46.20191756" lon="6.08821398"><ele>405.813721</ele><time>2009-10-19T12:12:00Z</time></trkpt>
<trkpt lat="46.20188378" lon="6.08820040"><ele>405.813721</ele><time>2009-10-19T12:12:01Z</time></trkpt>
<trkpt lat="46.20184924" lon="6.08819294"><ele>405.813721</ele><time>2009-10-19T12:12:02Z</time></trkpt>
<trkpt lat="46.20181463" lon="6.08818313"><ele>405.333008</ele><time>2009-10-19T12:12:03Z</time></trkpt>
<trkpt lat="46.20177926" lon="6.08817207"><ele>404.852295</ele><time>2009-10-19T12:12:04Z</time></trkpt>
<trkpt lat="46.20174464" lon="6.08816226"><ele>404.371704</ele><time>2009-10-19T12:12:05Z</time></trkpt>
<trkpt lat="46.20170860" lon="6.08815396"><ele>403.891113</ele><time>2009-10-19T12:12:06Z</time></trkpt>
<trkpt lat="46.20167297" lon="6.08814550"><ele>403.891113</ele><time>2009-10-19T12:12:07Z</time></trkpt>
<trkpt lat="46.20163735" lon="6.08813569"><ele>403.4104</ele><time>2009-10-19T12:12:08Z</time></trkpt>
<trkpt lat="46.20160072" lon="6.08812806"><ele>403.891113</ele><time>2009-10-19T12:12:09Z</time></trkpt>
<trkpt lat="46.20156392" lon="6.08811608"><ele>404.371704</ele><time>2009-10-19T12:12:10Z</time></trkpt>
<trkpt lat="46.20152755" lon="6.08810266"><ele>404.852295</ele><time>2009-10-19T12:12:11Z</time></trkpt>
<trkpt lat="46.20149083" lon="6.08809127"><ele>404.852295</ele><time>2009-10-19T12:12:12Z</time></trkpt>
<trkpt lat="46.20145429" lon="6.08807945"><ele>405.813721</ele><time>2009-10-19T12:12:13Z</time></trkpt>
<trkpt lat="46.20141749" lon="6.08806746"><ele>406.774902</ele><time>2009-10-19T12:12:14Z</time></trkpt>
<trkpt lat="46.20137977" lon="6.08805296"><ele>407.736328</ele><time>2009-10-19T12:12:15Z</time></trkpt>
<trkpt lat="46.20134633" lon="6.08804123"><ele>407.736328</ele><time>2009-10-19T12:12:16Z</time></trkpt>
<trkpt lat="46.20131523" lon="6.08803486"><ele>408.217041</ele><time>2009-10-19T12:12:17Z</time></trkpt>
<trkpt lat="46.20128036" lon="6.08802170"><ele>408.217041</ele><time>2009-10-19T12:12:18Z</time></trkpt>
<trkpt lat="46.20124742" lon="6.08800736"><ele>407.736328</ele><time>2009-10-19T12:12:19Z</time></trkpt>
<trkpt lat="46.20121482" lon="6.08799747"><ele>408.697632</ele><time>2009-10-19T12:12:20Z</time></trkpt>
<trkpt lat="46.20118406" lon="6.08798775"><ele>408.697632</ele><time>2009-10-19T12:12:21Z</time></trkpt>
<trkpt lat="46.20114827" lon="6.08797484"><ele>408.217041</ele><time>2009-10-19T12:12:22Z</time></trkpt>
<trkpt lat="46.20111214" lon="6.08796034"><ele>408.217041</ele><time>2009-10-19T12:12:23Z</time></trkpt>
<trkpt lat="46.20107719" lon="6.08794902"><ele>408.217041</ele><time>2009-10-19T12:12:24Z</time></trkpt>
<trkpt lat="46.20104534" lon="6.08793578"><ele>408.217041</ele><time>2009-10-19T12:12:25Z</time></trkpt>
<trkpt lat="46.20101315" lon="6.08792388"><ele>407.736328</ele><time>2009-10-19T12:12:26Z</time></trkpt>
<trkpt lat="46.20097945" lon="6.08791265"><ele>407.255615</ele><time>2009-10-19T12:12:27Z</time></trkpt>
<trkpt lat="46.20094283" lon="6.08790284"><ele>407.736328</ele><time>2009-10-19T12:12:28Z</time></trkpt>
<trkpt lat="46.20091005" lon="6.08789655"><ele>408.217041</ele><time>2009-10-19T12:12:29Z</time></trkpt>
<trkpt lat="46.20087929" lon="6.08788884"><ele>408.217041</ele><time>2009-10-19T12:12:30Z</time></trkpt>
<trkpt lat="46.20084685" lon="6.08787945"><ele>408.217041</ele><time>2009-10-19T12:12:31Z</time></trkpt>
<trkpt lat="46.20081483" lon="6.08786822"><ele>408.217041</ele><time>2009-10-19T12:12:32Z</time></trkpt>
<trkpt lat="46.20078114" lon="6.08785439"><ele>407.736328</ele><time>2009-10-19T12:12:33Z</time></trkpt>
<trkpt lat="46.20075029" lon="6.08784324"><ele>407.736328</ele><time>2009-10-19T12:12:34Z</time></trkpt>
<trkpt lat="46.20072045" lon="6.08782983"><ele>407.736328</ele><time>2009-10-19T12:12:35Z</time></trkpt>
<trkpt lat="46.20068936" lon="6.08780963"><ele>408.217041</ele><time>2009-10-19T12:12:36Z</time></trkpt>
<trkpt lat="46.20065759" lon="6.08778507"><ele>408.217041</ele><time>2009-10-19T12:12:37Z</time></trkpt>
<trkpt lat="46.20062515" lon="6.08775440"><ele>408.217041</ele><time>2009-10-19T12:12:38Z</time></trkpt>
<trkpt lat="46.20059296" lon="6.08772037"><ele>408.697632</ele><time>2009-10-19T12:12:39Z</time></trkpt>
<trkpt lat="46.20056044" lon="6.08768156"><ele>409.659058</ele><time>2009-10-19T12:12:40Z</time></trkpt>
<trkpt lat="46.20053119" lon="6.08764099"><ele>409.659058</ele><time>2009-10-19T12:12:41Z</time></trkpt>
<trkpt lat="46.20050529" lon="6.08759522"><ele>410.139648</ele><time>2009-10-19T12:12:42Z</time></trkpt>
<trkpt lat="46.20048484" lon="6.08755055"><ele>410.139648</ele><time>2009-10-19T12:12:43Z</time></trkpt>
<trkpt lat="46.20046036" lon="6.08750168"><ele>411.100952</ele><time>2009-10-19T12:12:44Z</time></trkpt>
<trkpt lat="46.20042868" lon="6.08745994"><ele>411.100952</ele><time>2009-10-19T12:12:45Z</time></trkpt>
<trkpt lat="46.20039096" lon="6.08742583"><ele>411.581665</ele><time>2009-10-19T12:12:46Z</time></trkpt>
<trkpt lat="46.20034989" lon="6.08739817"><ele>412.542847</ele><time>2009-10-19T12:12:47Z</time></trkpt>
<trkpt lat="46.20031016" lon="6.08738274"><ele>414.465454</ele><time>2009-10-19T12:12:48Z</time></trkpt>
<trkpt lat="46.20026523" lon="6.08737654"><ele>415.42688</ele><time>2009-10-19T12:12:49Z</time></trkpt>
<trkpt lat="46.20021620" lon="6.08737780"><ele>415.907471</ele><time>2009-10-19T12:12:50Z</time></trkpt>
<trkpt lat="46.20016524" lon="6.08738475"><ele>416.388184</ele><time>2009-10-19T12:12:51Z</time></trkpt>
<trkpt lat="46.20011377" lon="6.08739666"><ele>416.868896</ele><time>2009-10-19T12:12:52Z</time></trkpt>
<trkpt lat="46.20006214" lon="6.08741485"><ele>417.8302</ele><time>2009-10-19T12:12:53Z</time></trkpt>
<trkpt lat="46.20001093" lon="6.08743865"><ele>417.8302</ele><time>2009-10-19T12:12:54Z</time></trkpt>
<trkpt lat="46.19996047" lon="6.08746363"><ele>417.8302</ele><time>2009-10-19T12:12:55Z</time></trkpt>
<trkpt lat="46.19990439" lon="6.08747813"><ele>418.791504</ele><time>2009-10-19T12:12:56Z</time></trkpt>
<trkpt lat="46.19985066" lon="6.08749364"><ele>418.310791</ele><time>2009-10-19T12:12:57Z</time></trkpt>
<trkpt lat="46.19979652" lon="6.08750730"><ele>418.791504</ele><time>2009-10-19T12:12:58Z</time></trkpt>
<trkpt lat="46.19974044" lon="6.08752373"><ele>419.272217</ele><time>2009-10-19T12:12:59Z</time></trkpt>
<trkpt lat="46.19968504" lon="6.08754016"><ele>419.752808</ele><time>2009-10-19T12:13:00Z</time></trkpt>
<trkpt lat="46.19963148" lon="6.08755508"><ele>419.752808</ele><time>2009-10-19T12:13:01Z</time></trkpt>
<trkpt lat="46.19957943" lon="6.08756907"><ele>420.233398</ele><time>2009-10-19T12:13:02Z</time></trkpt>
<trkpt lat="46.19952804" lon="6.08758232"><ele>420.714111</ele><time>2009-10-19T12:13:03Z</time></trkpt>
<trkpt lat="46.19947935" lon="6.08759363"><ele>420.714111</ele><time>2009-10-19T12:13:04Z</time></trkpt>
<trkpt lat="46.19943224" lon="6.08760746"><ele>420.714111</ele><time>2009-10-19T12:13:05Z</time></trkpt>
<trkpt lat="46.19938522" lon="6.08761970"><ele>421.194824</ele><time>2009-10-19T12:13:06Z</time></trkpt>
<trkpt lat="46.19933736" lon="6.08762582"><ele>421.194824</ele><time>2009-10-19T12:13:07Z</time></trkpt>
<trkpt lat="46.19928874" lon="6.08762993"><ele>421.194824</ele><time>2009-10-19T12:13:08Z</time></trkpt>
<trkpt lat="46.19923887" lon="6.08763588"><ele>421.194824</ele><time>2009-10-19T12:13:09Z</time></trkpt>
<trkpt lat="46.19918849" lon="6.08764359"><ele>421.194824</ele><time>2009-10-19T12:13:10Z</time></trkpt>
<trkpt lat="46.19913745" lon="6.08765147"><ele>421.194824</ele><time>2009-10-19T12:13:11Z</time></trkpt>
<trkpt lat="46.19908649" lon="6.08765423"><ele>421.194824</ele><time>2009-10-19T12:13:12Z</time></trkpt>
<trkpt lat="46.19903653" lon="6.08765624"><ele>421.194824</ele><time>2009-10-19T12:13:13Z</time></trkpt>
<trkpt lat="46.19898842" lon="6.08765130"><ele>420.714111</ele><time>2009-10-19T12:13:14Z</time></trkpt>
<trkpt lat="46.19894257" lon="6.08763638"><ele>420.233398</ele><time>2009-10-19T12:13:15Z</time></trkpt>
<trkpt lat="46.19890468" lon="6.08761174"><ele>419.752808</ele><time>2009-10-19T12:13:16Z</time></trkpt>
<trkpt lat="46.19887250" lon="6.08759212"><ele>419.752808</ele><time>2009-10-19T12:13:17Z</time></trkpt>
<trkpt lat="46.19883754" lon="6.08758232"><ele>419.752808</ele><time>2009-10-19T12:13:18Z</time></trkpt>
<trkpt lat="46.19880569" lon="6.08757435"><ele>419.752808</ele><time>2009-10-19T12:13:19Z</time></trkpt>
<trkpt lat="46.19877879" lon="6.08756698"><ele>418.791504</ele><time>2009-10-19T12:13:20Z</time></trkpt>
<trkpt lat="46.19875657" lon="6.08756036"><ele>418.791504</ele><time>2009-10-19T12:13:21Z</time></trkpt>
<trkpt lat="46.19873294" lon="6.08755072"><ele>418.310791</ele><time>2009-10-19T12:13:22Z</time></trkpt>
<trkpt lat="46.19870846" lon="6.08753898"><ele>418.310791</ele><time>2009-10-19T12:13:23Z</time></trkpt>
<trkpt lat="46.19868927" lon="6.08753035"><ele>417.8302</ele><time>2009-10-19T12:13:24Z</time></trkpt>
<trkpt lat="46.19867125" lon="6.08751702"><ele>417.349609</ele><time>2009-10-19T12:13:25Z</time></trkpt>
<trkpt lat="46.19865976" lon="6.08749833"><ele>416.868896</ele><time>2009-10-19T12:13:26Z</time></trkpt>
<trkpt lat="46.19866186" lon="6.08747117"><ele>416.868896</ele><time>2009-10-19T12:13:27Z</time></trkpt>
<trkpt lat="46.19867493" lon="6.08744888"><ele>416.868896</ele><time>2009-10-19T12:13:28Z</time></trkpt>
<trkpt lat="46.19869354" lon="6.08743354"><ele>417.349609</ele><time>2009-10-19T12:13:29Z</time></trkpt>
<trkpt lat="46.19871248" lon="6.08741887"><ele>417.8302</ele><time>2009-10-19T12:13:30Z</time></trkpt>
<trkpt lat="46.19872539" lon="6.08739817"><ele>417.349609</ele><time>2009-10-19T12:13:31Z</time></trkpt>
<trkpt lat="46.19873503" lon="6.08736774"><ele>418.310791</ele><time>2009-10-19T12:13:32Z</time></trkpt>
<trkpt lat="46.19874123" lon="6.08732256"><ele>418.791504</ele><time>2009-10-19T12:13:33Z</time></trkpt>
<trkpt lat="46.19874853" lon="6.08725727"><ele>418.310791</ele><time>2009-10-19T12:13:34Z</time></trkpt>
<trkpt lat="46.19875523" lon="6.08718577"><ele>417.8302</ele><time>2009-10-19T12:13:35Z</time></trkpt>
<trkpt lat="46.19875968" lon="6.08711343"><ele>416.868896</ele><time>2009-10-19T12:13:36Z</time></trkpt>
<trkpt lat="46.19875775" lon="6.08704596"><ele>416.868896</ele><time>2009-10-19T12:13:37Z</time></trkpt>
<trkpt lat="46.19875942" lon="6.08697262"><ele>415.907471</ele><time>2009-10-19T12:13:38Z</time></trkpt>
<trkpt lat="46.19876185" lon="6.08690036"><ele>414.465454</ele><time>2009-10-19T12:13:39Z</time></trkpt>
<trkpt lat="46.19876320" lon="6.08682459"><ele>413.02356</ele><time>2009-10-19T12:13:40Z</time></trkpt>
<trkpt lat="46.19875959" lon="6.08674999"><ele>411.100952</ele><time>2009-10-19T12:13:41Z</time></trkpt>
<trkpt lat="46.19874903" lon="6.08667766"><ele>409.659058</ele><time>2009-10-19T12:13:42Z</time></trkpt>
<trkpt lat="46.19873176" lon="6.08660842"><ele>408.697632</ele><time>2009-10-19T12:13:43Z</time></trkpt>
<trkpt lat="46.19870544" lon="6.08654858"><ele>408.217041</ele><time>2009-10-19T12:13:44Z</time></trkpt>
<trkpt lat="46.19867225" lon="6.08649669"><ele>408.217041</ele><time>2009-10-19T12:13:45Z</time></trkpt>
<trkpt lat="46.19863495" lon="6.08645587"><ele>408.697632</ele><time>2009-10-19T12:13:46Z</time></trkpt>
<trkpt lat="46.19859723" lon="6.08642519"><ele>409.178345</ele><time>2009-10-19T12:13:47Z</time></trkpt>
<trkpt lat="46.19856086" lon="6.08639653"><ele>408.697632</ele><time>2009-10-19T12:13:48Z</time></trkpt>
<trkpt lat="46.19852196" lon="6.08636845"><ele>408.697632</ele><time>2009-10-19T12:13:49Z</time></trkpt>
<trkpt lat="46.19848022" lon="6.08633987"><ele>408.697632</ele><time>2009-10-19T12:13:50Z</time></trkpt>
<trkpt lat="46.19843672" lon="6.08631154"><ele>408.217041</ele><time>2009-10-19T12:13:51Z</time></trkpt>
<trkpt lat="46.19839129" lon="6.08628396"><ele>408.217041</ele><time>2009-10-19T12:13:52Z</time></trkpt>
<trkpt lat="46.19834485" lon="6.08625353"><ele>407.736328</ele><time>2009-10-19T12:13:53Z</time></trkpt>
<trkpt lat="46.19829708" lon="6.08622512"><ele>408.217041</ele><time>2009-10-19T12:13:54Z</time></trkpt>
<trkpt lat="46.19825047" lon="6.08619528"><ele>407.736328</ele><time>2009-10-19T12:13:55Z</time></trkpt>
<trkpt lat="46.19820488" lon="6.08616435"><ele>407.736328</ele><time>2009-10-19T12:13:56Z</time></trkpt>
<trkpt lat="46.19816154" lon="6.08613384"><ele>407.736328</ele><time>2009-10-19T12:13:57Z</time></trkpt>
<trkpt lat="46.19811687" lon="6.08610660"><ele>408.217041</ele><time>2009-10-19T12:13:58Z</time></trkpt>
<trkpt lat="46.19807202" lon="6.08607869"><ele>407.736328</ele><time>2009-10-19T12:13:59Z</time></trkpt>
<trkpt lat="46.19802852" lon="6.08604885"><ele>407.255615</ele><time>2009-10-19T12:14:00Z</time></trkpt>
<trkpt lat="46.19798644" lon="6.08602010"><ele>406.774902</ele><time>2009-10-19T12:14:01Z</time></trkpt>
<trkpt lat="46.19794420" lon="6.08599110"><ele>406.774902</ele><time>2009-10-19T12:14:02Z</time></trkpt>
<trkpt lat="46.19790263" lon="6.08596126"><ele>406.774902</ele><time>2009-10-19T12:14:03Z</time></trkpt>
<trkpt lat="46.19786608" lon="6.08593695"><ele>406.774902</ele><time>2009-10-19T12:14:04Z</time></trkpt>
<trkpt lat="46.19782895" lon="6.08591323"><ele>406.294312</ele><time>2009-10-19T12:14:05Z</time></trkpt>
<trkpt lat="46.19779207" lon="6.08589244"><ele>405.813721</ele><time>2009-10-19T12:14:06Z</time></trkpt>
<trkpt lat="46.19775536" lon="6.08586998"><ele>405.333008</ele><time>2009-10-19T12:14:07Z</time></trkpt>
<trkpt lat="46.19771889" lon="6.08584458"><ele>404.852295</ele><time>2009-10-19T12:14:08Z</time></trkpt>
<trkpt lat="46.19767925" lon="6.08581876"><ele>405.333008</ele><time>2009-10-19T12:14:09Z</time></trkpt>
<trkpt lat="46.19763977" lon="6.08579529"><ele>405.333008</ele><time>2009-10-19T12:14:10Z</time></trkpt>
<trkpt lat="46.19760104" lon="6.08577115"><ele>405.333008</ele><time>2009-10-19T12:14:11Z</time></trkpt>
<trkpt lat="46.19756257" lon="6.08574634"><ele>405.333008</ele><time>2009-10-19T12:14:12Z</time></trkpt>
<trkpt lat="46.19752418" lon="6.08572187"><ele>405.333008</ele><time>2009-10-19T12:14:13Z</time></trkpt>
<trkpt lat="46.19748479" lon="6.08569480"><ele>405.333008</ele><time>2009-10-19T12:14:14Z</time></trkpt>
<trkpt lat="46.19744715" lon="6.08566915"><ele>405.333008</ele><time>2009-10-19T12:14:15Z</time></trkpt>
<trkpt lat="46.19740935" lon="6.08564199"><ele>405.333008</ele><time>2009-10-19T12:14:16Z</time></trkpt>
<trkpt lat="46.19737289" lon="6.08562263"><ele>405.333008</ele><time>2009-10-19T12:14:17Z</time></trkpt>
<trkpt lat="46.19733542" lon="6.08560293"><ele>405.333008</ele><time>2009-10-19T12:14:18Z</time></trkpt>
<trkpt lat="46.19729712" lon="6.08557804"><ele>405.333008</ele><time>2009-10-19T12:14:19Z</time></trkpt>
<trkpt lat="46.19726334" lon="6.08555482"><ele>405.333008</ele><time>2009-10-19T12:14:20Z</time></trkpt>
<trkpt lat="46.19722595" lon="6.08553437"><ele>406.774902</ele><time>2009-10-19T12:14:21Z</time></trkpt>
<trkpt lat="46.19718849" lon="6.08552506"><ele>407.736328</ele><time>2009-10-19T12:14:22Z</time></trkpt>
<trkpt lat="46.19715479" lon="6.08552255"><ele>408.697632</ele><time>2009-10-19T12:14:23Z</time></trkpt>
<trkpt lat="46.19712445" lon="6.08552364"><ele>408.697632</ele><time>2009-10-19T12:14:24Z</time></trkpt>
<trkpt lat="46.19709520" lon="6.08552003"><ele>408.217041</ele><time>2009-10-19T12:14:25Z</time></trkpt>
<trkpt lat="46.19706603" lon="6.08550419"><ele>408.217041</ele><time>2009-10-19T12:14:26Z</time></trkpt>
<trkpt lat="46.19704390" lon="6.08548307"><ele>408.217041</ele><time>2009-10-19T12:14:27Z</time></trkpt>
<trkpt lat="46.19702672" lon="6.08545197"><ele>408.697632</ele><time>2009-10-19T12:14:28Z</time></trkpt>
<trkpt lat="46.19700434" lon="6.08541274"><ele>408.697632</ele><time>2009-10-19T12:14:29Z</time></trkpt>
<trkpt lat="46.19698045" lon="6.08536874"><ele>409.178345</ele><time>2009-10-19T12:14:30Z</time></trkpt>
<trkpt lat="46.19695740" lon="6.08532700"><ele>409.178345</ele><time>2009-10-19T12:14:31Z</time></trkpt>
<trkpt lat="46.19692982" lon="6.08527738"><ele>409.178345</ele><time>2009-10-19T12:14:32Z</time></trkpt>
<trkpt lat="46.19690057" lon="6.08522734"><ele>410.139648</ele><time>2009-10-19T12:14:33Z</time></trkpt>
<trkpt lat="46.19687157" lon="6.08517545"><ele>410.620239</ele><time>2009-10-19T12:14:34Z</time></trkpt>
<trkpt lat="46.19684198" lon="6.08512499"><ele>411.100952</ele><time>2009-10-19T12:14:35Z</time></trkpt>
<trkpt lat="46.19681172" lon="6.08507537"><ele>411.581665</ele><time>2009-10-19T12:14:36Z</time></trkpt>
<trkpt lat="46.19677987" lon="6.08502818"><ele>412.542847</ele><time>2009-10-19T12:14:37Z</time></trkpt>
<trkpt lat="46.19674718" lon="6.08499046"><ele>413.02356</ele><time>2009-10-19T12:14:38Z</time></trkpt>
<trkpt lat="46.19671072" lon="6.08495585"><ele>413.504272</ele><time>2009-10-19T12:14:39Z</time></trkpt>
<trkpt lat="46.19667250" lon="6.08492668"><ele>413.504272</ele><time>2009-10-19T12:14:40Z</time></trkpt>
<trkpt lat="46.19663327" lon="6.08490019"><ele>413.02356</ele><time>2009-10-19T12:14:41Z</time></trkpt>
<trkpt lat="46.19659237" lon="6.08487605"><ele>413.02356</ele><time>2009-10-19T12:14:42Z</time></trkpt>
<trkpt lat="46.19655096" lon="6.08485283"><ele>413.504272</ele><time>2009-10-19T12:14:43Z</time></trkpt>
<trkpt lat="46.19650939" lon="6.08483029"><ele>413.504272</ele><time>2009-10-19T12:14:44Z</time></trkpt>
<trkpt lat="46.19646748" lon="6.08480925"><ele>413.504272</ele><time>2009-10-19T12:14:45Z</time></trkpt>
<trkpt lat="46.19642515" lon="6.08478695"><ele>413.504272</ele><time>2009-10-19T12:14:46Z</time></trkpt>
<trkpt lat="46.19638332" lon="6.08476399"><ele>413.504272</ele><time>2009-10-19T12:14:47Z</time></trkpt>
<trkpt lat="46.19634175" lon="6.08474219"><ele>413.984863</ele><time>2009-10-19T12:14:48Z</time></trkpt>
<trkpt lat="46.19630026" lon="6.08472082"><ele>413.984863</ele><time>2009-10-19T12:14:49Z</time></trkpt>
<trkpt lat="46.19625944" lon="6.08469944"><ele>414.465454</ele><time>2009-10-19T12:14:50Z</time></trkpt>
<trkpt lat="46.19621954" lon="6.08467866"><ele>414.465454</ele><time>2009-10-19T12:14:51Z</time></trkpt>
<trkpt lat="46.19617889" lon="6.08465812"><ele>414.465454</ele><time>2009-10-19T12:14:52Z</time></trkpt>
<trkpt lat="46.19614117" lon="6.08464077"><ele>414.946167</ele><time>2009-10-19T12:14:53Z</time></trkpt>
<trkpt lat="46.19609457" lon="6.08462065"><ele>414.946167</ele><time>2009-10-19T12:14:54Z</time></trkpt>
<trkpt lat="46.19604696" lon="6.08460238"><ele>414.946167</ele><time>2009-10-19T12:14:55Z</time></trkpt>
<trkpt lat="46.19599935" lon="6.08458746"><ele>414.946167</ele><time>2009-10-19T12:14:56Z</time></trkpt>
<trkpt lat="46.19595149" lon="6.08457556"><ele>414.946167</ele><time>2009-10-19T12:14:57Z</time></trkpt>
<trkpt lat="46.19590379" lon="6.08456592"><ele>414.946167</ele><time>2009-10-19T12:14:58Z</time></trkpt>
<trkpt lat="46.19585652" lon="6.08456106"><ele>414.946167</ele><time>2009-10-19T12:14:59Z</time></trkpt>
<trkpt lat="46.19581008" lon="6.08456592"><ele>415.42688</ele><time>2009-10-19T12:15:00Z</time></trkpt>
<trkpt lat="46.19576398" lon="6.08457657"><ele>415.42688</ele><time>2009-10-19T12:15:01Z</time></trkpt>
<trkpt lat="46.19571922" lon="6.08458067"><ele>415.42688</ele><time>2009-10-19T12:15:02Z</time></trkpt>
<trkpt lat="46.19567438" lon="6.08458034"><ele>414.946167</ele><time>2009-10-19T12:15:03Z</time></trkpt>
<trkpt lat="46.19563054" lon="6.08457623"><ele>414.946167</ele><time>2009-10-19T12:15:04Z</time></trkpt>
<trkpt lat="46.19558947" lon="6.08457598"><ele>414.946167</ele><time>2009-10-19T12:15:05Z</time></trkpt>
<trkpt lat="46.19554446" lon="6.08457673"><ele>415.42688</ele><time>2009-10-19T12:15:06Z</time></trkpt>
<trkpt lat="46.19549920" lon="6.08457606"><ele>414.946167</ele><time>2009-10-19T12:15:07Z</time></trkpt>
<trkpt lat="46.19545477" lon="6.08456986"><ele>414.946167</ele><time>2009-10-19T12:15:08Z</time></trkpt>
<trkpt lat="46.19541747" lon="6.08456106"><ele>414.465454</ele><time>2009-10-19T12:15:09Z</time></trkpt>
<trkpt lat="46.19538370" lon="6.08455486"><ele>414.465454</ele><time>2009-10-19T12:15:10Z</time></trkpt>
<trkpt lat="46.19535117" lon="6.08454882"><ele>414.465454</ele><time>2009-10-19T12:15:11Z</time></trkpt>
<trkpt lat="46.19532536" lon="6.08454346"><ele>414.465454</ele><time>2009-10-19T12:15:12Z</time></trkpt>
<trkpt lat="46.19530189" lon="6.08453524"><ele>414.465454</ele><time>2009-10-19T12:15:13Z</time></trkpt>
<trkpt lat="46.19527708" lon="6.08451714"><ele>414.465454</ele><time>2009-10-19T12:15:14Z</time></trkpt>
<trkpt lat="46.19524472" lon="6.08450498"><ele>414.465454</ele><time>2009-10-19T12:15:15Z</time></trkpt>
<trkpt lat="46.19521027" lon="6.08449618"><ele>414.946167</ele><time>2009-10-19T12:15:16Z</time></trkpt>
<trkpt lat="46.19518077" lon="6.08448705"><ele>414.465454</ele><time>2009-10-19T12:15:17Z</time></trkpt>
<trkpt lat="46.19515546" lon="6.08448034"><ele>413.504272</ele><time>2009-10-19T12:15:18Z</time></trkpt>
<trkpt lat="46.19512428" lon="6.08446768"><ele>413.504272</ele><time>2009-10-19T12:15:19Z</time></trkpt>
<trkpt lat="46.19508949" lon="6.08444966"><ele>413.984863</ele><time>2009-10-19T12:15:20Z</time></trkpt>
<trkpt lat="46.19504783" lon="6.08443634"><ele>414.946167</ele><time>2009-10-19T12:15:21Z</time></trkpt>
<trkpt lat="46.19500668" lon="6.08442829"><ele>415.42688</ele><time>2009-10-19T12:15:22Z</time></trkpt>
<trkpt lat="46.19496594" lon="6.08442502"><ele>415.907471</ele><time>2009-10-19T12:15:23Z</time></trkpt>
<trkpt lat="46.19493023" lon="6.08441899"><ele>415.907471</ele><time>2009-10-19T12:15:24Z</time></trkpt>
<trkpt lat="46.19489989" lon="6.08440557"><ele>415.907471</ele><time>2009-10-19T12:15:25Z</time></trkpt>
<trkpt lat="46.19487986" lon="6.08438537"><ele>415.42688</ele><time>2009-10-19T12:15:26Z</time></trkpt>
<trkpt lat="46.19487776" lon="6.08436199"><ele>416.388184</ele><time>2009-10-19T12:15:27Z</time></trkpt>
<trkpt lat="46.19489796" lon="6.08433274"><ele>417.8302</ele><time>2009-10-19T12:15:28Z</time></trkpt>
<trkpt lat="46.19492940" lon="6.08430508"><ele>418.310791</ele><time>2009-10-19T12:15:29Z</time></trkpt>
<trkpt lat="46.19496477" lon="6.08427063"><ele>419.272217</ele><time>2009-10-19T12:15:30Z</time></trkpt>
<trkpt lat="46.19500115" lon="6.08422964"><ele>419.272217</ele><time>2009-10-19T12:15:31Z</time></trkpt>
<trkpt lat="46.19503979" lon="6.08418287"><ele>419.752808</ele><time>2009-10-19T12:15:32Z</time></trkpt>
<trkpt lat="46.19507968" lon="6.08413098"><ele>420.233398</ele><time>2009-10-19T12:15:33Z</time></trkpt>
<trkpt lat="46.19512159" lon="6.08407784"><ele>420.714111</ele><time>2009-10-19T12:15:34Z</time></trkpt>
<trkpt lat="46.19516577" lon="6.08402479"><ele>421.194824</ele><time>2009-10-19T12:15:35Z</time></trkpt>
<trkpt lat="46.19521178" lon="6.08397164"><ele>421.675415</ele><time>2009-10-19T12:15:36Z</time></trkpt>
<trkpt lat="46.19525822" lon="6.08391716"><ele>422.156006</ele><time>2009-10-19T12:15:37Z</time></trkpt>
<trkpt lat="46.19530566" lon="6.08386075"><ele>422.156006</ele><time>2009-10-19T12:15:38Z</time></trkpt>
<trkpt lat="46.19535587" lon="6.08380174"><ele>422.156006</ele><time>2009-10-19T12:15:39Z</time></trkpt>
<trkpt lat="46.19540524" lon="6.08374433"><ele>422.636719</ele><time>2009-10-19T12:15:40Z</time></trkpt>
<trkpt lat="46.19545327" lon="6.08368758"><ele>423.117432</ele><time>2009-10-19T12:15:41Z</time></trkpt>
<trkpt lat="46.19550037" lon="6.08362983"><ele>423.117432</ele><time>2009-10-19T12:15:42Z</time></trkpt>
<trkpt lat="46.19554949" lon="6.08357325"><ele>423.598022</ele><time>2009-10-19T12:15:43Z</time></trkpt>
<trkpt lat="46.19559366" lon="6.08351718"><ele>424.559448</ele><time>2009-10-19T12:15:44Z</time></trkpt>
<trkpt lat="46.19564136" lon="6.08346445"><ele>425.040161</ele><time>2009-10-19T12:15:45Z</time></trkpt>
<trkpt lat="46.19568972" lon="6.08341006"><ele>425.520752</ele><time>2009-10-19T12:15:46Z</time></trkpt>
<trkpt lat="46.19573364" lon="6.08335725"><ele>425.520752</ele><time>2009-10-19T12:15:47Z</time></trkpt>
<trkpt lat="46.19577957" lon="6.08330335"><ele>425.520752</ele><time>2009-10-19T12:15:48Z</time></trkpt>
<trkpt lat="46.19582525" lon="6.08324803"><ele>425.520752</ele><time>2009-10-19T12:15:49Z</time></trkpt>
<trkpt lat="46.19586934" lon="6.08319263"><ele>425.520752</ele><time>2009-10-19T12:15:50Z</time></trkpt>
<trkpt lat="46.19591360" lon="6.08313689"><ele>426.001343</ele><time>2009-10-19T12:15:51Z</time></trkpt>
<trkpt lat="46.19595559" lon="6.08308459"><ele>426.482056</ele><time>2009-10-19T12:15:52Z</time></trkpt>
<trkpt lat="46.19599977" lon="6.08302860"><ele>426.482056</ele><time>2009-10-19T12:15:53Z</time></trkpt>
<trkpt lat="46.19604126" lon="6.08297638"><ele>426.482056</ele><time>2009-10-19T12:15:54Z</time></trkpt>
<trkpt lat="46.19608509" lon="6.08291980"><ele>426.482056</ele><time>2009-10-19T12:15:55Z</time></trkpt>
<trkpt lat="46.19612575" lon="6.08286666"><ele>426.482056</ele><time>2009-10-19T12:15:56Z</time></trkpt>
<trkpt lat="46.19616179" lon="6.08282148"><ele>426.001343</ele><time>2009-10-19T12:15:57Z</time></trkpt>
<trkpt lat="46.19618115" lon="6.08277957"><ele>425.520752</ele><time>2009-10-19T12:15:58Z</time></trkpt>
<trkpt lat="46.19618827" lon="6.08274294"><ele>426.001343</ele><time>2009-10-19T12:15:59Z</time></trkpt>
<trkpt lat="46.19618853" lon="6.08270857"><ele>426.001343</ele><time>2009-10-19T12:16:00Z</time></trkpt>
<trkpt lat="46.19617973" lon="6.08267597"><ele>425.520752</ele><time>2009-10-19T12:16:01Z</time></trkpt>
<trkpt lat="46.19617285" lon="6.08264395"><ele>424.559448</ele><time>2009-10-19T12:16:02Z</time></trkpt>
<trkpt lat="46.19615877" lon="6.08260246"><ele>422.156006</ele><time>2009-10-19T12:16:03Z</time></trkpt>
<trkpt lat="46.19613765" lon="6.08255276"><ele>420.714111</ele><time>2009-10-19T12:16:04Z</time></trkpt>
<trkpt lat="46.19610546" lon="6.08249609"><ele>419.272217</ele><time>2009-10-19T12:16:05Z</time></trkpt>
<trkpt lat="46.19606573" lon="6.08242778"><ele>418.791504</ele><time>2009-10-19T12:16:06Z</time></trkpt>
<trkpt lat="46.19602349" lon="6.08236047"><ele>418.310791</ele><time>2009-10-19T12:16:07Z</time></trkpt>
<trkpt lat="46.19598158" lon="6.08230172"><ele>417.8302</ele><time>2009-10-19T12:16:08Z</time></trkpt>
<trkpt lat="46.19594109" lon="6.08224279"><ele>418.310791</ele><time>2009-10-19T12:16:09Z</time></trkpt>
<trkpt lat="46.19590622" lon="6.08218395"><ele>417.8302</ele><time>2009-10-19T12:16:10Z</time></trkpt>
<trkpt lat="46.19587127" lon="6.08213123"><ele>417.8302</ele><time>2009-10-19T12:16:11Z</time></trkpt>
<trkpt lat="46.19583439" lon="6.08207222"><ele>418.310791</ele><time>2009-10-19T12:16:12Z</time></trkpt>
<trkpt lat="46.19579868" lon="6.08201388"><ele>417.8302</ele><time>2009-10-19T12:16:13Z</time></trkpt>
<trkpt lat="46.19575954" lon="6.08195328"><ele>417.8302</ele><time>2009-10-19T12:16:14Z</time></trkpt>
<trkpt lat="46.19571947" lon="6.08189729"><ele>417.8302</ele><time>2009-10-19T12:16:15Z</time></trkpt>
<trkpt lat="46.19568192" lon="6.08184314"><ele>417.349609</ele><time>2009-10-19T12:16:16Z</time></trkpt>
<trkpt lat="46.19564345" lon="6.08178330"><ele>416.868896</ele><time>2009-10-19T12:16:17Z</time></trkpt>
<trkpt lat="46.19560489" lon="6.08172437"><ele>417.349609</ele><time>2009-10-19T12:16:18Z</time></trkpt>
<trkpt lat="46.19556349" lon="6.08166972"><ele>417.349609</ele><time>2009-10-19T12:16:19Z</time></trkpt>
<trkpt lat="46.19552585" lon="6.08161566"><ele>417.8302</ele><time>2009-10-19T12:16:20Z</time></trkpt>
<trkpt lat="46.19548780" lon="6.08156579"><ele>417.349609</ele><time>2009-10-19T12:16:21Z</time></trkpt>
<trkpt lat="46.19545025" lon="6.08151617"><ele>417.349609</ele><time>2009-10-19T12:16:22Z</time></trkpt>
<trkpt lat="46.19540960" lon="6.08146839"><ele>417.8302</ele><time>2009-10-19T12:16:23Z</time></trkpt>
<trkpt lat="46.19536852" lon="6.08142958"><ele>417.8302</ele><time>2009-10-19T12:16:24Z</time></trkpt>
<trkpt lat="46.19532779" lon="6.08138792"><ele>417.349609</ele><time>2009-10-19T12:16:25Z</time></trkpt>
<trkpt lat="46.19529133" lon="6.08134467"><ele>417.349609</ele><time>2009-10-19T12:16:26Z</time></trkpt>
<trkpt lat="46.19525378" lon="6.08129438"><ele>416.868896</ele><time>2009-10-19T12:16:27Z</time></trkpt>
<trkpt lat="46.19521773" lon="6.08124065"><ele>415.907471</ele><time>2009-10-19T12:16:28Z</time></trkpt>
<trkpt lat="46.19518178" lon="6.08119849"><ele>414.465454</ele><time>2009-10-19T12:16:29Z</time></trkpt>
<trkpt lat="46.19514682" lon="6.08115826"><ele>413.984863</ele><time>2009-10-19T12:16:30Z</time></trkpt>
<trkpt lat="46.19511162" lon="6.08112004"><ele>413.02356</ele><time>2009-10-19T12:16:31Z</time></trkpt>
<trkpt lat="46.19506812" lon="6.08108064"><ele>412.062256</ele><time>2009-10-19T12:16:32Z</time></trkpt>
<trkpt lat="46.19502369" lon="6.08103639"><ele>412.062256</ele><time>2009-10-19T12:16:33Z</time></trkpt>
<trkpt lat="46.19498296" lon="6.08099959"><ele>410.620239</ele><time>2009-10-19T12:16:34Z</time></trkpt>
<trkpt lat="46.19493987" lon="6.08095315"><ele>410.139648</ele><time>2009-10-19T12:16:35Z</time></trkpt>
<trkpt lat="46.19489763" lon="6.08091384"><ele>410.139648</ele><time>2009-10-19T12:16:36Z</time></trkpt>
<trkpt lat="46.19485295" lon="6.08087612"><ele>410.139648</ele><time>2009-10-19T12:16:37Z</time></trkpt>
<trkpt lat="46.19480803" lon="6.08083807"><ele>410.139648</ele><time>2009-10-19T12:16:38Z</time></trkpt>
<trkpt lat="46.19476059" lon="6.08079893"><ele>409.178345</ele><time>2009-10-19T12:16:39Z</time></trkpt>
<trkpt lat="46.19471524" lon="6.08076397"><ele>408.697632</ele><time>2009-10-19T12:16:40Z</time></trkpt>
<trkpt lat="46.19466855" lon="6.08072332"><ele>408.697632</ele><time>2009-10-19T12:16:41Z</time></trkpt>
<trkpt lat="46.19462287" lon="6.08067906"><ele>409.659058</ele><time>2009-10-19T12:16:42Z</time></trkpt>
<trkpt lat="46.19457819" lon="6.08063514"><ele>408.697632</ele><time>2009-10-19T12:16:43Z</time></trkpt>
<trkpt lat="46.19453000" lon="6.08059550"><ele>408.217041</ele><time>2009-10-19T12:16:44Z</time></trkpt>
<trkpt lat="46.19448666" lon="6.08055677"><ele>408.217041</ele><time>2009-10-19T12:16:45Z</time></trkpt>
<trkpt lat="46.19443947" lon="6.08051352"><ele>407.736328</ele><time>2009-10-19T12:16:46Z</time></trkpt>
<trkpt lat="46.19438726" lon="6.08047538"><ele>407.255615</ele><time>2009-10-19T12:16:47Z</time></trkpt>
<trkpt lat="46.19433805" lon="6.08044010"><ele>406.774902</ele><time>2009-10-19T12:16:48Z</time></trkpt>
<trkpt lat="46.19429044" lon="6.08039928"><ele>406.774902</ele><time>2009-10-19T12:16:49Z</time></trkpt>
<trkpt lat="46.19424753" lon="6.08036466"><ele>407.255615</ele><time>2009-10-19T12:16:50Z</time></trkpt>
<trkpt lat="46.19420637" lon="6.08034136"><ele>407.255615</ele><time>2009-10-19T12:16:51Z</time></trkpt>
<trkpt lat="46.19416413" lon="6.08031604"><ele>407.736328</ele><time>2009-10-19T12:16:52Z</time></trkpt>
<trkpt lat="46.19412113" lon="6.08028495"><ele>408.697632</ele><time>2009-10-19T12:16:53Z</time></trkpt>
<trkpt lat="46.19407889" lon="6.08025284"><ele>407.736328</ele><time>2009-10-19T12:16:54Z</time></trkpt>
<trkpt lat="46.19403915" lon="6.08022535"><ele>407.736328</ele><time>2009-10-19T12:16:55Z</time></trkpt>
<trkpt lat="46.19399892" lon="6.08020364"><ele>407.736328</ele><time>2009-10-19T12:16:56Z</time></trkpt>
<trkpt lat="46.19395735" lon="6.08018428"><ele>407.255615</ele><time>2009-10-19T12:16:57Z</time></trkpt>
<trkpt lat="46.19391343" lon="6.08015863"><ele>407.736328</ele><time>2009-10-19T12:16:58Z</time></trkpt>
<trkpt lat="46.19386967" lon="6.08013483"><ele>408.217041</ele><time>2009-10-19T12:16:59Z</time></trkpt>
<trkpt lat="46.19383648" lon="6.08011094"><ele>407.255615</ele><time>2009-10-19T12:17:00Z</time></trkpt>
<trkpt lat="46.19380153" lon="6.08008009"><ele>407.736328</ele><time>2009-10-19T12:17:01Z</time></trkpt>
<trkpt lat="46.19377412" lon="6.08006526"><ele>407.736328</ele><time>2009-10-19T12:17:02Z</time></trkpt>
<trkpt lat="46.19374964" lon="6.08005268"><ele>409.178345</ele><time>2009-10-19T12:17:03Z</time></trkpt>
<trkpt lat="46.19372718" lon="6.08003986"><ele>408.697632</ele><time>2009-10-19T12:17:04Z</time></trkpt>
<trkpt lat="46.19370304" lon="6.08003575"><ele>409.178345</ele><time>2009-10-19T12:17:05Z</time></trkpt>
<trkpt lat="46.19367328" lon="6.08004355"><ele>409.178345</ele><time>2009-10-19T12:17:06Z</time></trkpt>
<trkpt lat="46.19363775" lon="6.08006274"><ele>409.178345</ele><time>2009-10-19T12:17:07Z</time></trkpt>
<trkpt lat="46.19361084" lon="6.08008395"><ele>408.697632</ele><time>2009-10-19T12:17:08Z</time></trkpt>
<trkpt lat="46.19358159" lon="6.08010289"><ele>409.178345</ele><time>2009-10-19T12:17:09Z</time></trkpt>
<trkpt lat="46.19355309" lon="6.08013550"><ele>408.697632</ele><time>2009-10-19T12:17:10Z</time></trkpt>
<trkpt lat="46.19351847" lon="6.08017246"><ele>409.659058</ele><time>2009-10-19T12:17:11Z</time></trkpt>
<trkpt lat="46.19348645" lon="6.08021664"><ele>410.620239</ele><time>2009-10-19T12:17:12Z</time></trkpt>
<trkpt lat="46.19345569" lon="6.08026139"><ele>411.100952</ele><time>2009-10-19T12:17:13Z</time></trkpt>
<trkpt lat="46.19342250" lon="6.08030238"><ele>411.100952</ele><time>2009-10-19T12:17:14Z</time></trkpt>
<trkpt lat="46.19338688" lon="6.08035502"><ele>411.100952</ele><time>2009-10-19T12:17:15Z</time></trkpt>
<trkpt lat="46.19335586" lon="6.08040397"><ele>411.581665</ele><time>2009-10-19T12:17:16Z</time></trkpt>
<trkpt lat="46.19332518" lon="6.08045015"><ele>411.100952</ele><time>2009-10-19T12:17:17Z</time></trkpt>
<trkpt lat="46.19329618" lon="6.08049190"><ele>411.100952</ele><time>2009-10-19T12:17:18Z</time></trkpt>
<trkpt lat="46.19326073" lon="6.08053733"><ele>412.542847</ele><time>2009-10-19T12:17:19Z</time></trkpt>
<trkpt lat="46.19323139" lon="6.08057639"><ele>412.542847</ele><time>2009-10-19T12:17:20Z</time></trkpt>
<trkpt lat="46.19320298" lon="6.08061402"><ele>412.542847</ele><time>2009-10-19T12:17:21Z</time></trkpt>
<trkpt lat="46.19317473" lon="6.08065207"><ele>412.542847</ele><time>2009-10-19T12:17:22Z</time></trkpt>
<trkpt lat="46.19314665" lon="6.08068770"><ele>412.542847</ele><time>2009-10-19T12:17:23Z</time></trkpt>
<trkpt lat="46.19311254" lon="6.08071854"><ele>413.02356</ele><time>2009-10-19T12:17:24Z</time></trkpt>
<trkpt lat="46.19308286" lon="6.08074486"><ele>413.02356</ele><time>2009-10-19T12:17:25Z</time></trkpt>
<trkpt lat="46.19305562" lon="6.08076674"><ele>413.504272</ele><time>2009-10-19T12:17:26Z</time></trkpt>
<trkpt lat="46.19303199" lon="6.08078727"><ele>413.504272</ele><time>2009-10-19T12:17:27Z</time></trkpt>
<trkpt lat="46.19300734" lon="6.08080756"><ele>413.984863</ele><time>2009-10-19T12:17:28Z</time></trkpt>
<trkpt lat="46.19298035" lon="6.08082860"><ele>413.984863</ele><time>2009-10-19T12:17:29Z</time></trkpt>
<trkpt lat="46.19295152" lon="6.08085215"><ele>413.984863</ele><time>2009-10-19T12:17:30Z</time></trkpt>
<trkpt lat="46.19292344" lon="6.08088023"><ele>414.465454</ele><time>2009-10-19T12:17:31Z</time></trkpt>
<trkpt lat="46.19290215" lon="6.08090756"><ele>414.946167</ele><time>2009-10-19T12:17:32Z</time></trkpt>
<trkpt lat="46.19287952" lon="6.08094184"><ele>414.946167</ele><time>2009-10-19T12:17:33Z</time></trkpt>
<trkpt lat="46.19286150" lon="6.08097595"><ele>414.465454</ele><time>2009-10-19T12:17:34Z</time></trkpt>
<trkpt lat="46.19284725" lon="6.08101300"><ele>413.984863</ele><time>2009-10-19T12:17:35Z</time></trkpt>
<trkpt lat="46.19283635" lon="6.08104913"><ele>413.504272</ele><time>2009-10-19T12:17:36Z</time></trkpt>
<trkpt lat="46.19282319" lon="6.08108659"><ele>413.504272</ele><time>2009-10-19T12:17:37Z</time></trkpt>
<trkpt lat="46.19280735" lon="6.08113035"><ele>413.02356</ele><time>2009-10-19T12:17:38Z</time></trkpt>
<trkpt lat="46.19279176" lon="6.08117385"><ele>412.062256</ele><time>2009-10-19T12:17:39Z</time></trkpt>
<trkpt lat="46.19278128" lon="6.08121048"><ele>411.581665</ele><time>2009-10-19T12:17:40Z</time></trkpt>
<trkpt lat="46.19277047" lon="6.08123965"><ele>410.620239</ele><time>2009-10-19T12:17:41Z</time></trkpt>
<trkpt lat="46.19276075" lon="6.08126789"><ele>411.581665</ele><time>2009-10-19T12:17:42Z</time></trkpt>
<trkpt lat="46.19275153" lon="6.08129597"><ele>412.062256</ele><time>2009-10-19T12:17:43Z</time></trkpt>
<trkpt lat="46.19274323" lon="6.08132724"><ele>412.542847</ele><time>2009-10-19T12:17:44Z</time></trkpt>
<trkpt lat="46.19273468" lon="6.08136253"><ele>412.542847</ele><time>2009-10-19T12:17:45Z</time></trkpt>
<trkpt lat="46.19272185" lon="6.08140192"><ele>412.062256</ele><time>2009-10-19T12:17:46Z</time></trkpt>
<trkpt lat="46.19270752" lon="6.08144140"><ele>412.062256</ele><time>2009-10-19T12:17:47Z</time></trkpt>
<trkpt lat="46.19268774" lon="6.08147727"><ele>412.062256</ele><time>2009-10-19T12:17:48Z</time></trkpt>
<trkpt lat="46.19266486" lon="6.08150896"><ele>412.062256</ele><time>2009-10-19T12:17:49Z</time></trkpt>
<trkpt lat="46.19263862" lon="6.08153318"><ele>412.062256</ele><time>2009-10-19T12:17:50Z</time></trkpt>
<trkpt lat="46.19260677" lon="6.08155715"><ele>413.02356</ele><time>2009-10-19T12:17:51Z</time></trkpt>
<trkpt lat="46.19257492" lon="6.08156553"><ele>413.504272</ele><time>2009-10-19T12:17:52Z</time></trkpt>
<trkpt lat="46.19253787" lon="6.08155875"><ele>413.504272</ele><time>2009-10-19T12:17:53Z</time></trkpt>
<trkpt lat="46.19249437" lon="6.08154357"><ele>413.504272</ele><time>2009-10-19T12:17:54Z</time></trkpt>
<trkpt lat="46.19244944" lon="6.08151969"><ele>413.984863</ele><time>2009-10-19T12:17:55Z</time></trkpt>
<trkpt lat="46.19240494" lon="6.08149462"><ele>414.465454</ele><time>2009-10-19T12:17:56Z</time></trkpt>
<trkpt lat="46.19235992" lon="6.08147266"><ele>413.984863</ele><time>2009-10-19T12:17:57Z</time></trkpt>
<trkpt lat="46.19231382" lon="6.08145263"><ele>414.465454</ele><time>2009-10-19T12:17:58Z</time></trkpt>
<trkpt lat="46.19226538" lon="6.08143059"><ele>413.984863</ele><time>2009-10-19T12:17:59Z</time></trkpt>
<trkpt lat="46.19221668" lon="6.08140594"><ele>414.465454</ele><time>2009-10-19T12:18:00Z</time></trkpt>
<trkpt lat="46.19217108" lon="6.08138189"><ele>414.946167</ele><time>2009-10-19T12:18:01Z</time></trkpt>
<trkpt lat="46.19212615" lon="6.08135247"><ele>414.946167</ele><time>2009-10-19T12:18:02Z</time></trkpt>
<trkpt lat="46.19207913" lon="6.08132673"><ele>414.946167</ele><time>2009-10-19T12:18:03Z</time></trkpt>
<trkpt lat="46.19203756" lon="6.08130368"><ele>415.42688</ele><time>2009-10-19T12:18:04Z</time></trkpt>
<trkpt lat="46.19199263" lon="6.08128214"><ele>415.42688</ele><time>2009-10-19T12:18:05Z</time></trkpt>
<trkpt lat="46.19194603" lon="6.08126228"><ele>415.42688</ele><time>2009-10-19T12:18:06Z</time></trkpt>
<trkpt lat="46.19189984" lon="6.08124048"><ele>415.42688</ele><time>2009-10-19T12:18:07Z</time></trkpt>
<trkpt lat="46.19185223" lon="6.08121417"><ele>415.907471</ele><time>2009-10-19T12:18:08Z</time></trkpt>
<trkpt lat="46.19180295" lon="6.08119162"><ele>416.388184</ele><time>2009-10-19T12:18:09Z</time></trkpt>
<trkpt lat="46.19174955" lon="6.08117050"><ele>416.388184</ele><time>2009-10-19T12:18:10Z</time></trkpt>
<trkpt lat="46.19169650" lon="6.08114745"><ele>415.907471</ele><time>2009-10-19T12:18:11Z</time></trkpt>
<trkpt lat="46.19164352" lon="6.08111568"><ele>415.907471</ele><time>2009-10-19T12:18:12Z</time></trkpt>
<trkpt lat="46.19159264" lon="6.08108852"><ele>415.907471</ele><time>2009-10-19T12:18:13Z</time></trkpt>
<trkpt lat="46.19154386" lon="6.08105985"><ele>415.907471</ele><time>2009-10-19T12:18:14Z</time></trkpt>
<trkpt lat="46.19149709" lon="6.08102675"><ele>415.907471</ele><time>2009-10-19T12:18:15Z</time></trkpt>
<trkpt lat="46.19144596" lon="6.08099825"><ele>415.907471</ele><time>2009-10-19T12:18:16Z</time></trkpt>
<trkpt lat="46.19139383" lon="6.08097117"><ele>415.42688</ele><time>2009-10-19T12:18:17Z</time></trkpt>
<trkpt lat="46.19134228" lon="6.08094620"><ele>415.907471</ele><time>2009-10-19T12:18:18Z</time></trkpt>
<trkpt lat="46.19129090" lon="6.08092566"><ele>415.907471</ele><time>2009-10-19T12:18:19Z</time></trkpt>
<trkpt lat="46.19123776" lon="6.08089750"><ele>416.388184</ele><time>2009-10-19T12:18:20Z</time></trkpt>
<trkpt lat="46.19119258" lon="6.08086523"><ele>415.907471</ele><time>2009-10-19T12:18:21Z</time></trkpt>
<trkpt lat="46.19113717" lon="6.08083807"><ele>414.946167</ele><time>2009-10-19T12:18:22Z</time></trkpt>
<trkpt lat="46.19108604" lon="6.08080655"><ele>413.984863</ele><time>2009-10-19T12:18:23Z</time></trkpt>
<trkpt lat="46.19103852" lon="6.08077805"><ele>413.984863</ele><time>2009-10-19T12:18:24Z</time></trkpt>
<trkpt lat="46.19098873" lon="6.08075509"><ele>413.02356</ele><time>2009-10-19T12:18:25Z</time></trkpt>
<trkpt lat="46.19093450" lon="6.08072818"><ele>413.504272</ele><time>2009-10-19T12:18:26Z</time></trkpt>
<trkpt lat="46.19088186" lon="6.08069859"><ele>412.542847</ele><time>2009-10-19T12:18:27Z</time></trkpt>
<trkpt lat="46.19083316" lon="6.08066867"><ele>411.581665</ele><time>2009-10-19T12:18:28Z</time></trkpt>
<trkpt lat="46.19078849" lon="6.08063280"><ele>412.062256</ele><time>2009-10-19T12:18:29Z</time></trkpt>
<trkpt lat="46.19074289" lon="6.08060128"><ele>411.581665</ele><time>2009-10-19T12:18:30Z</time></trkpt>
<trkpt lat="46.19069142" lon="6.08056666"><ele>410.620239</ele><time>2009-10-19T12:18:31Z</time></trkpt>
<trkpt lat="46.19064398" lon="6.08053582"><ele>409.178345</ele><time>2009-10-19T12:18:32Z</time></trkpt>
<trkpt lat="46.19059579" lon="6.08049584"><ele>410.139648</ele><time>2009-10-19T12:18:33Z</time></trkpt>
<trkpt lat="46.19054432" lon="6.08046600"><ele>409.659058</ele><time>2009-10-19T12:18:34Z</time></trkpt>
<trkpt lat="46.19048850" lon="6.08043649"><ele>409.178345</ele><time>2009-10-19T12:18:35Z</time></trkpt>
<trkpt lat="46.19042873" lon="6.08040833"><ele>409.178345</ele><time>2009-10-19T12:18:36Z</time></trkpt>
<trkpt lat="46.19036989" lon="6.08038385"><ele>409.659058</ele><time>2009-10-19T12:18:37Z</time></trkpt>
<trkpt lat="46.19031155" lon="6.08035728"><ele>410.620239</ele><time>2009-10-19T12:18:38Z</time></trkpt>
<trkpt lat="46.19025473" lon="6.08033130"><ele>410.139648</ele><time>2009-10-19T12:18:39Z</time></trkpt>
<trkpt lat="46.19019915" lon="6.08029928"><ele>410.620239</ele><time>2009-10-19T12:18:40Z</time></trkpt>
<trkpt lat="46.19014383" lon="6.08026642"><ele>409.659058</ele><time>2009-10-19T12:18:41Z</time></trkpt>
<trkpt lat="46.19008533" lon="6.08023918"><ele>408.697632</ele><time>2009-10-19T12:18:42Z</time></trkpt>
<trkpt lat="46.19003084" lon="6.08021529"><ele>409.659058</ele><time>2009-10-19T12:18:43Z</time></trkpt>
<trkpt lat="46.18997578" lon="6.08019677"><ele>410.620239</ele><time>2009-10-19T12:18:44Z</time></trkpt>
<trkpt lat="46.18991844" lon="6.08019652"><ele>411.581665</ele><time>2009-10-19T12:18:45Z</time></trkpt>
<trkpt lat="46.18985893" lon="6.08021177"><ele>412.542847</ele><time>2009-10-19T12:18:46Z</time></trkpt>
<trkpt lat="46.18979925" lon="6.08023826"><ele>413.984863</ele><time>2009-10-19T12:18:47Z</time></trkpt>
<trkpt lat="46.18973865" lon="6.08027514"><ele>413.984863</ele><time>2009-10-19T12:18:48Z</time></trkpt>
<trkpt lat="46.18967688" lon="6.08031152"><ele>414.465454</ele><time>2009-10-19T12:18:49Z</time></trkpt>
<trkpt lat="46.18961426" lon="6.08034664"><ele>414.946167</ele><time>2009-10-19T12:18:50Z</time></trkpt>
<trkpt lat="46.18955165" lon="6.08038167"><ele>415.42688</ele><time>2009-10-19T12:18:51Z</time></trkpt>
<trkpt lat="46.18948912" lon="6.08041587"><ele>415.907471</ele><time>2009-10-19T12:18:52Z</time></trkpt>
<trkpt lat="46.18942634" lon="6.08045015"><ele>416.388184</ele><time>2009-10-19T12:18:53Z</time></trkpt>
<trkpt lat="46.18936474" lon="6.08048553"><ele>416.388184</ele><time>2009-10-19T12:18:54Z</time></trkpt>
<trkpt lat="46.18930564" lon="6.08052216"><ele>416.868896</ele><time>2009-10-19T12:18:55Z</time></trkpt>
<trkpt lat="46.18924638" lon="6.08055979"><ele>417.8302</ele><time>2009-10-19T12:18:56Z</time></trkpt>
<trkpt lat="46.18918779" lon="6.08059533"><ele>418.310791</ele><time>2009-10-19T12:18:57Z</time></trkpt>
<trkpt lat="46.18912887" lon="6.08063003"><ele>419.272217</ele><time>2009-10-19T12:18:58Z</time></trkpt>
<trkpt lat="46.18906986" lon="6.08066456"><ele>419.752808</ele><time>2009-10-19T12:18:59Z</time></trkpt>
<trkpt lat="46.18901152" lon="6.08070044"><ele>420.714111</ele><time>2009-10-19T12:19:00Z</time></trkpt>
<trkpt lat="46.18895293" lon="6.08073648"><ele>421.194824</ele><time>2009-10-19T12:19:01Z</time></trkpt>
<trkpt lat="46.18889426" lon="6.08076925"><ele>421.675415</ele><time>2009-10-19T12:19:02Z</time></trkpt>
<trkpt lat="46.18883483" lon="6.08080035"><ele>422.156006</ele><time>2009-10-19T12:19:03Z</time></trkpt>
<trkpt lat="46.18877532" lon="6.08083304"><ele>422.636719</ele><time>2009-10-19T12:19:04Z</time></trkpt>
<trkpt lat="46.18871648" lon="6.08086724"><ele>423.598022</ele><time>2009-10-19T12:19:05Z</time></trkpt>
<trkpt lat="46.18865789" lon="6.08090093"><ele>424.078735</ele><time>2009-10-19T12:19:06Z</time></trkpt>
<trkpt lat="46.18859880" lon="6.08093312"><ele>424.078735</ele><time>2009-10-19T12:19:07Z</time></trkpt>
<trkpt lat="46.18854105" lon="6.08096296"><ele>424.559448</ele><time>2009-10-19T12:19:08Z</time></trkpt>
<trkpt lat="46.18848296" lon="6.08099406"><ele>424.559448</ele><time>2009-10-19T12:19:09Z</time></trkpt>
<trkpt lat="46.18842512" lon="6.08102532"><ele>425.040161</ele><time>2009-10-19T12:19:10Z</time></trkpt>
<trkpt lat="46.18836913" lon="6.08105432"><ele>425.040161</ele><time>2009-10-19T12:19:11Z</time></trkpt>
<trkpt lat="46.18831172" lon="6.08108408"><ele>425.520752</ele><time>2009-10-19T12:19:12Z</time></trkpt>
<trkpt lat="46.18825304" lon="6.08111082"><ele>425.520752</ele><time>2009-10-19T12:19:13Z</time></trkpt>
<trkpt lat="46.18819512" lon="6.08113387"><ele>426.001343</ele><time>2009-10-19T12:19:14Z</time></trkpt>
<trkpt lat="46.18813704" lon="6.08115407"><ele>426.482056</ele><time>2009-10-19T12:19:15Z</time></trkpt>
<trkpt lat="46.18807987" lon="6.08116966"><ele>426.962769</ele><time>2009-10-19T12:19:16Z</time></trkpt>
<trkpt lat="46.18802388" lon="6.08118399"><ele>427.443359</ele><time>2009-10-19T12:19:17Z</time></trkpt>
<trkpt lat="46.18796823" lon="6.08121157"><ele>426.482056</ele><time>2009-10-19T12:19:18Z</time></trkpt>
<trkpt lat="46.18791819" lon="6.08125624"><ele>425.040161</ele><time>2009-10-19T12:19:19Z</time></trkpt>
<trkpt lat="46.18787904" lon="6.08131852"><ele>423.598022</ele><time>2009-10-19T12:19:20Z</time></trkpt>
<trkpt lat="46.18784895" lon="6.08139312"><ele>421.194824</ele><time>2009-10-19T12:19:21Z</time></trkpt>
<trkpt lat="46.18782565" lon="6.08146998"><ele>419.272217</ele><time>2009-10-19T12:19:22Z</time></trkpt>
<trkpt lat="46.18780604" lon="6.08154760"><ele>416.868896</ele><time>2009-10-19T12:19:23Z</time></trkpt>
<trkpt lat="46.18778734" lon="6.08162790"><ele>414.465454</ele><time>2009-10-19T12:19:24Z</time></trkpt>
<trkpt lat="46.18776740" lon="6.08171079"><ele>413.02356</ele><time>2009-10-19T12:19:25Z</time></trkpt>
<trkpt lat="46.18774585" lon="6.08179327"><ele>412.062256</ele><time>2009-10-19T12:19:26Z</time></trkpt>
<trkpt lat="46.18772523" lon="6.08187323"><ele>409.659058</ele><time>2009-10-19T12:19:27Z</time></trkpt>
<trkpt lat="46.18770269" lon="6.08195244"><ele>408.217041</ele><time>2009-10-19T12:19:28Z</time></trkpt>
<trkpt lat="46.18767645" lon="6.08203040"><ele>407.255615</ele><time>2009-10-19T12:19:29Z</time></trkpt>
<trkpt lat="46.18764376" lon="6.08210483"><ele>406.774902</ele><time>2009-10-19T12:19:30Z</time></trkpt>
<trkpt lat="46.18760797" lon="6.08217549"><ele>406.774902</ele><time>2009-10-19T12:19:31Z</time></trkpt>
<trkpt lat="46.18757210" lon="6.08224288"><ele>405.813721</ele><time>2009-10-19T12:19:32Z</time></trkpt>
<trkpt lat="46.18753077" lon="6.08230566"><ele>405.813721</ele><time>2009-10-19T12:19:33Z</time></trkpt>
<trkpt lat="46.18748669" lon="6.08236450"><ele>405.813721</ele><time>2009-10-19T12:19:34Z</time></trkpt>
<trkpt lat="46.18744025" lon="6.08241973"><ele>405.813721</ele><time>2009-10-19T12:19:35Z</time></trkpt>
<trkpt lat="46.18739205" lon="6.08247145"><ele>405.813721</ele><time>2009-10-19T12:19:36Z</time></trkpt>
<trkpt lat="46.18734143" lon="6.08251948"><ele>405.813721</ele><time>2009-10-19T12:19:37Z</time></trkpt>
<trkpt lat="46.18728854" lon="6.08256315"><ele>405.813721</ele><time>2009-10-19T12:19:38Z</time></trkpt>
<trkpt lat="46.18723355" lon="6.08260254"><ele>405.813721</ele><time>2009-10-19T12:19:39Z</time></trkpt>
<trkpt lat="46.18718016" lon="6.08263616"><ele>405.333008</ele><time>2009-10-19T12:19:40Z</time></trkpt>
<trkpt lat="46.18712408" lon="6.08266264"><ele>405.333008</ele><time>2009-10-19T12:19:41Z</time></trkpt>
<trkpt lat="46.18706843" lon="6.08268343"><ele>405.333008</ele><time>2009-10-19T12:19:42Z</time></trkpt>
<trkpt lat="46.18701286" lon="6.08269977"><ele>405.813721</ele><time>2009-10-19T12:19:43Z</time></trkpt>
<trkpt lat="46.18695703" lon="6.08271285"><ele>406.294312</ele><time>2009-10-19T12:19:44Z</time></trkpt>
<trkpt lat="46.18690104" lon="6.08272148"><ele>406.774902</ele><time>2009-10-19T12:19:45Z</time></trkpt>
<trkpt lat="46.18684488" lon="6.08272542"><ele>406.774902</ele><time>2009-10-19T12:19:46Z</time></trkpt>
<trkpt lat="46.18678822" lon="6.08272685"><ele>407.255615</ele><time>2009-10-19T12:19:47Z</time></trkpt>
<trkpt lat="46.18673173" lon="6.08272165"><ele>407.736328</ele><time>2009-10-19T12:19:48Z</time></trkpt>
<trkpt lat="46.18667532" lon="6.08271034"><ele>408.217041</ele><time>2009-10-19T12:19:49Z</time></trkpt>
<trkpt lat="46.18661857" lon="6.08269734"><ele>408.217041</ele><time>2009-10-19T12:19:50Z</time></trkpt>
<trkpt lat="46.18656124" lon="6.08268309"><ele>408.697632</ele><time>2009-10-19T12:19:51Z</time></trkpt>
<trkpt lat="46.18650382" lon="6.08266717"><ele>408.697632</ele><time>2009-10-19T12:19:52Z</time></trkpt>
<trkpt lat="46.18644649" lon="6.08265082"><ele>409.178345</ele><time>2009-10-19T12:19:53Z</time></trkpt>
<trkpt lat="46.18638916" lon="6.08263465"><ele>409.178345</ele><time>2009-10-19T12:19:54Z</time></trkpt>
<trkpt lat="46.18633158" lon="6.08261872"><ele>409.659058</ele><time>2009-10-19T12:19:55Z</time></trkpt>
<trkpt lat="46.18627357" lon="6.08260280"><ele>409.659058</ele><time>2009-10-19T12:19:56Z</time></trkpt>
<trkpt lat="46.18621607" lon="6.08258645"><ele>410.139648</ele><time>2009-10-19T12:19:57Z</time></trkpt>
<trkpt lat="46.18615933" lon="6.08256944"><ele>410.139648</ele><time>2009-10-19T12:19:58Z</time></trkpt>
<trkpt lat="46.18610032" lon="6.08255913"><ele>410.620239</ele><time>2009-10-19T12:19:59Z</time></trkpt>
<trkpt lat="46.18604399" lon="6.08256533"><ele>411.100952</ele><time>2009-10-19T12:20:00Z</time></trkpt>
<trkpt lat="46.18599026" lon="6.08258964"><ele>411.100952</ele><time>2009-10-19T12:20:01Z</time></trkpt>
<trkpt lat="46.18593888" lon="6.08262333"><ele>411.581665</ele><time>2009-10-19T12:20:02Z</time></trkpt>
<trkpt lat="46.18588868" lon="6.08265694"><ele>411.581665</ele><time>2009-10-19T12:20:03Z</time></trkpt>
<trkpt lat="46.18583989" lon="6.08268904"><ele>411.581665</ele><time>2009-10-19T12:20:04Z</time></trkpt>
<trkpt lat="46.18579446" lon="6.08271972"><ele>412.062256</ele><time>2009-10-19T12:20:05Z</time></trkpt>
<trkpt lat="46.18575188" lon="6.08274914"><ele>412.062256</ele><time>2009-10-19T12:20:06Z</time></trkpt>
<trkpt lat="46.18571056" lon="6.08277672"><ele>412.542847</ele><time>2009-10-19T12:20:07Z</time></trkpt>
<trkpt lat="46.18567016" lon="6.08280153"><ele>413.02356</ele><time>2009-10-19T12:20:08Z</time></trkpt>
<trkpt lat="46.18563026" lon="6.08282508"><ele>413.02356</ele><time>2009-10-19T12:20:09Z</time></trkpt>
<trkpt lat="46.18559103" lon="6.08284755"><ele>413.02356</ele><time>2009-10-19T12:20:10Z</time></trkpt>
<trkpt lat="46.18555189" lon="6.08286800"><ele>413.504272</ele><time>2009-10-19T12:20:11Z</time></trkpt>
<trkpt lat="46.18551258" lon="6.08289113"><ele>413.504272</ele><time>2009-10-19T12:20:12Z</time></trkpt>
<trkpt lat="46.18547293" lon="6.08291854"><ele>413.984863</ele><time>2009-10-19T12:20:13Z</time></trkpt>
<trkpt lat="46.18543262" lon="6.08294830"><ele>413.984863</ele><time>2009-10-19T12:20:14Z</time></trkpt>
<trkpt lat="46.18539230" lon="6.08297696"><ele>414.465454</ele><time>2009-10-19T12:20:15Z</time></trkpt>
<trkpt lat="46.18535140" lon="6.08299985"><ele>414.946167</ele><time>2009-10-19T12:20:16Z</time></trkpt>
<trkpt lat="46.18530965" lon="6.08300898"><ele>414.946167</ele><time>2009-10-19T12:20:17Z</time></trkpt>
<trkpt lat="46.18526808" lon="6.08300974"><ele>414.946167</ele><time>2009-10-19T12:20:18Z</time></trkpt>
<trkpt lat="46.18522827" lon="6.08302139"><ele>415.42688</ele><time>2009-10-19T12:20:19Z</time></trkpt>
<trkpt lat="46.18519038" lon="6.08304393"><ele>415.907471</ele><time>2009-10-19T12:20:20Z</time></trkpt>
<trkpt lat="46.18515258" lon="6.08306489"><ele>415.907471</ele><time>2009-10-19T12:20:21Z</time></trkpt>
<trkpt lat="46.18511260" lon="6.08308115"><ele>415.907471</ele><time>2009-10-19T12:20:22Z</time></trkpt>
<trkpt lat="46.18506834" lon="6.08309557"><ele>416.388184</ele><time>2009-10-19T12:20:23Z</time></trkpt>
<trkpt lat="46.18502123" lon="6.08310998"><ele>416.388184</ele><time>2009-10-19T12:20:24Z</time></trkpt>
<trkpt lat="46.18497337" lon="6.08312817"><ele>416.388184</ele><time>2009-10-19T12:20:25Z</time></trkpt>
<trkpt lat="46.18492576" lon="6.08315273"><ele>416.388184</ele><time>2009-10-19T12:20:26Z</time></trkpt>
<trkpt lat="46.18487849" lon="6.08318274"><ele>416.388184</ele><time>2009-10-19T12:20:27Z</time></trkpt>
<trkpt lat="46.18483172" lon="6.08321610"><ele>416.868896</ele><time>2009-10-19T12:20:28Z</time></trkpt>
<trkpt lat="46.18478579" lon="6.08325172"><ele>416.868896</ele><time>2009-10-19T12:20:29Z</time></trkpt>
<trkpt lat="46.18474002" lon="6.08328852"><ele>416.868896</ele><time>2009-10-19T12:20:30Z</time></trkpt>
<trkpt lat="46.18469434" lon="6.08332599"><ele>416.868896</ele><time>2009-10-19T12:20:31Z</time></trkpt>
<trkpt lat="46.18464908" lon="6.08336387"><ele>416.868896</ele><time>2009-10-19T12:20:32Z</time></trkpt>
<trkpt lat="46.18460373" lon="6.08340117"><ele>417.349609</ele><time>2009-10-19T12:20:33Z</time></trkpt>
<trkpt lat="46.18455905" lon="6.08343755"><ele>416.868896</ele><time>2009-10-19T12:20:34Z</time></trkpt>
<trkpt lat="46.18451522" lon="6.08347326"><ele>416.868896</ele><time>2009-10-19T12:20:35Z</time></trkpt>
<trkpt lat="46.18447138" lon="6.08350880"><ele>417.349609</ele><time>2009-10-19T12:20:36Z</time></trkpt>
<trkpt lat="46.18442645" lon="6.08354232"><ele>417.349609</ele><time>2009-10-19T12:20:37Z</time></trkpt>
<trkpt lat="46.18438002" lon="6.08357199"><ele>417.349609</ele><time>2009-10-19T12:20:38Z</time></trkpt>
<trkpt lat="46.18433232" lon="6.08359714"><ele>417.8302</ele><time>2009-10-19T12:20:39Z</time></trkpt>
<trkpt lat="46.18428379" lon="6.08361667"><ele>417.8302</ele><time>2009-10-19T12:20:40Z</time></trkpt>
<trkpt lat="46.18423434" lon="6.08362849"><ele>417.8302</ele><time>2009-10-19T12:20:41Z</time></trkpt>
<trkpt lat="46.18418363" lon="6.08363318"><ele>418.310791</ele><time>2009-10-19T12:20:42Z</time></trkpt>
<trkpt lat="46.18413283" lon="6.08363042"><ele>418.791504</ele><time>2009-10-19T12:20:43Z</time></trkpt>
<trkpt lat="46.18408246" lon="6.08362027"><ele>419.272217</ele><time>2009-10-19T12:20:44Z</time></trkpt>
<trkpt lat="46.18403854" lon="6.08360183"><ele>418.791504</ele><time>2009-10-19T12:20:45Z</time></trkpt>
<trkpt lat="46.18399244" lon="6.08357769"><ele>418.791504</ele><time>2009-10-19T12:20:46Z</time></trkpt>
<trkpt lat="46.18394894" lon="6.08354584"><ele>418.791504</ele><time>2009-10-19T12:20:47Z</time></trkpt>
<trkpt lat="46.18390828" lon="6.08350628"><ele>418.791504</ele><time>2009-10-19T12:20:48Z</time></trkpt>
<trkpt lat="46.18387115" lon="6.08346144"><ele>418.791504</ele><time>2009-10-19T12:20:49Z</time></trkpt>
<trkpt lat="46.18383737" lon="6.08341140"><ele>418.791504</ele><time>2009-10-19T12:20:50Z</time></trkpt>
<trkpt lat="46.18380653" lon="6.08335683"><ele>418.791504</ele><time>2009-10-19T12:20:51Z</time></trkpt>
<trkpt lat="46.18378038" lon="6.08329967"><ele>418.310791</ele><time>2009-10-19T12:20:52Z</time></trkpt>
<trkpt lat="46.18375682" lon="6.08323957"><ele>418.310791</ele><time>2009-10-19T12:20:53Z</time></trkpt>
<trkpt lat="46.18373453" lon="6.08317947"><ele>417.8302</ele><time>2009-10-19T12:20:54Z</time></trkpt>
<trkpt lat="46.18371332" lon="6.08311929"><ele>417.349609</ele><time>2009-10-19T12:20:55Z</time></trkpt>
<trkpt lat="46.18369220" lon="6.08305668"><ele>416.868896</ele><time>2009-10-19T12:20:56Z</time></trkpt>
<trkpt lat="46.18366915" lon="6.08299532"><ele>417.349609</ele><time>2009-10-19T12:20:57Z</time></trkpt>
<trkpt lat="46.18364484" lon="6.08293438"><ele>417.8302</ele><time>2009-10-19T12:20:58Z</time></trkpt>
<trkpt lat="46.18362045" lon="6.08287429"><ele>418.310791</ele><time>2009-10-19T12:20:59Z</time></trkpt>
<trkpt lat="46.18359623" lon="6.08281326"><ele>418.310791</ele><time>2009-10-19T12:21:00Z</time></trkpt>
<trkpt lat="46.18357209" lon="6.08275258"><ele>418.791504</ele><time>2009-10-19T12:21:01Z</time></trkpt>
<trkpt lat="46.18354736" lon="6.08269257"><ele>419.272217</ele><time>2009-10-19T12:21:02Z</time></trkpt>
<trkpt lat="46.18352347" lon="6.08263314"><ele>419.752808</ele><time>2009-10-19T12:21:03Z</time></trkpt>
<trkpt lat="46.18349807" lon="6.08257405"><ele>420.233398</ele><time>2009-10-19T12:21:04Z</time></trkpt>
<trkpt lat="46.18347083" lon="6.08251328"><ele>419.752808</ele><time>2009-10-19T12:21:05Z</time></trkpt>
<trkpt lat="46.18343948" lon="6.08245594"><ele>419.752808</ele><time>2009-10-19T12:21:06Z</time></trkpt>
<trkpt lat="46.18340445" lon="6.08240188"><ele>419.272217</ele><time>2009-10-19T12:21:07Z</time></trkpt>
<trkpt lat="46.18336547" lon="6.08235176"><ele>419.752808</ele><time>2009-10-19T12:21:08Z</time></trkpt>
<trkpt lat="46.18332289" lon="6.08230214"><ele>420.233398</ele><time>2009-10-19T12:21:09Z</time></trkpt>
<trkpt lat="46.18327864" lon="6.08225176"><ele>420.714111</ele><time>2009-10-19T12:21:10Z</time></trkpt>
<trkpt lat="46.18323438" lon="6.08219954"><ele>421.194824</ele><time>2009-10-19T12:21:11Z</time></trkpt>
<trkpt lat="46.18318702" lon="6.08214489"><ele>421.194824</ele><time>2009-10-19T12:21:12Z</time></trkpt>
<trkpt lat="46.18314084" lon="6.08209368"><ele>421.194824</ele><time>2009-10-19T12:21:13Z</time></trkpt>
<trkpt lat="46.18309675" lon="6.08204540"><ele>421.675415</ele><time>2009-10-19T12:21:14Z</time></trkpt>
<trkpt lat="46.18305283" lon="6.08199486"><ele>421.675415</ele><time>2009-10-19T12:21:15Z</time></trkpt>
<trkpt lat="46.18301000" lon="6.08196334"><ele>421.675415</ele><time>2009-10-19T12:21:16Z</time></trkpt>
<trkpt lat="46.18297454" lon="6.08191883"><ele>422.156006</ele><time>2009-10-19T12:21:17Z</time></trkpt>
<trkpt lat="46.18293942" lon="6.08188153"><ele>422.156006</ele><time>2009-10-19T12:21:18Z</time></trkpt>
<trkpt lat="46.18290246" lon="6.08184054"><ele>422.156006</ele><time>2009-10-19T12:21:19Z</time></trkpt>
<trkpt lat="46.18286734" lon="6.08179922"><ele>422.636719</ele><time>2009-10-19T12:21:20Z</time></trkpt>
<trkpt lat="46.18283272" lon="6.08175044"><ele>422.636719</ele><time>2009-10-19T12:21:21Z</time></trkpt>
<trkpt lat="46.18279584" lon="6.08170367"><ele>422.636719</ele><time>2009-10-19T12:21:22Z</time></trkpt>
<trkpt lat="46.18275493" lon="6.08165732"><ele>422.156006</ele><time>2009-10-19T12:21:23Z</time></trkpt>
<trkpt lat="46.18271193" lon="6.08161868"><ele>422.156006</ele><time>2009-10-19T12:21:24Z</time></trkpt>
<trkpt lat="46.18266944" lon="6.08157517"><ele>422.156006</ele><time>2009-10-19T12:21:25Z</time></trkpt>
<trkpt lat="46.18262342" lon="6.08153947"><ele>422.636719</ele><time>2009-10-19T12:21:26Z</time></trkpt>
<trkpt lat="46.18257707" lon="6.08149504"><ele>423.117432</ele><time>2009-10-19T12:21:27Z</time></trkpt>
<trkpt lat="46.18253089" lon="6.08144400"><ele>424.078735</ele><time>2009-10-19T12:21:28Z</time></trkpt>
<trkpt lat="46.18248453" lon="6.08139127"><ele>424.078735</ele><time>2009-10-19T12:21:29Z</time></trkpt>
<trkpt lat="46.18243726" lon="6.08133922"><ele>424.559448</ele><time>2009-10-19T12:21:30Z</time></trkpt>
<trkpt lat="46.18238982" lon="6.08129513"><ele>425.040161</ele><time>2009-10-19T12:21:31Z</time></trkpt>
<trkpt lat="46.18234389" lon="6.08124602"><ele>424.559448</ele><time>2009-10-19T12:21:32Z</time></trkpt>
<trkpt lat="46.18229938" lon="6.08119505"><ele>424.078735</ele><time>2009-10-19T12:21:33Z</time></trkpt>
<trkpt lat="46.18225504" lon="6.08114510"><ele>424.078735</ele><time>2009-10-19T12:21:34Z</time></trkpt>
<trkpt lat="46.18221019" lon="6.08109598"><ele>423.598022</ele><time>2009-10-19T12:21:35Z</time></trkpt>
<trkpt lat="46.18216619" lon="6.08104829"><ele>423.598022</ele><time>2009-10-19T12:21:36Z</time></trkpt>
<trkpt lat="46.18212302" lon="6.08100219"><ele>423.598022</ele><time>2009-10-19T12:21:37Z</time></trkpt>
<trkpt lat="46.18207969" lon="6.08095818"><ele>424.078735</ele><time>2009-10-19T12:21:38Z</time></trkpt>
<trkpt lat="46.18203577" lon="6.08091409"><ele>423.598022</ele><time>2009-10-19T12:21:39Z</time></trkpt>
<trkpt lat="46.18199143" lon="6.08087109"><ele>423.598022</ele><time>2009-10-19T12:21:40Z</time></trkpt>
<trkpt lat="46.18194667" lon="6.08082768"><ele>423.598022</ele><time>2009-10-19T12:21:41Z</time></trkpt>
<trkpt lat="46.18190065" lon="6.08078409"><ele>423.598022</ele><time>2009-10-19T12:21:42Z</time></trkpt>
<trkpt lat="46.18185447" lon="6.08074067"><ele>423.598022</ele><time>2009-10-19T12:21:43Z</time></trkpt>
<trkpt lat="46.18180795" lon="6.08069943"><ele>423.598022</ele><time>2009-10-19T12:21:44Z</time></trkpt>
<trkpt lat="46.18175925" lon="6.08065417"><ele>423.117432</ele><time>2009-10-19T12:21:45Z</time></trkpt>
<trkpt lat="46.18171105" lon="6.08060715"><ele>423.117432</ele><time>2009-10-19T12:21:46Z</time></trkpt>
<trkpt lat="46.18166252" lon="6.08055744"><ele>422.636719</ele><time>2009-10-19T12:21:47Z</time></trkpt>
<trkpt lat="46.18161466" lon="6.08050807"><ele>422.156006</ele><time>2009-10-19T12:21:48Z</time></trkpt>
<trkpt lat="46.18157007" lon="6.08045468"><ele>422.156006</ele><time>2009-10-19T12:21:49Z</time></trkpt>
<trkpt lat="46.18152992" lon="6.08039777"><ele>421.194824</ele><time>2009-10-19T12:21:50Z</time></trkpt>
<trkpt lat="46.18149027" lon="6.08033859"><ele>421.194824</ele><time>2009-10-19T12:21:51Z</time></trkpt>
<trkpt lat="46.18144979" lon="6.08027866"><ele>420.714111</ele><time>2009-10-19T12:21:52Z</time></trkpt>
<trkpt lat="46.18141014" lon="6.08021605"><ele>420.714111</ele><time>2009-10-19T12:21:53Z</time></trkpt>
<trkpt lat="46.18137318" lon="6.08014983"><ele>420.714111</ele><time>2009-10-19T12:21:54Z</time></trkpt>
<trkpt lat="46.18133915" lon="6.08007892"><ele>420.233398</ele><time>2009-10-19T12:21:55Z</time></trkpt>
<trkpt lat="46.18131769" lon="6.08002595"><ele>419.752808</ele><time>2009-10-19T12:21:56Z</time></trkpt>
<trkpt lat="46.18129606" lon="6.07996794"><ele>419.272217</ele><time>2009-10-19T12:21:57Z</time></trkpt>
<trkpt lat="46.18128416" lon="6.07990416"><ele>417.8302</ele><time>2009-10-19T12:21:58Z</time></trkpt>
<trkpt lat="46.18126723" lon="6.07983895"><ele>416.868896</ele><time>2009-10-19T12:21:59Z</time></trkpt>
<trkpt lat="46.18126044" lon="6.07975136"><ele>415.42688</ele><time>2009-10-19T12:22:00Z</time></trkpt>
<trkpt lat="46.18125013" lon="6.07966812"><ele>413.984863</ele><time>2009-10-19T12:22:01Z</time></trkpt>
<trkpt lat="46.18124359" lon="6.07958003"><ele>412.542847</ele><time>2009-10-19T12:22:02Z</time></trkpt>
<trkpt lat="46.18122239" lon="6.07949420"><ele>412.542847</ele><time>2009-10-19T12:22:03Z</time></trkpt>
<trkpt lat="46.18120445" lon="6.07941365"><ele>413.504272</ele><time>2009-10-19T12:22:04Z</time></trkpt>
<trkpt lat="46.18118886" lon="6.07933905"><ele>413.984863</ele><time>2009-10-19T12:22:05Z</time></trkpt>
<trkpt lat="46.18117495" lon="6.07926814"><ele>414.465454</ele><time>2009-10-19T12:22:06Z</time></trkpt>
<trkpt lat="46.18117327" lon="6.07919186"><ele>413.02356</ele><time>2009-10-19T12:22:07Z</time></trkpt>
<trkpt lat="46.18116640" lon="6.07912732"><ele>412.542847</ele><time>2009-10-19T12:22:08Z</time></trkpt>
<trkpt lat="46.18116019" lon="6.07906396"><ele>411.581665</ele><time>2009-10-19T12:22:09Z</time></trkpt>
<trkpt lat="46.18115039" lon="6.07900704"><ele>411.581665</ele><time>2009-10-19T12:22:10Z</time></trkpt>
<trkpt lat="46.18114343" lon="6.07894409"><ele>411.100952</ele><time>2009-10-19T12:22:11Z</time></trkpt>
<trkpt lat="46.18113572" lon="6.07888333"><ele>411.581665</ele><time>2009-10-19T12:22:12Z</time></trkpt>
<trkpt lat="46.18114167" lon="6.07882792"><ele>413.02356</ele><time>2009-10-19T12:22:13Z</time></trkpt>
<trkpt lat="46.18117997" lon="6.07879506"><ele>413.984863</ele><time>2009-10-19T12:22:14Z</time></trkpt>
<trkpt lat="46.18123320" lon="6.07877847"><ele>414.946167</ele><time>2009-10-19T12:22:15Z</time></trkpt>
<trkpt lat="46.18128986" lon="6.07876539"><ele>415.42688</ele><time>2009-10-19T12:22:16Z</time></trkpt>
<trkpt lat="46.18134443" lon="6.07875072"><ele>415.42688</ele><time>2009-10-19T12:22:17Z</time></trkpt>
<trkpt lat="46.18140075" lon="6.07873346"><ele>415.42688</ele><time>2009-10-19T12:22:18Z</time></trkpt>
<trkpt lat="46.18146152" lon="6.07871929"><ele>415.907471</ele><time>2009-10-19T12:22:19Z</time></trkpt>
<trkpt lat="46.18152036" lon="6.07869783"><ele>416.388184</ele><time>2009-10-19T12:22:20Z</time></trkpt>
<trkpt lat="46.18157845" lon="6.07867587"><ele>416.868896</ele><time>2009-10-19T12:22:21Z</time></trkpt>
<trkpt lat="46.18163503" lon="6.07864805"><ele>417.8302</ele><time>2009-10-19T12:22:22Z</time></trkpt>
<trkpt lat="46.18168809" lon="6.07861318"><ele>418.310791</ele><time>2009-10-19T12:22:23Z</time></trkpt>
<trkpt lat="46.18172698" lon="6.07856238"><ele>418.310791</ele><time>2009-10-19T12:22:24Z</time></trkpt>
<trkpt lat="46.18174994" lon="6.07848644"><ele>419.272217</ele><time>2009-10-19T12:22:25Z</time></trkpt>
<trkpt lat="46.18175304" lon="6.07840003"><ele>418.791504</ele><time>2009-10-19T12:22:26Z</time></trkpt>
<trkpt lat="46.18175112" lon="6.07831009"><ele>417.8302</ele><time>2009-10-19T12:22:27Z</time></trkpt>
<trkpt lat="46.18174626" lon="6.07821143"><ele>418.310791</ele><time>2009-10-19T12:22:28Z</time></trkpt>
<trkpt lat="46.18173636" lon="6.07810649"><ele>417.8302</ele><time>2009-10-19T12:22:29Z</time></trkpt>
<trkpt lat="46.18172798" lon="6.07800004"><ele>418.310791</ele><time>2009-10-19T12:22:30Z</time></trkpt>
<trkpt lat="46.18172086" lon="6.07789124"><ele>418.791504</ele><time>2009-10-19T12:22:31Z</time></trkpt>
<trkpt lat="46.18171860" lon="6.07777867"><ele>420.714111</ele><time>2009-10-19T12:22:32Z</time></trkpt>
<trkpt lat="46.18170879" lon="6.07765152"><ele>421.194824</ele><time>2009-10-19T12:22:33Z</time></trkpt>
<trkpt lat="46.18171809" lon="6.07751825"><ele>420.714111</ele><time>2009-10-19T12:22:34Z</time></trkpt>
<trkpt lat="46.18172455" lon="6.07738900"><ele>419.272217</ele><time>2009-10-19T12:22:35Z</time></trkpt>
<trkpt lat="46.18171759" lon="6.07726428"><ele>418.791504</ele><time>2009-10-19T12:22:36Z</time></trkpt>
<trkpt lat="46.18171046" lon="6.07714609"><ele>419.272217</ele><time>2009-10-19T12:22:37Z</time></trkpt>
<trkpt lat="46.18170619" lon="6.07702766"><ele>420.714111</ele><time>2009-10-19T12:22:38Z</time></trkpt>
<trkpt lat="46.18169965" lon="6.07690813"><ele>422.636719</ele><time>2009-10-19T12:22:39Z</time></trkpt>
<trkpt lat="46.18169236" lon="6.07678617"><ele>421.675415</ele><time>2009-10-19T12:22:40Z</time></trkpt>
<trkpt lat="46.18168968" lon="6.07666589"><ele>421.675415</ele><time>2009-10-19T12:22:41Z</time></trkpt>
<trkpt lat="46.18169135" lon="6.07654218"><ele>421.675415</ele><time>2009-10-19T12:22:42Z</time></trkpt>
<trkpt lat="46.18168515" lon="6.07642466"><ele>422.156006</ele><time>2009-10-19T12:22:43Z</time></trkpt>
<trkpt lat="46.18167618" lon="6.07630614"><ele>422.156006</ele><time>2009-10-19T12:22:44Z</time></trkpt>
<trkpt lat="46.18167048" lon="6.07618787"><ele>420.714111</ele><time>2009-10-19T12:22:45Z</time></trkpt>
<trkpt lat="46.18166772" lon="6.07607028"><ele>420.714111</ele><time>2009-10-19T12:22:46Z</time></trkpt>
<trkpt lat="46.18166126" lon="6.07595377"><ele>420.714111</ele><time>2009-10-19T12:22:47Z</time></trkpt>
<trkpt lat="46.18165590" lon="6.07583868"><ele>420.714111</ele><time>2009-10-19T12:22:48Z</time></trkpt>
<trkpt lat="46.18164944" lon="6.07572377"><ele>419.752808</ele><time>2009-10-19T12:22:49Z</time></trkpt>
<trkpt lat="46.18164710" lon="6.07560977"><ele>418.791504</ele><time>2009-10-19T12:22:50Z</time></trkpt>
<trkpt lat="46.18164458" lon="6.07550215"><ele>419.272217</ele><time>2009-10-19T12:22:51Z</time></trkpt>
<trkpt lat="46.18164249" lon="6.07539545"><ele>419.752808</ele><time>2009-10-19T12:22:52Z</time></trkpt>
<trkpt lat="46.18163939" lon="6.07528933"><ele>420.233398</ele><time>2009-10-19T12:22:53Z</time></trkpt>
<trkpt lat="46.18163478" lon="6.07518540"><ele>420.714111</ele><time>2009-10-19T12:22:54Z</time></trkpt>
<trkpt lat="46.18162438" lon="6.07508163"><ele>420.714111</ele><time>2009-10-19T12:22:55Z</time></trkpt>
<trkpt lat="46.18161709" lon="6.07497694"><ele>421.194824</ele><time>2009-10-19T12:22:56Z</time></trkpt>
<trkpt lat="46.18161240" lon="6.07487267"><ele>421.194824</ele><time>2009-10-19T12:22:57Z</time></trkpt>
<trkpt lat="46.18160837" lon="6.07476982"><ele>421.675415</ele><time>2009-10-19T12:22:58Z</time></trkpt>
<trkpt lat="46.18160527" lon="6.07467184"><ele>422.636719</ele><time>2009-10-19T12:22:59Z</time></trkpt>
<trkpt lat="46.18159597" lon="6.07457260"><ele>421.675415</ele><time>2009-10-19T12:23:00Z</time></trkpt>
<trkpt lat="46.18158214" lon="6.07449054"><ele>422.156006</ele><time>2009-10-19T12:23:01Z</time></trkpt>
<trkpt lat="46.18156848" lon="6.07445357"><ele>421.194824</ele><time>2009-10-19T12:23:02Z</time></trkpt>
<trkpt lat="46.18149438" lon="6.07438618"><ele>420.714111</ele><time>2009-10-19T12:23:03Z</time></trkpt>
<trkpt lat="46.18142355" lon="6.07438115"><ele>420.233398</ele><time>2009-10-19T12:23:04Z</time></trkpt>
<trkpt lat="46.18135256" lon="6.07439373"><ele>420.714111</ele><time>2009-10-19T12:23:05Z</time></trkpt>
<trkpt lat="46.18127058" lon="6.07439524"><ele>421.675415</ele><time>2009-10-19T12:23:06Z</time></trkpt>
<trkpt lat="46.18119716" lon="6.07440974"><ele>422.636719</ele><time>2009-10-19T12:23:07Z</time></trkpt>
<trkpt lat="46.18113765" lon="6.07443228"><ele>422.636719</ele><time>2009-10-19T12:23:08Z</time></trkpt>
<trkpt lat="46.18108015" lon="6.07445852"><ele>422.636719</ele><time>2009-10-19T12:23:09Z</time></trkpt>
<trkpt lat="46.18102633" lon="6.07448702"><ele>422.636719</ele><time>2009-10-19T12:23:10Z</time></trkpt>
<trkpt lat="46.18097680" lon="6.07450915"><ele>422.636719</ele><time>2009-10-19T12:23:11Z</time></trkpt>
<trkpt lat="46.18095106" lon="6.07450202"><ele>422.156006</ele><time>2009-10-19T12:23:12Z</time></trkpt>
<trkpt lat="46.18093422" lon="6.07447294"><ele>422.156006</ele><time>2009-10-19T12:23:13Z</time></trkpt>
<trkpt lat="46.18093145" lon="6.07442734"><ele>422.156006</ele><time>2009-10-19T12:23:14Z</time></trkpt>
<trkpt lat="46.18094637" lon="6.07437973"><ele>422.636719</ele><time>2009-10-19T12:23:15Z</time></trkpt>
<trkpt lat="46.18097696" lon="6.07433246"><ele>422.636719</ele><time>2009-10-19T12:23:16Z</time></trkpt>
<trkpt lat="46.18101619" lon="6.07428258"><ele>422.636719</ele><time>2009-10-19T12:23:17Z</time></trkpt>
<trkpt lat="46.18105584" lon="6.07422424"><ele>422.636719</ele><time>2009-10-19T12:23:18Z</time></trkpt>
<trkpt lat="46.18109632" lon="6.07415937"><ele>422.636719</ele><time>2009-10-19T12:23:19Z</time></trkpt>
<trkpt lat="46.18113865" lon="6.07408946"><ele>422.636719</ele><time>2009-10-19T12:23:20Z</time></trkpt>
<trkpt lat="46.18118316" lon="6.07401595"><ele>422.636719</ele><time>2009-10-19T12:23:21Z</time></trkpt>
<trkpt lat="46.18122918" lon="6.07393884"><ele>422.636719</ele><time>2009-10-19T12:23:22Z</time></trkpt>
<trkpt lat="46.18127553" lon="6.07385804"><ele>422.156006</ele><time>2009-10-19T12:23:23Z</time></trkpt>
<trkpt lat="46.18132297" lon="6.07377497"><ele>422.156006</ele><time>2009-10-19T12:23:24Z</time></trkpt>
<trkpt lat="46.18137142" lon="6.07369124"><ele>422.156006</ele><time>2009-10-19T12:23:25Z</time></trkpt>
<trkpt lat="46.18141995" lon="6.07360692"><ele>422.156006</ele><time>2009-10-19T12:23:26Z</time></trkpt>
<trkpt lat="46.18146865" lon="6.07352327"><ele>422.156006</ele><time>2009-10-19T12:23:27Z</time></trkpt>
<trkpt lat="46.18151818" lon="6.07344154"><ele>422.156006</ele><time>2009-10-19T12:23:28Z</time></trkpt>
<trkpt lat="46.18156889" lon="6.07336242"><ele>422.156006</ele><time>2009-10-19T12:23:29Z</time></trkpt>
<trkpt lat="46.18161969" lon="6.07328262"><ele>422.156006</ele><time>2009-10-19T12:23:30Z</time></trkpt>
<trkpt lat="46.18166638" lon="6.07319998"><ele>422.156006</ele><time>2009-10-19T12:23:31Z</time></trkpt>
<trkpt lat="46.18171256" lon="6.07311758"><ele>422.156006</ele><time>2009-10-19T12:23:32Z</time></trkpt>
<trkpt lat="46.18175925" lon="6.07303703"><ele>422.636719</ele><time>2009-10-19T12:23:33Z</time></trkpt>
<trkpt lat="46.18180686" lon="6.07295799"><ele>422.636719</ele><time>2009-10-19T12:23:34Z</time></trkpt>
<trkpt lat="46.18185447" lon="6.07287945"><ele>423.117432</ele><time>2009-10-19T12:23:35Z</time></trkpt>
<trkpt lat="46.18190157" lon="6.07280016"><ele>423.117432</ele><time>2009-10-19T12:23:36Z</time></trkpt>
<trkpt lat="46.18194918" lon="6.07272129"><ele>423.598022</ele><time>2009-10-19T12:23:37Z</time></trkpt>
<trkpt lat="46.18199604" lon="6.07264300"><ele>423.598022</ele><time>2009-10-19T12:23:38Z</time></trkpt>
<trkpt lat="46.18204130" lon="6.07256396"><ele>423.598022</ele><time>2009-10-19T12:23:39Z</time></trkpt>
<trkpt lat="46.18208430" lon="6.07248508"><ele>424.078735</ele><time>2009-10-19T12:23:40Z</time></trkpt>
<trkpt lat="46.18212637" lon="6.07240864"><ele>424.078735</ele><time>2009-10-19T12:23:41Z</time></trkpt>
<trkpt lat="46.18216904" lon="6.07233387"><ele>423.598022</ele><time>2009-10-19T12:23:42Z</time></trkpt>
<trkpt lat="46.18221330" lon="6.07225978"><ele>423.598022</ele><time>2009-10-19T12:23:43Z</time></trkpt>
<trkpt lat="46.18225839" lon="6.07218484"><ele>423.117432</ele><time>2009-10-19T12:23:44Z</time></trkpt>
<trkpt lat="46.18230466" lon="6.07210907"><ele>423.117432</ele><time>2009-10-19T12:23:45Z</time></trkpt>
<trkpt lat="46.18235277" lon="6.07203238"><ele>423.117432</ele><time>2009-10-19T12:23:46Z</time></trkpt>
<trkpt lat="46.18240415" lon="6.07195325"><ele>422.636719</ele><time>2009-10-19T12:23:47Z</time></trkpt>
<trkpt lat="46.18245687" lon="6.07187094"><ele>422.156006</ele><time>2009-10-19T12:23:48Z</time></trkpt>
<trkpt lat="46.18251203" lon="6.07178293"><ele>421.675415</ele><time>2009-10-19T12:23:49Z</time></trkpt>
<trkpt lat="46.18256852" lon="6.07168964"><ele>421.194824</ele><time>2009-10-19T12:23:50Z</time></trkpt>
<trkpt lat="46.18262636" lon="6.07159266"><ele>420.714111</ele><time>2009-10-19T12:23:51Z</time></trkpt>
<trkpt lat="46.18268578" lon="6.07149392"><ele>420.233398</ele><time>2009-10-19T12:23:52Z</time></trkpt>
<trkpt lat="46.18274647" lon="6.07139326"><ele>419.752808</ele><time>2009-10-19T12:23:53Z</time></trkpt>
<trkpt lat="46.18280732" lon="6.07129117"><ele>419.272217</ele><time>2009-10-19T12:23:54Z</time></trkpt>
<trkpt lat="46.18286792" lon="6.07118857"><ele>419.272217</ele><time>2009-10-19T12:23:55Z</time></trkpt>
<trkpt lat="46.18292743" lon="6.07108832"><ele>418.791504</ele><time>2009-10-19T12:23:56Z</time></trkpt>
<trkpt lat="46.18298669" lon="6.07098908"><ele>418.310791</ele><time>2009-10-19T12:23:57Z</time></trkpt>
<trkpt lat="46.18304470" lon="6.07088942"><ele>418.310791</ele><time>2009-10-19T12:23:58Z</time></trkpt>
<trkpt lat="46.18310186" lon="6.07078892"><ele>417.8302</ele><time>2009-10-19T12:23:59Z</time></trkpt>
<trkpt lat="46.18315576" lon="6.07068859"><ele>417.349609</ele><time>2009-10-19T12:24:00Z</time></trkpt>
<trkpt lat="46.18320697" lon="6.07058818"><ele>417.349609</ele><time>2009-10-19T12:24:01Z</time></trkpt>
<trkpt lat="46.18325408" lon="6.07048634"><ele>416.868896</ele><time>2009-10-19T12:24:02Z</time></trkpt>
<trkpt lat="46.18329867" lon="6.07038366"><ele>416.868896</ele><time>2009-10-19T12:24:03Z</time></trkpt>
<trkpt lat="46.18334234" lon="6.07028140"><ele>416.388184</ele><time>2009-10-19T12:24:04Z</time></trkpt>
<trkpt lat="46.18338433" lon="6.07018040"><ele>416.388184</ele><time>2009-10-19T12:24:05Z</time></trkpt>
<trkpt lat="46.18342699" lon="6.07008233"><ele>416.388184</ele><time>2009-10-19T12:24:06Z</time></trkpt>
<trkpt lat="46.18347142" lon="6.06998853"><ele>416.388184</ele><time>2009-10-19T12:24:07Z</time></trkpt>
<trkpt lat="46.18351584" lon="6.06989717"><ele>416.388184</ele><time>2009-10-19T12:24:08Z</time></trkpt>
<trkpt lat="46.18355784" lon="6.06980413"><ele>416.388184</ele><time>2009-10-19T12:24:09Z</time></trkpt>
<trkpt lat="46.18359673" lon="6.06970975"><ele>416.388184</ele><time>2009-10-19T12:24:10Z</time></trkpt>
<trkpt lat="46.18363554" lon="6.06961730"><ele>416.868896</ele><time>2009-10-19T12:24:11Z</time></trkpt>
<trkpt lat="46.18367242" lon="6.06952854"><ele>416.388184</ele><time>2009-10-19T12:24:12Z</time></trkpt>
<trkpt lat="46.18370812" lon="6.06944405"><ele>416.868896</ele><time>2009-10-19T12:24:13Z</time></trkpt>
<trkpt lat="46.18374199" lon="6.06936467"><ele>416.868896</ele><time>2009-10-19T12:24:14Z</time></trkpt>
<trkpt lat="46.18377442" lon="6.06928797"><ele>416.868896</ele><time>2009-10-19T12:24:15Z</time></trkpt>
<trkpt lat="46.18380544" lon="6.06921203"><ele>417.349609</ele><time>2009-10-19T12:24:16Z</time></trkpt>
<trkpt lat="46.18383603" lon="6.06913584"><ele>417.349609</ele><time>2009-10-19T12:24:17Z</time></trkpt>
<trkpt lat="46.18386805" lon="6.06906032"><ele>417.8302</ele><time>2009-10-19T12:24:18Z</time></trkpt>
<trkpt lat="46.18390024" lon="6.06898589"><ele>417.8302</ele><time>2009-10-19T12:24:19Z</time></trkpt>
<trkpt lat="46.18393226" lon="6.06891288"><ele>418.310791</ele><time>2009-10-19T12:24:20Z</time></trkpt>
<trkpt lat="46.18396469" lon="6.06884046"><ele>418.310791</ele><time>2009-10-19T12:24:21Z</time></trkpt>
<trkpt lat="46.18399705" lon="6.06876830"><ele>418.310791</ele><time>2009-10-19T12:24:22Z</time></trkpt>
<trkpt lat="46.18403007" lon="6.06869563"><ele>418.310791</ele><time>2009-10-19T12:24:23Z</time></trkpt>
<trkpt lat="46.18406243" lon="6.06862203"><ele>418.310791</ele><time>2009-10-19T12:24:24Z</time></trkpt>
<trkpt lat="46.18409419" lon="6.06854768"><ele>418.310791</ele><time>2009-10-19T12:24:25Z</time></trkpt>
<trkpt lat="46.18412680" lon="6.06847342"><ele>418.791504</ele><time>2009-10-19T12:24:26Z</time></trkpt>
<trkpt lat="46.18415840" lon="6.06840058"><ele>418.310791</ele><time>2009-10-19T12:24:27Z</time></trkpt>
<trkpt lat="46.18418874" lon="6.06832665"><ele>418.310791</ele><time>2009-10-19T12:24:28Z</time></trkpt>
<trkpt lat="46.18421875" lon="6.06825205"><ele>418.310791</ele><time>2009-10-19T12:24:29Z</time></trkpt>
<trkpt lat="46.18424775" lon="6.06817679"><ele>418.310791</ele><time>2009-10-19T12:24:30Z</time></trkpt>
<trkpt lat="46.18427717" lon="6.06810026"><ele>418.310791</ele><time>2009-10-19T12:24:31Z</time></trkpt>
<trkpt lat="46.18430726" lon="6.06802273"><ele>418.310791</ele><time>2009-10-19T12:24:32Z</time></trkpt>
<trkpt lat="46.18433719" lon="6.06794352"><ele>417.8302</ele><time>2009-10-19T12:24:33Z</time></trkpt>
<trkpt lat="46.18436686" lon="6.06786422"><ele>417.8302</ele><time>2009-10-19T12:24:34Z</time></trkpt>
<trkpt lat="46.18439586" lon="6.06778594"><ele>417.8302</ele><time>2009-10-19T12:24:35Z</time></trkpt>
<trkpt lat="46.18442293" lon="6.06770748"><ele>417.8302</ele><time>2009-10-19T12:24:36Z</time></trkpt>
<trkpt lat="46.18444975" lon="6.06762970"><ele>417.8302</ele><time>2009-10-19T12:24:37Z</time></trkpt>
<trkpt lat="46.18447767" lon="6.06755334"><ele>417.8302</ele><time>2009-10-19T12:24:38Z</time></trkpt>
<trkpt lat="46.18450709" lon="6.06747748"><ele>417.349609</ele><time>2009-10-19T12:24:39Z</time></trkpt>
<trkpt lat="46.18453743" lon="6.06739886"><ele>417.349609</ele><time>2009-10-19T12:24:40Z</time></trkpt>
<trkpt lat="46.18456878" lon="6.06731605"><ele>416.868896</ele><time>2009-10-19T12:24:41Z</time></trkpt>
<trkpt lat="46.18459946" lon="6.06722812"><ele>416.868896</ele><time>2009-10-19T12:24:42Z</time></trkpt>
<trkpt lat="46.18463022" lon="6.06713709"><ele>416.388184</ele><time>2009-10-19T12:24:43Z</time></trkpt>
<trkpt lat="46.18466416" lon="6.06704707"><ele>416.388184</ele><time>2009-10-19T12:24:44Z</time></trkpt>
<trkpt lat="46.18469845" lon="6.06695596"><ele>415.907471</ele><time>2009-10-19T12:24:45Z</time></trkpt>
<trkpt lat="46.18473139" lon="6.06686309"><ele>415.42688</ele><time>2009-10-19T12:24:46Z</time></trkpt>
<trkpt lat="46.18476475" lon="6.06677089"><ele>415.42688</ele><time>2009-10-19T12:24:47Z</time></trkpt>
<trkpt lat="46.18479786" lon="6.06667944"><ele>414.946167</ele><time>2009-10-19T12:24:48Z</time></trkpt>
<trkpt lat="46.18483205" lon="6.06658867"><ele>414.946167</ele><time>2009-10-19T12:24:49Z</time></trkpt>
<trkpt lat="46.18486684" lon="6.06649747"><ele>414.465454</ele><time>2009-10-19T12:24:50Z</time></trkpt>
<trkpt lat="46.18489995" lon="6.06640292"><ele>413.984863</ele><time>2009-10-19T12:24:51Z</time></trkpt>
<trkpt lat="46.18493398" lon="6.06630594"><ele>413.504272</ele><time>2009-10-19T12:24:52Z</time></trkpt>
<trkpt lat="46.18496834" lon="6.06620762"><ele>413.02356</ele><time>2009-10-19T12:24:53Z</time></trkpt>
<trkpt lat="46.18500464" lon="6.06610755"><ele>412.542847</ele><time>2009-10-19T12:24:54Z</time></trkpt>
<trkpt lat="46.18504026" lon="6.06600705"><ele>411.581665</ele><time>2009-10-19T12:24:55Z</time></trkpt>
<trkpt lat="46.18507764" lon="6.06591049"><ele>411.100952</ele><time>2009-10-19T12:24:56Z</time></trkpt>
<trkpt lat="46.18511645" lon="6.06581720"><ele>411.100952</ele><time>2009-10-19T12:24:57Z</time></trkpt>
<trkpt lat="46.18515199" lon="6.06572575"><ele>410.620239</ele><time>2009-10-19T12:24:58Z</time></trkpt>
<trkpt lat="46.18518284" lon="6.06563212"><ele>410.620239</ele><time>2009-10-19T12:24:59Z</time></trkpt>
<trkpt lat="46.18519709" lon="6.06553447"><ele>410.139648</ele><time>2009-10-19T12:25:00Z</time></trkpt>
<trkpt lat="46.18518619" lon="6.06543716"><ele>410.139648</ele><time>2009-10-19T12:25:01Z</time></trkpt>
<trkpt lat="46.18515618" lon="6.06535099"><ele>410.139648</ele><time>2009-10-19T12:25:02Z</time></trkpt>
<trkpt lat="46.18511519" lon="6.06526617"><ele>409.659058</ele><time>2009-10-19T12:25:03Z</time></trkpt>
<trkpt lat="46.18507395" lon="6.06517699"><ele>409.659058</ele><time>2009-10-19T12:25:04Z</time></trkpt>
<trkpt lat="46.18503012" lon="6.06508512"><ele>409.659058</ele><time>2009-10-19T12:25:05Z</time></trkpt>
<trkpt lat="46.18498402" lon="6.06499166"><ele>409.659058</ele><time>2009-10-19T12:25:06Z</time></trkpt>
<trkpt lat="46.18493507" lon="6.06489619"><ele>409.659058</ele><time>2009-10-19T12:25:07Z</time></trkpt>
<trkpt lat="46.18488385" lon="6.06479779"><ele>409.659058</ele><time>2009-10-19T12:25:08Z</time></trkpt>
<trkpt lat="46.18483088" lon="6.06469578"><ele>409.178345</ele><time>2009-10-19T12:25:09Z</time></trkpt>
<trkpt lat="46.18477807" lon="6.06459562"><ele>408.697632</ele><time>2009-10-19T12:25:10Z</time></trkpt>
<trkpt lat="46.18472359" lon="6.06449897"><ele>408.217041</ele><time>2009-10-19T12:25:11Z</time></trkpt>
<trkpt lat="46.18466869" lon="6.06440535"><ele>408.217041</ele><time>2009-10-19T12:25:12Z</time></trkpt>
<trkpt lat="46.18461387" lon="6.06431549"><ele>407.736328</ele><time>2009-10-19T12:25:13Z</time></trkpt>
<trkpt lat="46.18455755" lon="6.06423025"><ele>407.255615</ele><time>2009-10-19T12:25:14Z</time></trkpt>
<trkpt lat="46.18450105" lon="6.06414995"><ele>407.255615</ele><time>2009-10-19T12:25:15Z</time></trkpt>
<trkpt lat="46.18444464" lon="6.06407334"><ele>407.255615</ele><time>2009-10-19T12:25:16Z</time></trkpt>
<trkpt lat="46.18438806" lon="6.06400193"><ele>407.255615</ele><time>2009-10-19T12:25:17Z</time></trkpt>
<trkpt lat="46.18433098" lon="6.06393663"><ele>407.255615</ele><time>2009-10-19T12:25:18Z</time></trkpt>
<trkpt lat="46.18427063" lon="6.06387704"><ele>406.774902</ele><time>2009-10-19T12:25:19Z</time></trkpt>
<trkpt lat="46.18421372" lon="6.06382105"><ele>406.774902</ele><time>2009-10-19T12:25:20Z</time></trkpt>
<trkpt lat="46.18415765" lon="6.06376816"><ele>406.774902</ele><time>2009-10-19T12:25:21Z</time></trkpt>
<trkpt lat="46.18410107" lon="6.06371996"><ele>407.255615</ele><time>2009-10-19T12:25:22Z</time></trkpt>
<trkpt lat="46.18404365" lon="6.06367386"><ele>407.255615</ele><time>2009-10-19T12:25:23Z</time></trkpt>
<trkpt lat="46.18398774" lon="6.06362927"><ele>407.736328</ele><time>2009-10-19T12:25:24Z</time></trkpt>
<trkpt lat="46.18393268" lon="6.06358585"><ele>407.736328</ele><time>2009-10-19T12:25:25Z</time></trkpt>
<trkpt lat="46.18387903" lon="6.06354344"><ele>408.217041</ele><time>2009-10-19T12:25:26Z</time></trkpt>
<trkpt lat="46.18382799" lon="6.06350228"><ele>408.217041</ele><time>2009-10-19T12:25:27Z</time></trkpt>
<trkpt lat="46.18377769" lon="6.06346440"><ele>408.697632</ele><time>2009-10-19T12:25:28Z</time></trkpt>
<trkpt lat="46.18372975" lon="6.06342869"><ele>408.697632</ele><time>2009-10-19T12:25:29Z</time></trkpt>
<trkpt lat="46.18368398" lon="6.06339139"><ele>408.697632</ele><time>2009-10-19T12:25:30Z</time></trkpt>
<trkpt lat="46.18363939" lon="6.06335526"><ele>409.178345</ele><time>2009-10-19T12:25:31Z</time></trkpt>
<trkpt lat="46.18359363" lon="6.06332115"><ele>409.178345</ele><time>2009-10-19T12:25:32Z</time></trkpt>
<trkpt lat="46.18355256" lon="6.06329072"><ele>410.139648</ele><time>2009-10-19T12:25:33Z</time></trkpt>
<trkpt lat="46.18351459" lon="6.06326097"><ele>411.100952</ele><time>2009-10-19T12:25:34Z</time></trkpt>
<trkpt lat="46.18347184" lon="6.06322643"><ele>411.581665</ele><time>2009-10-19T12:25:35Z</time></trkpt>
<trkpt lat="46.18342582" lon="6.06319022"><ele>412.062256</ele><time>2009-10-19T12:25:36Z</time></trkpt>
<trkpt lat="46.18337913" lon="6.06315502"><ele>412.062256</ele><time>2009-10-19T12:25:37Z</time></trkpt>
<trkpt lat="46.18333169" lon="6.06311906"><ele>412.062256</ele><time>2009-10-19T12:25:38Z</time></trkpt>
<trkpt lat="46.18328056" lon="6.06308243"><ele>412.062256</ele><time>2009-10-19T12:25:39Z</time></trkpt>
<trkpt lat="46.18322968" lon="6.06304714"><ele>412.062256</ele><time>2009-10-19T12:25:40Z</time></trkpt>
<trkpt lat="46.18317646" lon="6.06300926"><ele>412.062256</ele><time>2009-10-19T12:25:41Z</time></trkpt>
<trkpt lat="46.18312365" lon="6.06296877"><ele>412.062256</ele><time>2009-10-19T12:25:42Z</time></trkpt>
<trkpt lat="46.18307529" lon="6.06292603"><ele>412.062256</ele><time>2009-10-19T12:25:43Z</time></trkpt>
<trkpt lat="46.18303422" lon="6.06288110"><ele>412.062256</ele><time>2009-10-19T12:25:44Z</time></trkpt>
<trkpt lat="46.18299910" lon="6.06282796"><ele>412.062256</ele><time>2009-10-19T12:25:45Z</time></trkpt>
<trkpt lat="46.18296859" lon="6.06276887"><ele>412.542847</ele><time>2009-10-19T12:25:46Z</time></trkpt>
<trkpt lat="46.18293766" lon="6.06270810"><ele>412.542847</ele><time>2009-10-19T12:25:47Z</time></trkpt>
<trkpt lat="46.18289860" lon="6.06265688"><ele>412.542847</ele><time>2009-10-19T12:25:48Z</time></trkpt>
<trkpt lat="46.18284269" lon="6.06262503"><ele>412.542847</ele><time>2009-10-19T12:25:49Z</time></trkpt>
<trkpt lat="46.18278444" lon="6.06261774"><ele>412.542847</ele><time>2009-10-19T12:25:50Z</time></trkpt>
<trkpt lat="46.18272576" lon="6.06262126"><ele>412.542847</ele><time>2009-10-19T12:25:51Z</time></trkpt>
<trkpt lat="46.18266919" lon="6.06261472"><ele>413.02356</ele><time>2009-10-19T12:25:52Z</time></trkpt>
<trkpt lat="46.18261672" lon="6.06258698"><ele>413.02356</ele><time>2009-10-19T12:25:53Z</time></trkpt>
<trkpt lat="46.18257036" lon="6.06255068"><ele>413.02356</ele><time>2009-10-19T12:25:54Z</time></trkpt>
<trkpt lat="46.18252854" lon="6.06251766"><ele>413.02356</ele><time>2009-10-19T12:25:55Z</time></trkpt>
<trkpt lat="46.18248462" lon="6.06248564"><ele>413.02356</ele><time>2009-10-19T12:25:56Z</time></trkpt>
<trkpt lat="46.18243977" lon="6.06245387"><ele>413.02356</ele><time>2009-10-19T12:25:57Z</time></trkpt>
<trkpt lat="46.18239569" lon="6.06241926"><ele>413.504272</ele><time>2009-10-19T12:25:58Z</time></trkpt>
<trkpt lat="46.18235218" lon="6.06238464"><ele>413.504272</ele><time>2009-10-19T12:25:59Z</time></trkpt>
<trkpt lat="46.18230868" lon="6.06235145"><ele>413.504272</ele><time>2009-10-19T12:26:00Z</time></trkpt>
<trkpt lat="46.18226484" lon="6.06231725"><ele>413.504272</ele><time>2009-10-19T12:26:01Z</time></trkpt>
<trkpt lat="46.18222168" lon="6.06228288"><ele>413.504272</ele><time>2009-10-19T12:26:02Z</time></trkpt>
<trkpt lat="46.18217994" lon="6.06224936"><ele>413.984863</ele><time>2009-10-19T12:26:03Z</time></trkpt>
<trkpt lat="46.18214004" lon="6.06221893"><ele>413.984863</ele><time>2009-10-19T12:26:04Z</time></trkpt>
<trkpt lat="46.18209888" lon="6.06218783"><ele>413.984863</ele><time>2009-10-19T12:26:05Z</time></trkpt>
<trkpt lat="46.18205949" lon="6.06215992"><ele>414.465454</ele><time>2009-10-19T12:26:06Z</time></trkpt>
<trkpt lat="46.18201624" lon="6.06212698"><ele>414.465454</ele><time>2009-10-19T12:26:07Z</time></trkpt>
<trkpt lat="46.18197542" lon="6.06209613"><ele>414.946167</ele><time>2009-10-19T12:26:08Z</time></trkpt>
<trkpt lat="46.18193527" lon="6.06206655"><ele>415.42688</ele><time>2009-10-19T12:26:09Z</time></trkpt>
<trkpt lat="46.18189445" lon="6.06203746"><ele>415.42688</ele><time>2009-10-19T12:26:10Z</time></trkpt>
<trkpt lat="46.18184977" lon="6.06200377"><ele>414.946167</ele><time>2009-10-19T12:26:11Z</time></trkpt>
<trkpt lat="46.18180644" lon="6.06197183"><ele>414.946167</ele><time>2009-10-19T12:26:12Z</time></trkpt>
<trkpt lat="46.18176394" lon="6.06194065"><ele>414.946167</ele><time>2009-10-19T12:26:13Z</time></trkpt>
<trkpt lat="46.18172304" lon="6.06190913"><ele>415.42688</ele><time>2009-10-19T12:26:14Z</time></trkpt>
<trkpt lat="46.18168180" lon="6.06187619"><ele>415.907471</ele><time>2009-10-19T12:26:15Z</time></trkpt>
<trkpt lat="46.18163989" lon="6.06184409"><ele>415.907471</ele><time>2009-10-19T12:26:16Z</time></trkpt>
<trkpt lat="46.18159899" lon="6.06181425"><ele>416.388184</ele><time>2009-10-19T12:26:17Z</time></trkpt>
<trkpt lat="46.18155599" lon="6.06178240"><ele>416.868896</ele><time>2009-10-19T12:26:18Z</time></trkpt>
<trkpt lat="46.18151248" lon="6.06174929"><ele>416.868896</ele><time>2009-10-19T12:26:19Z</time></trkpt>
<trkpt lat="46.18146982" lon="6.06171618"><ele>416.868896</ele><time>2009-10-19T12:26:20Z</time></trkpt>
<trkpt lat="46.18142808" lon="6.06168282"><ele>416.868896</ele><time>2009-10-19T12:26:21Z</time></trkpt>
<trkpt lat="46.18138516" lon="6.06164896"><ele>416.868896</ele><time>2009-10-19T12:26:22Z</time></trkpt>
<trkpt lat="46.18134267" lon="6.06161786"><ele>416.868896</ele><time>2009-10-19T12:26:23Z</time></trkpt>
<trkpt lat="46.18130176" lon="6.06158894"><ele>417.349609</ele><time>2009-10-19T12:26:24Z</time></trkpt>
<trkpt lat="46.18126027" lon="6.06155818"><ele>417.8302</ele><time>2009-10-19T12:26:25Z</time></trkpt>
<trkpt lat="46.18121870" lon="6.06152633"><ele>417.8302</ele><time>2009-10-19T12:26:26Z</time></trkpt>
<trkpt lat="46.18117704" lon="6.06149465"><ele>417.349609</ele><time>2009-10-19T12:26:27Z</time></trkpt>
<trkpt lat="46.18113563" lon="6.06146338"><ele>417.349609</ele><time>2009-10-19T12:26:28Z</time></trkpt>
<trkpt lat="46.18109465" lon="6.06143313"><ele>417.8302</ele><time>2009-10-19T12:26:29Z</time></trkpt>
<trkpt lat="46.18105466" lon="6.06140379"><ele>417.8302</ele><time>2009-10-19T12:26:30Z</time></trkpt>
<trkpt lat="46.18101586" lon="6.06137428"><ele>417.8302</ele><time>2009-10-19T12:26:31Z</time></trkpt>
<trkpt lat="46.18097822" lon="6.06134579"><ele>417.8302</ele><time>2009-10-19T12:26:32Z</time></trkpt>
<trkpt lat="46.18094143" lon="6.06131804"><ele>417.8302</ele><time>2009-10-19T12:26:33Z</time></trkpt>
<trkpt lat="46.18090438" lon="6.06128946"><ele>417.8302</ele><time>2009-10-19T12:26:34Z</time></trkpt>
<trkpt lat="46.18086716" lon="6.06126222"><ele>417.8302</ele><time>2009-10-19T12:26:35Z</time></trkpt>
<trkpt lat="46.18083045" lon="6.06123590"><ele>418.310791</ele><time>2009-10-19T12:26:36Z</time></trkpt>
<trkpt lat="46.18079198" lon="6.06120807"><ele>418.310791</ele><time>2009-10-19T12:26:37Z</time></trkpt>
<trkpt lat="46.18075459" lon="6.06117974"><ele>418.791504</ele><time>2009-10-19T12:26:38Z</time></trkpt>
<trkpt lat="46.18071729" lon="6.06115158"><ele>418.310791</ele><time>2009-10-19T12:26:39Z</time></trkpt>
<trkpt lat="46.18067823" lon="6.06112375"><ele>417.8302</ele><time>2009-10-19T12:26:40Z</time></trkpt>
<trkpt lat="46.18064077" lon="6.06109844"><ele>417.349609</ele><time>2009-10-19T12:26:41Z</time></trkpt>
<trkpt lat="46.18060472" lon="6.06107522"><ele>417.349609</ele><time>2009-10-19T12:26:42Z</time></trkpt>
<trkpt lat="46.18056935" lon="6.06105166"><ele>417.349609</ele><time>2009-10-19T12:26:43Z</time></trkpt>
<trkpt lat="46.18053457" lon="6.06102618"><ele>417.349609</ele><time>2009-10-19T12:26:44Z</time></trkpt>
<trkpt lat="46.18050347" lon="6.06100406"><ele>417.349609</ele><time>2009-10-19T12:26:45Z</time></trkpt>
<trkpt lat="46.18046885" lon="6.06097774"><ele>417.8302</ele><time>2009-10-19T12:26:46Z</time></trkpt>
<trkpt lat="46.18043239" lon="6.06095142"><ele>416.868896</ele><time>2009-10-19T12:26:47Z</time></trkpt>
<trkpt lat="46.18040465" lon="6.06093038"><ele>416.868896</ele><time>2009-10-19T12:26:48Z</time></trkpt>
<trkpt lat="46.18038394" lon="6.06091253"><ele>416.868896</ele><time>2009-10-19T12:26:49Z</time></trkpt>
<trkpt lat="46.18036517" lon="6.06089543"><ele>416.868896</ele><time>2009-10-19T12:26:50Z</time></trkpt>
<trkpt lat="46.18034715" lon="6.06087724"><ele>417.349609</ele><time>2009-10-19T12:26:51Z</time></trkpt>
<trkpt lat="46.18032787" lon="6.06085645"><ele>417.349609</ele><time>2009-10-19T12:26:52Z</time></trkpt>
<trkpt lat="46.18030398" lon="6.06083533"><ele>417.349609</ele><time>2009-10-19T12:26:53Z</time></trkpt>
<trkpt lat="46.18027339" lon="6.06081395"><ele>417.349609</ele><time>2009-10-19T12:26:54Z</time></trkpt>
<trkpt lat="46.18023969" lon="6.06079459"><ele>417.349609</ele><time>2009-10-19T12:26:55Z</time></trkpt>
<trkpt lat="46.18020449" lon="6.06076836"><ele>417.349609</ele><time>2009-10-19T12:26:56Z</time></trkpt>
<trkpt lat="46.18016275" lon="6.06073298"><ele>415.907471</ele><time>2009-10-19T12:26:57Z</time></trkpt>
<trkpt lat="46.18012696" lon="6.06070675"><ele>415.907471</ele><time>2009-10-19T12:26:58Z</time></trkpt>
<trkpt lat="46.18008798" lon="6.06067775"><ele>415.907471</ele><time>2009-10-19T12:26:59Z</time></trkpt>
<trkpt lat="46.18004825" lon="6.06064850"><ele>415.42688</ele><time>2009-10-19T12:27:00Z</time></trkpt>
<trkpt lat="46.18000802" lon="6.06061907"><ele>415.42688</ele><time>2009-10-19T12:27:01Z</time></trkpt>
<trkpt lat="46.17996862" lon="6.06059108"><ele>415.42688</ele><time>2009-10-19T12:27:02Z</time></trkpt>
<trkpt lat="46.17993048" lon="6.06056535"><ele>415.42688</ele><time>2009-10-19T12:27:03Z</time></trkpt>
<trkpt lat="46.17989193" lon="6.06053618"><ele>415.42688</ele><time>2009-10-19T12:27:04Z</time></trkpt>
<trkpt lat="46.17985329" lon="6.06050525"><ele>415.42688</ele><time>2009-10-19T12:27:05Z</time></trkpt>
<trkpt lat="46.17981314" lon="6.06047340"><ele>415.42688</ele><time>2009-10-19T12:27:06Z</time></trkpt>
<trkpt lat="46.17977299" lon="6.06044146"><ele>415.42688</ele><time>2009-10-19T12:27:07Z</time></trkpt>
<trkpt lat="46.17973242" lon="6.06040995"><ele>415.42688</ele><time>2009-10-19T12:27:08Z</time></trkpt>
<trkpt lat="46.17969177" lon="6.06037893"><ele>415.42688</ele><time>2009-10-19T12:27:09Z</time></trkpt>
<trkpt lat="46.17965095" lon="6.06034775"><ele>415.42688</ele><time>2009-10-19T12:27:10Z</time></trkpt>
<trkpt lat="46.17960895" lon="6.06031423"><ele>414.465454</ele><time>2009-10-19T12:27:11Z</time></trkpt>
<trkpt lat="46.17956889" lon="6.06028112"><ele>413.984863</ele><time>2009-10-19T12:27:12Z</time></trkpt>
<trkpt lat="46.17952949" lon="6.06025237"><ele>413.504272</ele><time>2009-10-19T12:27:13Z</time></trkpt>
<trkpt lat="46.17949069" lon="6.06022789"><ele>413.02356</ele><time>2009-10-19T12:27:14Z</time></trkpt>
<trkpt lat="46.17945448" lon="6.06020258"><ele>412.542847</ele><time>2009-10-19T12:27:15Z</time></trkpt>
<trkpt lat="46.17942103" lon="6.06017567"><ele>412.542847</ele><time>2009-10-19T12:27:16Z</time></trkpt>
<trkpt lat="46.17938834" lon="6.06014843"><ele>412.062256</ele><time>2009-10-19T12:27:17Z</time></trkpt>
<trkpt lat="46.17935565" lon="6.06012270"><ele>412.062256</ele><time>2009-10-19T12:27:18Z</time></trkpt>
<trkpt lat="46.17931877" lon="6.06009554"><ele>412.062256</ele><time>2009-10-19T12:27:19Z</time></trkpt>
<trkpt lat="46.17927929" lon="6.06006713"><ele>412.062256</ele><time>2009-10-19T12:27:20Z</time></trkpt>
<trkpt lat="46.17923847" lon="6.06003737"><ele>412.062256</ele><time>2009-10-19T12:27:21Z</time></trkpt>
<trkpt lat="46.17919724" lon="6.06000703"><ele>412.062256</ele><time>2009-10-19T12:27:22Z</time></trkpt>
<trkpt lat="46.17915298" lon="6.05997409"><ele>411.581665</ele><time>2009-10-19T12:27:23Z</time></trkpt>
<trkpt lat="46.17910864" lon="6.05994048"><ele>411.100952</ele><time>2009-10-19T12:27:24Z</time></trkpt>
<trkpt lat="46.17906773" lon="6.05990955"><ele>411.100952</ele><time>2009-10-19T12:27:25Z</time></trkpt>
<trkpt lat="46.17902775" lon="6.05987879"><ele>411.100952</ele><time>2009-10-19T12:27:26Z</time></trkpt>
<trkpt lat="46.17899339" lon="6.05984165"><ele>411.100952</ele><time>2009-10-19T12:27:27Z</time></trkpt>
<trkpt lat="46.17896849" lon="6.05979178"><ele>411.100952</ele><time>2009-10-19T12:27:28Z</time></trkpt>
<trkpt lat="46.17895567" lon="6.05973118"><ele>411.100952</ele><time>2009-10-19T12:27:29Z</time></trkpt>
<trkpt lat="46.17895416" lon="6.05966396"><ele>411.100952</ele><time>2009-10-19T12:27:30Z</time></trkpt>
<trkpt lat="46.17895642" lon="6.05959405"><ele>411.581665</ele><time>2009-10-19T12:27:31Z</time></trkpt>
<trkpt lat="46.17895843" lon="6.05952306"><ele>412.062256</ele><time>2009-10-19T12:27:32Z</time></trkpt>
<trkpt lat="46.17896154" lon="6.05945173"><ele>412.062256</ele><time>2009-10-19T12:27:33Z</time></trkpt>
<trkpt lat="46.17896589" lon="6.05938023"><ele>412.542847</ele><time>2009-10-19T12:27:34Z</time></trkpt>
<trkpt lat="46.17896874" lon="6.05930806"><ele>412.542847</ele><time>2009-10-19T12:27:35Z</time></trkpt>
<trkpt lat="46.17896724" lon="6.05923556"><ele>412.542847</ele><time>2009-10-19T12:27:36Z</time></trkpt>
<trkpt lat="46.17896673" lon="6.05916699"><ele>412.542847</ele><time>2009-10-19T12:27:37Z</time></trkpt>
<trkpt lat="46.17897226" lon="6.05910086"><ele>413.02356</ele><time>2009-10-19T12:27:38Z</time></trkpt>
<trkpt lat="46.17897729" lon="6.05903188"><ele>413.504272</ele><time>2009-10-19T12:27:39Z</time></trkpt>
<trkpt lat="46.17898266" lon="6.05895979"><ele>413.984863</ele><time>2009-10-19T12:27:40Z</time></trkpt>
<trkpt lat="46.17898794" lon="6.05888486"><ele>413.984863</ele><time>2009-10-19T12:27:41Z</time></trkpt>
<trkpt lat="46.17898978" lon="6.05880716"><ele>414.465454</ele><time>2009-10-19T12:27:42Z</time></trkpt>
<trkpt lat="46.17899112" lon="6.05872887"><ele>414.465454</ele><time>2009-10-19T12:27:43Z</time></trkpt>
<trkpt lat="46.17899322" lon="6.05865025"><ele>414.465454</ele><time>2009-10-19T12:27:44Z</time></trkpt>
<trkpt lat="46.17899523" lon="6.05857163"><ele>414.465454</ele><time>2009-10-19T12:27:45Z</time></trkpt>
<trkpt lat="46.17899708" lon="6.05849292"><ele>414.946167</ele><time>2009-10-19T12:27:46Z</time></trkpt>
<trkpt lat="46.17899867" lon="6.05841388"><ele>414.946167</ele><time>2009-10-19T12:27:47Z</time></trkpt>
<trkpt lat="46.17899892" lon="6.05833459"><ele>414.946167</ele><time>2009-10-19T12:27:48Z</time></trkpt>
<trkpt lat="46.17899833" lon="6.05825395"><ele>414.465454</ele><time>2009-10-19T12:27:49Z</time></trkpt>
<trkpt lat="46.17900152" lon="6.05817248"><ele>414.946167</ele><time>2009-10-19T12:27:50Z</time></trkpt>
<trkpt lat="46.17900604" lon="6.05809118"><ele>415.42688</ele><time>2009-10-19T12:27:51Z</time></trkpt>
<trkpt lat="46.17901107" lon="6.05800945"><ele>415.42688</ele><time>2009-10-19T12:27:52Z</time></trkpt>
<trkpt lat="46.17901417" lon="6.05792672"><ele>415.907471</ele><time>2009-10-19T12:27:53Z</time></trkpt>
<trkpt lat="46.17901728" lon="6.05784408"><ele>415.907471</ele><time>2009-10-19T12:27:54Z</time></trkpt>
<trkpt lat="46.17902222" lon="6.05776244"><ele>415.907471</ele><time>2009-10-19T12:27:55Z</time></trkpt>
<trkpt lat="46.17902658" lon="6.05768063"><ele>415.907471</ele><time>2009-10-19T12:27:56Z</time></trkpt>
<trkpt lat="46.17903018" lon="6.05759799"><ele>416.388184</ele><time>2009-10-19T12:27:57Z</time></trkpt>
<trkpt lat="46.17903479" lon="6.05751534"><ele>416.388184</ele><time>2009-10-19T12:27:58Z</time></trkpt>
<trkpt lat="46.17903907" lon="6.05743362"><ele>416.868896</ele><time>2009-10-19T12:27:59Z</time></trkpt>
<trkpt lat="46.17904284" lon="6.05735374"><ele>416.868896</ele><time>2009-10-19T12:28:00Z</time></trkpt>
<trkpt lat="46.17904385" lon="6.05727738"><ele>416.868896</ele><time>2009-10-19T12:28:01Z</time></trkpt>
<trkpt lat="46.17904116" lon="6.05720177"><ele>416.388184</ele><time>2009-10-19T12:28:02Z</time></trkpt>
<trkpt lat="46.17904133" lon="6.05712567"><ele>416.388184</ele><time>2009-10-19T12:28:03Z</time></trkpt>
<trkpt lat="46.17904267" lon="6.05705149"><ele>416.868896</ele><time>2009-10-19T12:28:04Z</time></trkpt>
<trkpt lat="46.17904150" lon="6.05698032"><ele>416.868896</ele><time>2009-10-19T12:28:05Z</time></trkpt>
<trkpt lat="46.17904058" lon="6.05690815"><ele>416.868896</ele><time>2009-10-19T12:28:06Z</time></trkpt>
<trkpt lat="46.17904158" lon="6.05683498"><ele>416.868896</ele><time>2009-10-19T12:28:07Z</time></trkpt>
<trkpt lat="46.17904753" lon="6.05676156"><ele>417.349609</ele><time>2009-10-19T12:28:08Z</time></trkpt>
<trkpt lat="46.17905139" lon="6.05669073"><ele>417.8302</ele><time>2009-10-19T12:28:09Z</time></trkpt>
<trkpt lat="46.17905097" lon="6.05661940"><ele>417.8302</ele><time>2009-10-19T12:28:10Z</time></trkpt>
<trkpt lat="46.17904485" lon="6.05654782"><ele>418.310791</ele><time>2009-10-19T12:28:11Z</time></trkpt>
<trkpt lat="46.17903463" lon="6.05647556"><ele>418.310791</ele><time>2009-10-19T12:28:12Z</time></trkpt>
<trkpt lat="46.17902054" lon="6.05640264"><ele>417.8302</ele><time>2009-10-19T12:28:13Z</time></trkpt>
<trkpt lat="46.17900562" lon="6.05632989"><ele>417.8302</ele><time>2009-10-19T12:28:14Z</time></trkpt>
<trkpt lat="46.17899196" lon="6.05625805"><ele>417.8302</ele><time>2009-10-19T12:28:15Z</time></trkpt>
<trkpt lat="46.17897319" lon="6.05618656"><ele>417.8302</ele><time>2009-10-19T12:28:16Z</time></trkpt>
<trkpt lat="46.17895902" lon="6.05612076"><ele>418.310791</ele><time>2009-10-19T12:28:17Z</time></trkpt>
<trkpt lat="46.17894628" lon="6.05605655"><ele>418.791504</ele><time>2009-10-19T12:28:18Z</time></trkpt>
<trkpt lat="46.17892633" lon="6.05598765"><ele>418.310791</ele><time>2009-10-19T12:28:19Z</time></trkpt>
<trkpt lat="46.17891083" lon="6.05591867"><ele>418.791504</ele><time>2009-10-19T12:28:20Z</time></trkpt>
<trkpt lat="46.17889524" lon="6.05584566"><ele>418.310791</ele><time>2009-10-19T12:28:21Z</time></trkpt>
<trkpt lat="46.17888333" lon="6.05577467"><ele>418.310791</ele><time>2009-10-19T12:28:22Z</time></trkpt>
<trkpt lat="46.17887646" lon="6.05570309"><ele>418.310791</ele><time>2009-10-19T12:28:23Z</time></trkpt>
<trkpt lat="46.17887193" lon="6.05563268"><ele>418.310791</ele><time>2009-10-19T12:28:24Z</time></trkpt>
<trkpt lat="46.17886414" lon="6.05556110"><ele>418.310791</ele><time>2009-10-19T12:28:25Z</time></trkpt>
<trkpt lat="46.17885852" lon="6.05549086"><ele>418.310791</ele><time>2009-10-19T12:28:26Z</time></trkpt>
<trkpt lat="46.17885123" lon="6.05541970"><ele>418.310791</ele><time>2009-10-19T12:28:27Z</time></trkpt>
<trkpt lat="46.17884075" lon="6.05534837"><ele>418.310791</ele><time>2009-10-19T12:28:28Z</time></trkpt>
<trkpt lat="46.17882927" lon="6.05527779"><ele>418.310791</ele><time>2009-10-19T12:28:29Z</time></trkpt>
<trkpt lat="46.17881862" lon="6.05520763"><ele>418.310791</ele><time>2009-10-19T12:28:30Z</time></trkpt>
<trkpt lat="46.17880555" lon="6.05513622"><ele>417.8302</ele><time>2009-10-19T12:28:31Z</time></trkpt>
<trkpt lat="46.17878753" lon="6.05506556"><ele>417.8302</ele><time>2009-10-19T12:28:32Z</time></trkpt>
<trkpt lat="46.17877755" lon="6.05499784"><ele>417.8302</ele><time>2009-10-19T12:28:33Z</time></trkpt>
<trkpt lat="46.17876138" lon="6.05493656"><ele>418.310791</ele><time>2009-10-19T12:28:34Z</time></trkpt>
<trkpt lat="46.17873883" lon="6.05487965"><ele>418.310791</ele><time>2009-10-19T12:28:35Z</time></trkpt>
<trkpt lat="46.17871595" lon="6.05482324"><ele>417.8302</ele><time>2009-10-19T12:28:36Z</time></trkpt>
<trkpt lat="46.17869348" lon="6.05476473"><ele>417.8302</ele><time>2009-10-19T12:28:37Z</time></trkpt>
<trkpt lat="46.17866943" lon="6.05470598"><ele>417.349609</ele><time>2009-10-19T12:28:38Z</time></trkpt>
<trkpt lat="46.17864420" lon="6.05464814"><ele>417.349609</ele><time>2009-10-19T12:28:39Z</time></trkpt>
<trkpt lat="46.17861880" lon="6.05459089"><ele>416.868896</ele><time>2009-10-19T12:28:40Z</time></trkpt>
<trkpt lat="46.17859290" lon="6.05453373"><ele>416.868896</ele><time>2009-10-19T12:28:41Z</time></trkpt>
<trkpt lat="46.17856650" lon="6.05447724"><ele>416.388184</ele><time>2009-10-19T12:28:42Z</time></trkpt>
<trkpt lat="46.17854085" lon="6.05442108"><ele>416.388184</ele><time>2009-10-19T12:28:43Z</time></trkpt>
<trkpt lat="46.17851646" lon="6.05436517"><ele>415.907471</ele><time>2009-10-19T12:28:44Z</time></trkpt>
<trkpt lat="46.17849248" lon="6.05430876"><ele>415.907471</ele><time>2009-10-19T12:28:45Z</time></trkpt>
<trkpt lat="46.17846868" lon="6.05425109"><ele>415.907471</ele><time>2009-10-19T12:28:46Z</time></trkpt>
<trkpt lat="46.17844404" lon="6.05419359"><ele>415.42688</ele><time>2009-10-19T12:28:47Z</time></trkpt>
<trkpt lat="46.17841763" lon="6.05413710"><ele>415.42688</ele><time>2009-10-19T12:28:48Z</time></trkpt>
<trkpt lat="46.17839073" lon="6.05407935"><ele>414.946167</ele><time>2009-10-19T12:28:49Z</time></trkpt>
<trkpt lat="46.17836399" lon="6.05402017"><ele>414.946167</ele><time>2009-10-19T12:28:50Z</time></trkpt>
<trkpt lat="46.17833675" lon="6.05396083"><ele>414.465454</ele><time>2009-10-19T12:28:51Z</time></trkpt>
<trkpt lat="46.17830875" lon="6.05390106"><ele>413.984863</ele><time>2009-10-19T12:28:52Z</time></trkpt>
<trkpt lat="46.17827967" lon="6.05384097"><ele>413.984863</ele><time>2009-10-19T12:28:53Z</time></trkpt>
<trkpt lat="46.17824882" lon="6.05378095"><ele>413.504272</ele><time>2009-10-19T12:28:54Z</time></trkpt>
<trkpt lat="46.17821664" lon="6.05372136"><ele>413.02356</ele><time>2009-10-19T12:28:55Z</time></trkpt>
<trkpt lat="46.17818286" lon="6.05366394"><ele>412.542847</ele><time>2009-10-19T12:28:56Z</time></trkpt>
<trkpt lat="46.17814640" lon="6.05360795"><ele>412.062256</ele><time>2009-10-19T12:28:57Z</time></trkpt>
<trkpt lat="46.17810708" lon="6.05355414"><ele>412.062256</ele><time>2009-10-19T12:28:58Z</time></trkpt>
<trkpt lat="46.17806484" lon="6.05350544"><ele>411.581665</ele><time>2009-10-19T12:28:59Z</time></trkpt>
<trkpt lat="46.17802469" lon="6.05346177"><ele>411.581665</ele><time>2009-10-19T12:29:00Z</time></trkpt>
<trkpt lat="46.17798463" lon="6.05341642"><ele>411.581665</ele><time>2009-10-19T12:29:01Z</time></trkpt>
<trkpt lat="46.17794339" lon="6.05337116"><ele>412.062256</ele><time>2009-10-19T12:29:02Z</time></trkpt>
<trkpt lat="46.17790366" lon="6.05333135"><ele>412.542847</ele><time>2009-10-19T12:29:03Z</time></trkpt>
<trkpt lat="46.17786602" lon="6.05329430"><ele>412.542847</ele><time>2009-10-19T12:29:04Z</time></trkpt>
<trkpt lat="46.17782285" lon="6.05325675"><ele>412.062256</ele><time>2009-10-19T12:29:05Z</time></trkpt>
<trkpt lat="46.17777550" lon="6.05321668"><ele>410.620239</ele><time>2009-10-19T12:29:06Z</time></trkpt>
<trkpt lat="46.17773367" lon="6.05318458"><ele>410.620239</ele><time>2009-10-19T12:29:07Z</time></trkpt>
<trkpt lat="46.17769076" lon="6.05315424"><ele>410.139648</ele><time>2009-10-19T12:29:08Z</time></trkpt>
<trkpt lat="46.17765178" lon="6.05312968"><ele>410.620239</ele><time>2009-10-19T12:29:09Z</time></trkpt>
<trkpt lat="46.17761012" lon="6.05310285"><ele>411.100952</ele><time>2009-10-19T12:29:10Z</time></trkpt>
<trkpt lat="46.17756897" lon="6.05307972"><ele>411.581665</ele><time>2009-10-19T12:29:11Z</time></trkpt>
<trkpt lat="46.17752220" lon="6.05304703"><ele>410.139648</ele><time>2009-10-19T12:29:12Z</time></trkpt>
<trkpt lat="46.17748146" lon="6.05302826"><ele>410.620239</ele><time>2009-10-19T12:29:13Z</time></trkpt>
<trkpt lat="46.17744139" lon="6.05301518"><ele>412.062256</ele><time>2009-10-19T12:29:14Z</time></trkpt>
<trkpt lat="46.17740133" lon="6.05300378"><ele>413.02356</ele><time>2009-10-19T12:29:15Z</time></trkpt>
<trkpt lat="46.17736294" lon="6.05299599"><ele>414.465454</ele><time>2009-10-19T12:29:16Z</time></trkpt>
<trkpt lat="46.17732128" lon="6.05298827"><ele>414.946167</ele><time>2009-10-19T12:29:17Z</time></trkpt>
<trkpt lat="46.17727895" lon="6.05298375"><ele>415.907471</ele><time>2009-10-19T12:29:18Z</time></trkpt>
<trkpt lat="46.17723746" lon="6.05297545"><ele>416.388184</ele><time>2009-10-19T12:29:19Z</time></trkpt>
<trkpt lat="46.17719639" lon="6.05296640"><ele>416.868896</ele><time>2009-10-19T12:29:20Z</time></trkpt>
<trkpt lat="46.17715549" lon="6.05295927"><ele>417.349609</ele><time>2009-10-19T12:29:21Z</time></trkpt>
<trkpt lat="46.17711542" lon="6.05295257"><ele>417.349609</ele><time>2009-10-19T12:29:22Z</time></trkpt>
<trkpt lat="46.17707569" lon="6.05294745"><ele>417.8302</ele><time>2009-10-19T12:29:23Z</time></trkpt>
<trkpt lat="46.17703680" lon="6.05294419"><ele>417.8302</ele><time>2009-10-19T12:29:24Z</time></trkpt>
<trkpt lat="46.17699849" lon="6.05293874"><ele>417.8302</ele><time>2009-10-19T12:29:25Z</time></trkpt>
<trkpt lat="46.17695977" lon="6.05293354"><ele>417.8302</ele><time>2009-10-19T12:29:26Z</time></trkpt>
<trkpt lat="46.17692063" lon="6.05293036"><ele>417.8302</ele><time>2009-10-19T12:29:27Z</time></trkpt>
<trkpt lat="46.17688123" lon="6.05292792"><ele>418.310791</ele><time>2009-10-19T12:29:28Z</time></trkpt>
<trkpt lat="46.17684226" lon="6.05292633"><ele>418.310791</ele><time>2009-10-19T12:29:29Z</time></trkpt>
<trkpt lat="46.17680269" lon="6.05292290"><ele>418.310791</ele><time>2009-10-19T12:29:30Z</time></trkpt>
<trkpt lat="46.17676246" lon="6.05291837"><ele>418.791504</ele><time>2009-10-19T12:29:31Z</time></trkpt>
<trkpt lat="46.17672298" lon="6.05291493"><ele>418.791504</ele><time>2009-10-19T12:29:32Z</time></trkpt>
<trkpt lat="46.17668417" lon="6.05291124"><ele>419.272217</ele><time>2009-10-19T12:29:33Z</time></trkpt>
<trkpt lat="46.17664595" lon="6.05290772"><ele>419.272217</ele><time>2009-10-19T12:29:34Z</time></trkpt>
<trkpt lat="46.17660865" lon="6.05290437"><ele>419.752808</ele><time>2009-10-19T12:29:35Z</time></trkpt>
<trkpt lat="46.17657194" lon="6.05290127"><ele>419.752808</ele><time>2009-10-19T12:29:36Z</time></trkpt>
<trkpt lat="46.17653389" lon="6.05289632"><ele>420.233398</ele><time>2009-10-19T12:29:37Z</time></trkpt>
<trkpt lat="46.17649659" lon="6.05289054"><ele>420.233398</ele><time>2009-10-19T12:29:38Z</time></trkpt>
<trkpt lat="46.17645929" lon="6.05288585"><ele>420.233398</ele><time>2009-10-19T12:29:39Z</time></trkpt>
<trkpt lat="46.17642199" lon="6.05288719"><ele>420.714111</ele><time>2009-10-19T12:29:40Z</time></trkpt>
<trkpt lat="46.17638393" lon="6.05288828"><ele>420.714111</ele><time>2009-10-19T12:29:41Z</time></trkpt>
<trkpt lat="46.17634563" lon="6.05288534"><ele>420.714111</ele><time>2009-10-19T12:29:42Z</time></trkpt>
<trkpt lat="46.17630715" lon="6.05288073"><ele>421.194824</ele><time>2009-10-19T12:29:43Z</time></trkpt>
<trkpt lat="46.17626810" lon="6.05287713"><ele>421.194824</ele><time>2009-10-19T12:29:44Z</time></trkpt>
<trkpt lat="46.17622878" lon="6.05287394"><ele>421.194824</ele><time>2009-10-19T12:29:45Z</time></trkpt>
<trkpt lat="46.17618956" lon="6.05287034"><ele>421.194824</ele><time>2009-10-19T12:29:46Z</time></trkpt>
<trkpt lat="46.17615075" lon="6.05286808"><ele>421.675415</ele><time>2009-10-19T12:29:47Z</time></trkpt>
<trkpt lat="46.17611244" lon="6.05286984"><ele>421.675415</ele><time>2009-10-19T12:29:48Z</time></trkpt>
<trkpt lat="46.17607447" lon="6.05287478"><ele>421.675415</ele><time>2009-10-19T12:29:49Z</time></trkpt>
<trkpt lat="46.17603374" lon="6.05287923"><ele>422.156006</ele><time>2009-10-19T12:29:50Z</time></trkpt>
<trkpt lat="46.17599132" lon="6.05288434"><ele>422.156006</ele><time>2009-10-19T12:29:51Z</time></trkpt>
<trkpt lat="46.17595042" lon="6.05289188"><ele>422.636719</ele><time>2009-10-19T12:29:52Z</time></trkpt>
<trkpt lat="46.17591027" lon="6.05289968"><ele>422.636719</ele><time>2009-10-19T12:29:53Z</time></trkpt>
<trkpt lat="46.17586979" lon="6.05290747"><ele>423.117432</ele><time>2009-10-19T12:29:54Z</time></trkpt>
<trkpt lat="46.17583014" lon="6.05291686"><ele>423.117432</ele><time>2009-10-19T12:29:55Z</time></trkpt>
<trkpt lat="46.17579108" lon="6.05292474"><ele>423.598022</ele><time>2009-10-19T12:29:56Z</time></trkpt>
<trkpt lat="46.17574942" lon="6.05293362"><ele>424.078735</ele><time>2009-10-19T12:29:57Z</time></trkpt>
<trkpt lat="46.17570902" lon="6.05294477"><ele>424.078735</ele><time>2009-10-19T12:29:58Z</time></trkpt>
<trkpt lat="46.17566904" lon="6.05295609"><ele>424.559448</ele><time>2009-10-19T12:29:59Z</time></trkpt>
<trkpt lat="46.17562872" lon="6.05296673"><ele>424.559448</ele><time>2009-10-19T12:30:00Z</time></trkpt>
<trkpt lat="46.17558849" lon="6.05297897"><ele>425.040161</ele><time>2009-10-19T12:30:01Z</time></trkpt>
<trkpt lat="46.17554792" lon="6.05299263"><ele>425.040161</ele><time>2009-10-19T12:30:02Z</time></trkpt>
<trkpt lat="46.17550677" lon="6.05300512"><ele>425.520752</ele><time>2009-10-19T12:30:03Z</time></trkpt>
<trkpt lat="46.17546477" lon="6.05301585"><ele>425.520752</ele><time>2009-10-19T12:30:04Z</time></trkpt>
<trkpt lat="46.17542295" lon="6.05302767"><ele>426.001343</ele><time>2009-10-19T12:30:05Z</time></trkpt>
<trkpt lat="46.17538129" lon="6.05304058"><ele>426.001343</ele><time>2009-10-19T12:30:06Z</time></trkpt>
<trkpt lat="46.17533955" lon="6.05305307"><ele>426.001343</ele><time>2009-10-19T12:30:07Z</time></trkpt>
<trkpt lat="46.17529806" lon="6.05306539"><ele>426.482056</ele><time>2009-10-19T12:30:08Z</time></trkpt>
<trkpt lat="46.17525707" lon="6.05307804"><ele>426.482056</ele><time>2009-10-19T12:30:09Z</time></trkpt>
<trkpt lat="46.17521625" lon="6.05309187"><ele>426.482056</ele><time>2009-10-19T12:30:10Z</time></trkpt>
<trkpt lat="46.17517543" lon="6.05310688"><ele>426.962769</ele><time>2009-10-19T12:30:11Z</time></trkpt>
<trkpt lat="46.17513444" lon="6.05312104"><ele>426.962769</ele><time>2009-10-19T12:30:12Z</time></trkpt>
<trkpt lat="46.17509304" lon="6.05313353"><ele>426.962769</ele><time>2009-10-19T12:30:13Z</time></trkpt>
<trkpt lat="46.17505129" lon="6.05314418"><ele>427.443359</ele><time>2009-10-19T12:30:14Z</time></trkpt>
<trkpt lat="46.17500905" lon="6.05315340"><ele>427.443359</ele><time>2009-10-19T12:30:15Z</time></trkpt>
<trkpt lat="46.17496689" lon="6.05316413"><ele>427.92395</ele><time>2009-10-19T12:30:16Z</time></trkpt>
<trkpt lat="46.17492464" lon="6.05317536"><ele>428.404663</ele><time>2009-10-19T12:30:17Z</time></trkpt>
<trkpt lat="46.17488273" lon="6.05318584"><ele>428.404663</ele><time>2009-10-19T12:30:18Z</time></trkpt>
<trkpt lat="46.17484158" lon="6.05319900"><ele>428.885376</ele><time>2009-10-19T12:30:19Z</time></trkpt>
<trkpt lat="46.17480017" lon="6.05321199"><ele>429.365967</ele><time>2009-10-19T12:30:20Z</time></trkpt>
<trkpt lat="46.17475860" lon="6.05322305"><ele>429.365967</ele><time>2009-10-19T12:30:21Z</time></trkpt>
<trkpt lat="46.17471728" lon="6.05323495"><ele>429.846558</ele><time>2009-10-19T12:30:22Z</time></trkpt>
<trkpt lat="46.17467654" lon="6.05324853"><ele>429.846558</ele><time>2009-10-19T12:30:23Z</time></trkpt>
<trkpt lat="46.17463522" lon="6.05326152"><ele>429.846558</ele><time>2009-10-19T12:30:24Z</time></trkpt>
<trkpt lat="46.17459364" lon="6.05327284"><ele>430.327271</ele><time>2009-10-19T12:30:25Z</time></trkpt>
<trkpt lat="46.17455257" lon="6.05328365"><ele>430.327271</ele><time>2009-10-19T12:30:26Z</time></trkpt>
<trkpt lat="46.17451209" lon="6.05329497"><ele>430.807983</ele><time>2009-10-19T12:30:27Z</time></trkpt>
<trkpt lat="46.17447152" lon="6.05330653"><ele>430.807983</ele><time>2009-10-19T12:30:28Z</time></trkpt>
<trkpt lat="46.17443095" lon="6.05331710"><ele>431.288574</ele><time>2009-10-19T12:30:29Z</time></trkpt>
<trkpt lat="46.17439088" lon="6.05332799"><ele>431.288574</ele><time>2009-10-19T12:30:30Z</time></trkpt>
<trkpt lat="46.17435157" lon="6.05334149"><ele>431.288574</ele><time>2009-10-19T12:30:31Z</time></trkpt>
<trkpt lat="46.17431377" lon="6.05335373"><ele>431.288574</ele><time>2009-10-19T12:30:32Z</time></trkpt>
<trkpt lat="46.17427647" lon="6.05336462"><ele>431.288574</ele><time>2009-10-19T12:30:33Z</time></trkpt>
<trkpt lat="46.17424068" lon="6.05337803"><ele>431.288574</ele><time>2009-10-19T12:30:34Z</time></trkpt>
<trkpt lat="46.17420732" lon="6.05339454"><ele>431.769165</ele><time>2009-10-19T12:30:35Z</time></trkpt>
<trkpt lat="46.17417497" lon="6.05340955"><ele>432.25</ele><time>2009-10-19T12:30:36Z</time></trkpt>
<trkpt lat="46.17414529" lon="6.05341936"><ele>432.730713</ele><time>2009-10-19T12:30:37Z</time></trkpt>
<trkpt lat="46.17412174" lon="6.05342472"><ele>432.730713</ele><time>2009-10-19T12:30:38Z</time></trkpt>
<trkpt lat="46.17410406" lon="6.05342824"><ele>432.730713</ele><time>2009-10-19T12:30:39Z</time></trkpt>
<trkpt lat="46.17408955" lon="6.05342556"><ele>432.730713</ele><time>2009-10-19T12:30:40Z</time></trkpt>
<trkpt lat="46.17407899" lon="6.05341827"><ele>432.730713</ele><time>2009-10-19T12:30:41Z</time></trkpt>
<trkpt lat="46.17407388" lon="6.05341324"><ele>432.730713</ele><time>2009-10-19T12:30:42Z</time></trkpt>
<trkpt lat="46.17407396" lon="6.05341407"><ele>432.25</ele><time>2009-10-19T12:30:43Z</time></trkpt>
<trkpt lat="46.17407463" lon="6.05341567"><ele>432.25</ele><time>2009-10-19T12:30:44Z</time></trkpt>
<trkpt lat="46.17407556" lon="6.05341734"><ele>431.769165</ele><time>2009-10-19T12:30:45Z</time></trkpt>
<trkpt lat="46.17407673" lon="6.05342095"><ele>431.769165</ele><time>2009-10-19T12:30:46Z</time></trkpt>
<trkpt lat="46.17407765" lon="6.05342338"><ele>431.769165</ele><time>2009-10-19T12:30:47Z</time></trkpt>
<trkpt lat="46.17407824" lon="6.05342547"><ele>431.769165</ele><time>2009-10-19T12:30:48Z</time></trkpt>
<trkpt lat="46.17407883" lon="6.05342782"><ele>431.769165</ele><time>2009-10-19T12:30:49Z</time></trkpt>
<trkpt lat="46.17407958" lon="6.05343017"><ele>431.769165</ele><time>2009-10-19T12:30:50Z</time></trkpt>
<trkpt lat="46.17407983" lon="6.05343293"><ele>431.769165</ele><time>2009-10-19T12:30:51Z</time></trkpt>
<trkpt lat="46.17408017" lon="6.05343436"><ele>431.769165</ele><time>2009-10-19T12:30:52Z</time></trkpt>
<trkpt lat="46.17408059" lon="6.05343520"><ele>431.769165</ele><time>2009-10-19T12:30:53Z</time></trkpt>
<trkpt lat="46.17408159" lon="6.05343687"><ele>431.769165</ele><time>2009-10-19T12:30:54Z</time></trkpt>
<trkpt lat="46.17408235" lon="6.05343830"><ele>431.769165</ele><time>2009-10-19T12:30:55Z</time></trkpt>
<trkpt lat="46.17408285" lon="6.05343964"><ele>431.769165</ele><time>2009-10-19T12:30:56Z</time></trkpt>
<trkpt lat="46.17408293" lon="6.05344006"><ele>431.769165</ele><time>2009-10-19T12:30:57Z</time></trkpt>
<trkpt lat="46.17408176" lon="6.05343972"><ele>431.769165</ele><time>2009-10-19T12:30:58Z</time></trkpt>
<trkpt lat="46.17408042" lon="6.05343947"><ele>432.25</ele><time>2009-10-19T12:30:59Z</time></trkpt>
<trkpt lat="46.17408059" lon="6.05343897"><ele>432.25</ele><time>2009-10-19T12:31:00Z</time></trkpt>
<trkpt lat="46.17408117" lon="6.05343964"><ele>432.25</ele><time>2009-10-19T12:31:01Z</time></trkpt>
<trkpt lat="46.17408235" lon="6.05344157"><ele>431.769165</ele><time>2009-10-19T12:31:02Z</time></trkpt>
<trkpt lat="46.17408570" lon="6.05344492"><ele>431.769165</ele><time>2009-10-19T12:31:03Z</time></trkpt>
<trkpt lat="46.17408754" lon="6.05344718"><ele>431.769165</ele><time>2009-10-19T12:31:04Z</time></trkpt>
<trkpt lat="46.17408813" lon="6.05344785"><ele>431.769165</ele><time>2009-10-19T12:31:05Z</time></trkpt>
<trkpt lat="46.17408595" lon="6.05344433"><ele>431.769165</ele><time>2009-10-19T12:31:06Z</time></trkpt>
<trkpt lat="46.17407623" lon="6.05343796"><ele>431.769165</ele><time>2009-10-19T12:31:07Z</time></trkpt>
<trkpt lat="46.17405829" lon="6.05343855"><ele>431.288574</ele><time>2009-10-19T12:31:08Z</time></trkpt>
<trkpt lat="46.17403356" lon="6.05344987"><ele>431.288574</ele><time>2009-10-19T12:31:09Z</time></trkpt>
<trkpt lat="46.17400599" lon="6.05347157"><ele>431.769165</ele><time>2009-10-19T12:31:10Z</time></trkpt>
<trkpt lat="46.17397539" lon="6.05350175"><ele>431.769165</ele><time>2009-10-19T12:31:11Z</time></trkpt>
<trkpt lat="46.17393918" lon="6.05353503"><ele>431.769165</ele><time>2009-10-19T12:31:12Z</time></trkpt>
<trkpt lat="46.17389652" lon="6.05356378"><ele>431.769165</ele><time>2009-10-19T12:31:13Z</time></trkpt>
<trkpt lat="46.17385126" lon="6.05358775"><ele>431.769165</ele><time>2009-10-19T12:31:14Z</time></trkpt>
<trkpt lat="46.17380692" lon="6.05361172"><ele>431.769165</ele><time>2009-10-19T12:31:15Z</time></trkpt>
<trkpt lat="46.17376358" lon="6.05363678"><ele>432.25</ele><time>2009-10-19T12:31:16Z</time></trkpt>
<trkpt lat="46.17372058" lon="6.05366067"><ele>432.25</ele><time>2009-10-19T12:31:17Z</time></trkpt>
<trkpt lat="46.17367842" lon="6.05368456"><ele>432.25</ele><time>2009-10-19T12:31:18Z</time></trkpt>
<trkpt lat="46.17363844" lon="6.05371138"><ele>432.25</ele><time>2009-10-19T12:31:19Z</time></trkpt>
<trkpt lat="46.17359896" lon="6.05373804"><ele>432.730713</ele><time>2009-10-19T12:31:20Z</time></trkpt>
<trkpt lat="46.17355839" lon="6.05376117"><ele>432.730713</ele><time>2009-10-19T12:31:21Z</time></trkpt>
<trkpt lat="46.17351816" lon="6.05378288"><ele>432.730713</ele><time>2009-10-19T12:31:22Z</time></trkpt>
<trkpt lat="46.17347893" lon="6.05380543"><ele>433.211304</ele><time>2009-10-19T12:31:23Z</time></trkpt>
<trkpt lat="46.17344063" lon="6.05382739"><ele>433.211304</ele><time>2009-10-19T12:31:24Z</time></trkpt>
<trkpt lat="46.17340283" lon="6.05384968"><ele>433.691895</ele><time>2009-10-19T12:31:25Z</time></trkpt>
<trkpt lat="46.17336544" lon="6.05387206"><ele>433.691895</ele><time>2009-10-19T12:31:26Z</time></trkpt>
<trkpt lat="46.17332839" lon="6.05389377"><ele>433.691895</ele><time>2009-10-19T12:31:27Z</time></trkpt>
<trkpt lat="46.17329143" lon="6.05391540"><ele>434.172607</ele><time>2009-10-19T12:31:28Z</time></trkpt>
<trkpt lat="46.17325514" lon="6.05393669"><ele>434.172607</ele><time>2009-10-19T12:31:29Z</time></trkpt>
<trkpt lat="46.17321884" lon="6.05395747"><ele>434.65332</ele><time>2009-10-19T12:31:30Z</time></trkpt>
<trkpt lat="46.17318255" lon="6.05397834"><ele>434.65332</ele><time>2009-10-19T12:31:31Z</time></trkpt>
<trkpt lat="46.17314693" lon="6.05399997"><ele>434.65332</ele><time>2009-10-19T12:31:32Z</time></trkpt>
<trkpt lat="46.17311164" lon="6.05402042"><ele>435.133911</ele><time>2009-10-19T12:31:33Z</time></trkpt>
<trkpt lat="46.17307652" lon="6.05404096"><ele>435.133911</ele><time>2009-10-19T12:31:34Z</time></trkpt>
<trkpt lat="46.17304148" lon="6.05406317"><ele>435.614502</ele><time>2009-10-19T12:31:35Z</time></trkpt>
<trkpt lat="46.17300636" lon="6.05408538"><ele>435.614502</ele><time>2009-10-19T12:31:36Z</time></trkpt>
<trkpt lat="46.17297183" lon="6.05410575"><ele>436.095215</ele><time>2009-10-19T12:31:37Z</time></trkpt>
<trkpt lat="46.17293729" lon="6.05412595"><ele>436.095215</ele><time>2009-10-19T12:31:38Z</time></trkpt>
<trkpt lat="46.17290284" lon="6.05414590"><ele>436.575928</ele><time>2009-10-19T12:31:39Z</time></trkpt>
<trkpt lat="46.17286873" lon="6.05416518"><ele>437.056519</ele><time>2009-10-19T12:31:40Z</time></trkpt>
<trkpt lat="46.17283487" lon="6.05418513"><ele>437.056519</ele><time>2009-10-19T12:31:41Z</time></trkpt>
<trkpt lat="46.17280117" lon="6.05420524"><ele>437.537109</ele><time>2009-10-19T12:31:42Z</time></trkpt>
<trkpt lat="46.17276806" lon="6.05422519"><ele>437.537109</ele><time>2009-10-19T12:31:43Z</time></trkpt>
<trkpt lat="46.17273579" lon="6.05424506"><ele>438.017822</ele><time>2009-10-19T12:31:44Z</time></trkpt>
<trkpt lat="46.17270386" lon="6.05426509"><ele>438.017822</ele><time>2009-10-19T12:31:45Z</time></trkpt>
<trkpt lat="46.17267209" lon="6.05428328"><ele>438.498535</ele><time>2009-10-19T12:31:46Z</time></trkpt>
<trkpt lat="46.17264083" lon="6.05429954"><ele>438.498535</ele><time>2009-10-19T12:31:47Z</time></trkpt>
<trkpt lat="46.17261459" lon="6.05431412"><ele>438.498535</ele><time>2009-10-19T12:31:48Z</time></trkpt>
<trkpt lat="46.17259372" lon="6.05432720"><ele>438.498535</ele><time>2009-10-19T12:31:49Z</time></trkpt>
<trkpt lat="46.17258257" lon="6.05434296"><ele>438.498535</ele><time>2009-10-19T12:31:50Z</time></trkpt>
<trkpt lat="46.17257997" lon="6.05436358"><ele>438.498535</ele><time>2009-10-19T12:31:51Z</time></trkpt>
<trkpt lat="46.17257863" lon="6.05438327"><ele>438.017822</ele><time>2009-10-19T12:31:52Z</time></trkpt>
<trkpt lat="46.17257268" lon="6.05440180"><ele>438.017822</ele><time>2009-10-19T12:31:53Z</time></trkpt>
<trkpt lat="46.17255826" lon="6.05441588"><ele>438.017822</ele><time>2009-10-19T12:31:54Z</time></trkpt>
<trkpt lat="46.17253723" lon="6.05441546"><ele>438.017822</ele><time>2009-10-19T12:31:55Z</time></trkpt>
<trkpt lat="46.17251183" lon="6.05440222"><ele>437.537109</ele><time>2009-10-19T12:31:56Z</time></trkpt>
<trkpt lat="46.17248375" lon="6.05439333"><ele>437.537109</ele><time>2009-10-19T12:31:57Z</time></trkpt>
<trkpt lat="46.17245332" lon="6.05439794"><ele>437.056519</ele><time>2009-10-19T12:31:58Z</time></trkpt>
<trkpt lat="46.17242290" lon="6.05441529"><ele>437.537109</ele><time>2009-10-19T12:31:59Z</time></trkpt>
<trkpt lat="46.17239507" lon="6.05444094"><ele>437.537109</ele><time>2009-10-19T12:32:00Z</time></trkpt>
<trkpt lat="46.17236909" lon="6.05447179"><ele>437.537109</ele><time>2009-10-19T12:32:01Z</time></trkpt>
<trkpt lat="46.17234478" lon="6.05450666"><ele>438.017822</ele><time>2009-10-19T12:32:02Z</time></trkpt>
<trkpt lat="46.17232047" lon="6.05454043"><ele>438.017822</ele><time>2009-10-19T12:32:03Z</time></trkpt>
<trkpt lat="46.17229516" lon="6.05457195"><ele>438.017822</ele><time>2009-10-19T12:32:04Z</time></trkpt>
<trkpt lat="46.17226909" lon="6.05460422"><ele>438.498535</ele><time>2009-10-19T12:32:05Z</time></trkpt>
<trkpt lat="46.17224193" lon="6.05463549"><ele>438.979126</ele><time>2009-10-19T12:32:06Z</time></trkpt>
<trkpt lat="46.17221544" lon="6.05466759"><ele>438.979126</ele><time>2009-10-19T12:32:07Z</time></trkpt>
<trkpt lat="46.17218963" lon="6.05470036"><ele>439.459717</ele><time>2009-10-19T12:32:08Z</time></trkpt>
<trkpt lat="46.17216339" lon="6.05473129"><ele>439.94043</ele><time>2009-10-19T12:32:09Z</time></trkpt>
<trkpt lat="46.17213749" lon="6.05476138"><ele>439.94043</ele><time>2009-10-19T12:32:10Z</time></trkpt>
<trkpt lat="46.17211168" lon="6.05479164"><ele>440.421265</ele><time>2009-10-19T12:32:11Z</time></trkpt>
<trkpt lat="46.17208620" lon="6.05482265"><ele>440.901855</ele><time>2009-10-19T12:32:12Z</time></trkpt>
<trkpt lat="46.17206088" lon="6.05485392"><ele>441.382446</ele><time>2009-10-19T12:32:13Z</time></trkpt>
<trkpt lat="46.17203649" lon="6.05488468"><ele>441.382446</ele><time>2009-10-19T12:32:14Z</time></trkpt>
<trkpt lat="46.17201252" lon="6.05491326"><ele>441.863159</ele><time>2009-10-19T12:32:15Z</time></trkpt>
<trkpt lat="46.17198888" lon="6.05494008"><ele>442.343872</ele><time>2009-10-19T12:32:16Z</time></trkpt>
<trkpt lat="46.17196625" lon="6.05496833"><ele>442.343872</ele><time>2009-10-19T12:32:17Z</time></trkpt>
<trkpt lat="46.17194479" lon="6.05499817"><ele>442.824463</ele><time>2009-10-19T12:32:18Z</time></trkpt>
<trkpt lat="46.17192367" lon="6.05502767"><ele>443.305054</ele><time>2009-10-19T12:32:19Z</time></trkpt>
<trkpt lat="46.17190104" lon="6.05505567"><ele>443.785767</ele><time>2009-10-19T12:32:20Z</time></trkpt>
<trkpt lat="46.17187724" lon="6.05508375"><ele>443.785767</ele><time>2009-10-19T12:32:21Z</time></trkpt>
<trkpt lat="46.17185385" lon="6.05511275"><ele>444.266479</ele><time>2009-10-19T12:32:22Z</time></trkpt>
<trkpt lat="46.17183080" lon="6.05514108"><ele>444.74707</ele><time>2009-10-19T12:32:23Z</time></trkpt>
<trkpt lat="46.17180725" lon="6.05516816"><ele>444.74707</ele><time>2009-10-19T12:32:24Z</time></trkpt>
<trkpt lat="46.17178403" lon="6.05519523"><ele>445.227661</ele><time>2009-10-19T12:32:25Z</time></trkpt>
<trkpt lat="46.17176115" lon="6.05522138"><ele>445.708374</ele><time>2009-10-19T12:32:26Z</time></trkpt>
<trkpt lat="46.17173818" lon="6.05524669"><ele>446.189087</ele><time>2009-10-19T12:32:27Z</time></trkpt>
<trkpt lat="46.17171555" lon="6.05527326"><ele>446.189087</ele><time>2009-10-19T12:32:28Z</time></trkpt>
<trkpt lat="46.17169342" lon="6.05530126"><ele>446.669678</ele><time>2009-10-19T12:32:29Z</time></trkpt>
<trkpt lat="46.17167104" lon="6.05532842"><ele>446.669678</ele><time>2009-10-19T12:32:30Z</time></trkpt>
<trkpt lat="46.17164782" lon="6.05535373"><ele>447.150269</ele><time>2009-10-19T12:32:31Z</time></trkpt>
<trkpt lat="46.17162779" lon="6.05537804"><ele>447.150269</ele><time>2009-10-19T12:32:32Z</time></trkpt>
<trkpt lat="46.17160759" lon="6.05540335"><ele>447.150269</ele><time>2009-10-19T12:32:33Z</time></trkpt>
<trkpt lat="46.17158705" lon="6.05542816"><ele>447.150269</ele><time>2009-10-19T12:32:34Z</time></trkpt>
<trkpt lat="46.17156702" lon="6.05545297"><ele>447.630981</ele><time>2009-10-19T12:32:35Z</time></trkpt>
<trkpt lat="46.17154665" lon="6.05547803"><ele>447.630981</ele><time>2009-10-19T12:32:36Z</time></trkpt>
<trkpt lat="46.17152444" lon="6.05550368"><ele>447.630981</ele><time>2009-10-19T12:32:37Z</time></trkpt>
<trkpt lat="46.17150323" lon="6.05553009"><ele>448.111816</ele><time>2009-10-19T12:32:38Z</time></trkpt>
<trkpt lat="46.17148194" lon="6.05555708"><ele>448.592407</ele><time>2009-10-19T12:32:39Z</time></trkpt>
<trkpt lat="46.17146158" lon="6.05558574"><ele>449.072998</ele><time>2009-10-19T12:32:40Z</time></trkpt>
<trkpt lat="46.17144230" lon="6.05561508"><ele>449.072998</ele><time>2009-10-19T12:32:41Z</time></trkpt>
<trkpt lat="46.17142210" lon="6.05564358"><ele>449.553711</ele><time>2009-10-19T12:32:42Z</time></trkpt>
<trkpt lat="46.17139947" lon="6.05567065"><ele>449.553711</ele><time>2009-10-19T12:32:43Z</time></trkpt>
<trkpt lat="46.17137617" lon="6.05569890"><ele>450.034424</ele><time>2009-10-19T12:32:44Z</time></trkpt>
<trkpt lat="46.17135286" lon="6.05572823"><ele>450.515015</ele><time>2009-10-19T12:32:45Z</time></trkpt>
<trkpt lat="46.17132889" lon="6.05575698"><ele>450.515015</ele><time>2009-10-19T12:32:46Z</time></trkpt>
<trkpt lat="46.17130567" lon="6.05578708"><ele>450.995605</ele><time>2009-10-19T12:32:47Z</time></trkpt>
<trkpt lat="46.17128296" lon="6.05581742"><ele>450.995605</ele><time>2009-10-19T12:32:48Z</time></trkpt>
<trkpt lat="46.17125915" lon="6.05584617"><ele>450.995605</ele><time>2009-10-19T12:32:49Z</time></trkpt>
<trkpt lat="46.17123518" lon="6.05587416"><ele>451.476318</ele><time>2009-10-19T12:32:50Z</time></trkpt>
<trkpt lat="46.17121163" lon="6.05590208"><ele>451.476318</ele><time>2009-10-19T12:32:51Z</time></trkpt>
<trkpt lat="46.17118782" lon="6.05593124"><ele>451.957031</ele><time>2009-10-19T12:32:52Z</time></trkpt>
<trkpt lat="46.17116385" lon="6.05596117"><ele>451.957031</ele><time>2009-10-19T12:32:53Z</time></trkpt>
<trkpt lat="46.17113904" lon="6.05598849"><ele>452.437622</ele><time>2009-10-19T12:32:54Z</time></trkpt>
<trkpt lat="46.17111306" lon="6.05601154"><ele>452.437622</ele><time>2009-10-19T12:32:55Z</time></trkpt>
<trkpt lat="46.17108800" lon="6.05603736"><ele>452.437622</ele><time>2009-10-19T12:32:56Z</time></trkpt>
<trkpt lat="46.17106318" lon="6.05606779"><ele>452.437622</ele><time>2009-10-19T12:32:57Z</time></trkpt>
<trkpt lat="46.17103863" lon="6.05609804"><ele>452.918213</ele><time>2009-10-19T12:32:58Z</time></trkpt>
<trkpt lat="46.17101532" lon="6.05612788"><ele>452.918213</ele><time>2009-10-19T12:32:59Z</time></trkpt>
<trkpt lat="46.17099294" lon="6.05615688"><ele>453.398926</ele><time>2009-10-19T12:33:00Z</time></trkpt>
<trkpt lat="46.17096989" lon="6.05618262"><ele>453.398926</ele><time>2009-10-19T12:33:01Z</time></trkpt>
<trkpt lat="46.17094634" lon="6.05620709"><ele>453.398926</ele><time>2009-10-19T12:33:02Z</time></trkpt>
<trkpt lat="46.17092396" lon="6.05623232"><ele>453.879639</ele><time>2009-10-19T12:33:03Z</time></trkpt>
<trkpt lat="46.17090284" lon="6.05625764"><ele>453.879639</ele><time>2009-10-19T12:33:04Z</time></trkpt>
<trkpt lat="46.17088222" lon="6.05628479"><ele>454.360229</ele><time>2009-10-19T12:33:05Z</time></trkpt>
<trkpt lat="46.17086244" lon="6.05631086"><ele>454.360229</ele><time>2009-10-19T12:33:06Z</time></trkpt>
<trkpt lat="46.17084065" lon="6.05633634"><ele>454.360229</ele><time>2009-10-19T12:33:07Z</time></trkpt>
<trkpt lat="46.17081776" lon="6.05636174"><ele>454.84082</ele><time>2009-10-19T12:33:08Z</time></trkpt>
<trkpt lat="46.17079572" lon="6.05638764"><ele>454.84082</ele><time>2009-10-19T12:33:09Z</time></trkpt>
<trkpt lat="46.17077476" lon="6.05641312"><ele>454.84082</ele><time>2009-10-19T12:33:10Z</time></trkpt>
<trkpt lat="46.17075347" lon="6.05643676"><ele>455.321533</ele><time>2009-10-19T12:33:11Z</time></trkpt>
<trkpt lat="46.17073143" lon="6.05645729"><ele>455.321533</ele><time>2009-10-19T12:33:12Z</time></trkpt>
<trkpt lat="46.17071014" lon="6.05647800"><ele>455.321533</ele><time>2009-10-19T12:33:13Z</time></trkpt>
<trkpt lat="46.17069002" lon="6.05650172"><ele>455.802246</ele><time>2009-10-19T12:33:14Z</time></trkpt>
<trkpt lat="46.17067032" lon="6.05652812"><ele>455.802246</ele><time>2009-10-19T12:33:15Z</time></trkpt>
<trkpt lat="46.17065147" lon="6.05655695"><ele>456.282959</ele><time>2009-10-19T12:33:16Z</time></trkpt>
<trkpt lat="46.17063219" lon="6.05658554"><ele>456.282959</ele><time>2009-10-19T12:33:17Z</time></trkpt>
<trkpt lat="46.17061073" lon="6.05661093"><ele>456.282959</ele><time>2009-10-19T12:33:18Z</time></trkpt>
<trkpt lat="46.17058902" lon="6.05663507"><ele>456.282959</ele><time>2009-10-19T12:33:19Z</time></trkpt>
<trkpt lat="46.17056932" lon="6.05665796"><ele>456.282959</ele><time>2009-10-19T12:33:20Z</time></trkpt>
<trkpt lat="46.17054954" lon="6.05668042"><ele>456.282959</ele><time>2009-10-19T12:33:21Z</time></trkpt>
<trkpt lat="46.17053177" lon="6.05670188"><ele>456.282959</ele><time>2009-10-19T12:33:22Z</time></trkpt>
<trkpt lat="46.17051216" lon="6.05672744"><ele>456.76355</ele><time>2009-10-19T12:33:23Z</time></trkpt>
<trkpt lat="46.17048953" lon="6.05675309"><ele>456.76355</ele><time>2009-10-19T12:33:24Z</time></trkpt>
<trkpt lat="46.17046614" lon="6.05677798"><ele>456.282959</ele><time>2009-10-19T12:33:25Z</time></trkpt>
<trkpt lat="46.17044334" lon="6.05680497"><ele>455.802246</ele><time>2009-10-19T12:33:26Z</time></trkpt>
<trkpt lat="46.17042038" lon="6.05683347"><ele>455.802246</ele><time>2009-10-19T12:33:27Z</time></trkpt>
<trkpt lat="46.17039615" lon="6.05686298"><ele>455.321533</ele><time>2009-10-19T12:33:28Z</time></trkpt>
<trkpt lat="46.17037344" lon="6.05689416"><ele>454.84082</ele><time>2009-10-19T12:33:29Z</time></trkpt>
<trkpt lat="46.17035248" lon="6.05692777"><ele>454.84082</ele><time>2009-10-19T12:33:30Z</time></trkpt>
<trkpt lat="46.17033547" lon="6.05696473"><ele>454.360229</ele><time>2009-10-19T12:33:31Z</time></trkpt>
<trkpt lat="46.17031904" lon="6.05700195"><ele>453.879639</ele><time>2009-10-19T12:33:32Z</time></trkpt>
<trkpt lat="46.17030278" lon="6.05704143"><ele>453.879639</ele><time>2009-10-19T12:33:33Z</time></trkpt>
<trkpt lat="46.17028878" lon="6.05708518"><ele>453.879639</ele><time>2009-10-19T12:33:34Z</time></trkpt>
<trkpt lat="46.17027629" lon="6.05713086"><ele>453.398926</ele><time>2009-10-19T12:33:35Z</time></trkpt>
<trkpt lat="46.17026439" lon="6.05717713"><ele>452.918213</ele><time>2009-10-19T12:33:36Z</time></trkpt>
<trkpt lat="46.17025140" lon="6.05722290"><ele>452.918213</ele><time>2009-10-19T12:33:37Z</time></trkpt>
<trkpt lat="46.17023706" lon="6.05726799"><ele>452.437622</ele><time>2009-10-19T12:33:38Z</time></trkpt>
<trkpt lat="46.17022449" lon="6.05731484"><ele>452.437622</ele><time>2009-10-19T12:33:39Z</time></trkpt>
<trkpt lat="46.17021284" lon="6.05736095"><ele>452.437622</ele><time>2009-10-19T12:33:40Z</time></trkpt>
<trkpt lat="46.17020144" lon="6.05740998"><ele>452.437622</ele><time>2009-10-19T12:33:41Z</time></trkpt>
<trkpt lat="46.17019013" lon="6.05745675"><ele>452.437622</ele><time>2009-10-19T12:33:42Z</time></trkpt>
<trkpt lat="46.17017764" lon="6.05750352"><ele>452.918213</ele><time>2009-10-19T12:33:43Z</time></trkpt>
<trkpt lat="46.17016406" lon="6.05754996"><ele>453.398926</ele><time>2009-10-19T12:33:44Z</time></trkpt>
<trkpt lat="46.17014847" lon="6.05759312"><ele>453.398926</ele><time>2009-10-19T12:33:45Z</time></trkpt>
<trkpt lat="46.17013388" lon="6.05763277"><ele>453.879639</ele><time>2009-10-19T12:33:46Z</time></trkpt>
<trkpt lat="46.17011930" lon="6.05767284"><ele>454.360229</ele><time>2009-10-19T12:33:47Z</time></trkpt>
<trkpt lat="46.17010463" lon="6.05771173"><ele>454.360229</ele><time>2009-10-19T12:33:48Z</time></trkpt>
<trkpt lat="46.17008879" lon="6.05774710"><ele>454.360229</ele><time>2009-10-19T12:33:49Z</time></trkpt>
<trkpt lat="46.17007144" lon="6.05777887"><ele>454.84082</ele><time>2009-10-19T12:33:50Z</time></trkpt>
<trkpt lat="46.17005384" lon="6.05780737"><ele>454.84082</ele><time>2009-10-19T12:33:51Z</time></trkpt>
<trkpt lat="46.17003162" lon="6.05782497"><ele>454.84082</ele><time>2009-10-19T12:33:52Z</time></trkpt>
<trkpt lat="46.17001025" lon="6.05781977"><ele>454.360229</ele><time>2009-10-19T12:33:53Z</time></trkpt>
<trkpt lat="46.16999256" lon="6.05780116"><ele>454.360229</ele><time>2009-10-19T12:33:54Z</time></trkpt>
<trkpt lat="46.16997379" lon="6.05777753"><ele>454.360229</ele><time>2009-10-19T12:33:55Z</time></trkpt>
<trkpt lat="46.16995250" lon="6.05775230"><ele>454.360229</ele><time>2009-10-19T12:33:56Z</time></trkpt>
<trkpt lat="46.16993062" lon="6.05772397"><ele>453.879639</ele><time>2009-10-19T12:33:57Z</time></trkpt>
<trkpt lat="46.16990933" lon="6.05769614"><ele>453.879639</ele><time>2009-10-19T12:33:58Z</time></trkpt>
<trkpt lat="46.16988695" lon="6.05766890"><ele>453.879639</ele><time>2009-10-19T12:33:59Z</time></trkpt>
<trkpt lat="46.16986357" lon="6.05763998"><ele>453.398926</ele><time>2009-10-19T12:34:00Z</time></trkpt>
<trkpt lat="46.16983976" lon="6.05761039"><ele>453.398926</ele><time>2009-10-19T12:34:01Z</time></trkpt>
<trkpt lat="46.16981579" lon="6.05758013"><ele>453.398926</ele><time>2009-10-19T12:34:02Z</time></trkpt>
<trkpt lat="46.16979106" lon="6.05754962"><ele>452.918213</ele><time>2009-10-19T12:34:03Z</time></trkpt>
<trkpt lat="46.16976642" lon="6.05751844"><ele>452.918213</ele><time>2009-10-19T12:34:04Z</time></trkpt>
<trkpt lat="46.16974312" lon="6.05748776"><ele>452.918213</ele><time>2009-10-19T12:34:05Z</time></trkpt>
<trkpt lat="46.16971982" lon="6.05745834"><ele>452.918213</ele><time>2009-10-19T12:34:06Z</time></trkpt>
<trkpt lat="46.16969618" lon="6.05742825"><ele>452.437622</ele><time>2009-10-19T12:34:07Z</time></trkpt>
<trkpt lat="46.16967263" lon="6.05739707"><ele>452.437622</ele><time>2009-10-19T12:34:08Z</time></trkpt>
<trkpt lat="46.16964924" lon="6.05736664"><ele>452.437622</ele><time>2009-10-19T12:34:09Z</time></trkpt>
<trkpt lat="46.16962778" lon="6.05733396"><ele>452.437622</ele><time>2009-10-19T12:34:10Z</time></trkpt>
<trkpt lat="46.16960817" lon="6.05729833"><ele>452.437622</ele><time>2009-10-19T12:34:11Z</time></trkpt>
<trkpt lat="46.16958688" lon="6.05726330"><ele>452.437622</ele><time>2009-10-19T12:34:12Z</time></trkpt>
<trkpt lat="46.16956333" lon="6.05723094"><ele>451.957031</ele><time>2009-10-19T12:34:13Z</time></trkpt>
<trkpt lat="46.16953877" lon="6.05720043"><ele>451.957031</ele><time>2009-10-19T12:34:14Z</time></trkpt>
<trkpt lat="46.16951262" lon="6.05716825"><ele>451.957031</ele><time>2009-10-19T12:34:15Z</time></trkpt>
<trkpt lat="46.16948714" lon="6.05713606"><ele>451.957031</ele><time>2009-10-19T12:34:16Z</time></trkpt>
<trkpt lat="46.16946266" lon="6.05710438"><ele>451.957031</ele><time>2009-10-19T12:34:17Z</time></trkpt>
<trkpt lat="46.16943819" lon="6.05707328"><ele>451.957031</ele><time>2009-10-19T12:34:18Z</time></trkpt>
<trkpt lat="46.16941312" lon="6.05704268"><ele>451.957031</ele><time>2009-10-19T12:34:19Z</time></trkpt>
<trkpt lat="46.16938915" lon="6.05701217"><ele>451.957031</ele><time>2009-10-19T12:34:20Z</time></trkpt>
<trkpt lat="46.16936459" lon="6.05698116"><ele>451.957031</ele><time>2009-10-19T12:34:21Z</time></trkpt>
<trkpt lat="46.16933978" lon="6.05694973"><ele>451.957031</ele><time>2009-10-19T12:34:22Z</time></trkpt>
<trkpt lat="46.16931455" lon="6.05691805"><ele>451.957031</ele><time>2009-10-19T12:34:23Z</time></trkpt>
<trkpt lat="46.16928865" lon="6.05688628"><ele>451.957031</ele><time>2009-10-19T12:34:24Z</time></trkpt>
<trkpt lat="46.16926284" lon="6.05685342"><ele>451.957031</ele><time>2009-10-19T12:34:25Z</time></trkpt>
<trkpt lat="46.16923744" lon="6.05681956"><ele>451.476318</ele><time>2009-10-19T12:34:26Z</time></trkpt>
<trkpt lat="46.16921229" lon="6.05678553"><ele>451.476318</ele><time>2009-10-19T12:34:27Z</time></trkpt>
<trkpt lat="46.16918698" lon="6.05675183"><ele>451.476318</ele><time>2009-10-19T12:34:28Z</time></trkpt>
<trkpt lat="46.16916083" lon="6.05671898"><ele>451.476318</ele><time>2009-10-19T12:34:29Z</time></trkpt>
<trkpt lat="46.16913342" lon="6.05668788"><ele>451.476318</ele><time>2009-10-19T12:34:30Z</time></trkpt>
<trkpt lat="46.16910417" lon="6.05666064"><ele>451.476318</ele><time>2009-10-19T12:34:31Z</time></trkpt>
<trkpt lat="46.16907307" lon="6.05663449"><ele>451.476318</ele><time>2009-10-19T12:34:32Z</time></trkpt>
<trkpt lat="46.16904306" lon="6.05660305"><ele>450.995605</ele><time>2009-10-19T12:34:33Z</time></trkpt>
<trkpt lat="46.16901498" lon="6.05656802"><ele>450.995605</ele><time>2009-10-19T12:34:34Z</time></trkpt>
<trkpt lat="46.16898682" lon="6.05653147"><ele>450.515015</ele><time>2009-10-19T12:34:35Z</time></trkpt>
<trkpt lat="46.16895857" lon="6.05649367"><ele>450.515015</ele><time>2009-10-19T12:34:36Z</time></trkpt>
<trkpt lat="46.16892982" lon="6.05645729"><ele>450.515015</ele><time>2009-10-19T12:34:37Z</time></trkpt>
<trkpt lat="46.16890107" lon="6.05642217"><ele>450.034424</ele><time>2009-10-19T12:34:38Z</time></trkpt>
<trkpt lat="46.16887216" lon="6.05638588"><ele>450.034424</ele><time>2009-10-19T12:34:39Z</time></trkpt>
<trkpt lat="46.16884257" lon="6.05634682"><ele>449.553711</ele><time>2009-10-19T12:34:40Z</time></trkpt>
<trkpt lat="46.16881248" lon="6.05630726"><ele>449.553711</ele><time>2009-10-19T12:34:41Z</time></trkpt>
<trkpt lat="46.16878163" lon="6.05626828"><ele>449.072998</ele><time>2009-10-19T12:34:42Z</time></trkpt>
<trkpt lat="46.16875389" lon="6.05622964"><ele>449.072998</ele><time>2009-10-19T12:34:43Z</time></trkpt>
<trkpt lat="46.16872698" lon="6.05618999"><ele>449.072998</ele><time>2009-10-19T12:34:44Z</time></trkpt>
<trkpt lat="46.16869907" lon="6.05615093"><ele>448.592407</ele><time>2009-10-19T12:34:45Z</time></trkpt>
<trkpt lat="46.16866965" lon="6.05611363"><ele>448.592407</ele><time>2009-10-19T12:34:46Z</time></trkpt>
<trkpt lat="46.16863864" lon="6.05607533"><ele>448.592407</ele><time>2009-10-19T12:34:47Z</time></trkpt>
<trkpt lat="46.16860955" lon="6.05603803"><ele>448.592407</ele><time>2009-10-19T12:34:48Z</time></trkpt>
<trkpt lat="46.16858105" lon="6.05600224"><ele>448.592407</ele><time>2009-10-19T12:34:49Z</time></trkpt>
<trkpt lat="46.16855130" lon="6.05596569"><ele>448.592407</ele><time>2009-10-19T12:34:50Z</time></trkpt>
<trkpt lat="46.16852053" lon="6.05592588"><ele>448.111816</ele><time>2009-10-19T12:34:51Z</time></trkpt>
<trkpt lat="46.16848977" lon="6.05588414"><ele>448.111816</ele><time>2009-10-19T12:34:52Z</time></trkpt>
<trkpt lat="46.16845767" lon="6.05584156"><ele>448.111816</ele><time>2009-10-19T12:34:53Z</time></trkpt>
<trkpt lat="46.16842456" lon="6.05579839"><ele>448.111816</ele><time>2009-10-19T12:34:54Z</time></trkpt>
<trkpt lat="46.16839087" lon="6.05575556"><ele>447.630981</ele><time>2009-10-19T12:34:55Z</time></trkpt>
<trkpt lat="46.16835625" lon="6.05571197"><ele>447.630981</ele><time>2009-10-19T12:34:56Z</time></trkpt>
<trkpt lat="46.16832096" lon="6.05566914"><ele>447.630981</ele><time>2009-10-19T12:34:57Z</time></trkpt>
<trkpt lat="46.16828324" lon="6.05562556"><ele>447.630981</ele><time>2009-10-19T12:34:58Z</time></trkpt>
<trkpt lat="46.16824963" lon="6.05558507"><ele>447.150269</ele><time>2009-10-19T12:34:59Z</time></trkpt>
<trkpt lat="46.16821803" lon="6.05554618"><ele>447.150269</ele><time>2009-10-19T12:35:00Z</time></trkpt>
<trkpt lat="46.16818727" lon="6.05550938"><ele>447.150269</ele><time>2009-10-19T12:35:01Z</time></trkpt>
<trkpt lat="46.16815676" lon="6.05547317"><ele>447.150269</ele><time>2009-10-19T12:35:02Z</time></trkpt>
<trkpt lat="46.16812776" lon="6.05543696"><ele>447.150269</ele><time>2009-10-19T12:35:03Z</time></trkpt>
<trkpt lat="46.16810035" lon="6.05540109"><ele>447.150269</ele><time>2009-10-19T12:35:04Z</time></trkpt>
<trkpt lat="46.16807302" lon="6.05536614"><ele>446.669678</ele><time>2009-10-19T12:35:05Z</time></trkpt>
<trkpt lat="46.16804520" lon="6.05533043"><ele>446.669678</ele><time>2009-10-19T12:35:06Z</time></trkpt>
<trkpt lat="46.16801477" lon="6.05529279"><ele>446.189087</ele><time>2009-10-19T12:35:07Z</time></trkpt>
<trkpt lat="46.16798267" lon="6.05525156"><ele>445.708374</ele><time>2009-10-19T12:35:08Z</time></trkpt>
<trkpt lat="46.16794939" lon="6.05520805"><ele>445.708374</ele><time>2009-10-19T12:35:09Z</time></trkpt>
<trkpt lat="46.16791268" lon="6.05516363"><ele>445.227661</ele><time>2009-10-19T12:35:10Z</time></trkpt>
<trkpt lat="46.16787429" lon="6.05511703"><ele>444.74707</ele><time>2009-10-19T12:35:11Z</time></trkpt>
<trkpt lat="46.16783548" lon="6.05506824"><ele>444.266479</ele><time>2009-10-19T12:35:12Z</time></trkpt>
<trkpt lat="46.16779516" lon="6.05501837"><ele>443.785767</ele><time>2009-10-19T12:35:13Z</time></trkpt>
<trkpt lat="46.16775376" lon="6.05496783"><ele>443.785767</ele><time>2009-10-19T12:35:14Z</time></trkpt>
<trkpt lat="46.16771319" lon="6.05491737"><ele>443.785767</ele><time>2009-10-19T12:35:15Z</time></trkpt>
<trkpt lat="46.16767572" lon="6.05486926"><ele>443.305054</ele><time>2009-10-19T12:35:16Z</time></trkpt>
<trkpt lat="46.16764035" lon="6.05482399"><ele>443.305054</ele><time>2009-10-19T12:35:17Z</time></trkpt>
<trkpt lat="46.16761202" lon="6.05478326"><ele>442.824463</ele><time>2009-10-19T12:35:18Z</time></trkpt>
<trkpt lat="46.16759492" lon="6.05474269"><ele>442.824463</ele><time>2009-10-19T12:35:19Z</time></trkpt>
<trkpt lat="46.16759417" lon="6.05470262"><ele>443.305054</ele><time>2009-10-19T12:35:20Z</time></trkpt>
<trkpt lat="46.16761018" lon="6.05466516"><ele>444.266479</ele><time>2009-10-19T12:35:21Z</time></trkpt>
<trkpt lat="46.16763859" lon="6.05463884"><ele>444.74707</ele><time>2009-10-19T12:35:22Z</time></trkpt>
<trkpt lat="46.16767447" lon="6.05462048"><ele>445.227661</ele><time>2009-10-19T12:35:23Z</time></trkpt>
<trkpt lat="46.16771378" lon="6.05460112"><ele>445.708374</ele><time>2009-10-19T12:35:24Z</time></trkpt>
<trkpt lat="46.16775510" lon="6.05457572"><ele>445.708374</ele><time>2009-10-19T12:35:25Z</time></trkpt>
<trkpt lat="46.16779718" lon="6.05454597"><ele>446.189087</ele><time>2009-10-19T12:35:26Z</time></trkpt>
<trkpt lat="46.16783867" lon="6.05451462"><ele>446.669678</ele><time>2009-10-19T12:35:27Z</time></trkpt>
<trkpt lat="46.16788049" lon="6.05448344"><ele>447.150269</ele><time>2009-10-19T12:35:28Z</time></trkpt>
<trkpt lat="46.16792207" lon="6.05445242"><ele>447.630981</ele><time>2009-10-19T12:35:29Z</time></trkpt>
<trkpt lat="46.16796339" lon="6.05442217"><ele>447.630981</ele><time>2009-10-19T12:35:30Z</time></trkpt>
<trkpt lat="46.16800387" lon="6.05439149"><ele>448.111816</ele><time>2009-10-19T12:35:31Z</time></trkpt>
<trkpt lat="46.16804394" lon="6.05436073"><ele>448.111816</ele><time>2009-10-19T12:35:32Z</time></trkpt>
<trkpt lat="46.16808367" lon="6.05433013"><ele>448.592407</ele><time>2009-10-19T12:35:33Z</time></trkpt>
<trkpt lat="46.16812315" lon="6.05430029"><ele>448.592407</ele><time>2009-10-19T12:35:34Z</time></trkpt>
<trkpt lat="46.16816246" lon="6.05427062"><ele>449.072998</ele><time>2009-10-19T12:35:35Z</time></trkpt>
<trkpt lat="46.16820127" lon="6.05423994"><ele>449.553711</ele><time>2009-10-19T12:35:36Z</time></trkpt>
<trkpt lat="46.16824033" lon="6.05420977"><ele>449.553711</ele><time>2009-10-19T12:35:37Z</time></trkpt>
<trkpt lat="46.16827989" lon="6.05418018"><ele>450.034424</ele><time>2009-10-19T12:35:38Z</time></trkpt>
<trkpt lat="46.16831903" lon="6.05414934"><ele>450.034424</ele><time>2009-10-19T12:35:39Z</time></trkpt>
<trkpt lat="46.16835826" lon="6.05411807"><ele>450.515015</ele><time>2009-10-19T12:35:40Z</time></trkpt>
<trkpt lat="46.16839782" lon="6.05408773"><ele>450.515015</ele><time>2009-10-19T12:35:41Z</time></trkpt>
<trkpt lat="46.16843705" lon="6.05405739"><ele>450.995605</ele><time>2009-10-19T12:35:42Z</time></trkpt>
<trkpt lat="46.16847586" lon="6.05402604"><ele>450.995605</ele><time>2009-10-19T12:35:43Z</time></trkpt>
<trkpt lat="46.16851475" lon="6.05399268"><ele>451.476318</ele><time>2009-10-19T12:35:44Z</time></trkpt>
<trkpt lat="46.16855398" lon="6.05395756"><ele>451.476318</ele><time>2009-10-19T12:35:45Z</time></trkpt>
<trkpt lat="46.16859497" lon="6.05392160"><ele>451.957031</ele><time>2009-10-19T12:35:46Z</time></trkpt>
<trkpt lat="46.16863822" lon="6.05388690"><ele>451.957031</ele><time>2009-10-19T12:35:47Z</time></trkpt>
<trkpt lat="46.16868147" lon="6.05385454"><ele>451.957031</ele><time>2009-10-19T12:35:48Z</time></trkpt>
<trkpt lat="46.16872396" lon="6.05382244"><ele>451.957031</ele><time>2009-10-19T12:35:49Z</time></trkpt>
<trkpt lat="46.16876537" lon="6.05379084"><ele>451.957031</ele><time>2009-10-19T12:35:50Z</time></trkpt>
<trkpt lat="46.16880527" lon="6.05375924"><ele>451.957031</ele><time>2009-10-19T12:35:51Z</time></trkpt>
<trkpt lat="46.16884483" lon="6.05372689"><ele>452.437622</ele><time>2009-10-19T12:35:52Z</time></trkpt>
<trkpt lat="46.16888389" lon="6.05369747"><ele>452.437622</ele><time>2009-10-19T12:35:53Z</time></trkpt>
<trkpt lat="46.16892052" lon="6.05367215"><ele>452.437622</ele><time>2009-10-19T12:35:54Z</time></trkpt>
<trkpt lat="46.16895748" lon="6.05364433"><ele>452.437622</ele><time>2009-10-19T12:35:55Z</time></trkpt>
<trkpt lat="46.16899394" lon="6.05361306"><ele>452.437622</ele><time>2009-10-19T12:35:56Z</time></trkpt>
<trkpt lat="46.16903116" lon="6.05358146"><ele>452.918213</ele><time>2009-10-19T12:35:57Z</time></trkpt>
<trkpt lat="46.16906888" lon="6.05355196"><ele>452.437622</ele><time>2009-10-19T12:35:58Z</time></trkpt>
<trkpt lat="46.16910777" lon="6.05352128"><ele>452.918213</ele><time>2009-10-19T12:35:59Z</time></trkpt>
<trkpt lat="46.16914834" lon="6.05349136"><ele>452.918213</ele><time>2009-10-19T12:36:00Z</time></trkpt>
<trkpt lat="46.16919025" lon="6.05346068"><ele>452.918213</ele><time>2009-10-19T12:36:01Z</time></trkpt>
<trkpt lat="46.16923199" lon="6.05342464"><ele>452.437622</ele><time>2009-10-19T12:36:02Z</time></trkpt>
<trkpt lat="46.16927482" lon="6.05338398"><ele>452.437622</ele><time>2009-10-19T12:36:03Z</time></trkpt>
<trkpt lat="46.16932117" lon="6.05334358"><ele>451.957031</ele><time>2009-10-19T12:36:04Z</time></trkpt>
<trkpt lat="46.16937163" lon="6.05330243"><ele>451.957031</ele><time>2009-10-19T12:36:05Z</time></trkpt>
<trkpt lat="46.16942603" lon="6.05325876"><ele>451.476318</ele><time>2009-10-19T12:36:06Z</time></trkpt>
<trkpt lat="46.16948462" lon="6.05321249"><ele>450.515015</ele><time>2009-10-19T12:36:07Z</time></trkpt>
<trkpt lat="46.16954849" lon="6.05316237"><ele>450.034424</ele><time>2009-10-19T12:36:08Z</time></trkpt>
<trkpt lat="46.16961756" lon="6.05310998"><ele>449.553711</ele><time>2009-10-19T12:36:09Z</time></trkpt>
<trkpt lat="46.16969090" lon="6.05305499"><ele>448.592407</ele><time>2009-10-19T12:36:10Z</time></trkpt>
<trkpt lat="46.16976709" lon="6.05299624"><ele>448.111816</ele><time>2009-10-19T12:36:11Z</time></trkpt>
<trkpt lat="46.16984538" lon="6.05293488"><ele>447.630981</ele><time>2009-10-19T12:36:12Z</time></trkpt>
<trkpt lat="46.16992543" lon="6.05287369"><ele>446.669678</ele><time>2009-10-19T12:36:13Z</time></trkpt>
<trkpt lat="46.17000690" lon="6.05281309"><ele>446.189087</ele><time>2009-10-19T12:36:14Z</time></trkpt>
<trkpt lat="46.17008728" lon="6.05275157"><ele>445.708374</ele><time>2009-10-19T12:36:15Z</time></trkpt>
<trkpt lat="46.17016649" lon="6.05268887"><ele>445.708374</ele><time>2009-10-19T12:36:16Z</time></trkpt>
<trkpt lat="46.17024519" lon="6.05262727"><ele>445.227661</ele><time>2009-10-19T12:36:17Z</time></trkpt>
<trkpt lat="46.17032357" lon="6.05256817"><ele>445.227661</ele><time>2009-10-19T12:36:18Z</time></trkpt>
<trkpt lat="46.17039909" lon="6.05251377"><ele>444.74707</ele><time>2009-10-19T12:36:19Z</time></trkpt>
<trkpt lat="46.17047369" lon="6.05246189"><ele>444.266479</ele><time>2009-10-19T12:36:20Z</time></trkpt>
<trkpt lat="46.17054795" lon="6.05241043"><ele>444.266479</ele><time>2009-10-19T12:36:21Z</time></trkpt>
<trkpt lat="46.17061903" lon="6.05235904"><ele>443.785767</ele><time>2009-10-19T12:36:22Z</time></trkpt>
<trkpt lat="46.17068944" lon="6.05230808"><ele>443.785767</ele><time>2009-10-19T12:36:23Z</time></trkpt>
<trkpt lat="46.17075775" lon="6.05226098"><ele>443.305054</ele><time>2009-10-19T12:36:24Z</time></trkpt>
<trkpt lat="46.17082438" lon="6.05221546"><ele>443.305054</ele><time>2009-10-19T12:36:25Z</time></trkpt>
<trkpt lat="46.17088415" lon="6.05217230"><ele>443.305054</ele><time>2009-10-19T12:36:26Z</time></trkpt>
<trkpt lat="46.17093679" lon="6.05213089"><ele>443.305054</ele><time>2009-10-19T12:36:27Z</time></trkpt>
<trkpt lat="46.17098414" lon="6.05208906"><ele>443.305054</ele><time>2009-10-19T12:36:28Z</time></trkpt>
<trkpt lat="46.17102924" lon="6.05204623"><ele>443.305054</ele><time>2009-10-19T12:36:29Z</time></trkpt>
<trkpt lat="46.17107542" lon="6.05200600"><ele>443.305054</ele><time>2009-10-19T12:36:30Z</time></trkpt>
<trkpt lat="46.17112462" lon="6.05196585"><ele>443.785767</ele><time>2009-10-19T12:36:31Z</time></trkpt>
<trkpt lat="46.17117282" lon="6.05192729"><ele>444.266479</ele><time>2009-10-19T12:36:32Z</time></trkpt>
<trkpt lat="46.17121892" lon="6.05189284"><ele>444.266479</ele><time>2009-10-19T12:36:33Z</time></trkpt>
<trkpt lat="46.17127097" lon="6.05185303"><ele>445.227661</ele><time>2009-10-19T12:36:34Z</time></trkpt>
<trkpt lat="46.17132244" lon="6.05181204"><ele>446.189087</ele><time>2009-10-19T12:36:35Z</time></trkpt>
<trkpt lat="46.17136753" lon="6.05177474"><ele>445.708374</ele><time>2009-10-19T12:36:36Z</time></trkpt>
<trkpt lat="46.17141204" lon="6.05173987"><ele>445.708374</ele><time>2009-10-19T12:36:37Z</time></trkpt>
<trkpt lat="46.17145487" lon="6.05170568"><ele>445.708374</ele><time>2009-10-19T12:36:38Z</time></trkpt>
<trkpt lat="46.17149485" lon="6.05167307"><ele>445.708374</ele><time>2009-10-19T12:36:39Z</time></trkpt>
<trkpt lat="46.17153115" lon="6.05164256"><ele>445.708374</ele><time>2009-10-19T12:36:40Z</time></trkpt>
<trkpt lat="46.17156375" lon="6.05161079"><ele>445.708374</ele><time>2009-10-19T12:36:41Z</time></trkpt>
<trkpt lat="46.17158999" lon="6.05157073"><ele>446.189087</ele><time>2009-10-19T12:36:42Z</time></trkpt>
<trkpt lat="46.17160558" lon="6.05152044"><ele>446.189087</ele><time>2009-10-19T12:36:43Z</time></trkpt>
<trkpt lat="46.17161203" lon="6.05146553"><ele>446.669678</ele><time>2009-10-19T12:36:44Z</time></trkpt>
<trkpt lat="46.17160575" lon="6.05141759"><ele>446.189087</ele><time>2009-10-19T12:36:45Z</time></trkpt>
<trkpt lat="46.17159158" lon="6.05137082"><ele>445.708374</ele><time>2009-10-19T12:36:46Z</time></trkpt>
<trkpt lat="46.17157490" lon="6.05132287"><ele>445.708374</ele><time>2009-10-19T12:36:47Z</time></trkpt>
<trkpt lat="46.17155713" lon="6.05127325"><ele>445.708374</ele><time>2009-10-19T12:36:48Z</time></trkpt>
<trkpt lat="46.17154196" lon="6.05121450"><ele>445.227661</ele><time>2009-10-19T12:36:49Z</time></trkpt>
<trkpt lat="46.17152855" lon="6.05115440"><ele>444.74707</ele><time>2009-10-19T12:36:50Z</time></trkpt>
<trkpt lat="46.17151639" lon="6.05110737"><ele>444.74707</ele><time>2009-10-19T12:36:51Z</time></trkpt>
<trkpt lat="46.17149133" lon="6.05105407"><ele>443.785767</ele><time>2009-10-19T12:36:52Z</time></trkpt>
<trkpt lat="46.17146937" lon="6.05100637"><ele>444.266479</ele><time>2009-10-19T12:36:53Z</time></trkpt>
<trkpt lat="46.17144993" lon="6.05096346"><ele>444.266479</ele><time>2009-10-19T12:36:54Z</time></trkpt>
<trkpt lat="46.17143677" lon="6.05091149"><ele>444.266479</ele><time>2009-10-19T12:36:55Z</time></trkpt>
<trkpt lat="46.17142009" lon="6.05086774"><ele>443.785767</ele><time>2009-10-19T12:36:56Z</time></trkpt>
<trkpt lat="46.17140374" lon="6.05082164"><ele>443.305054</ele><time>2009-10-19T12:36:57Z</time></trkpt>
<trkpt lat="46.17138203" lon="6.05076355"><ele>442.343872</ele><time>2009-10-19T12:36:58Z</time></trkpt>
<trkpt lat="46.17136334" lon="6.05071125"><ele>441.863159</ele><time>2009-10-19T12:36:59Z</time></trkpt>
<trkpt lat="46.17134322" lon="6.05065400"><ele>440.421265</ele><time>2009-10-19T12:37:00Z</time></trkpt>
<trkpt lat="46.17131850" lon="6.05060069"><ele>439.459717</ele><time>2009-10-19T12:37:01Z</time></trkpt>
<trkpt lat="46.17130115" lon="6.05055534"><ele>439.459717</ele><time>2009-10-19T12:37:02Z</time></trkpt>
<trkpt lat="46.17128246" lon="6.05051352"><ele>439.459717</ele><time>2009-10-19T12:37:03Z</time></trkpt>
<trkpt lat="46.17125706" lon="6.05046264"><ele>438.979126</ele><time>2009-10-19T12:37:04Z</time></trkpt>
<trkpt lat="46.17123066" lon="6.05040723"><ele>438.498535</ele><time>2009-10-19T12:37:05Z</time></trkpt>
<trkpt lat="46.17121104" lon="6.05035745"><ele>438.017822</ele><time>2009-10-19T12:37:06Z</time></trkpt>
<trkpt lat="46.17118958" lon="6.05031587"><ele>437.056519</ele><time>2009-10-19T12:37:07Z</time></trkpt>
<trkpt lat="46.17117039" lon="6.05026617"><ele>436.095215</ele><time>2009-10-19T12:37:08Z</time></trkpt>
<trkpt lat="46.17114499" lon="6.05021043"><ele>435.614502</ele><time>2009-10-19T12:37:09Z</time></trkpt>
<trkpt lat="46.17112295" lon="6.05015519"><ele>434.65332</ele><time>2009-10-19T12:37:10Z</time></trkpt>
<trkpt lat="46.17110568" lon="6.05010549"><ele>434.65332</ele><time>2009-10-19T12:37:11Z</time></trkpt>
<trkpt lat="46.17109554" lon="6.05006048"><ele>434.172607</ele><time>2009-10-19T12:37:12Z</time></trkpt>
<trkpt lat="46.17109076" lon="6.05001337"><ele>433.691895</ele><time>2009-10-19T12:37:13Z</time></trkpt>
<trkpt lat="46.17108447" lon="6.04996425"><ele>432.730713</ele><time>2009-10-19T12:37:14Z</time></trkpt>
<trkpt lat="46.17107525" lon="6.04992108"><ele>433.211304</ele><time>2009-10-19T12:37:15Z</time></trkpt>
<trkpt lat="46.17106645" lon="6.04987750"><ele>433.211304</ele><time>2009-10-19T12:37:16Z</time></trkpt>
<trkpt lat="46.17105832" lon="6.04983835"><ele>432.730713</ele><time>2009-10-19T12:37:17Z</time></trkpt>
<trkpt lat="46.17105086" lon="6.04979636"><ele>432.730713</ele><time>2009-10-19T12:37:18Z</time></trkpt>
<trkpt lat="46.17103963" lon="6.04975563"><ele>432.730713</ele><time>2009-10-19T12:37:19Z</time></trkpt>
<trkpt lat="46.17102756" lon="6.04972612"><ele>433.211304</ele><time>2009-10-19T12:37:20Z</time></trkpt>
<trkpt lat="46.17100485" lon="6.04969360"><ele>434.172607</ele><time>2009-10-19T12:37:21Z</time></trkpt>
<trkpt lat="46.17098574" lon="6.04966116"><ele>434.172607</ele><time>2009-10-19T12:37:22Z</time></trkpt>
<trkpt lat="46.17096537" lon="6.04962604"><ele>434.65332</ele><time>2009-10-19T12:37:23Z</time></trkpt>
<trkpt lat="46.17094634" lon="6.04958732"><ele>434.65332</ele><time>2009-10-19T12:37:24Z</time></trkpt>
<trkpt lat="46.17091860" lon="6.04954407"><ele>435.133911</ele><time>2009-10-19T12:37:25Z</time></trkpt>
<trkpt lat="46.17089932" lon="6.04950434"><ele>435.614502</ele><time>2009-10-19T12:37:26Z</time></trkpt>
<trkpt lat="46.17088524" lon="6.04946276"><ele>435.614502</ele><time>2009-10-19T12:37:27Z</time></trkpt>
<trkpt lat="46.17087233" lon="6.04942764"><ele>436.095215</ele><time>2009-10-19T12:37:28Z</time></trkpt>
<trkpt lat="46.17085674" lon="6.04938389"><ele>435.614502</ele><time>2009-10-19T12:37:29Z</time></trkpt>
<trkpt lat="46.17083956" lon="6.04934684"><ele>436.095215</ele><time>2009-10-19T12:37:30Z</time></trkpt>
<trkpt lat="46.17081776" lon="6.04930778"><ele>435.614502</ele><time>2009-10-19T12:37:31Z</time></trkpt>
<trkpt lat="46.17079647" lon="6.04926713"><ele>435.614502</ele><time>2009-10-19T12:37:32Z</time></trkpt>
<trkpt lat="46.17078046" lon="6.04922757"><ele>435.614502</ele><time>2009-10-19T12:37:33Z</time></trkpt>
<trkpt lat="46.17076487" lon="6.04918943"><ele>436.575928</ele><time>2009-10-19T12:37:34Z</time></trkpt>
<trkpt lat="46.17074492" lon="6.04915213"><ele>436.095215</ele><time>2009-10-19T12:37:35Z</time></trkpt>
<trkpt lat="46.17072497" lon="6.04912044"><ele>436.095215</ele><time>2009-10-19T12:37:36Z</time></trkpt>
<trkpt lat="46.17070402" lon="6.04908415"><ele>436.575928</ele><time>2009-10-19T12:37:37Z</time></trkpt>
<trkpt lat="46.17068407" lon="6.04904266"><ele>436.575928</ele><time>2009-10-19T12:37:38Z</time></trkpt>
<trkpt lat="46.17066312" lon="6.04900050"><ele>437.056519</ele><time>2009-10-19T12:37:39Z</time></trkpt>
<trkpt lat="46.17064158" lon="6.04896647"><ele>437.056519</ele><time>2009-10-19T12:37:40Z</time></trkpt>
<trkpt lat="46.17061903" lon="6.04892850"><ele>437.537109</ele><time>2009-10-19T12:37:41Z</time></trkpt>
<trkpt lat="46.17059765" lon="6.04888667"><ele>437.056519</ele><time>2009-10-19T12:37:42Z</time></trkpt>
<trkpt lat="46.17057628" lon="6.04885248"><ele>437.056519</ele><time>2009-10-19T12:37:43Z</time></trkpt>
<trkpt lat="46.17055407" lon="6.04882406"><ele>437.056519</ele><time>2009-10-19T12:37:44Z</time></trkpt>
<trkpt lat="46.17053227" lon="6.04879028"><ele>437.056519</ele><time>2009-10-19T12:37:45Z</time></trkpt>
<trkpt lat="46.17050956" lon="6.04875072"><ele>437.056519</ele><time>2009-10-19T12:37:46Z</time></trkpt>
<trkpt lat="46.17049078" lon="6.04870789"><ele>437.056519</ele><time>2009-10-19T12:37:47Z</time></trkpt>
<trkpt lat="46.17047193" lon="6.04866983"><ele>437.056519</ele><time>2009-10-19T12:37:48Z</time></trkpt>
<trkpt lat="46.17045349" lon="6.04863983"><ele>437.056519</ele><time>2009-10-19T12:37:49Z</time></trkpt>
<trkpt lat="46.17043127" lon="6.04860362"><ele>437.056519</ele><time>2009-10-19T12:37:50Z</time></trkpt>
<trkpt lat="46.17041183" lon="6.04857076"><ele>437.056519</ele><time>2009-10-19T12:37:51Z</time></trkpt>
<trkpt lat="46.17039255" lon="6.04854234"><ele>437.056519</ele><time>2009-10-19T12:37:52Z</time></trkpt>
<trkpt lat="46.17037729" lon="6.04849608"><ele>437.056519</ele><time>2009-10-19T12:37:53Z</time></trkpt>
<trkpt lat="46.17035726" lon="6.04844780"><ele>436.575928</ele><time>2009-10-19T12:37:54Z</time></trkpt>
<trkpt lat="46.17033865" lon="6.04840346"><ele>436.575928</ele><time>2009-10-19T12:37:55Z</time></trkpt>
<trkpt lat="46.17031669" lon="6.04835618"><ele>436.095215</ele><time>2009-10-19T12:37:56Z</time></trkpt>
<trkpt lat="46.17029515" lon="6.04830916"><ele>435.614502</ele><time>2009-10-19T12:37:57Z</time></trkpt>
<trkpt lat="46.17027202" lon="6.04826557"><ele>435.133911</ele><time>2009-10-19T12:37:58Z</time></trkpt>
<trkpt lat="46.17024947" lon="6.04822425"><ele>435.133911</ele><time>2009-10-19T12:37:59Z</time></trkpt>
<trkpt lat="46.17022709" lon="6.04817916"><ele>435.133911</ele><time>2009-10-19T12:38:00Z</time></trkpt>
<trkpt lat="46.17020857" lon="6.04812719"><ele>435.133911</ele><time>2009-10-19T12:38:01Z</time></trkpt>
<trkpt lat="46.17018979" lon="6.04807866"><ele>434.172607</ele><time>2009-10-19T12:38:02Z</time></trkpt>
<trkpt lat="46.17016892" lon="6.04803935"><ele>433.691895</ele><time>2009-10-19T12:38:03Z</time></trkpt>
<trkpt lat="46.17015459" lon="6.04801026"><ele>434.172607</ele><time>2009-10-19T12:38:04Z</time></trkpt>
<trkpt lat="46.17013338" lon="6.04796919"><ele>434.65332</ele><time>2009-10-19T12:38:05Z</time></trkpt>
<trkpt lat="46.17011159" lon="6.04792795"><ele>435.133911</ele><time>2009-10-19T12:38:06Z</time></trkpt>
<trkpt lat="46.17008954" lon="6.04788696"><ele>435.614502</ele><time>2009-10-19T12:38:07Z</time></trkpt>
<trkpt lat="46.17007026" lon="6.04784916"><ele>436.095215</ele><time>2009-10-19T12:38:08Z</time></trkpt>
<trkpt lat="46.17005006" lon="6.04781144"><ele>436.575928</ele><time>2009-10-19T12:38:09Z</time></trkpt>
<trkpt lat="46.17002919" lon="6.04777272"><ele>437.056519</ele><time>2009-10-19T12:38:10Z</time></trkpt>
<trkpt lat="46.17000975" lon="6.04773768"><ele>437.537109</ele><time>2009-10-19T12:38:11Z</time></trkpt>
<trkpt lat="46.16998938" lon="6.04769837"><ele>438.498535</ele><time>2009-10-19T12:38:12Z</time></trkpt>
<trkpt lat="46.16996717" lon="6.04765713"><ele>438.979126</ele><time>2009-10-19T12:38:13Z</time></trkpt>
<trkpt lat="46.16994873" lon="6.04762796"><ele>439.94043</ele><time>2009-10-19T12:38:14Z</time></trkpt>
<trkpt lat="46.16993129" lon="6.04759838"><ele>440.901855</ele><time>2009-10-19T12:38:15Z</time></trkpt>
<trkpt lat="46.16991470" lon="6.04756585"><ele>441.863159</ele><time>2009-10-19T12:38:16Z</time></trkpt>
<trkpt lat="46.16989332" lon="6.04753132"><ele>442.343872</ele><time>2009-10-19T12:38:17Z</time></trkpt>
<trkpt lat="46.16987212" lon="6.04749603"><ele>442.824463</ele><time>2009-10-19T12:38:18Z</time></trkpt>
<trkpt lat="46.16984923" lon="6.04745924"><ele>443.305054</ele><time>2009-10-19T12:38:19Z</time></trkpt>
<trkpt lat="46.16982518" lon="6.04742236"><ele>443.785767</ele><time>2009-10-19T12:38:20Z</time></trkpt>
<trkpt lat="46.16980355" lon="6.04738673"><ele>444.266479</ele><time>2009-10-19T12:38:21Z</time></trkpt>
<trkpt lat="46.16978385" lon="6.04735446"><ele>445.227661</ele><time>2009-10-19T12:38:22Z</time></trkpt>
<trkpt lat="46.16975938" lon="6.04731716"><ele>445.708374</ele><time>2009-10-19T12:38:23Z</time></trkpt>
<trkpt lat="46.16973742" lon="6.04727986"><ele>445.708374</ele><time>2009-10-19T12:38:24Z</time></trkpt>
<trkpt lat="46.16971839" lon="6.04724499"><ele>445.708374</ele><time>2009-10-19T12:38:25Z</time></trkpt>
<trkpt lat="46.16970104" lon="6.04721474"><ele>446.189087</ele><time>2009-10-19T12:38:26Z</time></trkpt>
<trkpt lat="46.16967640" lon="6.04718045"><ele>447.150269</ele><time>2009-10-19T12:38:27Z</time></trkpt>
<trkpt lat="46.16964446" lon="6.04716159"><ele>448.111816</ele><time>2009-10-19T12:38:28Z</time></trkpt>
<trkpt lat="46.16960758" lon="6.04715673"><ele>448.592407</ele><time>2009-10-19T12:38:29Z</time></trkpt>
<trkpt lat="46.16956919" lon="6.04716939"><ele>449.072998</ele><time>2009-10-19T12:38:30Z</time></trkpt>
<trkpt lat="46.16953148" lon="6.04719286"><ele>449.553711</ele><time>2009-10-19T12:38:31Z</time></trkpt>
<trkpt lat="46.16949342" lon="6.04722136"><ele>450.034424</ele><time>2009-10-19T12:38:32Z</time></trkpt>
<trkpt lat="46.16945017" lon="6.04725245"><ele>450.515015</ele><time>2009-10-19T12:38:33Z</time></trkpt>
<trkpt lat="46.16940449" lon="6.04728665"><ele>451.476318</ele><time>2009-10-19T12:38:34Z</time></trkpt>
<trkpt lat="46.16936208" lon="6.04731892"><ele>451.476318</ele><time>2009-10-19T12:38:35Z</time></trkpt>
<trkpt lat="46.16931908" lon="6.04735128"><ele>451.957031</ele><time>2009-10-19T12:38:36Z</time></trkpt>
<trkpt lat="46.16927876" lon="6.04738522"><ele>451.957031</ele><time>2009-10-19T12:38:37Z</time></trkpt>
<trkpt lat="46.16923953" lon="6.04741925"><ele>451.957031</ele><time>2009-10-19T12:38:38Z</time></trkpt>
<trkpt lat="46.16920198" lon="6.04745186"><ele>452.437622</ele><time>2009-10-19T12:38:39Z</time></trkpt>
<trkpt lat="46.16916485" lon="6.04748497"><ele>452.918213</ele><time>2009-10-19T12:38:40Z</time></trkpt>
<trkpt lat="46.16912546" lon="6.04751866"><ele>453.398926</ele><time>2009-10-19T12:38:41Z</time></trkpt>
<trkpt lat="46.16908447" lon="6.04755504"><ele>453.398926</ele><time>2009-10-19T12:38:42Z</time></trkpt>
<trkpt lat="46.16904424" lon="6.04759444"><ele>453.879639</ele><time>2009-10-19T12:38:43Z</time></trkpt>
<trkpt lat="46.16900853" lon="6.04763232"><ele>453.879639</ele><time>2009-10-19T12:38:44Z</time></trkpt>
<trkpt lat="46.16897115" lon="6.04767012"><ele>453.879639</ele><time>2009-10-19T12:38:45Z</time></trkpt>
<trkpt lat="46.16893183" lon="6.04770776"><ele>453.879639</ele><time>2009-10-19T12:38:46Z</time></trkpt>
<trkpt lat="46.16889487" lon="6.04774405"><ele>453.879639</ele><time>2009-10-19T12:38:47Z</time></trkpt>
<trkpt lat="46.16885422" lon="6.04778445"><ele>454.360229</ele><time>2009-10-19T12:38:48Z</time></trkpt>
<trkpt lat="46.16881298" lon="6.04782737"><ele>453.879639</ele><time>2009-10-19T12:38:49Z</time></trkpt>
<trkpt lat="46.16877115" lon="6.04786945"><ele>453.879639</ele><time>2009-10-19T12:38:50Z</time></trkpt>
<trkpt lat="46.16872866" lon="6.04791010"><ele>453.879639</ele><time>2009-10-19T12:38:51Z</time></trkpt>
<trkpt lat="46.16868633" lon="6.04794924"><ele>454.360229</ele><time>2009-10-19T12:38:52Z</time></trkpt>
<trkpt lat="46.16864417" lon="6.04798822"><ele>454.360229</ele><time>2009-10-19T12:38:53Z</time></trkpt>
<trkpt lat="46.16860184" lon="6.04802635"><ele>454.84082</ele><time>2009-10-19T12:38:54Z</time></trkpt>
<trkpt lat="46.16855959" lon="6.04806433"><ele>454.84082</ele><time>2009-10-19T12:38:55Z</time></trkpt>
<trkpt lat="46.16851668" lon="6.04810137"><ele>455.321533</ele><time>2009-10-19T12:38:56Z</time></trkpt>
<trkpt lat="46.16847284" lon="6.04813566"><ele>455.802246</ele><time>2009-10-19T12:38:57Z</time></trkpt>
<trkpt lat="46.16842942" lon="6.04817036"><ele>455.802246</ele><time>2009-10-19T12:38:58Z</time></trkpt>
<trkpt lat="46.16838659" lon="6.04820414"><ele>456.282959</ele><time>2009-10-19T12:38:59Z</time></trkpt>
<trkpt lat="46.16834326" lon="6.04823540"><ele>456.282959</ele><time>2009-10-19T12:39:00Z</time></trkpt>
<trkpt lat="46.16830026" lon="6.04826574"><ele>456.76355</ele><time>2009-10-19T12:39:01Z</time></trkpt>
<trkpt lat="46.16825776" lon="6.04829575"><ele>456.76355</ele><time>2009-10-19T12:39:02Z</time></trkpt>
<trkpt lat="46.16821568" lon="6.04832534"><ele>457.244263</ele><time>2009-10-19T12:39:03Z</time></trkpt>
<trkpt lat="46.16817386" lon="6.04835417"><ele>457.244263</ele><time>2009-10-19T12:39:04Z</time></trkpt>
<trkpt lat="46.16813212" lon="6.04838284"><ele>457.724976</ele><time>2009-10-19T12:39:05Z</time></trkpt>
<trkpt lat="46.16809096" lon="6.04841326"><ele>457.724976</ele><time>2009-10-19T12:39:06Z</time></trkpt>
<trkpt lat="46.16805023" lon="6.04844419"><ele>457.724976</ele><time>2009-10-19T12:39:07Z</time></trkpt>
<trkpt lat="46.16801008" lon="6.04847495"><ele>458.205566</ele><time>2009-10-19T12:39:08Z</time></trkpt>
<trkpt lat="46.16796934" lon="6.04850412"><ele>458.205566</ele><time>2009-10-19T12:39:09Z</time></trkpt>
<trkpt lat="46.16792827" lon="6.04853229"><ele>458.686157</ele><time>2009-10-19T12:39:10Z</time></trkpt>
<trkpt lat="46.16788854" lon="6.04856146"><ele>458.686157</ele><time>2009-10-19T12:39:11Z</time></trkpt>
<trkpt lat="46.16785032" lon="6.04859314"><ele>458.686157</ele><time>2009-10-19T12:39:12Z</time></trkpt>
<trkpt lat="46.16781260" lon="6.04862574"><ele>459.16687</ele><time>2009-10-19T12:39:13Z</time></trkpt>
<trkpt lat="46.16777413" lon="6.04865676"><ele>459.16687</ele><time>2009-10-19T12:39:14Z</time></trkpt>
<trkpt lat="46.16773565" lon="6.04868693"><ele>459.16687</ele><time>2009-10-19T12:39:15Z</time></trkpt>
<trkpt lat="46.16769693" lon="6.04871694"><ele>459.647583</ele><time>2009-10-19T12:39:16Z</time></trkpt>
<trkpt lat="46.16765879" lon="6.04874703"><ele>459.647583</ele><time>2009-10-19T12:39:17Z</time></trkpt>
<trkpt lat="46.16762082" lon="6.04877796"><ele>459.647583</ele><time>2009-10-19T12:39:18Z</time></trkpt>
<trkpt lat="46.16758369" lon="6.04881006"><ele>460.128174</ele><time>2009-10-19T12:39:19Z</time></trkpt>
<trkpt lat="46.16754773" lon="6.04884393"><ele>460.128174</ele><time>2009-10-19T12:39:20Z</time></trkpt>
<trkpt lat="46.16751202" lon="6.04887787"><ele>460.128174</ele><time>2009-10-19T12:39:21Z</time></trkpt>
<trkpt lat="46.16747498" lon="6.04891098"><ele>460.128174</ele><time>2009-10-19T12:39:22Z</time></trkpt>
<trkpt lat="46.16743617" lon="6.04894359"><ele>460.128174</ele><time>2009-10-19T12:39:23Z</time></trkpt>
<trkpt lat="46.16739677" lon="6.04897787"><ele>460.608765</ele><time>2009-10-19T12:39:24Z</time></trkpt>
<trkpt lat="46.16735579" lon="6.04901014"><ele>460.608765</ele><time>2009-10-19T12:39:25Z</time></trkpt>
<trkpt lat="46.16731312" lon="6.04903897"><ele>460.608765</ele><time>2009-10-19T12:39:26Z</time></trkpt>
<trkpt lat="46.16727146" lon="6.04907015"><ele>460.608765</ele><time>2009-10-19T12:39:27Z</time></trkpt>
<trkpt lat="46.16723098" lon="6.04910402"><ele>460.608765</ele><time>2009-10-19T12:39:28Z</time></trkpt>
<trkpt lat="46.16719016" lon="6.04913830"><ele>460.608765</ele><time>2009-10-19T12:39:29Z</time></trkpt>
<trkpt lat="46.16714875" lon="6.04917224"><ele>460.608765</ele><time>2009-10-19T12:39:30Z</time></trkpt>
<trkpt lat="46.16710684" lon="6.04920628"><ele>460.608765</ele><time>2009-10-19T12:39:31Z</time></trkpt>
<trkpt lat="46.16706527" lon="6.04924148"><ele>460.608765</ele><time>2009-10-19T12:39:32Z</time></trkpt>
<trkpt lat="46.16702353" lon="6.04927786"><ele>460.608765</ele><time>2009-10-19T12:39:33Z</time></trkpt>
<trkpt lat="46.16698069" lon="6.04931323"><ele>460.608765</ele><time>2009-10-19T12:39:34Z</time></trkpt>
<trkpt lat="46.16693744" lon="6.04934843"><ele>461.089478</ele><time>2009-10-19T12:39:35Z</time></trkpt>
<trkpt lat="46.16689403" lon="6.04938389"><ele>460.608765</ele><time>2009-10-19T12:39:36Z</time></trkpt>
<trkpt lat="46.16685052" lon="6.04941934"><ele>460.608765</ele><time>2009-10-19T12:39:37Z</time></trkpt>
<trkpt lat="46.16680752" lon="6.04945639"><ele>460.608765</ele><time>2009-10-19T12:39:38Z</time></trkpt>
<trkpt lat="46.16676570" lon="6.04949495"><ele>460.608765</ele><time>2009-10-19T12:39:39Z</time></trkpt>
<trkpt lat="46.16672589" lon="6.04953594"><ele>460.608765</ele><time>2009-10-19T12:39:40Z</time></trkpt>
<trkpt lat="46.16668867" lon="6.04957986"><ele>460.608765</ele><time>2009-10-19T12:39:41Z</time></trkpt>
<trkpt lat="46.16665556" lon="6.04962696"><ele>460.608765</ele><time>2009-10-19T12:39:42Z</time></trkpt>
<trkpt lat="46.16662673" lon="6.04967826"><ele>460.608765</ele><time>2009-10-19T12:39:43Z</time></trkpt>
<trkpt lat="46.16660074" lon="6.04973149"><ele>460.608765</ele><time>2009-10-19T12:39:44Z</time></trkpt>
<trkpt lat="46.16657618" lon="6.04978572"><ele>460.608765</ele><time>2009-10-19T12:39:45Z</time></trkpt>
<trkpt lat="46.16655372" lon="6.04984045"><ele>460.608765</ele><time>2009-10-19T12:39:46Z</time></trkpt>
<trkpt lat="46.16653302" lon="6.04989653"><ele>460.128174</ele><time>2009-10-19T12:39:47Z</time></trkpt>
<trkpt lat="46.16651198" lon="6.04995486"><ele>460.128174</ele><time>2009-10-19T12:39:48Z</time></trkpt>
<trkpt lat="46.16649094" lon="6.05001588"><ele>460.128174</ele><time>2009-10-19T12:39:49Z</time></trkpt>
<trkpt lat="46.16646999" lon="6.05007824"><ele>459.647583</ele><time>2009-10-19T12:39:50Z</time></trkpt>
<trkpt lat="46.16644677" lon="6.05014128"><ele>459.647583</ele><time>2009-10-19T12:39:51Z</time></trkpt>
<trkpt lat="46.16642229" lon="6.05020448"><ele>459.647583</ele><time>2009-10-19T12:39:52Z</time></trkpt>
<trkpt lat="46.16639874" lon="6.05026843"><ele>459.647583</ele><time>2009-10-19T12:39:53Z</time></trkpt>
<trkpt lat="46.16637670" lon="6.05033347"><ele>459.16687</ele><time>2009-10-19T12:39:54Z</time></trkpt>
<trkpt lat="46.16635524" lon="6.05039919"><ele>459.16687</ele><time>2009-10-19T12:39:55Z</time></trkpt>
<trkpt lat="46.16633370" lon="6.05046473"><ele>459.16687</ele><time>2009-10-19T12:39:56Z</time></trkpt>
<trkpt lat="46.16631442" lon="6.05053154"><ele>459.16687</ele><time>2009-10-19T12:39:57Z</time></trkpt>
<trkpt lat="46.16629598" lon="6.05060538"><ele>458.686157</ele><time>2009-10-19T12:39:58Z</time></trkpt>
<trkpt lat="46.16628156" lon="6.05068065"><ele>458.686157</ele><time>2009-10-19T12:39:59Z</time></trkpt>
<trkpt lat="46.16627100" lon="6.05075525"><ele>458.686157</ele><time>2009-10-19T12:40:00Z</time></trkpt>
<trkpt lat="46.16626245" lon="6.05082574"><ele>458.686157</ele><time>2009-10-19T12:40:01Z</time></trkpt>
<trkpt lat="46.16625675" lon="6.05089037"><ele>458.205566</ele><time>2009-10-19T12:40:02Z</time></trkpt>
<trkpt lat="46.16625382" lon="6.05094837"><ele>458.205566</ele><time>2009-10-19T12:40:03Z</time></trkpt>
<trkpt lat="46.16625063" lon="6.05100143"><ele>458.205566</ele><time>2009-10-19T12:40:04Z</time></trkpt>
<trkpt lat="46.16624795" lon="6.05105038"><ele>458.205566</ele><time>2009-10-19T12:40:05Z</time></trkpt>
<trkpt lat="46.16624778" lon="6.05109774"><ele>457.724976</ele><time>2009-10-19T12:40:06Z</time></trkpt>
<trkpt lat="46.16624619" lon="6.05114903"><ele>457.724976</ele><time>2009-10-19T12:40:07Z</time></trkpt>
<trkpt lat="46.16624359" lon="6.05120502"><ele>457.724976</ele><time>2009-10-19T12:40:08Z</time></trkpt>
<trkpt lat="46.16623999" lon="6.05126227"><ele>457.724976</ele><time>2009-10-19T12:40:09Z</time></trkpt>
<trkpt lat="46.16623370" lon="6.05131634"><ele>457.244263</ele><time>2009-10-19T12:40:10Z</time></trkpt>
<trkpt lat="46.16622322" lon="6.05136084"><ele>457.724976</ele><time>2009-10-19T12:40:11Z</time></trkpt>
<trkpt lat="46.16620394" lon="6.05138767"><ele>457.724976</ele><time>2009-10-19T12:40:12Z</time></trkpt>
<trkpt lat="46.16617955" lon="6.05138817"><ele>457.244263</ele><time>2009-10-19T12:40:13Z</time></trkpt>
<trkpt lat="46.16615927" lon="6.05136327"><ele>457.244263</ele><time>2009-10-19T12:40:14Z</time></trkpt>
<trkpt lat="46.16614326" lon="6.05132472"><ele>456.76355</ele><time>2009-10-19T12:40:15Z</time></trkpt>
<trkpt lat="46.16612867" lon="6.05128038"><ele>456.76355</ele><time>2009-10-19T12:40:16Z</time></trkpt>
<trkpt lat="46.16611199" lon="6.05122950"><ele>456.282959</ele><time>2009-10-19T12:40:17Z</time></trkpt>
<trkpt lat="46.16609179" lon="6.05117368"><ele>456.282959</ele><time>2009-10-19T12:40:18Z</time></trkpt>
<trkpt lat="46.16606556" lon="6.05111626"><ele>456.282959</ele><time>2009-10-19T12:40:19Z</time></trkpt>
<trkpt lat="46.16603714" lon="6.05105658"><ele>455.802246</ele><time>2009-10-19T12:40:20Z</time></trkpt>
<trkpt lat="46.16600756" lon="6.05099623"><ele>455.802246</ele><time>2009-10-19T12:40:21Z</time></trkpt>
<trkpt lat="46.16597738" lon="6.05093504"><ele>455.802246</ele><time>2009-10-19T12:40:22Z</time></trkpt>
<trkpt lat="46.16594754" lon="6.05087335"><ele>455.321533</ele><time>2009-10-19T12:40:23Z</time></trkpt>
<trkpt lat="46.16591779" lon="6.05081250"><ele>455.321533</ele><time>2009-10-19T12:40:24Z</time></trkpt>
<trkpt lat="46.16588677" lon="6.05075274"><ele>455.321533</ele><time>2009-10-19T12:40:25Z</time></trkpt>
<trkpt lat="46.16585475" lon="6.05069364"><ele>455.321533</ele><time>2009-10-19T12:40:26Z</time></trkpt>
<trkpt lat="46.16582424" lon="6.05063656"><ele>455.321533</ele><time>2009-10-19T12:40:27Z</time></trkpt>
<trkpt lat="46.16579566" lon="6.05057688"><ele>455.321533</ele><time>2009-10-19T12:40:28Z</time></trkpt>
<trkpt lat="46.16577119" lon="6.05051385"><ele>455.802246</ele><time>2009-10-19T12:40:29Z</time></trkpt>
<trkpt lat="46.16574646" lon="6.05045518"><ele>455.802246</ele><time>2009-10-19T12:40:30Z</time></trkpt>
<trkpt lat="46.16572089" lon="6.05039684"><ele>455.802246</ele><time>2009-10-19T12:40:31Z</time></trkpt>
<trkpt lat="46.16569223" lon="6.05033649"><ele>456.282959</ele><time>2009-10-19T12:40:32Z</time></trkpt>
<trkpt lat="46.16566306" lon="6.05028134"><ele>455.802246</ele><time>2009-10-19T12:40:33Z</time></trkpt>
<trkpt lat="46.16563557" lon="6.05022853"><ele>455.321533</ele><time>2009-10-19T12:40:34Z</time></trkpt>
<trkpt lat="46.16560883" lon="6.05017439"><ele>455.321533</ele><time>2009-10-19T12:40:35Z</time></trkpt>
<trkpt lat="46.16558452" lon="6.05012208"><ele>455.802246</ele><time>2009-10-19T12:40:36Z</time></trkpt>
<trkpt lat="46.16555795" lon="6.05006743"><ele>455.802246</ele><time>2009-10-19T12:40:37Z</time></trkpt>
<trkpt lat="46.16553457" lon="6.05001345"><ele>455.802246</ele><time>2009-10-19T12:40:38Z</time></trkpt>
<trkpt lat="46.16551512" lon="6.04996366"><ele>456.282959</ele><time>2009-10-19T12:40:39Z</time></trkpt>
<trkpt lat="46.16549266" lon="6.04991379"><ele>455.802246</ele><time>2009-10-19T12:40:40Z</time></trkpt>
<trkpt lat="46.16546994" lon="6.04986652"><ele>455.802246</ele><time>2009-10-19T12:40:41Z</time></trkpt>
<trkpt lat="46.16544647" lon="6.04981706"><ele>456.282959</ele><time>2009-10-19T12:40:42Z</time></trkpt>
<trkpt lat="46.16542149" lon="6.04976577"><ele>456.76355</ele><time>2009-10-19T12:40:43Z</time></trkpt>
<trkpt lat="46.16539543" lon="6.04971279"><ele>456.76355</ele><time>2009-10-19T12:40:44Z</time></trkpt>
<trkpt lat="46.16536944" lon="6.04965923"><ele>457.244263</ele><time>2009-10-19T12:40:45Z</time></trkpt>
<trkpt lat="46.16534212" lon="6.04960643"><ele>457.244263</ele><time>2009-10-19T12:40:46Z</time></trkpt>
<trkpt lat="46.16531404" lon="6.04955488"><ele>456.76355</ele><time>2009-10-19T12:40:47Z</time></trkpt>
<trkpt lat="46.16528546" lon="6.04949956"><ele>456.76355</ele><time>2009-10-19T12:40:48Z</time></trkpt>
<trkpt lat="46.16525528" lon="6.04943896"><ele>455.802246</ele><time>2009-10-19T12:40:49Z</time></trkpt>
<trkpt lat="46.16522267" lon="6.04937919"><ele>454.360229</ele><time>2009-10-19T12:40:50Z</time></trkpt>
<trkpt lat="46.16519443" lon="6.04932538"><ele>454.360229</ele><time>2009-10-19T12:40:51Z</time></trkpt>
<trkpt lat="46.16517247" lon="6.04927978"><ele>453.398926</ele><time>2009-10-19T12:40:52Z</time></trkpt>
<trkpt lat="46.16516425" lon="6.04923737"><ele>452.918213</ele><time>2009-10-19T12:40:53Z</time></trkpt>
<trkpt lat="46.16516995" lon="6.04919756"><ele>452.918213</ele><time>2009-10-19T12:40:54Z</time></trkpt>
<trkpt lat="46.16519133" lon="6.04916160"><ele>453.398926</ele><time>2009-10-19T12:40:55Z</time></trkpt>
<trkpt lat="46.16522226" lon="6.04912908"><ele>453.398926</ele><time>2009-10-19T12:40:56Z</time></trkpt>
<trkpt lat="46.16525754" lon="6.04909438"><ele>453.398926</ele><time>2009-10-19T12:40:57Z</time></trkpt>
<trkpt lat="46.16529618" lon="6.04905733"><ele>453.398926</ele><time>2009-10-19T12:40:58Z</time></trkpt>
<trkpt lat="46.16533625" lon="6.04901626"><ele>453.398926</ele><time>2009-10-19T12:40:59Z</time></trkpt>
<trkpt lat="46.16537757" lon="6.04897175"><ele>453.398926</ele><time>2009-10-19T12:41:00Z</time></trkpt>
<trkpt lat="46.16542049" lon="6.04892666"><ele>453.879639</ele><time>2009-10-19T12:41:01Z</time></trkpt>
<trkpt lat="46.16546508" lon="6.04888022"><ele>453.879639</ele><time>2009-10-19T12:41:02Z</time></trkpt>
<trkpt lat="46.16551059" lon="6.04883202"><ele>453.879639</ele><time>2009-10-19T12:41:03Z</time></trkpt>
<trkpt lat="46.16555678" lon="6.04878349"><ele>453.879639</ele><time>2009-10-19T12:41:04Z</time></trkpt>
<trkpt lat="46.16560397" lon="6.04873354"><ele>453.879639</ele><time>2009-10-19T12:41:05Z</time></trkpt>
<trkpt lat="46.16565107" lon="6.04868115"><ele>454.360229</ele><time>2009-10-19T12:41:06Z</time></trkpt>
<trkpt lat="46.16569634" lon="6.04862943"><ele>454.360229</ele><time>2009-10-19T12:41:07Z</time></trkpt>
<trkpt lat="46.16573925" lon="6.04858182"><ele>454.84082</ele><time>2009-10-19T12:41:08Z</time></trkpt>
<trkpt lat="46.16578225" lon="6.04853463"><ele>454.84082</ele><time>2009-10-19T12:41:09Z</time></trkpt>
<trkpt lat="46.16582584" lon="6.04848652"><ele>455.321533</ele><time>2009-10-19T12:41:10Z</time></trkpt>
<trkpt lat="46.16586565" lon="6.04843774"><ele>455.321533</ele><time>2009-10-19T12:41:11Z</time></trkpt>
<trkpt lat="46.16590555" lon="6.04839088"><ele>455.321533</ele><time>2009-10-19T12:41:12Z</time></trkpt>
<trkpt lat="46.16594779" lon="6.04834646"><ele>455.321533</ele><time>2009-10-19T12:41:13Z</time></trkpt>
<trkpt lat="46.16599130" lon="6.04830212"><ele>455.321533</ele><time>2009-10-19T12:41:14Z</time></trkpt>
<trkpt lat="46.16603513" lon="6.04825627"><ele>455.321533</ele><time>2009-10-19T12:41:15Z</time></trkpt>
<trkpt lat="46.16607905" lon="6.04820925"><ele>455.321533</ele><time>2009-10-19T12:41:16Z</time></trkpt>
<trkpt lat="46.16612306" lon="6.04816290"><ele>455.321533</ele><time>2009-10-19T12:41:17Z</time></trkpt>
<trkpt lat="46.16616706" lon="6.04811705"><ele>455.321533</ele><time>2009-10-19T12:41:18Z</time></trkpt>
<trkpt lat="46.16621048" lon="6.04807044"><ele>455.321533</ele><time>2009-10-19T12:41:19Z</time></trkpt>
<trkpt lat="46.16625398" lon="6.04802359"><ele>455.321533</ele><time>2009-10-19T12:41:20Z</time></trkpt>
<trkpt lat="46.16629765" lon="6.04797673"><ele>455.321533</ele><time>2009-10-19T12:41:21Z</time></trkpt>
<trkpt lat="46.16634157" lon="6.04792963"><ele>455.321533</ele><time>2009-10-19T12:41:22Z</time></trkpt>
<trkpt lat="46.16638516" lon="6.04788252"><ele>455.321533</ele><time>2009-10-19T12:41:23Z</time></trkpt>
<trkpt lat="46.16642917" lon="6.04783525"><ele>455.802246</ele><time>2009-10-19T12:41:24Z</time></trkpt>
<trkpt lat="46.16647292" lon="6.04778747"><ele>455.802246</ele><time>2009-10-19T12:41:25Z</time></trkpt>
<trkpt lat="46.16651642" lon="6.04774003"><ele>455.802246</ele><time>2009-10-19T12:41:26Z</time></trkpt>
<trkpt lat="46.16655992" lon="6.04769309"><ele>455.802246</ele><time>2009-10-19T12:41:27Z</time></trkpt>
<trkpt lat="46.16660292" lon="6.04764598"><ele>456.282959</ele><time>2009-10-19T12:41:28Z</time></trkpt>
<trkpt lat="46.16664433" lon="6.04759879"><ele>456.282959</ele><time>2009-10-19T12:41:29Z</time></trkpt>
<trkpt lat="46.16668448" lon="6.04755253"><ele>456.282959</ele><time>2009-10-19T12:41:30Z</time></trkpt>
<trkpt lat="46.16672295" lon="6.04750693"><ele>455.802246</ele><time>2009-10-19T12:41:31Z</time></trkpt>
<trkpt lat="46.16675883" lon="6.04746125"><ele>455.802246</ele><time>2009-10-19T12:41:32Z</time></trkpt>
<trkpt lat="46.16679302" lon="6.04741774"><ele>455.802246</ele><time>2009-10-19T12:41:33Z</time></trkpt>
<trkpt lat="46.16682412" lon="6.04737776"><ele>455.802246</ele><time>2009-10-19T12:41:34Z</time></trkpt>
<trkpt lat="46.16685187" lon="6.04734055"><ele>455.802246</ele><time>2009-10-19T12:41:35Z</time></trkpt>
<trkpt lat="46.16686989" lon="6.04730987"><ele>456.76355</ele><time>2009-10-19T12:41:36Z</time></trkpt>
<trkpt lat="46.16688346" lon="6.04727902"><ele>458.205566</ele><time>2009-10-19T12:41:37Z</time></trkpt>
<trkpt lat="46.16689545" lon="6.04724516"><ele>458.686157</ele><time>2009-10-19T12:41:38Z</time></trkpt>
<trkpt lat="46.16690786" lon="6.04721323"><ele>458.686157</ele><time>2009-10-19T12:41:39Z</time></trkpt>
<trkpt lat="46.16692806" lon="6.04717609"><ele>459.647583</ele><time>2009-10-19T12:41:40Z</time></trkpt>
<trkpt lat="46.16694566" lon="6.04714173"><ele>459.647583</ele><time>2009-10-19T12:41:41Z</time></trkpt>
<trkpt lat="46.16696946" lon="6.04710577"><ele>459.647583</ele><time>2009-10-19T12:41:42Z</time></trkpt>
<trkpt lat="46.16699453" lon="6.04706009"><ele>460.128174</ele><time>2009-10-19T12:41:43Z</time></trkpt>
<trkpt lat="46.16701297" lon="6.04701407"><ele>460.608765</ele><time>2009-10-19T12:41:44Z</time></trkpt>
<trkpt lat="46.16703778" lon="6.04696177"><ele>461.57019</ele><time>2009-10-19T12:41:45Z</time></trkpt>
<trkpt lat="46.16706326" lon="6.04691282"><ele>462.050781</ele><time>2009-10-19T12:41:46Z</time></trkpt>
<trkpt lat="46.16709377" lon="6.04685700"><ele>463.492798</ele><time>2009-10-19T12:41:47Z</time></trkpt>
<trkpt lat="46.16712428" lon="6.04680025"><ele>465.415527</ele><time>2009-10-19T12:41:48Z</time></trkpt>
<trkpt lat="46.16714599" lon="6.04674719"><ele>466.376709</ele><time>2009-10-19T12:41:49Z</time></trkpt>
<trkpt lat="46.16716476" lon="6.04669640"><ele>467.338135</ele><time>2009-10-19T12:41:50Z</time></trkpt>
<trkpt lat="46.16718798" lon="6.04664208"><ele>467.818726</ele><time>2009-10-19T12:41:51Z</time></trkpt>
<trkpt lat="46.16721723" lon="6.04659590"><ele>467.818726</ele><time>2009-10-19T12:41:52Z</time></trkpt>
<trkpt lat="46.16724565" lon="6.04654980"><ele>467.338135</ele><time>2009-10-19T12:41:53Z</time></trkpt>
<trkpt lat="46.16726954" lon="6.04649934"><ele>467.338135</ele><time>2009-10-19T12:41:54Z</time></trkpt>
<trkpt lat="46.16729309" lon="6.04644394"><ele>466.857422</ele><time>2009-10-19T12:41:55Z</time></trkpt>
<trkpt lat="46.16731773" lon="6.04639239"><ele>465.896118</ele><time>2009-10-19T12:41:56Z</time></trkpt>
<trkpt lat="46.16734237" lon="6.04634319"><ele>465.415527</ele><time>2009-10-19T12:41:57Z</time></trkpt>
<trkpt lat="46.16736643" lon="6.04629398"><ele>464.934814</ele><time>2009-10-19T12:41:58Z</time></trkpt>
<trkpt lat="46.16738898" lon="6.04624453"><ele>463.973389</ele><time>2009-10-19T12:41:59Z</time></trkpt>
<trkpt lat="46.16740809" lon="6.04619860"><ele>463.012085</ele><time>2009-10-19T12:42:00Z</time></trkpt>
<trkpt lat="46.16741982" lon="6.04615585"><ele>463.012085</ele><time>2009-10-19T12:42:01Z</time></trkpt>
<trkpt lat="46.16742016" lon="6.04611394"><ele>462.531372</ele><time>2009-10-19T12:42:02Z</time></trkpt>
<trkpt lat="46.16742259" lon="6.04606239"><ele>463.012085</ele><time>2009-10-19T12:42:03Z</time></trkpt>
<trkpt lat="46.16740583" lon="6.04602652"><ele>462.531372</ele><time>2009-10-19T12:42:04Z</time></trkpt>
<trkpt lat="46.16739443" lon="6.04598427"><ele>463.492798</ele><time>2009-10-19T12:42:05Z</time></trkpt>
<trkpt lat="46.16737364" lon="6.04594840"><ele>463.012085</ele><time>2009-10-19T12:42:06Z</time></trkpt>
<trkpt lat="46.16734246" lon="6.04591034"><ele>462.050781</ele><time>2009-10-19T12:42:07Z</time></trkpt>
<trkpt lat="46.16730348" lon="6.04586642"><ele>462.050781</ele><time>2009-10-19T12:42:08Z</time></trkpt>
<trkpt lat="46.16725964" lon="6.04581647"><ele>462.050781</ele><time>2009-10-19T12:42:09Z</time></trkpt>
<trkpt lat="46.16721354" lon="6.04576710"><ele>461.57019</ele><time>2009-10-19T12:42:10Z</time></trkpt>
<trkpt lat="46.16716577" lon="6.04571882"><ele>461.57019</ele><time>2009-10-19T12:42:11Z</time></trkpt>
<trkpt lat="46.16711925" lon="6.04567448"><ele>461.089478</ele><time>2009-10-19T12:42:12Z</time></trkpt>
<trkpt lat="46.16707357" lon="6.04563626"><ele>460.608765</ele><time>2009-10-19T12:42:13Z</time></trkpt>
<trkpt lat="46.16702872" lon="6.04559996"><ele>460.128174</ele><time>2009-10-19T12:42:14Z</time></trkpt>
<trkpt lat="46.16698539" lon="6.04556719"><ele>459.16687</ele><time>2009-10-19T12:42:15Z</time></trkpt>
<trkpt lat="46.16694365" lon="6.04553173"><ele>458.205566</ele><time>2009-10-19T12:42:16Z</time></trkpt>
<trkpt lat="46.16690333" lon="6.04549603"><ele>457.244263</ele><time>2009-10-19T12:42:17Z</time></trkpt>
<trkpt lat="46.16686402" lon="6.04546032"><ele>456.282959</ele><time>2009-10-19T12:42:18Z</time></trkpt>
<trkpt lat="46.16682638" lon="6.04542763"><ele>455.802246</ele><time>2009-10-19T12:42:19Z</time></trkpt>
<trkpt lat="46.16678925" lon="6.04539502"><ele>455.321533</ele><time>2009-10-19T12:42:20Z</time></trkpt>
<trkpt lat="46.16675229" lon="6.04536242"><ele>454.360229</ele><time>2009-10-19T12:42:21Z</time></trkpt>
<trkpt lat="46.16671398" lon="6.04533275"><ele>453.879639</ele><time>2009-10-19T12:42:22Z</time></trkpt>
<trkpt lat="46.16667727" lon="6.04530173"><ele>453.398926</ele><time>2009-10-19T12:42:23Z</time></trkpt>
<trkpt lat="46.16664207" lon="6.04526829"><ele>452.918213</ele><time>2009-10-19T12:42:24Z</time></trkpt>
<trkpt lat="46.16660845" lon="6.04523392"><ele>452.918213</ele><time>2009-10-19T12:42:25Z</time></trkpt>
<trkpt lat="46.16657635" lon="6.04520216"><ele>451.957031</ele><time>2009-10-19T12:42:26Z</time></trkpt>
<trkpt lat="46.16654458" lon="6.04517366"><ele>451.957031</ele><time>2009-10-19T12:42:27Z</time></trkpt>
<trkpt lat="46.16651424" lon="6.04514030"><ele>451.476318</ele><time>2009-10-19T12:42:28Z</time></trkpt>
<trkpt lat="46.16648708" lon="6.04509797"><ele>450.995605</ele><time>2009-10-19T12:42:29Z</time></trkpt>
<trkpt lat="46.16646403" lon="6.04504868"><ele>450.995605</ele><time>2009-10-19T12:42:30Z</time></trkpt>
<trkpt lat="46.16644702" lon="6.04499236"><ele>450.515015</ele><time>2009-10-19T12:42:31Z</time></trkpt>
<trkpt lat="46.16643227" lon="6.04492916"><ele>450.515015</ele><time>2009-10-19T12:42:32Z</time></trkpt>
<trkpt lat="46.16641802" lon="6.04486110"><ele>450.995605</ele><time>2009-10-19T12:42:33Z</time></trkpt>
<trkpt lat="46.16640863" lon="6.04479287"><ele>450.515015</ele><time>2009-10-19T12:42:34Z</time></trkpt>
<trkpt lat="46.16639983" lon="6.04471852"><ele>450.515015</ele><time>2009-10-19T12:42:35Z</time></trkpt>
<trkpt lat="46.16639178" lon="6.04464023"><ele>450.034424</ele><time>2009-10-19T12:42:36Z</time></trkpt>
<trkpt lat="46.16638206" lon="6.04455885"><ele>450.034424</ele><time>2009-10-19T12:42:37Z</time></trkpt>
<trkpt lat="46.16637083" lon="6.04447377"><ele>450.034424</ele><time>2009-10-19T12:42:38Z</time></trkpt>
<trkpt lat="46.16635557" lon="6.04438936"><ele>450.034424</ele><time>2009-10-19T12:42:39Z</time></trkpt>
<trkpt lat="46.16633277" lon="6.04430865"><ele>450.515015</ele><time>2009-10-19T12:42:40Z</time></trkpt>
<trkpt lat="46.16630889" lon="6.04423572"><ele>450.995605</ele><time>2009-10-19T12:42:41Z</time></trkpt>
<trkpt lat="46.16628625" lon="6.04416666"><ele>450.995605</ele><time>2009-10-19T12:42:42Z</time></trkpt>
<trkpt lat="46.16626077" lon="6.04409692"><ele>449.553711</ele><time>2009-10-19T12:42:43Z</time></trkpt>
<trkpt lat="46.16623580" lon="6.04403280"><ele>448.592407</ele><time>2009-10-19T12:42:44Z</time></trkpt>
<trkpt lat="46.16620679" lon="6.04396725"><ele>447.630981</ele><time>2009-10-19T12:42:45Z</time></trkpt>
<trkpt lat="46.16617863" lon="6.04389357"><ele>446.189087</ele><time>2009-10-19T12:42:46Z</time></trkpt>
<trkpt lat="46.16614494" lon="6.04381948"><ele>445.708374</ele><time>2009-10-19T12:42:47Z</time></trkpt>
<trkpt lat="46.16612197" lon="6.04375016"><ele>445.227661</ele><time>2009-10-19T12:42:48Z</time></trkpt>
<trkpt lat="46.16609766" lon="6.04367833"><ele>444.266479</ele><time>2009-10-19T12:42:49Z</time></trkpt>
<trkpt lat="46.16607872" lon="6.04360004"><ele>443.785767</ele><time>2009-10-19T12:42:50Z</time></trkpt>
<trkpt lat="46.16606304" lon="6.04352745"><ele>443.785767</ele><time>2009-10-19T12:42:51Z</time></trkpt>
<trkpt lat="46.16603153" lon="6.04347012"><ele>443.305054</ele><time>2009-10-19T12:42:52Z</time></trkpt>
<trkpt lat="46.16600236" lon="6.04341203"><ele>442.824463</ele><time>2009-10-19T12:42:53Z</time></trkpt>
<trkpt lat="46.16596674" lon="6.04334716"><ele>442.824463</ele><time>2009-10-19T12:42:54Z</time></trkpt>
<trkpt lat="46.16593765" lon="6.04328086"><ele>441.863159</ele><time>2009-10-19T12:42:55Z</time></trkpt>
<trkpt lat="46.16590915" lon="6.04321497"><ele>441.863159</ele><time>2009-10-19T12:42:56Z</time></trkpt>
<trkpt lat="46.16587613" lon="6.04314557"><ele>442.343872</ele><time>2009-10-19T12:42:57Z</time></trkpt>
<trkpt lat="46.16584327" lon="6.04308866"><ele>442.824463</ele><time>2009-10-19T12:42:58Z</time></trkpt>
<trkpt lat="46.16582835" lon="6.04304398"><ele>443.305054</ele><time>2009-10-19T12:42:59Z</time></trkpt>
<trkpt lat="46.16581469" lon="6.04299612"><ele>443.785767</ele><time>2009-10-19T12:43:00Z</time></trkpt>
<trkpt lat="46.16579860" lon="6.04294642"><ele>446.189087</ele><time>2009-10-19T12:43:01Z</time></trkpt>
<trkpt lat="46.16576532" lon="6.04287886"><ele>447.630981</ele><time>2009-10-19T12:43:02Z</time></trkpt>
<trkpt lat="46.16572777" lon="6.04280795"><ele>447.150269</ele><time>2009-10-19T12:43:03Z</time></trkpt>
<trkpt lat="46.16568955" lon="6.04273587"><ele>449.553711</ele><time>2009-10-19T12:43:04Z</time></trkpt>
<trkpt lat="46.16564797" lon="6.04266009"><ele>450.515015</ele><time>2009-10-19T12:43:05Z</time></trkpt>
<trkpt lat="46.16560774" lon="6.04258499"><ele>452.437622</ele><time>2009-10-19T12:43:06Z</time></trkpt>
<trkpt lat="46.16556767" lon="6.04251073"><ele>453.879639</ele><time>2009-10-19T12:43:07Z</time></trkpt>
<trkpt lat="46.16553364" lon="6.04244074"><ele>455.802246</ele><time>2009-10-19T12:43:08Z</time></trkpt>
<trkpt lat="46.16549877" lon="6.04236958"><ele>457.244263</ele><time>2009-10-19T12:43:09Z</time></trkpt>
<trkpt lat="46.16545946" lon="6.04229732"><ele>458.205566</ele><time>2009-10-19T12:43:10Z</time></trkpt>
<trkpt lat="46.16541646" lon="6.04222558"><ele>459.16687</ele><time>2009-10-19T12:43:11Z</time></trkpt>
<trkpt lat="46.16537388" lon="6.04215316"><ele>459.647583</ele><time>2009-10-19T12:43:12Z</time></trkpt>
<trkpt lat="46.16533147" lon="6.04207914"><ele>460.128174</ele><time>2009-10-19T12:43:13Z</time></trkpt>
<trkpt lat="46.16528923" lon="6.04200463"><ele>461.089478</ele><time>2009-10-19T12:43:14Z</time></trkpt>
<trkpt lat="46.16524405" lon="6.04192927"><ele>461.089478</ele><time>2009-10-19T12:43:15Z</time></trkpt>
<trkpt lat="46.16519803" lon="6.04185820"><ele>461.089478</ele><time>2009-10-19T12:43:16Z</time></trkpt>
<trkpt lat="46.16515336" lon="6.04178888"><ele>461.57019</ele><time>2009-10-19T12:43:17Z</time></trkpt>
<trkpt lat="46.16511019" lon="6.04172006"><ele>462.050781</ele><time>2009-10-19T12:43:18Z</time></trkpt>
<trkpt lat="46.16506509" lon="6.04164672"><ele>462.050781</ele><time>2009-10-19T12:43:19Z</time></trkpt>
<trkpt lat="46.16502034" lon="6.04157723"><ele>462.050781</ele><time>2009-10-19T12:43:20Z</time></trkpt>
<trkpt lat="46.16497507" lon="6.04151068"><ele>462.050781</ele><time>2009-10-19T12:43:21Z</time></trkpt>
<trkpt lat="46.16492788" lon="6.04144623"><ele>462.531372</ele><time>2009-10-19T12:43:22Z</time></trkpt>
<trkpt lat="46.16487985" lon="6.04138613"><ele>461.57019</ele><time>2009-10-19T12:43:23Z</time></trkpt>
<trkpt lat="46.16483107" lon="6.04132486"><ele>460.608765</ele><time>2009-10-19T12:43:24Z</time></trkpt>
<trkpt lat="46.16478279" lon="6.04126518"><ele>459.647583</ele><time>2009-10-19T12:43:25Z</time></trkpt>
<trkpt lat="46.16473409" lon="6.04121120"><ele>459.16687</ele><time>2009-10-19T12:43:26Z</time></trkpt>
<trkpt lat="46.16468908" lon="6.04114875"><ele>458.205566</ele><time>2009-10-19T12:43:27Z</time></trkpt>
<trkpt lat="46.16464315" lon="6.04109184"><ele>457.244263</ele><time>2009-10-19T12:43:28Z</time></trkpt>
<trkpt lat="46.16460074" lon="6.04105270"><ele>457.244263</ele><time>2009-10-19T12:43:29Z</time></trkpt>
<trkpt lat="46.16455522" lon="6.04101716"><ele>456.76355</ele><time>2009-10-19T12:43:30Z</time></trkpt>
<trkpt lat="46.16450703" lon="6.04097810"><ele>456.76355</ele><time>2009-10-19T12:43:31Z</time></trkpt>
<trkpt lat="46.16445414" lon="6.04093694"><ele>456.76355</ele><time>2009-10-19T12:43:32Z</time></trkpt>
<trkpt lat="46.16440234" lon="6.04090199"><ele>456.282959</ele><time>2009-10-19T12:43:33Z</time></trkpt>
<trkpt lat="46.16435238" lon="6.04086888"><ele>455.321533</ele><time>2009-10-19T12:43:34Z</time></trkpt>
<trkpt lat="46.16430167" lon="6.04083032"><ele>455.321533</ele><time>2009-10-19T12:43:35Z</time></trkpt>
<trkpt lat="46.16424736" lon="6.04078858"><ele>454.84082</ele><time>2009-10-19T12:43:36Z</time></trkpt>
<trkpt lat="46.16419497" lon="6.04075153"><ele>454.84082</ele><time>2009-10-19T12:43:37Z</time></trkpt>
<trkpt lat="46.16414309" lon="6.04071977"><ele>453.879639</ele><time>2009-10-19T12:43:38Z</time></trkpt>
<trkpt lat="46.16408978" lon="6.04068247"><ele>453.398926</ele><time>2009-10-19T12:43:39Z</time></trkpt>
<trkpt lat="46.16403437" lon="6.04064978"><ele>453.398926</ele><time>2009-10-19T12:43:40Z</time></trkpt>
<trkpt lat="46.16397855" lon="6.04063142"><ele>451.476318</ele><time>2009-10-19T12:43:41Z</time></trkpt>
<trkpt lat="46.16392373" lon="6.04061047"><ele>450.034424</ele><time>2009-10-19T12:43:42Z</time></trkpt>
<trkpt lat="46.16387009" lon="6.04058633"><ele>449.072998</ele><time>2009-10-19T12:43:43Z</time></trkpt>
<trkpt lat="46.16381586" lon="6.04056068"><ele>448.111816</ele><time>2009-10-19T12:43:44Z</time></trkpt>
<trkpt lat="46.16376196" lon="6.04053369"><ele>447.630981</ele><time>2009-10-19T12:43:45Z</time></trkpt>
<trkpt lat="46.16370865" lon="6.04050536"><ele>447.150269</ele><time>2009-10-19T12:43:46Z</time></trkpt>
<trkpt lat="46.16365568" lon="6.04047786"><ele>446.669678</ele><time>2009-10-19T12:43:47Z</time></trkpt>
<trkpt lat="46.16360396" lon="6.04045129"><ele>446.189087</ele><time>2009-10-19T12:43:48Z</time></trkpt>
<trkpt lat="46.16355107" lon="6.04042162"><ele>445.708374</ele><time>2009-10-19T12:43:49Z</time></trkpt>
<trkpt lat="46.16350053" lon="6.04039413"><ele>445.708374</ele><time>2009-10-19T12:43:50Z</time></trkpt>
<trkpt lat="46.16345007" lon="6.04036605"><ele>445.227661</ele><time>2009-10-19T12:43:51Z</time></trkpt>
<trkpt lat="46.16340254" lon="6.04034225"><ele>445.227661</ele><time>2009-10-19T12:43:52Z</time></trkpt>
<trkpt lat="46.16335049" lon="6.04031308"><ele>445.708374</ele><time>2009-10-19T12:43:53Z</time></trkpt>
<trkpt lat="46.16329852" lon="6.04028458"><ele>446.189087</ele><time>2009-10-19T12:43:54Z</time></trkpt>
<trkpt lat="46.16324605" lon="6.04025625"><ele>446.669678</ele><time>2009-10-19T12:43:55Z</time></trkpt>
<trkpt lat="46.16319367" lon="6.04022708"><ele>447.150269</ele><time>2009-10-19T12:43:56Z</time></trkpt>
<trkpt lat="46.16314254" lon="6.04019598"><ele>447.630981</ele><time>2009-10-19T12:43:57Z</time></trkpt>
<trkpt lat="46.16309116" lon="6.04016748"><ele>448.111816</ele><time>2009-10-19T12:43:58Z</time></trkpt>
<trkpt lat="46.16304053" lon="6.04014695"><ele>448.592407</ele><time>2009-10-19T12:43:59Z</time></trkpt>
<trkpt lat="46.16299124" lon="6.04012482"><ele>448.111816</ele><time>2009-10-19T12:44:00Z</time></trkpt>
<trkpt lat="46.16294146" lon="6.04009892"><ele>447.630981</ele><time>2009-10-19T12:44:01Z</time></trkpt>
<trkpt lat="46.16289259" lon="6.04007520"><ele>447.630981</ele><time>2009-10-19T12:44:02Z</time></trkpt>
<trkpt lat="46.16284314" lon="6.04005123"><ele>447.630981</ele><time>2009-10-19T12:44:03Z</time></trkpt>
<trkpt lat="46.16279444" lon="6.04002449"><ele>447.150269</ele><time>2009-10-19T12:44:04Z</time></trkpt>
<trkpt lat="46.16274767" lon="6.03999943"><ele>447.150269</ele><time>2009-10-19T12:44:05Z</time></trkpt>
<trkpt lat="46.16269830" lon="6.03997319"><ele>447.150269</ele><time>2009-10-19T12:44:06Z</time></trkpt>
<trkpt lat="46.16264834" lon="6.03994737"><ele>446.669678</ele><time>2009-10-19T12:44:07Z</time></trkpt>
<trkpt lat="46.16259855" lon="6.03992315"><ele>446.669678</ele><time>2009-10-19T12:44:08Z</time></trkpt>
<trkpt lat="46.16254793" lon="6.03989717"><ele>446.669678</ele><time>2009-10-19T12:44:09Z</time></trkpt>
<trkpt lat="46.16249856" lon="6.03986506"><ele>446.669678</ele><time>2009-10-19T12:44:10Z</time></trkpt>
<trkpt lat="46.16245120" lon="6.03983137"><ele>447.150269</ele><time>2009-10-19T12:44:11Z</time></trkpt>
<trkpt lat="46.16240133" lon="6.03979784"><ele>446.669678</ele><time>2009-10-19T12:44:12Z</time></trkpt>
<trkpt lat="46.16234793" lon="6.03976632"><ele>447.150269</ele><time>2009-10-19T12:44:13Z</time></trkpt>
<trkpt lat="46.16229379" lon="6.03973657"><ele>448.111816</ele><time>2009-10-19T12:44:14Z</time></trkpt>
<trkpt lat="46.16223914" lon="6.03970690"><ele>448.111816</ele><time>2009-10-19T12:44:15Z</time></trkpt>
<trkpt lat="46.16218876" lon="6.03967982"><ele>447.630981</ele><time>2009-10-19T12:44:16Z</time></trkpt>
<trkpt lat="46.16213780" lon="6.03965233"><ele>447.150269</ele><time>2009-10-19T12:44:17Z</time></trkpt>
<trkpt lat="46.16208918" lon="6.03962434"><ele>447.150269</ele><time>2009-10-19T12:44:18Z</time></trkpt>
<trkpt lat="46.16203923" lon="6.03959609"><ele>446.669678</ele><time>2009-10-19T12:44:19Z</time></trkpt>
<trkpt lat="46.16198818" lon="6.03956935"><ele>446.669678</ele><time>2009-10-19T12:44:20Z</time></trkpt>
<trkpt lat="46.16193613" lon="6.03954244"><ele>446.189087</ele><time>2009-10-19T12:44:21Z</time></trkpt>
<trkpt lat="46.16188492" lon="6.03951428"><ele>446.189087</ele><time>2009-10-19T12:44:22Z</time></trkpt>
<trkpt lat="46.16183362" lon="6.03948218"><ele>446.189087</ele><time>2009-10-19T12:44:23Z</time></trkpt>
<trkpt lat="46.16177998" lon="6.03945334"><ele>446.189087</ele><time>2009-10-19T12:44:24Z</time></trkpt>
<trkpt lat="46.16172415" lon="6.03942485"><ele>445.708374</ele><time>2009-10-19T12:44:25Z</time></trkpt>
<trkpt lat="46.16166774" lon="6.03939216"><ele>446.669678</ele><time>2009-10-19T12:44:26Z</time></trkpt>
<trkpt lat="46.16161385" lon="6.03935963"><ele>446.669678</ele><time>2009-10-19T12:44:27Z</time></trkpt>
<trkpt lat="46.16155945" lon="6.03932627"><ele>446.669678</ele><time>2009-10-19T12:44:28Z</time></trkpt>
<trkpt lat="46.16150622" lon="6.03929677"><ele>446.669678</ele><time>2009-10-19T12:44:29Z</time></trkpt>
<trkpt lat="46.16144847" lon="6.03926458"><ele>446.669678</ele><time>2009-10-19T12:44:30Z</time></trkpt>
<trkpt lat="46.16138904" lon="6.03923072"><ele>446.189087</ele><time>2009-10-19T12:44:31Z</time></trkpt>
<trkpt lat="46.16132970" lon="6.03919728"><ele>446.189087</ele><time>2009-10-19T12:44:32Z</time></trkpt>
<trkpt lat="46.16127052" lon="6.03916484"><ele>445.708374</ele><time>2009-10-19T12:44:33Z</time></trkpt>
<trkpt lat="46.16121076" lon="6.03913064"><ele>445.708374</ele><time>2009-10-19T12:44:34Z</time></trkpt>
<trkpt lat="46.16114999" lon="6.03909594"><ele>445.227661</ele><time>2009-10-19T12:44:35Z</time></trkpt>
<trkpt lat="46.16108914" lon="6.03906116"><ele>445.227661</ele><time>2009-10-19T12:44:36Z</time></trkpt>
<trkpt lat="46.16102887" lon="6.03902587"><ele>444.74707</ele><time>2009-10-19T12:44:37Z</time></trkpt>
<trkpt lat="46.16096710" lon="6.03899075"><ele>445.708374</ele><time>2009-10-19T12:44:38Z</time></trkpt>
<trkpt lat="46.16090499" lon="6.03895647"><ele>446.189087</ele><time>2009-10-19T12:44:39Z</time></trkpt>
<trkpt lat="46.16084305" lon="6.03892143"><ele>446.669678</ele><time>2009-10-19T12:44:40Z</time></trkpt>
<trkpt lat="46.16078077" lon="6.03888539"><ele>447.150269</ele><time>2009-10-19T12:44:41Z</time></trkpt>
<trkpt lat="46.16071925" lon="6.03885119"><ele>447.150269</ele><time>2009-10-19T12:44:42Z</time></trkpt>
<trkpt lat="46.16065613" lon="6.03881833"><ele>447.630981</ele><time>2009-10-19T12:44:43Z</time></trkpt>
<trkpt lat="46.16059142" lon="6.03878413"><ele>447.630981</ele><time>2009-10-19T12:44:44Z</time></trkpt>
<trkpt lat="46.16052772" lon="6.03874843"><ele>448.111816</ele><time>2009-10-19T12:44:45Z</time></trkpt>
<trkpt lat="46.16046653" lon="6.03871213"><ele>448.111816</ele><time>2009-10-19T12:44:46Z</time></trkpt>
<trkpt lat="46.16040786" lon="6.03867576"><ele>448.592407</ele><time>2009-10-19T12:44:47Z</time></trkpt>
<trkpt lat="46.16035086" lon="6.03864206"><ele>449.072998</ele><time>2009-10-19T12:44:48Z</time></trkpt>
<trkpt lat="46.16029269" lon="6.03860795"><ele>449.072998</ele><time>2009-10-19T12:44:49Z</time></trkpt>
<trkpt lat="46.16023636" lon="6.03857618"><ele>449.072998</ele><time>2009-10-19T12:44:50Z</time></trkpt>
<trkpt lat="46.16018163" lon="6.03854483"><ele>449.072998</ele><time>2009-10-19T12:44:51Z</time></trkpt>
<trkpt lat="46.16012698" lon="6.03851616"><ele>448.592407</ele><time>2009-10-19T12:44:52Z</time></trkpt>
<trkpt lat="46.16007334" lon="6.03848892"><ele>447.630981</ele><time>2009-10-19T12:44:53Z</time></trkpt>
<trkpt lat="46.16002128" lon="6.03846084"><ele>447.630981</ele><time>2009-10-19T12:44:54Z</time></trkpt>
<trkpt lat="46.15997007" lon="6.03843385"><ele>447.150269</ele><time>2009-10-19T12:44:55Z</time></trkpt>
<trkpt lat="46.15991936" lon="6.03840728"><ele>447.150269</ele><time>2009-10-19T12:44:56Z</time></trkpt>
<trkpt lat="46.15986882" lon="6.03838080"><ele>447.150269</ele><time>2009-10-19T12:44:57Z</time></trkpt>
<trkpt lat="46.15981610" lon="6.03835079"><ele>447.150269</ele><time>2009-10-19T12:44:58Z</time></trkpt>
<trkpt lat="46.15976396" lon="6.03831843"><ele>447.150269</ele><time>2009-10-19T12:44:59Z</time></trkpt>
<trkpt lat="46.15971434" lon="6.03827904"><ele>447.150269</ele><time>2009-10-19T12:45:00Z</time></trkpt>
<trkpt lat="46.15967436" lon="6.03823042"><ele>447.150269</ele><time>2009-10-19T12:45:01Z</time></trkpt>
<trkpt lat="46.15964343" lon="6.03817234"><ele>447.150269</ele><time>2009-10-19T12:45:02Z</time></trkpt>
<trkpt lat="46.15961820" lon="6.03811626"><ele>447.150269</ele><time>2009-10-19T12:45:03Z</time></trkpt>
<trkpt lat="46.15959356" lon="6.03808315"><ele>446.669678</ele><time>2009-10-19T12:45:04Z</time></trkpt>
<trkpt lat="46.15954167" lon="6.03803010"><ele>446.669678</ele><time>2009-10-19T12:45:05Z</time></trkpt>
<trkpt lat="46.15951837" lon="6.03799724"><ele>446.189087</ele><time>2009-10-19T12:45:06Z</time></trkpt>
<trkpt lat="46.15949515" lon="6.03796589"><ele>445.708374</ele><time>2009-10-19T12:45:07Z</time></trkpt>
<trkpt lat="46.15947537" lon="6.03792784"><ele>445.227661</ele><time>2009-10-19T12:45:08Z</time></trkpt>
<trkpt lat="46.15944830" lon="6.03790043"><ele>445.227661</ele><time>2009-10-19T12:45:09Z</time></trkpt>
<trkpt lat="46.15941184" lon="6.03788174"><ele>444.74707</ele><time>2009-10-19T12:45:10Z</time></trkpt>
<trkpt lat="46.15937102" lon="6.03785668"><ele>444.74707</ele><time>2009-10-19T12:45:11Z</time></trkpt>
<trkpt lat="46.15933908" lon="6.03782088"><ele>444.266479</ele><time>2009-10-19T12:45:12Z</time></trkpt>
<trkpt lat="46.15931209" lon="6.03777629"><ele>443.785767</ele><time>2009-10-19T12:45:13Z</time></trkpt>
<trkpt lat="46.15928552" lon="6.03772449"><ele>443.785767</ele><time>2009-10-19T12:45:14Z</time></trkpt>
<trkpt lat="46.15925618" lon="6.03766993"><ele>443.305054</ele><time>2009-10-19T12:45:15Z</time></trkpt>
<trkpt lat="46.15922350" lon="6.03761335"><ele>443.305054</ele><time>2009-10-19T12:45:16Z</time></trkpt>
<trkpt lat="46.15918888" lon="6.03755208"><ele>443.305054</ele><time>2009-10-19T12:45:17Z</time></trkpt>
<trkpt lat="46.15915393" lon="6.03748636"><ele>443.305054</ele><time>2009-10-19T12:45:18Z</time></trkpt>
<trkpt lat="46.15911889" lon="6.03741780"><ele>442.824463</ele><time>2009-10-19T12:45:19Z</time></trkpt>
<trkpt lat="46.15908452" lon="6.03734563"><ele>442.824463</ele><time>2009-10-19T12:45:20Z</time></trkpt>
<trkpt lat="46.15904706" lon="6.03727363"><ele>442.824463</ele><time>2009-10-19T12:45:21Z</time></trkpt>
<trkpt lat="46.15900557" lon="6.03719920"><ele>443.305054</ele><time>2009-10-19T12:45:22Z</time></trkpt>
<trkpt lat="46.15896265" lon="6.03712594"><ele>443.305054</ele><time>2009-10-19T12:45:23Z</time></trkpt>
<trkpt lat="46.15892150" lon="6.03705369"><ele>443.305054</ele><time>2009-10-19T12:45:24Z</time></trkpt>
<trkpt lat="46.15888118" lon="6.03698093"><ele>443.785767</ele><time>2009-10-19T12:45:25Z</time></trkpt>
<trkpt lat="46.15883927" lon="6.03690776"><ele>443.785767</ele><time>2009-10-19T12:45:26Z</time></trkpt>
<trkpt lat="46.15879744" lon="6.03683568"><ele>443.785767</ele><time>2009-10-19T12:45:27Z</time></trkpt>
<trkpt lat="46.15875738" lon="6.03676124"><ele>443.785767</ele><time>2009-10-19T12:45:28Z</time></trkpt>
<trkpt lat="46.15870893" lon="6.03668036"><ele>443.785767</ele><time>2009-10-19T12:45:29Z</time></trkpt>
<trkpt lat="46.15866308" lon="6.03660769"><ele>443.785767</ele><time>2009-10-19T12:45:30Z</time></trkpt>
<trkpt lat="46.15861715" lon="6.03653627"><ele>443.785767</ele><time>2009-10-19T12:45:31Z</time></trkpt>
<trkpt lat="46.15857147" lon="6.03646528"><ele>443.785767</ele><time>2009-10-19T12:45:32Z</time></trkpt>
<trkpt lat="46.15852495" lon="6.03639169"><ele>443.785767</ele><time>2009-10-19T12:45:33Z</time></trkpt>
<trkpt lat="46.15847608" lon="6.03631943"><ele>443.785767</ele><time>2009-10-19T12:45:34Z</time></trkpt>
<trkpt lat="46.15842579" lon="6.03624785"><ele>443.785767</ele><time>2009-10-19T12:45:35Z</time></trkpt>
<trkpt lat="46.15837013" lon="6.03616814"><ele>444.266479</ele><time>2009-10-19T12:45:36Z</time></trkpt>
<trkpt lat="46.15831372" lon="6.03608784"><ele>444.74707</ele><time>2009-10-19T12:45:37Z</time></trkpt>
<trkpt lat="46.15825656" lon="6.03600712"><ele>444.74707</ele><time>2009-10-19T12:45:38Z</time></trkpt>
<trkpt lat="46.15819923" lon="6.03592507"><ele>445.227661</ele><time>2009-10-19T12:45:39Z</time></trkpt>
<trkpt lat="46.15814089" lon="6.03584343"><ele>445.227661</ele><time>2009-10-19T12:45:40Z</time></trkpt>
<trkpt lat="46.15807358" lon="6.03575634"><ele>445.227661</ele><time>2009-10-19T12:45:41Z</time></trkpt>
<trkpt lat="46.15800535" lon="6.03566900"><ele>444.74707</ele><time>2009-10-19T12:45:42Z</time></trkpt>
<trkpt lat="46.15793469" lon="6.03558183"><ele>444.74707</ele><time>2009-10-19T12:45:43Z</time></trkpt>
<trkpt lat="46.15786705" lon="6.03548845"><ele>444.74707</ele><time>2009-10-19T12:45:44Z</time></trkpt>
<trkpt lat="46.15779958" lon="6.03538980"><ele>444.74707</ele><time>2009-10-19T12:45:45Z</time></trkpt>
<trkpt lat="46.15772808" lon="6.03529198"><ele>444.266479</ele><time>2009-10-19T12:45:46Z</time></trkpt>
<trkpt lat="46.15765507" lon="6.03519509"><ele>443.305054</ele><time>2009-10-19T12:45:47Z</time></trkpt>
<trkpt lat="46.15757913" lon="6.03509668"><ele>442.824463</ele><time>2009-10-19T12:45:48Z</time></trkpt>
<trkpt lat="46.15750244" lon="6.03499535"><ele>441.863159</ele><time>2009-10-19T12:45:49Z</time></trkpt>
<trkpt lat="46.15742725" lon="6.03489200"><ele>440.421265</ele><time>2009-10-19T12:45:50Z</time></trkpt>
<trkpt lat="46.15735492" lon="6.03479443"><ele>439.459717</ele><time>2009-10-19T12:45:51Z</time></trkpt>
<trkpt lat="46.15728543" lon="6.03470298"><ele>438.979126</ele><time>2009-10-19T12:45:52Z</time></trkpt>
<trkpt lat="46.15722567" lon="6.03462277"><ele>438.017822</ele><time>2009-10-19T12:45:53Z</time></trkpt>
<trkpt lat="46.15717873" lon="6.03455756"><ele>437.537109</ele><time>2009-10-19T12:45:54Z</time></trkpt>
<trkpt lat="46.15714529" lon="6.03450484"><ele>437.056519</ele><time>2009-10-19T12:45:55Z</time></trkpt>
<trkpt lat="46.15711955" lon="6.03445379"><ele>436.575928</ele><time>2009-10-19T12:45:56Z</time></trkpt>
<trkpt lat="46.15710086" lon="6.03439394"><ele>435.614502</ele><time>2009-10-19T12:45:57Z</time></trkpt>
<trkpt lat="46.15708519" lon="6.03432077"><ele>435.133911</ele><time>2009-10-19T12:45:58Z</time></trkpt>
<trkpt lat="46.15705828" lon="6.03424944"><ele>434.172607</ele><time>2009-10-19T12:45:59Z</time></trkpt>
<trkpt lat="46.15701629" lon="6.03418666"><ele>433.211304</ele><time>2009-10-19T12:46:00Z</time></trkpt>
<trkpt lat="46.15695577" lon="6.03416805"><ele>432.25</ele><time>2009-10-19T12:46:01Z</time></trkpt>
<trkpt lat="46.15683113" lon="6.03416696"><ele>431.769165</ele><time>2009-10-19T12:46:02Z</time></trkpt>
<trkpt lat="46.15676709" lon="6.03420963"><ele>430.807983</ele><time>2009-10-19T12:46:03Z</time></trkpt>
<trkpt lat="46.15673306" lon="6.03426830"><ele>429.846558</ele><time>2009-10-19T12:46:04Z</time></trkpt>
<trkpt lat="46.15669283" lon="6.03433527"><ele>428.404663</ele><time>2009-10-19T12:46:05Z</time></trkpt>
<trkpt lat="46.15664002" lon="6.03441607"><ele>428.404663</ele><time>2009-10-19T12:46:06Z</time></trkpt>
<trkpt lat="46.15658596" lon="6.03449042"><ele>428.885376</ele><time>2009-10-19T12:46:07Z</time></trkpt>
<trkpt lat="46.15652838" lon="6.03456116"><ele>429.846558</ele><time>2009-10-19T12:46:08Z</time></trkpt>
<trkpt lat="46.15647264" lon="6.03463040"><ele>430.807983</ele><time>2009-10-19T12:46:09Z</time></trkpt>
<trkpt lat="46.15641832" lon="6.03469787"><ele>431.288574</ele><time>2009-10-19T12:46:10Z</time></trkpt>
<trkpt lat="46.15636627" lon="6.03476887"><ele>432.25</ele><time>2009-10-19T12:46:11Z</time></trkpt>
<trkpt lat="46.15632269" lon="6.03484137"><ele>432.730713</ele><time>2009-10-19T12:46:12Z</time></trkpt>
<trkpt lat="46.15628547" lon="6.03491245"><ele>432.730713</ele><time>2009-10-19T12:46:13Z</time></trkpt>
<trkpt lat="46.15624482" lon="6.03497992"><ele>433.691895</ele><time>2009-10-19T12:46:14Z</time></trkpt>
<trkpt lat="46.15619805" lon="6.03504430"><ele>434.172607</ele><time>2009-10-19T12:46:15Z</time></trkpt>
<trkpt lat="46.15615094" lon="6.03510247"><ele>434.65332</ele><time>2009-10-19T12:46:16Z</time></trkpt>
<trkpt lat="46.15611414" lon="6.03515779"><ele>434.65332</ele><time>2009-10-19T12:46:17Z</time></trkpt>
<trkpt lat="46.15607056" lon="6.03521403"><ele>435.133911</ele><time>2009-10-19T12:46:18Z</time></trkpt>
<trkpt lat="46.15602949" lon="6.03526633"><ele>434.65332</ele><time>2009-10-19T12:46:19Z</time></trkpt>
<trkpt lat="46.15599789" lon="6.03530715"><ele>433.691895</ele><time>2009-10-19T12:46:20Z</time></trkpt>
<trkpt lat="46.15597098" lon="6.03535024"><ele>433.211304</ele><time>2009-10-19T12:46:21Z</time></trkpt>
<trkpt lat="46.15593712" lon="6.03537287"><ele>432.25</ele><time>2009-10-19T12:46:22Z</time></trkpt>
<trkpt lat="46.15589923" lon="6.03539147"><ele>431.769165</ele><time>2009-10-19T12:46:23Z</time></trkpt>
<trkpt lat="46.15586177" lon="6.03541243"><ele>432.25</ele><time>2009-10-19T12:46:24Z</time></trkpt>
<trkpt lat="46.15582589" lon="6.03542735"><ele>431.769165</ele><time>2009-10-19T12:46:25Z</time></trkpt>
<trkpt lat="46.15579186" lon="6.03544755"><ele>431.769165</ele><time>2009-10-19T12:46:26Z</time></trkpt>
<trkpt lat="46.15575867" lon="6.03547638"><ele>431.769165</ele><time>2009-10-19T12:46:27Z</time></trkpt>
<trkpt lat="46.15572556" lon="6.03551092"><ele>432.25</ele><time>2009-10-19T12:46:28Z</time></trkpt>
<trkpt lat="46.15569522" lon="6.03555526"><ele>433.211304</ele><time>2009-10-19T12:46:29Z</time></trkpt>
<trkpt lat="46.15566932" lon="6.03560505"><ele>433.211304</ele><time>2009-10-19T12:46:30Z</time></trkpt>
<trkpt lat="46.15565113" lon="6.03565584"><ele>433.211304</ele><time>2009-10-19T12:46:31Z</time></trkpt>
<trkpt lat="46.15563445" lon="6.03570588"><ele>433.691895</ele><time>2009-10-19T12:46:32Z</time></trkpt>
<trkpt lat="46.15561416" lon="6.03575533"><ele>433.211304</ele><time>2009-10-19T12:46:33Z</time></trkpt>
<trkpt lat="46.15558692" lon="6.03580495"><ele>433.691895</ele><time>2009-10-19T12:46:34Z</time></trkpt>
<trkpt lat="46.15556102" lon="6.03584527"><ele>432.730713</ele><time>2009-10-19T12:46:35Z</time></trkpt>
<trkpt lat="46.15553076" lon="6.03588894"><ele>432.730713</ele><time>2009-10-19T12:46:36Z</time></trkpt>
<trkpt lat="46.15549724" lon="6.03593756"><ele>432.25</ele><time>2009-10-19T12:46:37Z</time></trkpt>
<trkpt lat="46.15546254" lon="6.03599086"><ele>433.691895</ele><time>2009-10-19T12:46:38Z</time></trkpt>
<trkpt lat="46.15542918" lon="6.03604476"><ele>434.65332</ele><time>2009-10-19T12:46:39Z</time></trkpt>
<trkpt lat="46.15539892" lon="6.03609203"><ele>434.172607</ele><time>2009-10-19T12:46:40Z</time></trkpt>
<trkpt lat="46.15536673" lon="6.03613864"><ele>434.172607</ele><time>2009-10-19T12:46:41Z</time></trkpt>
<trkpt lat="46.15533329" lon="6.03618105"><ele>433.691895</ele><time>2009-10-19T12:46:42Z</time></trkpt>
<trkpt lat="46.15529733" lon="6.03621952"><ele>433.211304</ele><time>2009-10-19T12:46:43Z</time></trkpt>
<trkpt lat="46.15526112" lon="6.03625598"><ele>432.730713</ele><time>2009-10-19T12:46:44Z</time></trkpt>
<trkpt lat="46.15522239" lon="6.03629664"><ele>433.211304</ele><time>2009-10-19T12:46:45Z</time></trkpt>
<trkpt lat="46.15518266" lon="6.03633964"><ele>434.65332</ele><time>2009-10-19T12:46:46Z</time></trkpt>
<trkpt lat="46.15514629" lon="6.03638414"><ele>434.65332</ele><time>2009-10-19T12:46:47Z</time></trkpt>
<trkpt lat="46.15511318" lon="6.03643234"><ele>434.65332</ele><time>2009-10-19T12:46:48Z</time></trkpt>
<trkpt lat="46.15507948" lon="6.03648615"><ele>434.65332</ele><time>2009-10-19T12:46:49Z</time></trkpt>
<trkpt lat="46.15504495" lon="6.03654223"><ele>435.133911</ele><time>2009-10-19T12:46:50Z</time></trkpt>
<trkpt lat="46.15500933" lon="6.03658908"><ele>435.133911</ele><time>2009-10-19T12:46:51Z</time></trkpt>
<trkpt lat="46.15498007" lon="6.03664733"><ele>434.65332</ele><time>2009-10-19T12:46:52Z</time></trkpt>
<trkpt lat="46.15494420" lon="6.03671053"><ele>435.133911</ele><time>2009-10-19T12:46:53Z</time></trkpt>
<trkpt lat="46.15491830" lon="6.03677323"><ele>435.614502</ele><time>2009-10-19T12:46:54Z</time></trkpt>
<trkpt lat="46.15488268" lon="6.03684892"><ele>436.095215</ele><time>2009-10-19T12:46:55Z</time></trkpt>
<trkpt lat="46.15485099" lon="6.03691908"><ele>437.056519</ele><time>2009-10-19T12:46:56Z</time></trkpt>
<trkpt lat="46.15482216" lon="6.03698479"><ele>437.537109</ele><time>2009-10-19T12:46:57Z</time></trkpt>
<trkpt lat="46.15479768" lon="6.03704682"><ele>438.017822</ele><time>2009-10-19T12:46:58Z</time></trkpt>
<trkpt lat="46.15477086" lon="6.03710792"><ele>438.498535</ele><time>2009-10-19T12:46:59Z</time></trkpt>
<trkpt lat="46.15474136" lon="6.03717078"><ele>439.459717</ele><time>2009-10-19T12:47:00Z</time></trkpt>
<trkpt lat="46.15471143" lon="6.03723306"><ele>439.94043</ele><time>2009-10-19T12:47:01Z</time></trkpt>
<trkpt lat="46.15468218" lon="6.03729626"><ele>440.421265</ele><time>2009-10-19T12:47:02Z</time></trkpt>
<trkpt lat="46.15465360" lon="6.03735896"><ele>440.901855</ele><time>2009-10-19T12:47:03Z</time></trkpt>
<trkpt lat="46.15462493" lon="6.03741847"><ele>440.901855</ele><time>2009-10-19T12:47:04Z</time></trkpt>
<trkpt lat="46.15459316" lon="6.03747915"><ele>441.382446</ele><time>2009-10-19T12:47:05Z</time></trkpt>
<trkpt lat="46.15456576" lon="6.03753917"><ele>441.863159</ele><time>2009-10-19T12:47:06Z</time></trkpt>
<trkpt lat="46.15453952" lon="6.03759642"><ele>441.863159</ele><time>2009-10-19T12:47:07Z</time></trkpt>
<trkpt lat="46.15451085" lon="6.03765358"><ele>441.863159</ele><time>2009-10-19T12:47:08Z</time></trkpt>
<trkpt lat="46.15448093" lon="6.03770974"><ele>442.343872</ele><time>2009-10-19T12:47:09Z</time></trkpt>
<trkpt lat="46.15445017" lon="6.03776573"><ele>442.343872</ele><time>2009-10-19T12:47:10Z</time></trkpt>
<trkpt lat="46.15442117" lon="6.03781938"><ele>442.343872</ele><time>2009-10-19T12:47:11Z</time></trkpt>
<trkpt lat="46.15439317" lon="6.03786984"><ele>441.863159</ele><time>2009-10-19T12:47:12Z</time></trkpt>
<trkpt lat="46.15436182" lon="6.03792155"><ele>441.863159</ele><time>2009-10-19T12:47:13Z</time></trkpt>
<trkpt lat="46.15433048" lon="6.03797394"><ele>441.863159</ele><time>2009-10-19T12:47:14Z</time></trkpt>
<trkpt lat="46.15430198" lon="6.03802758"><ele>442.343872</ele><time>2009-10-19T12:47:15Z</time></trkpt>
<trkpt lat="46.15427616" lon="6.03807846"><ele>442.343872</ele><time>2009-10-19T12:47:16Z</time></trkpt>
<trkpt lat="46.15425068" lon="6.03812548"><ele>442.824463</ele><time>2009-10-19T12:47:17Z</time></trkpt>
<trkpt lat="46.15422444" lon="6.03816823"><ele>443.305054</ele><time>2009-10-19T12:47:18Z</time></trkpt>
<trkpt lat="46.15419896" lon="6.03821064"><ele>443.785767</ele><time>2009-10-19T12:47:19Z</time></trkpt>
<trkpt lat="46.15417566" lon="6.03825222"><ele>444.266479</ele><time>2009-10-19T12:47:20Z</time></trkpt>
<trkpt lat="46.15415060" lon="6.03829237"><ele>444.74707</ele><time>2009-10-19T12:47:21Z</time></trkpt>
<trkpt lat="46.15412118" lon="6.03833327"><ele>445.708374</ele><time>2009-10-19T12:47:22Z</time></trkpt>
<trkpt lat="46.15409402" lon="6.03837443"><ele>446.189087</ele><time>2009-10-19T12:47:23Z</time></trkpt>
<trkpt lat="46.15406410" lon="6.03841483"><ele>446.189087</ele><time>2009-10-19T12:47:24Z</time></trkpt>
<trkpt lat="46.15403535" lon="6.03845464"><ele>446.189087</ele><time>2009-10-19T12:47:25Z</time></trkpt>
<trkpt lat="46.15400526" lon="6.03849169"><ele>446.189087</ele><time>2009-10-19T12:47:26Z</time></trkpt>
<trkpt lat="46.15397458" lon="6.03852597"><ele>446.189087</ele><time>2009-10-19T12:47:27Z</time></trkpt>
<trkpt lat="46.15394474" lon="6.03856017"><ele>446.189087</ele><time>2009-10-19T12:47:28Z</time></trkpt>
<trkpt lat="46.15391440" lon="6.03859537"><ele>446.189087</ele><time>2009-10-19T12:47:29Z</time></trkpt>
<trkpt lat="46.15388280" lon="6.03863192"><ele>446.669678</ele><time>2009-10-19T12:47:30Z</time></trkpt>
<trkpt lat="46.15385095" lon="6.03866989"><ele>446.669678</ele><time>2009-10-19T12:47:31Z</time></trkpt>
<trkpt lat="46.15382102" lon="6.03870635"><ele>446.189087</ele><time>2009-10-19T12:47:32Z</time></trkpt>
<trkpt lat="46.15378976" lon="6.03874264"><ele>446.189087</ele><time>2009-10-19T12:47:33Z</time></trkpt>
<trkpt lat="46.15376227" lon="6.03877684"><ele>446.189087</ele><time>2009-10-19T12:47:34Z</time></trkpt>
<trkpt lat="46.15373913" lon="6.03880794"><ele>446.669678</ele><time>2009-10-19T12:47:35Z</time></trkpt>
<trkpt lat="46.15370862" lon="6.03884197"><ele>446.669678</ele><time>2009-10-19T12:47:36Z</time></trkpt>
<trkpt lat="46.15368272" lon="6.03887223"><ele>446.669678</ele><time>2009-10-19T12:47:37Z</time></trkpt>
<trkpt lat="46.15365665" lon="6.03890609"><ele>447.150269</ele><time>2009-10-19T12:47:38Z</time></trkpt>
<trkpt lat="46.15362975" lon="6.03893786"><ele>446.669678</ele><time>2009-10-19T12:47:39Z</time></trkpt>
<trkpt lat="46.15360125" lon="6.03897013"><ele>446.669678</ele><time>2009-10-19T12:47:40Z</time></trkpt>
<trkpt lat="46.15357133" lon="6.03900659"><ele>447.150269</ele><time>2009-10-19T12:47:41Z</time></trkpt>
<trkpt lat="46.15354065" lon="6.03904774"><ele>447.150269</ele><time>2009-10-19T12:47:42Z</time></trkpt>
<trkpt lat="46.15350838" lon="6.03909016"><ele>447.150269</ele><time>2009-10-19T12:47:43Z</time></trkpt>
<trkpt lat="46.15347410" lon="6.03913064"><ele>447.150269</ele><time>2009-10-19T12:47:44Z</time></trkpt>
<trkpt lat="46.15343889" lon="6.03917096"><ele>446.669678</ele><time>2009-10-19T12:47:45Z</time></trkpt>
<trkpt lat="46.15340394" lon="6.03921253"><ele>446.669678</ele><time>2009-10-19T12:47:46Z</time></trkpt>
<trkpt lat="46.15336924" lon="6.03925629"><ele>446.189087</ele><time>2009-10-19T12:47:47Z</time></trkpt>
<trkpt lat="46.15333487" lon="6.03930390"><ele>446.189087</ele><time>2009-10-19T12:47:48Z</time></trkpt>
<trkpt lat="46.15330118" lon="6.03935385"><ele>446.189087</ele><time>2009-10-19T12:47:49Z</time></trkpt>
<trkpt lat="46.15326723" lon="6.03940674"><ele>446.669678</ele><time>2009-10-19T12:47:50Z</time></trkpt>
<trkpt lat="46.15323379" lon="6.03946097"><ele>446.669678</ele><time>2009-10-19T12:47:51Z</time></trkpt>
<trkpt lat="46.15320110" lon="6.03951386"><ele>447.150269</ele><time>2009-10-19T12:47:52Z</time></trkpt>
<trkpt lat="46.15317084" lon="6.03956575"><ele>447.150269</ele><time>2009-10-19T12:47:53Z</time></trkpt>
<trkpt lat="46.15314343" lon="6.03961662"><ele>447.150269</ele><time>2009-10-19T12:47:54Z</time></trkpt>
<trkpt lat="46.15311787" lon="6.03966499"><ele>446.669678</ele><time>2009-10-19T12:47:55Z</time></trkpt>
<trkpt lat="46.15309289" lon="6.03971159"><ele>446.669678</ele><time>2009-10-19T12:47:56Z</time></trkpt>
<trkpt lat="46.15306674" lon="6.03975987"><ele>446.669678</ele><time>2009-10-19T12:47:57Z</time></trkpt>
<trkpt lat="46.15303849" lon="6.03981310"><ele>446.669678</ele><time>2009-10-19T12:47:58Z</time></trkpt>
<trkpt lat="46.15300857" lon="6.03986884"><ele>446.669678</ele><time>2009-10-19T12:47:59Z</time></trkpt>
<trkpt lat="46.15297680" lon="6.03992600"><ele>446.669678</ele><time>2009-10-19T12:48:00Z</time></trkpt>
<trkpt lat="46.15294444" lon="6.03998409"><ele>446.189087</ele><time>2009-10-19T12:48:01Z</time></trkpt>
<trkpt lat="46.15291209" lon="6.04004268"><ele>446.189087</ele><time>2009-10-19T12:48:02Z</time></trkpt>
<trkpt lat="46.15287982" lon="6.04010294"><ele>446.669678</ele><time>2009-10-19T12:48:03Z</time></trkpt>
<trkpt lat="46.15284646" lon="6.04016212"><ele>446.669678</ele><time>2009-10-19T12:48:04Z</time></trkpt>
<trkpt lat="46.15281126" lon="6.04022096"><ele>446.669678</ele><time>2009-10-19T12:48:05Z</time></trkpt>
<trkpt lat="46.15277538" lon="6.04027988"><ele>446.669678</ele><time>2009-10-19T12:48:06Z</time></trkpt>
<trkpt lat="46.15273909" lon="6.04033705"><ele>447.150269</ele><time>2009-10-19T12:48:07Z</time></trkpt>
<trkpt lat="46.15270263" lon="6.04039413"><ele>447.150269</ele><time>2009-10-19T12:48:08Z</time></trkpt>
<trkpt lat="46.15266608" lon="6.04045196"><ele>447.150269</ele><time>2009-10-19T12:48:09Z</time></trkpt>
<trkpt lat="46.15262719" lon="6.04050787"><ele>447.150269</ele><time>2009-10-19T12:48:10Z</time></trkpt>
<trkpt lat="46.15258603" lon="6.04056160"><ele>447.150269</ele><time>2009-10-19T12:48:11Z</time></trkpt>
<trkpt lat="46.15254479" lon="6.04061449"><ele>447.150269</ele><time>2009-10-19T12:48:12Z</time></trkpt>
<trkpt lat="46.15250297" lon="6.04066612"><ele>447.150269</ele><time>2009-10-19T12:48:13Z</time></trkpt>
<trkpt lat="46.15246089" lon="6.04071692"><ele>446.669678</ele><time>2009-10-19T12:48:14Z</time></trkpt>
<trkpt lat="46.15241865" lon="6.04076788"><ele>446.669678</ele><time>2009-10-19T12:48:15Z</time></trkpt>
<trkpt lat="46.15237623" lon="6.04081817"><ele>446.669678</ele><time>2009-10-19T12:48:16Z</time></trkpt>
<trkpt lat="46.15233659" lon="6.04086628"><ele>446.189087</ele><time>2009-10-19T12:48:17Z</time></trkpt>
<trkpt lat="46.15229585" lon="6.04091347"><ele>445.708374</ele><time>2009-10-19T12:48:18Z</time></trkpt>
<trkpt lat="46.15225445" lon="6.04095764"><ele>445.227661</ele><time>2009-10-19T12:48:19Z</time></trkpt>
<trkpt lat="46.15221262" lon="6.04100140"><ele>445.227661</ele><time>2009-10-19T12:48:20Z</time></trkpt>
<trkpt lat="46.15217205" lon="6.04104339"><ele>445.227661</ele><time>2009-10-19T12:48:21Z</time></trkpt>
<trkpt lat="46.15213266" lon="6.04107457"><ele>444.266479</ele><time>2009-10-19T12:48:22Z</time></trkpt>
<trkpt lat="46.15209175" lon="6.04109008"><ele>443.785767</ele><time>2009-10-19T12:48:23Z</time></trkpt>
<trkpt lat="46.15205320" lon="6.04108337"><ele>443.305054</ele><time>2009-10-19T12:48:24Z</time></trkpt>
<trkpt lat="46.15201699" lon="6.04105479"><ele>442.343872</ele><time>2009-10-19T12:48:25Z</time></trkpt>
<trkpt lat="46.15198229" lon="6.04101079"><ele>441.382446</ele><time>2009-10-19T12:48:26Z</time></trkpt>
<trkpt lat="46.15194557" lon="6.04095848"><ele>440.901855</ele><time>2009-10-19T12:48:27Z</time></trkpt>
<trkpt lat="46.15190492" lon="6.04090123"><ele>439.94043</ele><time>2009-10-19T12:48:28Z</time></trkpt>
<trkpt lat="46.15186108" lon="6.04083954"><ele>439.459717</ele><time>2009-10-19T12:48:29Z</time></trkpt>
<trkpt lat="46.15181515" lon="6.04077199"><ele>438.498535</ele><time>2009-10-19T12:48:30Z</time></trkpt>
<trkpt lat="46.15176905" lon="6.04069638"><ele>438.017822</ele><time>2009-10-19T12:48:31Z</time></trkpt>
<trkpt lat="46.15172404" lon="6.04061357"><ele>437.537109</ele><time>2009-10-19T12:48:32Z</time></trkpt>
<trkpt lat="46.15168112" lon="6.04052388"><ele>436.575928</ele><time>2009-10-19T12:48:33Z</time></trkpt>
<trkpt lat="46.15164039" lon="6.04042958"><ele>436.095215</ele><time>2009-10-19T12:48:34Z</time></trkpt>
<trkpt lat="46.15160124" lon="6.04033235"><ele>435.614502</ele><time>2009-10-19T12:48:35Z</time></trkpt>
<trkpt lat="46.15156277" lon="6.04023429"><ele>435.133911</ele><time>2009-10-19T12:48:36Z</time></trkpt>
<trkpt lat="46.15152329" lon="6.04013748"><ele>434.65332</ele><time>2009-10-19T12:48:37Z</time></trkpt>
<trkpt lat="46.15148239" lon="6.04004217"><ele>434.172607</ele><time>2009-10-19T12:48:38Z</time></trkpt>
<trkpt lat="46.15143872" lon="6.03995039"><ele>433.211304</ele><time>2009-10-19T12:48:39Z</time></trkpt>
<trkpt lat="46.15139153" lon="6.03986314"><ele>432.730713</ele><time>2009-10-19T12:48:40Z</time></trkpt>
<trkpt lat="46.15134149" lon="6.03978074"><ele>432.25</ele><time>2009-10-19T12:48:41Z</time></trkpt>
<trkpt lat="46.15128994" lon="6.03970212"><ele>432.25</ele><time>2009-10-19T12:48:42Z</time></trkpt>
<trkpt lat="46.15123906" lon="6.03962618"><ele>431.769165</ele><time>2009-10-19T12:48:43Z</time></trkpt>
<trkpt lat="46.15119145" lon="6.03955259"><ele>431.288574</ele><time>2009-10-19T12:48:44Z</time></trkpt>
<trkpt lat="46.15114544" lon="6.03947866"><ele>431.288574</ele><time>2009-10-19T12:48:45Z</time></trkpt>
<trkpt lat="46.15110026" lon="6.03940406"><ele>431.288574</ele><time>2009-10-19T12:48:46Z</time></trkpt>
<trkpt lat="46.15105860" lon="6.03932485"><ele>431.288574</ele><time>2009-10-19T12:48:47Z</time></trkpt>
<trkpt lat="46.15102239" lon="6.03924120"><ele>431.288574</ele><time>2009-10-19T12:48:48Z</time></trkpt>
<trkpt lat="46.15098584" lon="6.03915872"><ele>430.807983</ele><time>2009-10-19T12:48:49Z</time></trkpt>
<trkpt lat="46.15094502" lon="6.03908320"><ele>431.288574</ele><time>2009-10-19T12:48:50Z</time></trkpt>
<trkpt lat="46.15090203" lon="6.03901397"><ele>431.288574</ele><time>2009-10-19T12:48:51Z</time></trkpt>
<trkpt lat="46.15085819" lon="6.03894892"><ele>431.288574</ele><time>2009-10-19T12:48:52Z</time></trkpt>
<trkpt lat="46.15081259" lon="6.03889109"><ele>431.769165</ele><time>2009-10-19T12:48:53Z</time></trkpt>
<trkpt lat="46.15076456" lon="6.03884155"><ele>431.769165</ele><time>2009-10-19T12:48:54Z</time></trkpt>
<trkpt lat="46.15071293" lon="6.03880467"><ele>432.25</ele><time>2009-10-19T12:48:55Z</time></trkpt>
<trkpt lat="46.15065954" lon="6.03878363"><ele>432.730713</ele><time>2009-10-19T12:48:56Z</time></trkpt>
<trkpt lat="46.15060103" lon="6.03877843"><ele>433.211304</ele><time>2009-10-19T12:48:57Z</time></trkpt>
<trkpt lat="46.15054890" lon="6.03878623"><ele>433.211304</ele><time>2009-10-19T12:48:58Z</time></trkpt>
<trkpt lat="46.15049768" lon="6.03880685"><ele>434.172607</ele><time>2009-10-19T12:48:59Z</time></trkpt>
<trkpt lat="46.15045368" lon="6.03883669"><ele>435.133911</ele><time>2009-10-19T12:49:00Z</time></trkpt>
<trkpt lat="46.15041168" lon="6.03887457"><ele>436.095215</ele><time>2009-10-19T12:49:01Z</time></trkpt>
<trkpt lat="46.15036818" lon="6.03891623"><ele>437.056519</ele><time>2009-10-19T12:49:02Z</time></trkpt>
<trkpt lat="46.15032644" lon="6.03895705"><ele>438.017822</ele><time>2009-10-19T12:49:03Z</time></trkpt>
<trkpt lat="46.15028512" lon="6.03899653"><ele>438.979126</ele><time>2009-10-19T12:49:04Z</time></trkpt>
<trkpt lat="46.15024505" lon="6.03903668"><ele>438.979126</ele><time>2009-10-19T12:49:05Z</time></trkpt>
<trkpt lat="46.15019727" lon="6.03908052"><ele>439.459717</ele><time>2009-10-19T12:49:06Z</time></trkpt>
<trkpt lat="46.15014967" lon="6.03912385"><ele>439.459717</ele><time>2009-10-19T12:49:07Z</time></trkpt>
<trkpt lat="46.15009485" lon="6.03917364"><ele>438.979126</ele><time>2009-10-19T12:49:08Z</time></trkpt>
<trkpt lat="46.15005185" lon="6.03921270"><ele>439.94043</ele><time>2009-10-19T12:49:09Z</time></trkpt>
<trkpt lat="46.15001254" lon="6.03925553"><ele>439.94043</ele><time>2009-10-19T12:49:10Z</time></trkpt>
<trkpt lat="46.14997432" lon="6.03930272"><ele>440.901855</ele><time>2009-10-19T12:49:11Z</time></trkpt>
<trkpt lat="46.14993207" lon="6.03935192"><ele>441.382446</ele><time>2009-10-19T12:49:12Z</time></trkpt>
<trkpt lat="46.14989092" lon="6.03939794"><ele>441.863159</ele><time>2009-10-19T12:49:13Z</time></trkpt>
<trkpt lat="46.14985454" lon="6.03944002"><ele>442.343872</ele><time>2009-10-19T12:49:14Z</time></trkpt>
<trkpt lat="46.14981933" lon="6.03948570"><ele>442.824463</ele><time>2009-10-19T12:49:15Z</time></trkpt>
<trkpt lat="46.14978614" lon="6.03953163"><ele>443.305054</ele><time>2009-10-19T12:49:16Z</time></trkpt>
<trkpt lat="46.14975220" lon="6.03957773"><ele>443.785767</ele><time>2009-10-19T12:49:17Z</time></trkpt>
<trkpt lat="46.14971967" lon="6.03962333"><ele>444.74707</ele><time>2009-10-19T12:49:18Z</time></trkpt>
<trkpt lat="46.14968883" lon="6.03966960"><ele>445.708374</ele><time>2009-10-19T12:49:19Z</time></trkpt>
<trkpt lat="46.14965279" lon="6.03972048"><ele>445.708374</ele><time>2009-10-19T12:49:20Z</time></trkpt>
<trkpt lat="46.14961892" lon="6.03976968"><ele>446.189087</ele><time>2009-10-19T12:49:21Z</time></trkpt>
<trkpt lat="46.14958825" lon="6.03981595"><ele>446.669678</ele><time>2009-10-19T12:49:22Z</time></trkpt>
<trkpt lat="46.14955857" lon="6.03986205"><ele>447.150269</ele><time>2009-10-19T12:49:23Z</time></trkpt>
<trkpt lat="46.14952639" lon="6.03990697"><ele>447.630981</ele><time>2009-10-19T12:49:24Z</time></trkpt>
<trkpt lat="46.14949076" lon="6.03995626"><ele>447.630981</ele><time>2009-10-19T12:49:25Z</time></trkpt>
<trkpt lat="46.14946126" lon="6.04000328"><ele>448.111816</ele><time>2009-10-19T12:49:26Z</time></trkpt>
<trkpt lat="46.14943326" lon="6.04005190"><ele>448.111816</ele><time>2009-10-19T12:49:27Z</time></trkpt>
<trkpt lat="46.14940368" lon="6.04010068"><ele>448.111816</ele><time>2009-10-19T12:49:28Z</time></trkpt>
<trkpt lat="46.14937468" lon="6.04014804"><ele>448.592407</ele><time>2009-10-19T12:49:29Z</time></trkpt>
<trkpt lat="46.14934517" lon="6.04019724"><ele>449.072998</ele><time>2009-10-19T12:49:30Z</time></trkpt>
<trkpt lat="46.14931365" lon="6.04024828"><ele>450.515015</ele><time>2009-10-19T12:49:31Z</time></trkpt>
<trkpt lat="46.14928013" lon="6.04029866"><ele>451.476318</ele><time>2009-10-19T12:49:32Z</time></trkpt>
<trkpt lat="46.14924124" lon="6.04034895"><ele>451.957031</ele><time>2009-10-19T12:49:33Z</time></trkpt>
<trkpt lat="46.14919933" lon="6.04039849"><ele>452.918213</ele><time>2009-10-19T12:49:34Z</time></trkpt>
<trkpt lat="46.14915482" lon="6.04044492"><ele>452.918213</ele><time>2009-10-19T12:49:35Z</time></trkpt>
<trkpt lat="46.14910453" lon="6.04048633"><ele>452.437622</ele><time>2009-10-19T12:49:36Z</time></trkpt>
<trkpt lat="46.14905583" lon="6.04051692"><ele>452.437622</ele><time>2009-10-19T12:49:37Z</time></trkpt>
<trkpt lat="46.14900897" lon="6.04054249"><ele>452.918213</ele><time>2009-10-19T12:49:38Z</time></trkpt>
<trkpt lat="46.14895927" lon="6.04056478"><ele>452.918213</ele><time>2009-10-19T12:49:39Z</time></trkpt>
<trkpt lat="46.14890177" lon="6.04058599"><ele>451.476318</ele><time>2009-10-19T12:49:40Z</time></trkpt>
<trkpt lat="46.14884276" lon="6.04060736"><ele>450.995605</ele><time>2009-10-19T12:49:41Z</time></trkpt>
<trkpt lat="46.14878844" lon="6.04062933"><ele>450.034424</ele><time>2009-10-19T12:49:42Z</time></trkpt>
<trkpt lat="46.14873388" lon="6.04065263"><ele>449.553711</ele><time>2009-10-19T12:49:43Z</time></trkpt>
<trkpt lat="46.14867873" lon="6.04067476"><ele>449.553711</ele><time>2009-10-19T12:49:44Z</time></trkpt>
<trkpt lat="46.14862642" lon="6.04069563"><ele>448.111816</ele><time>2009-10-19T12:49:45Z</time></trkpt>
<trkpt lat="46.14857429" lon="6.04072027"><ele>448.111816</ele><time>2009-10-19T12:49:46Z</time></trkpt>
<trkpt lat="46.14852299" lon="6.04074575"><ele>448.111816</ele><time>2009-10-19T12:49:47Z</time></trkpt>
<trkpt lat="46.14847169" lon="6.04076847"><ele>448.111816</ele><time>2009-10-19T12:49:48Z</time></trkpt>
<trkpt lat="46.14842090" lon="6.04079017"><ele>448.111816</ele><time>2009-10-19T12:49:49Z</time></trkpt>
<trkpt lat="46.14837094" lon="6.04081247"><ele>448.111816</ele><time>2009-10-19T12:49:50Z</time></trkpt>
<trkpt lat="46.14832249" lon="6.04083485"><ele>448.111816</ele><time>2009-10-19T12:49:51Z</time></trkpt>
<trkpt lat="46.14827564" lon="6.04085555"><ele>448.111816</ele><time>2009-10-19T12:49:52Z</time></trkpt>
<trkpt lat="46.14822904" lon="6.04087693"><ele>448.111816</ele><time>2009-10-19T12:49:53Z</time></trkpt>
<trkpt lat="46.14818268" lon="6.04089864"><ele>447.630981</ele><time>2009-10-19T12:49:54Z</time></trkpt>
<trkpt lat="46.14813432" lon="6.04091808"><ele>447.630981</ele><time>2009-10-19T12:49:55Z</time></trkpt>
<trkpt lat="46.14808445" lon="6.04093443"><ele>447.150269</ele><time>2009-10-19T12:49:56Z</time></trkpt>
<trkpt lat="46.14803617" lon="6.04094859"><ele>446.189087</ele><time>2009-10-19T12:49:57Z</time></trkpt>
<trkpt lat="46.14798605" lon="6.04096167"><ele>445.227661</ele><time>2009-10-19T12:49:58Z</time></trkpt>
<trkpt lat="46.14793450" lon="6.04097407"><ele>444.266479</ele><time>2009-10-19T12:49:59Z</time></trkpt>
<trkpt lat="46.14788236" lon="6.04098648"><ele>443.305054</ele><time>2009-10-19T12:50:00Z</time></trkpt>
<trkpt lat="46.14783098" lon="6.04099813"><ele>442.824463</ele><time>2009-10-19T12:50:01Z</time></trkpt>
<trkpt lat="46.14777960" lon="6.04100877"><ele>442.343872</ele><time>2009-10-19T12:50:02Z</time></trkpt>
<trkpt lat="46.14772822" lon="6.04101808"><ele>441.863159</ele><time>2009-10-19T12:50:03Z</time></trkpt>
<trkpt lat="46.14767726" lon="6.04102814"><ele>441.382446</ele><time>2009-10-19T12:50:04Z</time></trkpt>
<trkpt lat="46.14762629" lon="6.04103945"><ele>440.901855</ele><time>2009-10-19T12:50:05Z</time></trkpt>
<trkpt lat="46.14757516" lon="6.04105278"><ele>440.901855</ele><time>2009-10-19T12:50:06Z</time></trkpt>
<trkpt lat="46.14752294" lon="6.04107306"><ele>440.901855</ele><time>2009-10-19T12:50:07Z</time></trkpt>
<trkpt lat="46.14747148" lon="6.04110215"><ele>440.901855</ele><time>2009-10-19T12:50:08Z</time></trkpt>
<trkpt lat="46.14741960" lon="6.04113626"><ele>440.901855</ele><time>2009-10-19T12:50:09Z</time></trkpt>
<trkpt lat="46.14737048" lon="6.04117616"><ele>440.901855</ele><time>2009-10-19T12:50:10Z</time></trkpt>
<trkpt lat="46.14732304" lon="6.04121933"><ele>441.382446</ele><time>2009-10-19T12:50:11Z</time></trkpt>
<trkpt lat="46.14727593" lon="6.04126283"><ele>441.382446</ele><time>2009-10-19T12:50:12Z</time></trkpt>
<trkpt lat="46.14722949" lon="6.04130625"><ele>441.863159</ele><time>2009-10-19T12:50:13Z</time></trkpt>
<trkpt lat="46.14718423" lon="6.04135218"><ele>441.863159</ele><time>2009-10-19T12:50:14Z</time></trkpt>
<trkpt lat="46.14713947" lon="6.04139878"><ele>441.863159</ele><time>2009-10-19T12:50:15Z</time></trkpt>
<trkpt lat="46.14709555" lon="6.04144237"><ele>442.343872</ele><time>2009-10-19T12:50:16Z</time></trkpt>
<trkpt lat="46.14705448" lon="6.04148353"><ele>442.343872</ele><time>2009-10-19T12:50:17Z</time></trkpt>
<trkpt lat="46.14701475" lon="6.04152082"><ele>442.824463</ele><time>2009-10-19T12:50:18Z</time></trkpt>
<trkpt lat="46.14697703" lon="6.04154865"><ele>442.824463</ele><time>2009-10-19T12:50:19Z</time></trkpt>
<trkpt lat="46.14694376" lon="6.04156198"><ele>442.343872</ele><time>2009-10-19T12:50:20Z</time></trkpt>
<trkpt lat="46.14690964" lon="6.04156139"><ele>442.343872</ele><time>2009-10-19T12:50:21Z</time></trkpt>
<trkpt lat="46.14687704" lon="6.04153926"><ele>441.863159</ele><time>2009-10-19T12:50:22Z</time></trkpt>
<trkpt lat="46.14684837" lon="6.04149937"><ele>441.863159</ele><time>2009-10-19T12:50:23Z</time></trkpt>
<trkpt lat="46.14682306" lon="6.04144849"><ele>441.863159</ele><time>2009-10-19T12:50:24Z</time></trkpt>
<trkpt lat="46.14679674" lon="6.04139602"><ele>442.343872</ele><time>2009-10-19T12:50:25Z</time></trkpt>
<trkpt lat="46.14676799" lon="6.04134380"><ele>442.343872</ele><time>2009-10-19T12:50:26Z</time></trkpt>
<trkpt lat="46.14673756" lon="6.04129108"><ele>442.343872</ele><time>2009-10-19T12:50:27Z</time></trkpt>
<trkpt lat="46.14670638" lon="6.04123735"><ele>442.343872</ele><time>2009-10-19T12:50:28Z</time></trkpt>
<trkpt lat="46.14667520" lon="6.04118295"><ele>442.343872</ele><time>2009-10-19T12:50:29Z</time></trkpt>
<trkpt lat="46.14664343" lon="6.04112922"><ele>442.343872</ele><time>2009-10-19T12:50:30Z</time></trkpt>
<trkpt lat="46.14661125" lon="6.04107742"><ele>442.343872</ele><time>2009-10-19T12:50:31Z</time></trkpt>
<trkpt lat="46.14657965" lon="6.04102587"><ele>442.343872</ele><time>2009-10-19T12:50:32Z</time></trkpt>
<trkpt lat="46.14654905" lon="6.04097399"><ele>442.343872</ele><time>2009-10-19T12:50:33Z</time></trkpt>
<trkpt lat="46.14651863" lon="6.04092278"><ele>442.343872</ele><time>2009-10-19T12:50:34Z</time></trkpt>
<trkpt lat="46.14648786" lon="6.04087274"><ele>442.343872</ele><time>2009-10-19T12:50:35Z</time></trkpt>
<trkpt lat="46.14645727" lon="6.04082353"><ele>442.343872</ele><time>2009-10-19T12:50:36Z</time></trkpt>
<trkpt lat="46.14642735" lon="6.04077685"><ele>442.343872</ele><time>2009-10-19T12:50:37Z</time></trkpt>
<trkpt lat="46.14639860" lon="6.04073376"><ele>442.343872</ele><time>2009-10-19T12:50:38Z</time></trkpt>
<trkpt lat="46.14637119" lon="6.04069655"><ele>442.343872</ele><time>2009-10-19T12:50:39Z</time></trkpt>
<trkpt lat="46.14634512" lon="6.04066453"><ele>442.824463</ele><time>2009-10-19T12:50:40Z</time></trkpt>
<trkpt lat="46.14632542" lon="6.04063729"><ele>443.305054</ele><time>2009-10-19T12:50:41Z</time></trkpt>
<trkpt lat="46.14631034" lon="6.04060594"><ele>443.305054</ele><time>2009-10-19T12:50:42Z</time></trkpt>
<trkpt lat="46.14630313" lon="6.04057015"><ele>443.305054</ele><time>2009-10-19T12:50:43Z</time></trkpt>
<trkpt lat="46.14630690" lon="6.04053084"><ele>443.305054</ele><time>2009-10-19T12:50:44Z</time></trkpt>
<trkpt lat="46.14632727" lon="6.04049488"><ele>444.266479</ele><time>2009-10-19T12:50:45Z</time></trkpt>
<trkpt lat="46.14635426" lon="6.04045649"><ele>444.74707</ele><time>2009-10-19T12:50:46Z</time></trkpt>
<trkpt lat="46.14638309" lon="6.04041173"><ele>445.227661</ele><time>2009-10-19T12:50:47Z</time></trkpt>
<trkpt lat="46.14641335" lon="6.04036245"><ele>445.227661</ele><time>2009-10-19T12:50:48Z</time></trkpt>
<trkpt lat="46.14644386" lon="6.04030914"><ele>445.708374</ele><time>2009-10-19T12:50:49Z</time></trkpt>
<trkpt lat="46.14647252" lon="6.04025248"><ele>446.189087</ele><time>2009-10-19T12:50:50Z</time></trkpt>
<trkpt lat="46.14650094" lon="6.04019145"><ele>446.189087</ele><time>2009-10-19T12:50:51Z</time></trkpt>
<trkpt lat="46.14652835" lon="6.04012708"><ele>446.669678</ele><time>2009-10-19T12:50:52Z</time></trkpt>
<trkpt lat="46.14655115" lon="6.04006195"><ele>446.669678</ele><time>2009-10-19T12:50:53Z</time></trkpt>
<trkpt lat="46.14657596" lon="6.03999180"><ele>446.669678</ele><time>2009-10-19T12:50:54Z</time></trkpt>
<trkpt lat="46.14660085" lon="6.03991879"><ele>446.669678</ele><time>2009-10-19T12:50:55Z</time></trkpt>
<trkpt lat="46.14662365" lon="6.03984386"><ele>446.669678</ele><time>2009-10-19T12:50:56Z</time></trkpt>
<trkpt lat="46.14664678" lon="6.03976716"><ele>446.669678</ele><time>2009-10-19T12:50:57Z</time></trkpt>
<trkpt lat="46.14667076" lon="6.03968929"><ele>446.669678</ele><time>2009-10-19T12:50:58Z</time></trkpt>
<trkpt lat="46.14669456" lon="6.03960967"><ele>446.669678</ele><time>2009-10-19T12:50:59Z</time></trkpt>
<trkpt lat="46.14671334" lon="6.03953406"><ele>446.189087</ele><time>2009-10-19T12:51:00Z</time></trkpt>
<trkpt lat="46.14673312" lon="6.03945879"><ele>445.708374</ele><time>2009-10-19T12:51:01Z</time></trkpt>
<trkpt lat="46.14675474" lon="6.03938453"><ele>445.227661</ele><time>2009-10-19T12:51:02Z</time></trkpt>
<trkpt lat="46.14677805" lon="6.03931027"><ele>444.74707</ele><time>2009-10-19T12:51:03Z</time></trkpt>
<trkpt lat="46.14680319" lon="6.03923567"><ele>444.74707</ele><time>2009-10-19T12:51:04Z</time></trkpt>
<trkpt lat="46.14683119" lon="6.03916073"><ele>444.266479</ele><time>2009-10-19T12:51:05Z</time></trkpt>
<trkpt lat="46.14686027" lon="6.03908605"><ele>443.785767</ele><time>2009-10-19T12:51:06Z</time></trkpt>
<trkpt lat="46.14689187" lon="6.03901254"><ele>443.305054</ele><time>2009-10-19T12:51:07Z</time></trkpt>
<trkpt lat="46.14692565" lon="6.03894079"><ele>442.824463</ele><time>2009-10-19T12:51:08Z</time></trkpt>
<trkpt lat="46.14696354" lon="6.03887005"><ele>442.824463</ele><time>2009-10-19T12:51:09Z</time></trkpt>
<trkpt lat="46.14700268" lon="6.03879998"><ele>442.343872</ele><time>2009-10-19T12:51:10Z</time></trkpt>
<trkpt lat="46.14704375" lon="6.03873149"><ele>441.863159</ele><time>2009-10-19T12:51:11Z</time></trkpt>
<trkpt lat="46.14708709" lon="6.03866578"><ele>441.382446</ele><time>2009-10-19T12:51:12Z</time></trkpt>
<trkpt lat="46.14713185" lon="6.03860166"><ele>440.901855</ele><time>2009-10-19T12:51:13Z</time></trkpt>
<trkpt lat="46.14717719" lon="6.03853829"><ele>440.421265</ele><time>2009-10-19T12:51:14Z</time></trkpt>
<trkpt lat="46.14722346" lon="6.03847526"><ele>440.421265</ele><time>2009-10-19T12:51:15Z</time></trkpt>
<trkpt lat="46.14727098" lon="6.03841256"><ele>439.94043</ele><time>2009-10-19T12:51:16Z</time></trkpt>
<trkpt lat="46.14731943" lon="6.03834945"><ele>439.459717</ele><time>2009-10-19T12:51:17Z</time></trkpt>
<trkpt lat="46.14736738" lon="6.03828658"><ele>438.979126</ele><time>2009-10-19T12:51:18Z</time></trkpt>
<trkpt lat="46.14741566" lon="6.03822405"><ele>438.498535</ele><time>2009-10-19T12:51:19Z</time></trkpt>
<trkpt lat="46.14746477" lon="6.03816228"><ele>438.017822</ele><time>2009-10-19T12:51:20Z</time></trkpt>
<trkpt lat="46.14751523" lon="6.03809916"><ele>437.537109</ele><time>2009-10-19T12:51:21Z</time></trkpt>
<trkpt lat="46.14756527" lon="6.03803454"><ele>437.056519</ele><time>2009-10-19T12:51:22Z</time></trkpt>
<trkpt lat="46.14761523" lon="6.03797008"><ele>437.056519</ele><time>2009-10-19T12:51:23Z</time></trkpt>
<trkpt lat="46.14766544" lon="6.03790630"><ele>436.575928</ele><time>2009-10-19T12:51:24Z</time></trkpt>
<trkpt lat="46.14771548" lon="6.03784343"><ele>436.095215</ele><time>2009-10-19T12:51:25Z</time></trkpt>
<trkpt lat="46.14776577" lon="6.03778074"><ele>436.095215</ele><time>2009-10-19T12:51:26Z</time></trkpt>
<trkpt lat="46.14781514" lon="6.03771796"><ele>435.614502</ele><time>2009-10-19T12:51:27Z</time></trkpt>
<trkpt lat="46.14786476" lon="6.03765576"><ele>435.133911</ele><time>2009-10-19T12:51:28Z</time></trkpt>
<trkpt lat="46.14791388" lon="6.03759323"><ele>435.133911</ele><time>2009-10-19T12:51:29Z</time></trkpt>
<trkpt lat="46.14796266" lon="6.03752987"><ele>434.65332</ele><time>2009-10-19T12:51:30Z</time></trkpt>
<trkpt lat="46.14801203" lon="6.03746734"><ele>434.172607</ele><time>2009-10-19T12:51:31Z</time></trkpt>
<trkpt lat="46.14806207" lon="6.03740674"><ele>434.172607</ele><time>2009-10-19T12:51:32Z</time></trkpt>
<trkpt lat="46.14811270" lon="6.03734655"><ele>433.691895</ele><time>2009-10-19T12:51:33Z</time></trkpt>
<trkpt lat="46.14816466" lon="6.03728679"><ele>433.211304</ele><time>2009-10-19T12:51:34Z</time></trkpt>
<trkpt lat="46.14821864" lon="6.03722862"><ele>433.211304</ele><time>2009-10-19T12:51:35Z</time></trkpt>
<trkpt lat="46.14827463" lon="6.03717296"><ele>432.730713</ele><time>2009-10-19T12:51:36Z</time></trkpt>
<trkpt lat="46.14833448" lon="6.03712007"><ele>432.25</ele><time>2009-10-19T12:51:37Z</time></trkpt>
<trkpt lat="46.14839743" lon="6.03706945"><ele>432.25</ele><time>2009-10-19T12:51:38Z</time></trkpt>
<trkpt lat="46.14846264" lon="6.03702175"><ele>431.769165</ele><time>2009-10-19T12:51:39Z</time></trkpt>
<trkpt lat="46.14852978" lon="6.03697699"><ele>431.769165</ele><time>2009-10-19T12:51:40Z</time></trkpt>
<trkpt lat="46.14860035" lon="6.03693643"><ele>431.288574</ele><time>2009-10-19T12:51:41Z</time></trkpt>
<trkpt lat="46.14867219" lon="6.03689980"><ele>431.288574</ele><time>2009-10-19T12:51:42Z</time></trkpt>
<trkpt lat="46.14874419" lon="6.03686619"><ele>431.288574</ele><time>2009-10-19T12:51:43Z</time></trkpt>
<trkpt lat="46.14881636" lon="6.03683425"><ele>431.288574</ele><time>2009-10-19T12:51:44Z</time></trkpt>
<trkpt lat="46.14888802" lon="6.03680374"><ele>430.807983</ele><time>2009-10-19T12:51:45Z</time></trkpt>
<trkpt lat="46.14895935" lon="6.03677415"><ele>430.807983</ele><time>2009-10-19T12:51:46Z</time></trkpt>
<trkpt lat="46.14902842" lon="6.03674473"><ele>430.807983</ele><time>2009-10-19T12:51:47Z</time></trkpt>
<trkpt lat="46.14909723" lon="6.03671498"><ele>430.807983</ele><time>2009-10-19T12:51:48Z</time></trkpt>
<trkpt lat="46.14916504" lon="6.03668489"><ele>430.327271</ele><time>2009-10-19T12:51:49Z</time></trkpt>
<trkpt lat="46.14923243" lon="6.03665345"><ele>430.327271</ele><time>2009-10-19T12:51:50Z</time></trkpt>
<trkpt lat="46.14929924" lon="6.03662068"><ele>430.327271</ele><time>2009-10-19T12:51:51Z</time></trkpt>
<trkpt lat="46.14936554" lon="6.03658564"><ele>430.327271</ele><time>2009-10-19T12:51:52Z</time></trkpt>
<trkpt lat="46.14943083" lon="6.03654725"><ele>430.327271</ele><time>2009-10-19T12:51:53Z</time></trkpt>
<trkpt lat="46.14949462" lon="6.03650434"><ele>430.327271</ele><time>2009-10-19T12:51:54Z</time></trkpt>
<trkpt lat="46.14955748" lon="6.03645824"><ele>430.327271</ele><time>2009-10-19T12:51:55Z</time></trkpt>
<trkpt lat="46.14961993" lon="6.03641197"><ele>430.327271</ele><time>2009-10-19T12:51:56Z</time></trkpt>
<trkpt lat="46.14968154" lon="6.03636428"><ele>430.327271</ele><time>2009-10-19T12:51:57Z</time></trkpt>
<trkpt lat="46.14974214" lon="6.03631550"><ele>430.327271</ele><time>2009-10-19T12:51:58Z</time></trkpt>
<trkpt lat="46.14980173" lon="6.03626596"><ele>430.327271</ele><time>2009-10-19T12:51:59Z</time></trkpt>
<trkpt lat="46.14986099" lon="6.03621759"><ele>429.846558</ele><time>2009-10-19T12:52:00Z</time></trkpt>
<trkpt lat="46.14992017" lon="6.03616965"><ele>429.846558</ele><time>2009-10-19T12:52:01Z</time></trkpt>
<trkpt lat="46.14997943" lon="6.03612129"><ele>429.846558</ele><time>2009-10-19T12:52:02Z</time></trkpt>
<trkpt lat="46.15003886" lon="6.03607309"><ele>429.846558</ele><time>2009-10-19T12:52:03Z</time></trkpt>
<trkpt lat="46.15009753" lon="6.03602439"><ele>429.846558</ele><time>2009-10-19T12:52:04Z</time></trkpt>
<trkpt lat="46.15015578" lon="6.03597553"><ele>430.327271</ele><time>2009-10-19T12:52:05Z</time></trkpt>
<trkpt lat="46.15021395" lon="6.03592859"><ele>430.327271</ele><time>2009-10-19T12:52:06Z</time></trkpt>
<trkpt lat="46.15027254" lon="6.03588265"><ele>429.846558</ele><time>2009-10-19T12:52:07Z</time></trkpt>
<trkpt lat="46.15033139" lon="6.03583546"><ele>429.846558</ele><time>2009-10-19T12:52:08Z</time></trkpt>
<trkpt lat="46.15039023" lon="6.03578819"><ele>429.846558</ele><time>2009-10-19T12:52:09Z</time></trkpt>
<trkpt lat="46.15044915" lon="6.03574117"><ele>429.846558</ele><time>2009-10-19T12:52:10Z</time></trkpt>
<trkpt lat="46.15050782" lon="6.03569364"><ele>429.846558</ele><time>2009-10-19T12:52:11Z</time></trkpt>
<trkpt lat="46.15056667" lon="6.03564595"><ele>429.846558</ele><time>2009-10-19T12:52:12Z</time></trkpt>
<trkpt lat="46.15062576" lon="6.03559893"><ele>429.846558</ele><time>2009-10-19T12:52:13Z</time></trkpt>
<trkpt lat="46.15068519" lon="6.03555182"><ele>429.365967</ele><time>2009-10-19T12:52:14Z</time></trkpt>
<trkpt lat="46.15074386" lon="6.03550346"><ele>429.365967</ele><time>2009-10-19T12:52:15Z</time></trkpt>
<trkpt lat="46.15080228" lon="6.03545409"><ele>428.885376</ele><time>2009-10-19T12:52:16Z</time></trkpt>
<trkpt lat="46.15086146" lon="6.03540547"><ele>428.404663</ele><time>2009-10-19T12:52:17Z</time></trkpt>
<trkpt lat="46.15092147" lon="6.03535837"><ele>428.404663</ele><time>2009-10-19T12:52:18Z</time></trkpt>
<trkpt lat="46.15098182" lon="6.03530933"><ele>428.404663</ele><time>2009-10-19T12:52:19Z</time></trkpt>
<trkpt lat="46.15104158" lon="6.03525845"><ele>427.92395</ele><time>2009-10-19T12:52:20Z</time></trkpt>
<trkpt lat="46.15110135" lon="6.03520967"><ele>427.92395</ele><time>2009-10-19T12:52:21Z</time></trkpt>
<trkpt lat="46.15116103" lon="6.03515930"><ele>427.443359</ele><time>2009-10-19T12:52:22Z</time></trkpt>
<trkpt lat="46.15122272" lon="6.03510942"><ele>427.443359</ele><time>2009-10-19T12:52:23Z</time></trkpt>
<trkpt lat="46.15128458" lon="6.03505913"><ele>426.962769</ele><time>2009-10-19T12:52:24Z</time></trkpt>
<trkpt lat="46.15134643" lon="6.03500859"><ele>426.482056</ele><time>2009-10-19T12:52:25Z</time></trkpt>
<trkpt lat="46.15140938" lon="6.03495939"><ele>426.001343</ele><time>2009-10-19T12:52:26Z</time></trkpt>
<trkpt lat="46.15147283" lon="6.03490918"><ele>426.001343</ele><time>2009-10-19T12:52:27Z</time></trkpt>
<trkpt lat="46.15153578" lon="6.03485579"><ele>425.520752</ele><time>2009-10-19T12:52:28Z</time></trkpt>
<trkpt lat="46.15159848" lon="6.03479954"><ele>425.040161</ele><time>2009-10-19T12:52:29Z</time></trkpt>
<trkpt lat="46.15166159" lon="6.03474188"><ele>425.040161</ele><time>2009-10-19T12:52:30Z</time></trkpt>
<trkpt lat="46.15172446" lon="6.03468094"><ele>424.559448</ele><time>2009-10-19T12:52:31Z</time></trkpt>
<trkpt lat="46.15178674" lon="6.03461673"><ele>424.078735</ele><time>2009-10-19T12:52:32Z</time></trkpt>
<trkpt lat="46.15184876" lon="6.03454993"><ele>423.598022</ele><time>2009-10-19T12:52:33Z</time></trkpt>
<trkpt lat="46.15191096" lon="6.03447969"><ele>423.117432</ele><time>2009-10-19T12:52:34Z</time></trkpt>
<trkpt lat="46.15197315" lon="6.03440610"><ele>422.636719</ele><time>2009-10-19T12:52:35Z</time></trkpt>
<trkpt lat="46.15203593" lon="6.03433284"><ele>422.156006</ele><time>2009-10-19T12:52:36Z</time></trkpt>
<trkpt lat="46.15210055" lon="6.03426042"><ele>421.675415</ele><time>2009-10-19T12:52:37Z</time></trkpt>
<trkpt lat="46.15216794" lon="6.03418959"><ele>421.194824</ele><time>2009-10-19T12:52:38Z</time></trkpt>
<trkpt lat="46.15223718" lon="6.03411684"><ele>420.714111</ele><time>2009-10-19T12:52:39Z</time></trkpt>
<trkpt lat="46.15230792" lon="6.03404442"><ele>420.714111</ele><time>2009-10-19T12:52:40Z</time></trkpt>
<trkpt lat="46.15238093" lon="6.03397535"><ele>420.714111</ele><time>2009-10-19T12:52:41Z</time></trkpt>
<trkpt lat="46.15245645" lon="6.03390880"><ele>420.233398</ele><time>2009-10-19T12:52:42Z</time></trkpt>
<trkpt lat="46.15253373" lon="6.03384132"><ele>420.233398</ele><time>2009-10-19T12:52:43Z</time></trkpt>
<trkpt lat="46.15261302" lon="6.03378022"><ele>420.233398</ele><time>2009-10-19T12:52:44Z</time></trkpt>
<trkpt lat="46.15269357" lon="6.03372507"><ele>420.233398</ele><time>2009-10-19T12:52:45Z</time></trkpt>
<trkpt lat="46.15277588" lon="6.03367385"><ele>420.233398</ele><time>2009-10-19T12:52:46Z</time></trkpt>
<trkpt lat="46.15286046" lon="6.03362767"><ele>420.233398</ele><time>2009-10-19T12:52:47Z</time></trkpt>
<trkpt lat="46.15294578" lon="6.03358509"><ele>419.752808</ele><time>2009-10-19T12:52:48Z</time></trkpt>
<trkpt lat="46.15302810" lon="6.03354159"><ele>419.752808</ele><time>2009-10-19T12:52:49Z</time></trkpt>
<trkpt lat="46.15311066" lon="6.03349733"><ele>419.752808</ele><time>2009-10-19T12:52:50Z</time></trkpt>
<trkpt lat="46.15319339" lon="6.03345442"><ele>419.752808</ele><time>2009-10-19T12:52:51Z</time></trkpt>
<trkpt lat="46.15327603" lon="6.03341334"><ele>419.272217</ele><time>2009-10-19T12:52:52Z</time></trkpt>
<trkpt lat="46.15335926" lon="6.03337320"><ele>419.272217</ele><time>2009-10-19T12:52:53Z</time></trkpt>
<trkpt lat="46.15344166" lon="6.03333229"><ele>419.752808</ele><time>2009-10-19T12:52:54Z</time></trkpt>
<trkpt lat="46.15352355" lon="6.03329172"><ele>419.752808</ele><time>2009-10-19T12:52:55Z</time></trkpt>
<trkpt lat="46.15360519" lon="6.03325266"><ele>420.233398</ele><time>2009-10-19T12:52:56Z</time></trkpt>
<trkpt lat="46.15368557" lon="6.03321176"><ele>420.233398</ele><time>2009-10-19T12:52:57Z</time></trkpt>
<trkpt lat="46.15376336" lon="6.03316608"><ele>420.714111</ele><time>2009-10-19T12:52:58Z</time></trkpt>
<trkpt lat="46.15383795" lon="6.03311528"><ele>420.714111</ele><time>2009-10-19T12:52:59Z</time></trkpt>
<trkpt lat="46.15390828" lon="6.03305644"><ele>420.714111</ele><time>2009-10-19T12:53:00Z</time></trkpt>
<trkpt lat="46.15397450" lon="6.03298972"><ele>420.714111</ele><time>2009-10-19T12:53:01Z</time></trkpt>
<trkpt lat="46.15403694" lon="6.03291915"><ele>420.714111</ele><time>2009-10-19T12:53:02Z</time></trkpt>
<trkpt lat="46.15409645" lon="6.03284597"><ele>420.233398</ele><time>2009-10-19T12:53:03Z</time></trkpt>
<trkpt lat="46.15415596" lon="6.03277397"><ele>420.233398</ele><time>2009-10-19T12:53:04Z</time></trkpt>
<trkpt lat="46.15421707" lon="6.03270524"><ele>420.233398</ele><time>2009-10-19T12:53:05Z</time></trkpt>
<trkpt lat="46.15427767" lon="6.03263685"><ele>420.233398</ele><time>2009-10-19T12:53:06Z</time></trkpt>
<trkpt lat="46.15433626" lon="6.03256744"><ele>420.233398</ele><time>2009-10-19T12:53:07Z</time></trkpt>
<trkpt lat="46.15439367" lon="6.03249930"><ele>420.233398</ele><time>2009-10-19T12:53:08Z</time></trkpt>
<trkpt lat="46.15445059" lon="6.03243216"><ele>420.233398</ele><time>2009-10-19T12:53:09Z</time></trkpt>
<trkpt lat="46.15450599" lon="6.03236779"><ele>420.233398</ele><time>2009-10-19T12:53:10Z</time></trkpt>
<trkpt lat="46.15455922" lon="6.03230526"><ele>420.233398</ele><time>2009-10-19T12:53:11Z</time></trkpt>
<trkpt lat="46.15461194" lon="6.03224558"><ele>420.233398</ele><time>2009-10-19T12:53:12Z</time></trkpt>
<trkpt lat="46.15466273" lon="6.03219068"><ele>419.752808</ele><time>2009-10-19T12:53:13Z</time></trkpt>
<trkpt lat="46.15471336" lon="6.03213049"><ele>422.156006</ele><time>2009-10-19T12:53:14Z</time></trkpt>
<trkpt lat="46.15475628" lon="6.03207752"><ele>423.598022</ele><time>2009-10-19T12:53:15Z</time></trkpt>
<trkpt lat="46.15479316" lon="6.03203469"><ele>425.040161</ele><time>2009-10-19T12:53:16Z</time></trkpt>
<trkpt lat="46.15482249" lon="6.03200477"><ele>425.040161</ele><time>2009-10-19T12:53:17Z</time></trkpt>
<trkpt lat="46.15484672" lon="6.03197845"><ele>425.040161</ele><time>2009-10-19T12:53:18Z</time></trkpt>
<trkpt lat="46.15486449" lon="6.03195783"><ele>425.040161</ele><time>2009-10-19T12:53:19Z</time></trkpt>
<trkpt lat="46.15487530" lon="6.03193847"><ele>425.040161</ele><time>2009-10-19T12:53:20Z</time></trkpt>
<trkpt lat="46.15488335" lon="6.03190804"><ele>425.040161</ele><time>2009-10-19T12:53:21Z</time></trkpt>
<trkpt lat="46.15488737" lon="6.03186269"><ele>426.001343</ele><time>2009-10-19T12:53:22Z</time></trkpt>
<trkpt lat="46.15487932" lon="6.03181299"><ele>426.962769</ele><time>2009-10-19T12:53:23Z</time></trkpt>
<trkpt lat="46.15486549" lon="6.03176052"><ele>428.885376</ele><time>2009-10-19T12:53:24Z</time></trkpt>
<trkpt lat="46.15484479" lon="6.03170905"><ele>430.807983</ele><time>2009-10-19T12:53:25Z</time></trkpt>
<trkpt lat="46.15481872" lon="6.03165507"><ele>432.25</ele><time>2009-10-19T12:53:26Z</time></trkpt>
<trkpt lat="46.15478922" lon="6.03159975"><ele>433.691895</ele><time>2009-10-19T12:53:27Z</time></trkpt>
<trkpt lat="46.15475745" lon="6.03154418"><ele>434.65332</ele><time>2009-10-19T12:53:28Z</time></trkpt>
<trkpt lat="46.15472493" lon="6.03148718"><ele>435.133911</ele><time>2009-10-19T12:53:29Z</time></trkpt>
<trkpt lat="46.15469165" lon="6.03143069"><ele>435.614502</ele><time>2009-10-19T12:53:30Z</time></trkpt>
<trkpt lat="46.15465804" lon="6.03137512"><ele>436.575928</ele><time>2009-10-19T12:53:31Z</time></trkpt>
<trkpt lat="46.15462443" lon="6.03131996"><ele>437.056519</ele><time>2009-10-19T12:53:32Z</time></trkpt>
<trkpt lat="46.15459015" lon="6.03126523"><ele>437.537109</ele><time>2009-10-19T12:53:33Z</time></trkpt>
<trkpt lat="46.15455528" lon="6.03121016"><ele>438.017822</ele><time>2009-10-19T12:53:34Z</time></trkpt>
<trkpt lat="46.15451924" lon="6.03115425"><ele>438.017822</ele><time>2009-10-19T12:53:35Z</time></trkpt>
<trkpt lat="46.15448303" lon="6.03109726"><ele>438.498535</ele><time>2009-10-19T12:53:36Z</time></trkpt>
<trkpt lat="46.15444690" lon="6.03104068"><ele>438.979126</ele><time>2009-10-19T12:53:37Z</time></trkpt>
<trkpt lat="46.15441119" lon="6.03098569"><ele>439.459717</ele><time>2009-10-19T12:53:38Z</time></trkpt>
<trkpt lat="46.15437607" lon="6.03093104"><ele>439.459717</ele><time>2009-10-19T12:53:39Z</time></trkpt>
<trkpt lat="46.15434112" lon="6.03087799"><ele>439.94043</ele><time>2009-10-19T12:53:40Z</time></trkpt>
<trkpt lat="46.15430667" lon="6.03082552"><ele>439.94043</ele><time>2009-10-19T12:53:41Z</time></trkpt>
<trkpt lat="46.15427197" lon="6.03077305"><ele>440.421265</ele><time>2009-10-19T12:53:42Z</time></trkpt>
<trkpt lat="46.15423610" lon="6.03072108"><ele>440.421265</ele><time>2009-10-19T12:53:43Z</time></trkpt>
<trkpt lat="46.15420022" lon="6.03066919"><ele>440.901855</ele><time>2009-10-19T12:53:44Z</time></trkpt>
<trkpt lat="46.15416468" lon="6.03061806"><ele>440.901855</ele><time>2009-10-19T12:53:45Z</time></trkpt>
<trkpt lat="46.15412847" lon="6.03056744"><ele>440.901855</ele><time>2009-10-19T12:53:46Z</time></trkpt>
<trkpt lat="46.15409184" lon="6.03051648"><ele>441.382446</ele><time>2009-10-19T12:53:47Z</time></trkpt>
<trkpt lat="46.15405496" lon="6.03046568"><ele>441.382446</ele><time>2009-10-19T12:53:48Z</time></trkpt>
<trkpt lat="46.15401783" lon="6.03041497"><ele>441.382446</ele><time>2009-10-19T12:53:49Z</time></trkpt>
<trkpt lat="46.15398078" lon="6.03036409"><ele>441.863159</ele><time>2009-10-19T12:53:50Z</time></trkpt>
<trkpt lat="46.15394382" lon="6.03031288"><ele>441.863159</ele><time>2009-10-19T12:53:51Z</time></trkpt>
<trkpt lat="46.15390585" lon="6.03026133"><ele>441.863159</ele><time>2009-10-19T12:53:52Z</time></trkpt>
<trkpt lat="46.15386729" lon="6.03021054"><ele>442.343872</ele><time>2009-10-19T12:53:53Z</time></trkpt>
<trkpt lat="46.15382882" lon="6.03015798"><ele>442.824463</ele><time>2009-10-19T12:53:54Z</time></trkpt>
<trkpt lat="46.15379060" lon="6.03010375"><ele>442.824463</ele><time>2009-10-19T12:53:55Z</time></trkpt>
<trkpt lat="46.15375204" lon="6.03004935"><ele>442.824463</ele><time>2009-10-19T12:53:56Z</time></trkpt>
<trkpt lat="46.15371315" lon="6.02999629"><ele>443.305054</ele><time>2009-10-19T12:53:57Z</time></trkpt>
<trkpt lat="46.15367308" lon="6.02994449"><ele>443.305054</ele><time>2009-10-19T12:53:58Z</time></trkpt>
<trkpt lat="46.15363260" lon="6.02989286"><ele>443.305054</ele><time>2009-10-19T12:53:59Z</time></trkpt>
<trkpt lat="46.15359195" lon="6.02984022"><ele>443.305054</ele><time>2009-10-19T12:54:00Z</time></trkpt>
<trkpt lat="46.15355163" lon="6.02978666"><ele>443.305054</ele><time>2009-10-19T12:54:01Z</time></trkpt>
<trkpt lat="46.15351089" lon="6.02973369"><ele>443.305054</ele><time>2009-10-19T12:54:02Z</time></trkpt>
<trkpt lat="46.15346915" lon="6.02968088"><ele>443.305054</ele><time>2009-10-19T12:54:03Z</time></trkpt>
<trkpt lat="46.15342724" lon="6.02962732"><ele>443.305054</ele><time>2009-10-19T12:54:04Z</time></trkpt>
<trkpt lat="46.15338449" lon="6.02957410"><ele>443.305054</ele><time>2009-10-19T12:54:05Z</time></trkpt>
<trkpt lat="46.15334015" lon="6.02952247"><ele>443.305054</ele><time>2009-10-19T12:54:06Z</time></trkpt>
<trkpt lat="46.15329539" lon="6.02947033"><ele>443.305054</ele><time>2009-10-19T12:54:07Z</time></trkpt>
<trkpt lat="46.15324938" lon="6.02941467"><ele>443.305054</ele><time>2009-10-19T12:54:08Z</time></trkpt>
<trkpt lat="46.15320336" lon="6.02935793"><ele>442.824463</ele><time>2009-10-19T12:54:09Z</time></trkpt>
<trkpt lat="46.15315692" lon="6.02930127"><ele>442.824463</ele><time>2009-10-19T12:54:10Z</time></trkpt>
<trkpt lat="46.15311032" lon="6.02924452"><ele>442.824463</ele><time>2009-10-19T12:54:11Z</time></trkpt>
<trkpt lat="46.15306330" lon="6.02918786"><ele>442.343872</ele><time>2009-10-19T12:54:12Z</time></trkpt>
<trkpt lat="46.15301519" lon="6.02913070"><ele>442.343872</ele><time>2009-10-19T12:54:13Z</time></trkpt>
<trkpt lat="46.15296607" lon="6.02907328"><ele>441.863159</ele><time>2009-10-19T12:54:14Z</time></trkpt>
<trkpt lat="46.15291670" lon="6.02901519"><ele>441.863159</ele><time>2009-10-19T12:54:15Z</time></trkpt>
<trkpt lat="46.15286750" lon="6.02895560"><ele>441.863159</ele><time>2009-10-19T12:54:16Z</time></trkpt>
<trkpt lat="46.15281737" lon="6.02889667"><ele>441.382446</ele><time>2009-10-19T12:54:17Z</time></trkpt>
<trkpt lat="46.15276583" lon="6.02883783"><ele>441.382446</ele><time>2009-10-19T12:54:18Z</time></trkpt>
<trkpt lat="46.15271369" lon="6.02877832"><ele>440.901855</ele><time>2009-10-19T12:54:19Z</time></trkpt>
<trkpt lat="46.15266097" lon="6.02871923"><ele>440.901855</ele><time>2009-10-19T12:54:20Z</time></trkpt>
<trkpt lat="46.15260774" lon="6.02865879"><ele>440.421265</ele><time>2009-10-19T12:54:21Z</time></trkpt>
<trkpt lat="46.15255469" lon="6.02859635"><ele>440.421265</ele><time>2009-10-19T12:54:22Z</time></trkpt>
<trkpt lat="46.15250079" lon="6.02853424"><ele>439.94043</ele><time>2009-10-19T12:54:23Z</time></trkpt>
<trkpt lat="46.15244614" lon="6.02847339"><ele>439.94043</ele><time>2009-10-19T12:54:24Z</time></trkpt>
<trkpt lat="46.15239182" lon="6.02841153"><ele>439.94043</ele><time>2009-10-19T12:54:25Z</time></trkpt>
<trkpt lat="46.15233793" lon="6.02835026"><ele>439.94043</ele><time>2009-10-19T12:54:26Z</time></trkpt>
<trkpt lat="46.15228437" lon="6.02828924"><ele>439.94043</ele><time>2009-10-19T12:54:27Z</time></trkpt>
<trkpt lat="46.15223114" lon="6.02822780"><ele>439.459717</ele><time>2009-10-19T12:54:28Z</time></trkpt>
<trkpt lat="46.15217758" lon="6.02816745"><ele>439.459717</ele><time>2009-10-19T12:54:29Z</time></trkpt>
<trkpt lat="46.15212469" lon="6.02810735"><ele>439.459717</ele><time>2009-10-19T12:54:30Z</time></trkpt>
<trkpt lat="46.15207247" lon="6.02804742"><ele>439.459717</ele><time>2009-10-19T12:54:31Z</time></trkpt>
<trkpt lat="46.15202034" lon="6.02798816"><ele>439.459717</ele><time>2009-10-19T12:54:32Z</time></trkpt>
<trkpt lat="46.15196795" lon="6.02792965"><ele>439.459717</ele><time>2009-10-19T12:54:33Z</time></trkpt>
<trkpt lat="46.15191515" lon="6.02787148"><ele>438.979126</ele><time>2009-10-19T12:54:34Z</time></trkpt>
<trkpt lat="46.15186226" lon="6.02781239"><ele>438.979126</ele><time>2009-10-19T12:54:35Z</time></trkpt>
<trkpt lat="46.15180903" lon="6.02775330"><ele>438.979126</ele><time>2009-10-19T12:54:36Z</time></trkpt>
<trkpt lat="46.15175564" lon="6.02769454"><ele>438.979126</ele><time>2009-10-19T12:54:37Z</time></trkpt>
<trkpt lat="46.15170199" lon="6.02763536"><ele>438.498535</ele><time>2009-10-19T12:54:38Z</time></trkpt>
<trkpt lat="46.15164827" lon="6.02757585"><ele>438.498535</ele><time>2009-10-19T12:54:39Z</time></trkpt>
<trkpt lat="46.15159538" lon="6.02751659"><ele>438.498535</ele><time>2009-10-19T12:54:40Z</time></trkpt>
<trkpt lat="46.15154307" lon="6.02745876"><ele>438.498535</ele><time>2009-10-19T12:54:41Z</time></trkpt>
<trkpt lat="46.15149119" lon="6.02740293"><ele>438.017822</ele><time>2009-10-19T12:54:42Z</time></trkpt>
<trkpt lat="46.15144014" lon="6.02734820"><ele>438.017822</ele><time>2009-10-19T12:54:43Z</time></trkpt>
<trkpt lat="46.15139086" lon="6.02729363"><ele>438.017822</ele><time>2009-10-19T12:54:44Z</time></trkpt>
<trkpt lat="46.15135205" lon="6.02722985"><ele>438.017822</ele><time>2009-10-19T12:54:45Z</time></trkpt>
<trkpt lat="46.15133386" lon="6.02715265"><ele>437.537109</ele><time>2009-10-19T12:54:46Z</time></trkpt>
<trkpt lat="46.15133788" lon="6.02707227"><ele>437.537109</ele><time>2009-10-19T12:54:47Z</time></trkpt>
<trkpt lat="46.15135767" lon="6.02699582"><ele>437.056519</ele><time>2009-10-19T12:54:48Z</time></trkpt>
<trkpt lat="46.15138449" lon="6.02692123"><ele>437.056519</ele><time>2009-10-19T12:54:49Z</time></trkpt>
<trkpt lat="46.15141500" lon="6.02684763"><ele>437.056519</ele><time>2009-10-19T12:54:50Z</time></trkpt>
<trkpt lat="46.15144542" lon="6.02677312"><ele>437.056519</ele><time>2009-10-19T12:54:51Z</time></trkpt>
<trkpt lat="46.15147652" lon="6.02669818"><ele>437.056519</ele><time>2009-10-19T12:54:52Z</time></trkpt>
<trkpt lat="46.15150846" lon="6.02662459"><ele>437.056519</ele><time>2009-10-19T12:54:53Z</time></trkpt>
<trkpt lat="46.15154022" lon="6.02655209"><ele>437.056519</ele><time>2009-10-19T12:54:54Z</time></trkpt>
<trkpt lat="46.15157149" lon="6.02647908"><ele>437.056519</ele><time>2009-10-19T12:54:55Z</time></trkpt>
<trkpt lat="46.15160124" lon="6.02640565"><ele>437.056519</ele><time>2009-10-19T12:54:56Z</time></trkpt>
<trkpt lat="46.15163075" lon="6.02633349"><ele>436.575928</ele><time>2009-10-19T12:54:57Z</time></trkpt>
<trkpt lat="46.15166184" lon="6.02626157"><ele>436.575928</ele><time>2009-10-19T12:54:58Z</time></trkpt>
<trkpt lat="46.15169303" lon="6.02618923"><ele>436.575928</ele><time>2009-10-19T12:54:59Z</time></trkpt>
<trkpt lat="46.15172429" lon="6.02611665"><ele>436.095215</ele><time>2009-10-19T12:55:00Z</time></trkpt>
<trkpt lat="46.15175413" lon="6.02604356"><ele>436.095215</ele><time>2009-10-19T12:55:01Z</time></trkpt>
<trkpt lat="46.15178305" lon="6.02597055"><ele>435.614502</ele><time>2009-10-19T12:55:02Z</time></trkpt>
<trkpt lat="46.15181205" lon="6.02590056"><ele>435.614502</ele><time>2009-10-19T12:55:03Z</time></trkpt>
<trkpt lat="46.15183686" lon="6.02583024"><ele>435.133911</ele><time>2009-10-19T12:55:04Z</time></trkpt>
<trkpt lat="46.15185932" lon="6.02576058"><ele>435.133911</ele><time>2009-10-19T12:55:05Z</time></trkpt>
<trkpt lat="46.15188179" lon="6.02569127"><ele>435.133911</ele><time>2009-10-19T12:55:06Z</time></trkpt>
<trkpt lat="46.15190425" lon="6.02562170"><ele>434.65332</ele><time>2009-10-19T12:55:07Z</time></trkpt>
<trkpt lat="46.15192713" lon="6.02555028"><ele>434.65332</ele><time>2009-10-19T12:55:08Z</time></trkpt>
<trkpt lat="46.15195052" lon="6.02547627"><ele>434.65332</ele><time>2009-10-19T12:55:09Z</time></trkpt>
<trkpt lat="46.15197323" lon="6.02540125"><ele>434.172607</ele><time>2009-10-19T12:55:10Z</time></trkpt>
<trkpt lat="46.15199637" lon="6.02532598"><ele>434.172607</ele><time>2009-10-19T12:55:11Z</time></trkpt>
<trkpt lat="46.15202076" lon="6.02525063"><ele>434.172607</ele><time>2009-10-19T12:55:12Z</time></trkpt>
<trkpt lat="46.15204523" lon="6.02517494"><ele>434.172607</ele><time>2009-10-19T12:55:13Z</time></trkpt>
<trkpt lat="46.15206954" lon="6.02509875"><ele>434.172607</ele><time>2009-10-19T12:55:14Z</time></trkpt>
<trkpt lat="46.15209335" lon="6.02502205"><ele>434.172607</ele><time>2009-10-19T12:55:15Z</time></trkpt>
<trkpt lat="46.15211665" lon="6.02494494"><ele>434.172607</ele><time>2009-10-19T12:55:16Z</time></trkpt>
<trkpt lat="46.15214104" lon="6.02486908"><ele>433.691895</ele><time>2009-10-19T12:55:17Z</time></trkpt>
<trkpt lat="46.15216694" lon="6.02479373"><ele>433.691895</ele><time>2009-10-19T12:55:18Z</time></trkpt>
<trkpt lat="46.15219259" lon="6.02471729"><ele>433.691895</ele><time>2009-10-19T12:55:19Z</time></trkpt>
<trkpt lat="46.15221715" lon="6.02464009"><ele>433.691895</ele><time>2009-10-19T12:55:20Z</time></trkpt>
<trkpt lat="46.15224204" lon="6.02456222"><ele>433.691895</ele><time>2009-10-19T12:55:21Z</time></trkpt>
<trkpt lat="46.15226727" lon="6.02448553"><ele>433.691895</ele><time>2009-10-19T12:55:22Z</time></trkpt>
<trkpt lat="46.15229216" lon="6.02440825"><ele>433.691895</ele><time>2009-10-19T12:55:23Z</time></trkpt>
<trkpt lat="46.15231563" lon="6.02432954"><ele>433.691895</ele><time>2009-10-19T12:55:24Z</time></trkpt>
<trkpt lat="46.15233894" lon="6.02425092"><ele>433.691895</ele><time>2009-10-19T12:55:25Z</time></trkpt>
<trkpt lat="46.15236199" lon="6.02417205"><ele>434.172607</ele><time>2009-10-19T12:55:26Z</time></trkpt>
<trkpt lat="46.15238403" lon="6.02409435"><ele>434.172607</ele><time>2009-10-19T12:55:27Z</time></trkpt>
<trkpt lat="46.15240524" lon="6.02402008"><ele>434.172607</ele><time>2009-10-19T12:55:28Z</time></trkpt>
<trkpt lat="46.15242619" lon="6.02394666"><ele>434.172607</ele><time>2009-10-19T12:55:29Z</time></trkpt>
<trkpt lat="46.15244756" lon="6.02387348"><ele>434.172607</ele><time>2009-10-19T12:55:30Z</time></trkpt>
<trkpt lat="46.15246969" lon="6.02380022"><ele>434.172607</ele><time>2009-10-19T12:55:31Z</time></trkpt>
<trkpt lat="46.15249199" lon="6.02372604"><ele>434.172607</ele><time>2009-10-19T12:55:32Z</time></trkpt>
<trkpt lat="46.15251286" lon="6.02365245"><ele>434.172607</ele><time>2009-10-19T12:55:33Z</time></trkpt>
<trkpt lat="46.15253138" lon="6.02357970"><ele>434.172607</ele><time>2009-10-19T12:55:34Z</time></trkpt>
<trkpt lat="46.15254815" lon="6.02350703"><ele>434.172607</ele><time>2009-10-19T12:55:35Z</time></trkpt>
<trkpt lat="46.15256776" lon="6.02343444"><ele>434.65332</ele><time>2009-10-19T12:55:36Z</time></trkpt>
<trkpt lat="46.15258603" lon="6.02336403"><ele>434.65332</ele><time>2009-10-19T12:55:37Z</time></trkpt>
<trkpt lat="46.15260405" lon="6.02329454"><ele>434.65332</ele><time>2009-10-19T12:55:38Z</time></trkpt>
<trkpt lat="46.15262065" lon="6.02322925"><ele>435.133911</ele><time>2009-10-19T12:55:39Z</time></trkpt>
<trkpt lat="46.15263574" lon="6.02316823"><ele>435.133911</ele><time>2009-10-19T12:55:40Z</time></trkpt>
<trkpt lat="46.15265074" lon="6.02311039"><ele>435.133911</ele><time>2009-10-19T12:55:41Z</time></trkpt>
<trkpt lat="46.15266524" lon="6.02305465"><ele>435.133911</ele><time>2009-10-19T12:55:42Z</time></trkpt>
<trkpt lat="46.15268008" lon="6.02299757"><ele>435.133911</ele><time>2009-10-19T12:55:43Z</time></trkpt>
<trkpt lat="46.15269433" lon="6.02293982"><ele>435.614502</ele><time>2009-10-19T12:55:44Z</time></trkpt>
<trkpt lat="46.15270807" lon="6.02288316"><ele>435.614502</ele><time>2009-10-19T12:55:45Z</time></trkpt>
<trkpt lat="46.15272157" lon="6.02282474"><ele>435.614502</ele><time>2009-10-19T12:55:46Z</time></trkpt>
<trkpt lat="46.15273724" lon="6.02276523"><ele>435.614502</ele><time>2009-10-19T12:55:47Z</time></trkpt>
<trkpt lat="46.15275283" lon="6.02270706"><ele>436.095215</ele><time>2009-10-19T12:55:48Z</time></trkpt>
<trkpt lat="46.15276759" lon="6.02265056"><ele>436.095215</ele><time>2009-10-19T12:55:49Z</time></trkpt>
<trkpt lat="46.15278209" lon="6.02259625"><ele>436.095215</ele><time>2009-10-19T12:55:50Z</time></trkpt>
<trkpt lat="46.15279550" lon="6.02254445"><ele>436.095215</ele><time>2009-10-19T12:55:51Z</time></trkpt>
<trkpt lat="46.15280773" lon="6.02249407"><ele>436.575928</ele><time>2009-10-19T12:55:52Z</time></trkpt>
<trkpt lat="46.15281863" lon="6.02244697"><ele>436.575928</ele><time>2009-10-19T12:55:53Z</time></trkpt>
<trkpt lat="46.15282827" lon="6.02240539"><ele>437.056519</ele><time>2009-10-19T12:55:54Z</time></trkpt>
<trkpt lat="46.15283850" lon="6.02236608"><ele>436.575928</ele><time>2009-10-19T12:55:55Z</time></trkpt>
<trkpt lat="46.15284713" lon="6.02232652"><ele>436.575928</ele><time>2009-10-19T12:55:56Z</time></trkpt>
<trkpt lat="46.15285585" lon="6.02228310"><ele>436.575928</ele><time>2009-10-19T12:55:57Z</time></trkpt>
<trkpt lat="46.15286616" lon="6.02223918"><ele>437.056519</ele><time>2009-10-19T12:55:58Z</time></trkpt>
<trkpt lat="46.15287714" lon="6.02219492"><ele>436.575928</ele><time>2009-10-19T12:55:59Z</time></trkpt>
<trkpt lat="46.15288812" lon="6.02215108"><ele>436.575928</ele><time>2009-10-19T12:56:00Z</time></trkpt>
<trkpt lat="46.15290035" lon="6.02210582"><ele>436.575928</ele><time>2009-10-19T12:56:01Z</time></trkpt>
<trkpt lat="46.15291217" lon="6.02206140"><ele>436.575928</ele><time>2009-10-19T12:56:02Z</time></trkpt>
<trkpt lat="46.15292257" lon="6.02201706"><ele>436.575928</ele><time>2009-10-19T12:56:03Z</time></trkpt>
<trkpt lat="46.15293606" lon="6.02197062"><ele>436.575928</ele><time>2009-10-19T12:56:04Z</time></trkpt>
<trkpt lat="46.15294847" lon="6.02192285"><ele>436.575928</ele><time>2009-10-19T12:56:05Z</time></trkpt>
<trkpt lat="46.15295945" lon="6.02187767"><ele>436.575928</ele><time>2009-10-19T12:56:06Z</time></trkpt>
<trkpt lat="46.15297219" lon="6.02183157"><ele>436.095215</ele><time>2009-10-19T12:56:07Z</time></trkpt>
<trkpt lat="46.15298476" lon="6.02178278"><ele>436.095215</ele><time>2009-10-19T12:56:08Z</time></trkpt>
<trkpt lat="46.15299658" lon="6.02173367"><ele>436.095215</ele><time>2009-10-19T12:56:09Z</time></trkpt>
<trkpt lat="46.15300806" lon="6.02168614"><ele>436.095215</ele><time>2009-10-19T12:56:10Z</time></trkpt>
<trkpt lat="46.15302038" lon="6.02164247"><ele>436.095215</ele><time>2009-10-19T12:56:11Z</time></trkpt>
<trkpt lat="46.15303287" lon="6.02160484"><ele>436.095215</ele><time>2009-10-19T12:56:12Z</time></trkpt>
<trkpt lat="46.15304654" lon="6.02156905"><ele>436.095215</ele><time>2009-10-19T12:56:13Z</time></trkpt>
<trkpt lat="46.15305877" lon="6.02153216"><ele>435.614502</ele><time>2009-10-19T12:56:14Z</time></trkpt>
<trkpt lat="46.15307612" lon="6.02148573"><ele>435.614502</ele><time>2009-10-19T12:56:15Z</time></trkpt>
<trkpt lat="46.15309892" lon="6.02143024"><ele>435.133911</ele><time>2009-10-19T12:56:16Z</time></trkpt>
<trkpt lat="46.15312097" lon="6.02137048"><ele>434.65332</ele><time>2009-10-19T12:56:17Z</time></trkpt>
<trkpt lat="46.15313765" lon="6.02130644"><ele>434.172607</ele><time>2009-10-19T12:56:18Z</time></trkpt>
<trkpt lat="46.15314779" lon="6.02123989"><ele>434.172607</ele><time>2009-10-19T12:56:19Z</time></trkpt>
<trkpt lat="46.15315642" lon="6.02117417"><ele>433.691895</ele><time>2009-10-19T12:56:20Z</time></trkpt>
<trkpt lat="46.15316506" lon="6.02111282"><ele>433.211304</ele><time>2009-10-19T12:56:21Z</time></trkpt>
<trkpt lat="46.15317436" lon="6.02105306"><ele>433.211304</ele><time>2009-10-19T12:56:22Z</time></trkpt>
<trkpt lat="46.15318299" lon="6.02099497"><ele>433.211304</ele><time>2009-10-19T12:56:23Z</time></trkpt>
<trkpt lat="46.15318987" lon="6.02093613"><ele>433.211304</ele><time>2009-10-19T12:56:24Z</time></trkpt>
<trkpt lat="46.15319414" lon="6.02087402"><ele>433.211304</ele><time>2009-10-19T12:56:25Z</time></trkpt>
<trkpt lat="46.15319699" lon="6.02080696"><ele>433.211304</ele><time>2009-10-19T12:56:26Z</time></trkpt>
<trkpt lat="46.15319934" lon="6.02073857"><ele>433.691895</ele><time>2009-10-19T12:56:27Z</time></trkpt>
<trkpt lat="46.15320085" lon="6.02066866"><ele>433.691895</ele><time>2009-10-19T12:56:28Z</time></trkpt>
<trkpt lat="46.15320453" lon="6.02059473"><ele>433.691895</ele><time>2009-10-19T12:56:29Z</time></trkpt>
<trkpt lat="46.15320839" lon="6.02052106"><ele>433.691895</ele><time>2009-10-19T12:56:30Z</time></trkpt>
<trkpt lat="46.15321266" lon="6.02045056"><ele>434.172607</ele><time>2009-10-19T12:56:31Z</time></trkpt>
<trkpt lat="46.15321820" lon="6.02038242"><ele>434.172607</ele><time>2009-10-19T12:56:32Z</time></trkpt>
<trkpt lat="46.15322582" lon="6.02031587"><ele>434.172607</ele><time>2009-10-19T12:56:33Z</time></trkpt>
<trkpt lat="46.15323312" lon="6.02025175"><ele>434.172607</ele><time>2009-10-19T12:56:34Z</time></trkpt>
<trkpt lat="46.15323848" lon="6.02018829"><ele>434.65332</ele><time>2009-10-19T12:56:35Z</time></trkpt>
<trkpt lat="46.15324276" lon="6.02012426"><ele>434.65332</ele><time>2009-10-19T12:56:36Z</time></trkpt>
<trkpt lat="46.15324703" lon="6.02005804"><ele>434.65332</ele><time>2009-10-19T12:56:37Z</time></trkpt>
<trkpt lat="46.15324896" lon="6.01999132"><ele>435.133911</ele><time>2009-10-19T12:56:38Z</time></trkpt>
<trkpt lat="46.15324938" lon="6.01992745"><ele>435.133911</ele><time>2009-10-19T12:56:39Z</time></trkpt>
<trkpt lat="46.15325105" lon="6.01986459"><ele>435.133911</ele><time>2009-10-19T12:56:40Z</time></trkpt>
<trkpt lat="46.15325139" lon="6.01980105"><ele>435.614502</ele><time>2009-10-19T12:56:41Z</time></trkpt>
<trkpt lat="46.15325466" lon="6.01973559"><ele>435.614502</ele><time>2009-10-19T12:56:42Z</time></trkpt>
<trkpt lat="46.15325684" lon="6.01966853"><ele>436.095215</ele><time>2009-10-19T12:56:43Z</time></trkpt>
<trkpt lat="46.15326069" lon="6.01959913"><ele>436.095215</ele><time>2009-10-19T12:56:44Z</time></trkpt>
<trkpt lat="46.15326388" lon="6.01952755"><ele>436.095215</ele><time>2009-10-19T12:56:45Z</time></trkpt>
<trkpt lat="46.15327016" lon="6.01945488"><ele>436.575928</ele><time>2009-10-19T12:56:46Z</time></trkpt>
<trkpt lat="46.15327687" lon="6.01938204"><ele>436.575928</ele><time>2009-10-19T12:56:47Z</time></trkpt>
<trkpt lat="46.15328190" lon="6.01930887"><ele>436.575928</ele><time>2009-10-19T12:56:48Z</time></trkpt>
<trkpt lat="46.15328592" lon="6.01923502"><ele>436.575928</ele><time>2009-10-19T12:56:49Z</time></trkpt>
<trkpt lat="46.15328953" lon="6.01916084"><ele>436.575928</ele><time>2009-10-19T12:56:50Z</time></trkpt>
<trkpt lat="46.15329338" lon="6.01908817"><ele>436.575928</ele><time>2009-10-19T12:56:51Z</time></trkpt>
<trkpt lat="46.15329833" lon="6.01901810"><ele>436.575928</ele><time>2009-10-19T12:56:52Z</time></trkpt>
<trkpt lat="46.15330135" lon="6.01894962"><ele>436.575928</ele><time>2009-10-19T12:56:53Z</time></trkpt>
<trkpt lat="46.15330596" lon="6.01888072"><ele>437.056519</ele><time>2009-10-19T12:56:54Z</time></trkpt>
<trkpt lat="46.15331149" lon="6.01881333"><ele>437.056519</ele><time>2009-10-19T12:56:55Z</time></trkpt>
<trkpt lat="46.15331962" lon="6.01874786"><ele>437.056519</ele><time>2009-10-19T12:56:56Z</time></trkpt>
<trkpt lat="46.15332725" lon="6.01868307"><ele>437.056519</ele><time>2009-10-19T12:56:57Z</time></trkpt>
<trkpt lat="46.15333026" lon="6.01861836"><ele>437.537109</ele><time>2009-10-19T12:56:58Z</time></trkpt>
<trkpt lat="46.15333429" lon="6.01855265"><ele>437.537109</ele><time>2009-10-19T12:56:59Z</time></trkpt>
<trkpt lat="46.15334099" lon="6.01848735"><ele>437.537109</ele><time>2009-10-19T12:57:00Z</time></trkpt>
<trkpt lat="46.15333940" lon="6.01841988"><ele>437.537109</ele><time>2009-10-19T12:57:01Z</time></trkpt>
<trkpt lat="46.15333504" lon="6.01835517"><ele>437.056519</ele><time>2009-10-19T12:57:02Z</time></trkpt>
<trkpt lat="46.15333722" lon="6.01828862"><ele>437.056519</ele><time>2009-10-19T12:57:03Z</time></trkpt>
<trkpt lat="46.15334267" lon="6.01822073"><ele>437.056519</ele><time>2009-10-19T12:57:04Z</time></trkpt>
<trkpt lat="46.15334476" lon="6.01814856"><ele>436.575928</ele><time>2009-10-19T12:57:05Z</time></trkpt>
<trkpt lat="46.15334393" lon="6.01807429"><ele>436.095215</ele><time>2009-10-19T12:57:06Z</time></trkpt>
<trkpt lat="46.15334904" lon="6.01799777"><ele>435.614502</ele><time>2009-10-19T12:57:07Z</time></trkpt>
<trkpt lat="46.15335113" lon="6.01792325"><ele>435.133911</ele><time>2009-10-19T12:57:08Z</time></trkpt>
<trkpt lat="46.15335474" lon="6.01784807"><ele>434.172607</ele><time>2009-10-19T12:57:09Z</time></trkpt>
<trkpt lat="46.15335650" lon="6.01776986"><ele>433.691895</ele><time>2009-10-19T12:57:10Z</time></trkpt>
<trkpt lat="46.15335298" lon="6.01768546"><ele>433.211304</ele><time>2009-10-19T12:57:11Z</time></trkpt>
<trkpt lat="46.15334686" lon="6.01759686"><ele>432.730713</ele><time>2009-10-19T12:57:12Z</time></trkpt>
<trkpt lat="46.15334577" lon="6.01750575"><ele>432.25</ele><time>2009-10-19T12:57:13Z</time></trkpt>
<trkpt lat="46.15335650" lon="6.01741673"><ele>431.769165</ele><time>2009-10-19T12:57:14Z</time></trkpt>
<trkpt lat="46.15337469" lon="6.01733384"><ele>431.769165</ele><time>2009-10-19T12:57:15Z</time></trkpt>
<trkpt lat="46.15339564" lon="6.01725345"><ele>431.769165</ele><time>2009-10-19T12:57:16Z</time></trkpt>
<trkpt lat="46.15341417" lon="6.01717483"><ele>431.769165</ele><time>2009-10-19T12:57:17Z</time></trkpt>
<trkpt lat="46.15343034" lon="6.01709638"><ele>431.769165</ele><time>2009-10-19T12:57:18Z</time></trkpt>
<trkpt lat="46.15344820" lon="6.01702027"><ele>431.288574</ele><time>2009-10-19T12:57:19Z</time></trkpt>
<trkpt lat="46.15346706" lon="6.01694785"><ele>431.288574</ele><time>2009-10-19T12:57:20Z</time></trkpt>
<trkpt lat="46.15348365" lon="6.01687719"><ele>431.288574</ele><time>2009-10-19T12:57:21Z</time></trkpt>
<trkpt lat="46.15349807" lon="6.01681056"><ele>431.288574</ele><time>2009-10-19T12:57:22Z</time></trkpt>
<trkpt lat="46.15350989" lon="6.01674627"><ele>431.288574</ele><time>2009-10-19T12:57:23Z</time></trkpt>
<trkpt lat="46.15351785" lon="6.01667988"><ele>431.288574</ele><time>2009-10-19T12:57:24Z</time></trkpt>
<trkpt lat="46.15352313" lon="6.01660989"><ele>430.807983</ele><time>2009-10-19T12:57:25Z</time></trkpt>
<trkpt lat="46.15352556" lon="6.01653596"><ele>430.807983</ele><time>2009-10-19T12:57:26Z</time></trkpt>
<trkpt lat="46.15352816" lon="6.01645768"><ele>430.807983</ele><time>2009-10-19T12:57:27Z</time></trkpt>
<trkpt lat="46.15352967" lon="6.01637746"><ele>430.807983</ele><time>2009-10-19T12:57:28Z</time></trkpt>
<trkpt lat="46.15353319" lon="6.01629582"><ele>430.807983</ele><time>2009-10-19T12:57:29Z</time></trkpt>
<trkpt lat="46.15354124" lon="6.01621368"><ele>430.807983</ele><time>2009-10-19T12:57:30Z</time></trkpt>
<trkpt lat="46.15355196" lon="6.01613187"><ele>430.807983</ele><time>2009-10-19T12:57:31Z</time></trkpt>
<trkpt lat="46.15356152" lon="6.01604973"><ele>430.807983</ele><time>2009-10-19T12:57:32Z</time></trkpt>
<trkpt lat="46.15356923" lon="6.01596734"><ele>430.807983</ele><time>2009-10-19T12:57:33Z</time></trkpt>
<trkpt lat="46.15357770" lon="6.01588477"><ele>430.807983</ele><time>2009-10-19T12:57:34Z</time></trkpt>
<trkpt lat="46.15358633" lon="6.01580196"><ele>430.327271</ele><time>2009-10-19T12:57:35Z</time></trkpt>
<trkpt lat="46.15359438" lon="6.01571848"><ele>430.327271</ele><time>2009-10-19T12:57:36Z</time></trkpt>
<trkpt lat="46.15360343" lon="6.01563483"><ele>430.327271</ele><time>2009-10-19T12:57:37Z</time></trkpt>
<trkpt lat="46.15361265" lon="6.01555184"><ele>430.327271</ele><time>2009-10-19T12:57:38Z</time></trkpt>
<trkpt lat="46.15361944" lon="6.01546962"><ele>429.846558</ele><time>2009-10-19T12:57:39Z</time></trkpt>
<trkpt lat="46.15362799" lon="6.01538773"><ele>429.846558</ele><time>2009-10-19T12:57:40Z</time></trkpt>
<trkpt lat="46.15363939" lon="6.01530676"><ele>429.846558</ele><time>2009-10-19T12:57:41Z</time></trkpt>
<trkpt lat="46.15364919" lon="6.01522453"><ele>429.846558</ele><time>2009-10-19T12:57:42Z</time></trkpt>
<trkpt lat="46.15365808" lon="6.01514046"><ele>429.846558</ele><time>2009-10-19T12:57:43Z</time></trkpt>
<trkpt lat="46.15366906" lon="6.01505480"><ele>429.365967</ele><time>2009-10-19T12:57:44Z</time></trkpt>
<trkpt lat="46.15368063" lon="6.01496679"><ele>429.365967</ele><time>2009-10-19T12:57:45Z</time></trkpt>
<trkpt lat="46.15369035" lon="6.01487769"><ele>429.365967</ele><time>2009-10-19T12:57:46Z</time></trkpt>
<trkpt lat="46.15369840" lon="6.01478834"><ele>429.365967</ele><time>2009-10-19T12:57:47Z</time></trkpt>
<trkpt lat="46.15370695" lon="6.01469840"><ele>428.885376</ele><time>2009-10-19T12:57:48Z</time></trkpt>
<trkpt lat="46.15371625" lon="6.01460679"><ele>428.885376</ele><time>2009-10-19T12:57:49Z</time></trkpt>
<trkpt lat="46.15372438" lon="6.01451375"><ele>428.404663</ele><time>2009-10-19T12:57:50Z</time></trkpt>
<trkpt lat="46.15373259" lon="6.01441895"><ele>428.885376</ele><time>2009-10-19T12:57:51Z</time></trkpt>
<trkpt lat="46.15374098" lon="6.01432239"><ele>428.885376</ele><time>2009-10-19T12:57:52Z</time></trkpt>
<trkpt lat="46.15374735" lon="6.01422549"><ele>429.365967</ele><time>2009-10-19T12:57:53Z</time></trkpt>
<trkpt lat="46.15375212" lon="6.01412952"><ele>429.365967</ele><time>2009-10-19T12:57:54Z</time></trkpt>
<trkpt lat="46.15375523" lon="6.01403405"><ele>429.365967</ele><time>2009-10-19T12:57:55Z</time></trkpt>
<trkpt lat="46.15375640" lon="6.01393866"><ele>429.365967</ele><time>2009-10-19T12:57:56Z</time></trkpt>
<trkpt lat="46.15375564" lon="6.01384462"><ele>429.846558</ele><time>2009-10-19T12:57:57Z</time></trkpt>
<trkpt lat="46.15375447" lon="6.01374999"><ele>429.846558</ele><time>2009-10-19T12:57:58Z</time></trkpt>
<trkpt lat="46.15375179" lon="6.01365477"><ele>430.327271</ele><time>2009-10-19T12:57:59Z</time></trkpt>
<trkpt lat="46.15374944" lon="6.01355947"><ele>430.327271</ele><time>2009-10-19T12:58:00Z</time></trkpt>
<trkpt lat="46.15374592" lon="6.01346458"><ele>430.807983</ele><time>2009-10-19T12:58:01Z</time></trkpt>
<trkpt lat="46.15373888" lon="6.01336995"><ele>430.807983</ele><time>2009-10-19T12:58:02Z</time></trkpt>
<trkpt lat="46.15372974" lon="6.01327574"><ele>431.288574</ele><time>2009-10-19T12:58:03Z</time></trkpt>
<trkpt lat="46.15372036" lon="6.01318438"><ele>431.288574</ele><time>2009-10-19T12:58:04Z</time></trkpt>
<trkpt lat="46.15370845" lon="6.01309595"><ele>431.769165</ele><time>2009-10-19T12:58:05Z</time></trkpt>
<trkpt lat="46.15369303" lon="6.01300928"><ele>431.769165</ele><time>2009-10-19T12:58:06Z</time></trkpt>
<trkpt lat="46.15367342" lon="6.01292588"><ele>431.769165</ele><time>2009-10-19T12:58:07Z</time></trkpt>
<trkpt lat="46.15365162" lon="6.01284399"><ele>431.769165</ele><time>2009-10-19T12:58:08Z</time></trkpt>
<trkpt lat="46.15363268" lon="6.01276109"><ele>431.769165</ele><time>2009-10-19T12:58:09Z</time></trkpt>
<trkpt lat="46.15361868" lon="6.01267895"><ele>431.769165</ele><time>2009-10-19T12:58:10Z</time></trkpt>
<trkpt lat="46.15360796" lon="6.01259697"><ele>431.769165</ele><time>2009-10-19T12:58:11Z</time></trkpt>
<trkpt lat="46.15359949" lon="6.01251206"><ele>431.288574</ele><time>2009-10-19T12:58:12Z</time></trkpt>
<trkpt lat="46.15359538" lon="6.01242389"><ele>431.288574</ele><time>2009-10-19T12:58:13Z</time></trkpt>
<trkpt lat="46.15359278" lon="6.01233319"><ele>430.807983</ele><time>2009-10-19T12:58:14Z</time></trkpt>
<trkpt lat="46.15359304" lon="6.01223915"><ele>430.807983</ele><time>2009-10-19T12:58:15Z</time></trkpt>
<trkpt lat="46.15359848" lon="6.01214326"><ele>430.807983</ele><time>2009-10-19T12:58:16Z</time></trkpt>
<trkpt lat="46.15360913" lon="6.01204653"><ele>430.327271</ele><time>2009-10-19T12:58:17Z</time></trkpt>
<trkpt lat="46.15362430" lon="6.01194939"><ele>430.327271</ele><time>2009-10-19T12:58:18Z</time></trkpt>
<trkpt lat="46.15364140" lon="6.01185308"><ele>430.327271</ele><time>2009-10-19T12:58:19Z</time></trkpt>
<trkpt lat="46.15366328" lon="6.01175895"><ele>430.327271</ele><time>2009-10-19T12:58:20Z</time></trkpt>
<trkpt lat="46.15369286" lon="6.01167169"><ele>430.327271</ele><time>2009-10-19T12:58:21Z</time></trkpt>
<trkpt lat="46.15372614" lon="6.01158838"><ele>430.327271</ele><time>2009-10-19T12:58:22Z</time></trkpt>
<trkpt lat="46.15375858" lon="6.01150682"><ele>430.327271</ele><time>2009-10-19T12:58:23Z</time></trkpt>
<trkpt lat="46.15378967" lon="6.01142602"><ele>430.327271</ele><time>2009-10-19T12:58:24Z</time></trkpt>
<trkpt lat="46.15382002" lon="6.01134555"><ele>430.327271</ele><time>2009-10-19T12:58:25Z</time></trkpt>
<trkpt lat="46.15384927" lon="6.01126542"><ele>430.807983</ele><time>2009-10-19T12:58:26Z</time></trkpt>
<trkpt lat="46.15387752" lon="6.01118638"><ele>430.807983</ele><time>2009-10-19T12:58:27Z</time></trkpt>
<trkpt lat="46.15390459" lon="6.01110784"><ele>430.807983</ele><time>2009-10-19T12:58:28Z</time></trkpt>
<trkpt lat="46.15393032" lon="6.01102972"><ele>430.807983</ele><time>2009-10-19T12:58:29Z</time></trkpt>
<trkpt lat="46.15395597" lon="6.01095202"><ele>431.288574</ele><time>2009-10-19T12:58:30Z</time></trkpt>
<trkpt lat="46.15398145" lon="6.01087432"><ele>431.288574</ele><time>2009-10-19T12:58:31Z</time></trkpt>
<trkpt lat="46.15400668" lon="6.01079612"><ele>431.288574</ele><time>2009-10-19T12:58:32Z</time></trkpt>
<trkpt lat="46.15403158" lon="6.01071750"><ele>431.288574</ele><time>2009-10-19T12:58:33Z</time></trkpt>
<trkpt lat="46.15405664" lon="6.01063829"><ele>431.288574</ele><time>2009-10-19T12:58:34Z</time></trkpt>
<trkpt lat="46.15408254" lon="6.01055858"><ele>431.288574</ele><time>2009-10-19T12:58:35Z</time></trkpt>
<trkpt lat="46.15410944" lon="6.01047853"><ele>431.288574</ele><time>2009-10-19T12:58:36Z</time></trkpt>
<trkpt lat="46.15413677" lon="6.01039806"><ele>431.288574</ele><time>2009-10-19T12:58:37Z</time></trkpt>
<trkpt lat="46.15416359" lon="6.01031626"><ele>431.288574</ele><time>2009-10-19T12:58:38Z</time></trkpt>
<trkpt lat="46.15419050" lon="6.01023386"><ele>431.288574</ele><time>2009-10-19T12:58:39Z</time></trkpt>
<trkpt lat="46.15421732" lon="6.01015055"><ele>431.288574</ele><time>2009-10-19T12:58:40Z</time></trkpt>
<trkpt lat="46.15424423" lon="6.01006614"><ele>431.288574</ele><time>2009-10-19T12:58:41Z</time></trkpt>
<trkpt lat="46.15427155" lon="6.00998199"><ele>431.288574</ele><time>2009-10-19T12:58:42Z</time></trkpt>
<trkpt lat="46.15429946" lon="6.00989800"><ele>431.288574</ele><time>2009-10-19T12:58:43Z</time></trkpt>
<trkpt lat="46.15432687" lon="6.00981368"><ele>431.288574</ele><time>2009-10-19T12:58:44Z</time></trkpt>
<trkpt lat="46.15435369" lon="6.00972894"><ele>431.288574</ele><time>2009-10-19T12:58:45Z</time></trkpt>
<trkpt lat="46.15438068" lon="6.00964403"><ele>431.288574</ele><time>2009-10-19T12:58:46Z</time></trkpt>
<trkpt lat="46.15440809" lon="6.00955904"><ele>431.288574</ele><time>2009-10-19T12:58:47Z</time></trkpt>
<trkpt lat="46.15443517" lon="6.00947362"><ele>431.288574</ele><time>2009-10-19T12:58:48Z</time></trkpt>
<trkpt lat="46.15446215" lon="6.00938804"><ele>431.288574</ele><time>2009-10-19T12:58:49Z</time></trkpt>
<trkpt lat="46.15448889" lon="6.00930179"><ele>431.288574</ele><time>2009-10-19T12:58:50Z</time></trkpt>
<trkpt lat="46.15451454" lon="6.00921303"><ele>431.288574</ele><time>2009-10-19T12:58:51Z</time></trkpt>
<trkpt lat="46.15453986" lon="6.00912410"><ele>431.288574</ele><time>2009-10-19T12:58:52Z</time></trkpt>
<trkpt lat="46.15456425" lon="6.00903542"><ele>431.769165</ele><time>2009-10-19T12:58:53Z</time></trkpt>
<trkpt lat="46.15458612" lon="6.00894548"><ele>431.769165</ele><time>2009-10-19T12:58:54Z</time></trkpt>
<trkpt lat="46.15460616" lon="6.00885479"><ele>431.769165</ele><time>2009-10-19T12:58:55Z</time></trkpt>
<trkpt lat="46.15462485" lon="6.00876334"><ele>431.769165</ele><time>2009-10-19T12:58:56Z</time></trkpt>
<trkpt lat="46.15464220" lon="6.00867064"><ele>431.769165</ele><time>2009-10-19T12:58:57Z</time></trkpt>
<trkpt lat="46.15465762" lon="6.00857760"><ele>431.288574</ele><time>2009-10-19T12:58:58Z</time></trkpt>
<trkpt lat="46.15467288" lon="6.00848464"><ele>431.288574</ele><time>2009-10-19T12:58:59Z</time></trkpt>
<trkpt lat="46.15468922" lon="6.00839177"><ele>431.288574</ele><time>2009-10-19T12:59:00Z</time></trkpt>
<trkpt lat="46.15470489" lon="6.00830074"><ele>431.288574</ele><time>2009-10-19T12:59:01Z</time></trkpt>
<trkpt lat="46.15471764" lon="6.00820787"><ele>430.807983</ele><time>2009-10-19T12:59:02Z</time></trkpt>
<trkpt lat="46.15472384" lon="6.00809824"><ele>430.807983</ele><time>2009-10-19T12:59:03Z</time></trkpt>
<trkpt lat="46.15474303" lon="6.00799036"><ele>430.327271</ele><time>2009-10-19T12:59:04Z</time></trkpt>
<trkpt lat="46.15475276" lon="6.00788827"><ele>430.327271</ele><time>2009-10-19T12:59:05Z</time></trkpt>
<trkpt lat="46.15475996" lon="6.00779138"><ele>430.327271</ele><time>2009-10-19T12:59:06Z</time></trkpt>
<trkpt lat="46.15477547" lon="6.00768149"><ele>430.807983</ele><time>2009-10-19T12:59:07Z</time></trkpt>
<trkpt lat="46.15478662" lon="6.00757713"><ele>430.807983</ele><time>2009-10-19T12:59:08Z</time></trkpt>
<trkpt lat="46.15477488" lon="6.00749424"><ele>430.327271</ele><time>2009-10-19T12:59:09Z</time></trkpt>
<trkpt lat="46.15476483" lon="6.00740799"><ele>430.327271</ele><time>2009-10-19T12:59:10Z</time></trkpt>
<trkpt lat="46.15477748" lon="6.00730455"><ele>431.288574</ele><time>2009-10-19T12:59:11Z</time></trkpt>
<trkpt lat="46.15478737" lon="6.00721118"><ele>432.25</ele><time>2009-10-19T12:59:12Z</time></trkpt>
<trkpt lat="46.15477622" lon="6.00713516"><ele>432.25</ele><time>2009-10-19T12:59:13Z</time></trkpt>
<trkpt lat="46.15476927" lon="6.00706768"><ele>431.288574</ele><time>2009-10-19T12:59:14Z</time></trkpt>
<trkpt lat="46.15476709" lon="6.00699744"><ele>430.807983</ele><time>2009-10-19T12:59:15Z</time></trkpt>
<trkpt lat="46.15477597" lon="6.00691555"><ele>431.288574</ele><time>2009-10-19T12:59:16Z</time></trkpt>
<trkpt lat="46.15477924" lon="6.00683676"><ele>430.327271</ele><time>2009-10-19T12:59:17Z</time></trkpt>
<trkpt lat="46.15478695" lon="6.00675344"><ele>429.365967</ele><time>2009-10-19T12:59:18Z</time></trkpt>
<trkpt lat="46.15479617" lon="6.00666124"><ele>429.365967</ele><time>2009-10-19T12:59:19Z</time></trkpt>
<trkpt lat="46.15480565" lon="6.00656477"><ele>429.365967</ele><time>2009-10-19T12:59:20Z</time></trkpt>
<trkpt lat="46.15481419" lon="6.00646787"><ele>428.885376</ele><time>2009-10-19T12:59:21Z</time></trkpt>
<trkpt lat="46.15482182" lon="6.00637433"><ele>428.404663</ele><time>2009-10-19T12:59:22Z</time></trkpt>
<trkpt lat="46.15483079" lon="6.00627584"><ele>427.92395</ele><time>2009-10-19T12:59:23Z</time></trkpt>
<trkpt lat="46.15484118" lon="6.00617275"><ele>427.92395</ele><time>2009-10-19T12:59:24Z</time></trkpt>
<trkpt lat="46.15485149" lon="6.00607133"><ele>427.443359</ele><time>2009-10-19T12:59:25Z</time></trkpt>
<trkpt lat="46.15486080" lon="6.00597317"><ele>426.482056</ele><time>2009-10-19T12:59:26Z</time></trkpt>
<trkpt lat="46.15487153" lon="6.00587653"><ele>426.001343</ele><time>2009-10-19T12:59:27Z</time></trkpt>
<trkpt lat="46.15487404" lon="6.00577896"><ele>425.040161</ele><time>2009-10-19T12:59:28Z</time></trkpt>
<trkpt lat="46.15487304" lon="6.00568542"><ele>424.078735</ele><time>2009-10-19T12:59:29Z</time></trkpt>
<trkpt lat="46.15487044" lon="6.00558534"><ele>423.598022</ele><time>2009-10-19T12:59:30Z</time></trkpt>
<trkpt lat="46.15487086" lon="6.00548778"><ele>422.636719</ele><time>2009-10-19T12:59:31Z</time></trkpt>
<trkpt lat="46.15487362" lon="6.00539155"><ele>422.156006</ele><time>2009-10-19T12:59:32Z</time></trkpt>
<trkpt lat="46.15487672" lon="6.00529868"><ele>422.156006</ele><time>2009-10-19T12:59:33Z</time></trkpt>
<trkpt lat="46.15488058" lon="6.00520933"><ele>421.675415</ele><time>2009-10-19T12:59:34Z</time></trkpt>
<trkpt lat="46.15489223" lon="6.00512149"><ele>422.156006</ele><time>2009-10-19T12:59:35Z</time></trkpt>
<trkpt lat="46.15491117" lon="6.00503599"><ele>422.156006</ele><time>2009-10-19T12:59:36Z</time></trkpt>
<trkpt lat="46.15493716" lon="6.00495134"><ele>421.675415</ele><time>2009-10-19T12:59:37Z</time></trkpt>
<trkpt lat="46.15497018" lon="6.00487053"><ele>422.156006</ele><time>2009-10-19T12:59:38Z</time></trkpt>
<trkpt lat="46.15500430" lon="6.00479686"><ele>421.675415</ele><time>2009-10-19T12:59:39Z</time></trkpt>
<trkpt lat="46.15504084" lon="6.00472134"><ele>421.675415</ele><time>2009-10-19T12:59:40Z</time></trkpt>
<trkpt lat="46.15507957" lon="6.00464917"><ele>421.675415</ele><time>2009-10-19T12:59:41Z</time></trkpt>
<trkpt lat="46.15511930" lon="6.00457926"><ele>422.156006</ele><time>2009-10-19T12:59:42Z</time></trkpt>
<trkpt lat="46.15515752" lon="6.00450986"><ele>422.156006</ele><time>2009-10-19T12:59:43Z</time></trkpt>
<trkpt lat="46.15519398" lon="6.00443979"><ele>421.675415</ele><time>2009-10-19T12:59:44Z</time></trkpt>
<trkpt lat="46.15522969" lon="6.00437039"><ele>421.675415</ele><time>2009-10-19T12:59:45Z</time></trkpt>
<trkpt lat="46.15526489" lon="6.00430258"><ele>422.156006</ele><time>2009-10-19T12:59:46Z</time></trkpt>
<trkpt lat="46.15529926" lon="6.00423778"><ele>422.156006</ele><time>2009-10-19T12:59:47Z</time></trkpt>
<trkpt lat="46.15533354" lon="6.00417693"><ele>422.156006</ele><time>2009-10-19T12:59:48Z</time></trkpt>
<trkpt lat="46.15536849" lon="6.00412019"><ele>422.156006</ele><time>2009-10-19T12:59:49Z</time></trkpt>
<trkpt lat="46.15540235" lon="6.00406696"><ele>421.675415</ele><time>2009-10-19T12:59:50Z</time></trkpt>
<trkpt lat="46.15543479" lon="6.00401675"><ele>421.675415</ele><time>2009-10-19T12:59:51Z</time></trkpt>
<trkpt lat="46.15546262" lon="6.00396747"><ele>421.675415</ele><time>2009-10-19T12:59:52Z</time></trkpt>
<trkpt lat="46.15548324" lon="6.00391307"><ele>421.675415</ele><time>2009-10-19T12:59:53Z</time></trkpt>
<trkpt lat="46.15549020" lon="6.00385297"><ele>422.156006</ele><time>2009-10-19T12:59:54Z</time></trkpt>
<trkpt lat="46.15548232" lon="6.00378994"><ele>422.156006</ele><time>2009-10-19T12:59:55Z</time></trkpt>
<trkpt lat="46.15546170" lon="6.00372607"><ele>423.117432</ele><time>2009-10-19T12:59:56Z</time></trkpt>
<trkpt lat="46.15543085" lon="6.00366237"><ele>423.117432</ele><time>2009-10-19T12:59:57Z</time></trkpt>
<trkpt lat="46.15539439" lon="6.00359774"><ele>423.598022</ele><time>2009-10-19T12:59:58Z</time></trkpt>
<trkpt lat="46.15535407" lon="6.00353220"><ele>424.078735</ele><time>2009-10-19T12:59:59Z</time></trkpt>
<trkpt lat="46.15531074" lon="6.00346313"><ele>424.078735</ele><time>2009-10-19T13:00:00Z</time></trkpt>
<trkpt lat="46.15526640" lon="6.00339063"><ele>424.559448</ele><time>2009-10-19T13:00:01Z</time></trkpt>
<trkpt lat="46.15522097" lon="6.00331469"><ele>424.559448</ele><time>2009-10-19T13:00:02Z</time></trkpt>
<trkpt lat="46.15517504" lon="6.00323657"><ele>424.559448</ele><time>2009-10-19T13:00:03Z</time></trkpt>
<trkpt lat="46.15512810" lon="6.00315736"><ele>424.559448</ele><time>2009-10-19T13:00:04Z</time></trkpt>
<trkpt lat="46.15507923" lon="6.00307815"><ele>424.559448</ele><time>2009-10-19T13:00:05Z</time></trkpt>
<trkpt lat="46.15502886" lon="6.00299936"><ele>424.559448</ele><time>2009-10-19T13:00:06Z</time></trkpt>
<trkpt lat="46.15497814" lon="6.00291956"><ele>424.559448</ele><time>2009-10-19T13:00:07Z</time></trkpt>
<trkpt lat="46.15492752" lon="6.00283826"><ele>424.559448</ele><time>2009-10-19T13:00:08Z</time></trkpt>
<trkpt lat="46.15487672" lon="6.00275586"><ele>424.559448</ele><time>2009-10-19T13:00:09Z</time></trkpt>
<trkpt lat="46.15482543" lon="6.00267355"><ele>424.559448</ele><time>2009-10-19T13:00:10Z</time></trkpt>
<trkpt lat="46.15477413" lon="6.00259233"><ele>424.559448</ele><time>2009-10-19T13:00:11Z</time></trkpt>
<trkpt lat="46.15472266" lon="6.00251237"><ele>424.559448</ele><time>2009-10-19T13:00:12Z</time></trkpt>
<trkpt lat="46.15467162" lon="6.00243316"><ele>424.559448</ele><time>2009-10-19T13:00:13Z</time></trkpt>
<trkpt lat="46.15462116" lon="6.00235563"><ele>424.559448</ele><time>2009-10-19T13:00:14Z</time></trkpt>
<trkpt lat="46.15457154" lon="6.00227944"><ele>424.559448</ele><time>2009-10-19T13:00:15Z</time></trkpt>
<trkpt lat="46.15452318" lon="6.00220216"><ele>424.559448</ele><time>2009-10-19T13:00:16Z</time></trkpt>
<trkpt lat="46.15447464" lon="6.00212504"><ele>424.559448</ele><time>2009-10-19T13:00:17Z</time></trkpt>
<trkpt lat="46.15442838" lon="6.00204449"><ele>424.078735</ele><time>2009-10-19T13:00:18Z</time></trkpt>
<trkpt lat="46.15438722" lon="6.00195665"><ele>424.078735</ele><time>2009-10-19T13:00:19Z</time></trkpt>
<trkpt lat="46.15435235" lon="6.00186369"><ele>424.078735</ele><time>2009-10-19T13:00:20Z</time></trkpt>
<trkpt lat="46.15432226" lon="6.00176613"><ele>424.078735</ele><time>2009-10-19T13:00:21Z</time></trkpt>
<trkpt lat="46.15429603" lon="6.00166454"><ele>424.078735</ele><time>2009-10-19T13:00:22Z</time></trkpt>
<trkpt lat="46.15427054" lon="6.00156178"><ele>424.078735</ele><time>2009-10-19T13:00:23Z</time></trkpt>
<trkpt lat="46.15424816" lon="6.00145667"><ele>424.078735</ele><time>2009-10-19T13:00:24Z</time></trkpt>
<trkpt lat="46.15422503" lon="6.00135114"><ele>424.078735</ele><time>2009-10-19T13:00:25Z</time></trkpt>
<trkpt lat="46.15420190" lon="6.00124578"><ele>424.078735</ele><time>2009-10-19T13:00:26Z</time></trkpt>
<trkpt lat="46.15417776" lon="6.00114134"><ele>424.078735</ele><time>2009-10-19T13:00:27Z</time></trkpt>
<trkpt lat="46.15415127" lon="6.00103833"><ele>424.078735</ele><time>2009-10-19T13:00:28Z</time></trkpt>
<trkpt lat="46.15412017" lon="6.00093825"><ele>424.078735</ele><time>2009-10-19T13:00:29Z</time></trkpt>
<trkpt lat="46.15408296" lon="6.00084236"><ele>424.078735</ele><time>2009-10-19T13:00:30Z</time></trkpt>
<trkpt lat="46.15404063" lon="6.00075066"><ele>424.078735</ele><time>2009-10-19T13:00:31Z</time></trkpt>
<trkpt lat="46.15399528" lon="6.00066223"><ele>424.078735</ele><time>2009-10-19T13:00:32Z</time></trkpt>
<trkpt lat="46.15394658" lon="6.00057858"><ele>424.559448</ele><time>2009-10-19T13:00:33Z</time></trkpt>
<trkpt lat="46.15389403" lon="6.00049820"><ele>424.559448</ele><time>2009-10-19T13:00:34Z</time></trkpt>
<trkpt lat="46.15383980" lon="6.00041958"><ele>424.559448</ele><time>2009-10-19T13:00:35Z</time></trkpt>
<trkpt lat="46.15378406" lon="6.00034288"><ele>424.559448</ele><time>2009-10-19T13:00:36Z</time></trkpt>
<trkpt lat="46.15372807" lon="6.00026753"><ele>424.559448</ele><time>2009-10-19T13:00:37Z</time></trkpt>
<trkpt lat="46.15367233" lon="6.00019402"><ele>424.559448</ele><time>2009-10-19T13:00:38Z</time></trkpt>
<trkpt lat="46.15361676" lon="6.00012235"><ele>424.559448</ele><time>2009-10-19T13:00:39Z</time></trkpt>
<trkpt lat="46.15356085" lon="6.00005337"><ele>424.559448</ele><time>2009-10-19T13:00:40Z</time></trkpt>
<trkpt lat="46.15350427" lon="5.99998665"><ele>424.559448</ele><time>2009-10-19T13:00:41Z</time></trkpt>
<trkpt lat="46.15344686" lon="5.99992136"><ele>424.559448</ele><time>2009-10-19T13:00:42Z</time></trkpt>
<trkpt lat="46.15338667" lon="5.99986017"><ele>424.559448</ele><time>2009-10-19T13:00:43Z</time></trkpt>
<trkpt lat="46.15332339" lon="5.99980359"><ele>424.559448</ele><time>2009-10-19T13:00:44Z</time></trkpt>
<trkpt lat="46.15326019" lon="5.99974793"><ele>424.559448</ele><time>2009-10-19T13:00:45Z</time></trkpt>
<trkpt lat="46.15319816" lon="5.99968993"><ele>424.559448</ele><time>2009-10-19T13:00:46Z</time></trkpt>
<trkpt lat="46.15313857" lon="5.99962556"><ele>424.559448</ele><time>2009-10-19T13:00:47Z</time></trkpt>
<trkpt lat="46.15308300" lon="5.99955222"><ele>424.078735</ele><time>2009-10-19T13:00:48Z</time></trkpt>
<trkpt lat="46.15303069" lon="5.99947385"><ele>424.078735</ele><time>2009-10-19T13:00:49Z</time></trkpt>
<trkpt lat="46.15298183" lon="5.99939187"><ele>423.598022</ele><time>2009-10-19T13:00:50Z</time></trkpt>
<trkpt lat="46.15293900" lon="5.99930713"><ele>423.598022</ele><time>2009-10-19T13:00:51Z</time></trkpt>
<trkpt lat="46.15290220" lon="5.99922113"><ele>423.598022</ele><time>2009-10-19T13:00:52Z</time></trkpt>
<trkpt lat="46.15287035" lon="5.99913673"><ele>423.117432</ele><time>2009-10-19T13:00:53Z</time></trkpt>
<trkpt lat="46.15284252" lon="5.99905349"><ele>422.636719</ele><time>2009-10-19T13:00:54Z</time></trkpt>
<trkpt lat="46.15281905" lon="5.99896657"><ele>422.156006</ele><time>2009-10-19T13:00:55Z</time></trkpt>
<trkpt lat="46.15280329" lon="5.99887429"><ele>421.675415</ele><time>2009-10-19T13:00:56Z</time></trkpt>
<trkpt lat="46.15279449" lon="5.99877714"><ele>421.194824</ele><time>2009-10-19T13:00:57Z</time></trkpt>
<trkpt lat="46.15278745" lon="5.99867782"><ele>420.714111</ele><time>2009-10-19T13:00:58Z</time></trkpt>
<trkpt lat="46.15277848" lon="5.99857748"><ele>420.714111</ele><time>2009-10-19T13:00:59Z</time></trkpt>
<trkpt lat="46.15276809" lon="5.99847732"><ele>420.233398</ele><time>2009-10-19T13:01:00Z</time></trkpt>
<trkpt lat="46.15275795" lon="5.99837833"><ele>420.233398</ele><time>2009-10-19T13:01:01Z</time></trkpt>
<trkpt lat="46.15274847" lon="5.99828085"><ele>420.233398</ele><time>2009-10-19T13:01:02Z</time></trkpt>
<trkpt lat="46.15273858" lon="5.99818479"><ele>420.233398</ele><time>2009-10-19T13:01:03Z</time></trkpt>
<trkpt lat="46.15272643" lon="5.99808924"><ele>420.233398</ele><time>2009-10-19T13:01:04Z</time></trkpt>
<trkpt lat="46.15271235" lon="5.99799352"><ele>419.752808</ele><time>2009-10-19T13:01:05Z</time></trkpt>
<trkpt lat="46.15269693" lon="5.99789696"><ele>419.752808</ele><time>2009-10-19T13:01:06Z</time></trkpt>
<trkpt lat="46.15268092" lon="5.99779990"><ele>419.752808</ele><time>2009-10-19T13:01:07Z</time></trkpt>
<trkpt lat="46.15266474" lon="5.99770434"><ele>420.233398</ele><time>2009-10-19T13:01:08Z</time></trkpt>
<trkpt lat="46.15264823" lon="5.99760979"><ele>420.233398</ele><time>2009-10-19T13:01:09Z</time></trkpt>
<trkpt lat="46.15263314" lon="5.99751734"><ele>420.233398</ele><time>2009-10-19T13:01:10Z</time></trkpt>
<trkpt lat="46.15261973" lon="5.99742816"><ele>420.233398</ele><time>2009-10-19T13:01:11Z</time></trkpt>
<trkpt lat="46.15260665" lon="5.99734015"><ele>420.714111</ele><time>2009-10-19T13:01:12Z</time></trkpt>
<trkpt lat="46.15259685" lon="5.99725449"><ele>420.714111</ele><time>2009-10-19T13:01:13Z</time></trkpt>
<trkpt lat="46.15258746" lon="5.99716807"><ele>420.714111</ele><time>2009-10-19T13:01:14Z</time></trkpt>
<trkpt lat="46.15257002" lon="5.99708282"><ele>420.714111</ele><time>2009-10-19T13:01:15Z</time></trkpt>
<trkpt lat="46.15254396" lon="5.99699926"><ele>420.714111</ele><time>2009-10-19T13:01:16Z</time></trkpt>
<trkpt lat="46.15250716" lon="5.99691703"><ele>420.233398</ele><time>2009-10-19T13:01:17Z</time></trkpt>
<trkpt lat="46.15246885" lon="5.99683296"><ele>420.233398</ele><time>2009-10-19T13:01:18Z</time></trkpt>
<trkpt lat="46.15243549" lon="5.99674269"><ele>420.233398</ele><time>2009-10-19T13:01:19Z</time></trkpt>
<trkpt lat="46.15240649" lon="5.99664789"><ele>420.233398</ele><time>2009-10-19T13:01:20Z</time></trkpt>
<trkpt lat="46.15237783" lon="5.99655225"><ele>420.233398</ele><time>2009-10-19T13:01:21Z</time></trkpt>
<trkpt lat="46.15234874" lon="5.99645443"><ele>420.233398</ele><time>2009-10-19T13:01:22Z</time></trkpt>
<trkpt lat="46.15231882" lon="5.99635603"><ele>420.714111</ele><time>2009-10-19T13:01:23Z</time></trkpt>
<trkpt lat="46.15228772" lon="5.99626115"><ele>421.194824</ele><time>2009-10-19T13:01:24Z</time></trkpt>
<trkpt lat="46.15225503" lon="5.99617012"><ele>421.194824</ele><time>2009-10-19T13:01:25Z</time></trkpt>
<trkpt lat="46.15221807" lon="5.99608102"><ele>421.194824</ele><time>2009-10-19T13:01:26Z</time></trkpt>
<trkpt lat="46.15216903" lon="5.99600684"><ele>420.714111</ele><time>2009-10-19T13:01:27Z</time></trkpt>
<trkpt lat="46.15211346" lon="5.99593752"><ele>420.714111</ele><time>2009-10-19T13:01:28Z</time></trkpt>
<trkpt lat="46.15205479" lon="5.99587139"><ele>420.233398</ele><time>2009-10-19T13:01:29Z</time></trkpt>
<trkpt lat="46.15199192" lon="5.99580525"><ele>419.752808</ele><time>2009-10-19T13:01:30Z</time></trkpt>
<trkpt lat="46.15192789" lon="5.99573803"><ele>419.752808</ele><time>2009-10-19T13:01:31Z</time></trkpt>
<trkpt lat="46.15186360" lon="5.99566997"><ele>419.272217</ele><time>2009-10-19T13:01:32Z</time></trkpt>
<trkpt lat="46.15180006" lon="5.99560258"><ele>418.791504</ele><time>2009-10-19T13:01:33Z</time></trkpt>
<trkpt lat="46.15173644" lon="5.99553594"><ele>418.310791</ele><time>2009-10-19T13:01:34Z</time></trkpt>
<trkpt lat="46.15167199" lon="5.99547124"><ele>417.8302</ele><time>2009-10-19T13:01:35Z</time></trkpt>
<trkpt lat="46.15160636" lon="5.99541038"><ele>417.349609</ele><time>2009-10-19T13:01:36Z</time></trkpt>
<trkpt lat="46.15154165" lon="5.99535062"><ele>417.349609</ele><time>2009-10-19T13:01:37Z</time></trkpt>
<trkpt lat="46.15147912" lon="5.99528993"><ele>416.868896</ele><time>2009-10-19T13:01:38Z</time></trkpt>
<trkpt lat="46.15141760" lon="5.99523076"><ele>416.388184</ele><time>2009-10-19T13:01:39Z</time></trkpt>
<trkpt lat="46.15135557" lon="5.99517535"><ele>415.907471</ele><time>2009-10-19T13:01:40Z</time></trkpt>
<trkpt lat="46.15129229" lon="5.99512389"><ele>415.907471</ele><time>2009-10-19T13:01:41Z</time></trkpt>
<trkpt lat="46.15122808" lon="5.99507569"><ele>415.42688</ele><time>2009-10-19T13:01:42Z</time></trkpt>
<trkpt lat="46.15116388" lon="5.99502959"><ele>414.946167</ele><time>2009-10-19T13:01:43Z</time></trkpt>
<trkpt lat="46.15109875" lon="5.99498475"><ele>414.946167</ele><time>2009-10-19T13:01:44Z</time></trkpt>
<trkpt lat="46.15103949" lon="5.99493203"><ele>414.465454</ele><time>2009-10-19T13:01:45Z</time></trkpt>
<trkpt lat="46.15098165" lon="5.99486883"><ele>413.984863</ele><time>2009-10-19T13:01:46Z</time></trkpt>
<trkpt lat="46.15092709" lon="5.99479507"><ele>413.984863</ele><time>2009-10-19T13:01:47Z</time></trkpt>
<trkpt lat="46.15087202" lon="5.99471946"><ele>413.504272</ele><time>2009-10-19T13:01:48Z</time></trkpt>
<trkpt lat="46.15081485" lon="5.99464738"><ele>413.504272</ele><time>2009-10-19T13:01:49Z</time></trkpt>
<trkpt lat="46.15075719" lon="5.99458577"><ele>413.02356</ele><time>2009-10-19T13:01:50Z</time></trkpt>
<trkpt lat="46.15069784" lon="5.99452165"><ele>412.062256</ele><time>2009-10-19T13:01:51Z</time></trkpt>
<trkpt lat="46.15064353" lon="5.99445518"><ele>412.062256</ele><time>2009-10-19T13:01:52Z</time></trkpt>
<trkpt lat="46.15058812" lon="5.99438544"><ele>411.100952</ele><time>2009-10-19T13:01:53Z</time></trkpt>
<trkpt lat="46.15053674" lon="5.99430414"><ele>410.620239</ele><time>2009-10-19T13:01:54Z</time></trkpt>
<trkpt lat="46.15048427" lon="5.99419434"><ele>410.620239</ele><time>2009-10-19T13:01:55Z</time></trkpt>
<trkpt lat="46.15042912" lon="5.99410113"><ele>410.620239</ele><time>2009-10-19T13:01:56Z</time></trkpt>
<trkpt lat="46.15037950" lon="5.99400708"><ele>410.620239</ele><time>2009-10-19T13:01:57Z</time></trkpt>
<trkpt lat="46.15033289" lon="5.99394539"><ele>410.139648</ele><time>2009-10-19T13:01:58Z</time></trkpt>
<trkpt lat="46.15029585" lon="5.99395872"><ele>409.178345</ele><time>2009-10-19T13:01:59Z</time></trkpt>
<trkpt lat="46.15025989" lon="5.99388756"><ele>408.697632</ele><time>2009-10-19T13:02:00Z</time></trkpt>
<trkpt lat="46.15027355" lon="5.99381732"><ele>407.736328</ele><time>2009-10-19T13:02:01Z</time></trkpt>
<trkpt lat="46.15033172" lon="5.99380407"><ele>406.294312</ele><time>2009-10-19T13:02:02Z</time></trkpt>
<trkpt lat="46.15039710" lon="5.99376468"><ele>405.813721</ele><time>2009-10-19T13:02:03Z</time></trkpt>
<trkpt lat="46.15045468" lon="5.99371992"><ele>405.333008</ele><time>2009-10-19T13:02:04Z</time></trkpt>
<trkpt lat="46.15051403" lon="5.99367072"><ele>404.852295</ele><time>2009-10-19T13:02:05Z</time></trkpt>
<trkpt lat="46.15057463" lon="5.99362135"><ele>403.891113</ele><time>2009-10-19T13:02:06Z</time></trkpt>
<trkpt lat="46.15063364" lon="5.99356804"><ele>403.4104</ele><time>2009-10-19T13:02:07Z</time></trkpt>
<trkpt lat="46.15069223" lon="5.99351792"><ele>402.929688</ele><time>2009-10-19T13:02:08Z</time></trkpt>
<trkpt lat="46.15074973" lon="5.99346603"><ele>402.449097</ele><time>2009-10-19T13:02:09Z</time></trkpt>
<trkpt lat="46.15080756" lon="5.99341339"><ele>401.968506</ele><time>2009-10-19T13:02:10Z</time></trkpt>
<trkpt lat="46.15085836" lon="5.99335908"><ele>401.487793</ele><time>2009-10-19T13:02:11Z</time></trkpt>
<trkpt lat="46.15090638" lon="5.99330284"><ele>401.00708</ele><time>2009-10-19T13:02:12Z</time></trkpt>
<trkpt lat="46.15095366" lon="5.99324140"><ele>400.526489</ele><time>2009-10-19T13:02:13Z</time></trkpt>
<trkpt lat="46.15100068" lon="5.99317485"><ele>401.00708</ele><time>2009-10-19T13:02:14Z</time></trkpt>
<trkpt lat="46.15104494" lon="5.99310092"><ele>401.968506</ele><time>2009-10-19T13:02:15Z</time></trkpt>
<trkpt lat="46.15108274" lon="5.99302992"><ele>402.449097</ele><time>2009-10-19T13:02:16Z</time></trkpt>
<trkpt lat="46.15111987" lon="5.99295884"><ele>402.929688</ele><time>2009-10-19T13:02:17Z</time></trkpt>
<trkpt lat="46.15115432" lon="5.99288307"><ele>403.4104</ele><time>2009-10-19T13:02:18Z</time></trkpt>
<trkpt lat="46.15118693" lon="5.99280587"><ele>404.371704</ele><time>2009-10-19T13:02:19Z</time></trkpt>
<trkpt lat="46.15122439" lon="5.99272675"><ele>403.891113</ele><time>2009-10-19T13:02:20Z</time></trkpt>
<trkpt lat="46.15126639" lon="5.99264913"><ele>404.371704</ele><time>2009-10-19T13:02:21Z</time></trkpt>
<trkpt lat="46.15130318" lon="5.99257235"><ele>404.852295</ele><time>2009-10-19T13:02:22Z</time></trkpt>
<trkpt lat="46.15132766" lon="5.99246180"><ele>406.294312</ele><time>2009-10-19T13:02:23Z</time></trkpt>
<trkpt lat="46.15131358" lon="5.99238644"><ele>407.736328</ele><time>2009-10-19T13:02:24Z</time></trkpt>
<trkpt lat="46.15131056" lon="5.99230514"><ele>408.697632</ele><time>2009-10-19T13:02:25Z</time></trkpt>
<trkpt lat="46.15133269" lon="5.99218226"><ele>410.620239</ele><time>2009-10-19T13:02:26Z</time></trkpt>
<trkpt lat="46.15134325" lon="5.99206114"><ele>412.062256</ele><time>2009-10-19T13:02:27Z</time></trkpt>
<trkpt lat="46.15135456" lon="5.99189518"><ele>414.465454</ele><time>2009-10-19T13:02:28Z</time></trkpt>
<trkpt lat="46.15133747" lon="5.99178487"><ele>414.946167</ele><time>2009-10-19T13:02:29Z</time></trkpt>
<trkpt lat="46.15133663" lon="5.99166283"><ele>415.907471</ele><time>2009-10-19T13:02:30Z</time></trkpt>
<trkpt lat="46.15132783" lon="5.99155177"><ele>415.907471</ele><time>2009-10-19T13:02:31Z</time></trkpt>
<trkpt lat="46.15131064" lon="5.99143342"><ele>415.907471</ele><time>2009-10-19T13:02:32Z</time></trkpt>
<trkpt lat="46.15128734" lon="5.99130694"><ele>415.42688</ele><time>2009-10-19T13:02:33Z</time></trkpt>
<trkpt lat="46.15126412" lon="5.99119102"><ele>414.946167</ele><time>2009-10-19T13:02:34Z</time></trkpt>
<trkpt lat="46.15123596" lon="5.99107870"><ele>414.946167</ele><time>2009-10-19T13:02:35Z</time></trkpt>
<trkpt lat="46.15120637" lon="5.99096806"><ele>414.946167</ele><time>2009-10-19T13:02:36Z</time></trkpt>
<trkpt lat="46.15117779" lon="5.99086052"><ele>414.946167</ele><time>2009-10-19T13:02:37Z</time></trkpt>
<trkpt lat="46.15115399" lon="5.99075658"><ele>414.946167</ele><time>2009-10-19T13:02:38Z</time></trkpt>
<trkpt lat="46.15112968" lon="5.99065818"><ele>414.946167</ele><time>2009-10-19T13:02:39Z</time></trkpt>
<trkpt lat="46.15110990" lon="5.99056128"><ele>415.42688</ele><time>2009-10-19T13:02:40Z</time></trkpt>
<trkpt lat="46.15109875" lon="5.99046766"><ele>415.42688</ele><time>2009-10-19T13:02:41Z</time></trkpt>
<trkpt lat="46.15108995" lon="5.99037705"><ele>415.907471</ele><time>2009-10-19T13:02:42Z</time></trkpt>
<trkpt lat="46.15108794" lon="5.99029055"><ele>415.907471</ele><time>2009-10-19T13:02:43Z</time></trkpt>
<trkpt lat="46.15109229" lon="5.99021134"><ele>415.907471</ele><time>2009-10-19T13:02:44Z</time></trkpt>
<trkpt lat="46.15110319" lon="5.99014353"><ele>416.388184</ele><time>2009-10-19T13:02:45Z</time></trkpt>
<trkpt lat="46.15111442" lon="5.99008226"><ele>416.868896</ele><time>2009-10-19T13:02:46Z</time></trkpt>
<trkpt lat="46.15112163" lon="5.99002409"><ele>417.349609</ele><time>2009-10-19T13:02:47Z</time></trkpt>
<trkpt lat="46.15111534" lon="5.98996407"><ele>417.349609</ele><time>2009-10-19T13:02:48Z</time></trkpt>
<trkpt lat="46.15109774" lon="5.98990213"><ele>417.349609</ele><time>2009-10-19T13:02:49Z</time></trkpt>
<trkpt lat="46.15107218" lon="5.98984128"><ele>417.8302</ele><time>2009-10-19T13:02:50Z</time></trkpt>
<trkpt lat="46.15103865" lon="5.98978386"><ele>417.8302</ele><time>2009-10-19T13:02:51Z</time></trkpt>
<trkpt lat="46.15100345" lon="5.98972452"><ele>418.310791</ele><time>2009-10-19T13:02:52Z</time></trkpt>
<trkpt lat="46.15096782" lon="5.98966392"><ele>418.310791</ele><time>2009-10-19T13:02:53Z</time></trkpt>
<trkpt lat="46.15093430" lon="5.98960550"><ele>418.310791</ele><time>2009-10-19T13:02:54Z</time></trkpt>
<trkpt lat="46.15090077" lon="5.98954615"><ele>417.8302</ele><time>2009-10-19T13:02:55Z</time></trkpt>
<trkpt lat="46.15086623" lon="5.98948672"><ele>417.8302</ele><time>2009-10-19T13:02:56Z</time></trkpt>
<trkpt lat="46.15083044" lon="5.98942813"><ele>417.8302</ele><time>2009-10-19T13:02:57Z</time></trkpt>
<trkpt lat="46.15079616" lon="5.98936745"><ele>417.349609</ele><time>2009-10-19T13:02:58Z</time></trkpt>
<trkpt lat="46.15076305" lon="5.98930509"><ele>417.349609</ele><time>2009-10-19T13:02:59Z</time></trkpt>
<trkpt lat="46.15072072" lon="5.98925337"><ele>417.8302</ele><time>2009-10-19T13:03:00Z</time></trkpt>
<trkpt lat="46.15067412" lon="5.98920777"><ele>417.8302</ele><time>2009-10-19T13:03:01Z</time></trkpt>
<trkpt lat="46.15060950" lon="5.98919763"><ele>417.349609</ele><time>2009-10-19T13:03:02Z</time></trkpt>
<trkpt lat="46.15055988" lon="5.98921364"><ele>417.349609</ele><time>2009-10-19T13:03:03Z</time></trkpt>
<trkpt lat="46.15049626" lon="5.98925337"><ele>418.791504</ele><time>2009-10-19T13:03:04Z</time></trkpt>
<trkpt lat="46.15043725" lon="5.98930542"><ele>418.791504</ele><time>2009-10-19T13:03:05Z</time></trkpt>
<trkpt lat="46.15038830" lon="5.98935169"><ele>418.791504</ele><time>2009-10-19T13:03:06Z</time></trkpt>
<trkpt lat="46.15034195" lon="5.98939436"><ele>418.310791</ele><time>2009-10-19T13:03:07Z</time></trkpt>
<trkpt lat="46.15030062" lon="5.98942989"><ele>418.310791</ele><time>2009-10-19T13:03:08Z</time></trkpt>
<trkpt lat="46.15026140" lon="5.98947004"><ele>418.310791</ele><time>2009-10-19T13:03:09Z</time></trkpt>
<trkpt lat="46.15022460" lon="5.98951665"><ele>417.349609</ele><time>2009-10-19T13:03:10Z</time></trkpt>
<trkpt lat="46.15018898" lon="5.98955420"><ele>416.868896</ele><time>2009-10-19T13:03:11Z</time></trkpt>
<trkpt lat="46.15016257" lon="5.98958563"><ele>415.42688</ele><time>2009-10-19T13:03:12Z</time></trkpt>
<trkpt lat="46.15013299" lon="5.98959929"><ele>413.02356</ele><time>2009-10-19T13:03:13Z</time></trkpt>
<trkpt lat="46.15008663" lon="5.98961639"><ele>412.542847</ele><time>2009-10-19T13:03:14Z</time></trkpt>
<trkpt lat="46.15003282" lon="5.98963274"><ele>412.542847</ele><time>2009-10-19T13:03:15Z</time></trkpt>
<trkpt lat="46.14998245" lon="5.98964229"><ele>413.504272</ele><time>2009-10-19T13:03:16Z</time></trkpt>
<trkpt lat="46.14992126" lon="5.98964782"><ele>412.062256</ele><time>2009-10-19T13:03:17Z</time></trkpt>
<trkpt lat="46.14987114" lon="5.98965587"><ele>411.581665</ele><time>2009-10-19T13:03:18Z</time></trkpt>
<trkpt lat="46.14982294" lon="5.98965889"><ele>409.178345</ele><time>2009-10-19T13:03:19Z</time></trkpt>
<trkpt lat="46.14977097" lon="5.98966895"><ele>407.255615</ele><time>2009-10-19T13:03:20Z</time></trkpt>
<trkpt lat="46.14972177" lon="5.98968236"><ele>404.852295</ele><time>2009-10-19T13:03:21Z</time></trkpt>
<trkpt lat="46.14967584" lon="5.98968789"><ele>403.891113</ele><time>2009-10-19T13:03:22Z</time></trkpt>
<trkpt lat="46.14962697" lon="5.98968848"><ele>402.449097</ele><time>2009-10-19T13:03:23Z</time></trkpt>
<trkpt lat="46.14957844" lon="5.98969669"><ele>401.00708</ele><time>2009-10-19T13:03:24Z</time></trkpt>
<trkpt lat="46.14952982" lon="5.98970273"><ele>400.045898</ele><time>2009-10-19T13:03:25Z</time></trkpt>
<trkpt lat="46.14947367" lon="5.98972804"><ele>398.60376</ele><time>2009-10-19T13:03:26Z</time></trkpt>
<trkpt lat="46.14942446" lon="5.98974774"><ele>397.161743</ele><time>2009-10-19T13:03:27Z</time></trkpt>
<trkpt lat="46.14938054" lon="5.98976559"><ele>395.719849</ele><time>2009-10-19T13:03:28Z</time></trkpt>
<trkpt lat="46.14933553" lon="5.98977992"><ele>394.758545</ele><time>2009-10-19T13:03:29Z</time></trkpt>
<trkpt lat="46.14928960" lon="5.98979409"><ele>394.758545</ele><time>2009-10-19T13:03:30Z</time></trkpt>
<trkpt lat="46.14923587" lon="5.98980549"><ele>393.797241</ele><time>2009-10-19T13:03:31Z</time></trkpt>
<trkpt lat="46.14918457" lon="5.98980725"><ele>393.316528</ele><time>2009-10-19T13:03:32Z</time></trkpt>
<trkpt lat="46.14913168" lon="5.98980146"><ele>392.835938</ele><time>2009-10-19T13:03:33Z</time></trkpt>
<trkpt lat="46.14907234" lon="5.98979493"><ele>392.355347</ele><time>2009-10-19T13:03:34Z</time></trkpt>
<trkpt lat="46.14901249" lon="5.98978453"><ele>391.874512</ele><time>2009-10-19T13:03:35Z</time></trkpt>
<trkpt lat="46.14895047" lon="5.98977573"><ele>391.393799</ele><time>2009-10-19T13:03:36Z</time></trkpt>
<trkpt lat="46.14888819" lon="5.98976777"><ele>390.432617</ele><time>2009-10-19T13:03:37Z</time></trkpt>
<trkpt lat="46.14882776" lon="5.98975184"><ele>389.951904</ele><time>2009-10-19T13:03:38Z</time></trkpt>
<trkpt lat="46.14876355" lon="5.98973835"><ele>389.471191</ele><time>2009-10-19T13:03:39Z</time></trkpt>
<trkpt lat="46.14869675" lon="5.98972418"><ele>389.471191</ele><time>2009-10-19T13:03:40Z</time></trkpt>
<trkpt lat="46.14862986" lon="5.98971496"><ele>388.51001</ele><time>2009-10-19T13:03:41Z</time></trkpt>
<trkpt lat="46.14855937" lon="5.98970960"><ele>388.029297</ele><time>2009-10-19T13:03:42Z</time></trkpt>
<trkpt lat="46.14848980" lon="5.98971019"><ele>388.51001</ele><time>2009-10-19T13:03:43Z</time></trkpt>
<trkpt lat="46.14842509" lon="5.98971547"><ele>388.51001</ele><time>2009-10-19T13:03:44Z</time></trkpt>
<trkpt lat="46.14836407" lon="5.98972863"><ele>388.990601</ele><time>2009-10-19T13:03:45Z</time></trkpt>
<trkpt lat="46.14831042" lon="5.98974086"><ele>388.990601</ele><time>2009-10-19T13:03:46Z</time></trkpt>
<trkpt lat="46.14826047" lon="5.98974614"><ele>388.51001</ele><time>2009-10-19T13:03:47Z</time></trkpt>
<trkpt lat="46.14820984" lon="5.98973550"><ele>388.51001</ele><time>2009-10-19T13:03:48Z</time></trkpt>
<trkpt lat="46.14815972" lon="5.98970667"><ele>388.029297</ele><time>2009-10-19T13:03:49Z</time></trkpt>
<trkpt lat="46.14810574" lon="5.98967372"><ele>387.548584</ele><time>2009-10-19T13:03:50Z</time></trkpt>
<trkpt lat="46.14804874" lon="5.98964045"><ele>386.587402</ele><time>2009-10-19T13:03:51Z</time></trkpt>
<trkpt lat="46.14798806" lon="5.98960868"><ele>385.625977</ele><time>2009-10-19T13:03:52Z</time></trkpt>
<trkpt lat="46.14792695" lon="5.98958404"><ele>384.664795</ele><time>2009-10-19T13:03:53Z</time></trkpt>
<trkpt lat="46.14786526" lon="5.98956333"><ele>384.184082</ele><time>2009-10-19T13:03:54Z</time></trkpt>
<trkpt lat="46.14780357" lon="5.98954523"><ele>383.222656</ele><time>2009-10-19T13:03:55Z</time></trkpt>
<trkpt lat="46.14774557" lon="5.98953073"><ele>382.742065</ele><time>2009-10-19T13:03:56Z</time></trkpt>
<trkpt lat="46.14768723" lon="5.98951237"><ele>382.261353</ele><time>2009-10-19T13:03:57Z</time></trkpt>
<trkpt lat="46.14762856" lon="5.98948639"><ele>381.78064</ele><time>2009-10-19T13:03:58Z</time></trkpt>
<trkpt lat="46.14756946" lon="5.98945957"><ele>381.300049</ele><time>2009-10-19T13:03:59Z</time></trkpt>
<trkpt lat="46.14751113" lon="5.98943434"><ele>380.819458</ele><time>2009-10-19T13:04:00Z</time></trkpt>
<trkpt lat="46.14745430" lon="5.98941112"><ele>380.338745</ele><time>2009-10-19T13:04:01Z</time></trkpt>
<trkpt lat="46.14739914" lon="5.98938237"><ele>380.338745</ele><time>2009-10-19T13:04:02Z</time></trkpt>
<trkpt lat="46.14734257" lon="5.98935706"><ele>380.338745</ele><time>2009-10-19T13:04:03Z</time></trkpt>
<trkpt lat="46.14728414" lon="5.98933702"><ele>379.858032</ele><time>2009-10-19T13:04:04Z</time></trkpt>
<trkpt lat="46.14722815" lon="5.98932026"><ele>379.377441</ele><time>2009-10-19T13:04:05Z</time></trkpt>
<trkpt lat="46.14716789" lon="5.98930199"><ele>378.896851</ele><time>2009-10-19T13:04:06Z</time></trkpt>
<trkpt lat="46.14710402" lon="5.98927936"><ele>378.416138</ele><time>2009-10-19T13:04:07Z</time></trkpt>
<trkpt lat="46.14704283" lon="5.98925245"><ele>377.935425</ele><time>2009-10-19T13:04:08Z</time></trkpt>
<trkpt lat="46.14698055" lon="5.98922336"><ele>377.935425</ele><time>2009-10-19T13:04:09Z</time></trkpt>
<trkpt lat="46.14691626" lon="5.98919394"><ele>377.935425</ele><time>2009-10-19T13:04:10Z</time></trkpt>
<trkpt lat="46.14684787" lon="5.98916058"><ele>377.935425</ele><time>2009-10-19T13:04:11Z</time></trkpt>
<trkpt lat="46.14678157" lon="5.98912446"><ele>377.454834</ele><time>2009-10-19T13:04:12Z</time></trkpt>
<trkpt lat="46.14671434" lon="5.98908414"><ele>377.454834</ele><time>2009-10-19T13:04:13Z</time></trkpt>
<trkpt lat="46.14664469" lon="5.98905003"><ele>376.974243</ele><time>2009-10-19T13:04:14Z</time></trkpt>
<trkpt lat="46.14657168" lon="5.98902597"><ele>376.974243</ele><time>2009-10-19T13:04:15Z</time></trkpt>
<trkpt lat="46.14649792" lon="5.98900443"><ele>376.49353</ele><time>2009-10-19T13:04:16Z</time></trkpt>
<trkpt lat="46.14642559" lon="5.98898096"><ele>376.49353</ele><time>2009-10-19T13:04:17Z</time></trkpt>
<trkpt lat="46.14635518" lon="5.98896168"><ele>376.49353</ele><time>2009-10-19T13:04:18Z</time></trkpt>
<trkpt lat="46.14628745" lon="5.98893863"><ele>376.49353</ele><time>2009-10-19T13:04:19Z</time></trkpt>
<trkpt lat="46.14621998" lon="5.98890997"><ele>376.012817</ele><time>2009-10-19T13:04:20Z</time></trkpt>
<trkpt lat="46.14615762" lon="5.98887996"><ele>374.570801</ele><time>2009-10-19T13:04:21Z</time></trkpt>
<trkpt lat="46.14609442" lon="5.98885783"><ele>374.090088</ele><time>2009-10-19T13:04:22Z</time></trkpt>
<trkpt lat="46.14602929" lon="5.98883268"><ele>373.609497</ele><time>2009-10-19T13:04:23Z</time></trkpt>
<trkpt lat="46.14596609" lon="5.98881173"><ele>373.609497</ele><time>2009-10-19T13:04:24Z</time></trkpt>
<trkpt lat="46.14590390" lon="5.98879186"><ele>373.609497</ele><time>2009-10-19T13:04:25Z</time></trkpt>
<trkpt lat="46.14584330" lon="5.98877208"><ele>373.128906</ele><time>2009-10-19T13:04:26Z</time></trkpt>
<trkpt lat="46.14578580" lon="5.98875113"><ele>373.128906</ele><time>2009-10-19T13:04:27Z</time></trkpt>
<trkpt lat="46.14573332" lon="5.98872565"><ele>372.648193</ele><time>2009-10-19T13:04:28Z</time></trkpt>
<trkpt lat="46.14567968" lon="5.98870109"><ele>372.16748</ele><time>2009-10-19T13:04:29Z</time></trkpt>
<trkpt lat="46.14562696" lon="5.98867502"><ele>371.68689</ele><time>2009-10-19T13:04:30Z</time></trkpt>
<trkpt lat="46.14557273" lon="5.98865574"><ele>371.206299</ele><time>2009-10-19T13:04:31Z</time></trkpt>
<trkpt lat="46.14552118" lon="5.98864057"><ele>370.725586</ele><time>2009-10-19T13:04:32Z</time></trkpt>
<trkpt lat="46.14546427" lon="5.98862012"><ele>371.206299</ele><time>2009-10-19T13:04:33Z</time></trkpt>
<trkpt lat="46.14540308" lon="5.98859875"><ele>371.206299</ele><time>2009-10-19T13:04:34Z</time></trkpt>
<trkpt lat="46.14534373" lon="5.98857444"><ele>371.206299</ele><time>2009-10-19T13:04:35Z</time></trkpt>
<trkpt lat="46.14528875" lon="5.98854770"><ele>370.725586</ele><time>2009-10-19T13:04:36Z</time></trkpt>
<trkpt lat="46.14523762" lon="5.98851593"><ele>371.206299</ele><time>2009-10-19T13:04:37Z</time></trkpt>
<trkpt lat="46.14518599" lon="5.98846816"><ele>370.725586</ele><time>2009-10-19T13:04:38Z</time></trkpt>
<trkpt lat="46.14513729" lon="5.98841066"><ele>370.725586</ele><time>2009-10-19T13:04:39Z</time></trkpt>
<trkpt lat="46.14509102" lon="5.98834964"><ele>370.725586</ele><time>2009-10-19T13:04:40Z</time></trkpt>
<trkpt lat="46.14504668" lon="5.98828543"><ele>370.244873</ele><time>2009-10-19T13:04:41Z</time></trkpt>
<trkpt lat="46.14500603" lon="5.98821678"><ele>369.764282</ele><time>2009-10-19T13:04:42Z</time></trkpt>
<trkpt lat="46.14496839" lon="5.98814989"><ele>369.764282</ele><time>2009-10-19T13:04:43Z</time></trkpt>
<trkpt lat="46.14493696" lon="5.98808460"><ele>369.764282</ele><time>2009-10-19T13:04:44Z</time></trkpt>
<trkpt lat="46.14490737" lon="5.98801872"><ele>369.764282</ele><time>2009-10-19T13:04:45Z</time></trkpt>
<trkpt lat="46.14487812" lon="5.98795242"><ele>369.764282</ele><time>2009-10-19T13:04:46Z</time></trkpt>
<trkpt lat="46.14485297" lon="5.98788687"><ele>369.764282</ele><time>2009-10-19T13:04:47Z</time></trkpt>
<trkpt lat="46.14483378" lon="5.98781453"><ele>370.244873</ele><time>2009-10-19T13:04:48Z</time></trkpt>
<trkpt lat="46.14481266" lon="5.98773893"><ele>370.244873</ele><time>2009-10-19T13:04:49Z</time></trkpt>
<trkpt lat="46.14478709" lon="5.98765695"><ele>369.764282</ele><time>2009-10-19T13:04:50Z</time></trkpt>
<trkpt lat="46.14475499" lon="5.98757423"><ele>369.764282</ele><time>2009-10-19T13:04:51Z</time></trkpt>
<trkpt lat="46.14472314" lon="5.98749284"><ele>369.764282</ele><time>2009-10-19T13:04:52Z</time></trkpt>
<trkpt lat="46.14468525" lon="5.98740919"><ele>369.283691</ele><time>2009-10-19T13:04:53Z</time></trkpt>
<trkpt lat="46.14464426" lon="5.98731766"><ele>369.283691</ele><time>2009-10-19T13:04:54Z</time></trkpt>
<trkpt lat="46.14460319" lon="5.98720869"><ele>369.764282</ele><time>2009-10-19T13:04:55Z</time></trkpt>
<trkpt lat="46.14456455" lon="5.98710006"><ele>369.764282</ele><time>2009-10-19T13:04:56Z</time></trkpt>
<trkpt lat="46.14453916" lon="5.98699453"><ele>369.764282</ele><time>2009-10-19T13:04:57Z</time></trkpt>
<trkpt lat="46.14451376" lon="5.98688766"><ele>369.283691</ele><time>2009-10-19T13:04:58Z</time></trkpt>
<trkpt lat="46.14447713" lon="5.98677392"><ele>369.283691</ele><time>2009-10-19T13:04:59Z</time></trkpt>
<trkpt lat="46.14444335" lon="5.98666563"><ele>368.802979</ele><time>2009-10-19T13:05:00Z</time></trkpt>
<trkpt lat="46.14440898" lon="5.98655708"><ele>368.802979</ele><time>2009-10-19T13:05:01Z</time></trkpt>
<trkpt lat="46.14437453" lon="5.98645004"><ele>368.322266</ele><time>2009-10-19T13:05:02Z</time></trkpt>
<trkpt lat="46.14433908" lon="5.98634812"><ele>368.802979</ele><time>2009-10-19T13:05:03Z</time></trkpt>
<trkpt lat="46.14431142" lon="5.98625709"><ele>368.322266</ele><time>2009-10-19T13:05:04Z</time></trkpt>
<trkpt lat="46.14428124" lon="5.98618275"><ele>368.322266</ele><time>2009-10-19T13:05:05Z</time></trkpt>
<trkpt lat="46.14424084" lon="5.98612240"><ele>367.841553</ele><time>2009-10-19T13:05:06Z</time></trkpt>
<trkpt lat="46.14419122" lon="5.98607847"><ele>367.841553</ele><time>2009-10-19T13:05:07Z</time></trkpt>
<trkpt lat="46.14414026" lon="5.98604495"><ele>367.360962</ele><time>2009-10-19T13:05:08Z</time></trkpt>
<trkpt lat="46.14409064" lon="5.98601586"><ele>367.360962</ele><time>2009-10-19T13:05:09Z</time></trkpt>
<trkpt lat="46.14404093" lon="5.98598829"><ele>366.880249</ele><time>2009-10-19T13:05:10Z</time></trkpt>
<trkpt lat="46.14398880" lon="5.98596423"><ele>366.399536</ele><time>2009-10-19T13:05:11Z</time></trkpt>
<trkpt lat="46.14393448" lon="5.98594436"><ele>365.918945</ele><time>2009-10-19T13:05:12Z</time></trkpt>
<trkpt lat="46.14388185" lon="5.98592735"><ele>365.918945</ele><time>2009-10-19T13:05:13Z</time></trkpt>
<trkpt lat="46.14383264" lon="5.98591117"><ele>365.918945</ele><time>2009-10-19T13:05:14Z</time></trkpt>
<trkpt lat="46.14379124" lon="5.98589332"><ele>365.918945</ele><time>2009-10-19T13:05:15Z</time></trkpt>
<trkpt lat="46.14375545" lon="5.98586809"><ele>365.918945</ele><time>2009-10-19T13:05:16Z</time></trkpt>
<trkpt lat="46.14372049" lon="5.98583506"><ele>365.438354</ele><time>2009-10-19T13:05:17Z</time></trkpt>
<trkpt lat="46.14369258" lon="5.98579785"><ele>365.438354</ele><time>2009-10-19T13:05:18Z</time></trkpt>
<trkpt lat="46.14367205" lon="5.98575083"><ele>364.957642</ele><time>2009-10-19T13:05:19Z</time></trkpt>
<trkpt lat="46.14365897" lon="5.98569400"><ele>364.476929</ele><time>2009-10-19T13:05:20Z</time></trkpt>
<trkpt lat="46.14364849" lon="5.98562937"><ele>363.996338</ele><time>2009-10-19T13:05:21Z</time></trkpt>
<trkpt lat="46.14363919" lon="5.98556483"><ele>363.515747</ele><time>2009-10-19T13:05:22Z</time></trkpt>
<trkpt lat="46.14362855" lon="5.98549836"><ele>363.515747</ele><time>2009-10-19T13:05:23Z</time></trkpt>
<trkpt lat="46.14362125" lon="5.98542226"><ele>363.035034</ele><time>2009-10-19T13:05:24Z</time></trkpt>
<trkpt lat="46.14361396" lon="5.98535025"><ele>363.035034</ele><time>2009-10-19T13:05:25Z</time></trkpt>
<trkpt lat="46.14359787" lon="5.98526744"><ele>362.07373</ele><time>2009-10-19T13:05:26Z</time></trkpt>
<trkpt lat="46.14355705" lon="5.98518832"><ele>361.112427</ele><time>2009-10-19T13:05:27Z</time></trkpt>
<trkpt lat="46.14353492" lon="5.98512285"><ele>360.151123</ele><time>2009-10-19T13:05:28Z</time></trkpt>
<trkpt lat="46.14353919" lon="5.98505236"><ele>359.189697</ele><time>2009-10-19T13:05:29Z</time></trkpt>
<trkpt lat="46.14355747" lon="5.98497969"><ele>358.228394</ele><time>2009-10-19T13:05:30Z</time></trkpt>
<trkpt lat="46.14357532" lon="5.98491046"><ele>357.26709</ele><time>2009-10-19T13:05:31Z</time></trkpt>
<trkpt lat="46.14359032" lon="5.98482077"><ele>356.786377</ele><time>2009-10-19T13:05:32Z</time></trkpt>
<trkpt lat="46.14360692" lon="5.98473167"><ele>356.305786</ele><time>2009-10-19T13:05:33Z</time></trkpt>
<trkpt lat="46.14362570" lon="5.98464458"><ele>356.305786</ele><time>2009-10-19T13:05:34Z</time></trkpt>
<trkpt lat="46.14363508" lon="5.98457895"><ele>356.786377</ele><time>2009-10-19T13:05:35Z</time></trkpt>
<trkpt lat="46.14363844" lon="5.98451257"><ele>356.786377</ele><time>2009-10-19T13:05:36Z</time></trkpt>
<trkpt lat="46.14365243" lon="5.98444442"><ele>356.786377</ele><time>2009-10-19T13:05:37Z</time></trkpt>
<trkpt lat="46.14366283" lon="5.98438089"><ele>356.786377</ele><time>2009-10-19T13:05:38Z</time></trkpt>
<trkpt lat="46.14367163" lon="5.98430956"><ele>358.228394</ele><time>2009-10-19T13:05:39Z</time></trkpt>
<trkpt lat="46.14368018" lon="5.98424393"><ele>358.708984</ele><time>2009-10-19T13:05:40Z</time></trkpt>
<trkpt lat="46.14368722" lon="5.98417494"><ele>359.67041</ele><time>2009-10-19T13:05:41Z</time></trkpt>
<trkpt lat="46.14369912" lon="5.98410864"><ele>359.67041</ele><time>2009-10-19T13:05:42Z</time></trkpt>
<trkpt lat="46.14371002" lon="5.98405626"><ele>359.189697</ele><time>2009-10-19T13:05:43Z</time></trkpt>
<trkpt lat="46.14371882" lon="5.98399934"><ele>359.67041</ele><time>2009-10-19T13:05:44Z</time></trkpt>
<trkpt lat="46.14373290" lon="5.98396280"><ele>359.189697</ele><time>2009-10-19T13:05:45Z</time></trkpt>
<trkpt lat="46.14374346" lon="5.98392273"><ele>358.228394</ele><time>2009-10-19T13:05:46Z</time></trkpt>
<trkpt lat="46.14374455" lon="5.98387579"><ele>357.747803</ele><time>2009-10-19T13:05:47Z</time></trkpt>
<trkpt lat="46.14374237" lon="5.98381586"><ele>358.228394</ele><time>2009-10-19T13:05:48Z</time></trkpt>
<trkpt lat="46.14374329" lon="5.98375317"><ele>360.151123</ele><time>2009-10-19T13:05:49Z</time></trkpt>
<trkpt lat="46.14374287" lon="5.98370254"><ele>360.631714</ele><time>2009-10-19T13:05:50Z</time></trkpt>
<trkpt lat="46.14374514" lon="5.98365393"><ele>361.112427</ele><time>2009-10-19T13:05:51Z</time></trkpt>
<trkpt lat="46.14374178" lon="5.98360850"><ele>361.59314</ele><time>2009-10-19T13:05:52Z</time></trkpt>
<trkpt lat="46.14373684" lon="5.98356164"><ele>361.59314</ele><time>2009-10-19T13:05:53Z</time></trkpt>
<trkpt lat="46.14373424" lon="5.98351370"><ele>361.59314</ele><time>2009-10-19T13:05:54Z</time></trkpt>
<trkpt lat="46.14372854" lon="5.98346676"><ele>362.07373</ele><time>2009-10-19T13:05:55Z</time></trkpt>
<trkpt lat="46.14372259" lon="5.98342057"><ele>362.07373</ele><time>2009-10-19T13:05:56Z</time></trkpt>
<trkpt lat="46.14371412" lon="5.98337154"><ele>363.035034</ele><time>2009-10-19T13:05:57Z</time></trkpt>
<trkpt lat="46.14370633" lon="5.98332477"><ele>363.035034</ele><time>2009-10-19T13:05:58Z</time></trkpt>
<trkpt lat="46.14369694" lon="5.98327230"><ele>363.515747</ele><time>2009-10-19T13:05:59Z</time></trkpt>
<trkpt lat="46.14368328" lon="5.98321689"><ele>363.996338</ele><time>2009-10-19T13:06:00Z</time></trkpt>
<trkpt lat="46.14366576" lon="5.98316752"><ele>363.996338</ele><time>2009-10-19T13:06:01Z</time></trkpt>
<trkpt lat="46.14365243" lon="5.98311748"><ele>363.996338</ele><time>2009-10-19T13:06:02Z</time></trkpt>
<trkpt lat="46.14364455" lon="5.98306233"><ele>363.996338</ele><time>2009-10-19T13:06:03Z</time></trkpt>
<trkpt lat="46.14363039" lon="5.98300760"><ele>364.476929</ele><time>2009-10-19T13:06:04Z</time></trkpt>
<trkpt lat="46.14361153" lon="5.98295663"><ele>364.957642</ele><time>2009-10-19T13:06:05Z</time></trkpt>
<trkpt lat="46.14359887" lon="5.98290567"><ele>364.957642</ele><time>2009-10-19T13:06:06Z</time></trkpt>
<trkpt lat="46.14358588" lon="5.98285823"><ele>365.438354</ele><time>2009-10-19T13:06:07Z</time></trkpt>
<trkpt lat="46.14357817" lon="5.98281548"><ele>364.957642</ele><time>2009-10-19T13:06:08Z</time></trkpt>
<trkpt lat="46.14356912" lon="5.98276276"><ele>364.957642</ele><time>2009-10-19T13:06:09Z</time></trkpt>
<trkpt lat="46.14355512" lon="5.98271146"><ele>364.957642</ele><time>2009-10-19T13:06:10Z</time></trkpt>
<trkpt lat="46.14353492" lon="5.98265874"><ele>364.957642</ele><time>2009-10-19T13:06:11Z</time></trkpt>
<trkpt lat="46.14350676" lon="5.98260007"><ele>364.957642</ele><time>2009-10-19T13:06:12Z</time></trkpt>
<trkpt lat="46.14347340" lon="5.98254114"><ele>365.438354</ele><time>2009-10-19T13:06:13Z</time></trkpt>
<trkpt lat="46.14343844" lon="5.98248356"><ele>364.957642</ele><time>2009-10-19T13:06:14Z</time></trkpt>
<trkpt lat="46.14340500" lon="5.98242329"><ele>364.476929</ele><time>2009-10-19T13:06:15Z</time></trkpt>
<trkpt lat="46.14337348" lon="5.98236035"><ele>363.996338</ele><time>2009-10-19T13:06:16Z</time></trkpt>
<trkpt lat="46.14334163" lon="5.98229715"><ele>363.996338</ele><time>2009-10-19T13:06:17Z</time></trkpt>
<trkpt lat="46.14331012" lon="5.98223328"><ele>363.515747</ele><time>2009-10-19T13:06:18Z</time></trkpt>
<trkpt lat="46.14327818" lon="5.98216555"><ele>363.515747</ele><time>2009-10-19T13:06:19Z</time></trkpt>
<trkpt lat="46.14325144" lon="5.98209229"><ele>363.035034</ele><time>2009-10-19T13:06:20Z</time></trkpt>
<trkpt lat="46.14323074" lon="5.98201032"><ele>363.035034</ele><time>2009-10-19T13:06:21Z</time></trkpt>
<trkpt lat="46.14321833" lon="5.98193253"><ele>363.035034</ele><time>2009-10-19T13:06:22Z</time></trkpt>
<trkpt lat="46.14321138" lon="5.98186020"><ele>362.554321</ele><time>2009-10-19T13:06:23Z</time></trkpt>
<trkpt lat="46.14321138" lon="5.98179155"><ele>362.554321</ele><time>2009-10-19T13:06:24Z</time></trkpt>
<trkpt lat="46.14321389" lon="5.98172676"><ele>362.554321</ele><time>2009-10-19T13:06:25Z</time></trkpt>
<trkpt lat="46.14321699" lon="5.98166465"><ele>362.554321</ele><time>2009-10-19T13:06:26Z</time></trkpt>
<trkpt lat="46.14322227" lon="5.98160807"><ele>362.554321</ele><time>2009-10-19T13:06:27Z</time></trkpt>
<trkpt lat="46.14322605" lon="5.98155267"><ele>362.554321</ele><time>2009-10-19T13:06:28Z</time></trkpt>
<trkpt lat="46.14322973" lon="5.98150212"><ele>362.554321</ele><time>2009-10-19T13:06:29Z</time></trkpt>
<trkpt lat="46.14323485" lon="5.98145703"><ele>362.07373</ele><time>2009-10-19T13:06:30Z</time></trkpt>
<trkpt lat="46.14323376" lon="5.98141596"><ele>360.631714</ele><time>2009-10-19T13:06:31Z</time></trkpt>
<trkpt lat="46.14323258" lon="5.98137313"><ele>359.67041</ele><time>2009-10-19T13:06:32Z</time></trkpt>
<trkpt lat="46.14323133" lon="5.98132988"><ele>358.708984</ele><time>2009-10-19T13:06:33Z</time></trkpt>
<trkpt lat="46.14323786" lon="5.98127967"><ele>358.708984</ele><time>2009-10-19T13:06:34Z</time></trkpt>
<trkpt lat="46.14324725" lon="5.98122795"><ele>358.708984</ele><time>2009-10-19T13:06:35Z</time></trkpt>
<trkpt lat="46.14325672" lon="5.98117615"><ele>358.228394</ele><time>2009-10-19T13:06:36Z</time></trkpt>
<trkpt lat="46.14326628" lon="5.98112343"><ele>358.228394</ele><time>2009-10-19T13:06:37Z</time></trkpt>
<trkpt lat="46.14327550" lon="5.98107138"><ele>357.747803</ele><time>2009-10-19T13:06:38Z</time></trkpt>
<trkpt lat="46.14328640" lon="5.98101916"><ele>357.747803</ele><time>2009-10-19T13:06:39Z</time></trkpt>
<trkpt lat="46.14329712" lon="5.98096929"><ele>357.747803</ele><time>2009-10-19T13:06:40Z</time></trkpt>
<trkpt lat="46.14330844" lon="5.98091950"><ele>358.228394</ele><time>2009-10-19T13:06:41Z</time></trkpt>
<trkpt lat="46.14331925" lon="5.98087038"><ele>357.747803</ele><time>2009-10-19T13:06:42Z</time></trkpt>
<trkpt lat="46.14333116" lon="5.98082587"><ele>357.747803</ele><time>2009-10-19T13:06:43Z</time></trkpt>
<trkpt lat="46.14334909" lon="5.98078824"><ele>358.228394</ele><time>2009-10-19T13:06:44Z</time></trkpt>
<trkpt lat="46.14337298" lon="5.98075379"><ele>357.747803</ele><time>2009-10-19T13:06:45Z</time></trkpt>
<trkpt lat="46.14339754" lon="5.98071917"><ele>357.747803</ele><time>2009-10-19T13:06:46Z</time></trkpt>
<trkpt lat="46.14342369" lon="5.98068355"><ele>357.747803</ele><time>2009-10-19T13:06:47Z</time></trkpt>
<trkpt lat="46.14345253" lon="5.98064935"><ele>357.26709</ele><time>2009-10-19T13:06:48Z</time></trkpt>
<trkpt lat="46.14348438" lon="5.98061817"><ele>356.786377</ele><time>2009-10-19T13:06:49Z</time></trkpt>
<trkpt lat="46.14351950" lon="5.98058917"><ele>356.786377</ele><time>2009-10-19T13:06:50Z</time></trkpt>
<trkpt lat="46.14355646" lon="5.98056092"><ele>356.305786</ele><time>2009-10-19T13:06:51Z</time></trkpt>
<trkpt lat="46.14359493" lon="5.98053083"><ele>356.305786</ele><time>2009-10-19T13:06:52Z</time></trkpt>
<trkpt lat="46.14363458" lon="5.98049814"><ele>355.825195</ele><time>2009-10-19T13:06:53Z</time></trkpt>
<trkpt lat="46.14367574" lon="5.98046386"><ele>355.825195</ele><time>2009-10-19T13:06:54Z</time></trkpt>
<trkpt lat="46.14371857" lon="5.98042899"><ele>355.344482</ele><time>2009-10-19T13:06:55Z</time></trkpt>
<trkpt lat="46.14376249" lon="5.98039278"><ele>355.344482</ele><time>2009-10-19T13:06:56Z</time></trkpt>
<trkpt lat="46.14380624" lon="5.98035405"><ele>355.344482</ele><time>2009-10-19T13:06:57Z</time></trkpt>
<trkpt lat="46.14384983" lon="5.98031248"><ele>354.86377</ele><time>2009-10-19T13:06:58Z</time></trkpt>
<trkpt lat="46.14389434" lon="5.98027065"><ele>354.86377</ele><time>2009-10-19T13:06:59Z</time></trkpt>
<trkpt lat="46.14393968" lon="5.98023076"><ele>354.86377</ele><time>2009-10-19T13:07:00Z</time></trkpt>
<trkpt lat="46.14398536" lon="5.98019002"><ele>354.86377</ele><time>2009-10-19T13:07:01Z</time></trkpt>
<trkpt lat="46.14403096" lon="5.98014694"><ele>354.86377</ele><time>2009-10-19T13:07:02Z</time></trkpt>
<trkpt lat="46.14407765" lon="5.98010310"><ele>354.86377</ele><time>2009-10-19T13:07:03Z</time></trkpt>
<trkpt lat="46.14412576" lon="5.98005708"><ele>354.86377</ele><time>2009-10-19T13:07:04Z</time></trkpt>
<trkpt lat="46.14417454" lon="5.98000738"><ele>354.86377</ele><time>2009-10-19T13:07:05Z</time></trkpt>
<trkpt lat="46.14422450" lon="5.97995616"><ele>354.383179</ele><time>2009-10-19T13:07:06Z</time></trkpt>
<trkpt lat="46.14427513" lon="5.97990328"><ele>354.383179</ele><time>2009-10-19T13:07:07Z</time></trkpt>
<trkpt lat="46.14432592" lon="5.97984728"><ele>354.383179</ele><time>2009-10-19T13:07:08Z</time></trkpt>
<trkpt lat="46.14437663" lon="5.97978853"><ele>354.383179</ele><time>2009-10-19T13:07:09Z</time></trkpt>
<trkpt lat="46.14442776" lon="5.97972809"><ele>354.383179</ele><time>2009-10-19T13:07:10Z</time></trkpt>
<trkpt lat="46.14447897" lon="5.97966632"><ele>354.383179</ele><time>2009-10-19T13:07:11Z</time></trkpt>
<trkpt lat="46.14452960" lon="5.97960345"><ele>354.383179</ele><time>2009-10-19T13:07:12Z</time></trkpt>
<trkpt lat="46.14457922" lon="5.97953967"><ele>354.383179</ele><time>2009-10-19T13:07:13Z</time></trkpt>
<trkpt lat="46.14462867" lon="5.97947613"><ele>353.902588</ele><time>2009-10-19T13:07:14Z</time></trkpt>
<trkpt lat="46.14467888" lon="5.97941344"><ele>353.902588</ele><time>2009-10-19T13:07:15Z</time></trkpt>
<trkpt lat="46.14473060" lon="5.97935158"><ele>353.902588</ele><time>2009-10-19T13:07:16Z</time></trkpt>
<trkpt lat="46.14478307" lon="5.97929039"><ele>353.902588</ele><time>2009-10-19T13:07:17Z</time></trkpt>
<trkpt lat="46.14483629" lon="5.97922836"><ele>353.902588</ele><time>2009-10-19T13:07:18Z</time></trkpt>
<trkpt lat="46.14488943" lon="5.97916659"><ele>353.902588</ele><time>2009-10-19T13:07:19Z</time></trkpt>
<trkpt lat="46.14494266" lon="5.97910549"><ele>353.902588</ele><time>2009-10-19T13:07:20Z</time></trkpt>
<trkpt lat="46.14499597" lon="5.97904522"><ele>353.902588</ele><time>2009-10-19T13:07:21Z</time></trkpt>
<trkpt lat="46.14504995" lon="5.97898680"><ele>353.902588</ele><time>2009-10-19T13:07:22Z</time></trkpt>
<trkpt lat="46.14510384" lon="5.97892963"><ele>353.902588</ele><time>2009-10-19T13:07:23Z</time></trkpt>
<trkpt lat="46.14515757" lon="5.97887314"><ele>353.902588</ele><time>2009-10-19T13:07:24Z</time></trkpt>
<trkpt lat="46.14521147" lon="5.97881773"><ele>353.902588</ele><time>2009-10-19T13:07:25Z</time></trkpt>
<trkpt lat="46.14526528" lon="5.97876258"><ele>353.902588</ele><time>2009-10-19T13:07:26Z</time></trkpt>
<trkpt lat="46.14531859" lon="5.97870743"><ele>353.902588</ele><time>2009-10-19T13:07:27Z</time></trkpt>
<trkpt lat="46.14537206" lon="5.97865345"><ele>353.902588</ele><time>2009-10-19T13:07:28Z</time></trkpt>
<trkpt lat="46.14542537" lon="5.97859939"><ele>353.902588</ele><time>2009-10-19T13:07:29Z</time></trkpt>
<trkpt lat="46.14547835" lon="5.97854507"><ele>353.902588</ele><time>2009-10-19T13:07:30Z</time></trkpt>
<trkpt lat="46.14553182" lon="5.97849193"><ele>353.421875</ele><time>2009-10-19T13:07:31Z</time></trkpt>
<trkpt lat="46.14558555" lon="5.97843963"><ele>353.421875</ele><time>2009-10-19T13:07:32Z</time></trkpt>
<trkpt lat="46.14563894" lon="5.97838632"><ele>353.421875</ele><time>2009-10-19T13:07:33Z</time></trkpt>
<trkpt lat="46.14569209" lon="5.97833158"><ele>353.421875</ele><time>2009-10-19T13:07:34Z</time></trkpt>
<trkpt lat="46.14574405" lon="5.97827534"><ele>353.421875</ele><time>2009-10-19T13:07:35Z</time></trkpt>
<trkpt lat="46.14579326" lon="5.97821533"><ele>353.902588</ele><time>2009-10-19T13:07:36Z</time></trkpt>
<trkpt lat="46.14583634" lon="5.97814769"><ele>353.902588</ele><time>2009-10-19T13:07:37Z</time></trkpt>
<trkpt lat="46.14587179" lon="5.97807175"><ele>353.902588</ele><time>2009-10-19T13:07:38Z</time></trkpt>
<trkpt lat="46.14589786" lon="5.97798868"><ele>353.902588</ele><time>2009-10-19T13:07:39Z</time></trkpt>
<trkpt lat="46.14591412" lon="5.97789983"><ele>353.902588</ele><time>2009-10-19T13:07:40Z</time></trkpt>
<trkpt lat="46.14592477" lon="5.97780679"><ele>354.383179</ele><time>2009-10-19T13:07:41Z</time></trkpt>
<trkpt lat="46.14593223" lon="5.97771283"><ele>354.86377</ele><time>2009-10-19T13:07:42Z</time></trkpt>
<trkpt lat="46.14593902" lon="5.97761787"><ele>355.344482</ele><time>2009-10-19T13:07:43Z</time></trkpt>
<trkpt lat="46.14594472" lon="5.97752223"><ele>355.825195</ele><time>2009-10-19T13:07:44Z</time></trkpt>
<trkpt lat="46.14595142" lon="5.97742575"><ele>356.786377</ele><time>2009-10-19T13:07:45Z</time></trkpt>
<trkpt lat="46.14596349" lon="5.97732877"><ele>357.26709</ele><time>2009-10-19T13:07:46Z</time></trkpt>
<trkpt lat="46.14598319" lon="5.97723423"><ele>357.26709</ele><time>2009-10-19T13:07:47Z</time></trkpt>
<trkpt lat="46.14601345" lon="5.97714487"><ele>357.26709</ele><time>2009-10-19T13:07:48Z</time></trkpt>
<trkpt lat="46.14605184" lon="5.97706265"><ele>357.26709</ele><time>2009-10-19T13:07:49Z</time></trkpt>
<trkpt lat="46.14609442" lon="5.97698445"><ele>357.26709</ele><time>2009-10-19T13:07:50Z</time></trkpt>
<trkpt lat="46.14613834" lon="5.97690767"><ele>357.26709</ele><time>2009-10-19T13:07:51Z</time></trkpt>
<trkpt lat="46.14618285" lon="5.97683173"><ele>357.26709</ele><time>2009-10-19T13:07:52Z</time></trkpt>
<trkpt lat="46.14622769" lon="5.97675604"><ele>357.26709</ele><time>2009-10-19T13:07:53Z</time></trkpt>
<trkpt lat="46.14627220" lon="5.97668018"><ele>357.26709</ele><time>2009-10-19T13:07:54Z</time></trkpt>
<trkpt lat="46.14631654" lon="5.97660424"><ele>357.26709</ele><time>2009-10-19T13:07:55Z</time></trkpt>
<trkpt lat="46.14636096" lon="5.97652839"><ele>357.26709</ele><time>2009-10-19T13:07:56Z</time></trkpt>
<trkpt lat="46.14640488" lon="5.97645178"><ele>356.786377</ele><time>2009-10-19T13:07:57Z</time></trkpt>
<trkpt lat="46.14644939" lon="5.97637525"><ele>356.786377</ele><time>2009-10-19T13:07:58Z</time></trkpt>
<trkpt lat="46.14649407" lon="5.97629872"><ele>356.786377</ele><time>2009-10-19T13:07:59Z</time></trkpt>
<trkpt lat="46.14653824" lon="5.97622178"><ele>356.786377</ele><time>2009-10-19T13:08:00Z</time></trkpt>
<trkpt lat="46.14658283" lon="5.97614575"><ele>356.786377</ele><time>2009-10-19T13:08:01Z</time></trkpt>
<trkpt lat="46.14662776" lon="5.97607099"><ele>356.786377</ele><time>2009-10-19T13:08:02Z</time></trkpt>
<trkpt lat="46.14667227" lon="5.97599622"><ele>356.786377</ele><time>2009-10-19T13:08:03Z</time></trkpt>
<trkpt lat="46.14671686" lon="5.97592204"><ele>356.786377</ele><time>2009-10-19T13:08:04Z</time></trkpt>
<trkpt lat="46.14676137" lon="5.97584886"><ele>356.786377</ele><time>2009-10-19T13:08:05Z</time></trkpt>
<trkpt lat="46.14680554" lon="5.97577586"><ele>356.786377</ele><time>2009-10-19T13:08:06Z</time></trkpt>
<trkpt lat="46.14684979" lon="5.97570294"><ele>357.26709</ele><time>2009-10-19T13:08:07Z</time></trkpt>
<trkpt lat="46.14689397" lon="5.97562993"><ele>357.26709</ele><time>2009-10-19T13:08:08Z</time></trkpt>
<trkpt lat="46.14693755" lon="5.97555667"><ele>357.26709</ele><time>2009-10-19T13:08:09Z</time></trkpt>
<trkpt lat="46.14697980" lon="5.97548165"><ele>357.26709</ele><time>2009-10-19T13:08:10Z</time></trkpt>
<trkpt lat="46.14702104" lon="5.97540605"><ele>357.26709</ele><time>2009-10-19T13:08:11Z</time></trkpt>
<trkpt lat="46.14706269" lon="5.97533162"><ele>357.26709</ele><time>2009-10-19T13:08:12Z</time></trkpt>
<trkpt lat="46.14710578" lon="5.97525819"><ele>357.26709</ele><time>2009-10-19T13:08:13Z</time></trkpt>
<trkpt lat="46.14714978" lon="5.97518460"><ele>357.26709</ele><time>2009-10-19T13:08:14Z</time></trkpt>
<trkpt lat="46.14719362" lon="5.97511000"><ele>357.26709</ele><time>2009-10-19T13:08:15Z</time></trkpt>
<trkpt lat="46.14723746" lon="5.97503523"><ele>357.26709</ele><time>2009-10-19T13:08:16Z</time></trkpt>
<trkpt lat="46.14728247" lon="5.97495938"><ele>357.747803</ele><time>2009-10-19T13:08:17Z</time></trkpt>
<trkpt lat="46.14732547" lon="5.97488503"><ele>357.747803</ele><time>2009-10-19T13:08:18Z</time></trkpt>
<trkpt lat="46.14736729" lon="5.97481144"><ele>357.747803</ele><time>2009-10-19T13:08:19Z</time></trkpt>
<trkpt lat="46.14740367" lon="5.97474262"><ele>356.786377</ele><time>2009-10-19T13:08:20Z</time></trkpt>
<trkpt lat="46.14744013" lon="5.97467422"><ele>355.825195</ele><time>2009-10-19T13:08:21Z</time></trkpt>
<trkpt lat="46.14747743" lon="5.97460574"><ele>355.344482</ele><time>2009-10-19T13:08:22Z</time></trkpt>
<trkpt lat="46.14751523" lon="5.97453617"><ele>354.86377</ele><time>2009-10-19T13:08:23Z</time></trkpt>
<trkpt lat="46.14755044" lon="5.97446267"><ele>354.383179</ele><time>2009-10-19T13:08:24Z</time></trkpt>
<trkpt lat="46.14758070" lon="5.97438656"><ele>353.902588</ele><time>2009-10-19T13:08:25Z</time></trkpt>
<trkpt lat="46.14756997" lon="5.97434725"><ele>352.460571</ele><time>2009-10-19T13:08:26Z</time></trkpt>
<trkpt lat="46.14758397" lon="5.97426603"><ele>351.979858</ele><time>2009-10-19T13:08:27Z</time></trkpt>
<trkpt lat="46.14760350" lon="5.97417500"><ele>351.499146</ele><time>2009-10-19T13:08:28Z</time></trkpt>
<trkpt lat="46.14762445" lon="5.97408816"><ele>351.499146</ele><time>2009-10-19T13:08:29Z</time></trkpt>
<trkpt lat="46.14765462" lon="5.97400049"><ele>351.979858</ele><time>2009-10-19T13:08:30Z</time></trkpt>
<trkpt lat="46.14768337" lon="5.97391742"><ele>351.979858</ele><time>2009-10-19T13:08:31Z</time></trkpt>
<trkpt lat="46.14770542" lon="5.97384006"><ele>352.460571</ele><time>2009-10-19T13:08:32Z</time></trkpt>
<trkpt lat="46.14773124" lon="5.97376412"><ele>351.979858</ele><time>2009-10-19T13:08:33Z</time></trkpt>
<trkpt lat="46.14776099" lon="5.97369287"><ele>351.499146</ele><time>2009-10-19T13:08:34Z</time></trkpt>
<trkpt lat="46.14779787" lon="5.97362523"><ele>351.018433</ele><time>2009-10-19T13:08:35Z</time></trkpt>
<trkpt lat="46.14783852" lon="5.97355893"><ele>351.018433</ele><time>2009-10-19T13:08:36Z</time></trkpt>
<trkpt lat="46.14788177" lon="5.97349447"><ele>350.537842</ele><time>2009-10-19T13:08:37Z</time></trkpt>
<trkpt lat="46.14793156" lon="5.97342708"><ele>351.018433</ele><time>2009-10-19T13:08:38Z</time></trkpt>
<trkpt lat="46.14798328" lon="5.97335659"><ele>351.979858</ele><time>2009-10-19T13:08:39Z</time></trkpt>
<trkpt lat="46.14802695" lon="5.97329188"><ele>352.460571</ele><time>2009-10-19T13:08:40Z</time></trkpt>
<trkpt lat="46.14807238" lon="5.97322575"><ele>352.941162</ele><time>2009-10-19T13:08:41Z</time></trkpt>
<trkpt lat="46.14811664" lon="5.97315769"><ele>353.421875</ele><time>2009-10-19T13:08:42Z</time></trkpt>
<trkpt lat="46.14815997" lon="5.97309030"><ele>353.902588</ele><time>2009-10-19T13:08:43Z</time></trkpt>
<trkpt lat="46.14820288" lon="5.97302324"><ele>353.902588</ele><time>2009-10-19T13:08:44Z</time></trkpt>
<trkpt lat="46.14824555" lon="5.97295744"><ele>354.383179</ele><time>2009-10-19T13:08:45Z</time></trkpt>
<trkpt lat="46.14828805" lon="5.97289139"><ele>354.383179</ele><time>2009-10-19T13:08:46Z</time></trkpt>
<trkpt lat="46.14833012" lon="5.97282719"><ele>354.383179</ele><time>2009-10-19T13:08:47Z</time></trkpt>
<trkpt lat="46.14837237" lon="5.97276709"><ele>354.383179</ele><time>2009-10-19T13:08:48Z</time></trkpt>
<trkpt lat="46.14841386" lon="5.97270917"><ele>354.86377</ele><time>2009-10-19T13:08:49Z</time></trkpt>
<trkpt lat="46.14845384" lon="5.97265293"><ele>354.86377</ele><time>2009-10-19T13:08:50Z</time></trkpt>
<trkpt lat="46.14849332" lon="5.97260063"><ele>354.86377</ele><time>2009-10-19T13:08:51Z</time></trkpt>
<trkpt lat="46.14853422" lon="5.97255209"><ele>355.344482</ele><time>2009-10-19T13:08:52Z</time></trkpt>
<trkpt lat="46.14857487" lon="5.97250884"><ele>355.825195</ele><time>2009-10-19T13:08:53Z</time></trkpt>
<trkpt lat="46.14861293" lon="5.97246685"><ele>356.305786</ele><time>2009-10-19T13:08:54Z</time></trkpt>
<trkpt lat="46.14864780" lon="5.97242343"><ele>356.786377</ele><time>2009-10-19T13:08:55Z</time></trkpt>
<trkpt lat="46.14868602" lon="5.97237616"><ele>356.786377</ele><time>2009-10-19T13:08:56Z</time></trkpt>
<trkpt lat="46.14872156" lon="5.97233266"><ele>357.26709</ele><time>2009-10-19T13:08:57Z</time></trkpt>
<trkpt lat="46.14875450" lon="5.97229393"><ele>357.26709</ele><time>2009-10-19T13:08:58Z</time></trkpt>
<trkpt lat="46.14878098" lon="5.97225328"><ele>357.26709</ele><time>2009-10-19T13:08:59Z</time></trkpt>
<trkpt lat="46.14880295" lon="5.97221112"><ele>356.786377</ele><time>2009-10-19T13:09:00Z</time></trkpt>
<trkpt lat="46.14882306" lon="5.97217583"><ele>357.26709</ele><time>2009-10-19T13:09:01Z</time></trkpt>
<trkpt lat="46.14883957" lon="5.97212646"><ele>359.67041</ele><time>2009-10-19T13:09:02Z</time></trkpt>
<trkpt lat="46.14883304" lon="5.97207575"><ele>360.631714</ele><time>2009-10-19T13:09:03Z</time></trkpt>
<trkpt lat="46.14881929" lon="5.97202395"><ele>360.631714</ele><time>2009-10-19T13:09:04Z</time></trkpt>
<trkpt lat="46.14879909" lon="5.97196863"><ele>361.112427</ele><time>2009-10-19T13:09:05Z</time></trkpt>
<trkpt lat="46.14876975" lon="5.97191205"><ele>361.112427</ele><time>2009-10-19T13:09:06Z</time></trkpt>
<trkpt lat="46.14873354" lon="5.97185464"><ele>361.59314</ele><time>2009-10-19T13:09:07Z</time></trkpt>
<trkpt lat="46.14869029" lon="5.97179890"><ele>361.59314</ele><time>2009-10-19T13:09:08Z</time></trkpt>
<trkpt lat="46.14864964" lon="5.97173662"><ele>362.07373</ele><time>2009-10-19T13:09:09Z</time></trkpt>
<trkpt lat="46.14861502" lon="5.97166630"><ele>362.07373</ele><time>2009-10-19T13:09:10Z</time></trkpt>
<trkpt lat="46.14857982" lon="5.97159312"><ele>362.554321</ele><time>2009-10-19T13:09:11Z</time></trkpt>
<trkpt lat="46.14853699" lon="5.97152414"><ele>362.554321</ele><time>2009-10-19T13:09:12Z</time></trkpt>
<trkpt lat="46.14849055" lon="5.97145733"><ele>362.07373</ele><time>2009-10-19T13:09:13Z</time></trkpt>
<trkpt lat="46.14845158" lon="5.97138458"><ele>362.07373</ele><time>2009-10-19T13:09:14Z</time></trkpt>
<trkpt lat="46.14841335" lon="5.97131099"><ele>362.554321</ele><time>2009-10-19T13:09:15Z</time></trkpt>
<trkpt lat="46.14837279" lon="5.97123840"><ele>362.07373</ele><time>2009-10-19T13:09:16Z</time></trkpt>
<trkpt lat="46.14832912" lon="5.97116548"><ele>362.07373</ele><time>2009-10-19T13:09:17Z</time></trkpt>
<trkpt lat="46.14828176" lon="5.97109205"><ele>362.07373</ele><time>2009-10-19T13:09:18Z</time></trkpt>
<trkpt lat="46.14823130" lon="5.97101879"><ele>361.59314</ele><time>2009-10-19T13:09:19Z</time></trkpt>
<trkpt lat="46.14817707" lon="5.97094713"><ele>361.112427</ele><time>2009-10-19T13:09:20Z</time></trkpt>
<trkpt lat="46.14812602" lon="5.97086834"><ele>361.112427</ele><time>2009-10-19T13:09:21Z</time></trkpt>
<trkpt lat="46.14807129" lon="5.97078997"><ele>360.631714</ele><time>2009-10-19T13:09:22Z</time></trkpt>
<trkpt lat="46.14801999" lon="5.97070782"><ele>360.631714</ele><time>2009-10-19T13:09:23Z</time></trkpt>
<trkpt lat="46.14797087" lon="5.97062493"><ele>360.631714</ele><time>2009-10-19T13:09:24Z</time></trkpt>
<trkpt lat="46.14791882" lon="5.97054916"><ele>360.631714</ele><time>2009-10-19T13:09:25Z</time></trkpt>
<trkpt lat="46.14787004" lon="5.97047389"><ele>360.631714</ele><time>2009-10-19T13:09:26Z</time></trkpt>
<trkpt lat="46.14782344" lon="5.97040214"><ele>360.631714</ele><time>2009-10-19T13:09:27Z</time></trkpt>
<trkpt lat="46.14777742" lon="5.97033072"><ele>360.151123</ele><time>2009-10-19T13:09:28Z</time></trkpt>
<trkpt lat="46.14773182" lon="5.97025948"><ele>360.151123</ele><time>2009-10-19T13:09:29Z</time></trkpt>
<trkpt lat="46.14768958" lon="5.97018605"><ele>360.151123</ele><time>2009-10-19T13:09:30Z</time></trkpt>
<trkpt lat="46.14765094" lon="5.97011028"><ele>360.151123</ele><time>2009-10-19T13:09:31Z</time></trkpt>
<trkpt lat="46.14761079" lon="5.97004289"><ele>360.631714</ele><time>2009-10-19T13:09:32Z</time></trkpt>
<trkpt lat="46.14757055" lon="5.96998832"><ele>360.151123</ele><time>2009-10-19T13:09:33Z</time></trkpt>
<trkpt lat="46.14753275" lon="5.96994884"><ele>360.631714</ele><time>2009-10-19T13:09:34Z</time></trkpt>
<trkpt lat="46.14747995" lon="5.96996234"><ele>361.112427</ele><time>2009-10-19T13:09:35Z</time></trkpt>
<trkpt lat="46.14744952" lon="5.96998815"><ele>361.112427</ele><time>2009-10-19T13:09:36Z</time></trkpt>
<trkpt lat="46.14744449" lon="5.97000165"><ele>361.112427</ele><time>2009-10-19T13:09:37Z</time></trkpt>
<trkpt lat="46.14743368" lon="5.97000458"><ele>360.631714</ele><time>2009-10-19T13:09:38Z</time></trkpt>
</trkseg></trk></gpx>